<?xml version="1.0" encoding="UTF-8" standalone="no" ?>
<gpx xmlns="http://www.topografix.com/GPX/1/1" xmlns:xsi="http://www.w3.org/2001/XMLSchema-instance" xsi:schemaLocation="http://www.topografix.com/GPX/1/1 http://www.topografix.com/GPX/1/1/gpx.xsd" version="1.1" creator="VisuGPX - https://www.visugpx.com">
  <metadata>
    <name>saintelyon 2011</name>
    <desc><![CDATA[Une course longue, longue et des quais qui n\'en finissent pas.]]></desc>
  </metadata>
  <trk>
    <name><![CDATA[2011-12-03T23:02:08Z]]></name>
    <trkseg>
      <trkpt lat="45.46098" lon="4.38836">
        <ele>495.2161865</ele>
        <time>2011-12-03T23:02:08Z</time>
      </trkpt>
      <trkpt lat="45.46098" lon="4.38836">
        <ele>495.2161865</ele>
        <time>2011-12-03T23:02:09Z</time>
      </trkpt>
      <trkpt lat="45.46105" lon="4.38838">
        <ele>494.2550049</ele>
        <time>2011-12-03T23:02:13Z</time>
      </trkpt>
      <trkpt lat="45.4612" lon="4.38846">
        <ele>491.8516846</ele>
        <time>2011-12-03T23:02:20Z</time>
      </trkpt>
      <trkpt lat="45.4613" lon="4.38855">
        <ele>491.3709717</ele>
        <time>2011-12-03T23:02:25Z</time>
      </trkpt>
      <trkpt lat="45.46137" lon="4.3887">
        <ele>491.8516846</ele>
        <time>2011-12-03T23:02:31Z</time>
      </trkpt>
      <trkpt lat="45.46142" lon="4.38877">
        <ele>492.3323975</ele>
        <time>2011-12-03T23:02:34Z</time>
      </trkpt>
      <trkpt lat="45.4615" lon="4.38892">
        <ele>492.3323975</ele>
        <time>2011-12-03T23:02:39Z</time>
      </trkpt>
      <trkpt lat="45.46158" lon="4.38904">
        <ele>492.3323975</ele>
        <time>2011-12-03T23:02:44Z</time>
      </trkpt>
      <trkpt lat="45.46167" lon="4.38922">
        <ele>490.8903809</ele>
        <time>2011-12-03T23:02:52Z</time>
      </trkpt>
      <trkpt lat="45.46169" lon="4.38925">
        <ele>491.3709717</ele>
        <time>2011-12-03T23:02:53Z</time>
      </trkpt>
      <trkpt lat="45.46174" lon="4.38934">
        <ele>490.40979</ele>
        <time>2011-12-03T23:02:57Z</time>
      </trkpt>
      <trkpt lat="45.46178" lon="4.38938">
        <ele>489.9290771</ele>
        <time>2011-12-03T23:02:59Z</time>
      </trkpt>
      <trkpt lat="45.46194" lon="4.38948">
        <ele>488.4871826</ele>
        <time>2011-12-03T23:03:06Z</time>
      </trkpt>
      <trkpt lat="45.46208" lon="4.38949">
        <ele>488.9677734</ele>
        <time>2011-12-03T23:03:12Z</time>
      </trkpt>
      <trkpt lat="45.46224" lon="4.3895">
        <ele>490.40979</ele>
        <time>2011-12-03T23:03:18Z</time>
      </trkpt>
      <trkpt lat="45.46246" lon="4.38951">
        <ele>490.8903809</ele>
        <time>2011-12-03T23:03:26Z</time>
      </trkpt>
      <trkpt lat="45.46258" lon="4.38952">
        <ele>489.4483643</ele>
        <time>2011-12-03T23:03:31Z</time>
      </trkpt>
      <trkpt lat="45.46273" lon="4.38952">
        <ele>488.9677734</ele>
        <time>2011-12-03T23:03:37Z</time>
      </trkpt>
      <trkpt lat="45.46287" lon="4.38954">
        <ele>488.0064697</ele>
        <time>2011-12-03T23:03:43Z</time>
      </trkpt>
      <trkpt lat="45.46303" lon="4.38955">
        <ele>487.5256348</ele>
        <time>2011-12-03T23:03:49Z</time>
      </trkpt>
      <trkpt lat="45.4632" lon="4.38955">
        <ele>487.0450439</ele>
        <time>2011-12-03T23:03:56Z</time>
      </trkpt>
      <trkpt lat="45.46337" lon="4.38956">
        <ele>486.0837402</ele>
        <time>2011-12-03T23:04:03Z</time>
      </trkpt>
      <trkpt lat="45.46357" lon="4.38957">
        <ele>487.0450439</ele>
        <time>2011-12-03T23:04:11Z</time>
      </trkpt>
      <trkpt lat="45.46374" lon="4.38956">
        <ele>488.0064697</ele>
        <time>2011-12-03T23:04:17Z</time>
      </trkpt>
      <trkpt lat="45.46387" lon="4.38956">
        <ele>488.0064697</ele>
        <time>2011-12-03T23:04:22Z</time>
      </trkpt>
      <trkpt lat="45.46397" lon="4.38956">
        <ele>488.4871826</ele>
        <time>2011-12-03T23:04:27Z</time>
      </trkpt>
      <trkpt lat="45.46412" lon="4.38956">
        <ele>488.0064697</ele>
        <time>2011-12-03T23:04:33Z</time>
      </trkpt>
      <trkpt lat="45.46426" lon="4.38954">
        <ele>486.5644531</ele>
        <time>2011-12-03T23:04:39Z</time>
      </trkpt>
      <trkpt lat="45.46439" lon="4.38955">
        <ele>486.5644531</ele>
        <time>2011-12-03T23:04:45Z</time>
      </trkpt>
      <trkpt lat="45.46453" lon="4.38954">
        <ele>484.6418457</ele>
        <time>2011-12-03T23:04:51Z</time>
      </trkpt>
      <trkpt lat="45.46469" lon="4.38954">
        <ele>484.1611328</ele>
        <time>2011-12-03T23:04:57Z</time>
      </trkpt>
      <trkpt lat="45.46482" lon="4.38956">
        <ele>483.6804199</ele>
        <time>2011-12-03T23:05:02Z</time>
      </trkpt>
      <trkpt lat="45.46496" lon="4.38956">
        <ele>482.7192383</ele>
        <time>2011-12-03T23:05:07Z</time>
      </trkpt>
      <trkpt lat="45.46509" lon="4.38949">
        <ele>482.7192383</ele>
        <time>2011-12-03T23:05:12Z</time>
      </trkpt>
      <trkpt lat="45.46524" lon="4.38942">
        <ele>482.2385254</ele>
        <time>2011-12-03T23:05:18Z</time>
      </trkpt>
      <trkpt lat="45.46534" lon="4.38936">
        <ele>482.2385254</ele>
        <time>2011-12-03T23:05:23Z</time>
      </trkpt>
      <trkpt lat="45.4655" lon="4.38926">
        <ele>483.1998291</ele>
        <time>2011-12-03T23:05:28Z</time>
      </trkpt>
      <trkpt lat="45.46565" lon="4.38922">
        <ele>488.4871826</ele>
        <time>2011-12-03T23:05:32Z</time>
      </trkpt>
      <trkpt lat="45.46571" lon="4.38917">
        <ele>487.5256348</ele>
        <time>2011-12-03T23:05:36Z</time>
      </trkpt>
      <trkpt lat="45.46584" lon="4.38907">
        <ele>487.0450439</ele>
        <time>2011-12-03T23:05:42Z</time>
      </trkpt>
      <trkpt lat="45.46597" lon="4.38899">
        <ele>485.6030273</ele>
        <time>2011-12-03T23:05:48Z</time>
      </trkpt>
      <trkpt lat="45.46609" lon="4.38893">
        <ele>484.6418457</ele>
        <time>2011-12-03T23:05:53Z</time>
      </trkpt>
      <trkpt lat="45.46623" lon="4.38882">
        <ele>484.6418457</ele>
        <time>2011-12-03T23:06:00Z</time>
      </trkpt>
      <trkpt lat="45.46625" lon="4.38882">
        <ele>484.6418457</ele>
        <time>2011-12-03T23:06:01Z</time>
      </trkpt>
      <trkpt lat="45.4664" lon="4.38891">
        <ele>482.2385254</ele>
        <time>2011-12-03T23:06:08Z</time>
      </trkpt>
      <trkpt lat="45.46651" lon="4.38905">
        <ele>481.7578125</ele>
        <time>2011-12-03T23:06:14Z</time>
      </trkpt>
      <trkpt lat="45.46657" lon="4.38924">
        <ele>480.7966309</ele>
        <time>2011-12-03T23:06:19Z</time>
      </trkpt>
      <trkpt lat="45.46658" lon="4.38944">
        <ele>479.3544922</ele>
        <time>2011-12-03T23:06:24Z</time>
      </trkpt>
      <trkpt lat="45.4666" lon="4.38962">
        <ele>479.3544922</ele>
        <time>2011-12-03T23:06:29Z</time>
      </trkpt>
      <trkpt lat="45.46662" lon="4.3898">
        <ele>478.3931885</ele>
        <time>2011-12-03T23:06:34Z</time>
      </trkpt>
      <trkpt lat="45.46663" lon="4.39002">
        <ele>478.3931885</ele>
        <time>2011-12-03T23:06:40Z</time>
      </trkpt>
      <trkpt lat="45.46664" lon="4.39018">
        <ele>478.8739014</ele>
        <time>2011-12-03T23:06:44Z</time>
      </trkpt>
      <trkpt lat="45.46667" lon="4.39041">
        <ele>478.8739014</ele>
        <time>2011-12-03T23:06:50Z</time>
      </trkpt>
      <trkpt lat="45.46668" lon="4.3906">
        <ele>477.4318848</ele>
        <time>2011-12-03T23:06:55Z</time>
      </trkpt>
      <trkpt lat="45.46669" lon="4.39074">
        <ele>475.5092773</ele>
        <time>2011-12-03T23:06:59Z</time>
      </trkpt>
      <trkpt lat="45.46669" lon="4.39093">
        <ele>474.0672607</ele>
        <time>2011-12-03T23:07:04Z</time>
      </trkpt>
      <trkpt lat="45.4667" lon="4.39111">
        <ele>473.1060791</ele>
        <time>2011-12-03T23:07:09Z</time>
      </trkpt>
      <trkpt lat="45.4667" lon="4.3913">
        <ele>474.0672607</ele>
        <time>2011-12-03T23:07:14Z</time>
      </trkpt>
      <trkpt lat="45.46672" lon="4.39147">
        <ele>475.0286865</ele>
        <time>2011-12-03T23:07:18Z</time>
      </trkpt>
      <trkpt lat="45.46674" lon="4.39165">
        <ele>474.5479736</ele>
        <time>2011-12-03T23:07:23Z</time>
      </trkpt>
      <trkpt lat="45.46677" lon="4.39188">
        <ele>473.1060791</ele>
        <time>2011-12-03T23:07:29Z</time>
      </trkpt>
      <trkpt lat="45.46678" lon="4.39202">
        <ele>471.1833496</ele>
        <time>2011-12-03T23:07:33Z</time>
      </trkpt>
      <trkpt lat="45.46679" lon="4.39224">
        <ele>469.741333</ele>
        <time>2011-12-03T23:07:39Z</time>
      </trkpt>
      <trkpt lat="45.46679" lon="4.3924">
        <ele>470.2219238</ele>
        <time>2011-12-03T23:07:44Z</time>
      </trkpt>
      <trkpt lat="45.46675" lon="4.39265">
        <ele>469.2607422</ele>
        <time>2011-12-03T23:07:51Z</time>
      </trkpt>
      <trkpt lat="45.46672" lon="4.39287">
        <ele>468.2993164</ele>
        <time>2011-12-03T23:07:57Z</time>
      </trkpt>
      <trkpt lat="45.46667" lon="4.39309">
        <ele>467.8187256</ele>
        <time>2011-12-03T23:08:03Z</time>
      </trkpt>
      <trkpt lat="45.46664" lon="4.39327">
        <ele>468.2993164</ele>
        <time>2011-12-03T23:08:08Z</time>
      </trkpt>
      <trkpt lat="45.4666" lon="4.3935">
        <ele>468.2993164</ele>
        <time>2011-12-03T23:08:14Z</time>
      </trkpt>
      <trkpt lat="45.46659" lon="4.39368">
        <ele>469.2607422</ele>
        <time>2011-12-03T23:08:19Z</time>
      </trkpt>
      <trkpt lat="45.46657" lon="4.39391">
        <ele>470.2219238</ele>
        <time>2011-12-03T23:08:25Z</time>
      </trkpt>
      <trkpt lat="45.46656" lon="4.39415">
        <ele>470.2219238</ele>
        <time>2011-12-03T23:08:32Z</time>
      </trkpt>
      <trkpt lat="45.46656" lon="4.39436">
        <ele>469.741333</ele>
        <time>2011-12-03T23:08:38Z</time>
      </trkpt>
      <trkpt lat="45.46657" lon="4.39453">
        <ele>470.7026367</ele>
        <time>2011-12-03T23:08:43Z</time>
      </trkpt>
      <trkpt lat="45.46657" lon="4.39475">
        <ele>472.1446533</ele>
        <time>2011-12-03T23:08:49Z</time>
      </trkpt>
      <trkpt lat="45.46657" lon="4.39492">
        <ele>474.0672607</ele>
        <time>2011-12-03T23:08:54Z</time>
      </trkpt>
      <trkpt lat="45.46655" lon="4.39514">
        <ele>476.4705811</ele>
        <time>2011-12-03T23:09:00Z</time>
      </trkpt>
      <trkpt lat="45.46656" lon="4.39534">
        <ele>475.9898682</ele>
        <time>2011-12-03T23:09:06Z</time>
      </trkpt>
      <trkpt lat="45.46655" lon="4.39555">
        <ele>477.4318848</ele>
        <time>2011-12-03T23:09:12Z</time>
      </trkpt>
      <trkpt lat="45.46656" lon="4.39571">
        <ele>479.835083</ele>
        <time>2011-12-03T23:09:17Z</time>
      </trkpt>
      <trkpt lat="45.46656" lon="4.39588">
        <ele>482.7192383</ele>
        <time>2011-12-03T23:09:22Z</time>
      </trkpt>
      <trkpt lat="45.46656" lon="4.39605">
        <ele>486.0837402</ele>
        <time>2011-12-03T23:09:27Z</time>
      </trkpt>
      <trkpt lat="45.46656" lon="4.39617">
        <ele>490.8903809</ele>
        <time>2011-12-03T23:09:31Z</time>
      </trkpt>
      <trkpt lat="45.46659" lon="4.39636">
        <ele>496.1777344</ele>
        <time>2011-12-03T23:09:36Z</time>
      </trkpt>
      <trkpt lat="45.46656" lon="4.39661">
        <ele>494.2550049</ele>
        <time>2011-12-03T23:09:43Z</time>
      </trkpt>
      <trkpt lat="45.46654" lon="4.39682">
        <ele>494.7355957</ele>
        <time>2011-12-03T23:09:49Z</time>
      </trkpt>
      <trkpt lat="45.46651" lon="4.39702">
        <ele>497.6196289</ele>
        <time>2011-12-03T23:09:55Z</time>
      </trkpt>
      <trkpt lat="45.46649" lon="4.39724">
        <ele>495.2161865</ele>
        <time>2011-12-03T23:10:02Z</time>
      </trkpt>
      <trkpt lat="45.46645" lon="4.39743">
        <ele>494.2550049</ele>
        <time>2011-12-03T23:10:08Z</time>
      </trkpt>
      <trkpt lat="45.46642" lon="4.39763">
        <ele>493.774292</ele>
        <time>2011-12-03T23:10:14Z</time>
      </trkpt>
      <trkpt lat="45.46642" lon="4.39766">
        <ele>493.2935791</ele>
        <time>2011-12-03T23:10:15Z</time>
      </trkpt>
      <trkpt lat="45.46639" lon="4.39789">
        <ele>489.4483643</ele>
        <time>2011-12-03T23:10:22Z</time>
      </trkpt>
      <trkpt lat="45.46638" lon="4.39807">
        <ele>489.4483643</ele>
        <time>2011-12-03T23:10:28Z</time>
      </trkpt>
      <trkpt lat="45.46634" lon="4.39824">
        <ele>489.9290771</ele>
        <time>2011-12-03T23:10:34Z</time>
      </trkpt>
      <trkpt lat="45.46632" lon="4.39843">
        <ele>488.9677734</ele>
        <time>2011-12-03T23:10:40Z</time>
      </trkpt>
      <trkpt lat="45.46631" lon="4.39859">
        <ele>489.4483643</ele>
        <time>2011-12-03T23:10:45Z</time>
      </trkpt>
      <trkpt lat="45.46627" lon="4.39877">
        <ele>489.9290771</ele>
        <time>2011-12-03T23:10:50Z</time>
      </trkpt>
      <trkpt lat="45.46623" lon="4.39895">
        <ele>491.3709717</ele>
        <time>2011-12-03T23:10:55Z</time>
      </trkpt>
      <trkpt lat="45.4662" lon="4.39912">
        <ele>492.8129883</ele>
        <time>2011-12-03T23:11:00Z</time>
      </trkpt>
      <trkpt lat="45.46619" lon="4.39929">
        <ele>494.2550049</ele>
        <time>2011-12-03T23:11:05Z</time>
      </trkpt>
      <trkpt lat="45.46615" lon="4.39947">
        <ele>495.2161865</ele>
        <time>2011-12-03T23:11:10Z</time>
      </trkpt>
      <trkpt lat="45.46613" lon="4.39965">
        <ele>496.1777344</ele>
        <time>2011-12-03T23:11:15Z</time>
      </trkpt>
      <trkpt lat="45.4661" lon="4.39984">
        <ele>497.138916</ele>
        <time>2011-12-03T23:11:20Z</time>
      </trkpt>
      <trkpt lat="45.46605" lon="4.40003">
        <ele>497.138916</ele>
        <time>2011-12-03T23:11:25Z</time>
      </trkpt>
      <trkpt lat="45.46602" lon="4.40021">
        <ele>498.5809326</ele>
        <time>2011-12-03T23:11:30Z</time>
      </trkpt>
      <trkpt lat="45.466" lon="4.40038">
        <ele>499.0615234</ele>
        <time>2011-12-03T23:11:35Z</time>
      </trkpt>
      <trkpt lat="45.46597" lon="4.40057">
        <ele>500.0229492</ele>
        <time>2011-12-03T23:11:40Z</time>
      </trkpt>
      <trkpt lat="45.46595" lon="4.40072">
        <ele>500.0229492</ele>
        <time>2011-12-03T23:11:44Z</time>
      </trkpt>
      <trkpt lat="45.46591" lon="4.40091">
        <ele>500.0229492</ele>
        <time>2011-12-03T23:11:49Z</time>
      </trkpt>
      <trkpt lat="45.46585" lon="4.40115">
        <ele>499.5422363</ele>
        <time>2011-12-03T23:11:56Z</time>
      </trkpt>
      <trkpt lat="45.4658" lon="4.40138">
        <ele>501.4648438</ele>
        <time>2011-12-03T23:12:03Z</time>
      </trkpt>
      <trkpt lat="45.46575" lon="4.40157">
        <ele>500.50354</ele>
        <time>2011-12-03T23:12:08Z</time>
      </trkpt>
      <trkpt lat="45.46569" lon="4.40179">
        <ele>499.0615234</ele>
        <time>2011-12-03T23:12:14Z</time>
      </trkpt>
      <trkpt lat="45.46565" lon="4.40193">
        <ele>500.0229492</ele>
        <time>2011-12-03T23:12:18Z</time>
      </trkpt>
      <trkpt lat="45.4656" lon="4.40214">
        <ele>501.4648438</ele>
        <time>2011-12-03T23:12:24Z</time>
      </trkpt>
      <trkpt lat="45.46553" lon="4.40236">
        <ele>502.9067383</ele>
        <time>2011-12-03T23:12:31Z</time>
      </trkpt>
      <trkpt lat="45.4655" lon="4.40256">
        <ele>506.2714844</ele>
        <time>2011-12-03T23:12:37Z</time>
      </trkpt>
      <trkpt lat="45.46546" lon="4.40269">
        <ele>506.7520752</ele>
        <time>2011-12-03T23:12:41Z</time>
      </trkpt>
      <trkpt lat="45.46538" lon="4.40288">
        <ele>504.8294678</ele>
        <time>2011-12-03T23:12:47Z</time>
      </trkpt>
      <trkpt lat="45.46531" lon="4.40309">
        <ele>505.3101807</ele>
        <time>2011-12-03T23:12:53Z</time>
      </trkpt>
      <trkpt lat="45.46521" lon="4.4033">
        <ele>504.8294678</ele>
        <time>2011-12-03T23:13:00Z</time>
      </trkpt>
      <trkpt lat="45.46518" lon="4.40338">
        <ele>504.8294678</ele>
        <time>2011-12-03T23:13:03Z</time>
      </trkpt>
      <trkpt lat="45.4651" lon="4.4035">
        <ele>505.3101807</ele>
        <time>2011-12-03T23:13:08Z</time>
      </trkpt>
      <trkpt lat="45.46501" lon="4.40363">
        <ele>503.3874512</ele>
        <time>2011-12-03T23:13:13Z</time>
      </trkpt>
      <trkpt lat="45.4649" lon="4.40375">
        <ele>501.4648438</ele>
        <time>2011-12-03T23:13:18Z</time>
      </trkpt>
      <trkpt lat="45.46478" lon="4.40387">
        <ele>500.0229492</ele>
        <time>2011-12-03T23:13:23Z</time>
      </trkpt>
      <trkpt lat="45.46466" lon="4.40398">
        <ele>500.0229492</ele>
        <time>2011-12-03T23:13:29Z</time>
      </trkpt>
      <trkpt lat="45.46453" lon="4.40409">
        <ele>499.0615234</ele>
        <time>2011-12-03T23:13:35Z</time>
      </trkpt>
      <trkpt lat="45.4644" lon="4.40419">
        <ele>499.0615234</ele>
        <time>2011-12-03T23:13:40Z</time>
      </trkpt>
      <trkpt lat="45.46428" lon="4.40426">
        <ele>497.138916</ele>
        <time>2011-12-03T23:13:45Z</time>
      </trkpt>
      <trkpt lat="45.46418" lon="4.40433">
        <ele>497.138916</ele>
        <time>2011-12-03T23:13:50Z</time>
      </trkpt>
      <trkpt lat="45.46408" lon="4.40442">
        <ele>500.0229492</ele>
        <time>2011-12-03T23:13:55Z</time>
      </trkpt>
      <trkpt lat="45.46396" lon="4.4045">
        <ele>502.9067383</ele>
        <time>2011-12-03T23:14:01Z</time>
      </trkpt>
      <trkpt lat="45.46385" lon="4.40458">
        <ele>504.348877</ele>
        <time>2011-12-03T23:14:06Z</time>
      </trkpt>
      <trkpt lat="45.46377" lon="4.40464">
        <ele>506.2714844</ele>
        <time>2011-12-03T23:14:10Z</time>
      </trkpt>
      <trkpt lat="45.46364" lon="4.40476">
        <ele>508.1940918</ele>
        <time>2011-12-03T23:14:17Z</time>
      </trkpt>
      <trkpt lat="45.46355" lon="4.40487">
        <ele>509.6361084</ele>
        <time>2011-12-03T23:14:22Z</time>
      </trkpt>
      <trkpt lat="45.46349" lon="4.40499">
        <ele>514.442627</ele>
        <time>2011-12-03T23:14:27Z</time>
      </trkpt>
      <trkpt lat="45.4634" lon="4.40512">
        <ele>515.4040527</ele>
        <time>2011-12-03T23:14:32Z</time>
      </trkpt>
      <trkpt lat="45.4633" lon="4.40526">
        <ele>514.442627</ele>
        <time>2011-12-03T23:14:38Z</time>
      </trkpt>
      <trkpt lat="45.46324" lon="4.40536">
        <ele>514.442627</ele>
        <time>2011-12-03T23:14:42Z</time>
      </trkpt>
      <trkpt lat="45.46324" lon="4.40553">
        <ele>514.442627</ele>
        <time>2011-12-03T23:14:47Z</time>
      </trkpt>
      <trkpt lat="45.46323" lon="4.40575">
        <ele>512.5200195</ele>
        <time>2011-12-03T23:14:53Z</time>
      </trkpt>
      <trkpt lat="45.46323" lon="4.40591">
        <ele>512.5200195</ele>
        <time>2011-12-03T23:14:57Z</time>
      </trkpt>
      <trkpt lat="45.46325" lon="4.40605">
        <ele>512.5200195</ele>
        <time>2011-12-03T23:15:01Z</time>
      </trkpt>
      <trkpt lat="45.46325" lon="4.40628">
        <ele>511.5587158</ele>
        <time>2011-12-03T23:15:07Z</time>
      </trkpt>
      <trkpt lat="45.46325" lon="4.40648">
        <ele>511.0780029</ele>
        <time>2011-12-03T23:15:12Z</time>
      </trkpt>
      <trkpt lat="45.46325" lon="4.40668">
        <ele>510.1166992</ele>
        <time>2011-12-03T23:15:17Z</time>
      </trkpt>
      <trkpt lat="45.46326" lon="4.40683">
        <ele>508.6746826</ele>
        <time>2011-12-03T23:15:21Z</time>
      </trkpt>
      <trkpt lat="45.46327" lon="4.40703">
        <ele>507.2327881</ele>
        <time>2011-12-03T23:15:26Z</time>
      </trkpt>
      <trkpt lat="45.46327" lon="4.40724">
        <ele>504.8294678</ele>
        <time>2011-12-03T23:15:31Z</time>
      </trkpt>
      <trkpt lat="45.46327" lon="4.40739">
        <ele>503.8681641</ele>
        <time>2011-12-03T23:15:35Z</time>
      </trkpt>
      <trkpt lat="45.46325" lon="4.40763">
        <ele>501.9455566</ele>
        <time>2011-12-03T23:15:41Z</time>
      </trkpt>
      <trkpt lat="45.46324" lon="4.40779">
        <ele>500.9841309</ele>
        <time>2011-12-03T23:15:45Z</time>
      </trkpt>
      <trkpt lat="45.46324" lon="4.40796">
        <ele>500.0229492</ele>
        <time>2011-12-03T23:15:49Z</time>
      </trkpt>
      <trkpt lat="45.46323" lon="4.40803">
        <ele>498.5809326</ele>
        <time>2011-12-03T23:15:51Z</time>
      </trkpt>
      <trkpt lat="45.46322" lon="4.40819">
        <ele>497.6196289</ele>
        <time>2011-12-03T23:15:55Z</time>
      </trkpt>
      <trkpt lat="45.46325" lon="4.40835">
        <ele>496.6583252</ele>
        <time>2011-12-03T23:15:59Z</time>
      </trkpt>
      <trkpt lat="45.46331" lon="4.40853">
        <ele>494.2550049</ele>
        <time>2011-12-03T23:16:04Z</time>
      </trkpt>
      <trkpt lat="45.46333" lon="4.40867">
        <ele>493.774292</ele>
        <time>2011-12-03T23:16:08Z</time>
      </trkpt>
      <trkpt lat="45.46332" lon="4.40871">
        <ele>493.774292</ele>
        <time>2011-12-03T23:16:09Z</time>
      </trkpt>
      <trkpt lat="45.46323" lon="4.40893">
        <ele>493.774292</ele>
        <time>2011-12-03T23:16:15Z</time>
      </trkpt>
      <trkpt lat="45.46314" lon="4.40908">
        <ele>493.774292</ele>
        <time>2011-12-03T23:16:20Z</time>
      </trkpt>
      <trkpt lat="45.46304" lon="4.40929">
        <ele>495.6968994</ele>
        <time>2011-12-03T23:16:27Z</time>
      </trkpt>
      <trkpt lat="45.46296" lon="4.40954">
        <ele>497.138916</ele>
        <time>2011-12-03T23:16:35Z</time>
      </trkpt>
      <trkpt lat="45.46292" lon="4.40975">
        <ele>497.6196289</ele>
        <time>2011-12-03T23:16:41Z</time>
      </trkpt>
      <trkpt lat="45.46291" lon="4.40979">
        <ele>497.6196289</ele>
        <time>2011-12-03T23:16:42Z</time>
      </trkpt>
      <trkpt lat="45.46288" lon="4.41002">
        <ele>498.5809326</ele>
        <time>2011-12-03T23:16:48Z</time>
      </trkpt>
      <trkpt lat="45.46284" lon="4.41024">
        <ele>499.5422363</ele>
        <time>2011-12-03T23:16:54Z</time>
      </trkpt>
      <trkpt lat="45.4628" lon="4.41046">
        <ele>499.5422363</ele>
        <time>2011-12-03T23:17:00Z</time>
      </trkpt>
      <trkpt lat="45.46278" lon="4.41064">
        <ele>500.0229492</ele>
        <time>2011-12-03T23:17:05Z</time>
      </trkpt>
      <trkpt lat="45.46276" lon="4.41075">
        <ele>499.0615234</ele>
        <time>2011-12-03T23:17:08Z</time>
      </trkpt>
      <trkpt lat="45.4627" lon="4.41093">
        <ele>498.1003418</ele>
        <time>2011-12-03T23:17:13Z</time>
      </trkpt>
      <trkpt lat="45.46264" lon="4.41116">
        <ele>499.0615234</ele>
        <time>2011-12-03T23:17:19Z</time>
      </trkpt>
      <trkpt lat="45.46261" lon="4.41137">
        <ele>500.50354</ele>
        <time>2011-12-03T23:17:25Z</time>
      </trkpt>
      <trkpt lat="45.46257" lon="4.41154">
        <ele>500.0229492</ele>
        <time>2011-12-03T23:17:30Z</time>
      </trkpt>
      <trkpt lat="45.46253" lon="4.41172">
        <ele>498.5809326</ele>
        <time>2011-12-03T23:17:35Z</time>
      </trkpt>
      <trkpt lat="45.46249" lon="4.4119">
        <ele>498.1003418</ele>
        <time>2011-12-03T23:17:40Z</time>
      </trkpt>
      <trkpt lat="45.46244" lon="4.41208">
        <ele>499.0615234</ele>
        <time>2011-12-03T23:17:45Z</time>
      </trkpt>
      <trkpt lat="45.46238" lon="4.4123">
        <ele>499.5422363</ele>
        <time>2011-12-03T23:17:51Z</time>
      </trkpt>
      <trkpt lat="45.46234" lon="4.41249">
        <ele>500.9841309</ele>
        <time>2011-12-03T23:17:56Z</time>
      </trkpt>
      <trkpt lat="45.46228" lon="4.41271">
        <ele>501.9455566</ele>
        <time>2011-12-03T23:18:02Z</time>
      </trkpt>
      <trkpt lat="45.46228" lon="4.41274">
        <ele>502.4261475</ele>
        <time>2011-12-03T23:18:03Z</time>
      </trkpt>
      <trkpt lat="45.46224" lon="4.41293">
        <ele>502.4261475</ele>
        <time>2011-12-03T23:18:08Z</time>
      </trkpt>
      <trkpt lat="45.46218" lon="4.41322">
        <ele>500.9841309</ele>
        <time>2011-12-03T23:18:16Z</time>
      </trkpt>
      <trkpt lat="45.46213" lon="4.41339">
        <ele>500.50354</ele>
        <time>2011-12-03T23:18:21Z</time>
      </trkpt>
      <trkpt lat="45.46207" lon="4.41365">
        <ele>500.50354</ele>
        <time>2011-12-03T23:18:28Z</time>
      </trkpt>
      <trkpt lat="45.46204" lon="4.41379">
        <ele>500.9841309</ele>
        <time>2011-12-03T23:18:32Z</time>
      </trkpt>
      <trkpt lat="45.462" lon="4.41396">
        <ele>502.4261475</ele>
        <time>2011-12-03T23:18:37Z</time>
      </trkpt>
      <trkpt lat="45.46198" lon="4.41411">
        <ele>501.9455566</ele>
        <time>2011-12-03T23:18:41Z</time>
      </trkpt>
      <trkpt lat="45.46194" lon="4.41426">
        <ele>500.50354</ele>
        <time>2011-12-03T23:18:45Z</time>
      </trkpt>
      <trkpt lat="45.46189" lon="4.41445">
        <ele>500.0229492</ele>
        <time>2011-12-03T23:18:50Z</time>
      </trkpt>
      <trkpt lat="45.46184" lon="4.41468">
        <ele>500.50354</ele>
        <time>2011-12-03T23:18:56Z</time>
      </trkpt>
      <trkpt lat="45.46182" lon="4.41485">
        <ele>498.1003418</ele>
        <time>2011-12-03T23:19:01Z</time>
      </trkpt>
      <trkpt lat="45.46179" lon="4.41503">
        <ele>497.6196289</ele>
        <time>2011-12-03T23:19:06Z</time>
      </trkpt>
      <trkpt lat="45.46175" lon="4.41521">
        <ele>497.138916</ele>
        <time>2011-12-03T23:19:10Z</time>
      </trkpt>
      <trkpt lat="45.46175" lon="4.41528">
        <ele>496.6583252</ele>
        <time>2011-12-03T23:19:12Z</time>
      </trkpt>
      <trkpt lat="45.46172" lon="4.41554">
        <ele>496.6583252</ele>
        <time>2011-12-03T23:19:18Z</time>
      </trkpt>
      <trkpt lat="45.46171" lon="4.41574">
        <ele>496.6583252</ele>
        <time>2011-12-03T23:19:23Z</time>
      </trkpt>
      <trkpt lat="45.46172" lon="4.41593">
        <ele>496.1777344</ele>
        <time>2011-12-03T23:19:28Z</time>
      </trkpt>
      <trkpt lat="45.46174" lon="4.4161">
        <ele>496.1777344</ele>
        <time>2011-12-03T23:19:33Z</time>
      </trkpt>
      <trkpt lat="45.46174" lon="4.41626">
        <ele>498.1003418</ele>
        <time>2011-12-03T23:19:37Z</time>
      </trkpt>
      <trkpt lat="45.46176" lon="4.41645">
        <ele>498.1003418</ele>
        <time>2011-12-03T23:19:42Z</time>
      </trkpt>
      <trkpt lat="45.46181" lon="4.41671">
        <ele>500.0229492</ele>
        <time>2011-12-03T23:19:48Z</time>
      </trkpt>
      <trkpt lat="45.46186" lon="4.41685">
        <ele>500.50354</ele>
        <time>2011-12-03T23:19:52Z</time>
      </trkpt>
      <trkpt lat="45.46193" lon="4.417">
        <ele>500.0229492</ele>
        <time>2011-12-03T23:19:57Z</time>
      </trkpt>
      <trkpt lat="45.46196" lon="4.41714">
        <ele>499.5422363</ele>
        <time>2011-12-03T23:20:01Z</time>
      </trkpt>
      <trkpt lat="45.462" lon="4.41734">
        <ele>498.5809326</ele>
        <time>2011-12-03T23:20:07Z</time>
      </trkpt>
      <trkpt lat="45.46207" lon="4.41751">
        <ele>498.5809326</ele>
        <time>2011-12-03T23:20:12Z</time>
      </trkpt>
      <trkpt lat="45.46214" lon="4.41771">
        <ele>499.5422363</ele>
        <time>2011-12-03T23:20:18Z</time>
      </trkpt>
      <trkpt lat="45.46222" lon="4.4179">
        <ele>500.0229492</ele>
        <time>2011-12-03T23:20:24Z</time>
      </trkpt>
      <trkpt lat="45.4623" lon="4.4181">
        <ele>499.5422363</ele>
        <time>2011-12-03T23:20:30Z</time>
      </trkpt>
      <trkpt lat="45.46237" lon="4.4183">
        <ele>498.5809326</ele>
        <time>2011-12-03T23:20:36Z</time>
      </trkpt>
      <trkpt lat="45.46244" lon="4.41849">
        <ele>499.0615234</ele>
        <time>2011-12-03T23:20:42Z</time>
      </trkpt>
      <trkpt lat="45.4625" lon="4.41868">
        <ele>499.5422363</ele>
        <time>2011-12-03T23:20:48Z</time>
      </trkpt>
      <trkpt lat="45.46254" lon="4.41889">
        <ele>500.50354</ele>
        <time>2011-12-03T23:20:54Z</time>
      </trkpt>
      <trkpt lat="45.46258" lon="4.41906">
        <ele>501.4648438</ele>
        <time>2011-12-03T23:20:59Z</time>
      </trkpt>
      <trkpt lat="45.46262" lon="4.41927">
        <ele>501.4648438</ele>
        <time>2011-12-03T23:21:05Z</time>
      </trkpt>
      <trkpt lat="45.46266" lon="4.41943">
        <ele>500.50354</ele>
        <time>2011-12-03T23:21:10Z</time>
      </trkpt>
      <trkpt lat="45.46274" lon="4.41959">
        <ele>501.9455566</ele>
        <time>2011-12-03T23:21:15Z</time>
      </trkpt>
      <trkpt lat="45.4628" lon="4.41972">
        <ele>501.9455566</ele>
        <time>2011-12-03T23:21:20Z</time>
      </trkpt>
      <trkpt lat="45.46288" lon="4.41984">
        <ele>501.4648438</ele>
        <time>2011-12-03T23:21:26Z</time>
      </trkpt>
      <trkpt lat="45.463" lon="4.41999">
        <ele>503.8681641</ele>
        <time>2011-12-03T23:21:33Z</time>
      </trkpt>
      <trkpt lat="45.46309" lon="4.4201">
        <ele>506.7520752</ele>
        <time>2011-12-03T23:21:38Z</time>
      </trkpt>
      <trkpt lat="45.4632" lon="4.42023">
        <ele>505.7908936</ele>
        <time>2011-12-03T23:21:44Z</time>
      </trkpt>
      <trkpt lat="45.4633" lon="4.42035">
        <ele>506.7520752</ele>
        <time>2011-12-03T23:21:49Z</time>
      </trkpt>
      <trkpt lat="45.46342" lon="4.42051">
        <ele>507.2327881</ele>
        <time>2011-12-03T23:21:56Z</time>
      </trkpt>
      <trkpt lat="45.46352" lon="4.42063">
        <ele>506.2714844</ele>
        <time>2011-12-03T23:22:01Z</time>
      </trkpt>
      <trkpt lat="45.46365" lon="4.42079">
        <ele>505.7908936</ele>
        <time>2011-12-03T23:22:08Z</time>
      </trkpt>
      <trkpt lat="45.46372" lon="4.42088">
        <ele>505.3101807</ele>
        <time>2011-12-03T23:22:12Z</time>
      </trkpt>
      <trkpt lat="45.46383" lon="4.42102">
        <ele>506.2714844</ele>
        <time>2011-12-03T23:22:17Z</time>
      </trkpt>
      <trkpt lat="45.46394" lon="4.42121">
        <ele>505.7908936</ele>
        <time>2011-12-03T23:22:24Z</time>
      </trkpt>
      <trkpt lat="45.464" lon="4.42137">
        <ele>506.2714844</ele>
        <time>2011-12-03T23:22:29Z</time>
      </trkpt>
      <trkpt lat="45.46409" lon="4.42158">
        <ele>505.3101807</ele>
        <time>2011-12-03T23:22:36Z</time>
      </trkpt>
      <trkpt lat="45.46413" lon="4.42187">
        <ele>509.6361084</ele>
        <time>2011-12-03T23:22:45Z</time>
      </trkpt>
      <trkpt lat="45.46417" lon="4.42205">
        <ele>510.1166992</ele>
        <time>2011-12-03T23:22:50Z</time>
      </trkpt>
      <trkpt lat="45.46423" lon="4.42227">
        <ele>511.0780029</ele>
        <time>2011-12-03T23:22:56Z</time>
      </trkpt>
      <trkpt lat="45.46429" lon="4.42244">
        <ele>509.6361084</ele>
        <time>2011-12-03T23:23:01Z</time>
      </trkpt>
      <trkpt lat="45.46438" lon="4.4226">
        <ele>509.6361084</ele>
        <time>2011-12-03T23:23:06Z</time>
      </trkpt>
      <trkpt lat="45.4645" lon="4.42277">
        <ele>509.6361084</ele>
        <time>2011-12-03T23:23:12Z</time>
      </trkpt>
      <trkpt lat="45.46459" lon="4.42292">
        <ele>509.1553955</ele>
        <time>2011-12-03T23:23:18Z</time>
      </trkpt>
      <trkpt lat="45.46473" lon="4.42306">
        <ele>508.1940918</ele>
        <time>2011-12-03T23:23:25Z</time>
      </trkpt>
      <trkpt lat="45.46481" lon="4.42313">
        <ele>505.7908936</ele>
        <time>2011-12-03T23:23:29Z</time>
      </trkpt>
      <trkpt lat="45.46493" lon="4.42321">
        <ele>505.7908936</ele>
        <time>2011-12-03T23:23:34Z</time>
      </trkpt>
      <trkpt lat="45.46497" lon="4.42325">
        <ele>506.7520752</ele>
        <time>2011-12-03T23:23:36Z</time>
      </trkpt>
      <trkpt lat="45.46514" lon="4.42346">
        <ele>507.2327881</ele>
        <time>2011-12-03T23:23:44Z</time>
      </trkpt>
      <trkpt lat="45.46523" lon="4.42358">
        <ele>508.1940918</ele>
        <time>2011-12-03T23:23:49Z</time>
      </trkpt>
      <trkpt lat="45.46534" lon="4.42369">
        <ele>510.59729</ele>
        <time>2011-12-03T23:23:54Z</time>
      </trkpt>
      <trkpt lat="45.46545" lon="4.42379">
        <ele>513.4814453</ele>
        <time>2011-12-03T23:23:59Z</time>
      </trkpt>
      <trkpt lat="45.46557" lon="4.42387">
        <ele>513.9620361</ele>
        <time>2011-12-03T23:24:04Z</time>
      </trkpt>
      <trkpt lat="45.46567" lon="4.42394">
        <ele>513.4814453</ele>
        <time>2011-12-03T23:24:09Z</time>
      </trkpt>
      <trkpt lat="45.46578" lon="4.42401">
        <ele>512.0394287</ele>
        <time>2011-12-03T23:24:14Z</time>
      </trkpt>
      <trkpt lat="45.4659" lon="4.42409">
        <ele>510.59729</ele>
        <time>2011-12-03T23:24:19Z</time>
      </trkpt>
      <trkpt lat="45.46604" lon="4.42424">
        <ele>508.6746826</ele>
        <time>2011-12-03T23:24:25Z</time>
      </trkpt>
      <trkpt lat="45.46611" lon="4.42445">
        <ele>509.6361084</ele>
        <time>2011-12-03T23:24:31Z</time>
      </trkpt>
      <trkpt lat="45.46614" lon="4.42468">
        <ele>509.1553955</ele>
        <time>2011-12-03T23:24:37Z</time>
      </trkpt>
      <trkpt lat="45.46614" lon="4.42487">
        <ele>509.6361084</ele>
        <time>2011-12-03T23:24:42Z</time>
      </trkpt>
      <trkpt lat="45.46616" lon="4.42499">
        <ele>509.6361084</ele>
        <time>2011-12-03T23:24:45Z</time>
      </trkpt>
      <trkpt lat="45.46617" lon="4.42517">
        <ele>511.5587158</ele>
        <time>2011-12-03T23:24:50Z</time>
      </trkpt>
      <trkpt lat="45.46618" lon="4.42521">
        <ele>511.5587158</ele>
        <time>2011-12-03T23:24:51Z</time>
      </trkpt>
      <trkpt lat="45.46621" lon="4.42544">
        <ele>512.5200195</ele>
        <time>2011-12-03T23:24:57Z</time>
      </trkpt>
      <trkpt lat="45.46623" lon="4.42564">
        <ele>515.8846436</ele>
        <time>2011-12-03T23:25:02Z</time>
      </trkpt>
      <trkpt lat="45.46625" lon="4.42584">
        <ele>517.807251</ele>
        <time>2011-12-03T23:25:07Z</time>
      </trkpt>
      <trkpt lat="45.46625" lon="4.42588">
        <ele>517.807251</ele>
        <time>2011-12-03T23:25:08Z</time>
      </trkpt>
      <trkpt lat="45.46628" lon="4.42618">
        <ele>517.3266602</ele>
        <time>2011-12-03T23:25:16Z</time>
      </trkpt>
      <trkpt lat="45.46631" lon="4.4264">
        <ele>515.8846436</ele>
        <time>2011-12-03T23:25:22Z</time>
      </trkpt>
      <trkpt lat="45.46634" lon="4.42658">
        <ele>514.9233398</ele>
        <time>2011-12-03T23:25:27Z</time>
      </trkpt>
      <trkpt lat="45.46638" lon="4.42672">
        <ele>513.9620361</ele>
        <time>2011-12-03T23:25:31Z</time>
      </trkpt>
      <trkpt lat="45.46642" lon="4.42689">
        <ele>512.5200195</ele>
        <time>2011-12-03T23:25:36Z</time>
      </trkpt>
      <trkpt lat="45.46645" lon="4.42704">
        <ele>513.4814453</ele>
        <time>2011-12-03T23:25:40Z</time>
      </trkpt>
      <trkpt lat="45.46651" lon="4.42725">
        <ele>513.0007324</ele>
        <time>2011-12-03T23:25:46Z</time>
      </trkpt>
      <trkpt lat="45.46658" lon="4.42749">
        <ele>512.0394287</ele>
        <time>2011-12-03T23:25:53Z</time>
      </trkpt>
      <trkpt lat="45.46662" lon="4.42771">
        <ele>511.0780029</ele>
        <time>2011-12-03T23:25:59Z</time>
      </trkpt>
      <trkpt lat="45.46665" lon="4.42788">
        <ele>510.59729</ele>
        <time>2011-12-03T23:26:04Z</time>
      </trkpt>
      <trkpt lat="45.46671" lon="4.42811">
        <ele>509.6361084</ele>
        <time>2011-12-03T23:26:11Z</time>
      </trkpt>
      <trkpt lat="45.46676" lon="4.42832">
        <ele>509.6361084</ele>
        <time>2011-12-03T23:26:17Z</time>
      </trkpt>
      <trkpt lat="45.46679" lon="4.42853">
        <ele>510.1166992</ele>
        <time>2011-12-03T23:26:23Z</time>
      </trkpt>
      <trkpt lat="45.46682" lon="4.42875">
        <ele>510.59729</ele>
        <time>2011-12-03T23:26:29Z</time>
      </trkpt>
      <trkpt lat="45.46684" lon="4.42899">
        <ele>509.6361084</ele>
        <time>2011-12-03T23:26:36Z</time>
      </trkpt>
      <trkpt lat="45.46683" lon="4.4292">
        <ele>509.1553955</ele>
        <time>2011-12-03T23:26:42Z</time>
      </trkpt>
      <trkpt lat="45.46682" lon="4.42938">
        <ele>510.1166992</ele>
        <time>2011-12-03T23:26:47Z</time>
      </trkpt>
      <trkpt lat="45.46682" lon="4.42961">
        <ele>511.5587158</ele>
        <time>2011-12-03T23:26:53Z</time>
      </trkpt>
      <trkpt lat="45.46682" lon="4.42986">
        <ele>513.0007324</ele>
        <time>2011-12-03T23:27:00Z</time>
      </trkpt>
      <trkpt lat="45.46683" lon="4.43007">
        <ele>513.4814453</ele>
        <time>2011-12-03T23:27:06Z</time>
      </trkpt>
      <trkpt lat="45.46684" lon="4.43011">
        <ele>513.0007324</ele>
        <time>2011-12-03T23:27:07Z</time>
      </trkpt>
      <trkpt lat="45.46689" lon="4.43032">
        <ele>513.4814453</ele>
        <time>2011-12-03T23:27:13Z</time>
      </trkpt>
      <trkpt lat="45.46691" lon="4.43043">
        <ele>514.442627</ele>
        <time>2011-12-03T23:27:16Z</time>
      </trkpt>
      <trkpt lat="45.46697" lon="4.4307">
        <ele>515.8846436</ele>
        <time>2011-12-03T23:27:24Z</time>
      </trkpt>
      <trkpt lat="45.46703" lon="4.43095">
        <ele>517.3266602</ele>
        <time>2011-12-03T23:27:32Z</time>
      </trkpt>
      <trkpt lat="45.46708" lon="4.43107">
        <ele>516.3652344</ele>
        <time>2011-12-03T23:27:36Z</time>
      </trkpt>
      <trkpt lat="45.46718" lon="4.43131">
        <ele>516.3652344</ele>
        <time>2011-12-03T23:27:44Z</time>
      </trkpt>
      <trkpt lat="45.46724" lon="4.43147">
        <ele>516.8459473</ele>
        <time>2011-12-03T23:27:50Z</time>
      </trkpt>
      <trkpt lat="45.46732" lon="4.43166">
        <ele>518.7685547</ele>
        <time>2011-12-03T23:27:56Z</time>
      </trkpt>
      <trkpt lat="45.46743" lon="4.43189">
        <ele>521.1719971</ele>
        <time>2011-12-03T23:28:04Z</time>
      </trkpt>
      <trkpt lat="45.46753" lon="4.43208">
        <ele>521.1719971</ele>
        <time>2011-12-03T23:28:11Z</time>
      </trkpt>
      <trkpt lat="45.46761" lon="4.43223">
        <ele>523.5751953</ele>
        <time>2011-12-03T23:28:16Z</time>
      </trkpt>
      <trkpt lat="45.46769" lon="4.43241">
        <ele>524.0557861</ele>
        <time>2011-12-03T23:28:22Z</time>
      </trkpt>
      <trkpt lat="45.46777" lon="4.43257">
        <ele>523.0946045</ele>
        <time>2011-12-03T23:28:27Z</time>
      </trkpt>
      <trkpt lat="45.46784" lon="4.43269">
        <ele>523.0946045</ele>
        <time>2011-12-03T23:28:31Z</time>
      </trkpt>
      <trkpt lat="45.46791" lon="4.43286">
        <ele>522.1331787</ele>
        <time>2011-12-03T23:28:36Z</time>
      </trkpt>
      <trkpt lat="45.46798" lon="4.43303">
        <ele>522.1331787</ele>
        <time>2011-12-03T23:28:41Z</time>
      </trkpt>
      <trkpt lat="45.46808" lon="4.43318">
        <ele>520.6912842</ele>
        <time>2011-12-03T23:28:46Z</time>
      </trkpt>
      <trkpt lat="45.46817" lon="4.43331">
        <ele>519.7298584</ele>
        <time>2011-12-03T23:28:50Z</time>
      </trkpt>
      <trkpt lat="45.46823" lon="4.43344">
        <ele>519.2492676</ele>
        <time>2011-12-03T23:28:54Z</time>
      </trkpt>
      <trkpt lat="45.46832" lon="4.43359">
        <ele>517.3266602</ele>
        <time>2011-12-03T23:28:59Z</time>
      </trkpt>
      <trkpt lat="45.46842" lon="4.43374">
        <ele>515.4040527</ele>
        <time>2011-12-03T23:29:04Z</time>
      </trkpt>
      <trkpt lat="45.46845" lon="4.43379">
        <ele>514.9233398</ele>
        <time>2011-12-03T23:29:06Z</time>
      </trkpt>
      <trkpt lat="45.4686" lon="4.43396">
        <ele>512.5200195</ele>
        <time>2011-12-03T23:29:13Z</time>
      </trkpt>
      <trkpt lat="45.4687" lon="4.43408">
        <ele>509.6361084</ele>
        <time>2011-12-03T23:29:18Z</time>
      </trkpt>
      <trkpt lat="45.46881" lon="4.43419">
        <ele>507.2327881</ele>
        <time>2011-12-03T23:29:23Z</time>
      </trkpt>
      <trkpt lat="45.46892" lon="4.43429">
        <ele>506.2714844</ele>
        <time>2011-12-03T23:29:28Z</time>
      </trkpt>
      <trkpt lat="45.46905" lon="4.43438">
        <ele>504.8294678</ele>
        <time>2011-12-03T23:29:33Z</time>
      </trkpt>
      <trkpt lat="45.46917" lon="4.43448">
        <ele>503.8681641</ele>
        <time>2011-12-03T23:29:38Z</time>
      </trkpt>
      <trkpt lat="45.46926" lon="4.43458">
        <ele>503.8681641</ele>
        <time>2011-12-03T23:29:42Z</time>
      </trkpt>
      <trkpt lat="45.46942" lon="4.43473">
        <ele>502.9067383</ele>
        <time>2011-12-03T23:29:49Z</time>
      </trkpt>
      <trkpt lat="45.46953" lon="4.43485">
        <ele>503.3874512</ele>
        <time>2011-12-03T23:29:54Z</time>
      </trkpt>
      <trkpt lat="45.46971" lon="4.43502">
        <ele>504.348877</ele>
        <time>2011-12-03T23:30:01Z</time>
      </trkpt>
      <trkpt lat="45.46986" lon="4.43516">
        <ele>504.348877</ele>
        <time>2011-12-03T23:30:06Z</time>
      </trkpt>
      <trkpt lat="45.47001" lon="4.4353">
        <ele>502.9067383</ele>
        <time>2011-12-03T23:30:12Z</time>
      </trkpt>
      <trkpt lat="45.47008" lon="4.4354">
        <ele>502.4261475</ele>
        <time>2011-12-03T23:30:16Z</time>
      </trkpt>
      <trkpt lat="45.47023" lon="4.43558">
        <ele>500.0229492</ele>
        <time>2011-12-03T23:30:23Z</time>
      </trkpt>
      <trkpt lat="45.47031" lon="4.43571">
        <ele>500.50354</ele>
        <time>2011-12-03T23:30:27Z</time>
      </trkpt>
      <trkpt lat="45.47036" lon="4.43586">
        <ele>500.9841309</ele>
        <time>2011-12-03T23:30:31Z</time>
      </trkpt>
      <trkpt lat="45.47047" lon="4.43606">
        <ele>500.50354</ele>
        <time>2011-12-03T23:30:37Z</time>
      </trkpt>
      <trkpt lat="45.47062" lon="4.43615">
        <ele>499.0615234</ele>
        <time>2011-12-03T23:30:43Z</time>
      </trkpt>
      <trkpt lat="45.4707" lon="4.43622">
        <ele>499.0615234</ele>
        <time>2011-12-03T23:30:47Z</time>
      </trkpt>
      <trkpt lat="45.47079" lon="4.43634">
        <ele>499.0615234</ele>
        <time>2011-12-03T23:30:51Z</time>
      </trkpt>
      <trkpt lat="45.47093" lon="4.43656">
        <ele>500.0229492</ele>
        <time>2011-12-03T23:30:58Z</time>
      </trkpt>
      <trkpt lat="45.47104" lon="4.43676">
        <ele>501.4648438</ele>
        <time>2011-12-03T23:31:04Z</time>
      </trkpt>
      <trkpt lat="45.47111" lon="4.43691">
        <ele>501.9455566</ele>
        <time>2011-12-03T23:31:09Z</time>
      </trkpt>
      <trkpt lat="45.47116" lon="4.43699">
        <ele>501.4648438</ele>
        <time>2011-12-03T23:31:12Z</time>
      </trkpt>
      <trkpt lat="45.47126" lon="4.43714">
        <ele>500.0229492</ele>
        <time>2011-12-03T23:31:17Z</time>
      </trkpt>
      <trkpt lat="45.47129" lon="4.4372">
        <ele>500.0229492</ele>
        <time>2011-12-03T23:31:19Z</time>
      </trkpt>
      <trkpt lat="45.4714" lon="4.43743">
        <ele>500.50354</ele>
        <time>2011-12-03T23:31:26Z</time>
      </trkpt>
      <trkpt lat="45.47157" lon="4.43754">
        <ele>503.3874512</ele>
        <time>2011-12-03T23:31:31Z</time>
      </trkpt>
      <trkpt lat="45.47179" lon="4.43769">
        <ele>511.0780029</ele>
        <time>2011-12-03T23:31:37Z</time>
      </trkpt>
      <trkpt lat="45.47186" lon="4.43785">
        <ele>512.5200195</ele>
        <time>2011-12-03T23:31:41Z</time>
      </trkpt>
      <trkpt lat="45.47187" lon="4.43804">
        <ele>509.6361084</ele>
        <time>2011-12-03T23:31:46Z</time>
      </trkpt>
      <trkpt lat="45.47188" lon="4.43819">
        <ele>507.2327881</ele>
        <time>2011-12-03T23:31:50Z</time>
      </trkpt>
      <trkpt lat="45.47193" lon="4.43842">
        <ele>505.7908936</ele>
        <time>2011-12-03T23:31:56Z</time>
      </trkpt>
      <trkpt lat="45.47197" lon="4.43864">
        <ele>503.8681641</ele>
        <time>2011-12-03T23:32:02Z</time>
      </trkpt>
      <trkpt lat="45.47203" lon="4.43877">
        <ele>503.8681641</ele>
        <time>2011-12-03T23:32:06Z</time>
      </trkpt>
      <trkpt lat="45.47204" lon="4.43892">
        <ele>502.9067383</ele>
        <time>2011-12-03T23:32:10Z</time>
      </trkpt>
      <trkpt lat="45.47205" lon="4.43912">
        <ele>501.9455566</ele>
        <time>2011-12-03T23:32:15Z</time>
      </trkpt>
      <trkpt lat="45.47206" lon="4.43915">
        <ele>501.9455566</ele>
        <time>2011-12-03T23:32:16Z</time>
      </trkpt>
      <trkpt lat="45.47208" lon="4.43926">
        <ele>500.9841309</ele>
        <time>2011-12-03T23:32:19Z</time>
      </trkpt>
      <trkpt lat="45.47213" lon="4.43943">
        <ele>500.50354</ele>
        <time>2011-12-03T23:32:24Z</time>
      </trkpt>
      <trkpt lat="45.47217" lon="4.4396">
        <ele>500.0229492</ele>
        <time>2011-12-03T23:32:29Z</time>
      </trkpt>
      <trkpt lat="45.47218" lon="4.43964">
        <ele>500.0229492</ele>
        <time>2011-12-03T23:32:30Z</time>
      </trkpt>
      <trkpt lat="45.47226" lon="4.4398">
        <ele>499.5422363</ele>
        <time>2011-12-03T23:32:35Z</time>
      </trkpt>
      <trkpt lat="45.47233" lon="4.43996">
        <ele>501.9455566</ele>
        <time>2011-12-03T23:32:40Z</time>
      </trkpt>
      <trkpt lat="45.47242" lon="4.44015">
        <ele>501.9455566</ele>
        <time>2011-12-03T23:32:46Z</time>
      </trkpt>
      <trkpt lat="45.47252" lon="4.44031">
        <ele>501.9455566</ele>
        <time>2011-12-03T23:32:51Z</time>
      </trkpt>
      <trkpt lat="45.47258" lon="4.44047">
        <ele>501.4648438</ele>
        <time>2011-12-03T23:32:56Z</time>
      </trkpt>
      <trkpt lat="45.47264" lon="4.44066">
        <ele>503.3874512</ele>
        <time>2011-12-03T23:33:01Z</time>
      </trkpt>
      <trkpt lat="45.47268" lon="4.44085">
        <ele>504.348877</ele>
        <time>2011-12-03T23:33:06Z</time>
      </trkpt>
      <trkpt lat="45.47274" lon="4.44096">
        <ele>504.8294678</ele>
        <time>2011-12-03T23:33:10Z</time>
      </trkpt>
      <trkpt lat="45.47282" lon="4.44101">
        <ele>503.3874512</ele>
        <time>2011-12-03T23:33:14Z</time>
      </trkpt>
      <trkpt lat="45.47285" lon="4.44102">
        <ele>502.9067383</ele>
        <time>2011-12-03T23:33:15Z</time>
      </trkpt>
      <trkpt lat="45.47299" lon="4.44109">
        <ele>502.4261475</ele>
        <time>2011-12-03T23:33:21Z</time>
      </trkpt>
      <trkpt lat="45.47312" lon="4.44122">
        <ele>501.4648438</ele>
        <time>2011-12-03T23:33:27Z</time>
      </trkpt>
      <trkpt lat="45.47322" lon="4.44132">
        <ele>501.4648438</ele>
        <time>2011-12-03T23:33:31Z</time>
      </trkpt>
      <trkpt lat="45.4733" lon="4.44142">
        <ele>500.9841309</ele>
        <time>2011-12-03T23:33:35Z</time>
      </trkpt>
      <trkpt lat="45.47341" lon="4.44158">
        <ele>500.50354</ele>
        <time>2011-12-03T23:33:41Z</time>
      </trkpt>
      <trkpt lat="45.47353" lon="4.44167">
        <ele>498.1003418</ele>
        <time>2011-12-03T23:33:46Z</time>
      </trkpt>
      <trkpt lat="45.47368" lon="4.44175">
        <ele>498.1003418</ele>
        <time>2011-12-03T23:33:51Z</time>
      </trkpt>
      <trkpt lat="45.47376" lon="4.4418">
        <ele>497.138916</ele>
        <time>2011-12-03T23:33:54Z</time>
      </trkpt>
      <trkpt lat="45.47392" lon="4.44191">
        <ele>497.6196289</ele>
        <time>2011-12-03T23:34:00Z</time>
      </trkpt>
      <trkpt lat="45.47403" lon="4.44199">
        <ele>497.138916</ele>
        <time>2011-12-03T23:34:05Z</time>
      </trkpt>
      <trkpt lat="45.47416" lon="4.44208">
        <ele>495.2161865</ele>
        <time>2011-12-03T23:34:10Z</time>
      </trkpt>
      <trkpt lat="45.47429" lon="4.44215">
        <ele>494.2550049</ele>
        <time>2011-12-03T23:34:15Z</time>
      </trkpt>
      <trkpt lat="45.47442" lon="4.44222">
        <ele>494.2550049</ele>
        <time>2011-12-03T23:34:20Z</time>
      </trkpt>
      <trkpt lat="45.47454" lon="4.4423">
        <ele>492.3323975</ele>
        <time>2011-12-03T23:34:25Z</time>
      </trkpt>
      <trkpt lat="45.47466" lon="4.44238">
        <ele>491.3709717</ele>
        <time>2011-12-03T23:34:30Z</time>
      </trkpt>
      <trkpt lat="45.47479" lon="4.44245">
        <ele>489.9290771</ele>
        <time>2011-12-03T23:34:35Z</time>
      </trkpt>
      <trkpt lat="45.47497" lon="4.44255">
        <ele>490.40979</ele>
        <time>2011-12-03T23:34:42Z</time>
      </trkpt>
      <trkpt lat="45.47512" lon="4.44267">
        <ele>489.9290771</ele>
        <time>2011-12-03T23:34:48Z</time>
      </trkpt>
      <trkpt lat="45.47525" lon="4.44274">
        <ele>489.9290771</ele>
        <time>2011-12-03T23:34:53Z</time>
      </trkpt>
      <trkpt lat="45.47539" lon="4.44283">
        <ele>488.9677734</ele>
        <time>2011-12-03T23:34:59Z</time>
      </trkpt>
      <trkpt lat="45.47553" lon="4.44293">
        <ele>488.9677734</ele>
        <time>2011-12-03T23:35:05Z</time>
      </trkpt>
      <trkpt lat="45.47567" lon="4.44303">
        <ele>488.4871826</ele>
        <time>2011-12-03T23:35:11Z</time>
      </trkpt>
      <trkpt lat="45.47585" lon="4.44313">
        <ele>488.0064697</ele>
        <time>2011-12-03T23:35:18Z</time>
      </trkpt>
      <trkpt lat="45.47597" lon="4.44318">
        <ele>488.9677734</ele>
        <time>2011-12-03T23:35:23Z</time>
      </trkpt>
      <trkpt lat="45.47614" lon="4.44324">
        <ele>491.3709717</ele>
        <time>2011-12-03T23:35:29Z</time>
      </trkpt>
      <trkpt lat="45.47626" lon="4.44327">
        <ele>490.8903809</ele>
        <time>2011-12-03T23:35:34Z</time>
      </trkpt>
      <trkpt lat="45.47643" lon="4.44329">
        <ele>491.8516846</ele>
        <time>2011-12-03T23:35:40Z</time>
      </trkpt>
      <trkpt lat="45.47663" lon="4.44329">
        <ele>492.8129883</ele>
        <time>2011-12-03T23:35:47Z</time>
      </trkpt>
      <trkpt lat="45.47674" lon="4.44329">
        <ele>494.2550049</ele>
        <time>2011-12-03T23:35:51Z</time>
      </trkpt>
      <trkpt lat="45.47685" lon="4.44328">
        <ele>493.774292</ele>
        <time>2011-12-03T23:35:55Z</time>
      </trkpt>
      <trkpt lat="45.47705" lon="4.44327">
        <ele>494.2550049</ele>
        <time>2011-12-03T23:36:02Z</time>
      </trkpt>
      <trkpt lat="45.47713" lon="4.44327">
        <ele>494.2550049</ele>
        <time>2011-12-03T23:36:05Z</time>
      </trkpt>
      <trkpt lat="45.47727" lon="4.44325">
        <ele>494.7355957</ele>
        <time>2011-12-03T23:36:10Z</time>
      </trkpt>
      <trkpt lat="45.47739" lon="4.44322">
        <ele>495.6968994</ele>
        <time>2011-12-03T23:36:15Z</time>
      </trkpt>
      <trkpt lat="45.47753" lon="4.44322">
        <ele>497.138916</ele>
        <time>2011-12-03T23:36:20Z</time>
      </trkpt>
      <trkpt lat="45.47767" lon="4.44321">
        <ele>497.138916</ele>
        <time>2011-12-03T23:36:26Z</time>
      </trkpt>
      <trkpt lat="45.4778" lon="4.44325">
        <ele>496.1777344</ele>
        <time>2011-12-03T23:36:31Z</time>
      </trkpt>
      <trkpt lat="45.47792" lon="4.44334">
        <ele>495.2161865</ele>
        <time>2011-12-03T23:36:36Z</time>
      </trkpt>
      <trkpt lat="45.47797" lon="4.44336">
        <ele>495.2161865</ele>
        <time>2011-12-03T23:36:38Z</time>
      </trkpt>
      <trkpt lat="45.47811" lon="4.44332">
        <ele>494.7355957</ele>
        <time>2011-12-03T23:36:44Z</time>
      </trkpt>
      <trkpt lat="45.47827" lon="4.44329">
        <ele>494.2550049</ele>
        <time>2011-12-03T23:36:50Z</time>
      </trkpt>
      <trkpt lat="45.47839" lon="4.4433">
        <ele>493.774292</ele>
        <time>2011-12-03T23:36:55Z</time>
      </trkpt>
      <trkpt lat="45.47858" lon="4.44332">
        <ele>494.2550049</ele>
        <time>2011-12-03T23:37:02Z</time>
      </trkpt>
      <trkpt lat="45.47871" lon="4.44334">
        <ele>495.2161865</ele>
        <time>2011-12-03T23:37:07Z</time>
      </trkpt>
      <trkpt lat="45.47888" lon="4.44337">
        <ele>495.2161865</ele>
        <time>2011-12-03T23:37:13Z</time>
      </trkpt>
      <trkpt lat="45.47902" lon="4.44339">
        <ele>494.7355957</ele>
        <time>2011-12-03T23:37:18Z</time>
      </trkpt>
      <trkpt lat="45.47917" lon="4.4434">
        <ele>495.6968994</ele>
        <time>2011-12-03T23:37:24Z</time>
      </trkpt>
      <trkpt lat="45.47932" lon="4.44344">
        <ele>494.7355957</ele>
        <time>2011-12-03T23:37:30Z</time>
      </trkpt>
      <trkpt lat="45.47947" lon="4.44344">
        <ele>492.8129883</ele>
        <time>2011-12-03T23:37:36Z</time>
      </trkpt>
      <trkpt lat="45.47962" lon="4.44346">
        <ele>493.2935791</ele>
        <time>2011-12-03T23:37:42Z</time>
      </trkpt>
      <trkpt lat="45.47976" lon="4.44349">
        <ele>494.2550049</ele>
        <time>2011-12-03T23:37:47Z</time>
      </trkpt>
      <trkpt lat="45.4799" lon="4.44355">
        <ele>495.6968994</ele>
        <time>2011-12-03T23:37:52Z</time>
      </trkpt>
      <trkpt lat="45.48005" lon="4.44361">
        <ele>495.2161865</ele>
        <time>2011-12-03T23:37:58Z</time>
      </trkpt>
      <trkpt lat="45.48017" lon="4.44366">
        <ele>496.1777344</ele>
        <time>2011-12-03T23:38:03Z</time>
      </trkpt>
      <trkpt lat="45.48032" lon="4.44374">
        <ele>497.138916</ele>
        <time>2011-12-03T23:38:09Z</time>
      </trkpt>
      <trkpt lat="45.48045" lon="4.4438">
        <ele>497.6196289</ele>
        <time>2011-12-03T23:38:14Z</time>
      </trkpt>
      <trkpt lat="45.48059" lon="4.44389">
        <ele>497.6196289</ele>
        <time>2011-12-03T23:38:20Z</time>
      </trkpt>
      <trkpt lat="45.48072" lon="4.44396">
        <ele>498.5809326</ele>
        <time>2011-12-03T23:38:25Z</time>
      </trkpt>
      <trkpt lat="45.48084" lon="4.44404">
        <ele>498.1003418</ele>
        <time>2011-12-03T23:38:30Z</time>
      </trkpt>
      <trkpt lat="45.48101" lon="4.44414">
        <ele>500.0229492</ele>
        <time>2011-12-03T23:38:37Z</time>
      </trkpt>
      <trkpt lat="45.48111" lon="4.4442">
        <ele>501.4648438</ele>
        <time>2011-12-03T23:38:41Z</time>
      </trkpt>
      <trkpt lat="45.48127" lon="4.44429">
        <ele>501.9455566</ele>
        <time>2011-12-03T23:38:47Z</time>
      </trkpt>
      <trkpt lat="45.4814" lon="4.44439">
        <ele>501.9455566</ele>
        <time>2011-12-03T23:38:53Z</time>
      </trkpt>
      <trkpt lat="45.4815" lon="4.4445">
        <ele>500.50354</ele>
        <time>2011-12-03T23:38:58Z</time>
      </trkpt>
      <trkpt lat="45.4816" lon="4.44461">
        <ele>499.0615234</ele>
        <time>2011-12-03T23:39:03Z</time>
      </trkpt>
      <trkpt lat="45.4817" lon="4.44473">
        <ele>498.1003418</ele>
        <time>2011-12-03T23:39:08Z</time>
      </trkpt>
      <trkpt lat="45.48183" lon="4.44488">
        <ele>499.0615234</ele>
        <time>2011-12-03T23:39:15Z</time>
      </trkpt>
      <trkpt lat="45.4819" lon="4.44501">
        <ele>500.0229492</ele>
        <time>2011-12-03T23:39:20Z</time>
      </trkpt>
      <trkpt lat="45.48201" lon="4.44513">
        <ele>503.3874512</ele>
        <time>2011-12-03T23:39:25Z</time>
      </trkpt>
      <trkpt lat="45.48206" lon="4.44524">
        <ele>504.348877</ele>
        <time>2011-12-03T23:39:29Z</time>
      </trkpt>
      <trkpt lat="45.4822" lon="4.44542">
        <ele>506.7520752</ele>
        <time>2011-12-03T23:39:36Z</time>
      </trkpt>
      <trkpt lat="45.48228" lon="4.44559">
        <ele>507.2327881</ele>
        <time>2011-12-03T23:39:42Z</time>
      </trkpt>
      <trkpt lat="45.48235" lon="4.44573">
        <ele>508.6746826</ele>
        <time>2011-12-03T23:39:48Z</time>
      </trkpt>
      <trkpt lat="45.48243" lon="4.44585">
        <ele>509.1553955</ele>
        <time>2011-12-03T23:39:53Z</time>
      </trkpt>
      <trkpt lat="45.48252" lon="4.44596">
        <ele>510.1166992</ele>
        <time>2011-12-03T23:39:58Z</time>
      </trkpt>
      <trkpt lat="45.48259" lon="4.44609">
        <ele>511.0780029</ele>
        <time>2011-12-03T23:40:03Z</time>
      </trkpt>
      <trkpt lat="45.48263" lon="4.44619">
        <ele>511.0780029</ele>
        <time>2011-12-03T23:40:07Z</time>
      </trkpt>
      <trkpt lat="45.48268" lon="4.44628">
        <ele>511.5587158</ele>
        <time>2011-12-03T23:40:10Z</time>
      </trkpt>
      <trkpt lat="45.48273" lon="4.44649">
        <ele>512.0394287</ele>
        <time>2011-12-03T23:40:17Z</time>
      </trkpt>
      <trkpt lat="45.48281" lon="4.4467">
        <ele>513.9620361</ele>
        <time>2011-12-03T23:40:24Z</time>
      </trkpt>
      <trkpt lat="45.48288" lon="4.44688">
        <ele>515.8846436</ele>
        <time>2011-12-03T23:40:30Z</time>
      </trkpt>
      <trkpt lat="45.48297" lon="4.44705">
        <ele>517.807251</ele>
        <time>2011-12-03T23:40:36Z</time>
      </trkpt>
      <trkpt lat="45.483" lon="4.44713">
        <ele>517.3266602</ele>
        <time>2011-12-03T23:40:39Z</time>
      </trkpt>
      <trkpt lat="45.48313" lon="4.44733">
        <ele>517.3266602</ele>
        <time>2011-12-03T23:40:47Z</time>
      </trkpt>
      <trkpt lat="45.48314" lon="4.44736">
        <ele>517.3266602</ele>
        <time>2011-12-03T23:40:48Z</time>
      </trkpt>
      <trkpt lat="45.48321" lon="4.4475">
        <ele>518.7685547</ele>
        <time>2011-12-03T23:40:54Z</time>
      </trkpt>
      <trkpt lat="45.48331" lon="4.44764">
        <ele>521.1719971</ele>
        <time>2011-12-03T23:41:00Z</time>
      </trkpt>
      <trkpt lat="45.48338" lon="4.44773">
        <ele>522.1331787</ele>
        <time>2011-12-03T23:41:04Z</time>
      </trkpt>
      <trkpt lat="45.48346" lon="4.44785">
        <ele>522.1331787</ele>
        <time>2011-12-03T23:41:09Z</time>
      </trkpt>
      <trkpt lat="45.48354" lon="4.44796">
        <ele>522.1331787</ele>
        <time>2011-12-03T23:41:14Z</time>
      </trkpt>
      <trkpt lat="45.48363" lon="4.4481">
        <ele>522.6138916</ele>
        <time>2011-12-03T23:41:20Z</time>
      </trkpt>
      <trkpt lat="45.48375" lon="4.44825">
        <ele>522.6138916</ele>
        <time>2011-12-03T23:41:26Z</time>
      </trkpt>
      <trkpt lat="45.48383" lon="4.44837">
        <ele>523.0946045</ele>
        <time>2011-12-03T23:41:31Z</time>
      </trkpt>
      <trkpt lat="45.48393" lon="4.44852">
        <ele>523.5751953</ele>
        <time>2011-12-03T23:41:37Z</time>
      </trkpt>
      <trkpt lat="45.48401" lon="4.44864">
        <ele>524.0557861</ele>
        <time>2011-12-03T23:41:42Z</time>
      </trkpt>
      <trkpt lat="45.48411" lon="4.44877">
        <ele>525.0172119</ele>
        <time>2011-12-03T23:41:48Z</time>
      </trkpt>
      <trkpt lat="45.48419" lon="4.44887">
        <ele>524.536499</ele>
        <time>2011-12-03T23:41:53Z</time>
      </trkpt>
      <trkpt lat="45.48429" lon="4.44895">
        <ele>525.0172119</ele>
        <time>2011-12-03T23:41:58Z</time>
      </trkpt>
      <trkpt lat="45.4844" lon="4.44903">
        <ele>525.0172119</ele>
        <time>2011-12-03T23:42:03Z</time>
      </trkpt>
      <trkpt lat="45.48451" lon="4.44914">
        <ele>527.4204102</ele>
        <time>2011-12-03T23:42:08Z</time>
      </trkpt>
      <trkpt lat="45.48472" lon="4.44932">
        <ele>530.7851563</ele>
        <time>2011-12-03T23:42:17Z</time>
      </trkpt>
      <trkpt lat="45.48484" lon="4.44942">
        <ele>529.8237305</ele>
        <time>2011-12-03T23:42:23Z</time>
      </trkpt>
      <trkpt lat="45.48494" lon="4.44948">
        <ele>527.901001</ele>
        <time>2011-12-03T23:42:28Z</time>
      </trkpt>
      <trkpt lat="45.48506" lon="4.44956">
        <ele>527.901001</ele>
        <time>2011-12-03T23:42:34Z</time>
      </trkpt>
      <trkpt lat="45.48514" lon="4.44959">
        <ele>527.4204102</ele>
        <time>2011-12-03T23:42:38Z</time>
      </trkpt>
      <trkpt lat="45.4853" lon="4.44958">
        <ele>526.4591064</ele>
        <time>2011-12-03T23:42:45Z</time>
      </trkpt>
      <trkpt lat="45.48537" lon="4.44957">
        <ele>526.9398193</ele>
        <time>2011-12-03T23:42:48Z</time>
      </trkpt>
      <trkpt lat="45.48554" lon="4.44952">
        <ele>530.3044434</ele>
        <time>2011-12-03T23:42:55Z</time>
      </trkpt>
      <trkpt lat="45.4856" lon="4.44949">
        <ele>531.2657471</ele>
        <time>2011-12-03T23:42:58Z</time>
      </trkpt>
      <trkpt lat="45.48579" lon="4.44943">
        <ele>537.0336914</ele>
        <time>2011-12-03T23:43:06Z</time>
      </trkpt>
      <trkpt lat="45.48594" lon="4.44938">
        <ele>538.475708</ele>
        <time>2011-12-03T23:43:13Z</time>
      </trkpt>
      <trkpt lat="45.48614" lon="4.44933">
        <ele>540.3983154</ele>
        <time>2011-12-03T23:43:22Z</time>
      </trkpt>
      <trkpt lat="45.48626" lon="4.4493">
        <ele>539.4368896</ele>
        <time>2011-12-03T23:43:28Z</time>
      </trkpt>
      <trkpt lat="45.48638" lon="4.44929">
        <ele>540.8789063</ele>
        <time>2011-12-03T23:43:34Z</time>
      </trkpt>
      <trkpt lat="45.48649" lon="4.44927">
        <ele>541.3594971</ele>
        <time>2011-12-03T23:43:39Z</time>
      </trkpt>
      <trkpt lat="45.48659" lon="4.44923">
        <ele>544.2436523</ele>
        <time>2011-12-03T23:43:44Z</time>
      </trkpt>
      <trkpt lat="45.48669" lon="4.44922">
        <ele>545.204834</ele>
        <time>2011-12-03T23:43:48Z</time>
      </trkpt>
      <trkpt lat="45.48679" lon="4.44919">
        <ele>545.204834</ele>
        <time>2011-12-03T23:43:53Z</time>
      </trkpt>
      <trkpt lat="45.48693" lon="4.44913">
        <ele>550.4921875</ele>
        <time>2011-12-03T23:43:59Z</time>
      </trkpt>
      <trkpt lat="45.48704" lon="4.44911">
        <ele>550.4921875</ele>
        <time>2011-12-03T23:44:04Z</time>
      </trkpt>
      <trkpt lat="45.48714" lon="4.44908">
        <ele>550.4921875</ele>
        <time>2011-12-03T23:44:09Z</time>
      </trkpt>
      <trkpt lat="45.48726" lon="4.44905">
        <ele>550.4921875</ele>
        <time>2011-12-03T23:44:15Z</time>
      </trkpt>
      <trkpt lat="45.48739" lon="4.44907">
        <ele>550.4921875</ele>
        <time>2011-12-03T23:44:21Z</time>
      </trkpt>
      <trkpt lat="45.48754" lon="4.44908">
        <ele>550.9726563</ele>
        <time>2011-12-03T23:44:27Z</time>
      </trkpt>
      <trkpt lat="45.48767" lon="4.44909">
        <ele>553.3759766</ele>
        <time>2011-12-03T23:44:33Z</time>
      </trkpt>
      <trkpt lat="45.48775" lon="4.4491">
        <ele>553.3759766</ele>
        <time>2011-12-03T23:44:37Z</time>
      </trkpt>
      <trkpt lat="45.48788" lon="4.44915">
        <ele>555.7792969</ele>
        <time>2011-12-03T23:44:44Z</time>
      </trkpt>
      <trkpt lat="45.48793" lon="4.44917">
        <ele>555.7792969</ele>
        <time>2011-12-03T23:44:47Z</time>
      </trkpt>
      <trkpt lat="45.48805" lon="4.44924">
        <ele>555.7792969</ele>
        <time>2011-12-03T23:44:53Z</time>
      </trkpt>
      <trkpt lat="45.4881" lon="4.44929">
        <ele>555.7792969</ele>
        <time>2011-12-03T23:44:56Z</time>
      </trkpt>
      <trkpt lat="45.4882" lon="4.44938">
        <ele>558.1828613</ele>
        <time>2011-12-03T23:45:01Z</time>
      </trkpt>
      <trkpt lat="45.48834" lon="4.44946">
        <ele>555.7792969</ele>
        <time>2011-12-03T23:45:08Z</time>
      </trkpt>
      <trkpt lat="45.48843" lon="4.44959">
        <ele>556.7407227</ele>
        <time>2011-12-03T23:45:13Z</time>
      </trkpt>
      <trkpt lat="45.48844" lon="4.44962">
        <ele>558.1828613</ele>
        <time>2011-12-03T23:45:14Z</time>
      </trkpt>
      <trkpt lat="45.48852" lon="4.44976">
        <ele>560.5859375</ele>
        <time>2011-12-03T23:45:19Z</time>
      </trkpt>
      <trkpt lat="45.48858" lon="4.44993">
        <ele>561.5473633</ele>
        <time>2011-12-03T23:45:25Z</time>
      </trkpt>
      <trkpt lat="45.48869" lon="4.45004">
        <ele>564.4311523</ele>
        <time>2011-12-03T23:45:30Z</time>
      </trkpt>
      <trkpt lat="45.48877" lon="4.45012">
        <ele>569.7185059</ele>
        <time>2011-12-03T23:45:34Z</time>
      </trkpt>
      <trkpt lat="45.48875" lon="4.45017">
        <ele>574.0444336</ele>
        <time>2011-12-03T23:45:39Z</time>
      </trkpt>
      <trkpt lat="45.4888" lon="4.45024">
        <ele>576.4477539</ele>
        <time>2011-12-03T23:45:44Z</time>
      </trkpt>
      <trkpt lat="45.48891" lon="4.45029">
        <ele>575.967041</ele>
        <time>2011-12-03T23:45:49Z</time>
      </trkpt>
      <trkpt lat="45.48893" lon="4.45028">
        <ele>575.4863281</ele>
        <time>2011-12-03T23:45:50Z</time>
      </trkpt>
      <trkpt lat="45.48913" lon="4.45028">
        <ele>575.0058594</ele>
        <time>2011-12-03T23:45:57Z</time>
      </trkpt>
      <trkpt lat="45.48931" lon="4.45032">
        <ele>572.1218262</ele>
        <time>2011-12-03T23:46:03Z</time>
      </trkpt>
      <trkpt lat="45.48947" lon="4.45031">
        <ele>570.6796875</ele>
        <time>2011-12-03T23:46:09Z</time>
      </trkpt>
      <trkpt lat="45.4896" lon="4.45031">
        <ele>568.2763672</ele>
        <time>2011-12-03T23:46:14Z</time>
      </trkpt>
      <trkpt lat="45.48973" lon="4.45028">
        <ele>567.3151855</ele>
        <time>2011-12-03T23:46:19Z</time>
      </trkpt>
      <trkpt lat="45.48981" lon="4.45026">
        <ele>565.873291</ele>
        <time>2011-12-03T23:46:22Z</time>
      </trkpt>
      <trkpt lat="45.48994" lon="4.45021">
        <ele>564.9118652</ele>
        <time>2011-12-03T23:46:28Z</time>
      </trkpt>
      <trkpt lat="45.48999" lon="4.45021">
        <ele>563.9504395</ele>
        <time>2011-12-03T23:46:30Z</time>
      </trkpt>
      <trkpt lat="45.49014" lon="4.45015">
        <ele>562.9892578</ele>
        <time>2011-12-03T23:46:36Z</time>
      </trkpt>
      <trkpt lat="45.49026" lon="4.45012">
        <ele>564.9118652</ele>
        <time>2011-12-03T23:46:41Z</time>
      </trkpt>
      <trkpt lat="45.49037" lon="4.4501">
        <ele>564.4311523</ele>
        <time>2011-12-03T23:46:46Z</time>
      </trkpt>
      <trkpt lat="45.4905" lon="4.45007">
        <ele>564.9118652</ele>
        <time>2011-12-03T23:46:52Z</time>
      </trkpt>
      <trkpt lat="45.49057" lon="4.45007">
        <ele>564.9118652</ele>
        <time>2011-12-03T23:46:55Z</time>
      </trkpt>
      <trkpt lat="45.49075" lon="4.45013">
        <ele>566.8344727</ele>
        <time>2011-12-03T23:47:02Z</time>
      </trkpt>
      <trkpt lat="45.49085" lon="4.45017">
        <ele>568.7570801</ele>
        <time>2011-12-03T23:47:07Z</time>
      </trkpt>
      <trkpt lat="45.49095" lon="4.45018">
        <ele>570.6796875</ele>
        <time>2011-12-03T23:47:12Z</time>
      </trkpt>
      <trkpt lat="45.49107" lon="4.45021">
        <ele>572.6025391</ele>
        <time>2011-12-03T23:47:18Z</time>
      </trkpt>
      <trkpt lat="45.49117" lon="4.45021">
        <ele>572.6025391</ele>
        <time>2011-12-03T23:47:23Z</time>
      </trkpt>
      <trkpt lat="45.49132" lon="4.4502">
        <ele>572.6025391</ele>
        <time>2011-12-03T23:47:29Z</time>
      </trkpt>
      <trkpt lat="45.49142" lon="4.4501">
        <ele>572.6025391</ele>
        <time>2011-12-03T23:47:35Z</time>
      </trkpt>
      <trkpt lat="45.49152" lon="4.44998">
        <ele>573.083252</ele>
        <time>2011-12-03T23:47:42Z</time>
      </trkpt>
      <trkpt lat="45.49162" lon="4.44986">
        <ele>574.5251465</ele>
        <time>2011-12-03T23:47:50Z</time>
      </trkpt>
      <trkpt lat="45.49163" lon="4.44984">
        <ele>575.0058594</ele>
        <time>2011-12-03T23:47:51Z</time>
      </trkpt>
      <trkpt lat="45.49165" lon="4.44976">
        <ele>575.4863281</ele>
        <time>2011-12-03T23:47:55Z</time>
      </trkpt>
      <trkpt lat="45.49175" lon="4.4496">
        <ele>581.7348633</ele>
        <time>2011-12-03T23:48:03Z</time>
      </trkpt>
      <trkpt lat="45.49183" lon="4.44947">
        <ele>587.0219727</ele>
        <time>2011-12-03T23:48:08Z</time>
      </trkpt>
      <trkpt lat="45.49192" lon="4.44937">
        <ele>589.90625</ele>
        <time>2011-12-03T23:48:14Z</time>
      </trkpt>
      <trkpt lat="45.49201" lon="4.44926">
        <ele>590.8674316</ele>
        <time>2011-12-03T23:48:20Z</time>
      </trkpt>
      <trkpt lat="45.49208" lon="4.44916">
        <ele>590.3869629</ele>
        <time>2011-12-03T23:48:26Z</time>
      </trkpt>
      <trkpt lat="45.49218" lon="4.44903">
        <ele>589.4255371</ele>
        <time>2011-12-03T23:48:33Z</time>
      </trkpt>
      <trkpt lat="45.49224" lon="4.44894">
        <ele>588.4643555</ele>
        <time>2011-12-03T23:48:38Z</time>
      </trkpt>
      <trkpt lat="45.49233" lon="4.44881">
        <ele>588.9450684</ele>
        <time>2011-12-03T23:48:44Z</time>
      </trkpt>
      <trkpt lat="45.49241" lon="4.44868">
        <ele>588.4643555</ele>
        <time>2011-12-03T23:48:50Z</time>
      </trkpt>
      <trkpt lat="45.49252" lon="4.44857">
        <ele>588.4643555</ele>
        <time>2011-12-03T23:48:56Z</time>
      </trkpt>
      <trkpt lat="45.49261" lon="4.44847">
        <ele>587.0219727</ele>
        <time>2011-12-03T23:49:01Z</time>
      </trkpt>
      <trkpt lat="45.4927" lon="4.44835">
        <ele>587.5026855</ele>
        <time>2011-12-03T23:49:07Z</time>
      </trkpt>
      <trkpt lat="45.49279" lon="4.44824">
        <ele>587.9833984</ele>
        <time>2011-12-03T23:49:12Z</time>
      </trkpt>
      <trkpt lat="45.4929" lon="4.44813">
        <ele>588.9450684</ele>
        <time>2011-12-03T23:49:18Z</time>
      </trkpt>
      <trkpt lat="45.49301" lon="4.44801">
        <ele>590.3869629</ele>
        <time>2011-12-03T23:49:24Z</time>
      </trkpt>
      <trkpt lat="45.49314" lon="4.44783">
        <ele>590.3869629</ele>
        <time>2011-12-03T23:49:32Z</time>
      </trkpt>
      <trkpt lat="45.49326" lon="4.44768">
        <ele>590.8674316</ele>
        <time>2011-12-03T23:49:39Z</time>
      </trkpt>
      <trkpt lat="45.49336" lon="4.44757">
        <ele>593.270752</ele>
        <time>2011-12-03T23:49:45Z</time>
      </trkpt>
      <trkpt lat="45.49345" lon="4.44746">
        <ele>594.2321777</ele>
        <time>2011-12-03T23:49:50Z</time>
      </trkpt>
      <trkpt lat="45.49355" lon="4.44733">
        <ele>595.6740723</ele>
        <time>2011-12-03T23:49:56Z</time>
      </trkpt>
      <trkpt lat="45.49364" lon="4.44721">
        <ele>597.1159668</ele>
        <time>2011-12-03T23:50:04Z</time>
      </trkpt>
      <trkpt lat="45.49374" lon="4.44708">
        <ele>598.5578613</ele>
        <time>2011-12-03T23:50:12Z</time>
      </trkpt>
      <trkpt lat="45.49386" lon="4.44694">
        <ele>600</ele>
        <time>2011-12-03T23:50:22Z</time>
      </trkpt>
      <trkpt lat="45.49397" lon="4.44681">
        <ele>600.9611816</ele>
        <time>2011-12-03T23:50:31Z</time>
      </trkpt>
      <trkpt lat="45.49407" lon="4.44668">
        <ele>602.4030762</ele>
        <time>2011-12-03T23:50:40Z</time>
      </trkpt>
      <trkpt lat="45.49418" lon="4.4465">
        <ele>605.2873535</ele>
        <time>2011-12-03T23:50:51Z</time>
      </trkpt>
      <trkpt lat="45.49429" lon="4.44637">
        <ele>607.6906738</ele>
        <time>2011-12-03T23:51:01Z</time>
      </trkpt>
      <trkpt lat="45.4944" lon="4.44626">
        <ele>607.2099609</ele>
        <time>2011-12-03T23:51:10Z</time>
      </trkpt>
      <trkpt lat="45.49454" lon="4.44611">
        <ele>610.09375</ele>
        <time>2011-12-03T23:51:21Z</time>
      </trkpt>
      <trkpt lat="45.49468" lon="4.44599">
        <ele>612.9777832</ele>
        <time>2011-12-03T23:51:31Z</time>
      </trkpt>
      <trkpt lat="45.49481" lon="4.4459">
        <ele>613.9389648</ele>
        <time>2011-12-03T23:51:39Z</time>
      </trkpt>
      <trkpt lat="45.49497" lon="4.44579">
        <ele>613.4584961</ele>
        <time>2011-12-03T23:51:46Z</time>
      </trkpt>
      <trkpt lat="45.49512" lon="4.44571">
        <ele>612.9777832</ele>
        <time>2011-12-03T23:51:52Z</time>
      </trkpt>
      <trkpt lat="45.49525" lon="4.44566">
        <ele>611.5358887</ele>
        <time>2011-12-03T23:51:57Z</time>
      </trkpt>
      <trkpt lat="45.4954" lon="4.44564">
        <ele>609.6132813</ele>
        <time>2011-12-03T23:52:03Z</time>
      </trkpt>
      <trkpt lat="45.49556" lon="4.44564">
        <ele>608.6518555</ele>
        <time>2011-12-03T23:52:09Z</time>
      </trkpt>
      <trkpt lat="45.49575" lon="4.44563">
        <ele>608.6518555</ele>
        <time>2011-12-03T23:52:16Z</time>
      </trkpt>
      <trkpt lat="45.49587" lon="4.44563">
        <ele>607.6906738</ele>
        <time>2011-12-03T23:52:21Z</time>
      </trkpt>
      <trkpt lat="45.496" lon="4.44562">
        <ele>606.729248</ele>
        <time>2011-12-03T23:52:26Z</time>
      </trkpt>
      <trkpt lat="45.49614" lon="4.44562">
        <ele>606.2485352</ele>
        <time>2011-12-03T23:52:32Z</time>
      </trkpt>
      <trkpt lat="45.49623" lon="4.4456">
        <ele>606.2485352</ele>
        <time>2011-12-03T23:52:36Z</time>
      </trkpt>
      <trkpt lat="45.49638" lon="4.44558">
        <ele>606.729248</ele>
        <time>2011-12-03T23:52:42Z</time>
      </trkpt>
      <trkpt lat="45.49652" lon="4.44555">
        <ele>608.1713867</ele>
        <time>2011-12-03T23:52:47Z</time>
      </trkpt>
      <trkpt lat="45.49666" lon="4.44552">
        <ele>608.6518555</ele>
        <time>2011-12-03T23:52:52Z</time>
      </trkpt>
      <trkpt lat="45.49679" lon="4.4455">
        <ele>607.6906738</ele>
        <time>2011-12-03T23:52:57Z</time>
      </trkpt>
      <trkpt lat="45.49691" lon="4.44547">
        <ele>607.2099609</ele>
        <time>2011-12-03T23:53:02Z</time>
      </trkpt>
      <trkpt lat="45.4971" lon="4.44544">
        <ele>607.2099609</ele>
        <time>2011-12-03T23:53:09Z</time>
      </trkpt>
      <trkpt lat="45.49721" lon="4.4454">
        <ele>608.6518555</ele>
        <time>2011-12-03T23:53:14Z</time>
      </trkpt>
      <trkpt lat="45.49734" lon="4.44538">
        <ele>609.6132813</ele>
        <time>2011-12-03T23:53:19Z</time>
      </trkpt>
      <trkpt lat="45.49743" lon="4.44537">
        <ele>610.5744629</ele>
        <time>2011-12-03T23:53:23Z</time>
      </trkpt>
      <trkpt lat="45.49756" lon="4.44534">
        <ele>611.0551758</ele>
        <time>2011-12-03T23:53:28Z</time>
      </trkpt>
      <trkpt lat="45.49774" lon="4.4453">
        <ele>611.5358887</ele>
        <time>2011-12-03T23:53:35Z</time>
      </trkpt>
      <trkpt lat="45.49788" lon="4.44529">
        <ele>612.4970703</ele>
        <time>2011-12-03T23:53:40Z</time>
      </trkpt>
      <trkpt lat="45.498" lon="4.44528">
        <ele>613.4584961</ele>
        <time>2011-12-03T23:53:44Z</time>
      </trkpt>
      <trkpt lat="45.49817" lon="4.4453">
        <ele>612.9777832</ele>
        <time>2011-12-03T23:53:51Z</time>
      </trkpt>
      <trkpt lat="45.49833" lon="4.44532">
        <ele>612.9777832</ele>
        <time>2011-12-03T23:53:57Z</time>
      </trkpt>
      <trkpt lat="45.49849" lon="4.44533">
        <ele>612.9777832</ele>
        <time>2011-12-03T23:54:04Z</time>
      </trkpt>
      <trkpt lat="45.49866" lon="4.44536">
        <ele>613.9389648</ele>
        <time>2011-12-03T23:54:11Z</time>
      </trkpt>
      <trkpt lat="45.49881" lon="4.44537">
        <ele>614.4196777</ele>
        <time>2011-12-03T23:54:17Z</time>
      </trkpt>
      <trkpt lat="45.49892" lon="4.44539">
        <ele>615.8618164</ele>
        <time>2011-12-03T23:54:22Z</time>
      </trkpt>
      <trkpt lat="45.49899" lon="4.44541">
        <ele>615.8618164</ele>
        <time>2011-12-03T23:54:25Z</time>
      </trkpt>
      <trkpt lat="45.49912" lon="4.4455">
        <ele>616.3422852</ele>
        <time>2011-12-03T23:54:34Z</time>
      </trkpt>
      <trkpt lat="45.49921" lon="4.44552">
        <ele>618.7456055</ele>
        <time>2011-12-03T23:54:39Z</time>
      </trkpt>
      <trkpt lat="45.49934" lon="4.44558">
        <ele>620.1877441</ele>
        <time>2011-12-03T23:54:46Z</time>
      </trkpt>
      <trkpt lat="45.49944" lon="4.44559">
        <ele>621.1491699</ele>
        <time>2011-12-03T23:54:51Z</time>
      </trkpt>
      <trkpt lat="45.49953" lon="4.44559">
        <ele>621.6296387</ele>
        <time>2011-12-03T23:54:56Z</time>
      </trkpt>
      <trkpt lat="45.49964" lon="4.44559">
        <ele>621.1491699</ele>
        <time>2011-12-03T23:55:02Z</time>
      </trkpt>
      <trkpt lat="45.49967" lon="4.44559">
        <ele>620.1877441</ele>
        <time>2011-12-03T23:55:04Z</time>
      </trkpt>
      <trkpt lat="45.49982" lon="4.4456">
        <ele>621.1491699</ele>
        <time>2011-12-03T23:55:11Z</time>
      </trkpt>
      <trkpt lat="45.49996" lon="4.44558">
        <ele>625.9555664</ele>
        <time>2011-12-03T23:55:17Z</time>
      </trkpt>
      <trkpt lat="45.50006" lon="4.44558">
        <ele>626.4362793</ele>
        <time>2011-12-03T23:55:22Z</time>
      </trkpt>
      <trkpt lat="45.50021" lon="4.44558">
        <ele>629.8007813</ele>
        <time>2011-12-03T23:55:30Z</time>
      </trkpt>
      <trkpt lat="45.50031" lon="4.44559">
        <ele>631.2429199</ele>
        <time>2011-12-03T23:55:37Z</time>
      </trkpt>
      <trkpt lat="45.50038" lon="4.44558">
        <ele>634.126709</ele>
        <time>2011-12-03T23:55:43Z</time>
      </trkpt>
      <trkpt lat="45.50047" lon="4.44557">
        <ele>634.6074219</ele>
        <time>2011-12-03T23:55:49Z</time>
      </trkpt>
      <trkpt lat="45.50049" lon="4.44556">
        <ele>634.6074219</ele>
        <time>2011-12-03T23:55:50Z</time>
      </trkpt>
      <trkpt lat="45.5006" lon="4.44555">
        <ele>637.0107422</ele>
        <time>2011-12-03T23:55:58Z</time>
      </trkpt>
      <trkpt lat="45.5007" lon="4.44555">
        <ele>640.3754883</ele>
        <time>2011-12-03T23:56:05Z</time>
      </trkpt>
      <trkpt lat="45.50078" lon="4.44554">
        <ele>641.3366699</ele>
        <time>2011-12-03T23:56:11Z</time>
      </trkpt>
      <trkpt lat="45.50088" lon="4.44556">
        <ele>641.8173828</ele>
        <time>2011-12-03T23:56:18Z</time>
      </trkpt>
      <trkpt lat="45.50098" lon="4.44557">
        <ele>641.3366699</ele>
        <time>2011-12-03T23:56:25Z</time>
      </trkpt>
      <trkpt lat="45.5011" lon="4.4456">
        <ele>642.2980957</ele>
        <time>2011-12-03T23:56:32Z</time>
      </trkpt>
      <trkpt lat="45.50123" lon="4.44566">
        <ele>642.7788086</ele>
        <time>2011-12-03T23:56:38Z</time>
      </trkpt>
      <trkpt lat="45.50136" lon="4.44575">
        <ele>646.1433105</ele>
        <time>2011-12-03T23:56:44Z</time>
      </trkpt>
      <trkpt lat="45.5015" lon="4.44584">
        <ele>649.5078125</ele>
        <time>2011-12-03T23:56:51Z</time>
      </trkpt>
      <trkpt lat="45.50163" lon="4.44592">
        <ele>651.4304199</ele>
        <time>2011-12-03T23:56:58Z</time>
      </trkpt>
      <trkpt lat="45.50176" lon="4.446">
        <ele>651.9111328</ele>
        <time>2011-12-03T23:57:04Z</time>
      </trkpt>
      <trkpt lat="45.50185" lon="4.44606">
        <ele>653.3532715</ele>
        <time>2011-12-03T23:57:09Z</time>
      </trkpt>
      <trkpt lat="45.50196" lon="4.44613">
        <ele>654.795166</ele>
        <time>2011-12-03T23:57:15Z</time>
      </trkpt>
      <trkpt lat="45.50207" lon="4.44622">
        <ele>657.6791992</ele>
        <time>2011-12-03T23:57:21Z</time>
      </trkpt>
      <trkpt lat="45.50219" lon="4.44632">
        <ele>661.0437012</ele>
        <time>2011-12-03T23:57:27Z</time>
      </trkpt>
      <trkpt lat="45.5023" lon="4.44641">
        <ele>662.4855957</ele>
        <time>2011-12-03T23:57:33Z</time>
      </trkpt>
      <trkpt lat="45.50239" lon="4.44649">
        <ele>664.888916</ele>
        <time>2011-12-03T23:57:38Z</time>
      </trkpt>
      <trkpt lat="45.50248" lon="4.44658">
        <ele>668.734375</ele>
        <time>2011-12-03T23:57:44Z</time>
      </trkpt>
      <trkpt lat="45.50257" lon="4.44668">
        <ele>671.6181641</ele>
        <time>2011-12-03T23:57:50Z</time>
      </trkpt>
      <trkpt lat="45.50264" lon="4.44675">
        <ele>671.1376953</ele>
        <time>2011-12-03T23:57:55Z</time>
      </trkpt>
      <trkpt lat="45.50277" lon="4.44683">
        <ele>670.6569824</ele>
        <time>2011-12-03T23:58:03Z</time>
      </trkpt>
      <trkpt lat="45.50286" lon="4.4469">
        <ele>671.6181641</ele>
        <time>2011-12-03T23:58:08Z</time>
      </trkpt>
      <trkpt lat="45.50295" lon="4.44696">
        <ele>671.6181641</ele>
        <time>2011-12-03T23:58:14Z</time>
      </trkpt>
      <trkpt lat="45.50306" lon="4.44702">
        <ele>672.098877</ele>
        <time>2011-12-03T23:58:22Z</time>
      </trkpt>
      <trkpt lat="45.50321" lon="4.44709">
        <ele>672.5795898</ele>
        <time>2011-12-03T23:58:33Z</time>
      </trkpt>
      <trkpt lat="45.50332" lon="4.44714">
        <ele>673.5410156</ele>
        <time>2011-12-03T23:58:41Z</time>
      </trkpt>
      <trkpt lat="45.50342" lon="4.44718">
        <ele>674.5021973</ele>
        <time>2011-12-03T23:58:48Z</time>
      </trkpt>
      <trkpt lat="45.50354" lon="4.44723">
        <ele>675.9440918</ele>
        <time>2011-12-03T23:58:57Z</time>
      </trkpt>
      <trkpt lat="45.50366" lon="4.44728">
        <ele>676.9055176</ele>
        <time>2011-12-03T23:59:04Z</time>
      </trkpt>
      <trkpt lat="45.50381" lon="4.44738">
        <ele>679.7893066</ele>
        <time>2011-12-03T23:59:12Z</time>
      </trkpt>
      <trkpt lat="45.50398" lon="4.44747">
        <ele>681.2314453</ele>
        <time>2011-12-03T23:59:20Z</time>
      </trkpt>
      <trkpt lat="45.50415" lon="4.44756">
        <ele>682.192627</ele>
        <time>2011-12-03T23:59:27Z</time>
      </trkpt>
      <trkpt lat="45.50432" lon="4.44764">
        <ele>682.192627</ele>
        <time>2011-12-03T23:59:34Z</time>
      </trkpt>
      <trkpt lat="45.50449" lon="4.44774">
        <ele>682.192627</ele>
        <time>2011-12-03T23:59:41Z</time>
      </trkpt>
      <trkpt lat="45.50462" lon="4.44781">
        <ele>682.192627</ele>
        <time>2011-12-03T23:59:46Z</time>
      </trkpt>
      <trkpt lat="45.50477" lon="4.44789">
        <ele>680.7507324</ele>
        <time>2011-12-03T23:59:52Z</time>
      </trkpt>
      <trkpt lat="45.50489" lon="4.44795">
        <ele>680.7507324</ele>
        <time>2011-12-03T23:59:57Z</time>
      </trkpt>
      <trkpt lat="45.50503" lon="4.44801">
        <ele>677.8666992</ele>
        <time>2011-12-04T00:00:03Z</time>
      </trkpt>
      <trkpt lat="45.50515" lon="4.44803">
        <ele>676.9055176</ele>
        <time>2011-12-04T00:00:08Z</time>
      </trkpt>
      <trkpt lat="45.50531" lon="4.44806">
        <ele>677.3862305</ele>
        <time>2011-12-04T00:00:15Z</time>
      </trkpt>
      <trkpt lat="45.50546" lon="4.44809">
        <ele>676.9055176</ele>
        <time>2011-12-04T00:00:21Z</time>
      </trkpt>
      <trkpt lat="45.50562" lon="4.44812">
        <ele>676.9055176</ele>
        <time>2011-12-04T00:00:27Z</time>
      </trkpt>
      <trkpt lat="45.50567" lon="4.44814">
        <ele>676.9055176</ele>
        <time>2011-12-04T00:00:30Z</time>
      </trkpt>
      <trkpt lat="45.50575" lon="4.44818">
        <ele>677.8666992</ele>
        <time>2011-12-04T00:00:35Z</time>
      </trkpt>
      <trkpt lat="45.50593" lon="4.44821">
        <ele>679.3085938</ele>
        <time>2011-12-04T00:00:41Z</time>
      </trkpt>
      <trkpt lat="45.50607" lon="4.44825">
        <ele>679.7893066</ele>
        <time>2011-12-04T00:00:46Z</time>
      </trkpt>
      <trkpt lat="45.50619" lon="4.44826">
        <ele>678.828125</ele>
        <time>2011-12-04T00:00:51Z</time>
      </trkpt>
      <trkpt lat="45.50633" lon="4.44827">
        <ele>680.2700195</ele>
        <time>2011-12-04T00:00:56Z</time>
      </trkpt>
      <trkpt lat="45.50643" lon="4.44828">
        <ele>677.3862305</ele>
        <time>2011-12-04T00:01:01Z</time>
      </trkpt>
      <trkpt lat="45.50654" lon="4.44826">
        <ele>676.4248047</ele>
        <time>2011-12-04T00:01:06Z</time>
      </trkpt>
      <trkpt lat="45.50667" lon="4.44823">
        <ele>676.4248047</ele>
        <time>2011-12-04T00:01:11Z</time>
      </trkpt>
      <trkpt lat="45.50671" lon="4.44822">
        <ele>676.4248047</ele>
        <time>2011-12-04T00:01:13Z</time>
      </trkpt>
      <trkpt lat="45.50683" lon="4.44817">
        <ele>675.9440918</ele>
        <time>2011-12-04T00:01:19Z</time>
      </trkpt>
      <trkpt lat="45.50699" lon="4.44819">
        <ele>675.9440918</ele>
        <time>2011-12-04T00:01:26Z</time>
      </trkpt>
      <trkpt lat="45.50708" lon="4.44823">
        <ele>676.4248047</ele>
        <time>2011-12-04T00:01:30Z</time>
      </trkpt>
      <trkpt lat="45.50717" lon="4.44831">
        <ele>676.4248047</ele>
        <time>2011-12-04T00:01:35Z</time>
      </trkpt>
      <trkpt lat="45.50728" lon="4.4484">
        <ele>677.3862305</ele>
        <time>2011-12-04T00:01:40Z</time>
      </trkpt>
      <trkpt lat="45.5074" lon="4.44844">
        <ele>678.828125</ele>
        <time>2011-12-04T00:01:45Z</time>
      </trkpt>
      <trkpt lat="45.50754" lon="4.44849">
        <ele>680.2700195</ele>
        <time>2011-12-04T00:01:51Z</time>
      </trkpt>
      <trkpt lat="45.50771" lon="4.44853">
        <ele>681.2314453</ele>
        <time>2011-12-04T00:01:59Z</time>
      </trkpt>
      <trkpt lat="45.50784" lon="4.44853">
        <ele>682.192627</ele>
        <time>2011-12-04T00:02:05Z</time>
      </trkpt>
      <trkpt lat="45.50805" lon="4.44852">
        <ele>683.1538086</ele>
        <time>2011-12-04T00:02:15Z</time>
      </trkpt>
      <trkpt lat="45.50817" lon="4.4485">
        <ele>684.1154785</ele>
        <time>2011-12-04T00:02:21Z</time>
      </trkpt>
      <trkpt lat="45.50831" lon="4.44849">
        <ele>684.1154785</ele>
        <time>2011-12-04T00:02:28Z</time>
      </trkpt>
      <trkpt lat="45.50844" lon="4.44847">
        <ele>685.557373</ele>
        <time>2011-12-04T00:02:35Z</time>
      </trkpt>
      <trkpt lat="45.50853" lon="4.44842">
        <ele>686.9992676</ele>
        <time>2011-12-04T00:02:41Z</time>
      </trkpt>
      <trkpt lat="45.50865" lon="4.4484">
        <ele>687.4799805</ele>
        <time>2011-12-04T00:02:47Z</time>
      </trkpt>
      <trkpt lat="45.50881" lon="4.44841">
        <ele>687.9606934</ele>
        <time>2011-12-04T00:02:55Z</time>
      </trkpt>
      <trkpt lat="45.50893" lon="4.44842">
        <ele>689.8833008</ele>
        <time>2011-12-04T00:03:01Z</time>
      </trkpt>
      <trkpt lat="45.50902" lon="4.44841">
        <ele>689.4025879</ele>
        <time>2011-12-04T00:03:07Z</time>
      </trkpt>
      <trkpt lat="45.50913" lon="4.44837">
        <ele>690.3640137</ele>
        <time>2011-12-04T00:03:14Z</time>
      </trkpt>
      <trkpt lat="45.50924" lon="4.44835">
        <ele>691.3251953</ele>
        <time>2011-12-04T00:03:21Z</time>
      </trkpt>
      <trkpt lat="45.50936" lon="4.44832">
        <ele>693.2478027</ele>
        <time>2011-12-04T00:03:28Z</time>
      </trkpt>
      <trkpt lat="45.50949" lon="4.44827">
        <ele>695.1704102</ele>
        <time>2011-12-04T00:03:37Z</time>
      </trkpt>
      <trkpt lat="45.50956" lon="4.44826">
        <ele>697.0930176</ele>
        <time>2011-12-04T00:03:43Z</time>
      </trkpt>
      <trkpt lat="45.50965" lon="4.44823">
        <ele>697.5737305</ele>
        <time>2011-12-04T00:03:50Z</time>
      </trkpt>
      <trkpt lat="45.50978" lon="4.44824">
        <ele>699.015625</ele>
        <time>2011-12-04T00:04:01Z</time>
      </trkpt>
      <trkpt lat="45.50986" lon="4.44824">
        <ele>699.9770508</ele>
        <time>2011-12-04T00:04:08Z</time>
      </trkpt>
      <trkpt lat="45.50992" lon="4.44824">
        <ele>699.9770508</ele>
        <time>2011-12-04T00:04:14Z</time>
      </trkpt>
      <trkpt lat="45.51001" lon="4.44823">
        <ele>700.9384766</ele>
        <time>2011-12-04T00:04:22Z</time>
      </trkpt>
      <trkpt lat="45.5101" lon="4.44823">
        <ele>703.8225098</ele>
        <time>2011-12-04T00:04:29Z</time>
      </trkpt>
      <trkpt lat="45.51022" lon="4.44827">
        <ele>706.2255859</ele>
        <time>2011-12-04T00:04:37Z</time>
      </trkpt>
      <trkpt lat="45.51035" lon="4.44831">
        <ele>708.1484375</ele>
        <time>2011-12-04T00:04:47Z</time>
      </trkpt>
      <trkpt lat="45.51045" lon="4.44833">
        <ele>708.1484375</ele>
        <time>2011-12-04T00:04:55Z</time>
      </trkpt>
      <trkpt lat="45.51057" lon="4.44836">
        <ele>711.5129395</ele>
        <time>2011-12-04T00:05:04Z</time>
      </trkpt>
      <trkpt lat="45.51073" lon="4.44839">
        <ele>713.4355469</ele>
        <time>2011-12-04T00:05:13Z</time>
      </trkpt>
      <trkpt lat="45.51088" lon="4.44845">
        <ele>714.3967285</ele>
        <time>2011-12-04T00:05:21Z</time>
      </trkpt>
      <trkpt lat="45.51101" lon="4.4485">
        <ele>715.3581543</ele>
        <time>2011-12-04T00:05:28Z</time>
      </trkpt>
      <trkpt lat="45.51117" lon="4.44855">
        <ele>717.2810059</ele>
        <time>2011-12-04T00:05:35Z</time>
      </trkpt>
      <trkpt lat="45.51126" lon="4.44858">
        <ele>718.2421875</ele>
        <time>2011-12-04T00:05:40Z</time>
      </trkpt>
      <trkpt lat="45.51134" lon="4.44862">
        <ele>718.7229004</ele>
        <time>2011-12-04T00:05:45Z</time>
      </trkpt>
      <trkpt lat="45.51145" lon="4.44867">
        <ele>719.6843262</ele>
        <time>2011-12-04T00:05:51Z</time>
      </trkpt>
      <trkpt lat="45.51154" lon="4.4487">
        <ele>720.6455078</ele>
        <time>2011-12-04T00:05:56Z</time>
      </trkpt>
      <trkpt lat="45.51165" lon="4.44875">
        <ele>720.1647949</ele>
        <time>2011-12-04T00:06:02Z</time>
      </trkpt>
      <trkpt lat="45.51174" lon="4.44877">
        <ele>719.6843262</ele>
        <time>2011-12-04T00:06:07Z</time>
      </trkpt>
      <trkpt lat="45.51183" lon="4.44879">
        <ele>717.2810059</ele>
        <time>2011-12-04T00:06:12Z</time>
      </trkpt>
      <trkpt lat="45.51196" lon="4.44882">
        <ele>717.2810059</ele>
        <time>2011-12-04T00:06:19Z</time>
      </trkpt>
      <trkpt lat="45.51205" lon="4.44885">
        <ele>718.2421875</ele>
        <time>2011-12-04T00:06:24Z</time>
      </trkpt>
      <trkpt lat="45.51219" lon="4.44889">
        <ele>718.7229004</ele>
        <time>2011-12-04T00:06:31Z</time>
      </trkpt>
      <trkpt lat="45.51231" lon="4.44892">
        <ele>719.6843262</ele>
        <time>2011-12-04T00:06:36Z</time>
      </trkpt>
      <trkpt lat="45.51241" lon="4.44898">
        <ele>719.2036133</ele>
        <time>2011-12-04T00:06:41Z</time>
      </trkpt>
      <trkpt lat="45.51251" lon="4.44903">
        <ele>718.7229004</ele>
        <time>2011-12-04T00:06:46Z</time>
      </trkpt>
      <trkpt lat="45.51257" lon="4.44906">
        <ele>719.6843262</ele>
        <time>2011-12-04T00:06:49Z</time>
      </trkpt>
      <trkpt lat="45.51265" lon="4.44913">
        <ele>720.6455078</ele>
        <time>2011-12-04T00:06:53Z</time>
      </trkpt>
      <trkpt lat="45.51278" lon="4.44924">
        <ele>722.5681152</ele>
        <time>2011-12-04T00:06:59Z</time>
      </trkpt>
      <trkpt lat="45.51284" lon="4.4493">
        <ele>722.0874023</ele>
        <time>2011-12-04T00:07:02Z</time>
      </trkpt>
      <trkpt lat="45.51291" lon="4.44939">
        <ele>721.6066895</ele>
        <time>2011-12-04T00:07:06Z</time>
      </trkpt>
      <trkpt lat="45.51297" lon="4.44949">
        <ele>720.6455078</ele>
        <time>2011-12-04T00:07:11Z</time>
      </trkpt>
      <trkpt lat="45.5131" lon="4.44962">
        <ele>718.2421875</ele>
        <time>2011-12-04T00:07:18Z</time>
      </trkpt>
      <trkpt lat="45.51321" lon="4.44972">
        <ele>716.800293</ele>
        <time>2011-12-04T00:07:23Z</time>
      </trkpt>
      <trkpt lat="45.51327" lon="4.44979">
        <ele>714.8774414</ele>
        <time>2011-12-04T00:07:26Z</time>
      </trkpt>
      <trkpt lat="45.51334" lon="4.4499">
        <ele>712.4741211</ele>
        <time>2011-12-04T00:07:31Z</time>
      </trkpt>
      <trkpt lat="45.51341" lon="4.45003">
        <ele>711.5129395</ele>
        <time>2011-12-04T00:07:36Z</time>
      </trkpt>
      <trkpt lat="45.5135" lon="4.45023">
        <ele>708.6289063</ele>
        <time>2011-12-04T00:07:42Z</time>
      </trkpt>
      <trkpt lat="45.51356" lon="4.45035">
        <ele>709.1096191</ele>
        <time>2011-12-04T00:07:46Z</time>
      </trkpt>
      <trkpt lat="45.51365" lon="4.45055">
        <ele>708.6289063</ele>
        <time>2011-12-04T00:07:52Z</time>
      </trkpt>
      <trkpt lat="45.51372" lon="4.45071">
        <ele>707.6677246</ele>
        <time>2011-12-04T00:07:57Z</time>
      </trkpt>
      <trkpt lat="45.51378" lon="4.45084">
        <ele>706.7062988</ele>
        <time>2011-12-04T00:08:01Z</time>
      </trkpt>
      <trkpt lat="45.51386" lon="4.451">
        <ele>705.7451172</ele>
        <time>2011-12-04T00:08:06Z</time>
      </trkpt>
      <trkpt lat="45.51394" lon="4.45117">
        <ele>703.3417969</ele>
        <time>2011-12-04T00:08:12Z</time>
      </trkpt>
      <trkpt lat="45.51401" lon="4.45128">
        <ele>701.4191895</ele>
        <time>2011-12-04T00:08:17Z</time>
      </trkpt>
      <trkpt lat="45.51413" lon="4.45141">
        <ele>699.4963379</ele>
        <time>2011-12-04T00:08:24Z</time>
      </trkpt>
      <trkpt lat="45.51421" lon="4.45156">
        <ele>696.1318359</ele>
        <time>2011-12-04T00:08:30Z</time>
      </trkpt>
      <trkpt lat="45.51428" lon="4.45168">
        <ele>694.2092285</ele>
        <time>2011-12-04T00:08:35Z</time>
      </trkpt>
      <trkpt lat="45.51438" lon="4.45184">
        <ele>690.3640137</ele>
        <time>2011-12-04T00:08:42Z</time>
      </trkpt>
      <trkpt lat="45.51449" lon="4.45199">
        <ele>687.4799805</ele>
        <time>2011-12-04T00:08:48Z</time>
      </trkpt>
      <trkpt lat="45.5146" lon="4.45218">
        <ele>684.1154785</ele>
        <time>2011-12-04T00:08:55Z</time>
      </trkpt>
      <trkpt lat="45.51469" lon="4.4523">
        <ele>682.192627</ele>
        <time>2011-12-04T00:09:00Z</time>
      </trkpt>
      <trkpt lat="45.5148" lon="4.45245">
        <ele>682.6733398</ele>
        <time>2011-12-04T00:09:06Z</time>
      </trkpt>
      <trkpt lat="45.51488" lon="4.45261">
        <ele>684.1154785</ele>
        <time>2011-12-04T00:09:12Z</time>
      </trkpt>
      <trkpt lat="45.51495" lon="4.45273">
        <ele>683.1538086</ele>
        <time>2011-12-04T00:09:16Z</time>
      </trkpt>
      <trkpt lat="45.51503" lon="4.45287">
        <ele>682.6733398</ele>
        <time>2011-12-04T00:09:21Z</time>
      </trkpt>
      <trkpt lat="45.51505" lon="4.4529">
        <ele>682.6733398</ele>
        <time>2011-12-04T00:09:22Z</time>
      </trkpt>
      <trkpt lat="45.51517" lon="4.45303">
        <ele>682.6733398</ele>
        <time>2011-12-04T00:09:28Z</time>
      </trkpt>
      <trkpt lat="45.51522" lon="4.45306">
        <ele>683.6345215</ele>
        <time>2011-12-04T00:09:30Z</time>
      </trkpt>
      <trkpt lat="45.51535" lon="4.45317">
        <ele>685.0769043</ele>
        <time>2011-12-04T00:09:36Z</time>
      </trkpt>
      <trkpt lat="45.51549" lon="4.4533">
        <ele>685.557373</ele>
        <time>2011-12-04T00:09:44Z</time>
      </trkpt>
      <trkpt lat="45.51559" lon="4.45338">
        <ele>684.1154785</ele>
        <time>2011-12-04T00:09:50Z</time>
      </trkpt>
      <trkpt lat="45.51568" lon="4.45346">
        <ele>685.0769043</ele>
        <time>2011-12-04T00:09:55Z</time>
      </trkpt>
      <trkpt lat="45.51577" lon="4.45354">
        <ele>688.4414063</ele>
        <time>2011-12-04T00:10:01Z</time>
      </trkpt>
      <trkpt lat="45.5159" lon="4.45365">
        <ele>692.2866211</ele>
        <time>2011-12-04T00:10:08Z</time>
      </trkpt>
      <trkpt lat="45.516" lon="4.45372">
        <ele>696.1318359</ele>
        <time>2011-12-04T00:10:14Z</time>
      </trkpt>
      <trkpt lat="45.51612" lon="4.4538">
        <ele>697.0930176</ele>
        <time>2011-12-04T00:10:21Z</time>
      </trkpt>
      <trkpt lat="45.51622" lon="4.4539">
        <ele>699.4963379</ele>
        <time>2011-12-04T00:10:28Z</time>
      </trkpt>
      <trkpt lat="45.51632" lon="4.45401">
        <ele>700.4580078</ele>
        <time>2011-12-04T00:10:35Z</time>
      </trkpt>
      <trkpt lat="45.51641" lon="4.45412">
        <ele>700.9384766</ele>
        <time>2011-12-04T00:10:42Z</time>
      </trkpt>
      <trkpt lat="45.51652" lon="4.45424">
        <ele>701.8999023</ele>
        <time>2011-12-04T00:10:49Z</time>
      </trkpt>
      <trkpt lat="45.51664" lon="4.45438">
        <ele>703.3417969</ele>
        <time>2011-12-04T00:10:56Z</time>
      </trkpt>
      <trkpt lat="45.51676" lon="4.45453">
        <ele>704.7836914</ele>
        <time>2011-12-04T00:11:03Z</time>
      </trkpt>
      <trkpt lat="45.51685" lon="4.45467">
        <ele>704.3032227</ele>
        <time>2011-12-04T00:11:09Z</time>
      </trkpt>
      <trkpt lat="45.51693" lon="4.45482">
        <ele>703.8225098</ele>
        <time>2011-12-04T00:11:15Z</time>
      </trkpt>
      <trkpt lat="45.51698" lon="4.45495">
        <ele>704.3032227</ele>
        <time>2011-12-04T00:11:20Z</time>
      </trkpt>
      <trkpt lat="45.51702" lon="4.45505">
        <ele>705.2644043</ele>
        <time>2011-12-04T00:11:24Z</time>
      </trkpt>
      <trkpt lat="45.51707" lon="4.45519">
        <ele>704.7836914</ele>
        <time>2011-12-04T00:11:29Z</time>
      </trkpt>
      <trkpt lat="45.51711" lon="4.45535">
        <ele>704.7836914</ele>
        <time>2011-12-04T00:11:35Z</time>
      </trkpt>
      <trkpt lat="45.51712" lon="4.4554">
        <ele>705.2644043</ele>
        <time>2011-12-04T00:11:37Z</time>
      </trkpt>
      <trkpt lat="45.51714" lon="4.45555">
        <ele>706.2255859</ele>
        <time>2011-12-04T00:11:43Z</time>
      </trkpt>
      <trkpt lat="45.5172" lon="4.4557">
        <ele>707.1870117</ele>
        <time>2011-12-04T00:11:49Z</time>
      </trkpt>
      <trkpt lat="45.51724" lon="4.45589">
        <ele>709.1096191</ele>
        <time>2011-12-04T00:11:56Z</time>
      </trkpt>
      <trkpt lat="45.51724" lon="4.45591">
        <ele>709.590332</ele>
        <time>2011-12-04T00:11:57Z</time>
      </trkpt>
      <trkpt lat="45.51725" lon="4.45612">
        <ele>710.5515137</ele>
        <time>2011-12-04T00:12:04Z</time>
      </trkpt>
      <trkpt lat="45.51725" lon="4.45615">
        <ele>710.5515137</ele>
        <time>2011-12-04T00:12:05Z</time>
      </trkpt>
      <trkpt lat="45.51728" lon="4.45631">
        <ele>710.5515137</ele>
        <time>2011-12-04T00:12:11Z</time>
      </trkpt>
      <trkpt lat="45.5173" lon="4.45645">
        <ele>710.5515137</ele>
        <time>2011-12-04T00:12:16Z</time>
      </trkpt>
      <trkpt lat="45.5173" lon="4.45648">
        <ele>711.0322266</ele>
        <time>2011-12-04T00:12:17Z</time>
      </trkpt>
      <trkpt lat="45.51731" lon="4.45667">
        <ele>711.5129395</ele>
        <time>2011-12-04T00:12:24Z</time>
      </trkpt>
      <trkpt lat="45.51733" lon="4.45686">
        <ele>711.5129395</ele>
        <time>2011-12-04T00:12:31Z</time>
      </trkpt>
      <trkpt lat="45.51736" lon="4.45703">
        <ele>711.9936523</ele>
        <time>2011-12-04T00:12:37Z</time>
      </trkpt>
      <trkpt lat="45.5174" lon="4.45721">
        <ele>712.4741211</ele>
        <time>2011-12-04T00:12:44Z</time>
      </trkpt>
      <trkpt lat="45.51743" lon="4.45737">
        <ele>714.3967285</ele>
        <time>2011-12-04T00:12:51Z</time>
      </trkpt>
      <trkpt lat="45.51748" lon="4.45755">
        <ele>715.8388672</ele>
        <time>2011-12-04T00:12:59Z</time>
      </trkpt>
      <trkpt lat="45.51754" lon="4.45772">
        <ele>717.2810059</ele>
        <time>2011-12-04T00:13:08Z</time>
      </trkpt>
      <trkpt lat="45.51759" lon="4.45785">
        <ele>719.6843262</ele>
        <time>2011-12-04T00:13:15Z</time>
      </trkpt>
      <trkpt lat="45.51766" lon="4.45798">
        <ele>722.0874023</ele>
        <time>2011-12-04T00:13:23Z</time>
      </trkpt>
      <trkpt lat="45.51773" lon="4.4581">
        <ele>724.4907227</ele>
        <time>2011-12-04T00:13:30Z</time>
      </trkpt>
      <trkpt lat="45.51784" lon="4.45824">
        <ele>725.4519043</ele>
        <time>2011-12-04T00:13:37Z</time>
      </trkpt>
      <trkpt lat="45.51793" lon="4.45834">
        <ele>725.4519043</ele>
        <time>2011-12-04T00:13:43Z</time>
      </trkpt>
      <trkpt lat="45.51799" lon="4.45843">
        <ele>725.4519043</ele>
        <time>2011-12-04T00:13:48Z</time>
      </trkpt>
      <trkpt lat="45.51809" lon="4.45855">
        <ele>725.9326172</ele>
        <time>2011-12-04T00:13:54Z</time>
      </trkpt>
      <trkpt lat="45.51823" lon="4.4587">
        <ele>727.3747559</ele>
        <time>2011-12-04T00:14:01Z</time>
      </trkpt>
      <trkpt lat="45.51825" lon="4.45873">
        <ele>726.894043</ele>
        <time>2011-12-04T00:14:02Z</time>
      </trkpt>
      <trkpt lat="45.51834" lon="4.45885">
        <ele>725.9326172</ele>
        <time>2011-12-04T00:14:07Z</time>
      </trkpt>
      <trkpt lat="45.51839" lon="4.45891">
        <ele>724.9714355</ele>
        <time>2011-12-04T00:14:10Z</time>
      </trkpt>
      <trkpt lat="45.51857" lon="4.45906">
        <ele>723.529541</ele>
        <time>2011-12-04T00:14:18Z</time>
      </trkpt>
      <trkpt lat="45.51867" lon="4.45916">
        <ele>722.5681152</ele>
        <time>2011-12-04T00:14:24Z</time>
      </trkpt>
      <trkpt lat="45.51877" lon="4.45927">
        <ele>721.6066895</ele>
        <time>2011-12-04T00:14:30Z</time>
      </trkpt>
      <trkpt lat="45.51881" lon="4.45931">
        <ele>722.0874023</ele>
        <time>2011-12-04T00:14:32Z</time>
      </trkpt>
      <trkpt lat="45.51895" lon="4.45945">
        <ele>722.5681152</ele>
        <time>2011-12-04T00:14:39Z</time>
      </trkpt>
      <trkpt lat="45.51906" lon="4.45956">
        <ele>721.6066895</ele>
        <time>2011-12-04T00:14:45Z</time>
      </trkpt>
      <trkpt lat="45.51919" lon="4.45965">
        <ele>722.0874023</ele>
        <time>2011-12-04T00:14:51Z</time>
      </trkpt>
      <trkpt lat="45.51936" lon="4.45973">
        <ele>723.529541</ele>
        <time>2011-12-04T00:14:57Z</time>
      </trkpt>
      <trkpt lat="45.51948" lon="4.45979">
        <ele>724.4907227</ele>
        <time>2011-12-04T00:15:02Z</time>
      </trkpt>
      <trkpt lat="45.51962" lon="4.45988">
        <ele>724.4907227</ele>
        <time>2011-12-04T00:15:08Z</time>
      </trkpt>
      <trkpt lat="45.51967" lon="4.46003">
        <ele>722.0874023</ele>
        <time>2011-12-04T00:15:13Z</time>
      </trkpt>
      <trkpt lat="45.51969" lon="4.46021">
        <ele>719.6843262</ele>
        <time>2011-12-04T00:15:19Z</time>
      </trkpt>
      <trkpt lat="45.51972" lon="4.46041">
        <ele>718.2421875</ele>
        <time>2011-12-04T00:15:25Z</time>
      </trkpt>
      <trkpt lat="45.51978" lon="4.46059">
        <ele>717.7614746</ele>
        <time>2011-12-04T00:15:31Z</time>
      </trkpt>
      <trkpt lat="45.51978" lon="4.46063">
        <ele>717.2810059</ele>
        <time>2011-12-04T00:15:32Z</time>
      </trkpt>
      <trkpt lat="45.51982" lon="4.46078">
        <ele>716.800293</ele>
        <time>2011-12-04T00:15:36Z</time>
      </trkpt>
      <trkpt lat="45.51986" lon="4.46087">
        <ele>716.3195801</ele>
        <time>2011-12-04T00:15:39Z</time>
      </trkpt>
      <trkpt lat="45.51988" lon="4.46098">
        <ele>715.3581543</ele>
        <time>2011-12-04T00:15:42Z</time>
      </trkpt>
      <trkpt lat="45.51986" lon="4.46111">
        <ele>713.9160156</ele>
        <time>2011-12-04T00:15:46Z</time>
      </trkpt>
      <trkpt lat="45.51982" lon="4.46136">
        <ele>712.4741211</ele>
        <time>2011-12-04T00:15:53Z</time>
      </trkpt>
      <trkpt lat="45.51978" lon="4.46156">
        <ele>711.0322266</ele>
        <time>2011-12-04T00:15:59Z</time>
      </trkpt>
      <trkpt lat="45.51977" lon="4.46159">
        <ele>710.5515137</ele>
        <time>2011-12-04T00:16:00Z</time>
      </trkpt>
      <trkpt lat="45.51975" lon="4.46171">
        <ele>709.1096191</ele>
        <time>2011-12-04T00:16:04Z</time>
      </trkpt>
      <trkpt lat="45.51973" lon="4.4618">
        <ele>706.7062988</ele>
        <time>2011-12-04T00:16:07Z</time>
      </trkpt>
      <trkpt lat="45.5197" lon="4.46202">
        <ele>707.1870117</ele>
        <time>2011-12-04T00:16:14Z</time>
      </trkpt>
      <trkpt lat="45.51968" lon="4.46223">
        <ele>709.590332</ele>
        <time>2011-12-04T00:16:20Z</time>
      </trkpt>
      <trkpt lat="45.51966" lon="4.46244">
        <ele>711.5129395</ele>
        <time>2011-12-04T00:16:26Z</time>
      </trkpt>
      <trkpt lat="45.51968" lon="4.4627">
        <ele>712.954834</ele>
        <time>2011-12-04T00:16:34Z</time>
      </trkpt>
      <trkpt lat="45.51968" lon="4.46287">
        <ele>713.4355469</ele>
        <time>2011-12-04T00:16:39Z</time>
      </trkpt>
      <trkpt lat="45.5197" lon="4.46306">
        <ele>714.8774414</ele>
        <time>2011-12-04T00:16:45Z</time>
      </trkpt>
      <trkpt lat="45.51969" lon="4.46316">
        <ele>715.3581543</ele>
        <time>2011-12-04T00:16:48Z</time>
      </trkpt>
      <trkpt lat="45.51973" lon="4.46335">
        <ele>714.8774414</ele>
        <time>2011-12-04T00:16:54Z</time>
      </trkpt>
      <trkpt lat="45.51978" lon="4.46351">
        <ele>712.954834</ele>
        <time>2011-12-04T00:16:59Z</time>
      </trkpt>
      <trkpt lat="45.5198" lon="4.46354">
        <ele>712.4741211</ele>
        <time>2011-12-04T00:17:00Z</time>
      </trkpt>
      <trkpt lat="45.51989" lon="4.46366">
        <ele>712.4741211</ele>
        <time>2011-12-04T00:17:05Z</time>
      </trkpt>
      <trkpt lat="45.51993" lon="4.46372">
        <ele>711.9936523</ele>
        <time>2011-12-04T00:17:08Z</time>
      </trkpt>
      <trkpt lat="45.52005" lon="4.46391">
        <ele>712.954834</ele>
        <time>2011-12-04T00:17:15Z</time>
      </trkpt>
      <trkpt lat="45.52013" lon="4.46403">
        <ele>712.954834</ele>
        <time>2011-12-04T00:17:20Z</time>
      </trkpt>
      <trkpt lat="45.52024" lon="4.46421">
        <ele>713.9160156</ele>
        <time>2011-12-04T00:17:26Z</time>
      </trkpt>
      <trkpt lat="45.52031" lon="4.46438">
        <ele>716.800293</ele>
        <time>2011-12-04T00:17:31Z</time>
      </trkpt>
      <trkpt lat="45.5204" lon="4.46452">
        <ele>716.3195801</ele>
        <time>2011-12-04T00:17:36Z</time>
      </trkpt>
      <trkpt lat="45.52049" lon="4.46464">
        <ele>714.8774414</ele>
        <time>2011-12-04T00:17:41Z</time>
      </trkpt>
      <trkpt lat="45.5206" lon="4.46481">
        <ele>714.3967285</ele>
        <time>2011-12-04T00:17:47Z</time>
      </trkpt>
      <trkpt lat="45.52069" lon="4.46493">
        <ele>714.3967285</ele>
        <time>2011-12-04T00:17:52Z</time>
      </trkpt>
      <trkpt lat="45.52081" lon="4.46508">
        <ele>714.8774414</ele>
        <time>2011-12-04T00:17:58Z</time>
      </trkpt>
      <trkpt lat="45.52093" lon="4.4652">
        <ele>716.3195801</ele>
        <time>2011-12-04T00:18:03Z</time>
      </trkpt>
      <trkpt lat="45.52105" lon="4.46534">
        <ele>718.2421875</ele>
        <time>2011-12-04T00:18:09Z</time>
      </trkpt>
      <trkpt lat="45.52118" lon="4.4655">
        <ele>718.7229004</ele>
        <time>2011-12-04T00:18:16Z</time>
      </trkpt>
      <trkpt lat="45.52133" lon="4.4657">
        <ele>718.7229004</ele>
        <time>2011-12-04T00:18:24Z</time>
      </trkpt>
      <trkpt lat="45.52144" lon="4.46588">
        <ele>719.2036133</ele>
        <time>2011-12-04T00:18:31Z</time>
      </trkpt>
      <trkpt lat="45.52155" lon="4.46608">
        <ele>719.6843262</ele>
        <time>2011-12-04T00:18:38Z</time>
      </trkpt>
      <trkpt lat="45.52163" lon="4.46621">
        <ele>720.6455078</ele>
        <time>2011-12-04T00:18:43Z</time>
      </trkpt>
      <trkpt lat="45.52171" lon="4.46635">
        <ele>721.1262207</ele>
        <time>2011-12-04T00:18:48Z</time>
      </trkpt>
      <trkpt lat="45.52177" lon="4.46645">
        <ele>720.6455078</ele>
        <time>2011-12-04T00:18:52Z</time>
      </trkpt>
      <trkpt lat="45.52186" lon="4.46659">
        <ele>721.6066895</ele>
        <time>2011-12-04T00:18:58Z</time>
      </trkpt>
      <trkpt lat="45.52198" lon="4.46674">
        <ele>723.0488281</ele>
        <time>2011-12-04T00:19:04Z</time>
      </trkpt>
      <trkpt lat="45.52204" lon="4.46683">
        <ele>722.5681152</ele>
        <time>2011-12-04T00:19:08Z</time>
      </trkpt>
      <trkpt lat="45.52212" lon="4.46696">
        <ele>722.5681152</ele>
        <time>2011-12-04T00:19:13Z</time>
      </trkpt>
      <trkpt lat="45.52223" lon="4.46716">
        <ele>723.529541</ele>
        <time>2011-12-04T00:19:20Z</time>
      </trkpt>
      <trkpt lat="45.52229" lon="4.46737">
        <ele>723.529541</ele>
        <time>2011-12-04T00:19:26Z</time>
      </trkpt>
      <trkpt lat="45.52232" lon="4.46757">
        <ele>721.6066895</ele>
        <time>2011-12-04T00:19:32Z</time>
      </trkpt>
      <trkpt lat="45.52232" lon="4.46779">
        <ele>720.6455078</ele>
        <time>2011-12-04T00:19:38Z</time>
      </trkpt>
      <trkpt lat="45.52233" lon="4.46794">
        <ele>720.6455078</ele>
        <time>2011-12-04T00:19:42Z</time>
      </trkpt>
      <trkpt lat="45.52232" lon="4.46811">
        <ele>719.6843262</ele>
        <time>2011-12-04T00:19:47Z</time>
      </trkpt>
      <trkpt lat="45.52234" lon="4.46824">
        <ele>718.7229004</ele>
        <time>2011-12-04T00:19:51Z</time>
      </trkpt>
      <trkpt lat="45.5224" lon="4.46846">
        <ele>719.2036133</ele>
        <time>2011-12-04T00:19:57Z</time>
      </trkpt>
      <trkpt lat="45.52244" lon="4.46861">
        <ele>720.6455078</ele>
        <time>2011-12-04T00:20:01Z</time>
      </trkpt>
      <trkpt lat="45.52249" lon="4.46881">
        <ele>720.6455078</ele>
        <time>2011-12-04T00:20:07Z</time>
      </trkpt>
      <trkpt lat="45.52255" lon="4.46899">
        <ele>720.6455078</ele>
        <time>2011-12-04T00:20:12Z</time>
      </trkpt>
      <trkpt lat="45.52259" lon="4.4692">
        <ele>722.0874023</ele>
        <time>2011-12-04T00:20:18Z</time>
      </trkpt>
      <trkpt lat="45.5226" lon="4.46926">
        <ele>722.0874023</ele>
        <time>2011-12-04T00:20:20Z</time>
      </trkpt>
      <trkpt lat="45.52265" lon="4.46943">
        <ele>723.529541</ele>
        <time>2011-12-04T00:20:25Z</time>
      </trkpt>
      <trkpt lat="45.52273" lon="4.46973">
        <ele>725.4519043</ele>
        <time>2011-12-04T00:20:34Z</time>
      </trkpt>
      <trkpt lat="45.52278" lon="4.46989">
        <ele>726.4133301</ele>
        <time>2011-12-04T00:20:39Z</time>
      </trkpt>
      <trkpt lat="45.52283" lon="4.47003">
        <ele>726.894043</ele>
        <time>2011-12-04T00:20:44Z</time>
      </trkpt>
      <trkpt lat="45.52288" lon="4.47019">
        <ele>726.4133301</ele>
        <time>2011-12-04T00:20:50Z</time>
      </trkpt>
      <trkpt lat="45.52291" lon="4.47035">
        <ele>727.3747559</ele>
        <time>2011-12-04T00:20:57Z</time>
      </trkpt>
      <trkpt lat="45.52295" lon="4.47051">
        <ele>728.8166504</ele>
        <time>2011-12-04T00:21:03Z</time>
      </trkpt>
      <trkpt lat="45.52297" lon="4.47056">
        <ele>728.8166504</ele>
        <time>2011-12-04T00:21:05Z</time>
      </trkpt>
      <trkpt lat="45.523" lon="4.47064">
        <ele>730.7392578</ele>
        <time>2011-12-04T00:21:09Z</time>
      </trkpt>
      <trkpt lat="45.52303" lon="4.47082">
        <ele>733.1425781</ele>
        <time>2011-12-04T00:21:18Z</time>
      </trkpt>
      <trkpt lat="45.52308" lon="4.47099">
        <ele>731.7004395</ele>
        <time>2011-12-04T00:21:26Z</time>
      </trkpt>
      <trkpt lat="45.52311" lon="4.47114">
        <ele>731.7004395</ele>
        <time>2011-12-04T00:21:32Z</time>
      </trkpt>
      <trkpt lat="45.52315" lon="4.4713">
        <ele>732.1813965</ele>
        <time>2011-12-04T00:21:38Z</time>
      </trkpt>
      <trkpt lat="45.52319" lon="4.47145">
        <ele>733.623291</ele>
        <time>2011-12-04T00:21:45Z</time>
      </trkpt>
      <trkpt lat="45.52321" lon="4.47158">
        <ele>734.1040039</ele>
        <time>2011-12-04T00:21:52Z</time>
      </trkpt>
      <trkpt lat="45.52326" lon="4.47176">
        <ele>732.6621094</ele>
        <time>2011-12-04T00:22:02Z</time>
      </trkpt>
      <trkpt lat="45.52329" lon="4.47193">
        <ele>732.1813965</ele>
        <time>2011-12-04T00:22:11Z</time>
      </trkpt>
      <trkpt lat="45.52331" lon="4.4721">
        <ele>731.7004395</ele>
        <time>2011-12-04T00:22:19Z</time>
      </trkpt>
      <trkpt lat="45.52335" lon="4.47235">
        <ele>732.6621094</ele>
        <time>2011-12-04T00:22:30Z</time>
      </trkpt>
      <trkpt lat="45.52337" lon="4.47251">
        <ele>734.1040039</ele>
        <time>2011-12-04T00:22:36Z</time>
      </trkpt>
      <trkpt lat="45.52341" lon="4.47269">
        <ele>737.4685059</ele>
        <time>2011-12-04T00:22:42Z</time>
      </trkpt>
      <trkpt lat="45.52347" lon="4.47283">
        <ele>737.9492188</ele>
        <time>2011-12-04T00:22:47Z</time>
      </trkpt>
      <trkpt lat="45.52353" lon="4.47297">
        <ele>738.4299316</ele>
        <time>2011-12-04T00:22:52Z</time>
      </trkpt>
      <trkpt lat="45.52361" lon="4.47309">
        <ele>737.9492188</ele>
        <time>2011-12-04T00:22:57Z</time>
      </trkpt>
      <trkpt lat="45.52368" lon="4.47323">
        <ele>739.3911133</ele>
        <time>2011-12-04T00:23:02Z</time>
      </trkpt>
      <trkpt lat="45.52378" lon="4.47343">
        <ele>740.8330078</ele>
        <time>2011-12-04T00:23:09Z</time>
      </trkpt>
      <trkpt lat="45.52387" lon="4.47362">
        <ele>742.2751465</ele>
        <time>2011-12-04T00:23:16Z</time>
      </trkpt>
      <trkpt lat="45.52391" lon="4.4737">
        <ele>742.7558594</ele>
        <time>2011-12-04T00:23:19Z</time>
      </trkpt>
      <trkpt lat="45.52396" lon="4.47384">
        <ele>743.717041</ele>
        <time>2011-12-04T00:23:25Z</time>
      </trkpt>
      <trkpt lat="45.52398" lon="4.47389">
        <ele>744.1977539</ele>
        <time>2011-12-04T00:23:27Z</time>
      </trkpt>
      <trkpt lat="45.52403" lon="4.47405">
        <ele>744.1977539</ele>
        <time>2011-12-04T00:23:33Z</time>
      </trkpt>
      <trkpt lat="45.52406" lon="4.47419">
        <ele>742.7558594</ele>
        <time>2011-12-04T00:23:38Z</time>
      </trkpt>
      <trkpt lat="45.52404" lon="4.47437">
        <ele>743.717041</ele>
        <time>2011-12-04T00:23:43Z</time>
      </trkpt>
      <trkpt lat="45.52399" lon="4.47455">
        <ele>744.6782227</ele>
        <time>2011-12-04T00:23:48Z</time>
      </trkpt>
      <trkpt lat="45.52395" lon="4.47473">
        <ele>743.2363281</ele>
        <time>2011-12-04T00:23:53Z</time>
      </trkpt>
      <trkpt lat="45.52393" lon="4.47495">
        <ele>740.8330078</ele>
        <time>2011-12-04T00:23:59Z</time>
      </trkpt>
      <trkpt lat="45.5239" lon="4.47513">
        <ele>739.3911133</ele>
        <time>2011-12-04T00:24:04Z</time>
      </trkpt>
      <trkpt lat="45.52389" lon="4.47521">
        <ele>738.9106445</ele>
        <time>2011-12-04T00:24:06Z</time>
      </trkpt>
      <trkpt lat="45.52389" lon="4.47535">
        <ele>736.987793</ele>
        <time>2011-12-04T00:24:10Z</time>
      </trkpt>
      <trkpt lat="45.5239" lon="4.47559">
        <ele>736.0266113</ele>
        <time>2011-12-04T00:24:16Z</time>
      </trkpt>
      <trkpt lat="45.52393" lon="4.47582">
        <ele>733.1425781</ele>
        <time>2011-12-04T00:24:22Z</time>
      </trkpt>
      <trkpt lat="45.52397" lon="4.47609">
        <ele>731.2199707</ele>
        <time>2011-12-04T00:24:29Z</time>
      </trkpt>
      <trkpt lat="45.52399" lon="4.47631">
        <ele>728.8166504</ele>
        <time>2011-12-04T00:24:35Z</time>
      </trkpt>
      <trkpt lat="45.524" lon="4.47649">
        <ele>728.3359375</ele>
        <time>2011-12-04T00:24:40Z</time>
      </trkpt>
      <trkpt lat="45.52401" lon="4.47664">
        <ele>728.3359375</ele>
        <time>2011-12-04T00:24:44Z</time>
      </trkpt>
      <trkpt lat="45.52399" lon="4.47688">
        <ele>727.3747559</ele>
        <time>2011-12-04T00:24:50Z</time>
      </trkpt>
      <trkpt lat="45.52399" lon="4.47694">
        <ele>726.4133301</ele>
        <time>2011-12-04T00:24:52Z</time>
      </trkpt>
      <trkpt lat="45.52406" lon="4.477">
        <ele>725.9326172</ele>
        <time>2011-12-04T00:24:57Z</time>
      </trkpt>
      <trkpt lat="45.52418" lon="4.47704">
        <ele>726.4133301</ele>
        <time>2011-12-04T00:25:02Z</time>
      </trkpt>
      <trkpt lat="45.52434" lon="4.47706">
        <ele>728.3359375</ele>
        <time>2011-12-04T00:25:07Z</time>
      </trkpt>
      <trkpt lat="45.5245" lon="4.47708">
        <ele>729.777832</ele>
        <time>2011-12-04T00:25:12Z</time>
      </trkpt>
      <trkpt lat="45.52462" lon="4.47712">
        <ele>729.2971191</ele>
        <time>2011-12-04T00:25:17Z</time>
      </trkpt>
      <trkpt lat="45.5248" lon="4.47717">
        <ele>726.4133301</ele>
        <time>2011-12-04T00:25:24Z</time>
      </trkpt>
      <trkpt lat="45.52492" lon="4.4772">
        <ele>725.4519043</ele>
        <time>2011-12-04T00:25:29Z</time>
      </trkpt>
      <trkpt lat="45.52507" lon="4.47725">
        <ele>724.9714355</ele>
        <time>2011-12-04T00:25:35Z</time>
      </trkpt>
      <trkpt lat="45.5252" lon="4.47729">
        <ele>724.4907227</ele>
        <time>2011-12-04T00:25:40Z</time>
      </trkpt>
      <trkpt lat="45.52538" lon="4.47733">
        <ele>723.0488281</ele>
        <time>2011-12-04T00:25:46Z</time>
      </trkpt>
      <trkpt lat="45.52552" lon="4.47737">
        <ele>721.6066895</ele>
        <time>2011-12-04T00:25:50Z</time>
      </trkpt>
      <trkpt lat="45.52565" lon="4.47739">
        <ele>719.2036133</ele>
        <time>2011-12-04T00:25:55Z</time>
      </trkpt>
      <trkpt lat="45.52578" lon="4.4774">
        <ele>717.7614746</ele>
        <time>2011-12-04T00:26:00Z</time>
      </trkpt>
      <trkpt lat="45.52591" lon="4.47743">
        <ele>715.3581543</ele>
        <time>2011-12-04T00:26:05Z</time>
      </trkpt>
      <trkpt lat="45.52604" lon="4.47753">
        <ele>712.4741211</ele>
        <time>2011-12-04T00:26:11Z</time>
      </trkpt>
      <trkpt lat="45.52616" lon="4.47767">
        <ele>710.5515137</ele>
        <time>2011-12-04T00:26:17Z</time>
      </trkpt>
      <trkpt lat="45.52626" lon="4.47781">
        <ele>709.590332</ele>
        <time>2011-12-04T00:26:23Z</time>
      </trkpt>
      <trkpt lat="45.52634" lon="4.47794">
        <ele>709.1096191</ele>
        <time>2011-12-04T00:26:28Z</time>
      </trkpt>
      <trkpt lat="45.52637" lon="4.47799">
        <ele>708.1484375</ele>
        <time>2011-12-04T00:26:30Z</time>
      </trkpt>
      <trkpt lat="45.52647" lon="4.47814">
        <ele>708.1484375</ele>
        <time>2011-12-04T00:26:36Z</time>
      </trkpt>
      <trkpt lat="45.52658" lon="4.47832">
        <ele>705.7451172</ele>
        <time>2011-12-04T00:26:43Z</time>
      </trkpt>
      <trkpt lat="45.52668" lon="4.47845">
        <ele>706.7062988</ele>
        <time>2011-12-04T00:26:48Z</time>
      </trkpt>
      <trkpt lat="45.52679" lon="4.4786">
        <ele>704.7836914</ele>
        <time>2011-12-04T00:26:54Z</time>
      </trkpt>
      <trkpt lat="45.52686" lon="4.47872">
        <ele>702.861084</ele>
        <time>2011-12-04T00:26:59Z</time>
      </trkpt>
      <trkpt lat="45.52694" lon="4.47883">
        <ele>701.8999023</ele>
        <time>2011-12-04T00:27:04Z</time>
      </trkpt>
      <trkpt lat="45.52705" lon="4.47896">
        <ele>701.8999023</ele>
        <time>2011-12-04T00:27:10Z</time>
      </trkpt>
      <trkpt lat="45.52714" lon="4.47907">
        <ele>701.8999023</ele>
        <time>2011-12-04T00:27:15Z</time>
      </trkpt>
      <trkpt lat="45.52723" lon="4.47916">
        <ele>702.3803711</ele>
        <time>2011-12-04T00:27:19Z</time>
      </trkpt>
      <trkpt lat="45.52731" lon="4.47928">
        <ele>700.9384766</ele>
        <time>2011-12-04T00:27:23Z</time>
      </trkpt>
      <trkpt lat="45.52729" lon="4.47947">
        <ele>694.2092285</ele>
        <time>2011-12-04T00:27:29Z</time>
      </trkpt>
      <trkpt lat="45.52723" lon="4.47961">
        <ele>688.4414063</ele>
        <time>2011-12-04T00:27:34Z</time>
      </trkpt>
      <trkpt lat="45.52721" lon="4.47978">
        <ele>684.1154785</ele>
        <time>2011-12-04T00:27:39Z</time>
      </trkpt>
      <trkpt lat="45.52721" lon="4.47981">
        <ele>683.6345215</ele>
        <time>2011-12-04T00:27:40Z</time>
      </trkpt>
      <trkpt lat="45.52724" lon="4.47992">
        <ele>681.7119141</ele>
        <time>2011-12-04T00:27:45Z</time>
      </trkpt>
      <trkpt lat="45.52732" lon="4.48008">
        <ele>683.6345215</ele>
        <time>2011-12-04T00:27:51Z</time>
      </trkpt>
      <trkpt lat="45.52738" lon="4.48023">
        <ele>684.5961914</ele>
        <time>2011-12-04T00:27:56Z</time>
      </trkpt>
      <trkpt lat="45.5274" lon="4.48032">
        <ele>685.557373</ele>
        <time>2011-12-04T00:27:59Z</time>
      </trkpt>
      <trkpt lat="45.52745" lon="4.48055">
        <ele>687.9606934</ele>
        <time>2011-12-04T00:28:07Z</time>
      </trkpt>
      <trkpt lat="45.52748" lon="4.48071">
        <ele>687.4799805</ele>
        <time>2011-12-04T00:28:13Z</time>
      </trkpt>
      <trkpt lat="45.52748" lon="4.48076">
        <ele>687.9606934</ele>
        <time>2011-12-04T00:28:15Z</time>
      </trkpt>
      <trkpt lat="45.52752" lon="4.48095">
        <ele>691.8059082</ele>
        <time>2011-12-04T00:28:22Z</time>
      </trkpt>
      <trkpt lat="45.52761" lon="4.4811">
        <ele>694.2092285</ele>
        <time>2011-12-04T00:28:29Z</time>
      </trkpt>
      <trkpt lat="45.52769" lon="4.48121">
        <ele>696.1318359</ele>
        <time>2011-12-04T00:28:35Z</time>
      </trkpt>
      <trkpt lat="45.52775" lon="4.48129">
        <ele>698.0544434</ele>
        <time>2011-12-04T00:28:41Z</time>
      </trkpt>
      <trkpt lat="45.52781" lon="4.48137">
        <ele>699.015625</ele>
        <time>2011-12-04T00:28:47Z</time>
      </trkpt>
      <trkpt lat="45.52788" lon="4.48145">
        <ele>699.4963379</ele>
        <time>2011-12-04T00:28:54Z</time>
      </trkpt>
      <trkpt lat="45.52794" lon="4.4815">
        <ele>700.4580078</ele>
        <time>2011-12-04T00:29:00Z</time>
      </trkpt>
      <trkpt lat="45.52804" lon="4.4816">
        <ele>702.861084</ele>
        <time>2011-12-04T00:29:09Z</time>
      </trkpt>
      <trkpt lat="45.52811" lon="4.48168">
        <ele>703.3417969</ele>
        <time>2011-12-04T00:29:16Z</time>
      </trkpt>
      <trkpt lat="45.52816" lon="4.48172">
        <ele>703.8225098</ele>
        <time>2011-12-04T00:29:20Z</time>
      </trkpt>
      <trkpt lat="45.52822" lon="4.48168">
        <ele>703.8225098</ele>
        <time>2011-12-04T00:29:25Z</time>
      </trkpt>
      <trkpt lat="45.52828" lon="4.48154">
        <ele>702.861084</ele>
        <time>2011-12-04T00:29:31Z</time>
      </trkpt>
      <trkpt lat="45.52835" lon="4.48142">
        <ele>703.3417969</ele>
        <time>2011-12-04T00:29:36Z</time>
      </trkpt>
      <trkpt lat="45.52842" lon="4.48129">
        <ele>705.2644043</ele>
        <time>2011-12-04T00:29:42Z</time>
      </trkpt>
      <trkpt lat="45.52849" lon="4.48117">
        <ele>704.7836914</ele>
        <time>2011-12-04T00:29:48Z</time>
      </trkpt>
      <trkpt lat="45.52857" lon="4.48102">
        <ele>705.2644043</ele>
        <time>2011-12-04T00:29:56Z</time>
      </trkpt>
      <trkpt lat="45.52863" lon="4.48092">
        <ele>706.2255859</ele>
        <time>2011-12-04T00:30:03Z</time>
      </trkpt>
      <trkpt lat="45.52865" lon="4.48091">
        <ele>705.7451172</ele>
        <time>2011-12-04T00:30:04Z</time>
      </trkpt>
      <trkpt lat="45.52871" lon="4.48094">
        <ele>708.1484375</ele>
        <time>2011-12-04T00:30:10Z</time>
      </trkpt>
      <trkpt lat="45.52871" lon="4.48096">
        <ele>708.1484375</ele>
        <time>2011-12-04T00:30:11Z</time>
      </trkpt>
      <trkpt lat="45.52876" lon="4.48115">
        <ele>711.9936523</ele>
        <time>2011-12-04T00:30:21Z</time>
      </trkpt>
      <trkpt lat="45.52877" lon="4.4812">
        <ele>712.954834</ele>
        <time>2011-12-04T00:30:24Z</time>
      </trkpt>
      <trkpt lat="45.52881" lon="4.48128">
        <ele>714.8774414</ele>
        <time>2011-12-04T00:30:31Z</time>
      </trkpt>
      <trkpt lat="45.52884" lon="4.48133">
        <ele>715.8388672</ele>
        <time>2011-12-04T00:30:34Z</time>
      </trkpt>
      <trkpt lat="45.52889" lon="4.48143">
        <ele>717.7614746</ele>
        <time>2011-12-04T00:30:41Z</time>
      </trkpt>
      <trkpt lat="45.52892" lon="4.48146">
        <ele>717.2810059</ele>
        <time>2011-12-04T00:30:44Z</time>
      </trkpt>
      <trkpt lat="45.52899" lon="4.48157">
        <ele>717.2810059</ele>
        <time>2011-12-04T00:30:52Z</time>
      </trkpt>
      <trkpt lat="45.52905" lon="4.48169">
        <ele>717.2810059</ele>
        <time>2011-12-04T00:31:00Z</time>
      </trkpt>
      <trkpt lat="45.5291" lon="4.4818">
        <ele>717.7614746</ele>
        <time>2011-12-04T00:31:07Z</time>
      </trkpt>
      <trkpt lat="45.52916" lon="4.48194">
        <ele>719.6843262</ele>
        <time>2011-12-04T00:31:15Z</time>
      </trkpt>
      <trkpt lat="45.52923" lon="4.4821">
        <ele>719.2036133</ele>
        <time>2011-12-04T00:31:26Z</time>
      </trkpt>
      <trkpt lat="45.52928" lon="4.48225">
        <ele>720.6455078</ele>
        <time>2011-12-04T00:31:35Z</time>
      </trkpt>
      <trkpt lat="45.52933" lon="4.4824">
        <ele>723.529541</ele>
        <time>2011-12-04T00:31:44Z</time>
      </trkpt>
      <trkpt lat="45.52935" lon="4.48252">
        <ele>725.4519043</ele>
        <time>2011-12-04T00:31:51Z</time>
      </trkpt>
      <trkpt lat="45.5294" lon="4.48268">
        <ele>726.894043</ele>
        <time>2011-12-04T00:32:01Z</time>
      </trkpt>
      <trkpt lat="45.52945" lon="4.48282">
        <ele>726.894043</ele>
        <time>2011-12-04T00:32:09Z</time>
      </trkpt>
      <trkpt lat="45.52949" lon="4.48293">
        <ele>726.894043</ele>
        <time>2011-12-04T00:32:16Z</time>
      </trkpt>
      <trkpt lat="45.52954" lon="4.4831">
        <ele>729.2971191</ele>
        <time>2011-12-04T00:32:25Z</time>
      </trkpt>
      <trkpt lat="45.5296" lon="4.48326">
        <ele>731.2199707</ele>
        <time>2011-12-04T00:32:34Z</time>
      </trkpt>
      <trkpt lat="45.52965" lon="4.48336">
        <ele>730.7392578</ele>
        <time>2011-12-04T00:32:41Z</time>
      </trkpt>
      <trkpt lat="45.5297" lon="4.48347">
        <ele>733.623291</ele>
        <time>2011-12-04T00:32:48Z</time>
      </trkpt>
      <trkpt lat="45.52976" lon="4.48358">
        <ele>735.0654297</ele>
        <time>2011-12-04T00:32:55Z</time>
      </trkpt>
      <trkpt lat="45.52984" lon="4.48372">
        <ele>737.9492188</ele>
        <time>2011-12-04T00:33:04Z</time>
      </trkpt>
      <trkpt lat="45.52989" lon="4.48382">
        <ele>738.4299316</ele>
        <time>2011-12-04T00:33:10Z</time>
      </trkpt>
      <trkpt lat="45.52994" lon="4.48393">
        <ele>738.4299316</ele>
        <time>2011-12-04T00:33:17Z</time>
      </trkpt>
      <trkpt lat="45.52999" lon="4.48404">
        <ele>739.8718262</ele>
        <time>2011-12-04T00:33:24Z</time>
      </trkpt>
      <trkpt lat="45.53005" lon="4.48417">
        <ele>742.2751465</ele>
        <time>2011-12-04T00:33:32Z</time>
      </trkpt>
      <trkpt lat="45.53013" lon="4.48428">
        <ele>743.2363281</ele>
        <time>2011-12-04T00:33:40Z</time>
      </trkpt>
      <trkpt lat="45.53019" lon="4.48437">
        <ele>745.1589355</ele>
        <time>2011-12-04T00:33:47Z</time>
      </trkpt>
      <trkpt lat="45.53028" lon="4.48449">
        <ele>747.5622559</ele>
        <time>2011-12-04T00:33:56Z</time>
      </trkpt>
      <trkpt lat="45.53034" lon="4.48457">
        <ele>749.4851074</ele>
        <time>2011-12-04T00:34:03Z</time>
      </trkpt>
      <trkpt lat="45.53041" lon="4.48464">
        <ele>749.9658203</ele>
        <time>2011-12-04T00:34:09Z</time>
      </trkpt>
      <trkpt lat="45.53051" lon="4.48474">
        <ele>750.4465332</ele>
        <time>2011-12-04T00:34:17Z</time>
      </trkpt>
      <trkpt lat="45.53062" lon="4.48481">
        <ele>751.4077148</ele>
        <time>2011-12-04T00:34:25Z</time>
      </trkpt>
      <trkpt lat="45.53072" lon="4.48487">
        <ele>750.4465332</ele>
        <time>2011-12-04T00:34:32Z</time>
      </trkpt>
      <trkpt lat="45.53085" lon="4.48496">
        <ele>750.4465332</ele>
        <time>2011-12-04T00:34:39Z</time>
      </trkpt>
      <trkpt lat="45.53098" lon="4.48502">
        <ele>750.927002</ele>
        <time>2011-12-04T00:34:45Z</time>
      </trkpt>
      <trkpt lat="45.53107" lon="4.48508">
        <ele>751.8884277</ele>
        <time>2011-12-04T00:34:50Z</time>
      </trkpt>
      <trkpt lat="45.53117" lon="4.48512">
        <ele>753.3303223</ele>
        <time>2011-12-04T00:34:55Z</time>
      </trkpt>
      <trkpt lat="45.53127" lon="4.48518">
        <ele>752.8496094</ele>
        <time>2011-12-04T00:35:01Z</time>
      </trkpt>
      <trkpt lat="45.53139" lon="4.48525">
        <ele>755.7336426</ele>
        <time>2011-12-04T00:35:07Z</time>
      </trkpt>
      <trkpt lat="45.5315" lon="4.48532">
        <ele>756.6948242</ele>
        <time>2011-12-04T00:35:13Z</time>
      </trkpt>
      <trkpt lat="45.53161" lon="4.48538">
        <ele>759.0981445</ele>
        <time>2011-12-04T00:35:19Z</time>
      </trkpt>
      <trkpt lat="45.53172" lon="4.48543">
        <ele>760.5400391</ele>
        <time>2011-12-04T00:35:25Z</time>
      </trkpt>
      <trkpt lat="45.5318" lon="4.48548">
        <ele>761.020752</ele>
        <time>2011-12-04T00:35:30Z</time>
      </trkpt>
      <trkpt lat="45.53188" lon="4.48551">
        <ele>763.4240723</ele>
        <time>2011-12-04T00:35:35Z</time>
      </trkpt>
      <trkpt lat="45.53198" lon="4.48554">
        <ele>764.8662109</ele>
        <time>2011-12-04T00:35:41Z</time>
      </trkpt>
      <trkpt lat="45.5321" lon="4.48561">
        <ele>765.3469238</ele>
        <time>2011-12-04T00:35:48Z</time>
      </trkpt>
      <trkpt lat="45.53224" lon="4.48568">
        <ele>765.8276367</ele>
        <time>2011-12-04T00:35:56Z</time>
      </trkpt>
      <trkpt lat="45.53235" lon="4.48573">
        <ele>766.3081055</ele>
        <time>2011-12-04T00:36:02Z</time>
      </trkpt>
      <trkpt lat="45.53246" lon="4.48577">
        <ele>767.75</ele>
        <time>2011-12-04T00:36:08Z</time>
      </trkpt>
      <trkpt lat="45.53258" lon="4.48579">
        <ele>769.1921387</ele>
        <time>2011-12-04T00:36:13Z</time>
      </trkpt>
      <trkpt lat="45.53273" lon="4.48582">
        <ele>769.6728516</ele>
        <time>2011-12-04T00:36:20Z</time>
      </trkpt>
      <trkpt lat="45.53285" lon="4.48584">
        <ele>768.2307129</ele>
        <time>2011-12-04T00:36:26Z</time>
      </trkpt>
      <trkpt lat="45.53296" lon="4.48578">
        <ele>766.3081055</ele>
        <time>2011-12-04T00:36:31Z</time>
      </trkpt>
      <trkpt lat="45.53307" lon="4.48575">
        <ele>764.8662109</ele>
        <time>2011-12-04T00:36:37Z</time>
      </trkpt>
      <trkpt lat="45.53317" lon="4.48577">
        <ele>764.385498</ele>
        <time>2011-12-04T00:36:42Z</time>
      </trkpt>
      <trkpt lat="45.53331" lon="4.48582">
        <ele>764.385498</ele>
        <time>2011-12-04T00:36:48Z</time>
      </trkpt>
      <trkpt lat="45.53342" lon="4.48586">
        <ele>763.4240723</ele>
        <time>2011-12-04T00:36:53Z</time>
      </trkpt>
      <trkpt lat="45.53359" lon="4.48592">
        <ele>764.385498</ele>
        <time>2011-12-04T00:36:58Z</time>
      </trkpt>
      <trkpt lat="45.53373" lon="4.48597">
        <ele>765.3469238</ele>
        <time>2011-12-04T00:37:03Z</time>
      </trkpt>
      <trkpt lat="45.53383" lon="4.48604">
        <ele>765.3469238</ele>
        <time>2011-12-04T00:37:07Z</time>
      </trkpt>
      <trkpt lat="45.53393" lon="4.48608">
        <ele>767.2695313</ele>
        <time>2011-12-04T00:37:11Z</time>
      </trkpt>
      <trkpt lat="45.5341" lon="4.4861">
        <ele>766.3081055</ele>
        <time>2011-12-04T00:37:17Z</time>
      </trkpt>
      <trkpt lat="45.53422" lon="4.48612">
        <ele>764.8662109</ele>
        <time>2011-12-04T00:37:21Z</time>
      </trkpt>
      <trkpt lat="45.53436" lon="4.48616">
        <ele>762.4626465</ele>
        <time>2011-12-04T00:37:27Z</time>
      </trkpt>
      <trkpt lat="45.53438" lon="4.48616">
        <ele>762.4626465</ele>
        <time>2011-12-04T00:37:28Z</time>
      </trkpt>
      <trkpt lat="45.53448" lon="4.48611">
        <ele>762.4626465</ele>
        <time>2011-12-04T00:37:34Z</time>
      </trkpt>
      <trkpt lat="45.5345" lon="4.4861">
        <ele>761.9821777</ele>
        <time>2011-12-04T00:37:35Z</time>
      </trkpt>
      <trkpt lat="45.53461" lon="4.48607">
        <ele>758.1369629</ele>
        <time>2011-12-04T00:37:40Z</time>
      </trkpt>
      <trkpt lat="45.53475" lon="4.4861">
        <ele>756.2141113</ele>
        <time>2011-12-04T00:37:46Z</time>
      </trkpt>
      <trkpt lat="45.53488" lon="4.48615">
        <ele>756.6948242</ele>
        <time>2011-12-04T00:37:51Z</time>
      </trkpt>
      <trkpt lat="45.53501" lon="4.48627">
        <ele>753.8110352</ele>
        <time>2011-12-04T00:37:57Z</time>
      </trkpt>
      <trkpt lat="45.53513" lon="4.48637">
        <ele>751.4077148</ele>
        <time>2011-12-04T00:38:03Z</time>
      </trkpt>
      <trkpt lat="45.53528" lon="4.48644">
        <ele>750.927002</ele>
        <time>2011-12-04T00:38:09Z</time>
      </trkpt>
      <trkpt lat="45.5354" lon="4.48651">
        <ele>747.5622559</ele>
        <time>2011-12-04T00:38:14Z</time>
      </trkpt>
      <trkpt lat="45.53555" lon="4.48659">
        <ele>745.6396484</ele>
        <time>2011-12-04T00:38:20Z</time>
      </trkpt>
      <trkpt lat="45.53565" lon="4.4866">
        <ele>746.1203613</ele>
        <time>2011-12-04T00:38:24Z</time>
      </trkpt>
      <trkpt lat="45.53578" lon="4.48664">
        <ele>745.1589355</ele>
        <time>2011-12-04T00:38:29Z</time>
      </trkpt>
      <trkpt lat="45.53589" lon="4.48664">
        <ele>746.1203613</ele>
        <time>2011-12-04T00:38:33Z</time>
      </trkpt>
      <trkpt lat="45.53607" lon="4.48663">
        <ele>744.6782227</ele>
        <time>2011-12-04T00:38:38Z</time>
      </trkpt>
      <trkpt lat="45.53628" lon="4.48665">
        <ele>742.7558594</ele>
        <time>2011-12-04T00:38:44Z</time>
      </trkpt>
      <trkpt lat="45.53646" lon="4.48665">
        <ele>741.3137207</ele>
        <time>2011-12-04T00:38:50Z</time>
      </trkpt>
      <trkpt lat="45.53659" lon="4.48665">
        <ele>737.9492188</ele>
        <time>2011-12-04T00:38:55Z</time>
      </trkpt>
      <trkpt lat="45.53672" lon="4.48664">
        <ele>737.9492188</ele>
        <time>2011-12-04T00:38:59Z</time>
      </trkpt>
      <trkpt lat="45.53681" lon="4.48662">
        <ele>737.4685059</ele>
        <time>2011-12-04T00:39:03Z</time>
      </trkpt>
      <trkpt lat="45.53696" lon="4.48661">
        <ele>735.5458984</ele>
        <time>2011-12-04T00:39:09Z</time>
      </trkpt>
      <trkpt lat="45.5371" lon="4.48662">
        <ele>733.1425781</ele>
        <time>2011-12-04T00:39:14Z</time>
      </trkpt>
      <trkpt lat="45.53726" lon="4.48668">
        <ele>732.6621094</ele>
        <time>2011-12-04T00:39:20Z</time>
      </trkpt>
      <trkpt lat="45.53741" lon="4.48677">
        <ele>731.7004395</ele>
        <time>2011-12-04T00:39:26Z</time>
      </trkpt>
      <trkpt lat="45.53756" lon="4.48687">
        <ele>729.2971191</ele>
        <time>2011-12-04T00:39:32Z</time>
      </trkpt>
      <trkpt lat="45.53772" lon="4.48691">
        <ele>729.2971191</ele>
        <time>2011-12-04T00:39:38Z</time>
      </trkpt>
      <trkpt lat="45.53786" lon="4.48689">
        <ele>729.2971191</ele>
        <time>2011-12-04T00:39:43Z</time>
      </trkpt>
      <trkpt lat="45.53796" lon="4.48686">
        <ele>728.8166504</ele>
        <time>2011-12-04T00:39:47Z</time>
      </trkpt>
      <trkpt lat="45.53811" lon="4.4868">
        <ele>726.894043</ele>
        <time>2011-12-04T00:39:53Z</time>
      </trkpt>
      <trkpt lat="45.53826" lon="4.48676">
        <ele>725.4519043</ele>
        <time>2011-12-04T00:39:59Z</time>
      </trkpt>
      <trkpt lat="45.53842" lon="4.48673">
        <ele>724.0100098</ele>
        <time>2011-12-04T00:40:05Z</time>
      </trkpt>
      <trkpt lat="45.53858" lon="4.48672">
        <ele>722.0874023</ele>
        <time>2011-12-04T00:40:11Z</time>
      </trkpt>
      <trkpt lat="45.53875" lon="4.48674">
        <ele>721.1262207</ele>
        <time>2011-12-04T00:40:17Z</time>
      </trkpt>
      <trkpt lat="45.53892" lon="4.48681">
        <ele>722.5681152</ele>
        <time>2011-12-04T00:40:23Z</time>
      </trkpt>
      <trkpt lat="45.53905" lon="4.48686">
        <ele>721.6066895</ele>
        <time>2011-12-04T00:40:28Z</time>
      </trkpt>
      <trkpt lat="45.53916" lon="4.48694">
        <ele>723.529541</ele>
        <time>2011-12-04T00:40:33Z</time>
      </trkpt>
      <trkpt lat="45.53926" lon="4.48699">
        <ele>726.4133301</ele>
        <time>2011-12-04T00:40:38Z</time>
      </trkpt>
      <trkpt lat="45.53941" lon="4.48706">
        <ele>729.777832</ele>
        <time>2011-12-04T00:40:44Z</time>
      </trkpt>
      <trkpt lat="45.53958" lon="4.48712">
        <ele>732.1813965</ele>
        <time>2011-12-04T00:40:50Z</time>
      </trkpt>
      <trkpt lat="45.53968" lon="4.4872">
        <ele>734.5847168</ele>
        <time>2011-12-04T00:40:55Z</time>
      </trkpt>
      <trkpt lat="45.53977" lon="4.48728">
        <ele>737.9492188</ele>
        <time>2011-12-04T00:41:00Z</time>
      </trkpt>
      <trkpt lat="45.53989" lon="4.4874">
        <ele>741.3137207</ele>
        <time>2011-12-04T00:41:06Z</time>
      </trkpt>
      <trkpt lat="45.54" lon="4.48752">
        <ele>742.7558594</ele>
        <time>2011-12-04T00:41:12Z</time>
      </trkpt>
      <trkpt lat="45.54011" lon="4.48764">
        <ele>744.1977539</ele>
        <time>2011-12-04T00:41:18Z</time>
      </trkpt>
      <trkpt lat="45.54022" lon="4.48779">
        <ele>743.2363281</ele>
        <time>2011-12-04T00:41:25Z</time>
      </trkpt>
      <trkpt lat="45.54029" lon="4.48789">
        <ele>746.6010742</ele>
        <time>2011-12-04T00:41:29Z</time>
      </trkpt>
      <trkpt lat="45.54038" lon="4.488">
        <ele>746.1203613</ele>
        <time>2011-12-04T00:41:34Z</time>
      </trkpt>
      <trkpt lat="45.54041" lon="4.48804">
        <ele>746.6010742</ele>
        <time>2011-12-04T00:41:36Z</time>
      </trkpt>
      <trkpt lat="45.54052" lon="4.48817">
        <ele>746.1203613</ele>
        <time>2011-12-04T00:41:42Z</time>
      </trkpt>
      <trkpt lat="45.54055" lon="4.48825">
        <ele>745.1589355</ele>
        <time>2011-12-04T00:41:45Z</time>
      </trkpt>
      <trkpt lat="45.54062" lon="4.48841">
        <ele>747.5622559</ele>
        <time>2011-12-04T00:41:51Z</time>
      </trkpt>
      <trkpt lat="45.54067" lon="4.48856">
        <ele>748.0432129</ele>
        <time>2011-12-04T00:41:57Z</time>
      </trkpt>
      <trkpt lat="45.54071" lon="4.48866">
        <ele>746.1203613</ele>
        <time>2011-12-04T00:42:02Z</time>
      </trkpt>
      <trkpt lat="45.54079" lon="4.48878">
        <ele>744.1977539</ele>
        <time>2011-12-04T00:42:08Z</time>
      </trkpt>
      <trkpt lat="45.54088" lon="4.48891">
        <ele>741.7944336</ele>
        <time>2011-12-04T00:42:14Z</time>
      </trkpt>
      <trkpt lat="45.54091" lon="4.48895">
        <ele>741.3137207</ele>
        <time>2011-12-04T00:42:16Z</time>
      </trkpt>
      <trkpt lat="45.54098" lon="4.48889">
        <ele>739.3911133</ele>
        <time>2011-12-04T00:42:21Z</time>
      </trkpt>
      <trkpt lat="45.54103" lon="4.48883">
        <ele>739.8718262</ele>
        <time>2011-12-04T00:42:24Z</time>
      </trkpt>
      <trkpt lat="45.54116" lon="4.48875">
        <ele>742.2751465</ele>
        <time>2011-12-04T00:42:30Z</time>
      </trkpt>
      <trkpt lat="45.5412" lon="4.48877">
        <ele>741.7944336</ele>
        <time>2011-12-04T00:42:33Z</time>
      </trkpt>
      <trkpt lat="45.54125" lon="4.48876">
        <ele>741.3137207</ele>
        <time>2011-12-04T00:42:39Z</time>
      </trkpt>
      <trkpt lat="45.54127" lon="4.48878">
        <ele>741.7944336</ele>
        <time>2011-12-04T00:42:40Z</time>
      </trkpt>
      <trkpt lat="45.54133" lon="4.48889">
        <ele>743.717041</ele>
        <time>2011-12-04T00:42:47Z</time>
      </trkpt>
      <trkpt lat="45.54144" lon="4.48904">
        <ele>746.1203613</ele>
        <time>2011-12-04T00:42:54Z</time>
      </trkpt>
      <trkpt lat="45.54149" lon="4.48914">
        <ele>747.5622559</ele>
        <time>2011-12-04T00:42:58Z</time>
      </trkpt>
      <trkpt lat="45.54158" lon="4.48931">
        <ele>750.4465332</ele>
        <time>2011-12-04T00:43:04Z</time>
      </trkpt>
      <trkpt lat="45.54164" lon="4.48943">
        <ele>751.8884277</ele>
        <time>2011-12-04T00:43:08Z</time>
      </trkpt>
      <trkpt lat="45.54168" lon="4.48956">
        <ele>752.3688965</ele>
        <time>2011-12-04T00:43:12Z</time>
      </trkpt>
      <trkpt lat="45.54169" lon="4.48963">
        <ele>751.8884277</ele>
        <time>2011-12-04T00:43:14Z</time>
      </trkpt>
      <trkpt lat="45.54174" lon="4.48982">
        <ele>752.3688965</ele>
        <time>2011-12-04T00:43:20Z</time>
      </trkpt>
      <trkpt lat="45.54176" lon="4.49005">
        <ele>748.5236816</ele>
        <time>2011-12-04T00:43:26Z</time>
      </trkpt>
      <trkpt lat="45.54177" lon="4.49025">
        <ele>744.1977539</ele>
        <time>2011-12-04T00:43:32Z</time>
      </trkpt>
      <trkpt lat="45.54177" lon="4.49044">
        <ele>744.1977539</ele>
        <time>2011-12-04T00:43:38Z</time>
      </trkpt>
      <trkpt lat="45.54177" lon="4.49063">
        <ele>742.2751465</ele>
        <time>2011-12-04T00:43:44Z</time>
      </trkpt>
      <trkpt lat="45.54178" lon="4.49081">
        <ele>742.2751465</ele>
        <time>2011-12-04T00:43:49Z</time>
      </trkpt>
      <trkpt lat="45.54179" lon="4.49082">
        <ele>742.2751465</ele>
        <time>2011-12-04T00:43:50Z</time>
      </trkpt>
      <trkpt lat="45.54185" lon="4.49089">
        <ele>746.6010742</ele>
        <time>2011-12-04T00:43:55Z</time>
      </trkpt>
      <trkpt lat="45.54197" lon="4.49099">
        <ele>750.927002</ele>
        <time>2011-12-04T00:44:01Z</time>
      </trkpt>
      <trkpt lat="45.54207" lon="4.49111">
        <ele>752.3688965</ele>
        <time>2011-12-04T00:44:07Z</time>
      </trkpt>
      <trkpt lat="45.54215" lon="4.4912">
        <ele>755.7336426</ele>
        <time>2011-12-04T00:44:12Z</time>
      </trkpt>
      <trkpt lat="45.54227" lon="4.49129">
        <ele>755.2529297</ele>
        <time>2011-12-04T00:44:18Z</time>
      </trkpt>
      <trkpt lat="45.5424" lon="4.49143">
        <ele>754.7722168</ele>
        <time>2011-12-04T00:44:25Z</time>
      </trkpt>
      <trkpt lat="45.54249" lon="4.49153">
        <ele>754.7722168</ele>
        <time>2011-12-04T00:44:30Z</time>
      </trkpt>
      <trkpt lat="45.54258" lon="4.49164">
        <ele>757.1755371</ele>
        <time>2011-12-04T00:44:35Z</time>
      </trkpt>
      <trkpt lat="45.54267" lon="4.49174">
        <ele>756.2141113</ele>
        <time>2011-12-04T00:44:40Z</time>
      </trkpt>
      <trkpt lat="45.54276" lon="4.49171">
        <ele>754.7722168</ele>
        <time>2011-12-04T00:44:46Z</time>
      </trkpt>
      <trkpt lat="45.54283" lon="4.49158">
        <ele>751.8884277</ele>
        <time>2011-12-04T00:44:52Z</time>
      </trkpt>
      <trkpt lat="45.54291" lon="4.49143">
        <ele>749.4851074</ele>
        <time>2011-12-04T00:44:58Z</time>
      </trkpt>
      <trkpt lat="45.54299" lon="4.4913">
        <ele>750.4465332</ele>
        <time>2011-12-04T00:45:03Z</time>
      </trkpt>
      <trkpt lat="45.54303" lon="4.49122">
        <ele>751.4077148</ele>
        <time>2011-12-04T00:45:06Z</time>
      </trkpt>
      <trkpt lat="45.54312" lon="4.49109">
        <ele>749.4851074</ele>
        <time>2011-12-04T00:45:11Z</time>
      </trkpt>
      <trkpt lat="45.54315" lon="4.49104">
        <ele>750.4465332</ele>
        <time>2011-12-04T00:45:13Z</time>
      </trkpt>
      <trkpt lat="45.54319" lon="4.49099">
        <ele>751.4077148</ele>
        <time>2011-12-04T00:45:16Z</time>
      </trkpt>
      <trkpt lat="45.54318" lon="4.4909">
        <ele>753.8110352</ele>
        <time>2011-12-04T00:45:20Z</time>
      </trkpt>
      <trkpt lat="45.54307" lon="4.49077">
        <ele>754.291748</ele>
        <time>2011-12-04T00:45:26Z</time>
      </trkpt>
      <trkpt lat="45.54302" lon="4.49067">
        <ele>755.7336426</ele>
        <time>2011-12-04T00:45:29Z</time>
      </trkpt>
      <trkpt lat="45.54288" lon="4.49045">
        <ele>758.1369629</ele>
        <time>2011-12-04T00:45:37Z</time>
      </trkpt>
      <trkpt lat="45.54279" lon="4.49031">
        <ele>756.6948242</ele>
        <time>2011-12-04T00:45:43Z</time>
      </trkpt>
      <trkpt lat="45.54271" lon="4.4902">
        <ele>756.6948242</ele>
        <time>2011-12-04T00:45:48Z</time>
      </trkpt>
      <trkpt lat="45.54259" lon="4.49017">
        <ele>756.2141113</ele>
        <time>2011-12-04T00:45:53Z</time>
      </trkpt>
      <trkpt lat="45.54251" lon="4.49008">
        <ele>755.2529297</ele>
        <time>2011-12-04T00:45:57Z</time>
      </trkpt>
      <trkpt lat="45.54242" lon="4.48995">
        <ele>754.7722168</ele>
        <time>2011-12-04T00:46:03Z</time>
      </trkpt>
      <trkpt lat="45.54241" lon="4.48991">
        <ele>754.7722168</ele>
        <time>2011-12-04T00:46:05Z</time>
      </trkpt>
      <trkpt lat="45.54244" lon="4.48986">
        <ele>755.2529297</ele>
        <time>2011-12-04T00:46:13Z</time>
      </trkpt>
      <trkpt lat="45.54245" lon="4.48982">
        <ele>755.7336426</ele>
        <time>2011-12-04T00:46:20Z</time>
      </trkpt>
      <trkpt lat="45.54246" lon="4.48978">
        <ele>755.7336426</ele>
        <time>2011-12-04T00:46:26Z</time>
      </trkpt>
      <trkpt lat="45.54245" lon="4.48974">
        <ele>757.1755371</ele>
        <time>2011-12-04T00:46:32Z</time>
      </trkpt>
      <trkpt lat="45.54246" lon="4.48969">
        <ele>757.1755371</ele>
        <time>2011-12-04T00:46:38Z</time>
      </trkpt>
      <trkpt lat="45.54247" lon="4.48965">
        <ele>757.1755371</ele>
        <time>2011-12-04T00:46:45Z</time>
      </trkpt>
      <trkpt lat="45.54248" lon="4.48954">
        <ele>759.5788574</ele>
        <time>2011-12-04T00:46:52Z</time>
      </trkpt>
      <trkpt lat="45.54248" lon="4.4895">
        <ele>759.0981445</ele>
        <time>2011-12-04T00:46:58Z</time>
      </trkpt>
      <trkpt lat="45.54247" lon="4.48946">
        <ele>760.0593262</ele>
        <time>2011-12-04T00:47:05Z</time>
      </trkpt>
      <trkpt lat="45.54247" lon="4.48945">
        <ele>759.5788574</ele>
        <time>2011-12-04T00:47:11Z</time>
      </trkpt>
      <trkpt lat="45.54245" lon="4.48943">
        <ele>759.5788574</ele>
        <time>2011-12-04T00:47:18Z</time>
      </trkpt>
      <trkpt lat="45.54244" lon="4.48941">
        <ele>758.6174316</ele>
        <time>2011-12-04T00:47:25Z</time>
      </trkpt>
      <trkpt lat="45.54242" lon="4.48937">
        <ele>758.6174316</ele>
        <time>2011-12-04T00:47:30Z</time>
      </trkpt>
      <trkpt lat="45.54243" lon="4.48936">
        <ele>759.5788574</ele>
        <time>2011-12-04T00:47:37Z</time>
      </trkpt>
      <trkpt lat="45.54242" lon="4.48935">
        <ele>760.5400391</ele>
        <time>2011-12-04T00:47:42Z</time>
      </trkpt>
      <trkpt lat="45.54242" lon="4.48935">
        <ele>760.5400391</ele>
        <time>2011-12-04T00:47:49Z</time>
      </trkpt>
      <trkpt lat="45.5424" lon="4.48934">
        <ele>759.5788574</ele>
        <time>2011-12-04T00:47:55Z</time>
      </trkpt>
      <trkpt lat="45.54237" lon="4.48931">
        <ele>758.6174316</ele>
        <time>2011-12-04T00:48:02Z</time>
      </trkpt>
      <trkpt lat="45.54234" lon="4.48927">
        <ele>759.0981445</ele>
        <time>2011-12-04T00:48:10Z</time>
      </trkpt>
      <trkpt lat="45.54232" lon="4.48922">
        <ele>759.0981445</ele>
        <time>2011-12-04T00:48:17Z</time>
      </trkpt>
      <trkpt lat="45.54232" lon="4.48916">
        <ele>758.1369629</ele>
        <time>2011-12-04T00:48:21Z</time>
      </trkpt>
      <trkpt lat="45.54234" lon="4.48909">
        <ele>761.5014648</ele>
        <time>2011-12-04T00:48:25Z</time>
      </trkpt>
      <trkpt lat="45.54239" lon="4.489">
        <ele>762.9433594</ele>
        <time>2011-12-04T00:48:31Z</time>
      </trkpt>
      <trkpt lat="45.54245" lon="4.4889">
        <ele>764.8662109</ele>
        <time>2011-12-04T00:48:38Z</time>
      </trkpt>
      <trkpt lat="45.54252" lon="4.48877">
        <ele>767.75</ele>
        <time>2011-12-04T00:48:47Z</time>
      </trkpt>
      <trkpt lat="45.54259" lon="4.48866">
        <ele>769.6728516</ele>
        <time>2011-12-04T00:48:55Z</time>
      </trkpt>
      <trkpt lat="45.54269" lon="4.48859">
        <ele>770.1533203</ele>
        <time>2011-12-04T00:49:02Z</time>
      </trkpt>
      <trkpt lat="45.54277" lon="4.48846">
        <ele>772.5566406</ele>
        <time>2011-12-04T00:49:11Z</time>
      </trkpt>
      <trkpt lat="45.54285" lon="4.48837">
        <ele>772.5566406</ele>
        <time>2011-12-04T00:49:18Z</time>
      </trkpt>
      <trkpt lat="45.54293" lon="4.48828">
        <ele>773.9985352</ele>
        <time>2011-12-04T00:49:25Z</time>
      </trkpt>
      <trkpt lat="45.54299" lon="4.48821">
        <ele>773.9985352</ele>
        <time>2011-12-04T00:49:31Z</time>
      </trkpt>
      <trkpt lat="45.54305" lon="4.48811">
        <ele>776.4018555</ele>
        <time>2011-12-04T00:49:38Z</time>
      </trkpt>
      <trkpt lat="45.54312" lon="4.48803">
        <ele>777.3632813</ele>
        <time>2011-12-04T00:49:46Z</time>
      </trkpt>
      <trkpt lat="45.54318" lon="4.48795">
        <ele>778.8051758</ele>
        <time>2011-12-04T00:49:53Z</time>
      </trkpt>
      <trkpt lat="45.54325" lon="4.48787">
        <ele>784.0925293</ele>
        <time>2011-12-04T00:50:00Z</time>
      </trkpt>
      <trkpt lat="45.54327" lon="4.48784">
        <ele>785.5344238</ele>
        <time>2011-12-04T00:50:02Z</time>
      </trkpt>
      <trkpt lat="45.54334" lon="4.4879">
        <ele>786.9763184</ele>
        <time>2011-12-04T00:50:08Z</time>
      </trkpt>
      <trkpt lat="45.54346" lon="4.48811">
        <ele>786.4958496</ele>
        <time>2011-12-04T00:50:15Z</time>
      </trkpt>
      <trkpt lat="45.54354" lon="4.48827">
        <ele>784.5732422</ele>
        <time>2011-12-04T00:50:20Z</time>
      </trkpt>
      <trkpt lat="45.5436" lon="4.48843">
        <ele>780.2473145</ele>
        <time>2011-12-04T00:50:25Z</time>
      </trkpt>
      <trkpt lat="45.54369" lon="4.48862">
        <ele>775.4404297</ele>
        <time>2011-12-04T00:50:31Z</time>
      </trkpt>
      <trkpt lat="45.54374" lon="4.4887">
        <ele>773.9985352</ele>
        <time>2011-12-04T00:50:34Z</time>
      </trkpt>
      <trkpt lat="45.54388" lon="4.48887">
        <ele>773.5180664</ele>
        <time>2011-12-04T00:50:41Z</time>
      </trkpt>
      <trkpt lat="45.54399" lon="4.48899">
        <ele>772.5566406</ele>
        <time>2011-12-04T00:50:46Z</time>
      </trkpt>
      <trkpt lat="45.54411" lon="4.48911">
        <ele>772.0759277</ele>
        <time>2011-12-04T00:50:51Z</time>
      </trkpt>
      <trkpt lat="45.54422" lon="4.48928">
        <ele>772.5566406</ele>
        <time>2011-12-04T00:50:57Z</time>
      </trkpt>
      <trkpt lat="45.54433" lon="4.48942">
        <ele>773.0373535</ele>
        <time>2011-12-04T00:51:02Z</time>
      </trkpt>
      <trkpt lat="45.54441" lon="4.48964">
        <ele>771.5952148</ele>
        <time>2011-12-04T00:51:08Z</time>
      </trkpt>
      <trkpt lat="45.54444" lon="4.48988">
        <ele>769.1921387</ele>
        <time>2011-12-04T00:51:14Z</time>
      </trkpt>
      <trkpt lat="45.54443" lon="4.49007">
        <ele>768.2307129</ele>
        <time>2011-12-04T00:51:19Z</time>
      </trkpt>
      <trkpt lat="45.54441" lon="4.49031">
        <ele>765.3469238</ele>
        <time>2011-12-04T00:51:25Z</time>
      </trkpt>
      <trkpt lat="45.5444" lon="4.49057">
        <ele>762.4626465</ele>
        <time>2011-12-04T00:51:32Z</time>
      </trkpt>
      <trkpt lat="45.54441" lon="4.49077">
        <ele>761.9821777</ele>
        <time>2011-12-04T00:51:37Z</time>
      </trkpt>
      <trkpt lat="45.54445" lon="4.49097">
        <ele>763.4240723</ele>
        <time>2011-12-04T00:51:42Z</time>
      </trkpt>
      <trkpt lat="45.54449" lon="4.49108">
        <ele>764.385498</ele>
        <time>2011-12-04T00:51:46Z</time>
      </trkpt>
      <trkpt lat="45.54453" lon="4.49113">
        <ele>764.385498</ele>
        <time>2011-12-04T00:51:54Z</time>
      </trkpt>
      <trkpt lat="45.54449" lon="4.49113">
        <ele>760.0593262</ele>
        <time>2011-12-04T00:52:11Z</time>
      </trkpt>
      <trkpt lat="45.54445" lon="4.49115">
        <ele>761.5014648</ele>
        <time>2011-12-04T00:52:18Z</time>
      </trkpt>
      <trkpt lat="45.54444" lon="4.49118">
        <ele>761.9821777</ele>
        <time>2011-12-04T00:52:22Z</time>
      </trkpt>
      <trkpt lat="45.54448" lon="4.49137">
        <ele>761.5014648</ele>
        <time>2011-12-04T00:52:28Z</time>
      </trkpt>
      <trkpt lat="45.54455" lon="4.49154">
        <ele>761.5014648</ele>
        <time>2011-12-04T00:52:33Z</time>
      </trkpt>
      <trkpt lat="45.54462" lon="4.49171">
        <ele>761.5014648</ele>
        <time>2011-12-04T00:52:38Z</time>
      </trkpt>
      <trkpt lat="45.54472" lon="4.4919">
        <ele>763.904541</ele>
        <time>2011-12-04T00:52:44Z</time>
      </trkpt>
      <trkpt lat="45.54479" lon="4.49205">
        <ele>763.4240723</ele>
        <time>2011-12-04T00:52:49Z</time>
      </trkpt>
      <trkpt lat="45.54486" lon="4.49227">
        <ele>763.4240723</ele>
        <time>2011-12-04T00:52:55Z</time>
      </trkpt>
      <trkpt lat="45.54487" lon="4.49254">
        <ele>759.0981445</ele>
        <time>2011-12-04T00:53:02Z</time>
      </trkpt>
      <trkpt lat="45.54486" lon="4.49279">
        <ele>753.8110352</ele>
        <time>2011-12-04T00:53:09Z</time>
      </trkpt>
      <trkpt lat="45.54486" lon="4.49307">
        <ele>754.7722168</ele>
        <time>2011-12-04T00:53:16Z</time>
      </trkpt>
      <trkpt lat="45.54486" lon="4.49325">
        <ele>754.7722168</ele>
        <time>2011-12-04T00:53:21Z</time>
      </trkpt>
      <trkpt lat="45.54486" lon="4.49338">
        <ele>756.2141113</ele>
        <time>2011-12-04T00:53:25Z</time>
      </trkpt>
      <trkpt lat="45.54485" lon="4.4936">
        <ele>755.2529297</ele>
        <time>2011-12-04T00:53:31Z</time>
      </trkpt>
      <trkpt lat="45.54484" lon="4.49382">
        <ele>756.6948242</ele>
        <time>2011-12-04T00:53:37Z</time>
      </trkpt>
      <trkpt lat="45.54484" lon="4.49398">
        <ele>753.8110352</ele>
        <time>2011-12-04T00:53:42Z</time>
      </trkpt>
      <trkpt lat="45.54483" lon="4.49414">
        <ele>744.6782227</ele>
        <time>2011-12-04T00:53:47Z</time>
      </trkpt>
      <trkpt lat="45.54486" lon="4.49438">
        <ele>747.5622559</ele>
        <time>2011-12-04T00:53:53Z</time>
      </trkpt>
      <trkpt lat="45.54486" lon="4.49456">
        <ele>745.6396484</ele>
        <time>2011-12-04T00:53:58Z</time>
      </trkpt>
      <trkpt lat="45.54485" lon="4.49474">
        <ele>746.1203613</ele>
        <time>2011-12-04T00:54:03Z</time>
      </trkpt>
      <trkpt lat="45.54481" lon="4.49491">
        <ele>743.2363281</ele>
        <time>2011-12-04T00:54:08Z</time>
      </trkpt>
      <trkpt lat="45.54471" lon="4.49513">
        <ele>738.9106445</ele>
        <time>2011-12-04T00:54:15Z</time>
      </trkpt>
      <trkpt lat="45.54465" lon="4.4953">
        <ele>740.8330078</ele>
        <time>2011-12-04T00:54:21Z</time>
      </trkpt>
      <trkpt lat="45.54457" lon="4.49548">
        <ele>748.0432129</ele>
        <time>2011-12-04T00:54:27Z</time>
      </trkpt>
      <trkpt lat="45.54452" lon="4.49564">
        <ele>755.2529297</ele>
        <time>2011-12-04T00:54:33Z</time>
      </trkpt>
      <trkpt lat="45.54446" lon="4.49577">
        <ele>759.5788574</ele>
        <time>2011-12-04T00:54:38Z</time>
      </trkpt>
      <trkpt lat="45.5444" lon="4.49594">
        <ele>761.020752</ele>
        <time>2011-12-04T00:54:44Z</time>
      </trkpt>
      <trkpt lat="45.54435" lon="4.49606">
        <ele>760.5400391</ele>
        <time>2011-12-04T00:54:49Z</time>
      </trkpt>
      <trkpt lat="45.54435" lon="4.49608">
        <ele>759.5788574</ele>
        <time>2011-12-04T00:54:50Z</time>
      </trkpt>
      <trkpt lat="45.5444" lon="4.49621">
        <ele>765.3469238</ele>
        <time>2011-12-04T00:54:55Z</time>
      </trkpt>
      <trkpt lat="45.54456" lon="4.49633">
        <ele>769.6728516</ele>
        <time>2011-12-04T00:55:02Z</time>
      </trkpt>
      <trkpt lat="45.54467" lon="4.49639">
        <ele>768.7114258</ele>
        <time>2011-12-04T00:55:07Z</time>
      </trkpt>
      <trkpt lat="45.54484" lon="4.49646">
        <ele>769.1921387</ele>
        <time>2011-12-04T00:55:15Z</time>
      </trkpt>
      <trkpt lat="45.54495" lon="4.49649">
        <ele>768.7114258</ele>
        <time>2011-12-04T00:55:20Z</time>
      </trkpt>
      <trkpt lat="45.54508" lon="4.4965">
        <ele>768.2307129</ele>
        <time>2011-12-04T00:55:26Z</time>
      </trkpt>
      <trkpt lat="45.54523" lon="4.4965">
        <ele>768.2307129</ele>
        <time>2011-12-04T00:55:32Z</time>
      </trkpt>
      <trkpt lat="45.54538" lon="4.4965">
        <ele>769.6728516</ele>
        <time>2011-12-04T00:55:38Z</time>
      </trkpt>
      <trkpt lat="45.5455" lon="4.49649">
        <ele>769.6728516</ele>
        <time>2011-12-04T00:55:43Z</time>
      </trkpt>
      <trkpt lat="45.54568" lon="4.49649">
        <ele>769.6728516</ele>
        <time>2011-12-04T00:55:51Z</time>
      </trkpt>
      <trkpt lat="45.54582" lon="4.49651">
        <ele>769.6728516</ele>
        <time>2011-12-04T00:55:57Z</time>
      </trkpt>
      <trkpt lat="45.54592" lon="4.49653">
        <ele>768.2307129</ele>
        <time>2011-12-04T00:56:02Z</time>
      </trkpt>
      <trkpt lat="45.54609" lon="4.49654">
        <ele>767.2695313</ele>
        <time>2011-12-04T00:56:09Z</time>
      </trkpt>
      <trkpt lat="45.54626" lon="4.49658">
        <ele>768.7114258</ele>
        <time>2011-12-04T00:56:16Z</time>
      </trkpt>
      <trkpt lat="45.5464" lon="4.49664">
        <ele>769.1921387</ele>
        <time>2011-12-04T00:56:22Z</time>
      </trkpt>
      <trkpt lat="45.5465" lon="4.49665">
        <ele>769.6728516</ele>
        <time>2011-12-04T00:56:25Z</time>
      </trkpt>
      <trkpt lat="45.54663" lon="4.49662">
        <ele>770.1533203</ele>
        <time>2011-12-04T00:56:30Z</time>
      </trkpt>
      <trkpt lat="45.54675" lon="4.49658">
        <ele>770.1533203</ele>
        <time>2011-12-04T00:56:36Z</time>
      </trkpt>
      <trkpt lat="45.54685" lon="4.49655">
        <ele>770.1533203</ele>
        <time>2011-12-04T00:56:41Z</time>
      </trkpt>
      <trkpt lat="45.54698" lon="4.49654">
        <ele>769.6728516</ele>
        <time>2011-12-04T00:56:48Z</time>
      </trkpt>
      <trkpt lat="45.54708" lon="4.49656">
        <ele>768.2307129</ele>
        <time>2011-12-04T00:56:54Z</time>
      </trkpt>
      <trkpt lat="45.54721" lon="4.49658">
        <ele>767.75</ele>
        <time>2011-12-04T00:57:00Z</time>
      </trkpt>
      <trkpt lat="45.54729" lon="4.49659">
        <ele>767.75</ele>
        <time>2011-12-04T00:57:05Z</time>
      </trkpt>
      <trkpt lat="45.54739" lon="4.49659">
        <ele>766.3081055</ele>
        <time>2011-12-04T00:57:11Z</time>
      </trkpt>
      <trkpt lat="45.54749" lon="4.49658">
        <ele>768.7114258</ele>
        <time>2011-12-04T00:57:16Z</time>
      </trkpt>
      <trkpt lat="45.54759" lon="4.49658">
        <ele>771.5952148</ele>
        <time>2011-12-04T00:57:23Z</time>
      </trkpt>
      <trkpt lat="45.54769" lon="4.49658">
        <ele>773.9985352</ele>
        <time>2011-12-04T00:57:31Z</time>
      </trkpt>
      <trkpt lat="45.54779" lon="4.49658">
        <ele>774.479248</ele>
        <time>2011-12-04T00:57:40Z</time>
      </trkpt>
      <trkpt lat="45.54786" lon="4.49657">
        <ele>775.4404297</ele>
        <time>2011-12-04T00:57:47Z</time>
      </trkpt>
      <trkpt lat="45.54794" lon="4.49657">
        <ele>776.4018555</ele>
        <time>2011-12-04T00:57:53Z</time>
      </trkpt>
      <trkpt lat="45.5481" lon="4.49657">
        <ele>782.1699219</ele>
        <time>2011-12-04T00:58:02Z</time>
      </trkpt>
      <trkpt lat="45.54821" lon="4.49656">
        <ele>786.4958496</ele>
        <time>2011-12-04T00:58:08Z</time>
      </trkpt>
      <trkpt lat="45.54831" lon="4.49654">
        <ele>786.4958496</ele>
        <time>2011-12-04T00:58:15Z</time>
      </trkpt>
      <trkpt lat="45.54839" lon="4.49652">
        <ele>786.0151367</ele>
        <time>2011-12-04T00:58:20Z</time>
      </trkpt>
      <trkpt lat="45.54851" lon="4.4965">
        <ele>785.5344238</ele>
        <time>2011-12-04T00:58:30Z</time>
      </trkpt>
      <trkpt lat="45.54861" lon="4.49648">
        <ele>788.418457</ele>
        <time>2011-12-04T00:58:38Z</time>
      </trkpt>
      <trkpt lat="45.54872" lon="4.49646">
        <ele>790.3410645</ele>
        <time>2011-12-04T00:58:45Z</time>
      </trkpt>
      <trkpt lat="45.54873" lon="4.49645">
        <ele>790.3410645</ele>
        <time>2011-12-04T00:58:46Z</time>
      </trkpt>
      <trkpt lat="45.54884" lon="4.49643">
        <ele>792.7443848</ele>
        <time>2011-12-04T00:58:54Z</time>
      </trkpt>
      <trkpt lat="45.54893" lon="4.49641">
        <ele>792.2636719</ele>
        <time>2011-12-04T00:59:01Z</time>
      </trkpt>
      <trkpt lat="45.54899" lon="4.49639">
        <ele>793.2248535</ele>
        <time>2011-12-04T00:59:06Z</time>
      </trkpt>
      <trkpt lat="45.54909" lon="4.49635">
        <ele>794.666748</ele>
        <time>2011-12-04T00:59:15Z</time>
      </trkpt>
      <trkpt lat="45.54923" lon="4.4963">
        <ele>803.3188477</ele>
        <time>2011-12-04T00:59:25Z</time>
      </trkpt>
      <trkpt lat="45.5493" lon="4.49627">
        <ele>806.2026367</ele>
        <time>2011-12-04T00:59:31Z</time>
      </trkpt>
      <trkpt lat="45.54937" lon="4.49623">
        <ele>807.1640625</ele>
        <time>2011-12-04T00:59:37Z</time>
      </trkpt>
      <trkpt lat="45.54944" lon="4.49617">
        <ele>808.605957</ele>
        <time>2011-12-04T00:59:44Z</time>
      </trkpt>
      <trkpt lat="45.54945" lon="4.49616">
        <ele>808.605957</ele>
        <time>2011-12-04T00:59:45Z</time>
      </trkpt>
      <trkpt lat="45.54953" lon="4.4961">
        <ele>811.4899902</ele>
        <time>2011-12-04T00:59:53Z</time>
      </trkpt>
      <trkpt lat="45.54957" lon="4.49608">
        <ele>811.9707031</ele>
        <time>2011-12-04T00:59:57Z</time>
      </trkpt>
      <trkpt lat="45.54964" lon="4.49603">
        <ele>814.8547363</ele>
        <time>2011-12-04T01:00:03Z</time>
      </trkpt>
      <trkpt lat="45.54969" lon="4.49597">
        <ele>814.8547363</ele>
        <time>2011-12-04T01:00:10Z</time>
      </trkpt>
      <trkpt lat="45.54977" lon="4.49587">
        <ele>817.2580566</ele>
        <time>2011-12-04T01:00:20Z</time>
      </trkpt>
      <trkpt lat="45.54984" lon="4.49581">
        <ele>818.6999512</ele>
        <time>2011-12-04T01:00:28Z</time>
      </trkpt>
      <trkpt lat="45.5499" lon="4.49575">
        <ele>819.1806641</ele>
        <time>2011-12-04T01:00:35Z</time>
      </trkpt>
      <trkpt lat="45.54998" lon="4.49566">
        <ele>818.6999512</ele>
        <time>2011-12-04T01:00:43Z</time>
      </trkpt>
      <trkpt lat="45.55004" lon="4.49556">
        <ele>819.661377</ele>
        <time>2011-12-04T01:00:51Z</time>
      </trkpt>
      <trkpt lat="45.55012" lon="4.49547">
        <ele>822.0644531</ele>
        <time>2011-12-04T01:01:00Z</time>
      </trkpt>
      <trkpt lat="45.5502" lon="4.49541">
        <ele>825.909668</ele>
        <time>2011-12-04T01:01:08Z</time>
      </trkpt>
      <trkpt lat="45.55026" lon="4.49534">
        <ele>828.7939453</ele>
        <time>2011-12-04T01:01:15Z</time>
      </trkpt>
      <trkpt lat="45.55036" lon="4.49526">
        <ele>830.7165527</ele>
        <time>2011-12-04T01:01:25Z</time>
      </trkpt>
      <trkpt lat="45.55045" lon="4.49518">
        <ele>834.0810547</ele>
        <time>2011-12-04T01:01:34Z</time>
      </trkpt>
      <trkpt lat="45.55054" lon="4.49506">
        <ele>835.0424805</ele>
        <time>2011-12-04T01:01:44Z</time>
      </trkpt>
      <trkpt lat="45.55061" lon="4.49495">
        <ele>836.9648438</ele>
        <time>2011-12-04T01:01:53Z</time>
      </trkpt>
      <trkpt lat="45.55068" lon="4.49485">
        <ele>838.4069824</ele>
        <time>2011-12-04T01:02:02Z</time>
      </trkpt>
      <trkpt lat="45.55075" lon="4.49477">
        <ele>839.3681641</ele>
        <time>2011-12-04T01:02:10Z</time>
      </trkpt>
      <trkpt lat="45.55083" lon="4.49469">
        <ele>840.3295898</ele>
        <time>2011-12-04T01:02:18Z</time>
      </trkpt>
      <trkpt lat="45.55089" lon="4.49461">
        <ele>842.2521973</ele>
        <time>2011-12-04T01:02:25Z</time>
      </trkpt>
      <trkpt lat="45.55095" lon="4.49454">
        <ele>843.2133789</ele>
        <time>2011-12-04T01:02:32Z</time>
      </trkpt>
      <trkpt lat="45.55102" lon="4.49447">
        <ele>844.6555176</ele>
        <time>2011-12-04T01:02:39Z</time>
      </trkpt>
      <trkpt lat="45.55114" lon="4.4944">
        <ele>848.5007324</ele>
        <time>2011-12-04T01:02:48Z</time>
      </trkpt>
      <trkpt lat="45.55115" lon="4.4944">
        <ele>848.9814453</ele>
        <time>2011-12-04T01:02:49Z</time>
      </trkpt>
      <trkpt lat="45.55126" lon="4.49435">
        <ele>851.8654785</ele>
        <time>2011-12-04T01:02:58Z</time>
      </trkpt>
      <trkpt lat="45.55136" lon="4.49433">
        <ele>852.3459473</ele>
        <time>2011-12-04T01:03:07Z</time>
      </trkpt>
      <trkpt lat="45.55147" lon="4.49431">
        <ele>852.3459473</ele>
        <time>2011-12-04T01:03:16Z</time>
      </trkpt>
      <trkpt lat="45.55157" lon="4.49428">
        <ele>854.7492676</ele>
        <time>2011-12-04T01:03:22Z</time>
      </trkpt>
      <trkpt lat="45.55168" lon="4.49424">
        <ele>858.1140137</ele>
        <time>2011-12-04T01:03:28Z</time>
      </trkpt>
      <trkpt lat="45.55181" lon="4.49421">
        <ele>861.4787598</ele>
        <time>2011-12-04T01:03:35Z</time>
      </trkpt>
      <trkpt lat="45.5519" lon="4.49422">
        <ele>860.9980469</ele>
        <time>2011-12-04T01:03:40Z</time>
      </trkpt>
      <trkpt lat="45.55201" lon="4.49425">
        <ele>859.5559082</ele>
        <time>2011-12-04T01:03:46Z</time>
      </trkpt>
      <trkpt lat="45.55214" lon="4.49427">
        <ele>860.9980469</ele>
        <time>2011-12-04T01:03:52Z</time>
      </trkpt>
      <trkpt lat="45.55225" lon="4.49431">
        <ele>862.4399414</ele>
        <time>2011-12-04T01:03:58Z</time>
      </trkpt>
      <trkpt lat="45.55233" lon="4.49435">
        <ele>860.9980469</ele>
        <time>2011-12-04T01:04:03Z</time>
      </trkpt>
      <trkpt lat="45.55245" lon="4.4944">
        <ele>859.0751953</ele>
        <time>2011-12-04T01:04:09Z</time>
      </trkpt>
      <trkpt lat="45.55258" lon="4.49441">
        <ele>859.0751953</ele>
        <time>2011-12-04T01:04:16Z</time>
      </trkpt>
      <trkpt lat="45.55271" lon="4.49444">
        <ele>859.0751953</ele>
        <time>2011-12-04T01:04:22Z</time>
      </trkpt>
      <trkpt lat="45.55286" lon="4.49447">
        <ele>857.6333008</ele>
        <time>2011-12-04T01:04:29Z</time>
      </trkpt>
      <trkpt lat="45.55301" lon="4.4945">
        <ele>857.6333008</ele>
        <time>2011-12-04T01:04:36Z</time>
      </trkpt>
      <trkpt lat="45.55312" lon="4.49454">
        <ele>858.5944824</ele>
        <time>2011-12-04T01:04:41Z</time>
      </trkpt>
      <trkpt lat="45.55325" lon="4.49455">
        <ele>859.0751953</ele>
        <time>2011-12-04T01:04:47Z</time>
      </trkpt>
      <trkpt lat="45.5534" lon="4.49458">
        <ele>858.1140137</ele>
        <time>2011-12-04T01:04:54Z</time>
      </trkpt>
      <trkpt lat="45.55352" lon="4.49459">
        <ele>857.1525879</ele>
        <time>2011-12-04T01:05:00Z</time>
      </trkpt>
      <trkpt lat="45.55363" lon="4.49461">
        <ele>855.7106934</ele>
        <time>2011-12-04T01:05:05Z</time>
      </trkpt>
      <trkpt lat="45.55376" lon="4.49466">
        <ele>855.2299805</ele>
        <time>2011-12-04T01:05:11Z</time>
      </trkpt>
      <trkpt lat="45.55387" lon="4.49474">
        <ele>854.7492676</ele>
        <time>2011-12-04T01:05:16Z</time>
      </trkpt>
      <trkpt lat="45.55399" lon="4.49491">
        <ele>855.7106934</ele>
        <time>2011-12-04T01:05:23Z</time>
      </trkpt>
      <trkpt lat="45.5541" lon="4.49502">
        <ele>856.1911621</ele>
        <time>2011-12-04T01:05:29Z</time>
      </trkpt>
      <trkpt lat="45.55426" lon="4.49508">
        <ele>858.1140137</ele>
        <time>2011-12-04T01:05:36Z</time>
      </trkpt>
      <trkpt lat="45.55439" lon="4.49514">
        <ele>860.517334</ele>
        <time>2011-12-04T01:05:42Z</time>
      </trkpt>
      <trkpt lat="45.55455" lon="4.49521">
        <ele>861.9594727</ele>
        <time>2011-12-04T01:05:48Z</time>
      </trkpt>
      <trkpt lat="45.55466" lon="4.49524">
        <ele>862.9206543</ele>
        <time>2011-12-04T01:05:53Z</time>
      </trkpt>
      <trkpt lat="45.55483" lon="4.49527">
        <ele>863.4013672</ele>
        <time>2011-12-04T01:06:01Z</time>
      </trkpt>
      <trkpt lat="45.55499" lon="4.49531">
        <ele>862.4399414</ele>
        <time>2011-12-04T01:06:08Z</time>
      </trkpt>
      <trkpt lat="45.55517" lon="4.49539">
        <ele>861.9594727</ele>
        <time>2011-12-04T01:06:15Z</time>
      </trkpt>
      <trkpt lat="45.55531" lon="4.49547">
        <ele>862.4399414</ele>
        <time>2011-12-04T01:06:21Z</time>
      </trkpt>
      <trkpt lat="45.55545" lon="4.49554">
        <ele>861.4787598</ele>
        <time>2011-12-04T01:06:27Z</time>
      </trkpt>
      <trkpt lat="45.5556" lon="4.49564">
        <ele>860.517334</ele>
        <time>2011-12-04T01:06:34Z</time>
      </trkpt>
      <trkpt lat="45.55578" lon="4.49574">
        <ele>860.0366211</ele>
        <time>2011-12-04T01:06:42Z</time>
      </trkpt>
      <trkpt lat="45.55594" lon="4.49581">
        <ele>859.0751953</ele>
        <time>2011-12-04T01:06:49Z</time>
      </trkpt>
      <trkpt lat="45.55606" lon="4.49588">
        <ele>858.1140137</ele>
        <time>2011-12-04T01:06:55Z</time>
      </trkpt>
      <trkpt lat="45.55617" lon="4.49594">
        <ele>859.0751953</ele>
        <time>2011-12-04T01:07:00Z</time>
      </trkpt>
      <trkpt lat="45.5563" lon="4.49597">
        <ele>861.4787598</ele>
        <time>2011-12-04T01:07:06Z</time>
      </trkpt>
      <trkpt lat="45.55647" lon="4.49598">
        <ele>861.9594727</ele>
        <time>2011-12-04T01:07:13Z</time>
      </trkpt>
      <trkpt lat="45.55663" lon="4.49598">
        <ele>860.517334</ele>
        <time>2011-12-04T01:07:20Z</time>
      </trkpt>
      <trkpt lat="45.55679" lon="4.49597">
        <ele>859.0751953</ele>
        <time>2011-12-04T01:07:27Z</time>
      </trkpt>
      <trkpt lat="45.55692" lon="4.49596">
        <ele>857.1525879</ele>
        <time>2011-12-04T01:07:33Z</time>
      </trkpt>
      <trkpt lat="45.55707" lon="4.49596">
        <ele>854.7492676</ele>
        <time>2011-12-04T01:07:39Z</time>
      </trkpt>
      <trkpt lat="45.55724" lon="4.49595">
        <ele>851.8654785</ele>
        <time>2011-12-04T01:07:46Z</time>
      </trkpt>
      <trkpt lat="45.5574" lon="4.49595">
        <ele>849.9428711</ele>
        <time>2011-12-04T01:07:52Z</time>
      </trkpt>
      <trkpt lat="45.55753" lon="4.49594">
        <ele>847.5395508</ele>
        <time>2011-12-04T01:07:57Z</time>
      </trkpt>
      <trkpt lat="45.55761" lon="4.49594">
        <ele>847.0588379</ele>
        <time>2011-12-04T01:08:00Z</time>
      </trkpt>
      <trkpt lat="45.55777" lon="4.4959">
        <ele>848.9814453</ele>
        <time>2011-12-04T01:08:06Z</time>
      </trkpt>
      <trkpt lat="45.55792" lon="4.49581">
        <ele>850.9040527</ele>
        <time>2011-12-04T01:08:12Z</time>
      </trkpt>
      <trkpt lat="45.55802" lon="4.49573">
        <ele>849.9428711</ele>
        <time>2011-12-04T01:08:17Z</time>
      </trkpt>
      <trkpt lat="45.55813" lon="4.49563">
        <ele>848.9814453</ele>
        <time>2011-12-04T01:08:22Z</time>
      </trkpt>
      <trkpt lat="45.55826" lon="4.49552">
        <ele>847.5395508</ele>
        <time>2011-12-04T01:08:28Z</time>
      </trkpt>
      <trkpt lat="45.5584" lon="4.49543">
        <ele>847.0588379</ele>
        <time>2011-12-04T01:08:34Z</time>
      </trkpt>
      <trkpt lat="45.55854" lon="4.49531">
        <ele>848.0202637</ele>
        <time>2011-12-04T01:08:40Z</time>
      </trkpt>
      <trkpt lat="45.55868" lon="4.49519">
        <ele>847.5395508</ele>
        <time>2011-12-04T01:08:46Z</time>
      </trkpt>
      <trkpt lat="45.5588" lon="4.49511">
        <ele>846.5783691</ele>
        <time>2011-12-04T01:08:51Z</time>
      </trkpt>
      <trkpt lat="45.55896" lon="4.49503">
        <ele>845.1362305</ele>
        <time>2011-12-04T01:08:58Z</time>
      </trkpt>
      <trkpt lat="45.55908" lon="4.49499">
        <ele>843.2133789</ele>
        <time>2011-12-04T01:09:04Z</time>
      </trkpt>
      <trkpt lat="45.5591" lon="4.49498">
        <ele>842.2521973</ele>
        <time>2011-12-04T01:09:05Z</time>
      </trkpt>
      <trkpt lat="45.55919" lon="4.49493">
        <ele>839.3681641</ele>
        <time>2011-12-04T01:09:10Z</time>
      </trkpt>
      <trkpt lat="45.55934" lon="4.49487">
        <ele>834.0810547</ele>
        <time>2011-12-04T01:09:17Z</time>
      </trkpt>
      <trkpt lat="45.5594" lon="4.49486">
        <ele>832.6391602</ele>
        <time>2011-12-04T01:09:20Z</time>
      </trkpt>
      <trkpt lat="45.55958" lon="4.49486">
        <ele>832.1584473</ele>
        <time>2011-12-04T01:09:28Z</time>
      </trkpt>
      <trkpt lat="45.5597" lon="4.49488">
        <ele>832.6391602</ele>
        <time>2011-12-04T01:09:33Z</time>
      </trkpt>
      <trkpt lat="45.55985" lon="4.49486">
        <ele>833.6003418</ele>
        <time>2011-12-04T01:09:39Z</time>
      </trkpt>
      <trkpt lat="45.56002" lon="4.49486">
        <ele>836.484375</ele>
        <time>2011-12-04T01:09:44Z</time>
      </trkpt>
      <trkpt lat="45.56024" lon="4.49481">
        <ele>840.8100586</ele>
        <time>2011-12-04T01:09:51Z</time>
      </trkpt>
      <trkpt lat="45.56039" lon="4.49476">
        <ele>841.2907715</ele>
        <time>2011-12-04T01:09:56Z</time>
      </trkpt>
      <trkpt lat="45.56056" lon="4.49481">
        <ele>839.3681641</ele>
        <time>2011-12-04T01:10:02Z</time>
      </trkpt>
      <trkpt lat="45.56069" lon="4.49487">
        <ele>837.4455566</ele>
        <time>2011-12-04T01:10:07Z</time>
      </trkpt>
      <trkpt lat="45.56085" lon="4.49493">
        <ele>835.0424805</ele>
        <time>2011-12-04T01:10:13Z</time>
      </trkpt>
      <trkpt lat="45.56104" lon="4.49503">
        <ele>833.1196289</ele>
        <time>2011-12-04T01:10:20Z</time>
      </trkpt>
      <trkpt lat="45.56117" lon="4.49512">
        <ele>831.6777344</ele>
        <time>2011-12-04T01:10:25Z</time>
      </trkpt>
      <trkpt lat="45.56128" lon="4.49523">
        <ele>829.755127</ele>
        <time>2011-12-04T01:10:30Z</time>
      </trkpt>
      <trkpt lat="45.56141" lon="4.49534">
        <ele>826.3903809</ele>
        <time>2011-12-04T01:10:36Z</time>
      </trkpt>
      <trkpt lat="45.56158" lon="4.49547">
        <ele>823.9870605</ele>
        <time>2011-12-04T01:10:43Z</time>
      </trkpt>
      <trkpt lat="45.5617" lon="4.49556">
        <ele>822.0644531</ele>
        <time>2011-12-04T01:10:48Z</time>
      </trkpt>
      <trkpt lat="45.56185" lon="4.49567">
        <ele>822.0644531</ele>
        <time>2011-12-04T01:10:54Z</time>
      </trkpt>
      <trkpt lat="45.56199" lon="4.49578">
        <ele>822.0644531</ele>
        <time>2011-12-04T01:11:00Z</time>
      </trkpt>
      <trkpt lat="45.56211" lon="4.49587">
        <ele>823.0258789</ele>
        <time>2011-12-04T01:11:05Z</time>
      </trkpt>
      <trkpt lat="45.56223" lon="4.49599">
        <ele>821.5837402</ele>
        <time>2011-12-04T01:11:11Z</time>
      </trkpt>
      <trkpt lat="45.56234" lon="4.49608">
        <ele>822.0644531</ele>
        <time>2011-12-04T01:11:16Z</time>
      </trkpt>
      <trkpt lat="45.56248" lon="4.49619">
        <ele>822.0644531</ele>
        <time>2011-12-04T01:11:22Z</time>
      </trkpt>
      <trkpt lat="45.56262" lon="4.4963">
        <ele>822.545166</ele>
        <time>2011-12-04T01:11:28Z</time>
      </trkpt>
      <trkpt lat="45.56275" lon="4.49641">
        <ele>823.9870605</ele>
        <time>2011-12-04T01:11:34Z</time>
      </trkpt>
      <trkpt lat="45.56287" lon="4.49649">
        <ele>824.4677734</ele>
        <time>2011-12-04T01:11:39Z</time>
      </trkpt>
      <trkpt lat="45.56298" lon="4.49657">
        <ele>825.4289551</ele>
        <time>2011-12-04T01:11:44Z</time>
      </trkpt>
      <trkpt lat="45.5631" lon="4.49667">
        <ele>826.8710938</ele>
        <time>2011-12-04T01:11:50Z</time>
      </trkpt>
      <trkpt lat="45.56321" lon="4.49678">
        <ele>829.2744141</ele>
        <time>2011-12-04T01:11:56Z</time>
      </trkpt>
      <trkpt lat="45.56329" lon="4.49685">
        <ele>831.1972656</ele>
        <time>2011-12-04T01:12:00Z</time>
      </trkpt>
      <trkpt lat="45.56335" lon="4.49688">
        <ele>832.6391602</ele>
        <time>2011-12-04T01:12:02Z</time>
      </trkpt>
      <trkpt lat="45.56344" lon="4.49697">
        <ele>834.5617676</ele>
        <time>2011-12-04T01:12:07Z</time>
      </trkpt>
      <trkpt lat="45.5636" lon="4.49707">
        <ele>836.9648438</ele>
        <time>2011-12-04T01:12:14Z</time>
      </trkpt>
      <trkpt lat="45.56372" lon="4.49713">
        <ele>838.4069824</ele>
        <time>2011-12-04T01:12:19Z</time>
      </trkpt>
      <trkpt lat="45.5639" lon="4.49727">
        <ele>836.0036621</ele>
        <time>2011-12-04T01:12:26Z</time>
      </trkpt>
      <trkpt lat="45.564" lon="4.49736">
        <ele>835.5229492</ele>
        <time>2011-12-04T01:12:30Z</time>
      </trkpt>
      <trkpt lat="45.56414" lon="4.49752">
        <ele>832.1584473</ele>
        <time>2011-12-04T01:12:37Z</time>
      </trkpt>
      <trkpt lat="45.56425" lon="4.49764">
        <ele>830.7165527</ele>
        <time>2011-12-04T01:12:42Z</time>
      </trkpt>
      <trkpt lat="45.56438" lon="4.49778">
        <ele>830.7165527</ele>
        <time>2011-12-04T01:12:48Z</time>
      </trkpt>
      <trkpt lat="45.56448" lon="4.4979">
        <ele>829.755127</ele>
        <time>2011-12-04T01:12:53Z</time>
      </trkpt>
      <trkpt lat="45.56459" lon="4.49802">
        <ele>829.2744141</ele>
        <time>2011-12-04T01:12:58Z</time>
      </trkpt>
      <trkpt lat="45.56472" lon="4.49813">
        <ele>827.8322754</ele>
        <time>2011-12-04T01:13:04Z</time>
      </trkpt>
      <trkpt lat="45.56493" lon="4.49826">
        <ele>825.909668</ele>
        <time>2011-12-04T01:13:12Z</time>
      </trkpt>
      <trkpt lat="45.56505" lon="4.49832">
        <ele>825.909668</ele>
        <time>2011-12-04T01:13:17Z</time>
      </trkpt>
      <trkpt lat="45.56518" lon="4.49842">
        <ele>825.909668</ele>
        <time>2011-12-04T01:13:23Z</time>
      </trkpt>
      <trkpt lat="45.56535" lon="4.49856">
        <ele>827.3518066</ele>
        <time>2011-12-04T01:13:30Z</time>
      </trkpt>
      <trkpt lat="45.5655" lon="4.49869">
        <ele>826.8710938</ele>
        <time>2011-12-04T01:13:36Z</time>
      </trkpt>
      <trkpt lat="45.56563" lon="4.49879">
        <ele>826.3903809</ele>
        <time>2011-12-04T01:13:41Z</time>
      </trkpt>
      <trkpt lat="45.56576" lon="4.4989">
        <ele>825.4289551</ele>
        <time>2011-12-04T01:13:46Z</time>
      </trkpt>
      <trkpt lat="45.56587" lon="4.499">
        <ele>822.0644531</ele>
        <time>2011-12-04T01:13:51Z</time>
      </trkpt>
      <trkpt lat="45.56596" lon="4.49908">
        <ele>822.0644531</ele>
        <time>2011-12-04T01:13:55Z</time>
      </trkpt>
      <trkpt lat="45.56609" lon="4.49918">
        <ele>823.5065918</ele>
        <time>2011-12-04T01:14:00Z</time>
      </trkpt>
      <trkpt lat="45.56624" lon="4.49929">
        <ele>822.545166</ele>
        <time>2011-12-04T01:14:06Z</time>
      </trkpt>
      <trkpt lat="45.56638" lon="4.49937">
        <ele>823.0258789</ele>
        <time>2011-12-04T01:14:11Z</time>
      </trkpt>
      <trkpt lat="45.56647" lon="4.49943">
        <ele>823.0258789</ele>
        <time>2011-12-04T01:14:15Z</time>
      </trkpt>
      <trkpt lat="45.56659" lon="4.49954">
        <ele>822.0644531</ele>
        <time>2011-12-04T01:14:20Z</time>
      </trkpt>
      <trkpt lat="45.56673" lon="4.49968">
        <ele>820.6225586</ele>
        <time>2011-12-04T01:14:26Z</time>
      </trkpt>
      <trkpt lat="45.56684" lon="4.49982">
        <ele>820.6225586</ele>
        <time>2011-12-04T01:14:32Z</time>
      </trkpt>
      <trkpt lat="45.56695" lon="4.49994">
        <ele>820.1418457</ele>
        <time>2011-12-04T01:14:37Z</time>
      </trkpt>
      <trkpt lat="45.56706" lon="4.50006">
        <ele>820.1418457</ele>
        <time>2011-12-04T01:14:42Z</time>
      </trkpt>
      <trkpt lat="45.56713" lon="4.50013">
        <ele>820.1418457</ele>
        <time>2011-12-04T01:14:45Z</time>
      </trkpt>
      <trkpt lat="45.56721" lon="4.50021">
        <ele>821.5837402</ele>
        <time>2011-12-04T01:14:49Z</time>
      </trkpt>
      <trkpt lat="45.56736" lon="4.50037">
        <ele>823.0258789</ele>
        <time>2011-12-04T01:14:56Z</time>
      </trkpt>
      <trkpt lat="45.5675" lon="4.5005">
        <ele>823.9870605</ele>
        <time>2011-12-04T01:15:02Z</time>
      </trkpt>
      <trkpt lat="45.56765" lon="4.50063">
        <ele>826.3903809</ele>
        <time>2011-12-04T01:15:08Z</time>
      </trkpt>
      <trkpt lat="45.56777" lon="4.50077">
        <ele>824.9484863</ele>
        <time>2011-12-04T01:15:15Z</time>
      </trkpt>
      <trkpt lat="45.56789" lon="4.50096">
        <ele>825.4289551</ele>
        <time>2011-12-04T01:15:23Z</time>
      </trkpt>
      <trkpt lat="45.56795" lon="4.50107">
        <ele>826.8710938</ele>
        <time>2011-12-04T01:15:28Z</time>
      </trkpt>
      <trkpt lat="45.56804" lon="4.50123">
        <ele>827.3518066</ele>
        <time>2011-12-04T01:15:36Z</time>
      </trkpt>
      <trkpt lat="45.56812" lon="4.50132">
        <ele>830.7165527</ele>
        <time>2011-12-04T01:15:41Z</time>
      </trkpt>
      <trkpt lat="45.56821" lon="4.50146">
        <ele>830.7165527</ele>
        <time>2011-12-04T01:15:48Z</time>
      </trkpt>
      <trkpt lat="45.56829" lon="4.50159">
        <ele>832.6391602</ele>
        <time>2011-12-04T01:15:55Z</time>
      </trkpt>
      <trkpt lat="45.56837" lon="4.50173">
        <ele>832.1584473</ele>
        <time>2011-12-04T01:16:02Z</time>
      </trkpt>
      <trkpt lat="45.56842" lon="4.50183">
        <ele>832.1584473</ele>
        <time>2011-12-04T01:16:07Z</time>
      </trkpt>
      <trkpt lat="45.5685" lon="4.502">
        <ele>832.1584473</ele>
        <time>2011-12-04T01:16:15Z</time>
      </trkpt>
      <trkpt lat="45.56854" lon="4.50206">
        <ele>833.6003418</ele>
        <time>2011-12-04T01:16:19Z</time>
      </trkpt>
      <trkpt lat="45.56858" lon="4.50213">
        <ele>835.0424805</ele>
        <time>2011-12-04T01:16:23Z</time>
      </trkpt>
      <trkpt lat="45.56863" lon="4.5023">
        <ele>837.4455566</ele>
        <time>2011-12-04T01:16:33Z</time>
      </trkpt>
      <trkpt lat="45.56867" lon="4.50245">
        <ele>838.4069824</ele>
        <time>2011-12-04T01:16:42Z</time>
      </trkpt>
      <trkpt lat="45.5687" lon="4.50256">
        <ele>840.3295898</ele>
        <time>2011-12-04T01:16:49Z</time>
      </trkpt>
      <trkpt lat="45.56871" lon="4.50263">
        <ele>841.7714844</ele>
        <time>2011-12-04T01:16:53Z</time>
      </trkpt>
      <trkpt lat="45.56873" lon="4.50276">
        <ele>844.1750488</ele>
        <time>2011-12-04T01:17:01Z</time>
      </trkpt>
      <trkpt lat="45.56873" lon="4.50281">
        <ele>843.6940918</ele>
        <time>2011-12-04T01:17:04Z</time>
      </trkpt>
      <trkpt lat="45.56874" lon="4.50293">
        <ele>843.6940918</ele>
        <time>2011-12-04T01:17:11Z</time>
      </trkpt>
      <trkpt lat="45.56874" lon="4.50295">
        <ele>843.6940918</ele>
        <time>2011-12-04T01:17:12Z</time>
      </trkpt>
      <trkpt lat="45.56874" lon="4.50309">
        <ele>844.6555176</ele>
        <time>2011-12-04T01:17:19Z</time>
      </trkpt>
      <trkpt lat="45.56874" lon="4.50321">
        <ele>846.5783691</ele>
        <time>2011-12-04T01:17:25Z</time>
      </trkpt>
      <trkpt lat="45.56872" lon="4.50337">
        <ele>847.0588379</ele>
        <time>2011-12-04T01:17:34Z</time>
      </trkpt>
      <trkpt lat="45.56873" lon="4.50351">
        <ele>847.0588379</ele>
        <time>2011-12-04T01:17:43Z</time>
      </trkpt>
      <trkpt lat="45.56874" lon="4.50361">
        <ele>845.1362305</ele>
        <time>2011-12-04T01:17:50Z</time>
      </trkpt>
      <trkpt lat="45.56876" lon="4.50376">
        <ele>844.6555176</ele>
        <time>2011-12-04T01:17:59Z</time>
      </trkpt>
      <trkpt lat="45.56878" lon="4.50387">
        <ele>847.5395508</ele>
        <time>2011-12-04T01:18:06Z</time>
      </trkpt>
      <trkpt lat="45.56879" lon="4.50389">
        <ele>848.0202637</ele>
        <time>2011-12-04T01:18:07Z</time>
      </trkpt>
      <trkpt lat="45.5688" lon="4.50402">
        <ele>851.3847656</ele>
        <time>2011-12-04T01:18:14Z</time>
      </trkpt>
      <trkpt lat="45.56881" lon="4.50408">
        <ele>853.307373</ele>
        <time>2011-12-04T01:18:18Z</time>
      </trkpt>
      <trkpt lat="45.56882" lon="4.50418">
        <ele>855.2299805</ele>
        <time>2011-12-04T01:18:24Z</time>
      </trkpt>
      <trkpt lat="45.56884" lon="4.50429">
        <ele>856.671875</ele>
        <time>2011-12-04T01:18:31Z</time>
      </trkpt>
      <trkpt lat="45.56884" lon="4.50442">
        <ele>859.5559082</ele>
        <time>2011-12-04T01:18:39Z</time>
      </trkpt>
      <trkpt lat="45.56885" lon="4.50449">
        <ele>860.517334</ele>
        <time>2011-12-04T01:18:44Z</time>
      </trkpt>
      <trkpt lat="45.56885" lon="4.5045">
        <ele>860.517334</ele>
        <time>2011-12-04T01:18:45Z</time>
      </trkpt>
      <trkpt lat="45.56889" lon="4.50465">
        <ele>860.0366211</ele>
        <time>2011-12-04T01:18:55Z</time>
      </trkpt>
      <trkpt lat="45.56892" lon="4.50479">
        <ele>862.4399414</ele>
        <time>2011-12-04T01:19:03Z</time>
      </trkpt>
      <trkpt lat="45.56894" lon="4.50496">
        <ele>866.2851563</ele>
        <time>2011-12-04T01:19:12Z</time>
      </trkpt>
      <trkpt lat="45.56897" lon="4.50511">
        <ele>869.1691895</ele>
        <time>2011-12-04T01:19:20Z</time>
      </trkpt>
      <trkpt lat="45.56901" lon="4.50524">
        <ele>872.5336914</ele>
        <time>2011-12-04T01:19:28Z</time>
      </trkpt>
      <trkpt lat="45.56904" lon="4.50532">
        <ele>872.0529785</ele>
        <time>2011-12-04T01:19:33Z</time>
      </trkpt>
      <trkpt lat="45.56907" lon="4.50544">
        <ele>872.5336914</ele>
        <time>2011-12-04T01:19:41Z</time>
      </trkpt>
      <trkpt lat="45.56907" lon="4.50546">
        <ele>873.0144043</ele>
        <time>2011-12-04T01:19:42Z</time>
      </trkpt>
      <trkpt lat="45.56911" lon="4.50561">
        <ele>874.9370117</ele>
        <time>2011-12-04T01:19:51Z</time>
      </trkpt>
      <trkpt lat="45.56915" lon="4.50579">
        <ele>877.3405762</ele>
        <time>2011-12-04T01:20:01Z</time>
      </trkpt>
      <trkpt lat="45.56918" lon="4.50595">
        <ele>880.2243652</ele>
        <time>2011-12-04T01:20:09Z</time>
      </trkpt>
      <trkpt lat="45.56922" lon="4.50613">
        <ele>883.1081543</ele>
        <time>2011-12-04T01:20:18Z</time>
      </trkpt>
      <trkpt lat="45.56925" lon="4.50632">
        <ele>883.5888672</ele>
        <time>2011-12-04T01:20:28Z</time>
      </trkpt>
      <trkpt lat="45.56928" lon="4.50654">
        <ele>884.550293</ele>
        <time>2011-12-04T01:20:38Z</time>
      </trkpt>
      <trkpt lat="45.5693" lon="4.50675">
        <ele>883.5888672</ele>
        <time>2011-12-04T01:20:48Z</time>
      </trkpt>
      <trkpt lat="45.56931" lon="4.50696">
        <ele>885.5114746</ele>
        <time>2011-12-04T01:20:57Z</time>
      </trkpt>
      <trkpt lat="45.5693" lon="4.50717">
        <ele>882.6276855</ele>
        <time>2011-12-04T01:21:07Z</time>
      </trkpt>
      <trkpt lat="45.5693" lon="4.50739">
        <ele>879.2629395</ele>
        <time>2011-12-04T01:21:17Z</time>
      </trkpt>
      <trkpt lat="45.56932" lon="4.50761">
        <ele>875.4174805</ele>
        <time>2011-12-04T01:21:24Z</time>
      </trkpt>
      <trkpt lat="45.56936" lon="4.50782">
        <ele>873.9755859</ele>
        <time>2011-12-04T01:21:30Z</time>
      </trkpt>
      <trkpt lat="45.56945" lon="4.50803">
        <ele>872.5336914</ele>
        <time>2011-12-04T01:21:37Z</time>
      </trkpt>
      <trkpt lat="45.56952" lon="4.50827">
        <ele>873.0144043</ele>
        <time>2011-12-04T01:21:44Z</time>
      </trkpt>
      <trkpt lat="45.56958" lon="4.50848">
        <ele>873.4951172</ele>
        <time>2011-12-04T01:21:50Z</time>
      </trkpt>
      <trkpt lat="45.56964" lon="4.50868">
        <ele>871.0917969</ele>
        <time>2011-12-04T01:21:56Z</time>
      </trkpt>
      <trkpt lat="45.56969" lon="4.50886">
        <ele>869.6499023</ele>
        <time>2011-12-04T01:22:01Z</time>
      </trkpt>
      <trkpt lat="45.56973" lon="4.50911">
        <ele>867.7270508</ele>
        <time>2011-12-04T01:22:08Z</time>
      </trkpt>
      <trkpt lat="45.56976" lon="4.50932">
        <ele>868.2077637</ele>
        <time>2011-12-04T01:22:14Z</time>
      </trkpt>
      <trkpt lat="45.56979" lon="4.50954">
        <ele>869.1691895</ele>
        <time>2011-12-04T01:22:20Z</time>
      </trkpt>
      <trkpt lat="45.56983" lon="4.50979">
        <ele>869.6499023</ele>
        <time>2011-12-04T01:22:27Z</time>
      </trkpt>
      <trkpt lat="45.56984" lon="4.51005">
        <ele>869.1691895</ele>
        <time>2011-12-04T01:22:34Z</time>
      </trkpt>
      <trkpt lat="45.56987" lon="4.51026">
        <ele>869.6499023</ele>
        <time>2011-12-04T01:22:40Z</time>
      </trkpt>
      <trkpt lat="45.56989" lon="4.51039">
        <ele>870.1303711</ele>
        <time>2011-12-04T01:22:44Z</time>
      </trkpt>
      <trkpt lat="45.56993" lon="4.51062">
        <ele>869.6499023</ele>
        <time>2011-12-04T01:22:51Z</time>
      </trkpt>
      <trkpt lat="45.56995" lon="4.51081">
        <ele>867.7270508</ele>
        <time>2011-12-04T01:22:57Z</time>
      </trkpt>
      <trkpt lat="45.56999" lon="4.51101">
        <ele>870.1303711</ele>
        <time>2011-12-04T01:23:03Z</time>
      </trkpt>
      <trkpt lat="45.57005" lon="4.5112">
        <ele>872.5336914</ele>
        <time>2011-12-04T01:23:09Z</time>
      </trkpt>
      <trkpt lat="45.57011" lon="4.51142">
        <ele>874.9370117</ele>
        <time>2011-12-04T01:23:16Z</time>
      </trkpt>
      <trkpt lat="45.57017" lon="4.5116">
        <ele>877.8210449</ele>
        <time>2011-12-04T01:23:22Z</time>
      </trkpt>
      <trkpt lat="45.57022" lon="4.51182">
        <ele>877.8210449</ele>
        <time>2011-12-04T01:23:29Z</time>
      </trkpt>
      <trkpt lat="45.57026" lon="4.51199">
        <ele>875.8981934</ele>
        <time>2011-12-04T01:23:35Z</time>
      </trkpt>
      <trkpt lat="45.57029" lon="4.51224">
        <ele>871.5722656</ele>
        <time>2011-12-04T01:23:44Z</time>
      </trkpt>
      <trkpt lat="45.57031" lon="4.51241">
        <ele>872.0529785</ele>
        <time>2011-12-04T01:23:50Z</time>
      </trkpt>
      <trkpt lat="45.57032" lon="4.51263">
        <ele>873.4951172</ele>
        <time>2011-12-04T01:23:57Z</time>
      </trkpt>
      <trkpt lat="45.57032" lon="4.51288">
        <ele>871.5722656</ele>
        <time>2011-12-04T01:24:05Z</time>
      </trkpt>
      <trkpt lat="45.57032" lon="4.51308">
        <ele>871.5722656</ele>
        <time>2011-12-04T01:24:11Z</time>
      </trkpt>
      <trkpt lat="45.57029" lon="4.51336">
        <ele>869.1691895</ele>
        <time>2011-12-04T01:24:19Z</time>
      </trkpt>
      <trkpt lat="45.57027" lon="4.51356">
        <ele>867.7270508</ele>
        <time>2011-12-04T01:24:25Z</time>
      </trkpt>
      <trkpt lat="45.57023" lon="4.5138">
        <ele>866.2851563</ele>
        <time>2011-12-04T01:24:32Z</time>
      </trkpt>
      <trkpt lat="45.57023" lon="4.51402">
        <ele>865.3239746</ele>
        <time>2011-12-04T01:24:39Z</time>
      </trkpt>
      <trkpt lat="45.57023" lon="4.51408">
        <ele>865.3239746</ele>
        <time>2011-12-04T01:24:41Z</time>
      </trkpt>
      <trkpt lat="45.5701" lon="4.51426">
        <ele>862.9206543</ele>
        <time>2011-12-04T01:24:48Z</time>
      </trkpt>
      <trkpt lat="45.57002" lon="4.51441">
        <ele>860.0366211</ele>
        <time>2011-12-04T01:24:54Z</time>
      </trkpt>
      <trkpt lat="45.56998" lon="4.51457">
        <ele>860.0366211</ele>
        <time>2011-12-04T01:24:59Z</time>
      </trkpt>
      <trkpt lat="45.56996" lon="4.51471">
        <ele>859.5559082</ele>
        <time>2011-12-04T01:25:04Z</time>
      </trkpt>
      <trkpt lat="45.56995" lon="4.5149">
        <ele>858.5944824</ele>
        <time>2011-12-04T01:25:10Z</time>
      </trkpt>
      <trkpt lat="45.56994" lon="4.51516">
        <ele>859.0751953</ele>
        <time>2011-12-04T01:25:18Z</time>
      </trkpt>
      <trkpt lat="45.56995" lon="4.51531">
        <ele>860.9980469</ele>
        <time>2011-12-04T01:25:23Z</time>
      </trkpt>
      <trkpt lat="45.56995" lon="4.5154">
        <ele>860.9980469</ele>
        <time>2011-12-04T01:25:27Z</time>
      </trkpt>
      <trkpt lat="45.56993" lon="4.51554">
        <ele>858.1140137</ele>
        <time>2011-12-04T01:25:32Z</time>
      </trkpt>
      <trkpt lat="45.56993" lon="4.51559">
        <ele>858.5944824</ele>
        <time>2011-12-04T01:25:34Z</time>
      </trkpt>
      <trkpt lat="45.56991" lon="4.51572">
        <ele>859.5559082</ele>
        <time>2011-12-04T01:25:38Z</time>
      </trkpt>
      <trkpt lat="45.56988" lon="4.51595">
        <ele>863.4013672</ele>
        <time>2011-12-04T01:25:45Z</time>
      </trkpt>
      <trkpt lat="45.56986" lon="4.51613">
        <ele>865.3239746</ele>
        <time>2011-12-04T01:25:51Z</time>
      </trkpt>
      <trkpt lat="45.56986" lon="4.51631">
        <ele>866.2851563</ele>
        <time>2011-12-04T01:25:57Z</time>
      </trkpt>
      <trkpt lat="45.56985" lon="4.51643">
        <ele>865.8046875</ele>
        <time>2011-12-04T01:26:02Z</time>
      </trkpt>
      <trkpt lat="45.56983" lon="4.5166">
        <ele>863.8818359</ele>
        <time>2011-12-04T01:26:09Z</time>
      </trkpt>
      <trkpt lat="45.56983" lon="4.51676">
        <ele>863.8818359</ele>
        <time>2011-12-04T01:26:16Z</time>
      </trkpt>
      <trkpt lat="45.56982" lon="4.51687">
        <ele>864.8432617</ele>
        <time>2011-12-04T01:26:21Z</time>
      </trkpt>
      <trkpt lat="45.56983" lon="4.51709">
        <ele>868.2077637</ele>
        <time>2011-12-04T01:26:32Z</time>
      </trkpt>
      <trkpt lat="45.56983" lon="4.51711">
        <ele>868.6884766</ele>
        <time>2011-12-04T01:26:33Z</time>
      </trkpt>
      <trkpt lat="45.56985" lon="4.51724">
        <ele>867.246582</ele>
        <time>2011-12-04T01:26:40Z</time>
      </trkpt>
      <trkpt lat="45.56985" lon="4.51737">
        <ele>865.8046875</ele>
        <time>2011-12-04T01:26:47Z</time>
      </trkpt>
      <trkpt lat="45.56986" lon="4.51751">
        <ele>865.8046875</ele>
        <time>2011-12-04T01:26:55Z</time>
      </trkpt>
      <trkpt lat="45.56989" lon="4.51761">
        <ele>866.7658691</ele>
        <time>2011-12-04T01:27:01Z</time>
      </trkpt>
      <trkpt lat="45.56988" lon="4.51771">
        <ele>868.6884766</ele>
        <time>2011-12-04T01:27:07Z</time>
      </trkpt>
      <trkpt lat="45.56989" lon="4.51779">
        <ele>868.2077637</ele>
        <time>2011-12-04T01:27:12Z</time>
      </trkpt>
      <trkpt lat="45.56992" lon="4.51789">
        <ele>872.0529785</ele>
        <time>2011-12-04T01:27:19Z</time>
      </trkpt>
      <trkpt lat="45.56993" lon="4.51799">
        <ele>872.5336914</ele>
        <time>2011-12-04T01:27:25Z</time>
      </trkpt>
      <trkpt lat="45.56997" lon="4.5181">
        <ele>876.3791504</ele>
        <time>2011-12-04T01:27:32Z</time>
      </trkpt>
      <trkpt lat="45.56997" lon="4.51817">
        <ele>875.4174805</ele>
        <time>2011-12-04T01:27:36Z</time>
      </trkpt>
      <trkpt lat="45.56999" lon="4.51825">
        <ele>877.8210449</ele>
        <time>2011-12-04T01:27:41Z</time>
      </trkpt>
      <trkpt lat="45.57003" lon="4.51835">
        <ele>878.7824707</ele>
        <time>2011-12-04T01:27:48Z</time>
      </trkpt>
      <trkpt lat="45.57005" lon="4.51843">
        <ele>879.7436523</ele>
        <time>2011-12-04T01:27:52Z</time>
      </trkpt>
      <trkpt lat="45.57007" lon="4.51853">
        <ele>880.2243652</ele>
        <time>2011-12-04T01:27:58Z</time>
      </trkpt>
      <trkpt lat="45.57007" lon="4.51856">
        <ele>877.3405762</ele>
        <time>2011-12-04T01:28:01Z</time>
      </trkpt>
      <trkpt lat="45.5701" lon="4.51865">
        <ele>880.7050781</ele>
        <time>2011-12-04T01:28:08Z</time>
      </trkpt>
      <trkpt lat="45.57011" lon="4.51873">
        <ele>879.2629395</ele>
        <time>2011-12-04T01:28:14Z</time>
      </trkpt>
      <trkpt lat="45.57011" lon="4.51877">
        <ele>877.3405762</ele>
        <time>2011-12-04T01:28:17Z</time>
      </trkpt>
      <trkpt lat="45.57011" lon="4.5189">
        <ele>880.7050781</ele>
        <time>2011-12-04T01:28:24Z</time>
      </trkpt>
      <trkpt lat="45.57009" lon="4.51903">
        <ele>883.1081543</ele>
        <time>2011-12-04T01:28:30Z</time>
      </trkpt>
      <trkpt lat="45.57007" lon="4.51915">
        <ele>882.6276855</ele>
        <time>2011-12-04T01:28:37Z</time>
      </trkpt>
      <trkpt lat="45.57004" lon="4.51925">
        <ele>880.7050781</ele>
        <time>2011-12-04T01:28:44Z</time>
      </trkpt>
      <trkpt lat="45.57001" lon="4.51936">
        <ele>882.6276855</ele>
        <time>2011-12-04T01:28:49Z</time>
      </trkpt>
      <trkpt lat="45.56998" lon="4.51952">
        <ele>881.6662598</ele>
        <time>2011-12-04T01:28:54Z</time>
      </trkpt>
      <trkpt lat="45.56998" lon="4.51963">
        <ele>881.6662598</ele>
        <time>2011-12-04T01:28:57Z</time>
      </trkpt>
      <trkpt lat="45.56995" lon="4.51985">
        <ele>884.0695801</ele>
        <time>2011-12-04T01:29:03Z</time>
      </trkpt>
      <trkpt lat="45.56993" lon="4.52004">
        <ele>882.1469727</ele>
        <time>2011-12-04T01:29:09Z</time>
      </trkpt>
      <trkpt lat="45.56992" lon="4.52022">
        <ele>880.7050781</ele>
        <time>2011-12-04T01:29:14Z</time>
      </trkpt>
      <trkpt lat="45.56992" lon="4.52028">
        <ele>876.8598633</ele>
        <time>2011-12-04T01:29:16Z</time>
      </trkpt>
      <trkpt lat="45.5699" lon="4.52046">
        <ele>871.0917969</ele>
        <time>2011-12-04T01:29:22Z</time>
      </trkpt>
      <trkpt lat="45.56988" lon="4.52057">
        <ele>868.6884766</ele>
        <time>2011-12-04T01:29:26Z</time>
      </trkpt>
      <trkpt lat="45.56983" lon="4.52073">
        <ele>866.2851563</ele>
        <time>2011-12-04T01:29:32Z</time>
      </trkpt>
      <trkpt lat="45.56984" lon="4.5209">
        <ele>862.9206543</ele>
        <time>2011-12-04T01:29:38Z</time>
      </trkpt>
      <trkpt lat="45.56986" lon="4.52098">
        <ele>860.9980469</ele>
        <time>2011-12-04T01:29:41Z</time>
      </trkpt>
      <trkpt lat="45.5699" lon="4.52111">
        <ele>859.0751953</ele>
        <time>2011-12-04T01:29:47Z</time>
      </trkpt>
      <trkpt lat="45.5699" lon="4.52114">
        <ele>859.0751953</ele>
        <time>2011-12-04T01:29:48Z</time>
      </trkpt>
      <trkpt lat="45.56993" lon="4.52131">
        <ele>864.8432617</ele>
        <time>2011-12-04T01:29:53Z</time>
      </trkpt>
      <trkpt lat="45.56994" lon="4.52135">
        <ele>867.7270508</ele>
        <time>2011-12-04T01:29:54Z</time>
      </trkpt>
      <trkpt lat="45.57" lon="4.5216">
        <ele>877.8210449</ele>
        <time>2011-12-04T01:30:01Z</time>
      </trkpt>
      <trkpt lat="45.57002" lon="4.52187">
        <ele>885.0310059</ele>
        <time>2011-12-04T01:30:08Z</time>
      </trkpt>
      <trkpt lat="45.57001" lon="4.52211">
        <ele>886.4729004</ele>
        <time>2011-12-04T01:30:15Z</time>
      </trkpt>
      <trkpt lat="45.57002" lon="4.52226">
        <ele>886.4729004</ele>
        <time>2011-12-04T01:30:20Z</time>
      </trkpt>
      <trkpt lat="45.57001" lon="4.52242">
        <ele>886.4729004</ele>
        <time>2011-12-04T01:30:25Z</time>
      </trkpt>
      <trkpt lat="45.57002" lon="4.52254">
        <ele>887.434082</ele>
        <time>2011-12-04T01:30:28Z</time>
      </trkpt>
      <trkpt lat="45.57006" lon="4.52271">
        <ele>883.1081543</ele>
        <time>2011-12-04T01:30:34Z</time>
      </trkpt>
      <trkpt lat="45.57011" lon="4.52287">
        <ele>881.6662598</ele>
        <time>2011-12-04T01:30:39Z</time>
      </trkpt>
      <trkpt lat="45.57013" lon="4.52303">
        <ele>882.1469727</ele>
        <time>2011-12-04T01:30:43Z</time>
      </trkpt>
      <trkpt lat="45.57016" lon="4.52321">
        <ele>881.6662598</ele>
        <time>2011-12-04T01:30:48Z</time>
      </trkpt>
      <trkpt lat="45.57022" lon="4.52345">
        <ele>882.6276855</ele>
        <time>2011-12-04T01:30:55Z</time>
      </trkpt>
      <trkpt lat="45.57027" lon="4.52367">
        <ele>881.185791</ele>
        <time>2011-12-04T01:31:01Z</time>
      </trkpt>
      <trkpt lat="45.57034" lon="4.52385">
        <ele>879.2629395</ele>
        <time>2011-12-04T01:31:07Z</time>
      </trkpt>
      <trkpt lat="45.57042" lon="4.52402">
        <ele>878.3017578</ele>
        <time>2011-12-04T01:31:13Z</time>
      </trkpt>
      <trkpt lat="45.57051" lon="4.52414">
        <ele>877.8210449</ele>
        <time>2011-12-04T01:31:18Z</time>
      </trkpt>
      <trkpt lat="45.57059" lon="4.52427">
        <ele>875.4174805</ele>
        <time>2011-12-04T01:31:23Z</time>
      </trkpt>
      <trkpt lat="45.57063" lon="4.52439">
        <ele>873.9755859</ele>
        <time>2011-12-04T01:31:27Z</time>
      </trkpt>
      <trkpt lat="45.5707" lon="4.52461">
        <ele>872.0529785</ele>
        <time>2011-12-04T01:31:34Z</time>
      </trkpt>
      <trkpt lat="45.57075" lon="4.52477">
        <ele>872.5336914</ele>
        <time>2011-12-04T01:31:39Z</time>
      </trkpt>
      <trkpt lat="45.57081" lon="4.525">
        <ele>873.0144043</ele>
        <time>2011-12-04T01:31:46Z</time>
      </trkpt>
      <trkpt lat="45.5709" lon="4.5251">
        <ele>873.4951172</ele>
        <time>2011-12-04T01:31:51Z</time>
      </trkpt>
      <trkpt lat="45.57101" lon="4.52522">
        <ele>874.4562988</ele>
        <time>2011-12-04T01:31:57Z</time>
      </trkpt>
      <trkpt lat="45.57111" lon="4.52537">
        <ele>874.4562988</ele>
        <time>2011-12-04T01:32:04Z</time>
      </trkpt>
      <trkpt lat="45.57118" lon="4.5254">
        <ele>875.8981934</ele>
        <time>2011-12-04T01:32:08Z</time>
      </trkpt>
      <trkpt lat="45.57136" lon="4.52538">
        <ele>878.7824707</ele>
        <time>2011-12-04T01:32:16Z</time>
      </trkpt>
      <trkpt lat="45.57153" lon="4.52536">
        <ele>877.3405762</ele>
        <time>2011-12-04T01:32:23Z</time>
      </trkpt>
      <trkpt lat="45.57167" lon="4.52537">
        <ele>875.8981934</ele>
        <time>2011-12-04T01:32:29Z</time>
      </trkpt>
      <trkpt lat="45.57182" lon="4.52537">
        <ele>874.9370117</ele>
        <time>2011-12-04T01:32:35Z</time>
      </trkpt>
      <trkpt lat="45.57199" lon="4.52538">
        <ele>874.4562988</ele>
        <time>2011-12-04T01:32:42Z</time>
      </trkpt>
      <trkpt lat="45.57216" lon="4.52537">
        <ele>873.4951172</ele>
        <time>2011-12-04T01:32:49Z</time>
      </trkpt>
      <trkpt lat="45.5723" lon="4.52537">
        <ele>873.0144043</ele>
        <time>2011-12-04T01:32:55Z</time>
      </trkpt>
      <trkpt lat="45.57247" lon="4.52536">
        <ele>872.5336914</ele>
        <time>2011-12-04T01:33:01Z</time>
      </trkpt>
      <trkpt lat="45.57264" lon="4.52537">
        <ele>871.0917969</ele>
        <time>2011-12-04T01:33:08Z</time>
      </trkpt>
      <trkpt lat="45.57281" lon="4.52536">
        <ele>868.6884766</ele>
        <time>2011-12-04T01:33:15Z</time>
      </trkpt>
      <trkpt lat="45.57295" lon="4.52536">
        <ele>866.2851563</ele>
        <time>2011-12-04T01:33:21Z</time>
      </trkpt>
      <trkpt lat="45.57305" lon="4.52533">
        <ele>864.3625488</ele>
        <time>2011-12-04T01:33:26Z</time>
      </trkpt>
      <trkpt lat="45.57311" lon="4.52518">
        <ele>861.4787598</ele>
        <time>2011-12-04T01:33:32Z</time>
      </trkpt>
      <trkpt lat="45.57315" lon="4.52513">
        <ele>859.0751953</ele>
        <time>2011-12-04T01:33:35Z</time>
      </trkpt>
      <trkpt lat="45.57322" lon="4.52519">
        <ele>857.1525879</ele>
        <time>2011-12-04T01:33:40Z</time>
      </trkpt>
      <trkpt lat="45.57327" lon="4.52534">
        <ele>853.7880859</ele>
        <time>2011-12-04T01:33:44Z</time>
      </trkpt>
      <trkpt lat="45.57329" lon="4.52541">
        <ele>853.307373</ele>
        <time>2011-12-04T01:33:46Z</time>
      </trkpt>
      <trkpt lat="45.57332" lon="4.52547">
        <ele>851.8654785</ele>
        <time>2011-12-04T01:33:48Z</time>
      </trkpt>
      <trkpt lat="45.57335" lon="4.52566">
        <ele>850.9040527</ele>
        <time>2011-12-04T01:33:53Z</time>
      </trkpt>
      <trkpt lat="45.57339" lon="4.5258">
        <ele>849.4621582</ele>
        <time>2011-12-04T01:33:58Z</time>
      </trkpt>
      <trkpt lat="45.57343" lon="4.52588">
        <ele>848.9814453</ele>
        <time>2011-12-04T01:34:03Z</time>
      </trkpt>
      <trkpt lat="45.57345" lon="4.52597">
        <ele>849.9428711</ele>
        <time>2011-12-04T01:34:08Z</time>
      </trkpt>
      <trkpt lat="45.57348" lon="4.52613">
        <ele>851.8654785</ele>
        <time>2011-12-04T01:34:16Z</time>
      </trkpt>
      <trkpt lat="45.57345" lon="4.52628">
        <ele>853.307373</ele>
        <time>2011-12-04T01:34:23Z</time>
      </trkpt>
      <trkpt lat="45.57341" lon="4.52642">
        <ele>858.1140137</ele>
        <time>2011-12-04T01:34:30Z</time>
      </trkpt>
      <trkpt lat="45.57335" lon="4.52656">
        <ele>860.517334</ele>
        <time>2011-12-04T01:34:38Z</time>
      </trkpt>
      <trkpt lat="45.57331" lon="4.5267">
        <ele>860.517334</ele>
        <time>2011-12-04T01:34:46Z</time>
      </trkpt>
      <trkpt lat="45.57327" lon="4.52683">
        <ele>861.9594727</ele>
        <time>2011-12-04T01:34:53Z</time>
      </trkpt>
      <trkpt lat="45.5732" lon="4.52703">
        <ele>864.8432617</ele>
        <time>2011-12-04T01:35:04Z</time>
      </trkpt>
      <trkpt lat="45.57316" lon="4.52714">
        <ele>866.2851563</ele>
        <time>2011-12-04T01:35:11Z</time>
      </trkpt>
      <trkpt lat="45.57311" lon="4.52729">
        <ele>866.2851563</ele>
        <time>2011-12-04T01:35:20Z</time>
      </trkpt>
      <trkpt lat="45.57304" lon="4.52745">
        <ele>867.246582</ele>
        <time>2011-12-04T01:35:30Z</time>
      </trkpt>
      <trkpt lat="45.573" lon="4.52757">
        <ele>870.1303711</ele>
        <time>2011-12-04T01:35:37Z</time>
      </trkpt>
      <trkpt lat="45.57295" lon="4.52768">
        <ele>872.0529785</ele>
        <time>2011-12-04T01:35:44Z</time>
      </trkpt>
      <trkpt lat="45.5729" lon="4.52781">
        <ele>875.4174805</ele>
        <time>2011-12-04T01:35:52Z</time>
      </trkpt>
      <trkpt lat="45.57285" lon="4.52792">
        <ele>875.8981934</ele>
        <time>2011-12-04T01:36:00Z</time>
      </trkpt>
      <trkpt lat="45.5728" lon="4.52805">
        <ele>876.8598633</ele>
        <time>2011-12-04T01:36:08Z</time>
      </trkpt>
      <trkpt lat="45.57275" lon="4.52819">
        <ele>879.2629395</ele>
        <time>2011-12-04T01:36:16Z</time>
      </trkpt>
      <trkpt lat="45.57273" lon="4.52837">
        <ele>879.7436523</ele>
        <time>2011-12-04T01:36:25Z</time>
      </trkpt>
      <trkpt lat="45.5727" lon="4.52855">
        <ele>880.7050781</ele>
        <time>2011-12-04T01:36:33Z</time>
      </trkpt>
      <trkpt lat="45.57266" lon="4.52876">
        <ele>880.7050781</ele>
        <time>2011-12-04T01:36:39Z</time>
      </trkpt>
      <trkpt lat="45.5727" lon="4.52894">
        <ele>879.2629395</ele>
        <time>2011-12-04T01:36:44Z</time>
      </trkpt>
      <trkpt lat="45.57275" lon="4.52911">
        <ele>878.7824707</ele>
        <time>2011-12-04T01:36:49Z</time>
      </trkpt>
      <trkpt lat="45.57282" lon="4.52939">
        <ele>877.3405762</ele>
        <time>2011-12-04T01:36:56Z</time>
      </trkpt>
      <trkpt lat="45.57284" lon="4.52958">
        <ele>875.8981934</ele>
        <time>2011-12-04T01:37:01Z</time>
      </trkpt>
      <trkpt lat="45.57285" lon="4.52979">
        <ele>875.8981934</ele>
        <time>2011-12-04T01:37:06Z</time>
      </trkpt>
      <trkpt lat="45.57287" lon="4.53002">
        <ele>875.8981934</ele>
        <time>2011-12-04T01:37:12Z</time>
      </trkpt>
      <trkpt lat="45.5729" lon="4.53025">
        <ele>874.9370117</ele>
        <time>2011-12-04T01:37:18Z</time>
      </trkpt>
      <trkpt lat="45.57292" lon="4.53044">
        <ele>875.8981934</ele>
        <time>2011-12-04T01:37:23Z</time>
      </trkpt>
      <trkpt lat="45.57294" lon="4.53071">
        <ele>876.3791504</ele>
        <time>2011-12-04T01:37:30Z</time>
      </trkpt>
      <trkpt lat="45.57295" lon="4.53094">
        <ele>875.4174805</ele>
        <time>2011-12-04T01:37:36Z</time>
      </trkpt>
      <trkpt lat="45.57295" lon="4.53123">
        <ele>872.5336914</ele>
        <time>2011-12-04T01:37:44Z</time>
      </trkpt>
      <trkpt lat="45.57295" lon="4.5313">
        <ele>872.0529785</ele>
        <time>2011-12-04T01:37:46Z</time>
      </trkpt>
      <trkpt lat="45.57293" lon="4.53153">
        <ele>870.611084</ele>
        <time>2011-12-04T01:37:52Z</time>
      </trkpt>
      <trkpt lat="45.57293" lon="4.53171">
        <ele>871.0917969</ele>
        <time>2011-12-04T01:37:57Z</time>
      </trkpt>
      <trkpt lat="45.57292" lon="4.53202">
        <ele>871.5722656</ele>
        <time>2011-12-04T01:38:05Z</time>
      </trkpt>
      <trkpt lat="45.5729" lon="4.53225">
        <ele>872.0529785</ele>
        <time>2011-12-04T01:38:11Z</time>
      </trkpt>
      <trkpt lat="45.5729" lon="4.53248">
        <ele>873.4951172</ele>
        <time>2011-12-04T01:38:17Z</time>
      </trkpt>
      <trkpt lat="45.57288" lon="4.53272">
        <ele>873.4951172</ele>
        <time>2011-12-04T01:38:23Z</time>
      </trkpt>
      <trkpt lat="45.57285" lon="4.53291">
        <ele>874.4562988</ele>
        <time>2011-12-04T01:38:28Z</time>
      </trkpt>
      <trkpt lat="45.57281" lon="4.53317">
        <ele>874.9370117</ele>
        <time>2011-12-04T01:38:35Z</time>
      </trkpt>
      <trkpt lat="45.57279" lon="4.53334">
        <ele>874.9370117</ele>
        <time>2011-12-04T01:38:40Z</time>
      </trkpt>
      <trkpt lat="45.57276" lon="4.53361">
        <ele>872.5336914</ele>
        <time>2011-12-04T01:38:47Z</time>
      </trkpt>
      <trkpt lat="45.57277" lon="4.53389">
        <ele>870.611084</ele>
        <time>2011-12-04T01:38:54Z</time>
      </trkpt>
      <trkpt lat="45.57279" lon="4.53405">
        <ele>871.0917969</ele>
        <time>2011-12-04T01:38:58Z</time>
      </trkpt>
      <trkpt lat="45.57283" lon="4.53424">
        <ele>870.611084</ele>
        <time>2011-12-04T01:39:03Z</time>
      </trkpt>
      <trkpt lat="45.57287" lon="4.53446">
        <ele>870.611084</ele>
        <time>2011-12-04T01:39:09Z</time>
      </trkpt>
      <trkpt lat="45.57291" lon="4.53463">
        <ele>870.1303711</ele>
        <time>2011-12-04T01:39:14Z</time>
      </trkpt>
      <trkpt lat="45.57298" lon="4.53477">
        <ele>871.5722656</ele>
        <time>2011-12-04T01:39:19Z</time>
      </trkpt>
      <trkpt lat="45.57302" lon="4.53482">
        <ele>871.5722656</ele>
        <time>2011-12-04T01:39:21Z</time>
      </trkpt>
      <trkpt lat="45.5731" lon="4.53497">
        <ele>871.5722656</ele>
        <time>2011-12-04T01:39:27Z</time>
      </trkpt>
      <trkpt lat="45.57316" lon="4.53511">
        <ele>871.5722656</ele>
        <time>2011-12-04T01:39:32Z</time>
      </trkpt>
      <trkpt lat="45.57323" lon="4.53525">
        <ele>871.0917969</ele>
        <time>2011-12-04T01:39:37Z</time>
      </trkpt>
      <trkpt lat="45.57329" lon="4.53543">
        <ele>870.611084</ele>
        <time>2011-12-04T01:39:43Z</time>
      </trkpt>
      <trkpt lat="45.57332" lon="4.53562">
        <ele>870.1303711</ele>
        <time>2011-12-04T01:39:49Z</time>
      </trkpt>
      <trkpt lat="45.57335" lon="4.53582">
        <ele>869.1691895</ele>
        <time>2011-12-04T01:39:55Z</time>
      </trkpt>
      <trkpt lat="45.57345" lon="4.53603">
        <ele>868.6884766</ele>
        <time>2011-12-04T01:40:02Z</time>
      </trkpt>
      <trkpt lat="45.57355" lon="4.53625">
        <ele>869.1691895</ele>
        <time>2011-12-04T01:40:09Z</time>
      </trkpt>
      <trkpt lat="45.57356" lon="4.53628">
        <ele>869.1691895</ele>
        <time>2011-12-04T01:40:10Z</time>
      </trkpt>
      <trkpt lat="45.57362" lon="4.53643">
        <ele>866.7658691</ele>
        <time>2011-12-04T01:40:15Z</time>
      </trkpt>
      <trkpt lat="45.57368" lon="4.53655">
        <ele>865.8046875</ele>
        <time>2011-12-04T01:40:19Z</time>
      </trkpt>
      <trkpt lat="45.57377" lon="4.53677">
        <ele>867.246582</ele>
        <time>2011-12-04T01:40:26Z</time>
      </trkpt>
      <trkpt lat="45.57386" lon="4.53692">
        <ele>865.3239746</ele>
        <time>2011-12-04T01:40:32Z</time>
      </trkpt>
      <trkpt lat="45.57397" lon="4.53705">
        <ele>863.8818359</ele>
        <time>2011-12-04T01:40:38Z</time>
      </trkpt>
      <trkpt lat="45.57411" lon="4.53721">
        <ele>861.4787598</ele>
        <time>2011-12-04T01:40:45Z</time>
      </trkpt>
      <trkpt lat="45.5742" lon="4.53734">
        <ele>861.9594727</ele>
        <time>2011-12-04T01:40:50Z</time>
      </trkpt>
      <trkpt lat="45.57433" lon="4.53753">
        <ele>861.4787598</ele>
        <time>2011-12-04T01:40:57Z</time>
      </trkpt>
      <trkpt lat="45.57443" lon="4.53766">
        <ele>860.0366211</ele>
        <time>2011-12-04T01:41:02Z</time>
      </trkpt>
      <trkpt lat="45.57445" lon="4.53768">
        <ele>859.5559082</ele>
        <time>2011-12-04T01:41:03Z</time>
      </trkpt>
      <trkpt lat="45.57453" lon="4.53782">
        <ele>860.0366211</ele>
        <time>2011-12-04T01:41:08Z</time>
      </trkpt>
      <trkpt lat="45.57459" lon="4.5379">
        <ele>859.5559082</ele>
        <time>2011-12-04T01:41:11Z</time>
      </trkpt>
      <trkpt lat="45.5747" lon="4.53807">
        <ele>862.4399414</ele>
        <time>2011-12-04T01:41:17Z</time>
      </trkpt>
      <trkpt lat="45.57475" lon="4.53815">
        <ele>861.9594727</ele>
        <time>2011-12-04T01:41:20Z</time>
      </trkpt>
      <trkpt lat="45.57483" lon="4.53827">
        <ele>861.9594727</ele>
        <time>2011-12-04T01:41:25Z</time>
      </trkpt>
      <trkpt lat="45.57492" lon="4.53839">
        <ele>860.0366211</ele>
        <time>2011-12-04T01:41:30Z</time>
      </trkpt>
      <trkpt lat="45.57501" lon="4.53851">
        <ele>857.6333008</ele>
        <time>2011-12-04T01:41:35Z</time>
      </trkpt>
      <trkpt lat="45.57509" lon="4.5387">
        <ele>856.671875</ele>
        <time>2011-12-04T01:41:41Z</time>
      </trkpt>
      <trkpt lat="45.57521" lon="4.53887">
        <ele>852.8266602</ele>
        <time>2011-12-04T01:41:48Z</time>
      </trkpt>
      <trkpt lat="45.57529" lon="4.53908">
        <ele>853.307373</ele>
        <time>2011-12-04T01:41:54Z</time>
      </trkpt>
      <trkpt lat="45.57537" lon="4.53926">
        <ele>850.9040527</ele>
        <time>2011-12-04T01:42:00Z</time>
      </trkpt>
      <trkpt lat="45.57545" lon="4.5394">
        <ele>851.3847656</ele>
        <time>2011-12-04T01:42:05Z</time>
      </trkpt>
      <trkpt lat="45.57552" lon="4.53956">
        <ele>848.5007324</ele>
        <time>2011-12-04T01:42:10Z</time>
      </trkpt>
      <trkpt lat="45.57558" lon="4.53974">
        <ele>847.5395508</ele>
        <time>2011-12-04T01:42:15Z</time>
      </trkpt>
      <trkpt lat="45.57565" lon="4.5399">
        <ele>846.0976563</ele>
        <time>2011-12-04T01:42:20Z</time>
      </trkpt>
      <trkpt lat="45.57567" lon="4.53996">
        <ele>844.6555176</ele>
        <time>2011-12-04T01:42:22Z</time>
      </trkpt>
      <trkpt lat="45.57572" lon="4.54011">
        <ele>843.2133789</ele>
        <time>2011-12-04T01:42:27Z</time>
      </trkpt>
      <trkpt lat="45.57577" lon="4.54026">
        <ele>843.6940918</ele>
        <time>2011-12-04T01:42:32Z</time>
      </trkpt>
      <trkpt lat="45.57579" lon="4.54029">
        <ele>843.6940918</ele>
        <time>2011-12-04T01:42:33Z</time>
      </trkpt>
      <trkpt lat="45.57586" lon="4.54049">
        <ele>845.6169434</ele>
        <time>2011-12-04T01:42:40Z</time>
      </trkpt>
      <trkpt lat="45.57587" lon="4.54055">
        <ele>846.0976563</ele>
        <time>2011-12-04T01:42:43Z</time>
      </trkpt>
      <trkpt lat="45.57587" lon="4.54064">
        <ele>844.1750488</ele>
        <time>2011-12-04T01:42:46Z</time>
      </trkpt>
      <trkpt lat="45.57592" lon="4.54082">
        <ele>844.6555176</ele>
        <time>2011-12-04T01:42:52Z</time>
      </trkpt>
      <trkpt lat="45.57598" lon="4.54096">
        <ele>843.2133789</ele>
        <time>2011-12-04T01:42:57Z</time>
      </trkpt>
      <trkpt lat="45.57599" lon="4.54098">
        <ele>841.7714844</ele>
        <time>2011-12-04T01:42:58Z</time>
      </trkpt>
      <trkpt lat="45.57609" lon="4.5412">
        <ele>836.484375</ele>
        <time>2011-12-04T01:43:05Z</time>
      </trkpt>
      <trkpt lat="45.57613" lon="4.54135">
        <ele>840.3295898</ele>
        <time>2011-12-04T01:43:10Z</time>
      </trkpt>
      <trkpt lat="45.57618" lon="4.5415">
        <ele>842.7329102</ele>
        <time>2011-12-04T01:43:15Z</time>
      </trkpt>
      <trkpt lat="45.57626" lon="4.54163">
        <ele>843.2133789</ele>
        <time>2011-12-04T01:43:20Z</time>
      </trkpt>
      <trkpt lat="45.57641" lon="4.54188">
        <ele>844.1750488</ele>
        <time>2011-12-04T01:43:29Z</time>
      </trkpt>
      <trkpt lat="45.57649" lon="4.54199">
        <ele>844.1750488</ele>
        <time>2011-12-04T01:43:34Z</time>
      </trkpt>
      <trkpt lat="45.57658" lon="4.54209">
        <ele>842.7329102</ele>
        <time>2011-12-04T01:43:39Z</time>
      </trkpt>
      <trkpt lat="45.57668" lon="4.54218">
        <ele>842.2521973</ele>
        <time>2011-12-04T01:43:44Z</time>
      </trkpt>
      <trkpt lat="45.57675" lon="4.54225">
        <ele>842.2521973</ele>
        <time>2011-12-04T01:43:48Z</time>
      </trkpt>
      <trkpt lat="45.57686" lon="4.54235">
        <ele>841.7714844</ele>
        <time>2011-12-04T01:43:53Z</time>
      </trkpt>
      <trkpt lat="45.57696" lon="4.54244">
        <ele>843.2133789</ele>
        <time>2011-12-04T01:43:57Z</time>
      </trkpt>
      <trkpt lat="45.57706" lon="4.54253">
        <ele>845.6169434</ele>
        <time>2011-12-04T01:44:01Z</time>
      </trkpt>
      <trkpt lat="45.57718" lon="4.54265">
        <ele>848.0202637</ele>
        <time>2011-12-04T01:44:06Z</time>
      </trkpt>
      <trkpt lat="45.57728" lon="4.54276">
        <ele>848.9814453</ele>
        <time>2011-12-04T01:44:10Z</time>
      </trkpt>
      <trkpt lat="45.57738" lon="4.54284">
        <ele>848.0202637</ele>
        <time>2011-12-04T01:44:14Z</time>
      </trkpt>
      <trkpt lat="45.57749" lon="4.54297">
        <ele>849.4621582</ele>
        <time>2011-12-04T01:44:19Z</time>
      </trkpt>
      <trkpt lat="45.5776" lon="4.54307">
        <ele>848.9814453</ele>
        <time>2011-12-04T01:44:24Z</time>
      </trkpt>
      <trkpt lat="45.57767" lon="4.54316">
        <ele>848.0202637</ele>
        <time>2011-12-04T01:44:28Z</time>
      </trkpt>
      <trkpt lat="45.57774" lon="4.54322">
        <ele>848.0202637</ele>
        <time>2011-12-04T01:44:31Z</time>
      </trkpt>
      <trkpt lat="45.57783" lon="4.54335">
        <ele>843.6940918</ele>
        <time>2011-12-04T01:44:37Z</time>
      </trkpt>
      <trkpt lat="45.57791" lon="4.54344">
        <ele>843.2133789</ele>
        <time>2011-12-04T01:44:41Z</time>
      </trkpt>
      <trkpt lat="45.57799" lon="4.54352">
        <ele>842.7329102</ele>
        <time>2011-12-04T01:44:45Z</time>
      </trkpt>
      <trkpt lat="45.57803" lon="4.54357">
        <ele>842.2521973</ele>
        <time>2011-12-04T01:44:47Z</time>
      </trkpt>
      <trkpt lat="45.57815" lon="4.54372">
        <ele>841.2907715</ele>
        <time>2011-12-04T01:44:53Z</time>
      </trkpt>
      <trkpt lat="45.57826" lon="4.54381">
        <ele>842.2521973</ele>
        <time>2011-12-04T01:44:57Z</time>
      </trkpt>
      <trkpt lat="45.57834" lon="4.54395">
        <ele>839.848877</ele>
        <time>2011-12-04T01:45:02Z</time>
      </trkpt>
      <trkpt lat="45.57846" lon="4.54409">
        <ele>837.4455566</ele>
        <time>2011-12-04T01:45:08Z</time>
      </trkpt>
      <trkpt lat="45.57856" lon="4.54424">
        <ele>836.9648438</ele>
        <time>2011-12-04T01:45:13Z</time>
      </trkpt>
      <trkpt lat="45.57866" lon="4.5444">
        <ele>835.5229492</ele>
        <time>2011-12-04T01:45:19Z</time>
      </trkpt>
      <trkpt lat="45.57871" lon="4.54453">
        <ele>834.5617676</ele>
        <time>2011-12-04T01:45:23Z</time>
      </trkpt>
      <trkpt lat="45.57877" lon="4.54471">
        <ele>834.0810547</ele>
        <time>2011-12-04T01:45:29Z</time>
      </trkpt>
      <trkpt lat="45.57885" lon="4.54486">
        <ele>833.1196289</ele>
        <time>2011-12-04T01:45:34Z</time>
      </trkpt>
      <trkpt lat="45.57886" lon="4.5451">
        <ele>834.0810547</ele>
        <time>2011-12-04T01:45:40Z</time>
      </trkpt>
      <trkpt lat="45.57891" lon="4.54525">
        <ele>837.4455566</ele>
        <time>2011-12-04T01:45:45Z</time>
      </trkpt>
      <trkpt lat="45.57899" lon="4.54548">
        <ele>841.2907715</ele>
        <time>2011-12-04T01:45:53Z</time>
      </trkpt>
      <trkpt lat="45.57904" lon="4.54569">
        <ele>842.2521973</ele>
        <time>2011-12-04T01:45:59Z</time>
      </trkpt>
      <trkpt lat="45.57906" lon="4.54591">
        <ele>842.2521973</ele>
        <time>2011-12-04T01:46:05Z</time>
      </trkpt>
      <trkpt lat="45.57907" lon="4.54612">
        <ele>844.1750488</ele>
        <time>2011-12-04T01:46:10Z</time>
      </trkpt>
      <trkpt lat="45.57908" lon="4.54628">
        <ele>846.0976563</ele>
        <time>2011-12-04T01:46:14Z</time>
      </trkpt>
      <trkpt lat="45.57909" lon="4.54633">
        <ele>847.5395508</ele>
        <time>2011-12-04T01:46:15Z</time>
      </trkpt>
      <trkpt lat="45.5791" lon="4.54653">
        <ele>846.5783691</ele>
        <time>2011-12-04T01:46:21Z</time>
      </trkpt>
      <trkpt lat="45.57911" lon="4.54664">
        <ele>842.7329102</ele>
        <time>2011-12-04T01:46:25Z</time>
      </trkpt>
      <trkpt lat="45.57909" lon="4.54675">
        <ele>837.4455566</ele>
        <time>2011-12-04T01:46:32Z</time>
      </trkpt>
      <trkpt lat="45.57904" lon="4.54687">
        <ele>830.7165527</ele>
        <time>2011-12-04T01:46:38Z</time>
      </trkpt>
      <trkpt lat="45.57901" lon="4.54705">
        <ele>827.3518066</ele>
        <time>2011-12-04T01:46:43Z</time>
      </trkpt>
      <trkpt lat="45.57901" lon="4.54723">
        <ele>823.5065918</ele>
        <time>2011-12-04T01:46:48Z</time>
      </trkpt>
      <trkpt lat="45.57902" lon="4.54735">
        <ele>821.1032715</ele>
        <time>2011-12-04T01:46:52Z</time>
      </trkpt>
      <trkpt lat="45.57902" lon="4.54738">
        <ele>820.6225586</ele>
        <time>2011-12-04T01:46:53Z</time>
      </trkpt>
      <trkpt lat="45.57904" lon="4.5476">
        <ele>816.2966309</ele>
        <time>2011-12-04T01:47:00Z</time>
      </trkpt>
      <trkpt lat="45.57904" lon="4.54765">
        <ele>814.8547363</ele>
        <time>2011-12-04T01:47:02Z</time>
      </trkpt>
      <trkpt lat="45.57902" lon="4.5478">
        <ele>810.5285645</ele>
        <time>2011-12-04T01:47:08Z</time>
      </trkpt>
      <trkpt lat="45.57902" lon="4.54791">
        <ele>808.1254883</ele>
        <time>2011-12-04T01:47:12Z</time>
      </trkpt>
      <trkpt lat="45.57904" lon="4.54813">
        <ele>808.605957</ele>
        <time>2011-12-04T01:47:18Z</time>
      </trkpt>
      <trkpt lat="45.57905" lon="4.54834">
        <ele>812.451416</ele>
        <time>2011-12-04T01:47:23Z</time>
      </trkpt>
      <trkpt lat="45.57905" lon="4.54849">
        <ele>813.8933105</ele>
        <time>2011-12-04T01:47:28Z</time>
      </trkpt>
      <trkpt lat="45.57904" lon="4.54853">
        <ele>814.3740234</ele>
        <time>2011-12-04T01:47:29Z</time>
      </trkpt>
      <trkpt lat="45.57902" lon="4.54876">
        <ele>818.2192383</ele>
        <time>2011-12-04T01:47:35Z</time>
      </trkpt>
      <trkpt lat="45.57901" lon="4.54895">
        <ele>818.2192383</ele>
        <time>2011-12-04T01:47:40Z</time>
      </trkpt>
      <trkpt lat="45.57899" lon="4.54919">
        <ele>817.7385254</ele>
        <time>2011-12-04T01:47:46Z</time>
      </trkpt>
      <trkpt lat="45.57897" lon="4.54943">
        <ele>816.7773438</ele>
        <time>2011-12-04T01:47:52Z</time>
      </trkpt>
      <trkpt lat="45.57895" lon="4.54962">
        <ele>816.2966309</ele>
        <time>2011-12-04T01:47:57Z</time>
      </trkpt>
      <trkpt lat="45.57892" lon="4.5498">
        <ele>814.8547363</ele>
        <time>2011-12-04T01:48:02Z</time>
      </trkpt>
      <trkpt lat="45.57887" lon="4.55001">
        <ele>815.8161621</ele>
        <time>2011-12-04T01:48:07Z</time>
      </trkpt>
      <trkpt lat="45.57882" lon="4.55022">
        <ele>816.2966309</ele>
        <time>2011-12-04T01:48:13Z</time>
      </trkpt>
      <trkpt lat="45.57878" lon="4.55044">
        <ele>816.2966309</ele>
        <time>2011-12-04T01:48:19Z</time>
      </trkpt>
      <trkpt lat="45.57873" lon="4.55065">
        <ele>815.8161621</ele>
        <time>2011-12-04T01:48:25Z</time>
      </trkpt>
      <trkpt lat="45.57867" lon="4.5509">
        <ele>814.3740234</ele>
        <time>2011-12-04T01:48:32Z</time>
      </trkpt>
      <trkpt lat="45.57863" lon="4.55109">
        <ele>814.3740234</ele>
        <time>2011-12-04T01:48:37Z</time>
      </trkpt>
      <trkpt lat="45.5786" lon="4.55127">
        <ele>813.8933105</ele>
        <time>2011-12-04T01:48:42Z</time>
      </trkpt>
      <trkpt lat="45.5786" lon="4.55145">
        <ele>813.8933105</ele>
        <time>2011-12-04T01:48:47Z</time>
      </trkpt>
      <trkpt lat="45.57859" lon="4.5516">
        <ele>813.8933105</ele>
        <time>2011-12-04T01:48:52Z</time>
      </trkpt>
      <trkpt lat="45.5786" lon="4.55183">
        <ele>813.8933105</ele>
        <time>2011-12-04T01:48:59Z</time>
      </trkpt>
      <trkpt lat="45.57859" lon="4.55198">
        <ele>813.4128418</ele>
        <time>2011-12-04T01:49:04Z</time>
      </trkpt>
      <trkpt lat="45.57859" lon="4.55201">
        <ele>813.4128418</ele>
        <time>2011-12-04T01:49:05Z</time>
      </trkpt>
      <trkpt lat="45.57856" lon="4.55219">
        <ele>813.4128418</ele>
        <time>2011-12-04T01:49:11Z</time>
      </trkpt>
      <trkpt lat="45.57852" lon="4.55241">
        <ele>814.8547363</ele>
        <time>2011-12-04T01:49:18Z</time>
      </trkpt>
      <trkpt lat="45.57854" lon="4.55257">
        <ele>814.8547363</ele>
        <time>2011-12-04T01:49:23Z</time>
      </trkpt>
      <trkpt lat="45.57856" lon="4.55284">
        <ele>814.3740234</ele>
        <time>2011-12-04T01:49:31Z</time>
      </trkpt>
      <trkpt lat="45.57858" lon="4.553">
        <ele>812.451416</ele>
        <time>2011-12-04T01:49:36Z</time>
      </trkpt>
      <trkpt lat="45.5786" lon="4.55324">
        <ele>810.5285645</ele>
        <time>2011-12-04T01:49:43Z</time>
      </trkpt>
      <trkpt lat="45.57862" lon="4.55339">
        <ele>809.5673828</ele>
        <time>2011-12-04T01:49:47Z</time>
      </trkpt>
      <trkpt lat="45.57866" lon="4.55364">
        <ele>808.1254883</ele>
        <time>2011-12-04T01:49:54Z</time>
      </trkpt>
      <trkpt lat="45.57872" lon="4.55376">
        <ele>805.722168</ele>
        <time>2011-12-04T01:49:58Z</time>
      </trkpt>
      <trkpt lat="45.57877" lon="4.55396">
        <ele>806.6833496</ele>
        <time>2011-12-04T01:50:04Z</time>
      </trkpt>
      <trkpt lat="45.57884" lon="4.55411">
        <ele>807.1640625</ele>
        <time>2011-12-04T01:50:09Z</time>
      </trkpt>
      <trkpt lat="45.57887" lon="4.55421">
        <ele>808.1254883</ele>
        <time>2011-12-04T01:50:12Z</time>
      </trkpt>
      <trkpt lat="45.57898" lon="4.55443">
        <ele>809.0866699</ele>
        <time>2011-12-04T01:50:19Z</time>
      </trkpt>
      <trkpt lat="45.57904" lon="4.55464">
        <ele>809.5673828</ele>
        <time>2011-12-04T01:50:25Z</time>
      </trkpt>
      <trkpt lat="45.57907" lon="4.55481">
        <ele>810.0478516</ele>
        <time>2011-12-04T01:50:30Z</time>
      </trkpt>
      <trkpt lat="45.57913" lon="4.55507">
        <ele>808.605957</ele>
        <time>2011-12-04T01:50:38Z</time>
      </trkpt>
      <trkpt lat="45.57916" lon="4.55525">
        <ele>808.605957</ele>
        <time>2011-12-04T01:50:43Z</time>
      </trkpt>
      <trkpt lat="45.57919" lon="4.55543">
        <ele>807.1640625</ele>
        <time>2011-12-04T01:50:48Z</time>
      </trkpt>
      <trkpt lat="45.57921" lon="4.55562">
        <ele>806.6833496</ele>
        <time>2011-12-04T01:50:53Z</time>
      </trkpt>
      <trkpt lat="45.57924" lon="4.55583">
        <ele>807.1640625</ele>
        <time>2011-12-04T01:50:59Z</time>
      </trkpt>
      <trkpt lat="45.5793" lon="4.55603">
        <ele>808.605957</ele>
        <time>2011-12-04T01:51:05Z</time>
      </trkpt>
      <trkpt lat="45.57934" lon="4.55617">
        <ele>809.5673828</ele>
        <time>2011-12-04T01:51:10Z</time>
      </trkpt>
      <trkpt lat="45.57936" lon="4.55633">
        <ele>811.0092773</ele>
        <time>2011-12-04T01:51:15Z</time>
      </trkpt>
      <trkpt lat="45.57943" lon="4.55655">
        <ele>811.9707031</ele>
        <time>2011-12-04T01:51:22Z</time>
      </trkpt>
      <trkpt lat="45.57947" lon="4.55671">
        <ele>813.4128418</ele>
        <time>2011-12-04T01:51:27Z</time>
      </trkpt>
      <trkpt lat="45.57953" lon="4.55686">
        <ele>816.2966309</ele>
        <time>2011-12-04T01:51:32Z</time>
      </trkpt>
      <trkpt lat="45.5796" lon="4.55708">
        <ele>817.2580566</ele>
        <time>2011-12-04T01:51:39Z</time>
      </trkpt>
      <trkpt lat="45.57964" lon="4.55722">
        <ele>816.2966309</ele>
        <time>2011-12-04T01:51:44Z</time>
      </trkpt>
      <trkpt lat="45.57968" lon="4.55738">
        <ele>816.2966309</ele>
        <time>2011-12-04T01:51:49Z</time>
      </trkpt>
      <trkpt lat="45.57974" lon="4.55754">
        <ele>813.4128418</ele>
        <time>2011-12-04T01:51:55Z</time>
      </trkpt>
      <trkpt lat="45.57979" lon="4.55768">
        <ele>812.9321289</ele>
        <time>2011-12-04T01:52:00Z</time>
      </trkpt>
      <trkpt lat="45.57983" lon="4.55788">
        <ele>813.8933105</ele>
        <time>2011-12-04T01:52:06Z</time>
      </trkpt>
      <trkpt lat="45.57987" lon="4.55804">
        <ele>811.0092773</ele>
        <time>2011-12-04T01:52:11Z</time>
      </trkpt>
      <trkpt lat="45.57988" lon="4.55818">
        <ele>812.451416</ele>
        <time>2011-12-04T01:52:15Z</time>
      </trkpt>
      <trkpt lat="45.5799" lon="4.55828">
        <ele>811.4899902</ele>
        <time>2011-12-04T01:52:19Z</time>
      </trkpt>
      <trkpt lat="45.57993" lon="4.55843">
        <ele>808.1254883</ele>
        <time>2011-12-04T01:52:25Z</time>
      </trkpt>
      <trkpt lat="45.57996" lon="4.55854">
        <ele>805.722168</ele>
        <time>2011-12-04T01:52:30Z</time>
      </trkpt>
      <trkpt lat="45.57998" lon="4.55861">
        <ele>804.7607422</ele>
        <time>2011-12-04T01:52:33Z</time>
      </trkpt>
      <trkpt lat="45.58004" lon="4.55871">
        <ele>801.8769531</ele>
        <time>2011-12-04T01:52:39Z</time>
      </trkpt>
      <trkpt lat="45.58007" lon="4.55878">
        <ele>802.3574219</ele>
        <time>2011-12-04T01:52:44Z</time>
      </trkpt>
      <trkpt lat="45.58011" lon="4.55893">
        <ele>805.2414551</ele>
        <time>2011-12-04T01:52:52Z</time>
      </trkpt>
      <trkpt lat="45.58012" lon="4.559">
        <ele>803.7995605</ele>
        <time>2011-12-04T01:52:56Z</time>
      </trkpt>
      <trkpt lat="45.58015" lon="4.55906">
        <ele>802.8381348</ele>
        <time>2011-12-04T01:53:00Z</time>
      </trkpt>
      <trkpt lat="45.58018" lon="4.55922">
        <ele>810.0478516</ele>
        <time>2011-12-04T01:53:08Z</time>
      </trkpt>
      <trkpt lat="45.58019" lon="4.55931">
        <ele>815.8161621</ele>
        <time>2011-12-04T01:53:12Z</time>
      </trkpt>
      <trkpt lat="45.58019" lon="4.55935">
        <ele>817.7385254</ele>
        <time>2011-12-04T01:53:14Z</time>
      </trkpt>
      <trkpt lat="45.5802" lon="4.55951">
        <ele>818.2192383</ele>
        <time>2011-12-04T01:53:22Z</time>
      </trkpt>
      <trkpt lat="45.58023" lon="4.55964">
        <ele>820.1418457</ele>
        <time>2011-12-04T01:53:28Z</time>
      </trkpt>
      <trkpt lat="45.58024" lon="4.55972">
        <ele>822.0644531</ele>
        <time>2011-12-04T01:53:32Z</time>
      </trkpt>
      <trkpt lat="45.58026" lon="4.5598">
        <ele>822.545166</ele>
        <time>2011-12-04T01:53:36Z</time>
      </trkpt>
      <trkpt lat="45.58028" lon="4.5599">
        <ele>820.6225586</ele>
        <time>2011-12-04T01:53:41Z</time>
      </trkpt>
      <trkpt lat="45.58037" lon="4.56002">
        <ele>815.8161621</ele>
        <time>2011-12-04T01:53:47Z</time>
      </trkpt>
      <trkpt lat="45.58041" lon="4.56013">
        <ele>812.451416</ele>
        <time>2011-12-04T01:53:52Z</time>
      </trkpt>
      <trkpt lat="45.58041" lon="4.56015">
        <ele>810.5285645</ele>
        <time>2011-12-04T01:53:53Z</time>
      </trkpt>
      <trkpt lat="45.58049" lon="4.56036">
        <ele>805.722168</ele>
        <time>2011-12-04T01:54:00Z</time>
      </trkpt>
      <trkpt lat="45.58051" lon="4.56047">
        <ele>804.2802734</ele>
        <time>2011-12-04T01:54:05Z</time>
      </trkpt>
      <trkpt lat="45.58053" lon="4.56055">
        <ele>802.8381348</ele>
        <time>2011-12-04T01:54:09Z</time>
      </trkpt>
      <trkpt lat="45.58053" lon="4.5607">
        <ele>805.722168</ele>
        <time>2011-12-04T01:54:16Z</time>
      </trkpt>
      <trkpt lat="45.58052" lon="4.56079">
        <ele>806.2026367</ele>
        <time>2011-12-04T01:54:20Z</time>
      </trkpt>
      <trkpt lat="45.58048" lon="4.56102">
        <ele>810.0478516</ele>
        <time>2011-12-04T01:54:29Z</time>
      </trkpt>
      <trkpt lat="45.58048" lon="4.56119">
        <ele>811.9707031</ele>
        <time>2011-12-04T01:54:35Z</time>
      </trkpt>
      <trkpt lat="45.58047" lon="4.56134">
        <ele>813.4128418</ele>
        <time>2011-12-04T01:54:39Z</time>
      </trkpt>
      <trkpt lat="45.58049" lon="4.5615">
        <ele>813.8933105</ele>
        <time>2011-12-04T01:54:44Z</time>
      </trkpt>
      <trkpt lat="45.58052" lon="4.56163">
        <ele>817.2580566</ele>
        <time>2011-12-04T01:54:48Z</time>
      </trkpt>
      <trkpt lat="45.58056" lon="4.56179">
        <ele>815.3354492</ele>
        <time>2011-12-04T01:54:54Z</time>
      </trkpt>
      <trkpt lat="45.58058" lon="4.56183">
        <ele>813.8933105</ele>
        <time>2011-12-04T01:54:56Z</time>
      </trkpt>
      <trkpt lat="45.58066" lon="4.56197">
        <ele>808.605957</ele>
        <time>2011-12-04T01:55:02Z</time>
      </trkpt>
      <trkpt lat="45.58071" lon="4.56213">
        <ele>807.1640625</ele>
        <time>2011-12-04T01:55:08Z</time>
      </trkpt>
      <trkpt lat="45.58075" lon="4.56224">
        <ele>805.2414551</ele>
        <time>2011-12-04T01:55:12Z</time>
      </trkpt>
      <trkpt lat="45.58083" lon="4.56242">
        <ele>803.7995605</ele>
        <time>2011-12-04T01:55:18Z</time>
      </trkpt>
      <trkpt lat="45.58084" lon="4.56245">
        <ele>804.2802734</ele>
        <time>2011-12-04T01:55:19Z</time>
      </trkpt>
      <trkpt lat="45.58093" lon="4.56263">
        <ele>805.2414551</ele>
        <time>2011-12-04T01:55:26Z</time>
      </trkpt>
      <trkpt lat="45.581" lon="4.56276">
        <ele>805.2414551</ele>
        <time>2011-12-04T01:55:31Z</time>
      </trkpt>
      <trkpt lat="45.58103" lon="4.56281">
        <ele>804.7607422</ele>
        <time>2011-12-04T01:55:33Z</time>
      </trkpt>
      <trkpt lat="45.58109" lon="4.56305">
        <ele>804.2802734</ele>
        <time>2011-12-04T01:55:40Z</time>
      </trkpt>
      <trkpt lat="45.58113" lon="4.56317">
        <ele>802.8381348</ele>
        <time>2011-12-04T01:55:44Z</time>
      </trkpt>
      <trkpt lat="45.58119" lon="4.56338">
        <ele>800.4350586</ele>
        <time>2011-12-04T01:55:50Z</time>
      </trkpt>
      <trkpt lat="45.58125" lon="4.56352">
        <ele>802.3574219</ele>
        <time>2011-12-04T01:55:55Z</time>
      </trkpt>
      <trkpt lat="45.58132" lon="4.56364">
        <ele>803.7995605</ele>
        <time>2011-12-04T01:55:59Z</time>
      </trkpt>
      <trkpt lat="45.58141" lon="4.56377">
        <ele>813.8933105</ele>
        <time>2011-12-04T01:56:05Z</time>
      </trkpt>
      <trkpt lat="45.58146" lon="4.56382">
        <ele>816.7773438</ele>
        <time>2011-12-04T01:56:08Z</time>
      </trkpt>
      <trkpt lat="45.58152" lon="4.56388">
        <ele>817.7385254</ele>
        <time>2011-12-04T01:56:11Z</time>
      </trkpt>
      <trkpt lat="45.58158" lon="4.56396">
        <ele>817.7385254</ele>
        <time>2011-12-04T01:56:15Z</time>
      </trkpt>
      <trkpt lat="45.58172" lon="4.56411">
        <ele>815.8161621</ele>
        <time>2011-12-04T01:56:21Z</time>
      </trkpt>
      <trkpt lat="45.58176" lon="4.56416">
        <ele>815.3354492</ele>
        <time>2011-12-04T01:56:23Z</time>
      </trkpt>
      <trkpt lat="45.58185" lon="4.56429">
        <ele>814.8547363</ele>
        <time>2011-12-04T01:56:28Z</time>
      </trkpt>
      <trkpt lat="45.5819" lon="4.56435">
        <ele>815.8161621</ele>
        <time>2011-12-04T01:56:31Z</time>
      </trkpt>
      <trkpt lat="45.58202" lon="4.56448">
        <ele>816.7773438</ele>
        <time>2011-12-04T01:56:37Z</time>
      </trkpt>
      <trkpt lat="45.58212" lon="4.5647">
        <ele>818.6999512</ele>
        <time>2011-12-04T01:56:44Z</time>
      </trkpt>
      <trkpt lat="45.58218" lon="4.56483">
        <ele>815.8161621</ele>
        <time>2011-12-04T01:56:49Z</time>
      </trkpt>
      <trkpt lat="45.58219" lon="4.56486">
        <ele>815.8161621</ele>
        <time>2011-12-04T01:56:50Z</time>
      </trkpt>
      <trkpt lat="45.5823" lon="4.56501">
        <ele>809.5673828</ele>
        <time>2011-12-04T01:56:56Z</time>
      </trkpt>
      <trkpt lat="45.58237" lon="4.56512">
        <ele>807.1640625</ele>
        <time>2011-12-04T01:57:00Z</time>
      </trkpt>
      <trkpt lat="45.58244" lon="4.5653">
        <ele>808.605957</ele>
        <time>2011-12-04T01:57:06Z</time>
      </trkpt>
      <trkpt lat="45.5825" lon="4.56544">
        <ele>811.0092773</ele>
        <time>2011-12-04T01:57:11Z</time>
      </trkpt>
      <trkpt lat="45.58259" lon="4.56555">
        <ele>810.0478516</ele>
        <time>2011-12-04T01:57:16Z</time>
      </trkpt>
      <trkpt lat="45.58265" lon="4.56564">
        <ele>808.605957</ele>
        <time>2011-12-04T01:57:19Z</time>
      </trkpt>
      <trkpt lat="45.58275" lon="4.56581">
        <ele>807.6447754</ele>
        <time>2011-12-04T01:57:25Z</time>
      </trkpt>
      <trkpt lat="45.58284" lon="4.56594">
        <ele>803.7995605</ele>
        <time>2011-12-04T01:57:30Z</time>
      </trkpt>
      <trkpt lat="45.58288" lon="4.56602">
        <ele>801.8769531</ele>
        <time>2011-12-04T01:57:33Z</time>
      </trkpt>
      <trkpt lat="45.58298" lon="4.56615">
        <ele>799.9543457</ele>
        <time>2011-12-04T01:57:39Z</time>
      </trkpt>
      <trkpt lat="45.58306" lon="4.56628">
        <ele>795.6281738</ele>
        <time>2011-12-04T01:57:44Z</time>
      </trkpt>
      <trkpt lat="45.58319" lon="4.56644">
        <ele>792.7443848</ele>
        <time>2011-12-04T01:57:51Z</time>
      </trkpt>
      <trkpt lat="45.58331" lon="4.56665">
        <ele>801.8769531</ele>
        <time>2011-12-04T01:57:58Z</time>
      </trkpt>
      <trkpt lat="45.58336" lon="4.56675">
        <ele>801.3962402</ele>
        <time>2011-12-04T01:58:02Z</time>
      </trkpt>
      <trkpt lat="45.58347" lon="4.56684">
        <ele>799.4736328</ele>
        <time>2011-12-04T01:58:07Z</time>
      </trkpt>
      <trkpt lat="45.58352" lon="4.5669">
        <ele>796.5898438</ele>
        <time>2011-12-04T01:58:10Z</time>
      </trkpt>
      <trkpt lat="45.58358" lon="4.56702">
        <ele>793.7055664</ele>
        <time>2011-12-04T01:58:15Z</time>
      </trkpt>
      <trkpt lat="45.58369" lon="4.56723">
        <ele>790.8215332</ele>
        <time>2011-12-04T01:58:22Z</time>
      </trkpt>
      <trkpt lat="45.58376" lon="4.56747">
        <ele>790.3410645</ele>
        <time>2011-12-04T01:58:29Z</time>
      </trkpt>
      <trkpt lat="45.58375" lon="4.56767">
        <ele>792.7443848</ele>
        <time>2011-12-04T01:58:34Z</time>
      </trkpt>
      <trkpt lat="45.5837" lon="4.56791">
        <ele>792.2636719</ele>
        <time>2011-12-04T01:58:41Z</time>
      </trkpt>
      <trkpt lat="45.58369" lon="4.56812">
        <ele>793.7055664</ele>
        <time>2011-12-04T01:58:47Z</time>
      </trkpt>
      <trkpt lat="45.5837" lon="4.56828">
        <ele>793.7055664</ele>
        <time>2011-12-04T01:58:52Z</time>
      </trkpt>
      <trkpt lat="45.58372" lon="4.56833">
        <ele>793.7055664</ele>
        <time>2011-12-04T01:58:54Z</time>
      </trkpt>
      <trkpt lat="45.58374" lon="4.56844">
        <ele>795.6281738</ele>
        <time>2011-12-04T01:59:00Z</time>
      </trkpt>
      <trkpt lat="45.5838" lon="4.56855">
        <ele>797.0703125</ele>
        <time>2011-12-04T01:59:07Z</time>
      </trkpt>
      <trkpt lat="45.5839" lon="4.56861">
        <ele>798.0317383</ele>
        <time>2011-12-04T01:59:13Z</time>
      </trkpt>
      <trkpt lat="45.584" lon="4.5687">
        <ele>798.512207</ele>
        <time>2011-12-04T01:59:19Z</time>
      </trkpt>
      <trkpt lat="45.58406" lon="4.56879">
        <ele>799.4736328</ele>
        <time>2011-12-04T01:59:24Z</time>
      </trkpt>
      <trkpt lat="45.58414" lon="4.56886">
        <ele>799.4736328</ele>
        <time>2011-12-04T01:59:29Z</time>
      </trkpt>
      <trkpt lat="45.58424" lon="4.56895">
        <ele>800.4350586</ele>
        <time>2011-12-04T01:59:34Z</time>
      </trkpt>
      <trkpt lat="45.58434" lon="4.56907">
        <ele>801.8769531</ele>
        <time>2011-12-04T01:59:40Z</time>
      </trkpt>
      <trkpt lat="45.58447" lon="4.56916">
        <ele>803.7995605</ele>
        <time>2011-12-04T01:59:45Z</time>
      </trkpt>
      <trkpt lat="45.58457" lon="4.56922">
        <ele>803.3188477</ele>
        <time>2011-12-04T01:59:51Z</time>
      </trkpt>
      <trkpt lat="45.58464" lon="4.56926">
        <ele>802.3574219</ele>
        <time>2011-12-04T01:59:58Z</time>
      </trkpt>
      <trkpt lat="45.58476" lon="4.56929">
        <ele>800.4350586</ele>
        <time>2011-12-04T02:00:06Z</time>
      </trkpt>
      <trkpt lat="45.58485" lon="4.56936">
        <ele>799.9543457</ele>
        <time>2011-12-04T02:00:13Z</time>
      </trkpt>
      <trkpt lat="45.58487" lon="4.56938">
        <ele>799.9543457</ele>
        <time>2011-12-04T02:00:15Z</time>
      </trkpt>
      <trkpt lat="45.58497" lon="4.56948">
        <ele>802.8381348</ele>
        <time>2011-12-04T02:00:23Z</time>
      </trkpt>
      <trkpt lat="45.58506" lon="4.56957">
        <ele>804.2802734</ele>
        <time>2011-12-04T02:00:31Z</time>
      </trkpt>
      <trkpt lat="45.58517" lon="4.56968">
        <ele>805.2414551</ele>
        <time>2011-12-04T02:00:40Z</time>
      </trkpt>
      <trkpt lat="45.58527" lon="4.56977">
        <ele>806.6833496</ele>
        <time>2011-12-04T02:00:49Z</time>
      </trkpt>
      <trkpt lat="45.58534" lon="4.56983">
        <ele>806.2026367</ele>
        <time>2011-12-04T02:00:56Z</time>
      </trkpt>
      <trkpt lat="45.58542" lon="4.5699">
        <ele>806.6833496</ele>
        <time>2011-12-04T02:01:04Z</time>
      </trkpt>
      <trkpt lat="45.58554" lon="4.56994">
        <ele>808.605957</ele>
        <time>2011-12-04T02:01:12Z</time>
      </trkpt>
      <trkpt lat="45.58569" lon="4.57006">
        <ele>811.0092773</ele>
        <time>2011-12-04T02:01:21Z</time>
      </trkpt>
      <trkpt lat="45.58578" lon="4.57019">
        <ele>809.0866699</ele>
        <time>2011-12-04T02:01:28Z</time>
      </trkpt>
      <trkpt lat="45.58586" lon="4.57031">
        <ele>807.1640625</ele>
        <time>2011-12-04T02:01:34Z</time>
      </trkpt>
      <trkpt lat="45.58593" lon="4.57042">
        <ele>804.7607422</ele>
        <time>2011-12-04T02:01:40Z</time>
      </trkpt>
      <trkpt lat="45.58596" lon="4.57047">
        <ele>805.722168</ele>
        <time>2011-12-04T02:01:43Z</time>
      </trkpt>
      <trkpt lat="45.58602" lon="4.57059">
        <ele>803.7995605</ele>
        <time>2011-12-04T02:01:50Z</time>
      </trkpt>
      <trkpt lat="45.58602" lon="4.57065">
        <ele>808.605957</ele>
        <time>2011-12-04T02:01:52Z</time>
      </trkpt>
      <trkpt lat="45.58609" lon="4.57085">
        <ele>814.8547363</ele>
        <time>2011-12-04T02:01:58Z</time>
      </trkpt>
      <trkpt lat="45.58619" lon="4.57106">
        <ele>815.3354492</ele>
        <time>2011-12-04T02:02:04Z</time>
      </trkpt>
      <trkpt lat="45.58629" lon="4.5712">
        <ele>815.3354492</ele>
        <time>2011-12-04T02:02:09Z</time>
      </trkpt>
      <trkpt lat="45.58642" lon="4.5714">
        <ele>812.451416</ele>
        <time>2011-12-04T02:02:16Z</time>
      </trkpt>
      <trkpt lat="45.58651" lon="4.57155">
        <ele>811.0092773</ele>
        <time>2011-12-04T02:02:22Z</time>
      </trkpt>
      <trkpt lat="45.58659" lon="4.57168">
        <ele>811.4899902</ele>
        <time>2011-12-04T02:02:27Z</time>
      </trkpt>
      <trkpt lat="45.58668" lon="4.5718">
        <ele>809.0866699</ele>
        <time>2011-12-04T02:02:32Z</time>
      </trkpt>
      <trkpt lat="45.58678" lon="4.57194">
        <ele>810.5285645</ele>
        <time>2011-12-04T02:02:38Z</time>
      </trkpt>
      <trkpt lat="45.58687" lon="4.57208">
        <ele>812.451416</ele>
        <time>2011-12-04T02:02:44Z</time>
      </trkpt>
      <trkpt lat="45.58696" lon="4.57222">
        <ele>812.9321289</ele>
        <time>2011-12-04T02:02:49Z</time>
      </trkpt>
      <trkpt lat="45.58707" lon="4.57234">
        <ele>813.8933105</ele>
        <time>2011-12-04T02:02:54Z</time>
      </trkpt>
      <trkpt lat="45.58723" lon="4.57246">
        <ele>815.3354492</ele>
        <time>2011-12-04T02:03:01Z</time>
      </trkpt>
      <trkpt lat="45.5874" lon="4.57252">
        <ele>817.7385254</ele>
        <time>2011-12-04T02:03:08Z</time>
      </trkpt>
      <trkpt lat="45.58756" lon="4.57257">
        <ele>816.7773438</ele>
        <time>2011-12-04T02:03:15Z</time>
      </trkpt>
      <trkpt lat="45.58765" lon="4.57261">
        <ele>816.2966309</ele>
        <time>2011-12-04T02:03:19Z</time>
      </trkpt>
      <trkpt lat="45.58776" lon="4.57264">
        <ele>812.9321289</ele>
        <time>2011-12-04T02:03:24Z</time>
      </trkpt>
      <trkpt lat="45.58787" lon="4.57269">
        <ele>809.5673828</ele>
        <time>2011-12-04T02:03:29Z</time>
      </trkpt>
      <trkpt lat="45.58797" lon="4.5727">
        <ele>808.605957</ele>
        <time>2011-12-04T02:03:34Z</time>
      </trkpt>
      <trkpt lat="45.58812" lon="4.57268">
        <ele>806.6833496</ele>
        <time>2011-12-04T02:03:40Z</time>
      </trkpt>
      <trkpt lat="45.58827" lon="4.57263">
        <ele>803.3188477</ele>
        <time>2011-12-04T02:03:47Z</time>
      </trkpt>
      <trkpt lat="45.58843" lon="4.57266">
        <ele>799.9543457</ele>
        <time>2011-12-04T02:03:54Z</time>
      </trkpt>
      <trkpt lat="45.58854" lon="4.57271">
        <ele>798.512207</ele>
        <time>2011-12-04T02:03:59Z</time>
      </trkpt>
      <trkpt lat="45.58864" lon="4.57273">
        <ele>798.0317383</ele>
        <time>2011-12-04T02:04:03Z</time>
      </trkpt>
      <trkpt lat="45.5888" lon="4.57273">
        <ele>795.6281738</ele>
        <time>2011-12-04T02:04:09Z</time>
      </trkpt>
      <trkpt lat="45.58895" lon="4.57272">
        <ele>792.2636719</ele>
        <time>2011-12-04T02:04:15Z</time>
      </trkpt>
      <trkpt lat="45.5891" lon="4.57275">
        <ele>789.3796387</ele>
        <time>2011-12-04T02:04:21Z</time>
      </trkpt>
      <trkpt lat="45.58914" lon="4.57277">
        <ele>789.3796387</ele>
        <time>2011-12-04T02:04:23Z</time>
      </trkpt>
      <trkpt lat="45.58924" lon="4.57278">
        <ele>788.418457</ele>
        <time>2011-12-04T02:04:28Z</time>
      </trkpt>
      <trkpt lat="45.58934" lon="4.57279">
        <ele>788.418457</ele>
        <time>2011-12-04T02:04:34Z</time>
      </trkpt>
      <trkpt lat="45.58941" lon="4.57282">
        <ele>787.9377441</ele>
        <time>2011-12-04T02:04:38Z</time>
      </trkpt>
      <trkpt lat="45.58949" lon="4.5728">
        <ele>786.9763184</ele>
        <time>2011-12-04T02:04:42Z</time>
      </trkpt>
      <trkpt lat="45.58952" lon="4.57278">
        <ele>787.4570313</ele>
        <time>2011-12-04T02:04:43Z</time>
      </trkpt>
      <trkpt lat="45.58963" lon="4.5727">
        <ele>784.5732422</ele>
        <time>2011-12-04T02:04:49Z</time>
      </trkpt>
      <trkpt lat="45.58975" lon="4.57261">
        <ele>784.0925293</ele>
        <time>2011-12-04T02:04:55Z</time>
      </trkpt>
      <trkpt lat="45.58986" lon="4.57255">
        <ele>782.1699219</ele>
        <time>2011-12-04T02:05:01Z</time>
      </trkpt>
      <trkpt lat="45.58996" lon="4.5725">
        <ele>780.7280273</ele>
        <time>2011-12-04T02:05:07Z</time>
      </trkpt>
      <trkpt lat="45.59007" lon="4.57246">
        <ele>777.84375</ele>
        <time>2011-12-04T02:05:13Z</time>
      </trkpt>
      <trkpt lat="45.59011" lon="4.57244">
        <ele>778.3244629</ele>
        <time>2011-12-04T02:05:16Z</time>
      </trkpt>
      <trkpt lat="45.59018" lon="4.57242">
        <ele>776.8825684</ele>
        <time>2011-12-04T02:05:21Z</time>
      </trkpt>
      <trkpt lat="45.59019" lon="4.57242">
        <ele>777.3632813</ele>
        <time>2011-12-04T02:05:22Z</time>
      </trkpt>
      <trkpt lat="45.59032" lon="4.57237">
        <ele>778.3244629</ele>
        <time>2011-12-04T02:05:29Z</time>
      </trkpt>
      <trkpt lat="45.59047" lon="4.57226">
        <ele>778.3244629</ele>
        <time>2011-12-04T02:05:36Z</time>
      </trkpt>
      <trkpt lat="45.59053" lon="4.57222">
        <ele>777.84375</ele>
        <time>2011-12-04T02:05:39Z</time>
      </trkpt>
      <trkpt lat="45.59061" lon="4.57215">
        <ele>773.5180664</ele>
        <time>2011-12-04T02:05:44Z</time>
      </trkpt>
      <trkpt lat="45.5907" lon="4.57208">
        <ele>770.6340332</ele>
        <time>2011-12-04T02:05:48Z</time>
      </trkpt>
      <trkpt lat="45.5908" lon="4.57199">
        <ele>767.75</ele>
        <time>2011-12-04T02:05:53Z</time>
      </trkpt>
      <trkpt lat="45.59094" lon="4.57186">
        <ele>764.8662109</ele>
        <time>2011-12-04T02:05:59Z</time>
      </trkpt>
      <trkpt lat="45.59097" lon="4.57184">
        <ele>764.385498</ele>
        <time>2011-12-04T02:06:00Z</time>
      </trkpt>
      <trkpt lat="45.59105" lon="4.57178">
        <ele>763.904541</ele>
        <time>2011-12-04T02:06:05Z</time>
      </trkpt>
      <trkpt lat="45.59119" lon="4.57169">
        <ele>760.0593262</ele>
        <time>2011-12-04T02:06:12Z</time>
      </trkpt>
      <trkpt lat="45.59133" lon="4.57165">
        <ele>760.0593262</ele>
        <time>2011-12-04T02:06:18Z</time>
      </trkpt>
      <trkpt lat="45.59136" lon="4.57165">
        <ele>760.5400391</ele>
        <time>2011-12-04T02:06:19Z</time>
      </trkpt>
      <trkpt lat="45.59148" lon="4.57176">
        <ele>759.0981445</ele>
        <time>2011-12-04T02:06:24Z</time>
      </trkpt>
      <trkpt lat="45.59151" lon="4.57179">
        <ele>758.6174316</ele>
        <time>2011-12-04T02:06:25Z</time>
      </trkpt>
      <trkpt lat="45.59158" lon="4.57188">
        <ele>758.1369629</ele>
        <time>2011-12-04T02:06:29Z</time>
      </trkpt>
      <trkpt lat="45.5917" lon="4.57202">
        <ele>758.6174316</ele>
        <time>2011-12-04T02:06:36Z</time>
      </trkpt>
      <trkpt lat="45.59181" lon="4.57205">
        <ele>758.6174316</ele>
        <time>2011-12-04T02:06:40Z</time>
      </trkpt>
      <trkpt lat="45.59199" lon="4.57196">
        <ele>755.7336426</ele>
        <time>2011-12-04T02:06:46Z</time>
      </trkpt>
      <trkpt lat="45.59216" lon="4.57186">
        <ele>751.8884277</ele>
        <time>2011-12-04T02:06:52Z</time>
      </trkpt>
      <trkpt lat="45.59228" lon="4.57182">
        <ele>749.9658203</ele>
        <time>2011-12-04T02:06:56Z</time>
      </trkpt>
      <trkpt lat="45.59243" lon="4.57176">
        <ele>747.5622559</ele>
        <time>2011-12-04T02:07:01Z</time>
      </trkpt>
      <trkpt lat="45.59257" lon="4.57168">
        <ele>745.1589355</ele>
        <time>2011-12-04T02:07:07Z</time>
      </trkpt>
      <trkpt lat="45.59268" lon="4.57165">
        <ele>744.1977539</ele>
        <time>2011-12-04T02:07:12Z</time>
      </trkpt>
      <trkpt lat="45.59284" lon="4.57165">
        <ele>743.2363281</ele>
        <time>2011-12-04T02:07:18Z</time>
      </trkpt>
      <trkpt lat="45.59286" lon="4.57165">
        <ele>742.7558594</ele>
        <time>2011-12-04T02:07:19Z</time>
      </trkpt>
      <trkpt lat="45.59299" lon="4.57151">
        <ele>739.3911133</ele>
        <time>2011-12-04T02:07:27Z</time>
      </trkpt>
      <trkpt lat="45.59307" lon="4.57138">
        <ele>738.4299316</ele>
        <time>2011-12-04T02:07:33Z</time>
      </trkpt>
      <trkpt lat="45.59308" lon="4.57136">
        <ele>737.9492188</ele>
        <time>2011-12-04T02:07:34Z</time>
      </trkpt>
      <trkpt lat="45.59311" lon="4.5712">
        <ele>735.5458984</ele>
        <time>2011-12-04T02:07:40Z</time>
      </trkpt>
      <trkpt lat="45.59316" lon="4.57109">
        <ele>734.1040039</ele>
        <time>2011-12-04T02:07:45Z</time>
      </trkpt>
      <trkpt lat="45.59323" lon="4.57098">
        <ele>734.1040039</ele>
        <time>2011-12-04T02:07:50Z</time>
      </trkpt>
      <trkpt lat="45.59329" lon="4.57081">
        <ele>734.1040039</ele>
        <time>2011-12-04T02:07:55Z</time>
      </trkpt>
      <trkpt lat="45.5933" lon="4.57079">
        <ele>733.1425781</ele>
        <time>2011-12-04T02:07:56Z</time>
      </trkpt>
      <trkpt lat="45.59339" lon="4.57062">
        <ele>732.1813965</ele>
        <time>2011-12-04T02:08:02Z</time>
      </trkpt>
      <trkpt lat="45.59345" lon="4.57047">
        <ele>729.2971191</ele>
        <time>2011-12-04T02:08:07Z</time>
      </trkpt>
      <trkpt lat="45.5935" lon="4.5703">
        <ele>728.3359375</ele>
        <time>2011-12-04T02:08:13Z</time>
      </trkpt>
      <trkpt lat="45.59356" lon="4.57014">
        <ele>725.4519043</ele>
        <time>2011-12-04T02:08:18Z</time>
      </trkpt>
      <trkpt lat="45.59363" lon="4.56995">
        <ele>725.9326172</ele>
        <time>2011-12-04T02:08:23Z</time>
      </trkpt>
      <trkpt lat="45.59368" lon="4.56971">
        <ele>725.9326172</ele>
        <time>2011-12-04T02:08:29Z</time>
      </trkpt>
      <trkpt lat="45.59374" lon="4.56951">
        <ele>724.4907227</ele>
        <time>2011-12-04T02:08:34Z</time>
      </trkpt>
      <trkpt lat="45.5938" lon="4.56929">
        <ele>724.9714355</ele>
        <time>2011-12-04T02:08:40Z</time>
      </trkpt>
      <trkpt lat="45.59388" lon="4.5691">
        <ele>724.0100098</ele>
        <time>2011-12-04T02:08:45Z</time>
      </trkpt>
      <trkpt lat="45.59399" lon="4.56889">
        <ele>722.5681152</ele>
        <time>2011-12-04T02:08:51Z</time>
      </trkpt>
      <trkpt lat="45.59412" lon="4.5688">
        <ele>719.6843262</ele>
        <time>2011-12-04T02:08:56Z</time>
      </trkpt>
      <trkpt lat="45.59422" lon="4.56881">
        <ele>717.2810059</ele>
        <time>2011-12-04T02:09:00Z</time>
      </trkpt>
      <trkpt lat="45.59432" lon="4.5689">
        <ele>715.8388672</ele>
        <time>2011-12-04T02:09:04Z</time>
      </trkpt>
      <trkpt lat="45.59439" lon="4.56901">
        <ele>714.8774414</ele>
        <time>2011-12-04T02:09:08Z</time>
      </trkpt>
      <trkpt lat="45.59439" lon="4.56903">
        <ele>714.8774414</ele>
        <time>2011-12-04T02:09:09Z</time>
      </trkpt>
      <trkpt lat="45.5945" lon="4.56902">
        <ele>712.4741211</ele>
        <time>2011-12-04T02:09:15Z</time>
      </trkpt>
      <trkpt lat="45.59461" lon="4.56898">
        <ele>711.0322266</ele>
        <time>2011-12-04T02:09:20Z</time>
      </trkpt>
      <trkpt lat="45.59473" lon="4.56891">
        <ele>708.1484375</ele>
        <time>2011-12-04T02:09:26Z</time>
      </trkpt>
      <trkpt lat="45.59487" lon="4.56882">
        <ele>708.1484375</ele>
        <time>2011-12-04T02:09:32Z</time>
      </trkpt>
      <trkpt lat="45.59494" lon="4.56874">
        <ele>707.1870117</ele>
        <time>2011-12-04T02:09:36Z</time>
      </trkpt>
      <trkpt lat="45.595" lon="4.56864">
        <ele>703.3417969</ele>
        <time>2011-12-04T02:09:41Z</time>
      </trkpt>
      <trkpt lat="45.59505" lon="4.5685">
        <ele>702.861084</ele>
        <time>2011-12-04T02:09:45Z</time>
      </trkpt>
      <trkpt lat="45.59514" lon="4.56829">
        <ele>702.861084</ele>
        <time>2011-12-04T02:09:51Z</time>
      </trkpt>
      <trkpt lat="45.59523" lon="4.56816">
        <ele>702.861084</ele>
        <time>2011-12-04T02:09:57Z</time>
      </trkpt>
      <trkpt lat="45.59528" lon="4.56805">
        <ele>702.861084</ele>
        <time>2011-12-04T02:10:02Z</time>
      </trkpt>
      <trkpt lat="45.59535" lon="4.56792">
        <ele>702.861084</ele>
        <time>2011-12-04T02:10:07Z</time>
      </trkpt>
      <trkpt lat="45.59536" lon="4.56776">
        <ele>701.4191895</ele>
        <time>2011-12-04T02:10:12Z</time>
      </trkpt>
      <trkpt lat="45.59532" lon="4.56769">
        <ele>699.015625</ele>
        <time>2011-12-04T02:10:15Z</time>
      </trkpt>
      <trkpt lat="45.59528" lon="4.56758">
        <ele>698.0544434</ele>
        <time>2011-12-04T02:10:18Z</time>
      </trkpt>
      <trkpt lat="45.59526" lon="4.56751">
        <ele>696.6125488</ele>
        <time>2011-12-04T02:10:20Z</time>
      </trkpt>
      <trkpt lat="45.59528" lon="4.56739">
        <ele>694.6896973</ele>
        <time>2011-12-04T02:10:23Z</time>
      </trkpt>
      <trkpt lat="45.59541" lon="4.56727">
        <ele>692.767334</ele>
        <time>2011-12-04T02:10:29Z</time>
      </trkpt>
      <trkpt lat="45.59557" lon="4.56722">
        <ele>690.8444824</ele>
        <time>2011-12-04T02:10:35Z</time>
      </trkpt>
      <trkpt lat="45.59562" lon="4.56725">
        <ele>690.3640137</ele>
        <time>2011-12-04T02:10:37Z</time>
      </trkpt>
      <trkpt lat="45.59577" lon="4.56724">
        <ele>689.8833008</ele>
        <time>2011-12-04T02:10:43Z</time>
      </trkpt>
      <trkpt lat="45.59585" lon="4.56727">
        <ele>689.4025879</ele>
        <time>2011-12-04T02:10:48Z</time>
      </trkpt>
      <trkpt lat="45.59587" lon="4.56731">
        <ele>689.4025879</ele>
        <time>2011-12-04T02:10:53Z</time>
      </trkpt>
      <trkpt lat="45.5959" lon="4.56731">
        <ele>690.3640137</ele>
        <time>2011-12-04T02:11:00Z</time>
      </trkpt>
      <trkpt lat="45.59591" lon="4.56731">
        <ele>690.8444824</ele>
        <time>2011-12-04T02:11:07Z</time>
      </trkpt>
      <trkpt lat="45.59592" lon="4.56731">
        <ele>691.3251953</ele>
        <time>2011-12-04T02:11:14Z</time>
      </trkpt>
      <trkpt lat="45.59592" lon="4.5673">
        <ele>693.7285156</ele>
        <time>2011-12-04T02:11:25Z</time>
      </trkpt>
      <trkpt lat="45.59593" lon="4.56731">
        <ele>694.6896973</ele>
        <time>2011-12-04T02:11:36Z</time>
      </trkpt>
      <trkpt lat="45.59593" lon="4.56732">
        <ele>693.7285156</ele>
        <time>2011-12-04T02:11:47Z</time>
      </trkpt>
      <trkpt lat="45.59594" lon="4.56734">
        <ele>688.9221191</ele>
        <time>2011-12-04T02:12:14Z</time>
      </trkpt>
      <trkpt lat="45.59595" lon="4.56734">
        <ele>692.2866211</ele>
        <time>2011-12-04T02:12:33Z</time>
      </trkpt>
      <trkpt lat="45.59595" lon="4.56733">
        <ele>697.0930176</ele>
        <time>2011-12-04T02:12:56Z</time>
      </trkpt>
      <trkpt lat="45.59595" lon="4.5673">
        <ele>696.6125488</ele>
        <time>2011-12-04T02:13:05Z</time>
      </trkpt>
      <trkpt lat="45.59596" lon="4.56731">
        <ele>694.2092285</ele>
        <time>2011-12-04T02:13:14Z</time>
      </trkpt>
      <trkpt lat="45.59595" lon="4.56732">
        <ele>691.3251953</ele>
        <time>2011-12-04T02:13:28Z</time>
      </trkpt>
      <trkpt lat="45.59591" lon="4.56734">
        <ele>690.3640137</ele>
        <time>2011-12-04T02:13:41Z</time>
      </trkpt>
      <trkpt lat="45.59589" lon="4.56734">
        <ele>692.2866211</ele>
        <time>2011-12-04T02:13:51Z</time>
      </trkpt>
      <trkpt lat="45.59587" lon="4.56736">
        <ele>688.9221191</ele>
        <time>2011-12-04T02:14:14Z</time>
      </trkpt>
      <trkpt lat="45.59586" lon="4.56735">
        <ele>690.3640137</ele>
        <time>2011-12-04T02:14:31Z</time>
      </trkpt>
      <trkpt lat="45.59586" lon="4.56734">
        <ele>692.2866211</ele>
        <time>2011-12-04T02:14:42Z</time>
      </trkpt>
      <trkpt lat="45.5959" lon="4.56735">
        <ele>693.7285156</ele>
        <time>2011-12-04T02:14:59Z</time>
      </trkpt>
      <trkpt lat="45.59591" lon="4.56734">
        <ele>694.2092285</ele>
        <time>2011-12-04T02:15:12Z</time>
      </trkpt>
      <trkpt lat="45.59592" lon="4.56734">
        <ele>697.5737305</ele>
        <time>2011-12-04T02:15:30Z</time>
      </trkpt>
      <trkpt lat="45.59593" lon="4.56734">
        <ele>697.0930176</ele>
        <time>2011-12-04T02:15:40Z</time>
      </trkpt>
      <trkpt lat="45.59591" lon="4.56734">
        <ele>697.5737305</ele>
        <time>2011-12-04T02:15:48Z</time>
      </trkpt>
      <trkpt lat="45.5959" lon="4.56737">
        <ele>695.1704102</ele>
        <time>2011-12-04T02:15:55Z</time>
      </trkpt>
      <trkpt lat="45.5959" lon="4.56743">
        <ele>693.7285156</ele>
        <time>2011-12-04T02:16:01Z</time>
      </trkpt>
      <trkpt lat="45.59592" lon="4.56745">
        <ele>692.767334</ele>
        <time>2011-12-04T02:16:05Z</time>
      </trkpt>
      <trkpt lat="45.59593" lon="4.56746">
        <ele>693.7285156</ele>
        <time>2011-12-04T02:16:13Z</time>
      </trkpt>
      <trkpt lat="45.59593" lon="4.56747">
        <ele>694.2092285</ele>
        <time>2011-12-04T02:16:19Z</time>
      </trkpt>
      <trkpt lat="45.59594" lon="4.56746">
        <ele>693.7285156</ele>
        <time>2011-12-04T02:16:27Z</time>
      </trkpt>
      <trkpt lat="45.59594" lon="4.56744">
        <ele>695.651123</ele>
        <time>2011-12-04T02:16:38Z</time>
      </trkpt>
      <trkpt lat="45.59595" lon="4.56741">
        <ele>700.9384766</ele>
        <time>2011-12-04T02:16:51Z</time>
      </trkpt>
      <trkpt lat="45.59594" lon="4.56743">
        <ele>701.4191895</ele>
        <time>2011-12-04T02:16:59Z</time>
      </trkpt>
      <trkpt lat="45.59595" lon="4.56747">
        <ele>701.4191895</ele>
        <time>2011-12-04T02:17:05Z</time>
      </trkpt>
      <trkpt lat="45.59594" lon="4.56752">
        <ele>701.4191895</ele>
        <time>2011-12-04T02:17:13Z</time>
      </trkpt>
      <trkpt lat="45.59595" lon="4.56753">
        <ele>700.9384766</ele>
        <time>2011-12-04T02:17:20Z</time>
      </trkpt>
      <trkpt lat="45.59597" lon="4.56754">
        <ele>699.9770508</ele>
        <time>2011-12-04T02:17:27Z</time>
      </trkpt>
      <trkpt lat="45.59597" lon="4.56755">
        <ele>698.0544434</ele>
        <time>2011-12-04T02:17:35Z</time>
      </trkpt>
      <trkpt lat="45.59597" lon="4.56757">
        <ele>697.5737305</ele>
        <time>2011-12-04T02:17:42Z</time>
      </trkpt>
      <trkpt lat="45.59595" lon="4.56759">
        <ele>697.5737305</ele>
        <time>2011-12-04T02:17:49Z</time>
      </trkpt>
      <trkpt lat="45.59595" lon="4.56761">
        <ele>696.1318359</ele>
        <time>2011-12-04T02:17:56Z</time>
      </trkpt>
      <trkpt lat="45.59595" lon="4.56761">
        <ele>695.1704102</ele>
        <time>2011-12-04T02:18:02Z</time>
      </trkpt>
      <trkpt lat="45.59596" lon="4.56758">
        <ele>693.2478027</ele>
        <time>2011-12-04T02:18:10Z</time>
      </trkpt>
      <trkpt lat="45.59596" lon="4.56758">
        <ele>694.6896973</ele>
        <time>2011-12-04T02:18:20Z</time>
      </trkpt>
      <trkpt lat="45.59595" lon="4.56759">
        <ele>696.6125488</ele>
        <time>2011-12-04T02:18:27Z</time>
      </trkpt>
      <trkpt lat="45.59595" lon="4.5676">
        <ele>697.0930176</ele>
        <time>2011-12-04T02:18:34Z</time>
      </trkpt>
      <trkpt lat="45.59595" lon="4.56762">
        <ele>694.6896973</ele>
        <time>2011-12-04T02:18:40Z</time>
      </trkpt>
      <trkpt lat="45.59596" lon="4.56764">
        <ele>695.651123</ele>
        <time>2011-12-04T02:18:51Z</time>
      </trkpt>
      <trkpt lat="45.59596" lon="4.56766">
        <ele>696.6125488</ele>
        <time>2011-12-04T02:18:58Z</time>
      </trkpt>
      <trkpt lat="45.59595" lon="4.56767">
        <ele>698.5349121</ele>
        <time>2011-12-04T02:19:08Z</time>
      </trkpt>
      <trkpt lat="45.59594" lon="4.5677">
        <ele>697.0930176</ele>
        <time>2011-12-04T02:19:14Z</time>
      </trkpt>
      <trkpt lat="45.59593" lon="4.56773">
        <ele>696.6125488</ele>
        <time>2011-12-04T02:19:21Z</time>
      </trkpt>
      <trkpt lat="45.59593" lon="4.56775">
        <ele>696.6125488</ele>
        <time>2011-12-04T02:19:28Z</time>
      </trkpt>
      <trkpt lat="45.59591" lon="4.56777">
        <ele>693.7285156</ele>
        <time>2011-12-04T02:19:35Z</time>
      </trkpt>
      <trkpt lat="45.5959" lon="4.5678">
        <ele>691.3251953</ele>
        <time>2011-12-04T02:19:42Z</time>
      </trkpt>
      <trkpt lat="45.59593" lon="4.56787">
        <ele>690.3640137</ele>
        <time>2011-12-04T02:19:48Z</time>
      </trkpt>
      <trkpt lat="45.59594" lon="4.56796">
        <ele>690.3640137</ele>
        <time>2011-12-04T02:19:54Z</time>
      </trkpt>
      <trkpt lat="45.59594" lon="4.56805">
        <ele>691.8059082</ele>
        <time>2011-12-04T02:20:00Z</time>
      </trkpt>
      <trkpt lat="45.59594" lon="4.56809">
        <ele>692.2866211</ele>
        <time>2011-12-04T02:20:02Z</time>
      </trkpt>
      <trkpt lat="45.59592" lon="4.56815">
        <ele>693.2478027</ele>
        <time>2011-12-04T02:20:07Z</time>
      </trkpt>
      <trkpt lat="45.59592" lon="4.56826">
        <ele>694.6896973</ele>
        <time>2011-12-04T02:20:14Z</time>
      </trkpt>
      <trkpt lat="45.59592" lon="4.5683">
        <ele>695.651123</ele>
        <time>2011-12-04T02:20:16Z</time>
      </trkpt>
      <trkpt lat="45.59595" lon="4.56842">
        <ele>693.7285156</ele>
        <time>2011-12-04T02:20:23Z</time>
      </trkpt>
      <trkpt lat="45.59596" lon="4.56849">
        <ele>693.7285156</ele>
        <time>2011-12-04T02:20:28Z</time>
      </trkpt>
      <trkpt lat="45.59598" lon="4.56854">
        <ele>695.1704102</ele>
        <time>2011-12-04T02:20:31Z</time>
      </trkpt>
      <trkpt lat="45.59599" lon="4.56859">
        <ele>695.651123</ele>
        <time>2011-12-04T02:20:37Z</time>
      </trkpt>
      <trkpt lat="45.596" lon="4.56862">
        <ele>696.1318359</ele>
        <time>2011-12-04T02:20:42Z</time>
      </trkpt>
      <trkpt lat="45.596" lon="4.56864">
        <ele>695.651123</ele>
        <time>2011-12-04T02:20:48Z</time>
      </trkpt>
      <trkpt lat="45.596" lon="4.56865">
        <ele>697.5737305</ele>
        <time>2011-12-04T02:20:56Z</time>
      </trkpt>
      <trkpt lat="45.59602" lon="4.56868">
        <ele>698.5349121</ele>
        <time>2011-12-04T02:21:02Z</time>
      </trkpt>
      <trkpt lat="45.59603" lon="4.5687">
        <ele>699.9770508</ele>
        <time>2011-12-04T02:21:06Z</time>
      </trkpt>
      <trkpt lat="45.59606" lon="4.56893">
        <ele>697.0930176</ele>
        <time>2011-12-04T02:21:14Z</time>
      </trkpt>
      <trkpt lat="45.59607" lon="4.56914">
        <ele>694.6896973</ele>
        <time>2011-12-04T02:21:21Z</time>
      </trkpt>
      <trkpt lat="45.59609" lon="4.56931">
        <ele>693.7285156</ele>
        <time>2011-12-04T02:21:27Z</time>
      </trkpt>
      <trkpt lat="45.59611" lon="4.56954">
        <ele>692.2866211</ele>
        <time>2011-12-04T02:21:34Z</time>
      </trkpt>
      <trkpt lat="45.59615" lon="4.56974">
        <ele>690.8444824</ele>
        <time>2011-12-04T02:21:40Z</time>
      </trkpt>
      <trkpt lat="45.59617" lon="4.56988">
        <ele>688.9221191</ele>
        <time>2011-12-04T02:21:45Z</time>
      </trkpt>
      <trkpt lat="45.59622" lon="4.57">
        <ele>690.3640137</ele>
        <time>2011-12-04T02:21:51Z</time>
      </trkpt>
      <trkpt lat="45.59626" lon="4.57014">
        <ele>690.8444824</ele>
        <time>2011-12-04T02:21:56Z</time>
      </trkpt>
      <trkpt lat="45.59631" lon="4.57024">
        <ele>690.8444824</ele>
        <time>2011-12-04T02:22:01Z</time>
      </trkpt>
      <trkpt lat="45.5964" lon="4.57038">
        <ele>691.8059082</ele>
        <time>2011-12-04T02:22:07Z</time>
      </trkpt>
      <trkpt lat="45.59651" lon="4.57048">
        <ele>695.1704102</ele>
        <time>2011-12-04T02:22:14Z</time>
      </trkpt>
      <trkpt lat="45.59661" lon="4.57057">
        <ele>696.1318359</ele>
        <time>2011-12-04T02:22:19Z</time>
      </trkpt>
      <trkpt lat="45.59673" lon="4.57066">
        <ele>698.5349121</ele>
        <time>2011-12-04T02:22:25Z</time>
      </trkpt>
      <trkpt lat="45.59686" lon="4.57077">
        <ele>697.5737305</ele>
        <time>2011-12-04T02:22:33Z</time>
      </trkpt>
      <trkpt lat="45.59697" lon="4.57085">
        <ele>698.5349121</ele>
        <time>2011-12-04T02:22:40Z</time>
      </trkpt>
      <trkpt lat="45.59706" lon="4.57094">
        <ele>699.4963379</ele>
        <time>2011-12-04T02:22:46Z</time>
      </trkpt>
      <trkpt lat="45.59713" lon="4.57101">
        <ele>699.9770508</ele>
        <time>2011-12-04T02:22:50Z</time>
      </trkpt>
      <trkpt lat="45.59723" lon="4.57103">
        <ele>698.0544434</ele>
        <time>2011-12-04T02:22:55Z</time>
      </trkpt>
      <trkpt lat="45.59732" lon="4.57106">
        <ele>697.5737305</ele>
        <time>2011-12-04T02:22:59Z</time>
      </trkpt>
      <trkpt lat="45.5975" lon="4.57111">
        <ele>696.1318359</ele>
        <time>2011-12-04T02:23:07Z</time>
      </trkpt>
      <trkpt lat="45.59762" lon="4.57112">
        <ele>694.6896973</ele>
        <time>2011-12-04T02:23:13Z</time>
      </trkpt>
      <trkpt lat="45.59775" lon="4.57113">
        <ele>694.2092285</ele>
        <time>2011-12-04T02:23:19Z</time>
      </trkpt>
      <trkpt lat="45.59784" lon="4.57111">
        <ele>695.651123</ele>
        <time>2011-12-04T02:23:23Z</time>
      </trkpt>
      <trkpt lat="45.59796" lon="4.5711">
        <ele>696.6125488</ele>
        <time>2011-12-04T02:23:29Z</time>
      </trkpt>
      <trkpt lat="45.5981" lon="4.57102">
        <ele>696.6125488</ele>
        <time>2011-12-04T02:23:35Z</time>
      </trkpt>
      <trkpt lat="45.59821" lon="4.57095">
        <ele>695.651123</ele>
        <time>2011-12-04T02:23:40Z</time>
      </trkpt>
      <trkpt lat="45.59835" lon="4.57088">
        <ele>697.0930176</ele>
        <time>2011-12-04T02:23:47Z</time>
      </trkpt>
      <trkpt lat="45.59844" lon="4.57086">
        <ele>699.4963379</ele>
        <time>2011-12-04T02:23:53Z</time>
      </trkpt>
      <trkpt lat="45.5985" lon="4.57084">
        <ele>699.9770508</ele>
        <time>2011-12-04T02:23:57Z</time>
      </trkpt>
      <trkpt lat="45.59864" lon="4.57087">
        <ele>701.8999023</ele>
        <time>2011-12-04T02:24:03Z</time>
      </trkpt>
      <trkpt lat="45.59879" lon="4.5709">
        <ele>701.8999023</ele>
        <time>2011-12-04T02:24:08Z</time>
      </trkpt>
      <trkpt lat="45.59893" lon="4.57092">
        <ele>701.8999023</ele>
        <time>2011-12-04T02:24:13Z</time>
      </trkpt>
      <trkpt lat="45.59901" lon="4.57092">
        <ele>700.9384766</ele>
        <time>2011-12-04T02:24:16Z</time>
      </trkpt>
      <trkpt lat="45.59921" lon="4.57094">
        <ele>701.8999023</ele>
        <time>2011-12-04T02:24:23Z</time>
      </trkpt>
      <trkpt lat="45.59923" lon="4.57094">
        <ele>700.4580078</ele>
        <time>2011-12-04T02:24:24Z</time>
      </trkpt>
      <trkpt lat="45.59929" lon="4.57097">
        <ele>699.4963379</ele>
        <time>2011-12-04T02:24:27Z</time>
      </trkpt>
      <trkpt lat="45.5994" lon="4.57116">
        <ele>697.5737305</ele>
        <time>2011-12-04T02:24:33Z</time>
      </trkpt>
      <trkpt lat="45.59948" lon="4.57136">
        <ele>693.2478027</ele>
        <time>2011-12-04T02:24:39Z</time>
      </trkpt>
      <trkpt lat="45.59955" lon="4.57152">
        <ele>688.4414063</ele>
        <time>2011-12-04T02:24:44Z</time>
      </trkpt>
      <trkpt lat="45.59958" lon="4.57165">
        <ele>686.5187988</ele>
        <time>2011-12-04T02:24:48Z</time>
      </trkpt>
      <trkpt lat="45.59964" lon="4.5718">
        <ele>686.0380859</ele>
        <time>2011-12-04T02:24:53Z</time>
      </trkpt>
      <trkpt lat="45.5997" lon="4.57198">
        <ele>686.0380859</ele>
        <time>2011-12-04T02:24:58Z</time>
      </trkpt>
      <trkpt lat="45.59974" lon="4.57219">
        <ele>684.5961914</ele>
        <time>2011-12-04T02:25:04Z</time>
      </trkpt>
      <trkpt lat="45.59972" lon="4.57239">
        <ele>687.9606934</ele>
        <time>2011-12-04T02:25:09Z</time>
      </trkpt>
      <trkpt lat="45.59971" lon="4.57255">
        <ele>690.3640137</ele>
        <time>2011-12-04T02:25:13Z</time>
      </trkpt>
      <trkpt lat="45.59973" lon="4.57284">
        <ele>690.3640137</ele>
        <time>2011-12-04T02:25:21Z</time>
      </trkpt>
      <trkpt lat="45.59975" lon="4.57305">
        <ele>687.9606934</ele>
        <time>2011-12-04T02:25:27Z</time>
      </trkpt>
      <trkpt lat="45.59982" lon="4.57322">
        <ele>686.0380859</ele>
        <time>2011-12-04T02:25:33Z</time>
      </trkpt>
      <trkpt lat="45.59988" lon="4.57334">
        <ele>684.5961914</ele>
        <time>2011-12-04T02:25:37Z</time>
      </trkpt>
      <trkpt lat="45.5999" lon="4.57339">
        <ele>684.5961914</ele>
        <time>2011-12-04T02:25:39Z</time>
      </trkpt>
      <trkpt lat="45.59997" lon="4.57358">
        <ele>683.6345215</ele>
        <time>2011-12-04T02:25:46Z</time>
      </trkpt>
      <trkpt lat="45.6" lon="4.57363">
        <ele>683.6345215</ele>
        <time>2011-12-04T02:25:48Z</time>
      </trkpt>
      <trkpt lat="45.60002" lon="4.57367">
        <ele>684.5961914</ele>
        <time>2011-12-04T02:25:50Z</time>
      </trkpt>
      <trkpt lat="45.60005" lon="4.57389">
        <ele>687.4799805</ele>
        <time>2011-12-04T02:25:57Z</time>
      </trkpt>
      <trkpt lat="45.60008" lon="4.57399">
        <ele>686.5187988</ele>
        <time>2011-12-04T02:26:00Z</time>
      </trkpt>
      <trkpt lat="45.6001" lon="4.57428">
        <ele>689.8833008</ele>
        <time>2011-12-04T02:26:08Z</time>
      </trkpt>
      <trkpt lat="45.60011" lon="4.57448">
        <ele>690.3640137</ele>
        <time>2011-12-04T02:26:13Z</time>
      </trkpt>
      <trkpt lat="45.60012" lon="4.57458">
        <ele>689.4025879</ele>
        <time>2011-12-04T02:26:16Z</time>
      </trkpt>
      <trkpt lat="45.60014" lon="4.57479">
        <ele>689.4025879</ele>
        <time>2011-12-04T02:26:22Z</time>
      </trkpt>
      <trkpt lat="45.60016" lon="4.57496">
        <ele>689.4025879</ele>
        <time>2011-12-04T02:26:28Z</time>
      </trkpt>
      <trkpt lat="45.60018" lon="4.57513">
        <ele>688.9221191</ele>
        <time>2011-12-04T02:26:33Z</time>
      </trkpt>
      <trkpt lat="45.60022" lon="4.5753">
        <ele>687.4799805</ele>
        <time>2011-12-04T02:26:38Z</time>
      </trkpt>
      <trkpt lat="45.60026" lon="4.57543">
        <ele>688.4414063</ele>
        <time>2011-12-04T02:26:42Z</time>
      </trkpt>
      <trkpt lat="45.60032" lon="4.57568">
        <ele>691.8059082</ele>
        <time>2011-12-04T02:26:48Z</time>
      </trkpt>
      <trkpt lat="45.60035" lon="4.57586">
        <ele>694.6896973</ele>
        <time>2011-12-04T02:26:52Z</time>
      </trkpt>
      <trkpt lat="45.6004" lon="4.57598">
        <ele>693.2478027</ele>
        <time>2011-12-04T02:26:56Z</time>
      </trkpt>
      <trkpt lat="45.6005" lon="4.57615">
        <ele>691.8059082</ele>
        <time>2011-12-04T02:27:02Z</time>
      </trkpt>
      <trkpt lat="45.60057" lon="4.57632">
        <ele>689.8833008</ele>
        <time>2011-12-04T02:27:07Z</time>
      </trkpt>
      <trkpt lat="45.60063" lon="4.57645">
        <ele>686.9992676</ele>
        <time>2011-12-04T02:27:12Z</time>
      </trkpt>
      <trkpt lat="45.60078" lon="4.57659">
        <ele>686.5187988</ele>
        <time>2011-12-04T02:27:19Z</time>
      </trkpt>
      <trkpt lat="45.60088" lon="4.57674">
        <ele>686.0380859</ele>
        <time>2011-12-04T02:27:25Z</time>
      </trkpt>
      <trkpt lat="45.60096" lon="4.5769">
        <ele>686.5187988</ele>
        <time>2011-12-04T02:27:30Z</time>
      </trkpt>
      <trkpt lat="45.60099" lon="4.57706">
        <ele>684.5961914</ele>
        <time>2011-12-04T02:27:35Z</time>
      </trkpt>
      <trkpt lat="45.60099" lon="4.57709">
        <ele>683.6345215</ele>
        <time>2011-12-04T02:27:36Z</time>
      </trkpt>
      <trkpt lat="45.60104" lon="4.57731">
        <ele>679.3085938</ele>
        <time>2011-12-04T02:27:42Z</time>
      </trkpt>
      <trkpt lat="45.60105" lon="4.57734">
        <ele>678.828125</ele>
        <time>2011-12-04T02:27:43Z</time>
      </trkpt>
      <trkpt lat="45.60108" lon="4.57745">
        <ele>676.9055176</ele>
        <time>2011-12-04T02:27:46Z</time>
      </trkpt>
      <trkpt lat="45.60109" lon="4.57758">
        <ele>678.3474121</ele>
        <time>2011-12-04T02:27:50Z</time>
      </trkpt>
      <trkpt lat="45.60107" lon="4.57769">
        <ele>684.1154785</ele>
        <time>2011-12-04T02:27:54Z</time>
      </trkpt>
      <trkpt lat="45.60105" lon="4.57775">
        <ele>687.4799805</ele>
        <time>2011-12-04T02:27:56Z</time>
      </trkpt>
      <trkpt lat="45.60102" lon="4.57792">
        <ele>690.8444824</ele>
        <time>2011-12-04T02:28:00Z</time>
      </trkpt>
      <trkpt lat="45.60091" lon="4.57806">
        <ele>697.0930176</ele>
        <time>2011-12-04T02:28:06Z</time>
      </trkpt>
      <trkpt lat="45.60082" lon="4.57814">
        <ele>704.3032227</ele>
        <time>2011-12-04T02:28:12Z</time>
      </trkpt>
      <trkpt lat="45.60076" lon="4.5782">
        <ele>701.8999023</ele>
        <time>2011-12-04T02:28:19Z</time>
      </trkpt>
      <trkpt lat="45.60076" lon="4.57823">
        <ele>701.8999023</ele>
        <time>2011-12-04T02:28:21Z</time>
      </trkpt>
      <trkpt lat="45.60074" lon="4.57825">
        <ele>701.4191895</ele>
        <time>2011-12-04T02:28:23Z</time>
      </trkpt>
      <trkpt lat="45.60072" lon="4.57827">
        <ele>703.3417969</ele>
        <time>2011-12-04T02:28:25Z</time>
      </trkpt>
      <trkpt lat="45.60071" lon="4.5783">
        <ele>704.3032227</ele>
        <time>2011-12-04T02:28:27Z</time>
      </trkpt>
      <trkpt lat="45.60067" lon="4.57845">
        <ele>703.3417969</ele>
        <time>2011-12-04T02:28:36Z</time>
      </trkpt>
      <trkpt lat="45.60064" lon="4.57856">
        <ele>702.861084</ele>
        <time>2011-12-04T02:28:42Z</time>
      </trkpt>
      <trkpt lat="45.60063" lon="4.57867">
        <ele>700.9384766</ele>
        <time>2011-12-04T02:28:48Z</time>
      </trkpt>
      <trkpt lat="45.60064" lon="4.57884">
        <ele>697.0930176</ele>
        <time>2011-12-04T02:28:56Z</time>
      </trkpt>
      <trkpt lat="45.60065" lon="4.57895">
        <ele>695.1704102</ele>
        <time>2011-12-04T02:29:02Z</time>
      </trkpt>
      <trkpt lat="45.60068" lon="4.57909">
        <ele>695.651123</ele>
        <time>2011-12-04T02:29:10Z</time>
      </trkpt>
      <trkpt lat="45.6007" lon="4.57923">
        <ele>694.6896973</ele>
        <time>2011-12-04T02:29:18Z</time>
      </trkpt>
      <trkpt lat="45.60073" lon="4.57938">
        <ele>697.5737305</ele>
        <time>2011-12-04T02:29:25Z</time>
      </trkpt>
      <trkpt lat="45.60075" lon="4.57951">
        <ele>698.0544434</ele>
        <time>2011-12-04T02:29:33Z</time>
      </trkpt>
      <trkpt lat="45.60079" lon="4.57959">
        <ele>699.9770508</ele>
        <time>2011-12-04T02:29:38Z</time>
      </trkpt>
      <trkpt lat="45.6008" lon="4.5798">
        <ele>703.3417969</ele>
        <time>2011-12-04T02:29:46Z</time>
      </trkpt>
      <trkpt lat="45.60082" lon="4.58">
        <ele>701.8999023</ele>
        <time>2011-12-04T02:29:52Z</time>
      </trkpt>
      <trkpt lat="45.60084" lon="4.58021">
        <ele>700.4580078</ele>
        <time>2011-12-04T02:29:59Z</time>
      </trkpt>
      <trkpt lat="45.60085" lon="4.58041">
        <ele>701.8999023</ele>
        <time>2011-12-04T02:30:05Z</time>
      </trkpt>
      <trkpt lat="45.60088" lon="4.58059">
        <ele>704.3032227</ele>
        <time>2011-12-04T02:30:10Z</time>
      </trkpt>
      <trkpt lat="45.60091" lon="4.58071">
        <ele>704.3032227</ele>
        <time>2011-12-04T02:30:15Z</time>
      </trkpt>
      <trkpt lat="45.60092" lon="4.5808">
        <ele>705.7451172</ele>
        <time>2011-12-04T02:30:22Z</time>
      </trkpt>
      <trkpt lat="45.60091" lon="4.58093">
        <ele>706.7062988</ele>
        <time>2011-12-04T02:30:29Z</time>
      </trkpt>
      <trkpt lat="45.60091" lon="4.58105">
        <ele>706.2255859</ele>
        <time>2011-12-04T02:30:35Z</time>
      </trkpt>
      <trkpt lat="45.60092" lon="4.5811">
        <ele>707.6677246</ele>
        <time>2011-12-04T02:30:39Z</time>
      </trkpt>
      <trkpt lat="45.60092" lon="4.58119">
        <ele>706.7062988</ele>
        <time>2011-12-04T02:30:43Z</time>
      </trkpt>
      <trkpt lat="45.60092" lon="4.58126">
        <ele>707.1870117</ele>
        <time>2011-12-04T02:30:46Z</time>
      </trkpt>
      <trkpt lat="45.60091" lon="4.58134">
        <ele>709.590332</ele>
        <time>2011-12-04T02:30:49Z</time>
      </trkpt>
      <trkpt lat="45.60092" lon="4.5814">
        <ele>711.9936523</ele>
        <time>2011-12-04T02:30:52Z</time>
      </trkpt>
      <trkpt lat="45.60096" lon="4.58159">
        <ele>706.2255859</ele>
        <time>2011-12-04T02:31:01Z</time>
      </trkpt>
      <trkpt lat="45.60098" lon="4.58173">
        <ele>707.1870117</ele>
        <time>2011-12-04T02:31:07Z</time>
      </trkpt>
      <trkpt lat="45.60098" lon="4.58187">
        <ele>706.2255859</ele>
        <time>2011-12-04T02:31:12Z</time>
      </trkpt>
      <trkpt lat="45.601" lon="4.58199">
        <ele>708.1484375</ele>
        <time>2011-12-04T02:31:18Z</time>
      </trkpt>
      <trkpt lat="45.60101" lon="4.582">
        <ele>708.1484375</ele>
        <time>2011-12-04T02:31:19Z</time>
      </trkpt>
      <trkpt lat="45.60104" lon="4.58217">
        <ele>710.5515137</ele>
        <time>2011-12-04T02:31:27Z</time>
      </trkpt>
      <trkpt lat="45.60107" lon="4.58232">
        <ele>709.1096191</ele>
        <time>2011-12-04T02:31:34Z</time>
      </trkpt>
      <trkpt lat="45.6011" lon="4.58241">
        <ele>713.4355469</ele>
        <time>2011-12-04T02:31:40Z</time>
      </trkpt>
      <trkpt lat="45.60113" lon="4.58251">
        <ele>713.9160156</ele>
        <time>2011-12-04T02:31:45Z</time>
      </trkpt>
      <trkpt lat="45.60114" lon="4.58268">
        <ele>717.2810059</ele>
        <time>2011-12-04T02:31:53Z</time>
      </trkpt>
      <trkpt lat="45.60116" lon="4.5828">
        <ele>720.1647949</ele>
        <time>2011-12-04T02:31:59Z</time>
      </trkpt>
      <trkpt lat="45.6012" lon="4.58292">
        <ele>720.1647949</ele>
        <time>2011-12-04T02:32:05Z</time>
      </trkpt>
      <trkpt lat="45.6012" lon="4.58296">
        <ele>719.6843262</ele>
        <time>2011-12-04T02:32:07Z</time>
      </trkpt>
      <trkpt lat="45.6012" lon="4.58301">
        <ele>720.1647949</ele>
        <time>2011-12-04T02:32:09Z</time>
      </trkpt>
      <trkpt lat="45.60123" lon="4.58297">
        <ele>722.0874023</ele>
        <time>2011-12-04T02:32:15Z</time>
      </trkpt>
      <trkpt lat="45.60123" lon="4.58296">
        <ele>722.0874023</ele>
        <time>2011-12-04T02:32:16Z</time>
      </trkpt>
      <trkpt lat="45.60126" lon="4.58278">
        <ele>721.6066895</ele>
        <time>2011-12-04T02:32:26Z</time>
      </trkpt>
      <trkpt lat="45.60129" lon="4.58262">
        <ele>722.5681152</ele>
        <time>2011-12-04T02:32:35Z</time>
      </trkpt>
      <trkpt lat="45.60131" lon="4.58251">
        <ele>723.0488281</ele>
        <time>2011-12-04T02:32:41Z</time>
      </trkpt>
      <trkpt lat="45.60134" lon="4.5824">
        <ele>725.4519043</ele>
        <time>2011-12-04T02:32:47Z</time>
      </trkpt>
      <trkpt lat="45.60136" lon="4.58229">
        <ele>727.3747559</ele>
        <time>2011-12-04T02:32:53Z</time>
      </trkpt>
      <trkpt lat="45.60137" lon="4.5822">
        <ele>727.3747559</ele>
        <time>2011-12-04T02:32:59Z</time>
      </trkpt>
      <trkpt lat="45.60139" lon="4.5821">
        <ele>726.894043</ele>
        <time>2011-12-04T02:33:06Z</time>
      </trkpt>
      <trkpt lat="45.60141" lon="4.582">
        <ele>724.9714355</ele>
        <time>2011-12-04T02:33:13Z</time>
      </trkpt>
      <trkpt lat="45.60143" lon="4.5819">
        <ele>727.3747559</ele>
        <time>2011-12-04T02:33:19Z</time>
      </trkpt>
      <trkpt lat="45.60145" lon="4.58178">
        <ele>727.8552246</ele>
        <time>2011-12-04T02:33:26Z</time>
      </trkpt>
      <trkpt lat="45.60147" lon="4.58161">
        <ele>730.2585449</ele>
        <time>2011-12-04T02:33:34Z</time>
      </trkpt>
      <trkpt lat="45.60147" lon="4.58147">
        <ele>733.1425781</ele>
        <time>2011-12-04T02:33:41Z</time>
      </trkpt>
      <trkpt lat="45.6015" lon="4.58132">
        <ele>734.1040039</ele>
        <time>2011-12-04T02:33:48Z</time>
      </trkpt>
      <trkpt lat="45.60152" lon="4.5812">
        <ele>736.987793</ele>
        <time>2011-12-04T02:33:54Z</time>
      </trkpt>
      <trkpt lat="45.60154" lon="4.58104">
        <ele>739.3911133</ele>
        <time>2011-12-04T02:34:01Z</time>
      </trkpt>
      <trkpt lat="45.60155" lon="4.58092">
        <ele>741.7944336</ele>
        <time>2011-12-04T02:34:07Z</time>
      </trkpt>
      <trkpt lat="45.60155" lon="4.58078">
        <ele>741.7944336</ele>
        <time>2011-12-04T02:34:14Z</time>
      </trkpt>
      <trkpt lat="45.60155" lon="4.58066">
        <ele>743.2363281</ele>
        <time>2011-12-04T02:34:19Z</time>
      </trkpt>
      <trkpt lat="45.60157" lon="4.58055">
        <ele>743.717041</ele>
        <time>2011-12-04T02:34:27Z</time>
      </trkpt>
      <trkpt lat="45.60158" lon="4.58053">
        <ele>743.717041</ele>
        <time>2011-12-04T02:34:29Z</time>
      </trkpt>
      <trkpt lat="45.6016" lon="4.58043">
        <ele>743.2363281</ele>
        <time>2011-12-04T02:34:35Z</time>
      </trkpt>
      <trkpt lat="45.6016" lon="4.58042">
        <ele>742.7558594</ele>
        <time>2011-12-04T02:34:36Z</time>
      </trkpt>
      <trkpt lat="45.60163" lon="4.58036">
        <ele>743.717041</ele>
        <time>2011-12-04T02:34:41Z</time>
      </trkpt>
      <trkpt lat="45.60165" lon="4.5803">
        <ele>744.6782227</ele>
        <time>2011-12-04T02:34:45Z</time>
      </trkpt>
      <trkpt lat="45.60167" lon="4.58023">
        <ele>745.1589355</ele>
        <time>2011-12-04T02:34:49Z</time>
      </trkpt>
      <trkpt lat="45.60169" lon="4.58014">
        <ele>748.5236816</ele>
        <time>2011-12-04T02:34:54Z</time>
      </trkpt>
      <trkpt lat="45.60173" lon="4.58006">
        <ele>749.0043945</ele>
        <time>2011-12-04T02:35:01Z</time>
      </trkpt>
      <trkpt lat="45.60177" lon="4.58001">
        <ele>749.0043945</ele>
        <time>2011-12-04T02:35:07Z</time>
      </trkpt>
      <trkpt lat="45.60182" lon="4.57997">
        <ele>749.4851074</ele>
        <time>2011-12-04T02:35:13Z</time>
      </trkpt>
      <trkpt lat="45.60194" lon="4.57992">
        <ele>751.8884277</ele>
        <time>2011-12-04T02:35:22Z</time>
      </trkpt>
      <trkpt lat="45.60204" lon="4.57985">
        <ele>754.291748</ele>
        <time>2011-12-04T02:35:29Z</time>
      </trkpt>
      <trkpt lat="45.60211" lon="4.57977">
        <ele>753.8110352</ele>
        <time>2011-12-04T02:35:34Z</time>
      </trkpt>
      <trkpt lat="45.60222" lon="4.5796">
        <ele>753.8110352</ele>
        <time>2011-12-04T02:35:41Z</time>
      </trkpt>
      <trkpt lat="45.60231" lon="4.57947">
        <ele>753.8110352</ele>
        <time>2011-12-04T02:35:47Z</time>
      </trkpt>
      <trkpt lat="45.60234" lon="4.57932">
        <ele>753.8110352</ele>
        <time>2011-12-04T02:35:53Z</time>
      </trkpt>
      <trkpt lat="45.60236" lon="4.57926">
        <ele>753.8110352</ele>
        <time>2011-12-04T02:35:55Z</time>
      </trkpt>
      <trkpt lat="45.60239" lon="4.57909">
        <ele>754.291748</ele>
        <time>2011-12-04T02:36:02Z</time>
      </trkpt>
      <trkpt lat="45.60241" lon="4.57893">
        <ele>755.2529297</ele>
        <time>2011-12-04T02:36:09Z</time>
      </trkpt>
      <trkpt lat="45.60242" lon="4.57891">
        <ele>755.7336426</ele>
        <time>2011-12-04T02:36:10Z</time>
      </trkpt>
      <trkpt lat="45.60242" lon="4.57884">
        <ele>755.7336426</ele>
        <time>2011-12-04T02:36:14Z</time>
      </trkpt>
      <trkpt lat="45.60244" lon="4.57865">
        <ele>755.7336426</ele>
        <time>2011-12-04T02:36:23Z</time>
      </trkpt>
      <trkpt lat="45.60246" lon="4.57854">
        <ele>756.6948242</ele>
        <time>2011-12-04T02:36:28Z</time>
      </trkpt>
      <trkpt lat="45.60246" lon="4.57842">
        <ele>757.1755371</ele>
        <time>2011-12-04T02:36:34Z</time>
      </trkpt>
      <trkpt lat="45.60246" lon="4.5784">
        <ele>757.65625</ele>
        <time>2011-12-04T02:36:35Z</time>
      </trkpt>
      <trkpt lat="45.60247" lon="4.57826">
        <ele>757.65625</ele>
        <time>2011-12-04T02:36:43Z</time>
      </trkpt>
      <trkpt lat="45.60246" lon="4.57819">
        <ele>756.2141113</ele>
        <time>2011-12-04T02:36:47Z</time>
      </trkpt>
      <trkpt lat="45.60244" lon="4.57809">
        <ele>756.2141113</ele>
        <time>2011-12-04T02:36:54Z</time>
      </trkpt>
      <trkpt lat="45.60243" lon="4.57804">
        <ele>754.7722168</ele>
        <time>2011-12-04T02:36:57Z</time>
      </trkpt>
      <trkpt lat="45.60245" lon="4.57791">
        <ele>755.7336426</ele>
        <time>2011-12-04T02:37:04Z</time>
      </trkpt>
      <trkpt lat="45.60248" lon="4.57793">
        <ele>757.1755371</ele>
        <time>2011-12-04T02:37:09Z</time>
      </trkpt>
      <trkpt lat="45.60251" lon="4.57808">
        <ele>760.5400391</ele>
        <time>2011-12-04T02:37:17Z</time>
      </trkpt>
      <trkpt lat="45.60256" lon="4.57818">
        <ele>761.020752</ele>
        <time>2011-12-04T02:37:22Z</time>
      </trkpt>
      <trkpt lat="45.60259" lon="4.57827">
        <ele>761.9821777</ele>
        <time>2011-12-04T02:37:25Z</time>
      </trkpt>
      <trkpt lat="45.60264" lon="4.57842">
        <ele>762.4626465</ele>
        <time>2011-12-04T02:37:30Z</time>
      </trkpt>
      <trkpt lat="45.60271" lon="4.57863">
        <ele>761.9821777</ele>
        <time>2011-12-04T02:37:37Z</time>
      </trkpt>
      <trkpt lat="45.60279" lon="4.57879">
        <ele>762.4626465</ele>
        <time>2011-12-04T02:37:43Z</time>
      </trkpt>
      <trkpt lat="45.60287" lon="4.57901">
        <ele>763.904541</ele>
        <time>2011-12-04T02:37:51Z</time>
      </trkpt>
      <trkpt lat="45.60296" lon="4.57916">
        <ele>764.8662109</ele>
        <time>2011-12-04T02:37:57Z</time>
      </trkpt>
      <trkpt lat="45.60302" lon="4.57932">
        <ele>763.904541</ele>
        <time>2011-12-04T02:38:03Z</time>
      </trkpt>
      <trkpt lat="45.60309" lon="4.57948">
        <ele>762.4626465</ele>
        <time>2011-12-04T02:38:10Z</time>
      </trkpt>
      <trkpt lat="45.60313" lon="4.57964">
        <ele>760.5400391</ele>
        <time>2011-12-04T02:38:16Z</time>
      </trkpt>
      <trkpt lat="45.60317" lon="4.57981">
        <ele>761.9821777</ele>
        <time>2011-12-04T02:38:22Z</time>
      </trkpt>
      <trkpt lat="45.6032" lon="4.58">
        <ele>761.9821777</ele>
        <time>2011-12-04T02:38:28Z</time>
      </trkpt>
      <trkpt lat="45.60323" lon="4.58015">
        <ele>763.4240723</ele>
        <time>2011-12-04T02:38:33Z</time>
      </trkpt>
      <trkpt lat="45.60326" lon="4.58024">
        <ele>764.8662109</ele>
        <time>2011-12-04T02:38:37Z</time>
      </trkpt>
      <trkpt lat="45.60331" lon="4.58042">
        <ele>768.7114258</ele>
        <time>2011-12-04T02:38:45Z</time>
      </trkpt>
      <trkpt lat="45.60336" lon="4.58055">
        <ele>770.6340332</ele>
        <time>2011-12-04T02:38:51Z</time>
      </trkpt>
      <trkpt lat="45.6034" lon="4.58068">
        <ele>770.1533203</ele>
        <time>2011-12-04T02:38:57Z</time>
      </trkpt>
      <trkpt lat="45.60346" lon="4.58085">
        <ele>768.7114258</ele>
        <time>2011-12-04T02:39:05Z</time>
      </trkpt>
      <trkpt lat="45.60351" lon="4.58099">
        <ele>770.6340332</ele>
        <time>2011-12-04T02:39:10Z</time>
      </trkpt>
      <trkpt lat="45.60357" lon="4.5812">
        <ele>772.5566406</ele>
        <time>2011-12-04T02:39:17Z</time>
      </trkpt>
      <trkpt lat="45.60362" lon="4.58136">
        <ele>771.1147461</ele>
        <time>2011-12-04T02:39:23Z</time>
      </trkpt>
      <trkpt lat="45.60366" lon="4.58152">
        <ele>770.1533203</ele>
        <time>2011-12-04T02:39:29Z</time>
      </trkpt>
      <trkpt lat="45.6037" lon="4.58172">
        <ele>767.75</ele>
        <time>2011-12-04T02:39:36Z</time>
      </trkpt>
      <trkpt lat="45.60376" lon="4.58194">
        <ele>766.7888184</ele>
        <time>2011-12-04T02:39:43Z</time>
      </trkpt>
      <trkpt lat="45.60381" lon="4.58214">
        <ele>765.3469238</ele>
        <time>2011-12-04T02:39:49Z</time>
      </trkpt>
      <trkpt lat="45.60385" lon="4.58236">
        <ele>764.8662109</ele>
        <time>2011-12-04T02:39:56Z</time>
      </trkpt>
      <trkpt lat="45.6039" lon="4.58256">
        <ele>765.3469238</ele>
        <time>2011-12-04T02:40:02Z</time>
      </trkpt>
      <trkpt lat="45.60395" lon="4.58279">
        <ele>766.3081055</ele>
        <time>2011-12-04T02:40:09Z</time>
      </trkpt>
      <trkpt lat="45.60401" lon="4.58294">
        <ele>768.2307129</ele>
        <time>2011-12-04T02:40:14Z</time>
      </trkpt>
      <trkpt lat="45.60409" lon="4.58312">
        <ele>771.5952148</ele>
        <time>2011-12-04T02:40:20Z</time>
      </trkpt>
      <trkpt lat="45.60417" lon="4.58325">
        <ele>772.0759277</ele>
        <time>2011-12-04T02:40:26Z</time>
      </trkpt>
      <trkpt lat="45.60423" lon="4.58338">
        <ele>773.9985352</ele>
        <time>2011-12-04T02:40:31Z</time>
      </trkpt>
      <trkpt lat="45.60425" lon="4.58353">
        <ele>773.9985352</ele>
        <time>2011-12-04T02:40:36Z</time>
      </trkpt>
      <trkpt lat="45.6043" lon="4.58375">
        <ele>776.4018555</ele>
        <time>2011-12-04T02:40:43Z</time>
      </trkpt>
      <trkpt lat="45.60438" lon="4.58389">
        <ele>777.3632813</ele>
        <time>2011-12-04T02:40:49Z</time>
      </trkpt>
      <trkpt lat="45.60446" lon="4.58406">
        <ele>778.8051758</ele>
        <time>2011-12-04T02:40:56Z</time>
      </trkpt>
      <trkpt lat="45.60454" lon="4.58421">
        <ele>779.2856445</ele>
        <time>2011-12-04T02:41:02Z</time>
      </trkpt>
      <trkpt lat="45.60461" lon="4.58438">
        <ele>779.7663574</ele>
        <time>2011-12-04T02:41:09Z</time>
      </trkpt>
      <trkpt lat="45.60468" lon="4.58451">
        <ele>779.7663574</ele>
        <time>2011-12-04T02:41:15Z</time>
      </trkpt>
      <trkpt lat="45.60474" lon="4.58464">
        <ele>780.7280273</ele>
        <time>2011-12-04T02:41:21Z</time>
      </trkpt>
      <trkpt lat="45.60479" lon="4.58481">
        <ele>780.7280273</ele>
        <time>2011-12-04T02:41:27Z</time>
      </trkpt>
      <trkpt lat="45.60484" lon="4.58502">
        <ele>780.7280273</ele>
        <time>2011-12-04T02:41:34Z</time>
      </trkpt>
      <trkpt lat="45.60489" lon="4.58523">
        <ele>780.7280273</ele>
        <time>2011-12-04T02:41:41Z</time>
      </trkpt>
      <trkpt lat="45.60495" lon="4.58544">
        <ele>780.7280273</ele>
        <time>2011-12-04T02:41:48Z</time>
      </trkpt>
      <trkpt lat="45.60501" lon="4.58564">
        <ele>779.7663574</ele>
        <time>2011-12-04T02:41:55Z</time>
      </trkpt>
      <trkpt lat="45.60508" lon="4.58586">
        <ele>779.7663574</ele>
        <time>2011-12-04T02:42:03Z</time>
      </trkpt>
      <trkpt lat="45.60513" lon="4.58603">
        <ele>779.7663574</ele>
        <time>2011-12-04T02:42:09Z</time>
      </trkpt>
      <trkpt lat="45.60519" lon="4.58622">
        <ele>781.689209</ele>
        <time>2011-12-04T02:42:16Z</time>
      </trkpt>
      <trkpt lat="45.60521" lon="4.5863">
        <ele>781.2087402</ele>
        <time>2011-12-04T02:42:19Z</time>
      </trkpt>
      <trkpt lat="45.60527" lon="4.58645">
        <ele>780.7280273</ele>
        <time>2011-12-04T02:42:25Z</time>
      </trkpt>
      <trkpt lat="45.60537" lon="4.58667">
        <ele>781.2087402</ele>
        <time>2011-12-04T02:42:34Z</time>
      </trkpt>
      <trkpt lat="45.60547" lon="4.5868">
        <ele>783.6118164</ele>
        <time>2011-12-04T02:42:41Z</time>
      </trkpt>
      <trkpt lat="45.60558" lon="4.58694">
        <ele>785.0539551</ele>
        <time>2011-12-04T02:42:48Z</time>
      </trkpt>
      <trkpt lat="45.60572" lon="4.58706">
        <ele>786.4958496</ele>
        <time>2011-12-04T02:42:55Z</time>
      </trkpt>
      <trkpt lat="45.60588" lon="4.58719">
        <ele>786.4958496</ele>
        <time>2011-12-04T02:43:03Z</time>
      </trkpt>
      <trkpt lat="45.60598" lon="4.58728">
        <ele>786.9763184</ele>
        <time>2011-12-04T02:43:08Z</time>
      </trkpt>
      <trkpt lat="45.60609" lon="4.5874">
        <ele>786.9763184</ele>
        <time>2011-12-04T02:43:14Z</time>
      </trkpt>
      <trkpt lat="45.60622" lon="4.5875">
        <ele>786.4958496</ele>
        <time>2011-12-04T02:43:21Z</time>
      </trkpt>
      <trkpt lat="45.60636" lon="4.58763">
        <ele>786.9763184</ele>
        <time>2011-12-04T02:43:28Z</time>
      </trkpt>
      <trkpt lat="45.60648" lon="4.58776">
        <ele>786.4958496</ele>
        <time>2011-12-04T02:43:34Z</time>
      </trkpt>
      <trkpt lat="45.60658" lon="4.58796">
        <ele>784.5732422</ele>
        <time>2011-12-04T02:43:41Z</time>
      </trkpt>
      <trkpt lat="45.60666" lon="4.58817">
        <ele>781.2087402</ele>
        <time>2011-12-04T02:43:47Z</time>
      </trkpt>
      <trkpt lat="45.60673" lon="4.58837">
        <ele>779.2856445</ele>
        <time>2011-12-04T02:43:53Z</time>
      </trkpt>
      <trkpt lat="45.60681" lon="4.58857">
        <ele>777.3632813</ele>
        <time>2011-12-04T02:43:59Z</time>
      </trkpt>
      <trkpt lat="45.6069" lon="4.58876">
        <ele>774.479248</ele>
        <time>2011-12-04T02:44:05Z</time>
      </trkpt>
      <trkpt lat="45.60698" lon="4.58893">
        <ele>773.5180664</ele>
        <time>2011-12-04T02:44:10Z</time>
      </trkpt>
      <trkpt lat="45.60711" lon="4.58912">
        <ele>771.1147461</ele>
        <time>2011-12-04T02:44:17Z</time>
      </trkpt>
      <trkpt lat="45.60724" lon="4.58926">
        <ele>768.7114258</ele>
        <time>2011-12-04T02:44:23Z</time>
      </trkpt>
      <trkpt lat="45.60739" lon="4.5894">
        <ele>767.2695313</ele>
        <time>2011-12-04T02:44:30Z</time>
      </trkpt>
      <trkpt lat="45.60752" lon="4.58955">
        <ele>766.3081055</ele>
        <time>2011-12-04T02:44:36Z</time>
      </trkpt>
      <trkpt lat="45.60766" lon="4.58969">
        <ele>764.385498</ele>
        <time>2011-12-04T02:44:42Z</time>
      </trkpt>
      <trkpt lat="45.60781" lon="4.58981">
        <ele>763.4240723</ele>
        <time>2011-12-04T02:44:48Z</time>
      </trkpt>
      <trkpt lat="45.60794" lon="4.58989">
        <ele>763.4240723</ele>
        <time>2011-12-04T02:44:53Z</time>
      </trkpt>
      <trkpt lat="45.60803" lon="4.58993">
        <ele>764.385498</ele>
        <time>2011-12-04T02:44:57Z</time>
      </trkpt>
      <trkpt lat="45.60814" lon="4.58996">
        <ele>762.9433594</ele>
        <time>2011-12-04T02:45:03Z</time>
      </trkpt>
      <trkpt lat="45.60827" lon="4.59002">
        <ele>763.904541</ele>
        <time>2011-12-04T02:45:09Z</time>
      </trkpt>
      <trkpt lat="45.60837" lon="4.59008">
        <ele>766.7888184</ele>
        <time>2011-12-04T02:45:14Z</time>
      </trkpt>
      <trkpt lat="45.60848" lon="4.59019">
        <ele>769.1921387</ele>
        <time>2011-12-04T02:45:20Z</time>
      </trkpt>
      <trkpt lat="45.60858" lon="4.59036">
        <ele>773.0373535</ele>
        <time>2011-12-04T02:45:28Z</time>
      </trkpt>
      <trkpt lat="45.60866" lon="4.59051">
        <ele>775.4404297</ele>
        <time>2011-12-04T02:45:34Z</time>
      </trkpt>
      <trkpt lat="45.60873" lon="4.59068">
        <ele>778.3244629</ele>
        <time>2011-12-04T02:45:40Z</time>
      </trkpt>
      <trkpt lat="45.6088" lon="4.59087">
        <ele>779.2856445</ele>
        <time>2011-12-04T02:45:47Z</time>
      </trkpt>
      <trkpt lat="45.60888" lon="4.5911">
        <ele>780.7280273</ele>
        <time>2011-12-04T02:45:55Z</time>
      </trkpt>
      <trkpt lat="45.60895" lon="4.59131">
        <ele>781.2087402</ele>
        <time>2011-12-04T02:46:02Z</time>
      </trkpt>
      <trkpt lat="45.60898" lon="4.59147">
        <ele>779.2856445</ele>
        <time>2011-12-04T02:46:07Z</time>
      </trkpt>
      <trkpt lat="45.60901" lon="4.59166">
        <ele>777.3632813</ele>
        <time>2011-12-04T02:46:13Z</time>
      </trkpt>
      <trkpt lat="45.60901" lon="4.59188">
        <ele>776.8825684</ele>
        <time>2011-12-04T02:46:19Z</time>
      </trkpt>
      <trkpt lat="45.60899" lon="4.59214">
        <ele>775.4404297</ele>
        <time>2011-12-04T02:46:26Z</time>
      </trkpt>
      <trkpt lat="45.60897" lon="4.59236">
        <ele>774.479248</ele>
        <time>2011-12-04T02:46:32Z</time>
      </trkpt>
      <trkpt lat="45.60895" lon="4.59261">
        <ele>770.6340332</ele>
        <time>2011-12-04T02:46:39Z</time>
      </trkpt>
      <trkpt lat="45.60895" lon="4.59265">
        <ele>770.6340332</ele>
        <time>2011-12-04T02:46:40Z</time>
      </trkpt>
      <trkpt lat="45.60894" lon="4.59294">
        <ele>768.7114258</ele>
        <time>2011-12-04T02:46:48Z</time>
      </trkpt>
      <trkpt lat="45.60892" lon="4.59324">
        <ele>767.75</ele>
        <time>2011-12-04T02:46:56Z</time>
      </trkpt>
      <trkpt lat="45.60889" lon="4.59355">
        <ele>767.2695313</ele>
        <time>2011-12-04T02:47:04Z</time>
      </trkpt>
      <trkpt lat="45.60886" lon="4.59373">
        <ele>767.2695313</ele>
        <time>2011-12-04T02:47:09Z</time>
      </trkpt>
      <trkpt lat="45.60881" lon="4.59399">
        <ele>767.75</ele>
        <time>2011-12-04T02:47:16Z</time>
      </trkpt>
      <trkpt lat="45.60877" lon="4.59421">
        <ele>768.2307129</ele>
        <time>2011-12-04T02:47:22Z</time>
      </trkpt>
      <trkpt lat="45.60873" lon="4.59447">
        <ele>768.7114258</ele>
        <time>2011-12-04T02:47:29Z</time>
      </trkpt>
      <trkpt lat="45.60873" lon="4.59468">
        <ele>769.1921387</ele>
        <time>2011-12-04T02:47:35Z</time>
      </trkpt>
      <trkpt lat="45.60874" lon="4.5949">
        <ele>768.7114258</ele>
        <time>2011-12-04T02:47:41Z</time>
      </trkpt>
      <trkpt lat="45.60876" lon="4.59516">
        <ele>768.7114258</ele>
        <time>2011-12-04T02:47:48Z</time>
      </trkpt>
      <trkpt lat="45.60879" lon="4.5954">
        <ele>767.2695313</ele>
        <time>2011-12-04T02:47:55Z</time>
      </trkpt>
      <trkpt lat="45.60887" lon="4.59559">
        <ele>768.7114258</ele>
        <time>2011-12-04T02:48:01Z</time>
      </trkpt>
      <trkpt lat="45.60894" lon="4.59577">
        <ele>770.1533203</ele>
        <time>2011-12-04T02:48:07Z</time>
      </trkpt>
      <trkpt lat="45.60902" lon="4.59593">
        <ele>770.1533203</ele>
        <time>2011-12-04T02:48:12Z</time>
      </trkpt>
      <trkpt lat="45.6091" lon="4.59607">
        <ele>768.7114258</ele>
        <time>2011-12-04T02:48:17Z</time>
      </trkpt>
      <trkpt lat="45.60919" lon="4.59617">
        <ele>768.2307129</ele>
        <time>2011-12-04T02:48:22Z</time>
      </trkpt>
      <trkpt lat="45.6093" lon="4.59632">
        <ele>768.2307129</ele>
        <time>2011-12-04T02:48:29Z</time>
      </trkpt>
      <trkpt lat="45.60932" lon="4.59634">
        <ele>768.7114258</ele>
        <time>2011-12-04T02:48:30Z</time>
      </trkpt>
      <trkpt lat="45.60939" lon="4.59655">
        <ele>768.7114258</ele>
        <time>2011-12-04T02:48:37Z</time>
      </trkpt>
      <trkpt lat="45.60946" lon="4.59665">
        <ele>768.2307129</ele>
        <time>2011-12-04T02:48:41Z</time>
      </trkpt>
      <trkpt lat="45.60953" lon="4.59682">
        <ele>767.75</ele>
        <time>2011-12-04T02:48:47Z</time>
      </trkpt>
      <trkpt lat="45.60962" lon="4.59697">
        <ele>769.1921387</ele>
        <time>2011-12-04T02:48:52Z</time>
      </trkpt>
      <trkpt lat="45.60968" lon="4.59714">
        <ele>768.7114258</ele>
        <time>2011-12-04T02:48:57Z</time>
      </trkpt>
      <trkpt lat="45.60977" lon="4.59734">
        <ele>768.7114258</ele>
        <time>2011-12-04T02:49:03Z</time>
      </trkpt>
      <trkpt lat="45.60984" lon="4.5975">
        <ele>768.7114258</ele>
        <time>2011-12-04T02:49:08Z</time>
      </trkpt>
      <trkpt lat="45.60992" lon="4.5976">
        <ele>768.7114258</ele>
        <time>2011-12-04T02:49:12Z</time>
      </trkpt>
      <trkpt lat="45.60999" lon="4.59767">
        <ele>766.7888184</ele>
        <time>2011-12-04T02:49:16Z</time>
      </trkpt>
      <trkpt lat="45.6102" lon="4.59771">
        <ele>764.8662109</ele>
        <time>2011-12-04T02:49:23Z</time>
      </trkpt>
      <trkpt lat="45.61026" lon="4.59774">
        <ele>765.3469238</ele>
        <time>2011-12-04T02:49:25Z</time>
      </trkpt>
      <trkpt lat="45.61033" lon="4.59793">
        <ele>762.4626465</ele>
        <time>2011-12-04T02:49:30Z</time>
      </trkpt>
      <trkpt lat="45.61032" lon="4.59798">
        <ele>761.9821777</ele>
        <time>2011-12-04T02:49:31Z</time>
      </trkpt>
      <trkpt lat="45.61028" lon="4.59823">
        <ele>757.65625</ele>
        <time>2011-12-04T02:49:37Z</time>
      </trkpt>
      <trkpt lat="45.61024" lon="4.59842">
        <ele>755.2529297</ele>
        <time>2011-12-04T02:49:42Z</time>
      </trkpt>
      <trkpt lat="45.61023" lon="4.59853">
        <ele>755.2529297</ele>
        <time>2011-12-04T02:49:45Z</time>
      </trkpt>
      <trkpt lat="45.61019" lon="4.5988">
        <ele>755.2529297</ele>
        <time>2011-12-04T02:49:53Z</time>
      </trkpt>
      <trkpt lat="45.6102" lon="4.59895">
        <ele>755.2529297</ele>
        <time>2011-12-04T02:49:58Z</time>
      </trkpt>
      <trkpt lat="45.6102" lon="4.59905">
        <ele>757.1755371</ele>
        <time>2011-12-04T02:50:02Z</time>
      </trkpt>
      <trkpt lat="45.61025" lon="4.59919">
        <ele>758.6174316</ele>
        <time>2011-12-04T02:50:08Z</time>
      </trkpt>
      <trkpt lat="45.61025" lon="4.59923">
        <ele>760.0593262</ele>
        <time>2011-12-04T02:50:10Z</time>
      </trkpt>
      <trkpt lat="45.6103" lon="4.59935">
        <ele>762.9433594</ele>
        <time>2011-12-04T02:50:17Z</time>
      </trkpt>
      <trkpt lat="45.61034" lon="4.59945">
        <ele>763.904541</ele>
        <time>2011-12-04T02:50:23Z</time>
      </trkpt>
      <trkpt lat="45.61044" lon="4.59961">
        <ele>766.7888184</ele>
        <time>2011-12-04T02:50:32Z</time>
      </trkpt>
      <trkpt lat="45.6105" lon="4.59968">
        <ele>765.8276367</ele>
        <time>2011-12-04T02:50:38Z</time>
      </trkpt>
      <trkpt lat="45.61059" lon="4.5998">
        <ele>767.75</ele>
        <time>2011-12-04T02:50:44Z</time>
      </trkpt>
      <trkpt lat="45.61071" lon="4.59995">
        <ele>767.75</ele>
        <time>2011-12-04T02:50:50Z</time>
      </trkpt>
      <trkpt lat="45.6108" lon="4.60005">
        <ele>767.75</ele>
        <time>2011-12-04T02:50:55Z</time>
      </trkpt>
      <trkpt lat="45.6109" lon="4.60012">
        <ele>765.3469238</ele>
        <time>2011-12-04T02:51:00Z</time>
      </trkpt>
      <trkpt lat="45.61099" lon="4.60018">
        <ele>762.4626465</ele>
        <time>2011-12-04T02:51:06Z</time>
      </trkpt>
      <trkpt lat="45.61111" lon="4.60027">
        <ele>761.020752</ele>
        <time>2011-12-04T02:51:11Z</time>
      </trkpt>
      <trkpt lat="45.61113" lon="4.60029">
        <ele>760.5400391</ele>
        <time>2011-12-04T02:51:12Z</time>
      </trkpt>
      <trkpt lat="45.61132" lon="4.6004">
        <ele>758.6174316</ele>
        <time>2011-12-04T02:51:20Z</time>
      </trkpt>
      <trkpt lat="45.61142" lon="4.60045">
        <ele>756.2141113</ele>
        <time>2011-12-04T02:51:25Z</time>
      </trkpt>
      <trkpt lat="45.61159" lon="4.6005">
        <ele>754.291748</ele>
        <time>2011-12-04T02:51:31Z</time>
      </trkpt>
      <trkpt lat="45.6117" lon="4.6006">
        <ele>751.8884277</ele>
        <time>2011-12-04T02:51:36Z</time>
      </trkpt>
      <trkpt lat="45.61172" lon="4.60062">
        <ele>751.8884277</ele>
        <time>2011-12-04T02:51:37Z</time>
      </trkpt>
      <trkpt lat="45.61179" lon="4.60079">
        <ele>753.3303223</ele>
        <time>2011-12-04T02:51:42Z</time>
      </trkpt>
      <trkpt lat="45.61181" lon="4.60107">
        <ele>754.291748</ele>
        <time>2011-12-04T02:51:49Z</time>
      </trkpt>
      <trkpt lat="45.61183" lon="4.60122">
        <ele>753.3303223</ele>
        <time>2011-12-04T02:51:53Z</time>
      </trkpt>
      <trkpt lat="45.61185" lon="4.60147">
        <ele>750.4465332</ele>
        <time>2011-12-04T02:52:00Z</time>
      </trkpt>
      <trkpt lat="45.61188" lon="4.60168">
        <ele>749.9658203</ele>
        <time>2011-12-04T02:52:05Z</time>
      </trkpt>
      <trkpt lat="45.61192" lon="4.60202">
        <ele>749.9658203</ele>
        <time>2011-12-04T02:52:13Z</time>
      </trkpt>
      <trkpt lat="45.61198" lon="4.60229">
        <ele>749.4851074</ele>
        <time>2011-12-04T02:52:20Z</time>
      </trkpt>
      <trkpt lat="45.61204" lon="4.60245">
        <ele>748.5236816</ele>
        <time>2011-12-04T02:52:25Z</time>
      </trkpt>
      <trkpt lat="45.61209" lon="4.60261">
        <ele>747.081543</ele>
        <time>2011-12-04T02:52:30Z</time>
      </trkpt>
      <trkpt lat="45.61215" lon="4.60279">
        <ele>745.6396484</ele>
        <time>2011-12-04T02:52:36Z</time>
      </trkpt>
      <trkpt lat="45.61224" lon="4.60292">
        <ele>743.2363281</ele>
        <time>2011-12-04T02:52:43Z</time>
      </trkpt>
      <trkpt lat="45.61232" lon="4.60303">
        <ele>743.717041</ele>
        <time>2011-12-04T02:52:48Z</time>
      </trkpt>
      <trkpt lat="45.61237" lon="4.60309">
        <ele>743.2363281</ele>
        <time>2011-12-04T02:52:51Z</time>
      </trkpt>
      <trkpt lat="45.61244" lon="4.60321">
        <ele>741.3137207</ele>
        <time>2011-12-04T02:52:56Z</time>
      </trkpt>
      <trkpt lat="45.61257" lon="4.60336">
        <ele>739.8718262</ele>
        <time>2011-12-04T02:53:03Z</time>
      </trkpt>
      <trkpt lat="45.61261" lon="4.60343">
        <ele>740.8330078</ele>
        <time>2011-12-04T02:53:06Z</time>
      </trkpt>
      <trkpt lat="45.61266" lon="4.60351">
        <ele>746.1203613</ele>
        <time>2011-12-04T02:53:11Z</time>
      </trkpt>
      <trkpt lat="45.61273" lon="4.60362">
        <ele>748.0432129</ele>
        <time>2011-12-04T02:53:16Z</time>
      </trkpt>
      <trkpt lat="45.61274" lon="4.60366">
        <ele>747.5622559</ele>
        <time>2011-12-04T02:53:18Z</time>
      </trkpt>
      <trkpt lat="45.61281" lon="4.6038">
        <ele>749.9658203</ele>
        <time>2011-12-04T02:53:24Z</time>
      </trkpt>
      <trkpt lat="45.61284" lon="4.60388">
        <ele>753.3303223</ele>
        <time>2011-12-04T02:53:28Z</time>
      </trkpt>
      <trkpt lat="45.61286" lon="4.60398">
        <ele>756.2141113</ele>
        <time>2011-12-04T02:53:32Z</time>
      </trkpt>
      <trkpt lat="45.6129" lon="4.60412">
        <ele>756.6948242</ele>
        <time>2011-12-04T02:53:37Z</time>
      </trkpt>
      <trkpt lat="45.61298" lon="4.60433">
        <ele>749.4851074</ele>
        <time>2011-12-04T02:53:44Z</time>
      </trkpt>
      <trkpt lat="45.613" lon="4.60446">
        <ele>745.6396484</ele>
        <time>2011-12-04T02:53:49Z</time>
      </trkpt>
      <trkpt lat="45.61303" lon="4.6046">
        <ele>743.717041</ele>
        <time>2011-12-04T02:53:54Z</time>
      </trkpt>
      <trkpt lat="45.61304" lon="4.60471">
        <ele>744.1977539</ele>
        <time>2011-12-04T02:53:58Z</time>
      </trkpt>
      <trkpt lat="45.61303" lon="4.60487">
        <ele>744.1977539</ele>
        <time>2011-12-04T02:54:05Z</time>
      </trkpt>
      <trkpt lat="45.61304" lon="4.60493">
        <ele>745.6396484</ele>
        <time>2011-12-04T02:54:08Z</time>
      </trkpt>
      <trkpt lat="45.61305" lon="4.60499">
        <ele>747.081543</ele>
        <time>2011-12-04T02:54:12Z</time>
      </trkpt>
      <trkpt lat="45.61306" lon="4.60501">
        <ele>747.5622559</ele>
        <time>2011-12-04T02:54:14Z</time>
      </trkpt>
      <trkpt lat="45.61312" lon="4.60512">
        <ele>749.4851074</ele>
        <time>2011-12-04T02:54:21Z</time>
      </trkpt>
      <trkpt lat="45.61319" lon="4.60527">
        <ele>749.4851074</ele>
        <time>2011-12-04T02:54:29Z</time>
      </trkpt>
      <trkpt lat="45.61324" lon="4.60535">
        <ele>748.0432129</ele>
        <time>2011-12-04T02:54:33Z</time>
      </trkpt>
      <trkpt lat="45.61332" lon="4.60551">
        <ele>744.6782227</ele>
        <time>2011-12-04T02:54:39Z</time>
      </trkpt>
      <trkpt lat="45.61337" lon="4.6056">
        <ele>743.717041</ele>
        <time>2011-12-04T02:54:43Z</time>
      </trkpt>
      <trkpt lat="45.61343" lon="4.60567">
        <ele>745.1589355</ele>
        <time>2011-12-04T02:54:46Z</time>
      </trkpt>
      <trkpt lat="45.6135" lon="4.6057">
        <ele>747.5622559</ele>
        <time>2011-12-04T02:54:49Z</time>
      </trkpt>
      <trkpt lat="45.6136" lon="4.60574">
        <ele>749.9658203</ele>
        <time>2011-12-04T02:54:55Z</time>
      </trkpt>
      <trkpt lat="45.61371" lon="4.60575">
        <ele>748.5236816</ele>
        <time>2011-12-04T02:55:00Z</time>
      </trkpt>
      <trkpt lat="45.6139" lon="4.60572">
        <ele>749.9658203</ele>
        <time>2011-12-04T02:55:06Z</time>
      </trkpt>
      <trkpt lat="45.61394" lon="4.60572">
        <ele>749.9658203</ele>
        <time>2011-12-04T02:55:08Z</time>
      </trkpt>
      <trkpt lat="45.61401" lon="4.60574">
        <ele>753.3303223</ele>
        <time>2011-12-04T02:55:12Z</time>
      </trkpt>
      <trkpt lat="45.61406" lon="4.60574">
        <ele>756.2141113</ele>
        <time>2011-12-04T02:55:14Z</time>
      </trkpt>
      <trkpt lat="45.61422" lon="4.60581">
        <ele>763.904541</ele>
        <time>2011-12-04T02:55:21Z</time>
      </trkpt>
      <trkpt lat="45.61431" lon="4.60584">
        <ele>762.9433594</ele>
        <time>2011-12-04T02:55:26Z</time>
      </trkpt>
      <trkpt lat="45.61442" lon="4.60585">
        <ele>759.5788574</ele>
        <time>2011-12-04T02:55:32Z</time>
      </trkpt>
      <trkpt lat="45.61444" lon="4.60583">
        <ele>757.1755371</ele>
        <time>2011-12-04T02:55:33Z</time>
      </trkpt>
      <trkpt lat="45.61453" lon="4.60581">
        <ele>757.1755371</ele>
        <time>2011-12-04T02:55:39Z</time>
      </trkpt>
      <trkpt lat="45.61454" lon="4.60581">
        <ele>757.65625</ele>
        <time>2011-12-04T02:55:40Z</time>
      </trkpt>
      <trkpt lat="45.61463" lon="4.60573">
        <ele>753.3303223</ele>
        <time>2011-12-04T02:55:46Z</time>
      </trkpt>
      <trkpt lat="45.61469" lon="4.60582">
        <ele>753.3303223</ele>
        <time>2011-12-04T02:55:51Z</time>
      </trkpt>
      <trkpt lat="45.61473" lon="4.60589">
        <ele>750.4465332</ele>
        <time>2011-12-04T02:55:55Z</time>
      </trkpt>
      <trkpt lat="45.61489" lon="4.60602">
        <ele>755.7336426</ele>
        <time>2011-12-04T02:56:02Z</time>
      </trkpt>
      <trkpt lat="45.61502" lon="4.60607">
        <ele>760.0593262</ele>
        <time>2011-12-04T02:56:07Z</time>
      </trkpt>
      <trkpt lat="45.61511" lon="4.60609">
        <ele>761.020752</ele>
        <time>2011-12-04T02:56:10Z</time>
      </trkpt>
      <trkpt lat="45.61527" lon="4.60622">
        <ele>764.8662109</ele>
        <time>2011-12-04T02:56:17Z</time>
      </trkpt>
      <trkpt lat="45.61542" lon="4.60633">
        <ele>765.8276367</ele>
        <time>2011-12-04T02:56:23Z</time>
      </trkpt>
      <trkpt lat="45.61543" lon="4.60634">
        <ele>764.8662109</ele>
        <time>2011-12-04T02:56:24Z</time>
      </trkpt>
      <trkpt lat="45.61554" lon="4.60642">
        <ele>766.3081055</ele>
        <time>2011-12-04T02:56:30Z</time>
      </trkpt>
      <trkpt lat="45.6157" lon="4.60651">
        <ele>766.3081055</ele>
        <time>2011-12-04T02:56:35Z</time>
      </trkpt>
      <trkpt lat="45.61581" lon="4.60664">
        <ele>762.4626465</ele>
        <time>2011-12-04T02:56:41Z</time>
      </trkpt>
      <trkpt lat="45.61586" lon="4.6067">
        <ele>761.5014648</ele>
        <time>2011-12-04T02:56:43Z</time>
      </trkpt>
      <trkpt lat="45.61595" lon="4.6068">
        <ele>757.65625</ele>
        <time>2011-12-04T02:56:49Z</time>
      </trkpt>
      <trkpt lat="45.61601" lon="4.60687">
        <ele>755.2529297</ele>
        <time>2011-12-04T02:56:53Z</time>
      </trkpt>
      <trkpt lat="45.61602" lon="4.60691">
        <ele>753.8110352</ele>
        <time>2011-12-04T02:56:55Z</time>
      </trkpt>
      <trkpt lat="45.61612" lon="4.60706">
        <ele>753.3303223</ele>
        <time>2011-12-04T02:57:02Z</time>
      </trkpt>
      <trkpt lat="45.61615" lon="4.6071">
        <ele>752.8496094</ele>
        <time>2011-12-04T02:57:04Z</time>
      </trkpt>
      <trkpt lat="45.61626" lon="4.60727">
        <ele>752.8496094</ele>
        <time>2011-12-04T02:57:10Z</time>
      </trkpt>
      <trkpt lat="45.61639" lon="4.60743">
        <ele>755.7336426</ele>
        <time>2011-12-04T02:57:16Z</time>
      </trkpt>
      <trkpt lat="45.61651" lon="4.6075">
        <ele>758.1369629</ele>
        <time>2011-12-04T02:57:21Z</time>
      </trkpt>
      <trkpt lat="45.61663" lon="4.60762">
        <ele>758.1369629</ele>
        <time>2011-12-04T02:57:27Z</time>
      </trkpt>
      <trkpt lat="45.61669" lon="4.60764">
        <ele>753.8110352</ele>
        <time>2011-12-04T02:57:33Z</time>
      </trkpt>
      <trkpt lat="45.61674" lon="4.60762">
        <ele>753.8110352</ele>
        <time>2011-12-04T02:57:37Z</time>
      </trkpt>
      <trkpt lat="45.61681" lon="4.60763">
        <ele>750.4465332</ele>
        <time>2011-12-04T02:57:43Z</time>
      </trkpt>
      <trkpt lat="45.61689" lon="4.60762">
        <ele>748.5236816</ele>
        <time>2011-12-04T02:57:48Z</time>
      </trkpt>
      <trkpt lat="45.61697" lon="4.60761">
        <ele>747.081543</ele>
        <time>2011-12-04T02:57:55Z</time>
      </trkpt>
      <trkpt lat="45.61704" lon="4.6076">
        <ele>747.081543</ele>
        <time>2011-12-04T02:58:01Z</time>
      </trkpt>
      <trkpt lat="45.61706" lon="4.60759">
        <ele>747.081543</ele>
        <time>2011-12-04T02:58:03Z</time>
      </trkpt>
      <trkpt lat="45.61713" lon="4.60751">
        <ele>743.2363281</ele>
        <time>2011-12-04T02:58:09Z</time>
      </trkpt>
      <trkpt lat="45.61716" lon="4.60747">
        <ele>741.7944336</ele>
        <time>2011-12-04T02:58:13Z</time>
      </trkpt>
      <trkpt lat="45.61721" lon="4.60742">
        <ele>740.8330078</ele>
        <time>2011-12-04T02:58:19Z</time>
      </trkpt>
      <trkpt lat="45.61725" lon="4.60739">
        <ele>744.1977539</ele>
        <time>2011-12-04T02:58:23Z</time>
      </trkpt>
      <trkpt lat="45.61731" lon="4.6074">
        <ele>746.6010742</ele>
        <time>2011-12-04T02:58:29Z</time>
      </trkpt>
      <trkpt lat="45.61741" lon="4.60741">
        <ele>750.927002</ele>
        <time>2011-12-04T02:58:35Z</time>
      </trkpt>
      <trkpt lat="45.61757" lon="4.60743">
        <ele>761.020752</ele>
        <time>2011-12-04T02:58:43Z</time>
      </trkpt>
      <trkpt lat="45.61764" lon="4.60745">
        <ele>762.9433594</ele>
        <time>2011-12-04T02:58:49Z</time>
      </trkpt>
      <trkpt lat="45.61773" lon="4.6075">
        <ele>758.1369629</ele>
        <time>2011-12-04T02:58:55Z</time>
      </trkpt>
      <trkpt lat="45.61778" lon="4.60754">
        <ele>754.7722168</ele>
        <time>2011-12-04T02:59:00Z</time>
      </trkpt>
      <trkpt lat="45.61783" lon="4.60765">
        <ele>753.3303223</ele>
        <time>2011-12-04T02:59:06Z</time>
      </trkpt>
      <trkpt lat="45.61783" lon="4.6077">
        <ele>752.3688965</ele>
        <time>2011-12-04T02:59:08Z</time>
      </trkpt>
      <trkpt lat="45.61784" lon="4.60775">
        <ele>751.8884277</ele>
        <time>2011-12-04T02:59:10Z</time>
      </trkpt>
      <trkpt lat="45.61782" lon="4.6079">
        <ele>751.4077148</ele>
        <time>2011-12-04T02:59:16Z</time>
      </trkpt>
      <trkpt lat="45.61786" lon="4.60805">
        <ele>750.927002</ele>
        <time>2011-12-04T02:59:21Z</time>
      </trkpt>
      <trkpt lat="45.61793" lon="4.60814">
        <ele>750.927002</ele>
        <time>2011-12-04T02:59:25Z</time>
      </trkpt>
      <trkpt lat="45.61798" lon="4.60826">
        <ele>750.927002</ele>
        <time>2011-12-04T02:59:30Z</time>
      </trkpt>
      <trkpt lat="45.61802" lon="4.60834">
        <ele>750.927002</ele>
        <time>2011-12-04T02:59:34Z</time>
      </trkpt>
      <trkpt lat="45.61813" lon="4.60846">
        <ele>750.927002</ele>
        <time>2011-12-04T02:59:41Z</time>
      </trkpt>
      <trkpt lat="45.6182" lon="4.60855">
        <ele>749.9658203</ele>
        <time>2011-12-04T02:59:45Z</time>
      </trkpt>
      <trkpt lat="45.61827" lon="4.60858">
        <ele>746.1203613</ele>
        <time>2011-12-04T02:59:50Z</time>
      </trkpt>
      <trkpt lat="45.61828" lon="4.60858">
        <ele>746.1203613</ele>
        <time>2011-12-04T02:59:51Z</time>
      </trkpt>
      <trkpt lat="45.61842" lon="4.60856">
        <ele>738.4299316</ele>
        <time>2011-12-04T02:59:58Z</time>
      </trkpt>
      <trkpt lat="45.61845" lon="4.60856">
        <ele>737.9492188</ele>
        <time>2011-12-04T03:00:00Z</time>
      </trkpt>
      <trkpt lat="45.61853" lon="4.60856">
        <ele>734.5847168</ele>
        <time>2011-12-04T03:00:06Z</time>
      </trkpt>
      <trkpt lat="45.61862" lon="4.60854">
        <ele>730.2585449</ele>
        <time>2011-12-04T03:00:11Z</time>
      </trkpt>
      <trkpt lat="45.61867" lon="4.60855">
        <ele>732.1813965</ele>
        <time>2011-12-04T03:00:14Z</time>
      </trkpt>
      <trkpt lat="45.61873" lon="4.60855">
        <ele>730.7392578</ele>
        <time>2011-12-04T03:00:18Z</time>
      </trkpt>
      <trkpt lat="45.61886" lon="4.60857">
        <ele>731.2199707</ele>
        <time>2011-12-04T03:00:25Z</time>
      </trkpt>
      <trkpt lat="45.61898" lon="4.60861">
        <ele>732.6621094</ele>
        <time>2011-12-04T03:00:30Z</time>
      </trkpt>
      <trkpt lat="45.61901" lon="4.60862">
        <ele>732.6621094</ele>
        <time>2011-12-04T03:00:32Z</time>
      </trkpt>
      <trkpt lat="45.61905" lon="4.60864">
        <ele>731.7004395</ele>
        <time>2011-12-04T03:00:35Z</time>
      </trkpt>
      <trkpt lat="45.61911" lon="4.60866">
        <ele>731.7004395</ele>
        <time>2011-12-04T03:00:38Z</time>
      </trkpt>
      <trkpt lat="45.61919" lon="4.6087">
        <ele>731.2199707</ele>
        <time>2011-12-04T03:00:42Z</time>
      </trkpt>
      <trkpt lat="45.61933" lon="4.60879">
        <ele>732.6621094</ele>
        <time>2011-12-04T03:00:49Z</time>
      </trkpt>
      <trkpt lat="45.61938" lon="4.60881">
        <ele>731.2199707</ele>
        <time>2011-12-04T03:00:52Z</time>
      </trkpt>
      <trkpt lat="45.61942" lon="4.60884">
        <ele>726.894043</ele>
        <time>2011-12-04T03:00:57Z</time>
      </trkpt>
      <trkpt lat="45.61947" lon="4.60888">
        <ele>721.1262207</ele>
        <time>2011-12-04T03:01:03Z</time>
      </trkpt>
      <trkpt lat="45.61952" lon="4.60889">
        <ele>717.2810059</ele>
        <time>2011-12-04T03:01:07Z</time>
      </trkpt>
      <trkpt lat="45.61961" lon="4.60892">
        <ele>712.954834</ele>
        <time>2011-12-04T03:01:14Z</time>
      </trkpt>
      <trkpt lat="45.61962" lon="4.60892">
        <ele>711.9936523</ele>
        <time>2011-12-04T03:01:15Z</time>
      </trkpt>
      <trkpt lat="45.61973" lon="4.60892">
        <ele>711.0322266</ele>
        <time>2011-12-04T03:01:21Z</time>
      </trkpt>
      <trkpt lat="45.61981" lon="4.60892">
        <ele>710.5515137</ele>
        <time>2011-12-04T03:01:26Z</time>
      </trkpt>
      <trkpt lat="45.61985" lon="4.60892">
        <ele>711.5129395</ele>
        <time>2011-12-04T03:01:28Z</time>
      </trkpt>
      <trkpt lat="45.61993" lon="4.60888">
        <ele>713.4355469</ele>
        <time>2011-12-04T03:01:32Z</time>
      </trkpt>
      <trkpt lat="45.61996" lon="4.60884">
        <ele>710.5515137</ele>
        <time>2011-12-04T03:01:36Z</time>
      </trkpt>
      <trkpt lat="45.62002" lon="4.60886">
        <ele>710.0708008</ele>
        <time>2011-12-04T03:01:42Z</time>
      </trkpt>
      <trkpt lat="45.62009" lon="4.60886">
        <ele>717.2810059</ele>
        <time>2011-12-04T03:01:49Z</time>
      </trkpt>
      <trkpt lat="45.62018" lon="4.60887">
        <ele>725.9326172</ele>
        <time>2011-12-04T03:01:56Z</time>
      </trkpt>
      <trkpt lat="45.62021" lon="4.60897">
        <ele>740.3525391</ele>
        <time>2011-12-04T03:02:02Z</time>
      </trkpt>
      <trkpt lat="45.62023" lon="4.60901">
        <ele>743.717041</ele>
        <time>2011-12-04T03:02:04Z</time>
      </trkpt>
      <trkpt lat="45.62027" lon="4.60906">
        <ele>743.717041</ele>
        <time>2011-12-04T03:02:08Z</time>
      </trkpt>
      <trkpt lat="45.62029" lon="4.6091">
        <ele>742.2751465</ele>
        <time>2011-12-04T03:02:11Z</time>
      </trkpt>
      <trkpt lat="45.62029" lon="4.60923">
        <ele>734.1040039</ele>
        <time>2011-12-04T03:02:17Z</time>
      </trkpt>
      <trkpt lat="45.62028" lon="4.60928">
        <ele>731.2199707</ele>
        <time>2011-12-04T03:02:19Z</time>
      </trkpt>
      <trkpt lat="45.62026" lon="4.60946">
        <ele>723.529541</ele>
        <time>2011-12-04T03:02:25Z</time>
      </trkpt>
      <trkpt lat="45.62027" lon="4.6095">
        <ele>720.1647949</ele>
        <time>2011-12-04T03:02:26Z</time>
      </trkpt>
      <trkpt lat="45.62026" lon="4.60964">
        <ele>713.9160156</ele>
        <time>2011-12-04T03:02:30Z</time>
      </trkpt>
      <trkpt lat="45.62024" lon="4.60986">
        <ele>703.8225098</ele>
        <time>2011-12-04T03:02:37Z</time>
      </trkpt>
      <trkpt lat="45.62023" lon="4.60994">
        <ele>702.3803711</ele>
        <time>2011-12-04T03:02:39Z</time>
      </trkpt>
      <trkpt lat="45.62023" lon="4.61002">
        <ele>700.4580078</ele>
        <time>2011-12-04T03:02:41Z</time>
      </trkpt>
      <trkpt lat="45.62018" lon="4.61029">
        <ele>702.3803711</ele>
        <time>2011-12-04T03:02:47Z</time>
      </trkpt>
      <trkpt lat="45.62012" lon="4.61045">
        <ele>702.3803711</ele>
        <time>2011-12-04T03:02:52Z</time>
      </trkpt>
      <trkpt lat="45.62011" lon="4.61051">
        <ele>701.8999023</ele>
        <time>2011-12-04T03:02:54Z</time>
      </trkpt>
      <trkpt lat="45.62008" lon="4.61067">
        <ele>700.4580078</ele>
        <time>2011-12-04T03:03:00Z</time>
      </trkpt>
      <trkpt lat="45.62005" lon="4.61087">
        <ele>697.5737305</ele>
        <time>2011-12-04T03:03:07Z</time>
      </trkpt>
      <trkpt lat="45.62002" lon="4.61104">
        <ele>693.2478027</ele>
        <time>2011-12-04T03:03:14Z</time>
      </trkpt>
      <trkpt lat="45.62" lon="4.61118">
        <ele>690.8444824</ele>
        <time>2011-12-04T03:03:20Z</time>
      </trkpt>
      <trkpt lat="45.61998" lon="4.61141">
        <ele>687.9606934</ele>
        <time>2011-12-04T03:03:27Z</time>
      </trkpt>
      <trkpt lat="45.62" lon="4.61152">
        <ele>685.557373</ele>
        <time>2011-12-04T03:03:32Z</time>
      </trkpt>
      <trkpt lat="45.62" lon="4.61155">
        <ele>685.0769043</ele>
        <time>2011-12-04T03:03:33Z</time>
      </trkpt>
      <trkpt lat="45.62003" lon="4.61164">
        <ele>682.6733398</ele>
        <time>2011-12-04T03:03:38Z</time>
      </trkpt>
      <trkpt lat="45.62007" lon="4.6117">
        <ele>682.6733398</ele>
        <time>2011-12-04T03:03:41Z</time>
      </trkpt>
      <trkpt lat="45.62012" lon="4.61179">
        <ele>681.2314453</ele>
        <time>2011-12-04T03:03:45Z</time>
      </trkpt>
      <trkpt lat="45.62016" lon="4.61184">
        <ele>681.2314453</ele>
        <time>2011-12-04T03:03:47Z</time>
      </trkpt>
      <trkpt lat="45.62027" lon="4.61198">
        <ele>679.7893066</ele>
        <time>2011-12-04T03:03:54Z</time>
      </trkpt>
      <trkpt lat="45.62038" lon="4.61211">
        <ele>677.8666992</ele>
        <time>2011-12-04T03:04:00Z</time>
      </trkpt>
      <trkpt lat="45.62045" lon="4.61221">
        <ele>679.3085938</ele>
        <time>2011-12-04T03:04:05Z</time>
      </trkpt>
      <trkpt lat="45.62047" lon="4.61223">
        <ele>679.7893066</ele>
        <time>2011-12-04T03:04:06Z</time>
      </trkpt>
      <trkpt lat="45.62056" lon="4.6123">
        <ele>679.7893066</ele>
        <time>2011-12-04T03:04:11Z</time>
      </trkpt>
      <trkpt lat="45.62063" lon="4.6124">
        <ele>674.9829102</ele>
        <time>2011-12-04T03:04:18Z</time>
      </trkpt>
      <trkpt lat="45.62067" lon="4.61243">
        <ele>674.9829102</ele>
        <time>2011-12-04T03:04:20Z</time>
      </trkpt>
      <trkpt lat="45.62073" lon="4.61251">
        <ele>675.9440918</ele>
        <time>2011-12-04T03:04:24Z</time>
      </trkpt>
      <trkpt lat="45.62086" lon="4.61265">
        <ele>673.5410156</ele>
        <time>2011-12-04T03:04:31Z</time>
      </trkpt>
      <trkpt lat="45.62088" lon="4.61268">
        <ele>672.5795898</ele>
        <time>2011-12-04T03:04:32Z</time>
      </trkpt>
      <trkpt lat="45.62092" lon="4.61272">
        <ele>671.1376953</ele>
        <time>2011-12-04T03:04:34Z</time>
      </trkpt>
      <trkpt lat="45.62104" lon="4.61285">
        <ele>669.6958008</ele>
        <time>2011-12-04T03:04:40Z</time>
      </trkpt>
      <trkpt lat="45.62116" lon="4.61295">
        <ele>667.2922363</ele>
        <time>2011-12-04T03:04:46Z</time>
      </trkpt>
      <trkpt lat="45.6212" lon="4.61298">
        <ele>665.8503418</ele>
        <time>2011-12-04T03:04:48Z</time>
      </trkpt>
      <trkpt lat="45.62127" lon="4.61307">
        <ele>665.3696289</ele>
        <time>2011-12-04T03:04:52Z</time>
      </trkpt>
      <trkpt lat="45.62138" lon="4.61317">
        <ele>662.4855957</ele>
        <time>2011-12-04T03:04:58Z</time>
      </trkpt>
      <trkpt lat="45.62144" lon="4.61324">
        <ele>661.0437012</ele>
        <time>2011-12-04T03:05:01Z</time>
      </trkpt>
      <trkpt lat="45.62152" lon="4.61335">
        <ele>660.0822754</ele>
        <time>2011-12-04T03:05:05Z</time>
      </trkpt>
      <trkpt lat="45.62166" lon="4.61345">
        <ele>660.0822754</ele>
        <time>2011-12-04T03:05:11Z</time>
      </trkpt>
      <trkpt lat="45.62176" lon="4.61355">
        <ele>659.1210938</ele>
        <time>2011-12-04T03:05:16Z</time>
      </trkpt>
      <trkpt lat="45.6219" lon="4.61374">
        <ele>657.6791992</ele>
        <time>2011-12-04T03:05:23Z</time>
      </trkpt>
      <trkpt lat="45.62201" lon="4.61389">
        <ele>653.8339844</ele>
        <time>2011-12-04T03:05:29Z</time>
      </trkpt>
      <trkpt lat="45.6221" lon="4.61398">
        <ele>653.8339844</ele>
        <time>2011-12-04T03:05:33Z</time>
      </trkpt>
      <trkpt lat="45.62212" lon="4.614">
        <ele>653.8339844</ele>
        <time>2011-12-04T03:05:34Z</time>
      </trkpt>
      <trkpt lat="45.62227" lon="4.61409">
        <ele>649.9885254</ele>
        <time>2011-12-04T03:05:41Z</time>
      </trkpt>
      <trkpt lat="45.62239" lon="4.61411">
        <ele>645.6625977</ele>
        <time>2011-12-04T03:05:46Z</time>
      </trkpt>
      <trkpt lat="45.6225" lon="4.61423">
        <ele>645.1818848</ele>
        <time>2011-12-04T03:05:52Z</time>
      </trkpt>
      <trkpt lat="45.62252" lon="4.61425">
        <ele>645.6625977</ele>
        <time>2011-12-04T03:05:53Z</time>
      </trkpt>
      <trkpt lat="45.62259" lon="4.61433">
        <ele>645.1818848</ele>
        <time>2011-12-04T03:05:57Z</time>
      </trkpt>
      <trkpt lat="45.62261" lon="4.61437">
        <ele>645.1818848</ele>
        <time>2011-12-04T03:05:59Z</time>
      </trkpt>
      <trkpt lat="45.6227" lon="4.61449">
        <ele>643.7399902</ele>
        <time>2011-12-04T03:06:04Z</time>
      </trkpt>
      <trkpt lat="45.62275" lon="4.61457">
        <ele>643.2592773</ele>
        <time>2011-12-04T03:06:07Z</time>
      </trkpt>
      <trkpt lat="45.62283" lon="4.61473">
        <ele>641.3366699</ele>
        <time>2011-12-04T03:06:12Z</time>
      </trkpt>
      <trkpt lat="45.62287" lon="4.61483">
        <ele>641.3366699</ele>
        <time>2011-12-04T03:06:16Z</time>
      </trkpt>
      <trkpt lat="45.62292" lon="4.61491">
        <ele>638.9335938</ele>
        <time>2011-12-04T03:06:20Z</time>
      </trkpt>
      <trkpt lat="45.62301" lon="4.61502">
        <ele>638.4528809</ele>
        <time>2011-12-04T03:06:26Z</time>
      </trkpt>
      <trkpt lat="45.62311" lon="4.61519">
        <ele>635.5686035</ele>
        <time>2011-12-04T03:06:34Z</time>
      </trkpt>
      <trkpt lat="45.62318" lon="4.61536">
        <ele>633.6459961</ele>
        <time>2011-12-04T03:06:41Z</time>
      </trkpt>
      <trkpt lat="45.62325" lon="4.61555">
        <ele>631.7233887</ele>
        <time>2011-12-04T03:06:47Z</time>
      </trkpt>
      <trkpt lat="45.62337" lon="4.61567">
        <ele>630.2814941</ele>
        <time>2011-12-04T03:06:52Z</time>
      </trkpt>
      <trkpt lat="45.62351" lon="4.61578">
        <ele>628.3588867</ele>
        <time>2011-12-04T03:06:58Z</time>
      </trkpt>
      <trkpt lat="45.62362" lon="4.61585">
        <ele>626.9169922</ele>
        <time>2011-12-04T03:07:03Z</time>
      </trkpt>
      <trkpt lat="45.62375" lon="4.61591">
        <ele>625.4748535</ele>
        <time>2011-12-04T03:07:08Z</time>
      </trkpt>
      <trkpt lat="45.62388" lon="4.61594">
        <ele>624.032959</ele>
        <time>2011-12-04T03:07:13Z</time>
      </trkpt>
      <trkpt lat="45.62401" lon="4.61596">
        <ele>622.5910645</ele>
        <time>2011-12-04T03:07:18Z</time>
      </trkpt>
      <trkpt lat="45.62413" lon="4.61597">
        <ele>619.7070313</ele>
        <time>2011-12-04T03:07:24Z</time>
      </trkpt>
      <trkpt lat="45.62421" lon="4.61597">
        <ele>617.3037109</ele>
        <time>2011-12-04T03:07:28Z</time>
      </trkpt>
      <trkpt lat="45.62434" lon="4.61592">
        <ele>615.8618164</ele>
        <time>2011-12-04T03:07:33Z</time>
      </trkpt>
      <trkpt lat="45.62445" lon="4.61585">
        <ele>614.9003906</ele>
        <time>2011-12-04T03:07:38Z</time>
      </trkpt>
      <trkpt lat="45.62456" lon="4.61578">
        <ele>612.4970703</ele>
        <time>2011-12-04T03:07:43Z</time>
      </trkpt>
      <trkpt lat="45.62467" lon="4.61574">
        <ele>612.9777832</ele>
        <time>2011-12-04T03:07:48Z</time>
      </trkpt>
      <trkpt lat="45.62476" lon="4.6157">
        <ele>612.0166016</ele>
        <time>2011-12-04T03:07:53Z</time>
      </trkpt>
      <trkpt lat="45.62483" lon="4.61565">
        <ele>611.5358887</ele>
        <time>2011-12-04T03:07:58Z</time>
      </trkpt>
      <trkpt lat="45.62486" lon="4.61564">
        <ele>612.4970703</ele>
        <time>2011-12-04T03:08:00Z</time>
      </trkpt>
      <trkpt lat="45.62498" lon="4.61554">
        <ele>611.0551758</ele>
        <time>2011-12-04T03:08:06Z</time>
      </trkpt>
      <trkpt lat="45.6251" lon="4.61546">
        <ele>609.6132813</ele>
        <time>2011-12-04T03:08:12Z</time>
      </trkpt>
      <trkpt lat="45.62522" lon="4.61538">
        <ele>610.09375</ele>
        <time>2011-12-04T03:08:18Z</time>
      </trkpt>
      <trkpt lat="45.62532" lon="4.61533">
        <ele>610.09375</ele>
        <time>2011-12-04T03:08:22Z</time>
      </trkpt>
      <trkpt lat="45.6255" lon="4.61531">
        <ele>612.0166016</ele>
        <time>2011-12-04T03:08:28Z</time>
      </trkpt>
      <trkpt lat="45.62566" lon="4.61531">
        <ele>613.4584961</ele>
        <time>2011-12-04T03:08:34Z</time>
      </trkpt>
      <trkpt lat="45.62581" lon="4.61537">
        <ele>616.3422852</ele>
        <time>2011-12-04T03:08:40Z</time>
      </trkpt>
      <trkpt lat="45.62594" lon="4.61548">
        <ele>616.822998</ele>
        <time>2011-12-04T03:08:46Z</time>
      </trkpt>
      <trkpt lat="45.62607" lon="4.61563">
        <ele>617.3037109</ele>
        <time>2011-12-04T03:08:53Z</time>
      </trkpt>
      <trkpt lat="45.6261" lon="4.61565">
        <ele>617.3037109</ele>
        <time>2011-12-04T03:08:54Z</time>
      </trkpt>
      <trkpt lat="45.62619" lon="4.6157">
        <ele>617.3037109</ele>
        <time>2011-12-04T03:08:59Z</time>
      </trkpt>
      <trkpt lat="45.62627" lon="4.61581">
        <ele>618.2648926</ele>
        <time>2011-12-04T03:09:03Z</time>
      </trkpt>
      <trkpt lat="45.62636" lon="4.61605">
        <ele>619.7070313</ele>
        <time>2011-12-04T03:09:10Z</time>
      </trkpt>
      <trkpt lat="45.62636" lon="4.61623">
        <ele>618.2648926</ele>
        <time>2011-12-04T03:09:15Z</time>
      </trkpt>
      <trkpt lat="45.62634" lon="4.61649">
        <ele>614.4196777</ele>
        <time>2011-12-04T03:09:22Z</time>
      </trkpt>
      <trkpt lat="45.62637" lon="4.61663">
        <ele>613.9389648</ele>
        <time>2011-12-04T03:09:27Z</time>
      </trkpt>
      <trkpt lat="45.62641" lon="4.61671">
        <ele>613.9389648</ele>
        <time>2011-12-04T03:09:30Z</time>
      </trkpt>
      <trkpt lat="45.62647" lon="4.61687">
        <ele>616.3422852</ele>
        <time>2011-12-04T03:09:36Z</time>
      </trkpt>
      <trkpt lat="45.62659" lon="4.61708">
        <ele>620.1877441</ele>
        <time>2011-12-04T03:09:43Z</time>
      </trkpt>
      <trkpt lat="45.62668" lon="4.61724">
        <ele>622.1103516</ele>
        <time>2011-12-04T03:09:49Z</time>
      </trkpt>
      <trkpt lat="45.62676" lon="4.61741">
        <ele>622.1103516</ele>
        <time>2011-12-04T03:09:55Z</time>
      </trkpt>
      <trkpt lat="45.62683" lon="4.6176">
        <ele>622.5910645</ele>
        <time>2011-12-04T03:10:01Z</time>
      </trkpt>
      <trkpt lat="45.62686" lon="4.61771">
        <ele>621.6296387</ele>
        <time>2011-12-04T03:10:05Z</time>
      </trkpt>
      <trkpt lat="45.6269" lon="4.61789">
        <ele>622.1103516</ele>
        <time>2011-12-04T03:10:10Z</time>
      </trkpt>
      <trkpt lat="45.62692" lon="4.61796">
        <ele>620.668457</ele>
        <time>2011-12-04T03:10:12Z</time>
      </trkpt>
      <trkpt lat="45.62697" lon="4.61808">
        <ele>618.2648926</ele>
        <time>2011-12-04T03:10:16Z</time>
      </trkpt>
      <trkpt lat="45.62702" lon="4.6182">
        <ele>615.3811035</ele>
        <time>2011-12-04T03:10:20Z</time>
      </trkpt>
      <trkpt lat="45.62709" lon="4.61844">
        <ele>612.9777832</ele>
        <time>2011-12-04T03:10:27Z</time>
      </trkpt>
      <trkpt lat="45.62716" lon="4.61865">
        <ele>611.0551758</ele>
        <time>2011-12-04T03:10:33Z</time>
      </trkpt>
      <trkpt lat="45.62725" lon="4.61886">
        <ele>609.6132813</ele>
        <time>2011-12-04T03:10:39Z</time>
      </trkpt>
      <trkpt lat="45.62737" lon="4.61901">
        <ele>608.1713867</ele>
        <time>2011-12-04T03:10:45Z</time>
      </trkpt>
      <trkpt lat="45.62748" lon="4.61912">
        <ele>605.7680664</ele>
        <time>2011-12-04T03:10:50Z</time>
      </trkpt>
      <trkpt lat="45.62763" lon="4.61927">
        <ele>602.4030762</ele>
        <time>2011-12-04T03:10:57Z</time>
      </trkpt>
      <trkpt lat="45.62773" lon="4.61937">
        <ele>599.5192871</ele>
        <time>2011-12-04T03:11:02Z</time>
      </trkpt>
      <trkpt lat="45.62784" lon="4.61948">
        <ele>595.1933594</ele>
        <time>2011-12-04T03:11:08Z</time>
      </trkpt>
      <trkpt lat="45.62795" lon="4.61955">
        <ele>592.3095703</ele>
        <time>2011-12-04T03:11:13Z</time>
      </trkpt>
      <trkpt lat="45.62804" lon="4.61962">
        <ele>591.3481445</ele>
        <time>2011-12-04T03:11:17Z</time>
      </trkpt>
      <trkpt lat="45.62817" lon="4.61972">
        <ele>589.4255371</ele>
        <time>2011-12-04T03:11:23Z</time>
      </trkpt>
      <trkpt lat="45.62833" lon="4.61978">
        <ele>586.060791</ele>
        <time>2011-12-04T03:11:30Z</time>
      </trkpt>
      <trkpt lat="45.62847" lon="4.61975">
        <ele>580.7736816</ele>
        <time>2011-12-04T03:11:36Z</time>
      </trkpt>
      <trkpt lat="45.62857" lon="4.6197">
        <ele>576.9284668</ele>
        <time>2011-12-04T03:11:41Z</time>
      </trkpt>
      <trkpt lat="45.62868" lon="4.61962">
        <ele>573.083252</ele>
        <time>2011-12-04T03:11:46Z</time>
      </trkpt>
      <trkpt lat="45.62882" lon="4.61953">
        <ele>570.1989746</ele>
        <time>2011-12-04T03:11:52Z</time>
      </trkpt>
      <trkpt lat="45.62891" lon="4.61942">
        <ele>568.2763672</ele>
        <time>2011-12-04T03:11:57Z</time>
      </trkpt>
      <trkpt lat="45.62901" lon="4.61927">
        <ele>567.3151855</ele>
        <time>2011-12-04T03:12:04Z</time>
      </trkpt>
      <trkpt lat="45.62908" lon="4.61912">
        <ele>566.8344727</ele>
        <time>2011-12-04T03:12:10Z</time>
      </trkpt>
      <trkpt lat="45.62915" lon="4.61904">
        <ele>566.3537598</ele>
        <time>2011-12-04T03:12:14Z</time>
      </trkpt>
      <trkpt lat="45.62926" lon="4.61887">
        <ele>564.9118652</ele>
        <time>2011-12-04T03:12:21Z</time>
      </trkpt>
      <trkpt lat="45.62934" lon="4.61871">
        <ele>565.3925781</ele>
        <time>2011-12-04T03:12:27Z</time>
      </trkpt>
      <trkpt lat="45.62942" lon="4.61855">
        <ele>563.9504395</ele>
        <time>2011-12-04T03:12:33Z</time>
      </trkpt>
      <trkpt lat="45.62944" lon="4.61848">
        <ele>563.4699707</ele>
        <time>2011-12-04T03:12:36Z</time>
      </trkpt>
      <trkpt lat="45.62948" lon="4.61835">
        <ele>560.5859375</ele>
        <time>2011-12-04T03:12:41Z</time>
      </trkpt>
      <trkpt lat="45.62955" lon="4.61818">
        <ele>560.5859375</ele>
        <time>2011-12-04T03:12:47Z</time>
      </trkpt>
      <trkpt lat="45.62958" lon="4.61805">
        <ele>558.6633301</ele>
        <time>2011-12-04T03:12:51Z</time>
      </trkpt>
      <trkpt lat="45.62958" lon="4.61801">
        <ele>558.1828613</ele>
        <time>2011-12-04T03:12:52Z</time>
      </trkpt>
      <trkpt lat="45.6296" lon="4.61786">
        <ele>556.2600098</ele>
        <time>2011-12-04T03:12:57Z</time>
      </trkpt>
      <trkpt lat="45.62968" lon="4.6177">
        <ele>558.6633301</ele>
        <time>2011-12-04T03:13:02Z</time>
      </trkpt>
      <trkpt lat="45.62979" lon="4.61748">
        <ele>559.6247559</ele>
        <time>2011-12-04T03:13:09Z</time>
      </trkpt>
      <trkpt lat="45.62984" lon="4.61733">
        <ele>561.0666504</ele>
        <time>2011-12-04T03:13:14Z</time>
      </trkpt>
      <trkpt lat="45.62985" lon="4.61731">
        <ele>561.5473633</ele>
        <time>2011-12-04T03:13:15Z</time>
      </trkpt>
      <trkpt lat="45.62988" lon="4.61719">
        <ele>562.5085449</ele>
        <time>2011-12-04T03:13:19Z</time>
      </trkpt>
      <trkpt lat="45.62995" lon="4.617">
        <ele>561.0666504</ele>
        <time>2011-12-04T03:13:25Z</time>
      </trkpt>
      <trkpt lat="45.62998" lon="4.61694">
        <ele>560.5859375</ele>
        <time>2011-12-04T03:13:27Z</time>
      </trkpt>
      <trkpt lat="45.63005" lon="4.61681">
        <ele>560.1052246</ele>
        <time>2011-12-04T03:13:32Z</time>
      </trkpt>
      <trkpt lat="45.6301" lon="4.61672">
        <ele>557.2214355</ele>
        <time>2011-12-04T03:13:36Z</time>
      </trkpt>
      <trkpt lat="45.63013" lon="4.61669">
        <ele>554.8178711</ele>
        <time>2011-12-04T03:13:38Z</time>
      </trkpt>
      <trkpt lat="45.6303" lon="4.61657">
        <ele>552.4145508</ele>
        <time>2011-12-04T03:13:46Z</time>
      </trkpt>
      <trkpt lat="45.6304" lon="4.61657">
        <ele>551.934082</ele>
        <time>2011-12-04T03:13:50Z</time>
      </trkpt>
      <trkpt lat="45.63051" lon="4.61658">
        <ele>552.4145508</ele>
        <time>2011-12-04T03:13:55Z</time>
      </trkpt>
      <trkpt lat="45.63065" lon="4.61662">
        <ele>556.7407227</ele>
        <time>2011-12-04T03:14:02Z</time>
      </trkpt>
      <trkpt lat="45.63079" lon="4.6167">
        <ele>562.0280762</ele>
        <time>2011-12-04T03:14:11Z</time>
      </trkpt>
      <trkpt lat="45.63085" lon="4.61678">
        <ele>563.4699707</ele>
        <time>2011-12-04T03:14:17Z</time>
      </trkpt>
      <trkpt lat="45.63093" lon="4.61689">
        <ele>565.3925781</ele>
        <time>2011-12-04T03:14:24Z</time>
      </trkpt>
      <trkpt lat="45.63102" lon="4.61703">
        <ele>568.7570801</ele>
        <time>2011-12-04T03:14:31Z</time>
      </trkpt>
      <trkpt lat="45.63111" lon="4.61712">
        <ele>568.2763672</ele>
        <time>2011-12-04T03:14:38Z</time>
      </trkpt>
      <trkpt lat="45.63122" lon="4.61722">
        <ele>570.6796875</ele>
        <time>2011-12-04T03:14:46Z</time>
      </trkpt>
      <trkpt lat="45.63124" lon="4.61723">
        <ele>571.1604004</ele>
        <time>2011-12-04T03:14:47Z</time>
      </trkpt>
      <trkpt lat="45.63129" lon="4.61737">
        <ele>571.6408691</ele>
        <time>2011-12-04T03:14:55Z</time>
      </trkpt>
      <trkpt lat="45.63134" lon="4.61754">
        <ele>571.1604004</ele>
        <time>2011-12-04T03:15:02Z</time>
      </trkpt>
      <trkpt lat="45.63143" lon="4.6177">
        <ele>571.1604004</ele>
        <time>2011-12-04T03:15:08Z</time>
      </trkpt>
      <trkpt lat="45.63153" lon="4.61775">
        <ele>570.6796875</ele>
        <time>2011-12-04T03:15:13Z</time>
      </trkpt>
      <trkpt lat="45.63155" lon="4.61769">
        <ele>571.1604004</ele>
        <time>2011-12-04T03:15:17Z</time>
      </trkpt>
      <trkpt lat="45.63152" lon="4.6176">
        <ele>571.1604004</ele>
        <time>2011-12-04T03:15:23Z</time>
      </trkpt>
      <trkpt lat="45.63152" lon="4.61751">
        <ele>572.6025391</ele>
        <time>2011-12-04T03:15:29Z</time>
      </trkpt>
      <trkpt lat="45.63149" lon="4.61736">
        <ele>574.5251465</ele>
        <time>2011-12-04T03:15:38Z</time>
      </trkpt>
      <trkpt lat="45.63149" lon="4.61729">
        <ele>575.967041</ele>
        <time>2011-12-04T03:15:42Z</time>
      </trkpt>
      <trkpt lat="45.63151" lon="4.61712">
        <ele>576.4477539</ele>
        <time>2011-12-04T03:15:51Z</time>
      </trkpt>
      <trkpt lat="45.63153" lon="4.617">
        <ele>575.967041</ele>
        <time>2011-12-04T03:15:58Z</time>
      </trkpt>
      <trkpt lat="45.63155" lon="4.61684">
        <ele>577.4091797</ele>
        <time>2011-12-04T03:16:07Z</time>
      </trkpt>
      <trkpt lat="45.63162" lon="4.61672">
        <ele>575.967041</ele>
        <time>2011-12-04T03:16:15Z</time>
      </trkpt>
      <trkpt lat="45.63171" lon="4.61668">
        <ele>577.8896484</ele>
        <time>2011-12-04T03:16:23Z</time>
      </trkpt>
      <trkpt lat="45.63182" lon="4.61663">
        <ele>578.8510742</ele>
        <time>2011-12-04T03:16:32Z</time>
      </trkpt>
      <trkpt lat="45.63192" lon="4.61656">
        <ele>580.2929688</ele>
        <time>2011-12-04T03:16:40Z</time>
      </trkpt>
      <trkpt lat="45.63202" lon="4.61648">
        <ele>581.2543945</ele>
        <time>2011-12-04T03:16:48Z</time>
      </trkpt>
      <trkpt lat="45.6321" lon="4.61636">
        <ele>583.6574707</ele>
        <time>2011-12-04T03:16:56Z</time>
      </trkpt>
      <trkpt lat="45.63217" lon="4.61624">
        <ele>584.1381836</ele>
        <time>2011-12-04T03:17:03Z</time>
      </trkpt>
      <trkpt lat="45.63223" lon="4.61611">
        <ele>583.1767578</ele>
        <time>2011-12-04T03:17:12Z</time>
      </trkpt>
      <trkpt lat="45.63229" lon="4.616">
        <ele>584.1381836</ele>
        <time>2011-12-04T03:17:19Z</time>
      </trkpt>
      <trkpt lat="45.6323" lon="4.61597">
        <ele>585.0996094</ele>
        <time>2011-12-04T03:17:21Z</time>
      </trkpt>
      <trkpt lat="45.63232" lon="4.61588">
        <ele>586.5415039</ele>
        <time>2011-12-04T03:17:27Z</time>
      </trkpt>
      <trkpt lat="45.63233" lon="4.61587">
        <ele>587.0219727</ele>
        <time>2011-12-04T03:17:28Z</time>
      </trkpt>
      <trkpt lat="45.63239" lon="4.61575">
        <ele>587.0219727</ele>
        <time>2011-12-04T03:17:37Z</time>
      </trkpt>
      <trkpt lat="45.63245" lon="4.61564">
        <ele>586.5415039</ele>
        <time>2011-12-04T03:17:44Z</time>
      </trkpt>
      <trkpt lat="45.63246" lon="4.61562">
        <ele>586.060791</ele>
        <time>2011-12-04T03:17:45Z</time>
      </trkpt>
      <trkpt lat="45.63255" lon="4.61549">
        <ele>586.5415039</ele>
        <time>2011-12-04T03:17:55Z</time>
      </trkpt>
      <trkpt lat="45.6326" lon="4.61541">
        <ele>589.90625</ele>
        <time>2011-12-04T03:18:01Z</time>
      </trkpt>
      <trkpt lat="45.63267" lon="4.6153">
        <ele>590.3869629</ele>
        <time>2011-12-04T03:18:08Z</time>
      </trkpt>
      <trkpt lat="45.63271" lon="4.61522">
        <ele>590.3869629</ele>
        <time>2011-12-04T03:18:15Z</time>
      </trkpt>
      <trkpt lat="45.63275" lon="4.61516">
        <ele>591.8288574</ele>
        <time>2011-12-04T03:18:20Z</time>
      </trkpt>
      <trkpt lat="45.63288" lon="4.61505">
        <ele>592.7902832</ele>
        <time>2011-12-04T03:18:29Z</time>
      </trkpt>
      <trkpt lat="45.63296" lon="4.61502">
        <ele>594.2321777</ele>
        <time>2011-12-04T03:18:35Z</time>
      </trkpt>
      <trkpt lat="45.63307" lon="4.61503">
        <ele>595.6740723</ele>
        <time>2011-12-04T03:18:42Z</time>
      </trkpt>
      <trkpt lat="45.63319" lon="4.61506">
        <ele>598.0773926</ele>
        <time>2011-12-04T03:18:50Z</time>
      </trkpt>
      <trkpt lat="45.63329" lon="4.61509">
        <ele>596.635498</ele>
        <time>2011-12-04T03:18:58Z</time>
      </trkpt>
      <trkpt lat="45.63339" lon="4.61519">
        <ele>599.0385742</ele>
        <time>2011-12-04T03:19:07Z</time>
      </trkpt>
      <trkpt lat="45.63347" lon="4.61526">
        <ele>600.4807129</ele>
        <time>2011-12-04T03:19:15Z</time>
      </trkpt>
      <trkpt lat="45.63354" lon="4.61533">
        <ele>600.9611816</ele>
        <time>2011-12-04T03:19:22Z</time>
      </trkpt>
      <trkpt lat="45.63364" lon="4.61541">
        <ele>603.364502</ele>
        <time>2011-12-04T03:19:31Z</time>
      </trkpt>
      <trkpt lat="45.63368" lon="4.61546">
        <ele>604.3261719</ele>
        <time>2011-12-04T03:19:35Z</time>
      </trkpt>
      <trkpt lat="45.63373" lon="4.61549">
        <ele>603.8452148</ele>
        <time>2011-12-04T03:19:39Z</time>
      </trkpt>
      <trkpt lat="45.63386" lon="4.61561">
        <ele>606.2485352</ele>
        <time>2011-12-04T03:19:46Z</time>
      </trkpt>
      <trkpt lat="45.63401" lon="4.61575">
        <ele>609.1325684</ele>
        <time>2011-12-04T03:19:52Z</time>
      </trkpt>
      <trkpt lat="45.63416" lon="4.61585">
        <ele>611.5358887</ele>
        <time>2011-12-04T03:19:58Z</time>
      </trkpt>
      <trkpt lat="45.63428" lon="4.6159">
        <ele>609.1325684</ele>
        <time>2011-12-04T03:20:04Z</time>
      </trkpt>
      <trkpt lat="45.63436" lon="4.61591">
        <ele>605.7680664</ele>
        <time>2011-12-04T03:20:08Z</time>
      </trkpt>
      <trkpt lat="45.63447" lon="4.6159">
        <ele>603.364502</ele>
        <time>2011-12-04T03:20:13Z</time>
      </trkpt>
      <trkpt lat="45.63458" lon="4.61586">
        <ele>598.5578613</ele>
        <time>2011-12-04T03:20:20Z</time>
      </trkpt>
      <trkpt lat="45.63469" lon="4.61577">
        <ele>594.7126465</ele>
        <time>2011-12-04T03:20:27Z</time>
      </trkpt>
      <trkpt lat="45.6348" lon="4.61565">
        <ele>594.2321777</ele>
        <time>2011-12-04T03:20:32Z</time>
      </trkpt>
      <trkpt lat="45.63482" lon="4.61563">
        <ele>594.7126465</ele>
        <time>2011-12-04T03:20:33Z</time>
      </trkpt>
      <trkpt lat="45.63493" lon="4.61551">
        <ele>592.7902832</ele>
        <time>2011-12-04T03:20:39Z</time>
      </trkpt>
      <trkpt lat="45.63503" lon="4.61535">
        <ele>590.8674316</ele>
        <time>2011-12-04T03:20:46Z</time>
      </trkpt>
      <trkpt lat="45.6351" lon="4.61525">
        <ele>587.9833984</ele>
        <time>2011-12-04T03:20:50Z</time>
      </trkpt>
      <trkpt lat="45.63511" lon="4.61522">
        <ele>587.9833984</ele>
        <time>2011-12-04T03:20:51Z</time>
      </trkpt>
      <trkpt lat="45.6352" lon="4.61507">
        <ele>589.90625</ele>
        <time>2011-12-04T03:20:56Z</time>
      </trkpt>
      <trkpt lat="45.63525" lon="4.61498">
        <ele>591.3481445</ele>
        <time>2011-12-04T03:20:59Z</time>
      </trkpt>
      <trkpt lat="45.63533" lon="4.61483">
        <ele>591.3481445</ele>
        <time>2011-12-04T03:21:04Z</time>
      </trkpt>
      <trkpt lat="45.63543" lon="4.61471">
        <ele>589.90625</ele>
        <time>2011-12-04T03:21:09Z</time>
      </trkpt>
      <trkpt lat="45.63558" lon="4.61463">
        <ele>589.90625</ele>
        <time>2011-12-04T03:21:15Z</time>
      </trkpt>
      <trkpt lat="45.63567" lon="4.61459">
        <ele>588.9450684</ele>
        <time>2011-12-04T03:21:19Z</time>
      </trkpt>
      <trkpt lat="45.63581" lon="4.61456">
        <ele>589.4255371</ele>
        <time>2011-12-04T03:21:26Z</time>
      </trkpt>
      <trkpt lat="45.63591" lon="4.61457">
        <ele>591.3481445</ele>
        <time>2011-12-04T03:21:31Z</time>
      </trkpt>
      <trkpt lat="45.63599" lon="4.6146">
        <ele>592.3095703</ele>
        <time>2011-12-04T03:21:37Z</time>
      </trkpt>
      <trkpt lat="45.63608" lon="4.61462">
        <ele>593.270752</ele>
        <time>2011-12-04T03:21:43Z</time>
      </trkpt>
      <trkpt lat="45.63616" lon="4.61469">
        <ele>594.7126465</ele>
        <time>2011-12-04T03:21:50Z</time>
      </trkpt>
      <trkpt lat="45.63618" lon="4.6147">
        <ele>594.2321777</ele>
        <time>2011-12-04T03:21:52Z</time>
      </trkpt>
      <trkpt lat="45.63624" lon="4.61482">
        <ele>593.270752</ele>
        <time>2011-12-04T03:22:01Z</time>
      </trkpt>
      <trkpt lat="45.6363" lon="4.61494">
        <ele>594.2321777</ele>
        <time>2011-12-04T03:22:07Z</time>
      </trkpt>
      <trkpt lat="45.63638" lon="4.61505">
        <ele>595.6740723</ele>
        <time>2011-12-04T03:22:12Z</time>
      </trkpt>
      <trkpt lat="45.63641" lon="4.61506">
        <ele>594.7126465</ele>
        <time>2011-12-04T03:22:14Z</time>
      </trkpt>
      <trkpt lat="45.63651" lon="4.61504">
        <ele>595.1933594</ele>
        <time>2011-12-04T03:22:20Z</time>
      </trkpt>
      <trkpt lat="45.63663" lon="4.615">
        <ele>595.6740723</ele>
        <time>2011-12-04T03:22:25Z</time>
      </trkpt>
      <trkpt lat="45.63665" lon="4.61499">
        <ele>595.1933594</ele>
        <time>2011-12-04T03:22:26Z</time>
      </trkpt>
      <trkpt lat="45.63671" lon="4.61498">
        <ele>594.7126465</ele>
        <time>2011-12-04T03:22:28Z</time>
      </trkpt>
      <trkpt lat="45.63681" lon="4.61491">
        <ele>592.7902832</ele>
        <time>2011-12-04T03:22:33Z</time>
      </trkpt>
      <trkpt lat="45.63691" lon="4.61486">
        <ele>593.270752</ele>
        <time>2011-12-04T03:22:39Z</time>
      </trkpt>
      <trkpt lat="45.637" lon="4.61482">
        <ele>592.3095703</ele>
        <time>2011-12-04T03:22:44Z</time>
      </trkpt>
      <trkpt lat="45.63708" lon="4.61478">
        <ele>591.3481445</ele>
        <time>2011-12-04T03:22:49Z</time>
      </trkpt>
      <trkpt lat="45.63716" lon="4.61474">
        <ele>592.3095703</ele>
        <time>2011-12-04T03:22:54Z</time>
      </trkpt>
      <trkpt lat="45.63724" lon="4.61471">
        <ele>594.2321777</ele>
        <time>2011-12-04T03:23:00Z</time>
      </trkpt>
      <trkpt lat="45.63732" lon="4.61471">
        <ele>595.1933594</ele>
        <time>2011-12-04T03:23:06Z</time>
      </trkpt>
      <trkpt lat="45.63742" lon="4.61472">
        <ele>595.6740723</ele>
        <time>2011-12-04T03:23:14Z</time>
      </trkpt>
      <trkpt lat="45.63745" lon="4.61473">
        <ele>595.6740723</ele>
        <time>2011-12-04T03:23:17Z</time>
      </trkpt>
      <trkpt lat="45.63751" lon="4.61481">
        <ele>598.0773926</ele>
        <time>2011-12-04T03:23:24Z</time>
      </trkpt>
      <trkpt lat="45.63753" lon="4.61484">
        <ele>599.5192871</ele>
        <time>2011-12-04T03:23:26Z</time>
      </trkpt>
      <trkpt lat="45.63757" lon="4.61491">
        <ele>601.4418945</ele>
        <time>2011-12-04T03:23:31Z</time>
      </trkpt>
      <trkpt lat="45.63763" lon="4.61503">
        <ele>603.364502</ele>
        <time>2011-12-04T03:23:38Z</time>
      </trkpt>
      <trkpt lat="45.63768" lon="4.61517">
        <ele>605.2873535</ele>
        <time>2011-12-04T03:23:46Z</time>
      </trkpt>
      <trkpt lat="45.6377" lon="4.61529">
        <ele>610.09375</ele>
        <time>2011-12-04T03:23:53Z</time>
      </trkpt>
      <trkpt lat="45.63774" lon="4.61544">
        <ele>616.3422852</ele>
        <time>2011-12-04T03:24:00Z</time>
      </trkpt>
      <trkpt lat="45.63775" lon="4.61556">
        <ele>617.3037109</ele>
        <time>2011-12-04T03:24:07Z</time>
      </trkpt>
      <trkpt lat="45.63776" lon="4.61561">
        <ele>616.3422852</ele>
        <time>2011-12-04T03:24:10Z</time>
      </trkpt>
      <trkpt lat="45.63781" lon="4.61574">
        <ele>618.2648926</ele>
        <time>2011-12-04T03:24:19Z</time>
      </trkpt>
      <trkpt lat="45.63788" lon="4.61585">
        <ele>618.7456055</ele>
        <time>2011-12-04T03:24:27Z</time>
      </trkpt>
      <trkpt lat="45.63789" lon="4.61587">
        <ele>618.2648926</ele>
        <time>2011-12-04T03:24:29Z</time>
      </trkpt>
      <trkpt lat="45.63793" lon="4.61589">
        <ele>617.7841797</ele>
        <time>2011-12-04T03:24:32Z</time>
      </trkpt>
      <trkpt lat="45.63798" lon="4.61588">
        <ele>618.2648926</ele>
        <time>2011-12-04T03:24:37Z</time>
      </trkpt>
      <trkpt lat="45.63806" lon="4.61581">
        <ele>621.1491699</ele>
        <time>2011-12-04T03:24:45Z</time>
      </trkpt>
      <trkpt lat="45.63811" lon="4.61572">
        <ele>620.668457</ele>
        <time>2011-12-04T03:24:52Z</time>
      </trkpt>
      <trkpt lat="45.63818" lon="4.61564">
        <ele>618.7456055</ele>
        <time>2011-12-04T03:25:00Z</time>
      </trkpt>
      <trkpt lat="45.63823" lon="4.61555">
        <ele>618.7456055</ele>
        <time>2011-12-04T03:25:07Z</time>
      </trkpt>
      <trkpt lat="45.63832" lon="4.61547">
        <ele>622.1103516</ele>
        <time>2011-12-04T03:25:15Z</time>
      </trkpt>
      <trkpt lat="45.63833" lon="4.61546">
        <ele>622.5910645</ele>
        <time>2011-12-04T03:25:16Z</time>
      </trkpt>
      <trkpt lat="45.63841" lon="4.61537">
        <ele>625.4748535</ele>
        <time>2011-12-04T03:25:25Z</time>
      </trkpt>
      <trkpt lat="45.63843" lon="4.61533">
        <ele>625.9555664</ele>
        <time>2011-12-04T03:25:29Z</time>
      </trkpt>
      <trkpt lat="45.63853" lon="4.61521">
        <ele>627.3977051</ele>
        <time>2011-12-04T03:25:40Z</time>
      </trkpt>
      <trkpt lat="45.63863" lon="4.61512">
        <ele>627.3977051</ele>
        <time>2011-12-04T03:25:48Z</time>
      </trkpt>
      <trkpt lat="45.63871" lon="4.61503">
        <ele>627.3977051</ele>
        <time>2011-12-04T03:25:55Z</time>
      </trkpt>
      <trkpt lat="45.6388" lon="4.61497">
        <ele>626.9169922</ele>
        <time>2011-12-04T03:26:02Z</time>
      </trkpt>
      <trkpt lat="45.63886" lon="4.61501">
        <ele>627.3977051</ele>
        <time>2011-12-04T03:26:07Z</time>
      </trkpt>
      <trkpt lat="45.63888" lon="4.61515">
        <ele>628.3588867</ele>
        <time>2011-12-04T03:26:14Z</time>
      </trkpt>
      <trkpt lat="45.6389" lon="4.61532">
        <ele>632.2041016</ele>
        <time>2011-12-04T03:26:22Z</time>
      </trkpt>
      <trkpt lat="45.63894" lon="4.6155">
        <ele>635.0881348</ele>
        <time>2011-12-04T03:26:31Z</time>
      </trkpt>
      <trkpt lat="45.63898" lon="4.61568">
        <ele>637.0107422</ele>
        <time>2011-12-04T03:26:40Z</time>
      </trkpt>
      <trkpt lat="45.63904" lon="4.61593">
        <ele>639.8947754</ele>
        <time>2011-12-04T03:26:52Z</time>
      </trkpt>
      <trkpt lat="45.63909" lon="4.61615">
        <ele>642.7788086</ele>
        <time>2011-12-04T03:27:03Z</time>
      </trkpt>
      <trkpt lat="45.63908" lon="4.61633">
        <ele>643.7399902</ele>
        <time>2011-12-04T03:27:12Z</time>
      </trkpt>
      <trkpt lat="45.63904" lon="4.61648">
        <ele>642.7788086</ele>
        <time>2011-12-04T03:27:20Z</time>
      </trkpt>
      <trkpt lat="45.63901" lon="4.61663">
        <ele>642.7788086</ele>
        <time>2011-12-04T03:27:25Z</time>
      </trkpt>
      <trkpt lat="45.63898" lon="4.61686">
        <ele>641.3366699</ele>
        <time>2011-12-04T03:27:32Z</time>
      </trkpt>
      <trkpt lat="45.63897" lon="4.61711">
        <ele>640.855957</ele>
        <time>2011-12-04T03:27:40Z</time>
      </trkpt>
      <trkpt lat="45.63895" lon="4.61736">
        <ele>641.3366699</ele>
        <time>2011-12-04T03:27:48Z</time>
      </trkpt>
      <trkpt lat="45.63891" lon="4.61755">
        <ele>641.3366699</ele>
        <time>2011-12-04T03:27:54Z</time>
      </trkpt>
      <trkpt lat="45.63886" lon="4.61776">
        <ele>642.2980957</ele>
        <time>2011-12-04T03:28:01Z</time>
      </trkpt>
      <trkpt lat="45.63882" lon="4.61796">
        <ele>641.3366699</ele>
        <time>2011-12-04T03:28:08Z</time>
      </trkpt>
      <trkpt lat="45.63879" lon="4.61812">
        <ele>640.855957</ele>
        <time>2011-12-04T03:28:14Z</time>
      </trkpt>
      <trkpt lat="45.63875" lon="4.61833">
        <ele>641.8173828</ele>
        <time>2011-12-04T03:28:21Z</time>
      </trkpt>
      <trkpt lat="45.63872" lon="4.61851">
        <ele>641.8173828</ele>
        <time>2011-12-04T03:28:27Z</time>
      </trkpt>
      <trkpt lat="45.6387" lon="4.61871">
        <ele>640.3754883</ele>
        <time>2011-12-04T03:28:33Z</time>
      </trkpt>
      <trkpt lat="45.63874" lon="4.61895">
        <ele>640.3754883</ele>
        <time>2011-12-04T03:28:40Z</time>
      </trkpt>
      <trkpt lat="45.6388" lon="4.61911">
        <ele>640.3754883</ele>
        <time>2011-12-04T03:28:45Z</time>
      </trkpt>
      <trkpt lat="45.63885" lon="4.6193">
        <ele>638.9335938</ele>
        <time>2011-12-04T03:28:51Z</time>
      </trkpt>
      <trkpt lat="45.63891" lon="4.61949">
        <ele>638.4528809</ele>
        <time>2011-12-04T03:28:57Z</time>
      </trkpt>
      <trkpt lat="45.63896" lon="4.6197">
        <ele>637.4914551</ele>
        <time>2011-12-04T03:29:03Z</time>
      </trkpt>
      <trkpt lat="45.63897" lon="4.61988">
        <ele>637.4914551</ele>
        <time>2011-12-04T03:29:09Z</time>
      </trkpt>
      <trkpt lat="45.63892" lon="4.62005">
        <ele>639.4140625</ele>
        <time>2011-12-04T03:29:15Z</time>
      </trkpt>
      <trkpt lat="45.63884" lon="4.62025">
        <ele>639.8947754</ele>
        <time>2011-12-04T03:29:22Z</time>
      </trkpt>
      <trkpt lat="45.63877" lon="4.62042">
        <ele>639.4140625</ele>
        <time>2011-12-04T03:29:27Z</time>
      </trkpt>
      <trkpt lat="45.63871" lon="4.62059">
        <ele>638.4528809</ele>
        <time>2011-12-04T03:29:33Z</time>
      </trkpt>
      <trkpt lat="45.63862" lon="4.62075">
        <ele>638.4528809</ele>
        <time>2011-12-04T03:29:39Z</time>
      </trkpt>
      <trkpt lat="45.63855" lon="4.62085">
        <ele>638.4528809</ele>
        <time>2011-12-04T03:29:43Z</time>
      </trkpt>
      <trkpt lat="45.63847" lon="4.62098">
        <ele>637.4914551</ele>
        <time>2011-12-04T03:29:48Z</time>
      </trkpt>
      <trkpt lat="45.63839" lon="4.62112">
        <ele>636.5302734</ele>
        <time>2011-12-04T03:29:53Z</time>
      </trkpt>
      <trkpt lat="45.6383" lon="4.62129">
        <ele>636.0495605</ele>
        <time>2011-12-04T03:29:59Z</time>
      </trkpt>
      <trkpt lat="45.63821" lon="4.62144">
        <ele>634.126709</ele>
        <time>2011-12-04T03:30:05Z</time>
      </trkpt>
      <trkpt lat="45.63813" lon="4.6216">
        <ele>632.2041016</ele>
        <time>2011-12-04T03:30:11Z</time>
      </trkpt>
      <trkpt lat="45.63808" lon="4.62172">
        <ele>632.6848145</ele>
        <time>2011-12-04T03:30:15Z</time>
      </trkpt>
      <trkpt lat="45.63801" lon="4.62189">
        <ele>631.7233887</ele>
        <time>2011-12-04T03:30:21Z</time>
      </trkpt>
      <trkpt lat="45.63793" lon="4.62207">
        <ele>631.2429199</ele>
        <time>2011-12-04T03:30:27Z</time>
      </trkpt>
      <trkpt lat="45.63785" lon="4.62223">
        <ele>631.2429199</ele>
        <time>2011-12-04T03:30:33Z</time>
      </trkpt>
      <trkpt lat="45.63774" lon="4.62244">
        <ele>631.7233887</ele>
        <time>2011-12-04T03:30:40Z</time>
      </trkpt>
      <trkpt lat="45.63766" lon="4.62259">
        <ele>630.762207</ele>
        <time>2011-12-04T03:30:46Z</time>
      </trkpt>
      <trkpt lat="45.63757" lon="4.62274">
        <ele>629.8007813</ele>
        <time>2011-12-04T03:30:52Z</time>
      </trkpt>
      <trkpt lat="45.63747" lon="4.6229">
        <ele>629.3200684</ele>
        <time>2011-12-04T03:30:58Z</time>
      </trkpt>
      <trkpt lat="45.63741" lon="4.62302">
        <ele>628.8395996</ele>
        <time>2011-12-04T03:31:02Z</time>
      </trkpt>
      <trkpt lat="45.63732" lon="4.62322">
        <ele>628.8395996</ele>
        <time>2011-12-04T03:31:08Z</time>
      </trkpt>
      <trkpt lat="45.63728" lon="4.62336">
        <ele>628.8395996</ele>
        <time>2011-12-04T03:31:12Z</time>
      </trkpt>
      <trkpt lat="45.63724" lon="4.62357">
        <ele>626.4362793</ele>
        <time>2011-12-04T03:31:18Z</time>
      </trkpt>
      <trkpt lat="45.63727" lon="4.62371">
        <ele>623.5524902</ele>
        <time>2011-12-04T03:31:23Z</time>
      </trkpt>
      <trkpt lat="45.63736" lon="4.62386">
        <ele>620.668457</ele>
        <time>2011-12-04T03:31:29Z</time>
      </trkpt>
      <trkpt lat="45.63745" lon="4.62404">
        <ele>619.2263184</ele>
        <time>2011-12-04T03:31:35Z</time>
      </trkpt>
      <trkpt lat="45.63747" lon="4.62407">
        <ele>618.2648926</ele>
        <time>2011-12-04T03:31:36Z</time>
      </trkpt>
      <trkpt lat="45.63746" lon="4.62425">
        <ele>620.668457</ele>
        <time>2011-12-04T03:31:44Z</time>
      </trkpt>
      <trkpt lat="45.63743" lon="4.62431">
        <ele>622.5910645</ele>
        <time>2011-12-04T03:31:52Z</time>
      </trkpt>
      <trkpt lat="45.63742" lon="4.62433">
        <ele>622.5910645</ele>
        <time>2011-12-04T03:31:59Z</time>
      </trkpt>
      <trkpt lat="45.63741" lon="4.62434">
        <ele>622.5910645</ele>
        <time>2011-12-04T03:32:05Z</time>
      </trkpt>
      <trkpt lat="45.6374" lon="4.62435">
        <ele>623.0717773</ele>
        <time>2011-12-04T03:32:13Z</time>
      </trkpt>
      <trkpt lat="45.6374" lon="4.62436">
        <ele>622.5910645</ele>
        <time>2011-12-04T03:32:21Z</time>
      </trkpt>
      <trkpt lat="45.6374" lon="4.62437">
        <ele>622.1103516</ele>
        <time>2011-12-04T03:32:27Z</time>
      </trkpt>
      <trkpt lat="45.63738" lon="4.62438">
        <ele>621.6296387</ele>
        <time>2011-12-04T03:32:35Z</time>
      </trkpt>
      <trkpt lat="45.63738" lon="4.62439">
        <ele>621.6296387</ele>
        <time>2011-12-04T03:32:41Z</time>
      </trkpt>
      <trkpt lat="45.63738" lon="4.62441">
        <ele>619.7070313</ele>
        <time>2011-12-04T03:32:49Z</time>
      </trkpt>
      <trkpt lat="45.63738" lon="4.62442">
        <ele>618.7456055</ele>
        <time>2011-12-04T03:32:56Z</time>
      </trkpt>
      <trkpt lat="45.63737" lon="4.62445">
        <ele>619.7070313</ele>
        <time>2011-12-04T03:33:04Z</time>
      </trkpt>
      <trkpt lat="45.63737" lon="4.62447">
        <ele>620.1877441</ele>
        <time>2011-12-04T03:33:11Z</time>
      </trkpt>
      <trkpt lat="45.63737" lon="4.6245">
        <ele>622.5910645</ele>
        <time>2011-12-04T03:33:20Z</time>
      </trkpt>
      <trkpt lat="45.63736" lon="4.62452">
        <ele>624.032959</ele>
        <time>2011-12-04T03:33:27Z</time>
      </trkpt>
      <trkpt lat="45.63737" lon="4.62453">
        <ele>623.0717773</ele>
        <time>2011-12-04T03:33:33Z</time>
      </trkpt>
      <trkpt lat="45.63738" lon="4.62455">
        <ele>623.0717773</ele>
        <time>2011-12-04T03:33:43Z</time>
      </trkpt>
      <trkpt lat="45.63736" lon="4.62455">
        <ele>626.4362793</ele>
        <time>2011-12-04T03:33:52Z</time>
      </trkpt>
      <trkpt lat="45.63738" lon="4.62453">
        <ele>623.5524902</ele>
        <time>2011-12-04T03:33:59Z</time>
      </trkpt>
      <trkpt lat="45.63737" lon="4.62458">
        <ele>622.1103516</ele>
        <time>2011-12-04T03:34:05Z</time>
      </trkpt>
      <trkpt lat="45.63732" lon="4.62461">
        <ele>620.668457</ele>
        <time>2011-12-04T03:34:13Z</time>
      </trkpt>
      <trkpt lat="45.63727" lon="4.62463">
        <ele>625.4748535</ele>
        <time>2011-12-04T03:34:20Z</time>
      </trkpt>
      <trkpt lat="45.63728" lon="4.62463">
        <ele>621.6296387</ele>
        <time>2011-12-04T03:34:31Z</time>
      </trkpt>
      <trkpt lat="45.6373" lon="4.62462">
        <ele>618.7456055</ele>
        <time>2011-12-04T03:34:42Z</time>
      </trkpt>
      <trkpt lat="45.63731" lon="4.62467">
        <ele>619.2263184</ele>
        <time>2011-12-04T03:34:56Z</time>
      </trkpt>
      <trkpt lat="45.63732" lon="4.62467">
        <ele>618.2648926</ele>
        <time>2011-12-04T03:35:03Z</time>
      </trkpt>
      <trkpt lat="45.63727" lon="4.62467">
        <ele>623.5524902</ele>
        <time>2011-12-04T03:35:15Z</time>
      </trkpt>
      <trkpt lat="45.63728" lon="4.62462">
        <ele>619.2263184</ele>
        <time>2011-12-04T03:35:28Z</time>
      </trkpt>
      <trkpt lat="45.63729" lon="4.62467">
        <ele>619.7070313</ele>
        <time>2011-12-04T03:35:33Z</time>
      </trkpt>
      <trkpt lat="45.63728" lon="4.62477">
        <ele>617.7841797</ele>
        <time>2011-12-04T03:35:40Z</time>
      </trkpt>
      <trkpt lat="45.6372" lon="4.62488">
        <ele>616.822998</ele>
        <time>2011-12-04T03:35:47Z</time>
      </trkpt>
      <trkpt lat="45.63706" lon="4.625">
        <ele>614.9003906</ele>
        <time>2011-12-04T03:35:54Z</time>
      </trkpt>
      <trkpt lat="45.63696" lon="4.62508">
        <ele>614.9003906</ele>
        <time>2011-12-04T03:35:59Z</time>
      </trkpt>
      <trkpt lat="45.63693" lon="4.62511">
        <ele>614.4196777</ele>
        <time>2011-12-04T03:36:01Z</time>
      </trkpt>
      <trkpt lat="45.6369" lon="4.62517">
        <ele>612.4970703</ele>
        <time>2011-12-04T03:36:08Z</time>
      </trkpt>
      <trkpt lat="45.63691" lon="4.62519">
        <ele>612.0166016</ele>
        <time>2011-12-04T03:36:15Z</time>
      </trkpt>
      <trkpt lat="45.63691" lon="4.62522">
        <ele>613.4584961</ele>
        <time>2011-12-04T03:36:23Z</time>
      </trkpt>
      <trkpt lat="45.63691" lon="4.62523">
        <ele>616.3422852</ele>
        <time>2011-12-04T03:36:32Z</time>
      </trkpt>
      <trkpt lat="45.63689" lon="4.62524">
        <ele>617.3037109</ele>
        <time>2011-12-04T03:36:41Z</time>
      </trkpt>
      <trkpt lat="45.6369" lon="4.62529">
        <ele>612.4970703</ele>
        <time>2011-12-04T03:36:50Z</time>
      </trkpt>
      <trkpt lat="45.63688" lon="4.62544">
        <ele>611.5358887</ele>
        <time>2011-12-04T03:36:58Z</time>
      </trkpt>
      <trkpt lat="45.63682" lon="4.62558">
        <ele>611.0551758</ele>
        <time>2011-12-04T03:37:04Z</time>
      </trkpt>
      <trkpt lat="45.63676" lon="4.62573">
        <ele>610.5744629</ele>
        <time>2011-12-04T03:37:09Z</time>
      </trkpt>
      <trkpt lat="45.6367" lon="4.62592">
        <ele>610.5744629</ele>
        <time>2011-12-04T03:37:15Z</time>
      </trkpt>
      <trkpt lat="45.63664" lon="4.62611">
        <ele>611.0551758</ele>
        <time>2011-12-04T03:37:21Z</time>
      </trkpt>
      <trkpt lat="45.63657" lon="4.62631">
        <ele>610.09375</ele>
        <time>2011-12-04T03:37:28Z</time>
      </trkpt>
      <trkpt lat="45.63651" lon="4.62648">
        <ele>608.6518555</ele>
        <time>2011-12-04T03:37:33Z</time>
      </trkpt>
      <trkpt lat="45.63646" lon="4.62666">
        <ele>606.729248</ele>
        <time>2011-12-04T03:37:39Z</time>
      </trkpt>
      <trkpt lat="45.6364" lon="4.62685">
        <ele>604.8066406</ele>
        <time>2011-12-04T03:37:45Z</time>
      </trkpt>
      <trkpt lat="45.63629" lon="4.6271">
        <ele>601.9226074</ele>
        <time>2011-12-04T03:37:53Z</time>
      </trkpt>
      <trkpt lat="45.63621" lon="4.62721">
        <ele>600</ele>
        <time>2011-12-04T03:37:58Z</time>
      </trkpt>
      <trkpt lat="45.63614" lon="4.62731">
        <ele>598.5578613</ele>
        <time>2011-12-04T03:38:02Z</time>
      </trkpt>
      <trkpt lat="45.63604" lon="4.62749">
        <ele>596.635498</ele>
        <time>2011-12-04T03:38:08Z</time>
      </trkpt>
      <trkpt lat="45.63595" lon="4.62766">
        <ele>593.7514648</ele>
        <time>2011-12-04T03:38:14Z</time>
      </trkpt>
      <trkpt lat="45.63587" lon="4.62785">
        <ele>590.8674316</ele>
        <time>2011-12-04T03:38:20Z</time>
      </trkpt>
      <trkpt lat="45.63584" lon="4.62809">
        <ele>587.5026855</ele>
        <time>2011-12-04T03:38:27Z</time>
      </trkpt>
      <trkpt lat="45.63581" lon="4.62827">
        <ele>587.0219727</ele>
        <time>2011-12-04T03:38:32Z</time>
      </trkpt>
      <trkpt lat="45.63581" lon="4.62848">
        <ele>585.5800781</ele>
        <time>2011-12-04T03:38:37Z</time>
      </trkpt>
      <trkpt lat="45.63577" lon="4.62868">
        <ele>583.1767578</ele>
        <time>2011-12-04T03:38:42Z</time>
      </trkpt>
      <trkpt lat="45.63569" lon="4.6289">
        <ele>580.7736816</ele>
        <time>2011-12-04T03:38:48Z</time>
      </trkpt>
      <trkpt lat="45.63561" lon="4.62909">
        <ele>577.8896484</ele>
        <time>2011-12-04T03:38:54Z</time>
      </trkpt>
      <trkpt lat="45.63553" lon="4.62925">
        <ele>574.0444336</ele>
        <time>2011-12-04T03:39:00Z</time>
      </trkpt>
      <trkpt lat="45.63549" lon="4.62932">
        <ele>573.083252</ele>
        <time>2011-12-04T03:39:03Z</time>
      </trkpt>
      <trkpt lat="45.63553" lon="4.62944">
        <ele>572.6025391</ele>
        <time>2011-12-04T03:39:08Z</time>
      </trkpt>
      <trkpt lat="45.63556" lon="4.62945">
        <ele>572.1218262</ele>
        <time>2011-12-04T03:39:11Z</time>
      </trkpt>
      <trkpt lat="45.63563" lon="4.62949">
        <ele>573.083252</ele>
        <time>2011-12-04T03:39:18Z</time>
      </trkpt>
      <trkpt lat="45.63566" lon="4.6295">
        <ele>575.4863281</ele>
        <time>2011-12-04T03:39:22Z</time>
      </trkpt>
      <trkpt lat="45.63577" lon="4.62952">
        <ele>577.4091797</ele>
        <time>2011-12-04T03:39:29Z</time>
      </trkpt>
      <trkpt lat="45.63579" lon="4.62952">
        <ele>577.4091797</ele>
        <time>2011-12-04T03:39:30Z</time>
      </trkpt>
      <trkpt lat="45.6359" lon="4.62952">
        <ele>578.3703613</ele>
        <time>2011-12-04T03:39:37Z</time>
      </trkpt>
      <trkpt lat="45.63601" lon="4.62953">
        <ele>576.9284668</ele>
        <time>2011-12-04T03:39:43Z</time>
      </trkpt>
      <trkpt lat="45.63608" lon="4.62952">
        <ele>575.0058594</ele>
        <time>2011-12-04T03:39:47Z</time>
      </trkpt>
      <trkpt lat="45.63614" lon="4.62952">
        <ele>575.967041</ele>
        <time>2011-12-04T03:39:51Z</time>
      </trkpt>
      <trkpt lat="45.63616" lon="4.62952">
        <ele>575.4863281</ele>
        <time>2011-12-04T03:39:52Z</time>
      </trkpt>
      <trkpt lat="45.63627" lon="4.62949">
        <ele>574.5251465</ele>
        <time>2011-12-04T03:39:58Z</time>
      </trkpt>
      <trkpt lat="45.6363" lon="4.62948">
        <ele>574.0444336</ele>
        <time>2011-12-04T03:40:00Z</time>
      </trkpt>
      <trkpt lat="45.63641" lon="4.62946">
        <ele>573.083252</ele>
        <time>2011-12-04T03:40:05Z</time>
      </trkpt>
      <trkpt lat="45.63653" lon="4.62944">
        <ele>574.0444336</ele>
        <time>2011-12-04T03:40:11Z</time>
      </trkpt>
      <trkpt lat="45.63664" lon="4.62944">
        <ele>575.967041</ele>
        <time>2011-12-04T03:40:16Z</time>
      </trkpt>
      <trkpt lat="45.6367" lon="4.62944">
        <ele>575.4863281</ele>
        <time>2011-12-04T03:40:19Z</time>
      </trkpt>
      <trkpt lat="45.63682" lon="4.62948">
        <ele>573.5639648</ele>
        <time>2011-12-04T03:40:26Z</time>
      </trkpt>
      <trkpt lat="45.63697" lon="4.62956">
        <ele>575.4863281</ele>
        <time>2011-12-04T03:40:34Z</time>
      </trkpt>
      <trkpt lat="45.63699" lon="4.62957">
        <ele>576.4477539</ele>
        <time>2011-12-04T03:40:35Z</time>
      </trkpt>
      <trkpt lat="45.6371" lon="4.62964">
        <ele>580.2929688</ele>
        <time>2011-12-04T03:40:40Z</time>
      </trkpt>
      <trkpt lat="45.63727" lon="4.62977">
        <ele>583.6574707</ele>
        <time>2011-12-04T03:40:47Z</time>
      </trkpt>
      <trkpt lat="45.63734" lon="4.62981">
        <ele>582.2155762</ele>
        <time>2011-12-04T03:40:51Z</time>
      </trkpt>
      <trkpt lat="45.63745" lon="4.62988">
        <ele>585.0996094</ele>
        <time>2011-12-04T03:40:58Z</time>
      </trkpt>
      <trkpt lat="45.63746" lon="4.62991">
        <ele>586.5415039</ele>
        <time>2011-12-04T03:41:01Z</time>
      </trkpt>
      <trkpt lat="45.63752" lon="4.63004">
        <ele>591.3481445</ele>
        <time>2011-12-04T03:41:09Z</time>
      </trkpt>
      <trkpt lat="45.63753" lon="4.63005">
        <ele>591.3481445</ele>
        <time>2011-12-04T03:41:10Z</time>
      </trkpt>
      <trkpt lat="45.63755" lon="4.63007">
        <ele>591.3481445</ele>
        <time>2011-12-04T03:41:12Z</time>
      </trkpt>
      <trkpt lat="45.63758" lon="4.63015">
        <ele>593.7514648</ele>
        <time>2011-12-04T03:41:17Z</time>
      </trkpt>
      <trkpt lat="45.63759" lon="4.63017">
        <ele>594.7126465</ele>
        <time>2011-12-04T03:41:19Z</time>
      </trkpt>
      <trkpt lat="45.63761" lon="4.63021">
        <ele>596.1547852</ele>
        <time>2011-12-04T03:41:22Z</time>
      </trkpt>
      <trkpt lat="45.63763" lon="4.63028">
        <ele>600.4807129</ele>
        <time>2011-12-04T03:41:27Z</time>
      </trkpt>
      <trkpt lat="45.63765" lon="4.63033">
        <ele>602.8837891</ele>
        <time>2011-12-04T03:41:32Z</time>
      </trkpt>
      <trkpt lat="45.63766" lon="4.6304">
        <ele>606.729248</ele>
        <time>2011-12-04T03:41:37Z</time>
      </trkpt>
      <trkpt lat="45.6377" lon="4.63046">
        <ele>608.6518555</ele>
        <time>2011-12-04T03:41:44Z</time>
      </trkpt>
      <trkpt lat="45.63773" lon="4.63054">
        <ele>608.6518555</ele>
        <time>2011-12-04T03:41:50Z</time>
      </trkpt>
      <trkpt lat="45.63773" lon="4.63055">
        <ele>608.6518555</ele>
        <time>2011-12-04T03:41:51Z</time>
      </trkpt>
      <trkpt lat="45.63777" lon="4.6306">
        <ele>606.2485352</ele>
        <time>2011-12-04T03:41:55Z</time>
      </trkpt>
      <trkpt lat="45.63781" lon="4.63066">
        <ele>602.4030762</ele>
        <time>2011-12-04T03:42:00Z</time>
      </trkpt>
      <trkpt lat="45.63785" lon="4.63074">
        <ele>598.0773926</ele>
        <time>2011-12-04T03:42:07Z</time>
      </trkpt>
      <trkpt lat="45.63789" lon="4.63085">
        <ele>602.4030762</ele>
        <time>2011-12-04T03:42:15Z</time>
      </trkpt>
      <trkpt lat="45.63793" lon="4.63092">
        <ele>602.4030762</ele>
        <time>2011-12-04T03:42:22Z</time>
      </trkpt>
      <trkpt lat="45.63799" lon="4.63099">
        <ele>603.8452148</ele>
        <time>2011-12-04T03:42:29Z</time>
      </trkpt>
      <trkpt lat="45.63805" lon="4.63104">
        <ele>602.4030762</ele>
        <time>2011-12-04T03:42:36Z</time>
      </trkpt>
      <trkpt lat="45.63812" lon="4.63103">
        <ele>600</ele>
        <time>2011-12-04T03:42:42Z</time>
      </trkpt>
      <trkpt lat="45.63816" lon="4.631">
        <ele>598.5578613</ele>
        <time>2011-12-04T03:42:49Z</time>
      </trkpt>
      <trkpt lat="45.6382" lon="4.63097">
        <ele>598.0773926</ele>
        <time>2011-12-04T03:42:54Z</time>
      </trkpt>
      <trkpt lat="45.63825" lon="4.63097">
        <ele>601.4418945</ele>
        <time>2011-12-04T03:42:59Z</time>
      </trkpt>
      <trkpt lat="45.63829" lon="4.63097">
        <ele>605.2873535</ele>
        <time>2011-12-04T03:43:02Z</time>
      </trkpt>
      <trkpt lat="45.63835" lon="4.63093">
        <ele>608.1713867</ele>
        <time>2011-12-04T03:43:09Z</time>
      </trkpt>
      <trkpt lat="45.63844" lon="4.63089">
        <ele>610.5744629</ele>
        <time>2011-12-04T03:43:17Z</time>
      </trkpt>
      <trkpt lat="45.6385" lon="4.63084">
        <ele>612.4970703</ele>
        <time>2011-12-04T03:43:24Z</time>
      </trkpt>
      <trkpt lat="45.63854" lon="4.6308">
        <ele>618.7456055</ele>
        <time>2011-12-04T03:43:30Z</time>
      </trkpt>
      <trkpt lat="45.63859" lon="4.63075">
        <ele>620.1877441</ele>
        <time>2011-12-04T03:43:36Z</time>
      </trkpt>
      <trkpt lat="45.63865" lon="4.63072">
        <ele>622.1103516</ele>
        <time>2011-12-04T03:43:43Z</time>
      </trkpt>
      <trkpt lat="45.63871" lon="4.63071">
        <ele>624.5136719</ele>
        <time>2011-12-04T03:43:48Z</time>
      </trkpt>
      <trkpt lat="45.63874" lon="4.63068">
        <ele>624.9943848</ele>
        <time>2011-12-04T03:43:52Z</time>
      </trkpt>
      <trkpt lat="45.63882" lon="4.63067">
        <ele>626.9169922</ele>
        <time>2011-12-04T03:43:59Z</time>
      </trkpt>
      <trkpt lat="45.63885" lon="4.63065">
        <ele>627.8781738</ele>
        <time>2011-12-04T03:44:04Z</time>
      </trkpt>
      <trkpt lat="45.6389" lon="4.63064">
        <ele>624.9943848</ele>
        <time>2011-12-04T03:44:09Z</time>
      </trkpt>
      <trkpt lat="45.63896" lon="4.63062">
        <ele>626.9169922</ele>
        <time>2011-12-04T03:44:14Z</time>
      </trkpt>
      <trkpt lat="45.63899" lon="4.6306">
        <ele>628.3588867</ele>
        <time>2011-12-04T03:44:18Z</time>
      </trkpt>
      <trkpt lat="45.63904" lon="4.63057">
        <ele>628.3588867</ele>
        <time>2011-12-04T03:44:23Z</time>
      </trkpt>
      <trkpt lat="45.63911" lon="4.63053">
        <ele>629.8007813</ele>
        <time>2011-12-04T03:44:29Z</time>
      </trkpt>
      <trkpt lat="45.63915" lon="4.63051">
        <ele>630.762207</ele>
        <time>2011-12-04T03:44:33Z</time>
      </trkpt>
      <trkpt lat="45.63928" lon="4.63052">
        <ele>634.6074219</ele>
        <time>2011-12-04T03:44:39Z</time>
      </trkpt>
      <trkpt lat="45.63935" lon="4.63051">
        <ele>635.5686035</ele>
        <time>2011-12-04T03:44:44Z</time>
      </trkpt>
      <trkpt lat="45.63942" lon="4.63047">
        <ele>637.4914551</ele>
        <time>2011-12-04T03:44:51Z</time>
      </trkpt>
      <trkpt lat="45.63947" lon="4.63044">
        <ele>637.0107422</ele>
        <time>2011-12-04T03:44:56Z</time>
      </trkpt>
      <trkpt lat="45.6395" lon="4.63041">
        <ele>637.4914551</ele>
        <time>2011-12-04T03:44:59Z</time>
      </trkpt>
      <trkpt lat="45.63956" lon="4.63038">
        <ele>636.0495605</ele>
        <time>2011-12-04T03:45:05Z</time>
      </trkpt>
      <trkpt lat="45.63962" lon="4.63036">
        <ele>636.0495605</ele>
        <time>2011-12-04T03:45:10Z</time>
      </trkpt>
      <trkpt lat="45.63966" lon="4.63033">
        <ele>635.0881348</ele>
        <time>2011-12-04T03:45:15Z</time>
      </trkpt>
      <trkpt lat="45.63972" lon="4.63032">
        <ele>637.972168</ele>
        <time>2011-12-04T03:45:20Z</time>
      </trkpt>
      <trkpt lat="45.63976" lon="4.63026">
        <ele>633.6459961</ele>
        <time>2011-12-04T03:45:26Z</time>
      </trkpt>
      <trkpt lat="45.63983" lon="4.63021">
        <ele>635.0881348</ele>
        <time>2011-12-04T03:45:32Z</time>
      </trkpt>
      <trkpt lat="45.63988" lon="4.63018">
        <ele>636.0495605</ele>
        <time>2011-12-04T03:45:36Z</time>
      </trkpt>
      <trkpt lat="45.63992" lon="4.63016">
        <ele>637.972168</ele>
        <time>2011-12-04T03:45:39Z</time>
      </trkpt>
      <trkpt lat="45.63997" lon="4.63015">
        <ele>640.855957</ele>
        <time>2011-12-04T03:45:42Z</time>
      </trkpt>
      <trkpt lat="45.64007" lon="4.6301">
        <ele>637.972168</ele>
        <time>2011-12-04T03:45:47Z</time>
      </trkpt>
      <trkpt lat="45.6402" lon="4.63007">
        <ele>636.0495605</ele>
        <time>2011-12-04T03:45:52Z</time>
      </trkpt>
      <trkpt lat="45.64037" lon="4.63001">
        <ele>635.5686035</ele>
        <time>2011-12-04T03:45:58Z</time>
      </trkpt>
      <trkpt lat="45.6404" lon="4.63001">
        <ele>636.0495605</ele>
        <time>2011-12-04T03:45:59Z</time>
      </trkpt>
      <trkpt lat="45.64044" lon="4.62999">
        <ele>635.5686035</ele>
        <time>2011-12-04T03:46:01Z</time>
      </trkpt>
      <trkpt lat="45.64056" lon="4.62994">
        <ele>635.0881348</ele>
        <time>2011-12-04T03:46:06Z</time>
      </trkpt>
      <trkpt lat="45.64066" lon="4.6299">
        <ele>633.1652832</ele>
        <time>2011-12-04T03:46:10Z</time>
      </trkpt>
      <trkpt lat="45.64074" lon="4.62984">
        <ele>631.7233887</ele>
        <time>2011-12-04T03:46:14Z</time>
      </trkpt>
      <trkpt lat="45.64086" lon="4.62975">
        <ele>630.2814941</ele>
        <time>2011-12-04T03:46:20Z</time>
      </trkpt>
      <trkpt lat="45.64097" lon="4.62971">
        <ele>630.2814941</ele>
        <time>2011-12-04T03:46:24Z</time>
      </trkpt>
      <trkpt lat="45.6411" lon="4.62964">
        <ele>629.8007813</ele>
        <time>2011-12-04T03:46:29Z</time>
      </trkpt>
      <trkpt lat="45.64114" lon="4.62961">
        <ele>629.8007813</ele>
        <time>2011-12-04T03:46:31Z</time>
      </trkpt>
      <trkpt lat="45.64126" lon="4.62957">
        <ele>632.2041016</ele>
        <time>2011-12-04T03:46:36Z</time>
      </trkpt>
      <trkpt lat="45.64131" lon="4.62953">
        <ele>631.7233887</ele>
        <time>2011-12-04T03:46:38Z</time>
      </trkpt>
      <trkpt lat="45.6415" lon="4.62943">
        <ele>630.2814941</ele>
        <time>2011-12-04T03:46:45Z</time>
      </trkpt>
      <trkpt lat="45.64159" lon="4.62937">
        <ele>631.2429199</ele>
        <time>2011-12-04T03:46:49Z</time>
      </trkpt>
      <trkpt lat="45.64167" lon="4.62931">
        <ele>631.7233887</ele>
        <time>2011-12-04T03:46:53Z</time>
      </trkpt>
      <trkpt lat="45.6418" lon="4.62927">
        <ele>631.7233887</ele>
        <time>2011-12-04T03:46:59Z</time>
      </trkpt>
      <trkpt lat="45.64182" lon="4.62926">
        <ele>631.2429199</ele>
        <time>2011-12-04T03:47:00Z</time>
      </trkpt>
      <trkpt lat="45.64193" lon="4.62918">
        <ele>629.3200684</ele>
        <time>2011-12-04T03:47:06Z</time>
      </trkpt>
      <trkpt lat="45.64205" lon="4.6291">
        <ele>628.3588867</ele>
        <time>2011-12-04T03:47:12Z</time>
      </trkpt>
      <trkpt lat="45.64217" lon="4.62902">
        <ele>626.4362793</ele>
        <time>2011-12-04T03:47:17Z</time>
      </trkpt>
      <trkpt lat="45.64228" lon="4.62895">
        <ele>624.5136719</ele>
        <time>2011-12-04T03:47:22Z</time>
      </trkpt>
      <trkpt lat="45.64237" lon="4.62889">
        <ele>623.5524902</ele>
        <time>2011-12-04T03:47:26Z</time>
      </trkpt>
      <trkpt lat="45.6425" lon="4.6288">
        <ele>621.6296387</ele>
        <time>2011-12-04T03:47:32Z</time>
      </trkpt>
      <trkpt lat="45.64258" lon="4.62874">
        <ele>620.668457</ele>
        <time>2011-12-04T03:47:36Z</time>
      </trkpt>
      <trkpt lat="45.64264" lon="4.62869">
        <ele>620.1877441</ele>
        <time>2011-12-04T03:47:39Z</time>
      </trkpt>
      <trkpt lat="45.6427" lon="4.62864">
        <ele>620.1877441</ele>
        <time>2011-12-04T03:47:42Z</time>
      </trkpt>
      <trkpt lat="45.6428" lon="4.6287">
        <ele>617.7841797</ele>
        <time>2011-12-04T03:47:47Z</time>
      </trkpt>
      <trkpt lat="45.64289" lon="4.62892">
        <ele>615.3811035</ele>
        <time>2011-12-04T03:47:54Z</time>
      </trkpt>
      <trkpt lat="45.64295" lon="4.62912">
        <ele>615.3811035</ele>
        <time>2011-12-04T03:48:00Z</time>
      </trkpt>
      <trkpt lat="45.64303" lon="4.62928">
        <ele>615.3811035</ele>
        <time>2011-12-04T03:48:05Z</time>
      </trkpt>
      <trkpt lat="45.64309" lon="4.62944">
        <ele>616.822998</ele>
        <time>2011-12-04T03:48:10Z</time>
      </trkpt>
      <trkpt lat="45.64311" lon="4.62947">
        <ele>616.822998</ele>
        <time>2011-12-04T03:48:11Z</time>
      </trkpt>
      <trkpt lat="45.64317" lon="4.62966">
        <ele>616.822998</ele>
        <time>2011-12-04T03:48:17Z</time>
      </trkpt>
      <trkpt lat="45.64322" lon="4.62982">
        <ele>617.3037109</ele>
        <time>2011-12-04T03:48:22Z</time>
      </trkpt>
      <trkpt lat="45.64327" lon="4.63003">
        <ele>619.2263184</ele>
        <time>2011-12-04T03:48:28Z</time>
      </trkpt>
      <trkpt lat="45.6433" lon="4.6303">
        <ele>618.7456055</ele>
        <time>2011-12-04T03:48:36Z</time>
      </trkpt>
      <trkpt lat="45.64333" lon="4.63052">
        <ele>617.7841797</ele>
        <time>2011-12-04T03:48:43Z</time>
      </trkpt>
      <trkpt lat="45.64338" lon="4.63068">
        <ele>617.3037109</ele>
        <time>2011-12-04T03:48:48Z</time>
      </trkpt>
      <trkpt lat="45.64344" lon="4.63086">
        <ele>616.822998</ele>
        <time>2011-12-04T03:48:54Z</time>
      </trkpt>
      <trkpt lat="45.64354" lon="4.63105">
        <ele>617.7841797</ele>
        <time>2011-12-04T03:49:00Z</time>
      </trkpt>
      <trkpt lat="45.6436" lon="4.63116">
        <ele>618.2648926</ele>
        <time>2011-12-04T03:49:04Z</time>
      </trkpt>
      <trkpt lat="45.64371" lon="4.63132">
        <ele>618.2648926</ele>
        <time>2011-12-04T03:49:10Z</time>
      </trkpt>
      <trkpt lat="45.64382" lon="4.63145">
        <ele>617.3037109</ele>
        <time>2011-12-04T03:49:16Z</time>
      </trkpt>
      <trkpt lat="45.64391" lon="4.63158">
        <ele>617.3037109</ele>
        <time>2011-12-04T03:49:21Z</time>
      </trkpt>
      <trkpt lat="45.64404" lon="4.63173">
        <ele>616.822998</ele>
        <time>2011-12-04T03:49:28Z</time>
      </trkpt>
      <trkpt lat="45.64414" lon="4.63185">
        <ele>616.3422852</ele>
        <time>2011-12-04T03:49:33Z</time>
      </trkpt>
      <trkpt lat="45.64425" lon="4.63201">
        <ele>615.8618164</ele>
        <time>2011-12-04T03:49:39Z</time>
      </trkpt>
      <trkpt lat="45.6444" lon="4.63217">
        <ele>614.9003906</ele>
        <time>2011-12-04T03:49:46Z</time>
      </trkpt>
      <trkpt lat="45.64454" lon="4.6323">
        <ele>613.4584961</ele>
        <time>2011-12-04T03:49:52Z</time>
      </trkpt>
      <trkpt lat="45.64469" lon="4.6324">
        <ele>612.4970703</ele>
        <time>2011-12-04T03:49:58Z</time>
      </trkpt>
      <trkpt lat="45.64481" lon="4.63244">
        <ele>610.5744629</ele>
        <time>2011-12-04T03:50:03Z</time>
      </trkpt>
      <trkpt lat="45.64493" lon="4.63249">
        <ele>610.5744629</ele>
        <time>2011-12-04T03:50:09Z</time>
      </trkpt>
      <trkpt lat="45.64503" lon="4.63254">
        <ele>610.09375</ele>
        <time>2011-12-04T03:50:13Z</time>
      </trkpt>
      <trkpt lat="45.64507" lon="4.63257">
        <ele>609.6132813</ele>
        <time>2011-12-04T03:50:15Z</time>
      </trkpt>
      <trkpt lat="45.6452" lon="4.63267">
        <ele>607.6906738</ele>
        <time>2011-12-04T03:50:21Z</time>
      </trkpt>
      <trkpt lat="45.64533" lon="4.63278">
        <ele>607.2099609</ele>
        <time>2011-12-04T03:50:26Z</time>
      </trkpt>
      <trkpt lat="45.64539" lon="4.63284">
        <ele>606.729248</ele>
        <time>2011-12-04T03:50:29Z</time>
      </trkpt>
      <trkpt lat="45.64544" lon="4.63293">
        <ele>606.729248</ele>
        <time>2011-12-04T03:50:33Z</time>
      </trkpt>
      <trkpt lat="45.64556" lon="4.63316">
        <ele>609.1325684</ele>
        <time>2011-12-04T03:50:40Z</time>
      </trkpt>
      <trkpt lat="45.64565" lon="4.63338">
        <ele>612.0166016</ele>
        <time>2011-12-04T03:50:46Z</time>
      </trkpt>
      <trkpt lat="45.64569" lon="4.63354">
        <ele>612.0166016</ele>
        <time>2011-12-04T03:50:51Z</time>
      </trkpt>
      <trkpt lat="45.64576" lon="4.63372">
        <ele>612.0166016</ele>
        <time>2011-12-04T03:50:56Z</time>
      </trkpt>
      <trkpt lat="45.64579" lon="4.63387">
        <ele>611.5358887</ele>
        <time>2011-12-04T03:51:00Z</time>
      </trkpt>
      <trkpt lat="45.64583" lon="4.63415">
        <ele>611.5358887</ele>
        <time>2011-12-04T03:51:07Z</time>
      </trkpt>
      <trkpt lat="45.64584" lon="4.63438">
        <ele>610.5744629</ele>
        <time>2011-12-04T03:51:13Z</time>
      </trkpt>
      <trkpt lat="45.64584" lon="4.63461">
        <ele>609.1325684</ele>
        <time>2011-12-04T03:51:19Z</time>
      </trkpt>
      <trkpt lat="45.64584" lon="4.63481">
        <ele>609.6132813</ele>
        <time>2011-12-04T03:51:24Z</time>
      </trkpt>
      <trkpt lat="45.64587" lon="4.635">
        <ele>609.1325684</ele>
        <time>2011-12-04T03:51:29Z</time>
      </trkpt>
      <trkpt lat="45.64588" lon="4.6352">
        <ele>607.2099609</ele>
        <time>2011-12-04T03:51:34Z</time>
      </trkpt>
      <trkpt lat="45.64589" lon="4.63539">
        <ele>605.2873535</ele>
        <time>2011-12-04T03:51:39Z</time>
      </trkpt>
      <trkpt lat="45.64591" lon="4.63554">
        <ele>603.364502</ele>
        <time>2011-12-04T03:51:43Z</time>
      </trkpt>
      <trkpt lat="45.64593" lon="4.63574">
        <ele>602.4030762</ele>
        <time>2011-12-04T03:51:48Z</time>
      </trkpt>
      <trkpt lat="45.64593" lon="4.63592">
        <ele>600.4807129</ele>
        <time>2011-12-04T03:51:53Z</time>
      </trkpt>
      <trkpt lat="45.64596" lon="4.63611">
        <ele>599.5192871</ele>
        <time>2011-12-04T03:51:58Z</time>
      </trkpt>
      <trkpt lat="45.64599" lon="4.63635">
        <ele>598.5578613</ele>
        <time>2011-12-04T03:52:04Z</time>
      </trkpt>
      <trkpt lat="45.64603" lon="4.63655">
        <ele>596.1547852</ele>
        <time>2011-12-04T03:52:09Z</time>
      </trkpt>
      <trkpt lat="45.64607" lon="4.63673">
        <ele>593.270752</ele>
        <time>2011-12-04T03:52:14Z</time>
      </trkpt>
      <trkpt lat="45.64613" lon="4.63691">
        <ele>592.7902832</ele>
        <time>2011-12-04T03:52:19Z</time>
      </trkpt>
      <trkpt lat="45.64618" lon="4.63706">
        <ele>591.8288574</ele>
        <time>2011-12-04T03:52:23Z</time>
      </trkpt>
      <trkpt lat="45.64626" lon="4.63726">
        <ele>589.4255371</ele>
        <time>2011-12-04T03:52:29Z</time>
      </trkpt>
      <trkpt lat="45.64637" lon="4.63741">
        <ele>588.4643555</ele>
        <time>2011-12-04T03:52:34Z</time>
      </trkpt>
      <trkpt lat="45.64646" lon="4.63755">
        <ele>586.5415039</ele>
        <time>2011-12-04T03:52:39Z</time>
      </trkpt>
      <trkpt lat="45.64657" lon="4.63767">
        <ele>584.1381836</ele>
        <time>2011-12-04T03:52:44Z</time>
      </trkpt>
      <trkpt lat="45.64665" lon="4.63771">
        <ele>581.2543945</ele>
        <time>2011-12-04T03:52:48Z</time>
      </trkpt>
      <trkpt lat="45.64674" lon="4.63776">
        <ele>578.8510742</ele>
        <time>2011-12-04T03:52:52Z</time>
      </trkpt>
      <trkpt lat="45.64684" lon="4.63782">
        <ele>576.4477539</ele>
        <time>2011-12-04T03:52:57Z</time>
      </trkpt>
      <trkpt lat="45.64689" lon="4.63785">
        <ele>576.4477539</ele>
        <time>2011-12-04T03:52:59Z</time>
      </trkpt>
      <trkpt lat="45.64702" lon="4.63791">
        <ele>575.0058594</ele>
        <time>2011-12-04T03:53:04Z</time>
      </trkpt>
      <trkpt lat="45.64715" lon="4.63801">
        <ele>572.6025391</ele>
        <time>2011-12-04T03:53:10Z</time>
      </trkpt>
      <trkpt lat="45.6473" lon="4.63814">
        <ele>571.1604004</ele>
        <time>2011-12-04T03:53:16Z</time>
      </trkpt>
      <trkpt lat="45.64738" lon="4.63829">
        <ele>570.1989746</ele>
        <time>2011-12-04T03:53:21Z</time>
      </trkpt>
      <trkpt lat="45.64745" lon="4.63846">
        <ele>570.1989746</ele>
        <time>2011-12-04T03:53:26Z</time>
      </trkpt>
      <trkpt lat="45.64755" lon="4.63861">
        <ele>568.7570801</ele>
        <time>2011-12-04T03:53:31Z</time>
      </trkpt>
      <trkpt lat="45.64764" lon="4.63878">
        <ele>567.7956543</ele>
        <time>2011-12-04T03:53:36Z</time>
      </trkpt>
      <trkpt lat="45.64776" lon="4.639">
        <ele>566.8344727</ele>
        <time>2011-12-04T03:53:43Z</time>
      </trkpt>
      <trkpt lat="45.64789" lon="4.63918">
        <ele>564.9118652</ele>
        <time>2011-12-04T03:53:49Z</time>
      </trkpt>
      <trkpt lat="45.64798" lon="4.6393">
        <ele>564.4311523</ele>
        <time>2011-12-04T03:53:53Z</time>
      </trkpt>
      <trkpt lat="45.64809" lon="4.63944">
        <ele>563.9504395</ele>
        <time>2011-12-04T03:53:58Z</time>
      </trkpt>
      <trkpt lat="45.64821" lon="4.63958">
        <ele>562.5085449</ele>
        <time>2011-12-04T03:54:03Z</time>
      </trkpt>
      <trkpt lat="45.64832" lon="4.63974">
        <ele>561.5473633</ele>
        <time>2011-12-04T03:54:08Z</time>
      </trkpt>
      <trkpt lat="45.64846" lon="4.63997">
        <ele>559.144043</ele>
        <time>2011-12-04T03:54:15Z</time>
      </trkpt>
      <trkpt lat="45.64857" lon="4.64023">
        <ele>558.1828613</ele>
        <time>2011-12-04T03:54:23Z</time>
      </trkpt>
      <trkpt lat="45.6486" lon="4.64036">
        <ele>558.1828613</ele>
        <time>2011-12-04T03:54:27Z</time>
      </trkpt>
      <trkpt lat="45.6487" lon="4.64057">
        <ele>559.6247559</ele>
        <time>2011-12-04T03:54:33Z</time>
      </trkpt>
      <trkpt lat="45.64878" lon="4.6407">
        <ele>559.144043</ele>
        <time>2011-12-04T03:54:37Z</time>
      </trkpt>
      <trkpt lat="45.64887" lon="4.64085">
        <ele>558.6633301</ele>
        <time>2011-12-04T03:54:42Z</time>
      </trkpt>
      <trkpt lat="45.64897" lon="4.641">
        <ele>558.1828613</ele>
        <time>2011-12-04T03:54:47Z</time>
      </trkpt>
      <trkpt lat="45.64907" lon="4.64114">
        <ele>557.2214355</ele>
        <time>2011-12-04T03:54:52Z</time>
      </trkpt>
      <trkpt lat="45.64916" lon="4.64129">
        <ele>558.6633301</ele>
        <time>2011-12-04T03:54:57Z</time>
      </trkpt>
      <trkpt lat="45.64924" lon="4.64147">
        <ele>559.6247559</ele>
        <time>2011-12-04T03:55:02Z</time>
      </trkpt>
      <trkpt lat="45.6493" lon="4.64167">
        <ele>559.6247559</ele>
        <time>2011-12-04T03:55:07Z</time>
      </trkpt>
      <trkpt lat="45.64937" lon="4.6419">
        <ele>560.1052246</ele>
        <time>2011-12-04T03:55:13Z</time>
      </trkpt>
      <trkpt lat="45.64943" lon="4.64215">
        <ele>558.6633301</ele>
        <time>2011-12-04T03:55:20Z</time>
      </trkpt>
      <trkpt lat="45.64948" lon="4.64232">
        <ele>558.1828613</ele>
        <time>2011-12-04T03:55:25Z</time>
      </trkpt>
      <trkpt lat="45.64957" lon="4.64252">
        <ele>558.6633301</ele>
        <time>2011-12-04T03:55:31Z</time>
      </trkpt>
      <trkpt lat="45.64958" lon="4.64256">
        <ele>558.6633301</ele>
        <time>2011-12-04T03:55:32Z</time>
      </trkpt>
      <trkpt lat="45.64968" lon="4.64273">
        <ele>556.7407227</ele>
        <time>2011-12-04T03:55:38Z</time>
      </trkpt>
      <trkpt lat="45.6498" lon="4.64297">
        <ele>555.298584</ele>
        <time>2011-12-04T03:55:45Z</time>
      </trkpt>
      <trkpt lat="45.64986" lon="4.6431">
        <ele>553.8566895</ele>
        <time>2011-12-04T03:55:49Z</time>
      </trkpt>
      <trkpt lat="45.64993" lon="4.64327">
        <ele>552.8952637</ele>
        <time>2011-12-04T03:55:54Z</time>
      </trkpt>
      <trkpt lat="45.65002" lon="4.64348">
        <ele>550.4921875</ele>
        <time>2011-12-04T03:56:00Z</time>
      </trkpt>
      <trkpt lat="45.6501" lon="4.64364">
        <ele>549.0500488</ele>
        <time>2011-12-04T03:56:05Z</time>
      </trkpt>
      <trkpt lat="45.6502" lon="4.64381">
        <ele>547.6081543</ele>
        <time>2011-12-04T03:56:11Z</time>
      </trkpt>
      <trkpt lat="45.65029" lon="4.64393">
        <ele>547.1274414</ele>
        <time>2011-12-04T03:56:15Z</time>
      </trkpt>
      <trkpt lat="45.65042" lon="4.64411">
        <ele>544.2436523</ele>
        <time>2011-12-04T03:56:22Z</time>
      </trkpt>
      <trkpt lat="45.65049" lon="4.64424">
        <ele>542.8015137</ele>
        <time>2011-12-04T03:56:27Z</time>
      </trkpt>
      <trkpt lat="45.65059" lon="4.64445">
        <ele>540.3983154</ele>
        <time>2011-12-04T03:56:34Z</time>
      </trkpt>
      <trkpt lat="45.65066" lon="4.64461">
        <ele>540.3983154</ele>
        <time>2011-12-04T03:56:39Z</time>
      </trkpt>
      <trkpt lat="45.65072" lon="4.64472">
        <ele>540.3983154</ele>
        <time>2011-12-04T03:56:43Z</time>
      </trkpt>
      <trkpt lat="45.65079" lon="4.64484">
        <ele>541.3594971</ele>
        <time>2011-12-04T03:56:47Z</time>
      </trkpt>
      <trkpt lat="45.6508" lon="4.64487">
        <ele>541.3594971</ele>
        <time>2011-12-04T03:56:48Z</time>
      </trkpt>
      <trkpt lat="45.65092" lon="4.64511">
        <ele>545.204834</ele>
        <time>2011-12-04T03:56:56Z</time>
      </trkpt>
      <trkpt lat="45.651" lon="4.64527">
        <ele>546.1662598</ele>
        <time>2011-12-04T03:57:01Z</time>
      </trkpt>
      <trkpt lat="45.65107" lon="4.6454">
        <ele>545.6855469</ele>
        <time>2011-12-04T03:57:06Z</time>
      </trkpt>
      <trkpt lat="45.65116" lon="4.64559">
        <ele>546.1662598</ele>
        <time>2011-12-04T03:57:12Z</time>
      </trkpt>
      <trkpt lat="45.65121" lon="4.64571">
        <ele>544.2436523</ele>
        <time>2011-12-04T03:57:17Z</time>
      </trkpt>
      <trkpt lat="45.65129" lon="4.64588">
        <ele>546.1662598</ele>
        <time>2011-12-04T03:57:22Z</time>
      </trkpt>
      <trkpt lat="45.65136" lon="4.64605">
        <ele>546.1662598</ele>
        <time>2011-12-04T03:57:27Z</time>
      </trkpt>
      <trkpt lat="45.65146" lon="4.64624">
        <ele>546.6468506</ele>
        <time>2011-12-04T03:57:33Z</time>
      </trkpt>
      <trkpt lat="45.65153" lon="4.64643">
        <ele>547.1274414</ele>
        <time>2011-12-04T03:57:39Z</time>
      </trkpt>
      <trkpt lat="45.65161" lon="4.6466">
        <ele>547.1274414</ele>
        <time>2011-12-04T03:57:44Z</time>
      </trkpt>
      <trkpt lat="45.65169" lon="4.64679">
        <ele>547.1274414</ele>
        <time>2011-12-04T03:57:50Z</time>
      </trkpt>
      <trkpt lat="45.65176" lon="4.64695">
        <ele>548.0888672</ele>
        <time>2011-12-04T03:57:55Z</time>
      </trkpt>
      <trkpt lat="45.65181" lon="4.64714">
        <ele>547.1274414</ele>
        <time>2011-12-04T03:58:01Z</time>
      </trkpt>
      <trkpt lat="45.65185" lon="4.64737">
        <ele>547.6081543</ele>
        <time>2011-12-04T03:58:08Z</time>
      </trkpt>
      <trkpt lat="45.6519" lon="4.64759">
        <ele>548.0888672</ele>
        <time>2011-12-04T03:58:15Z</time>
      </trkpt>
      <trkpt lat="45.65199" lon="4.64777">
        <ele>550.0114746</ele>
        <time>2011-12-04T03:58:21Z</time>
      </trkpt>
      <trkpt lat="45.65211" lon="4.64791">
        <ele>550.9726563</ele>
        <time>2011-12-04T03:58:27Z</time>
      </trkpt>
      <trkpt lat="45.65219" lon="4.64803">
        <ele>552.4145508</ele>
        <time>2011-12-04T03:58:32Z</time>
      </trkpt>
      <trkpt lat="45.65227" lon="4.64813">
        <ele>550.0114746</ele>
        <time>2011-12-04T03:58:37Z</time>
      </trkpt>
      <trkpt lat="45.65233" lon="4.6482">
        <ele>550.0114746</ele>
        <time>2011-12-04T03:58:41Z</time>
      </trkpt>
      <trkpt lat="45.65242" lon="4.64832">
        <ele>551.934082</ele>
        <time>2011-12-04T03:58:46Z</time>
      </trkpt>
      <trkpt lat="45.65251" lon="4.64843">
        <ele>554.8178711</ele>
        <time>2011-12-04T03:58:51Z</time>
      </trkpt>
      <trkpt lat="45.6526" lon="4.64853">
        <ele>554.8178711</ele>
        <time>2011-12-04T03:58:57Z</time>
      </trkpt>
      <trkpt lat="45.65269" lon="4.64864">
        <ele>548.5693359</ele>
        <time>2011-12-04T03:59:07Z</time>
      </trkpt>
      <trkpt lat="45.6528" lon="4.64877">
        <ele>542.3209229</ele>
        <time>2011-12-04T03:59:17Z</time>
      </trkpt>
      <trkpt lat="45.65292" lon="4.64891">
        <ele>540.8789063</ele>
        <time>2011-12-04T03:59:27Z</time>
      </trkpt>
      <trkpt lat="45.65304" lon="4.64906">
        <ele>539.9176025</ele>
        <time>2011-12-04T03:59:37Z</time>
      </trkpt>
      <trkpt lat="45.65317" lon="4.6492">
        <ele>539.9176025</ele>
        <time>2011-12-04T03:59:47Z</time>
      </trkpt>
      <trkpt lat="45.65328" lon="4.64933">
        <ele>539.4368896</ele>
        <time>2011-12-04T03:59:56Z</time>
      </trkpt>
      <trkpt lat="45.65344" lon="4.64951">
        <ele>545.6855469</ele>
        <time>2011-12-04T04:00:07Z</time>
      </trkpt>
      <trkpt lat="45.65354" lon="4.64963">
        <ele>548.0888672</ele>
        <time>2011-12-04T04:00:15Z</time>
      </trkpt>
      <trkpt lat="45.65365" lon="4.64977">
        <ele>552.4145508</ele>
        <time>2011-12-04T04:00:21Z</time>
      </trkpt>
      <trkpt lat="45.65376" lon="4.64989">
        <ele>554.3374023</ele>
        <time>2011-12-04T04:00:26Z</time>
      </trkpt>
      <trkpt lat="45.65387" lon="4.65">
        <ele>553.3759766</ele>
        <time>2011-12-04T04:00:31Z</time>
      </trkpt>
      <trkpt lat="45.65398" lon="4.65014">
        <ele>550.4921875</ele>
        <time>2011-12-04T04:00:36Z</time>
      </trkpt>
      <trkpt lat="45.65408" lon="4.65025">
        <ele>549.0500488</ele>
        <time>2011-12-04T04:00:40Z</time>
      </trkpt>
      <trkpt lat="45.65417" lon="4.65037">
        <ele>546.1662598</ele>
        <time>2011-12-04T04:00:44Z</time>
      </trkpt>
      <trkpt lat="45.65427" lon="4.6505">
        <ele>545.204834</ele>
        <time>2011-12-04T04:00:49Z</time>
      </trkpt>
      <trkpt lat="45.65441" lon="4.65069">
        <ele>546.6468506</ele>
        <time>2011-12-04T04:00:55Z</time>
      </trkpt>
      <trkpt lat="45.6545" lon="4.65084">
        <ele>547.1274414</ele>
        <time>2011-12-04T04:01:00Z</time>
      </trkpt>
      <trkpt lat="45.65462" lon="4.65101">
        <ele>547.6081543</ele>
        <time>2011-12-04T04:01:06Z</time>
      </trkpt>
      <trkpt lat="45.65473" lon="4.65119">
        <ele>547.6081543</ele>
        <time>2011-12-04T04:01:12Z</time>
      </trkpt>
      <trkpt lat="45.65488" lon="4.65137">
        <ele>545.6855469</ele>
        <time>2011-12-04T04:01:18Z</time>
      </trkpt>
      <trkpt lat="45.65498" lon="4.65149">
        <ele>543.7628174</ele>
        <time>2011-12-04T04:01:23Z</time>
      </trkpt>
      <trkpt lat="45.65508" lon="4.65161">
        <ele>541.84021</ele>
        <time>2011-12-04T04:01:28Z</time>
      </trkpt>
      <trkpt lat="45.65518" lon="4.65171">
        <ele>539.9176025</ele>
        <time>2011-12-04T04:01:32Z</time>
      </trkpt>
      <trkpt lat="45.65531" lon="4.65185">
        <ele>538.475708</ele>
        <time>2011-12-04T04:01:37Z</time>
      </trkpt>
      <trkpt lat="45.65543" lon="4.65199">
        <ele>536.0723877</ele>
        <time>2011-12-04T04:01:43Z</time>
      </trkpt>
      <trkpt lat="45.65557" lon="4.65214">
        <ele>535.5915527</ele>
        <time>2011-12-04T04:01:49Z</time>
      </trkpt>
      <trkpt lat="45.65565" lon="4.65224">
        <ele>535.1109619</ele>
        <time>2011-12-04T04:01:53Z</time>
      </trkpt>
      <trkpt lat="45.6558" lon="4.65236">
        <ele>533.1883545</ele>
        <time>2011-12-04T04:01:59Z</time>
      </trkpt>
      <trkpt lat="45.65594" lon="4.65248">
        <ele>530.7851563</ele>
        <time>2011-12-04T04:02:05Z</time>
      </trkpt>
      <trkpt lat="45.65611" lon="4.65261">
        <ele>528.3818359</ele>
        <time>2011-12-04T04:02:12Z</time>
      </trkpt>
      <trkpt lat="45.65629" lon="4.65275">
        <ele>526.4591064</ele>
        <time>2011-12-04T04:02:19Z</time>
      </trkpt>
      <trkpt lat="45.65643" lon="4.65285">
        <ele>523.5751953</ele>
        <time>2011-12-04T04:02:25Z</time>
      </trkpt>
      <trkpt lat="45.65655" lon="4.65292">
        <ele>521.6525879</ele>
        <time>2011-12-04T04:02:30Z</time>
      </trkpt>
      <trkpt lat="45.65667" lon="4.65299">
        <ele>521.1719971</ele>
        <time>2011-12-04T04:02:35Z</time>
      </trkpt>
      <trkpt lat="45.65677" lon="4.65308">
        <ele>521.6525879</ele>
        <time>2011-12-04T04:02:40Z</time>
      </trkpt>
      <trkpt lat="45.6569" lon="4.6532">
        <ele>522.6138916</ele>
        <time>2011-12-04T04:02:46Z</time>
      </trkpt>
      <trkpt lat="45.657" lon="4.65332">
        <ele>524.0557861</ele>
        <time>2011-12-04T04:02:51Z</time>
      </trkpt>
      <trkpt lat="45.6571" lon="4.65343">
        <ele>525.4978027</ele>
        <time>2011-12-04T04:02:56Z</time>
      </trkpt>
      <trkpt lat="45.65722" lon="4.65355">
        <ele>528.3818359</ele>
        <time>2011-12-04T04:03:02Z</time>
      </trkpt>
      <trkpt lat="45.65731" lon="4.65366">
        <ele>528.8625488</ele>
        <time>2011-12-04T04:03:09Z</time>
      </trkpt>
      <trkpt lat="45.6574" lon="4.65378">
        <ele>526.9398193</ele>
        <time>2011-12-04T04:03:19Z</time>
      </trkpt>
      <trkpt lat="45.65749" lon="4.65391">
        <ele>524.0557861</ele>
        <time>2011-12-04T04:03:28Z</time>
      </trkpt>
      <trkpt lat="45.65757" lon="4.65405">
        <ele>528.8625488</ele>
        <time>2011-12-04T04:03:35Z</time>
      </trkpt>
      <trkpt lat="45.65767" lon="4.65418">
        <ele>530.7851563</ele>
        <time>2011-12-04T04:03:43Z</time>
      </trkpt>
      <trkpt lat="45.65775" lon="4.65431">
        <ele>534.1496582</ele>
        <time>2011-12-04T04:03:48Z</time>
      </trkpt>
      <trkpt lat="45.65786" lon="4.65444">
        <ele>537.9949951</ele>
        <time>2011-12-04T04:03:53Z</time>
      </trkpt>
      <trkpt lat="45.65795" lon="4.65457">
        <ele>539.9176025</ele>
        <time>2011-12-04T04:03:58Z</time>
      </trkpt>
      <trkpt lat="45.65804" lon="4.6547">
        <ele>539.9176025</ele>
        <time>2011-12-04T04:04:03Z</time>
      </trkpt>
      <trkpt lat="45.65813" lon="4.6548">
        <ele>538.9562988</ele>
        <time>2011-12-04T04:04:07Z</time>
      </trkpt>
      <trkpt lat="45.65829" lon="4.65497">
        <ele>538.475708</ele>
        <time>2011-12-04T04:04:14Z</time>
      </trkpt>
      <trkpt lat="45.6584" lon="4.65512">
        <ele>535.5915527</ele>
        <time>2011-12-04T04:04:20Z</time>
      </trkpt>
      <trkpt lat="45.6585" lon="4.65526">
        <ele>533.1883545</ele>
        <time>2011-12-04T04:04:26Z</time>
      </trkpt>
      <trkpt lat="45.65856" lon="4.6554">
        <ele>530.3044434</ele>
        <time>2011-12-04T04:04:31Z</time>
      </trkpt>
      <trkpt lat="45.65862" lon="4.65558">
        <ele>527.4204102</ele>
        <time>2011-12-04T04:04:37Z</time>
      </trkpt>
      <trkpt lat="45.65865" lon="4.65583">
        <ele>525.0172119</ele>
        <time>2011-12-04T04:04:45Z</time>
      </trkpt>
      <trkpt lat="45.65869" lon="4.65599">
        <ele>521.6525879</ele>
        <time>2011-12-04T04:04:51Z</time>
      </trkpt>
      <trkpt lat="45.65877" lon="4.6562">
        <ele>522.6138916</ele>
        <time>2011-12-04T04:04:58Z</time>
      </trkpt>
      <trkpt lat="45.65887" lon="4.65637">
        <ele>521.6525879</ele>
        <time>2011-12-04T04:05:05Z</time>
      </trkpt>
      <trkpt lat="45.65899" lon="4.65647">
        <ele>519.7298584</ele>
        <time>2011-12-04T04:05:11Z</time>
      </trkpt>
      <trkpt lat="45.65909" lon="4.65658">
        <ele>516.3652344</ele>
        <time>2011-12-04T04:05:17Z</time>
      </trkpt>
      <trkpt lat="45.6592" lon="4.65667">
        <ele>512.5200195</ele>
        <time>2011-12-04T04:05:23Z</time>
      </trkpt>
      <trkpt lat="45.65932" lon="4.6568">
        <ele>512.5200195</ele>
        <time>2011-12-04T04:05:29Z</time>
      </trkpt>
      <trkpt lat="45.65939" lon="4.65691">
        <ele>512.5200195</ele>
        <time>2011-12-04T04:05:33Z</time>
      </trkpt>
      <trkpt lat="45.65945" lon="4.65698">
        <ele>510.1166992</ele>
        <time>2011-12-04T04:05:37Z</time>
      </trkpt>
      <trkpt lat="45.65962" lon="4.6572">
        <ele>508.6746826</ele>
        <time>2011-12-04T04:05:46Z</time>
      </trkpt>
      <trkpt lat="45.65974" lon="4.65731">
        <ele>507.713501</ele>
        <time>2011-12-04T04:05:52Z</time>
      </trkpt>
      <trkpt lat="45.65988" lon="4.65742">
        <ele>508.1940918</ele>
        <time>2011-12-04T04:05:59Z</time>
      </trkpt>
      <trkpt lat="45.66" lon="4.65752">
        <ele>507.713501</ele>
        <time>2011-12-04T04:06:05Z</time>
      </trkpt>
      <trkpt lat="45.66009" lon="4.65763">
        <ele>509.6361084</ele>
        <time>2011-12-04T04:06:10Z</time>
      </trkpt>
      <trkpt lat="45.66021" lon="4.65779">
        <ele>512.0394287</ele>
        <time>2011-12-04T04:06:17Z</time>
      </trkpt>
      <trkpt lat="45.66031" lon="4.65796">
        <ele>513.4814453</ele>
        <time>2011-12-04T04:06:24Z</time>
      </trkpt>
      <trkpt lat="45.66042" lon="4.65813">
        <ele>514.442627</ele>
        <time>2011-12-04T04:06:31Z</time>
      </trkpt>
      <trkpt lat="45.66047" lon="4.65824">
        <ele>514.442627</ele>
        <time>2011-12-04T04:06:36Z</time>
      </trkpt>
      <trkpt lat="45.66052" lon="4.65836">
        <ele>508.1940918</ele>
        <time>2011-12-04T04:06:45Z</time>
      </trkpt>
      <trkpt lat="45.66059" lon="4.65854">
        <ele>508.1940918</ele>
        <time>2011-12-04T04:06:55Z</time>
      </trkpt>
      <trkpt lat="45.66066" lon="4.65873">
        <ele>511.0780029</ele>
        <time>2011-12-04T04:07:04Z</time>
      </trkpt>
      <trkpt lat="45.66074" lon="4.65891">
        <ele>516.3652344</ele>
        <time>2011-12-04T04:07:13Z</time>
      </trkpt>
      <trkpt lat="45.6608" lon="4.6591">
        <ele>520.2105713</ele>
        <time>2011-12-04T04:07:20Z</time>
      </trkpt>
      <trkpt lat="45.66088" lon="4.65927">
        <ele>518.7685547</ele>
        <time>2011-12-04T04:07:26Z</time>
      </trkpt>
      <trkpt lat="45.6609" lon="4.65932">
        <ele>517.807251</ele>
        <time>2011-12-04T04:07:28Z</time>
      </trkpt>
      <trkpt lat="45.66095" lon="4.65965">
        <ele>512.5200195</ele>
        <time>2011-12-04T04:07:38Z</time>
      </trkpt>
      <trkpt lat="45.66097" lon="4.65987">
        <ele>511.0780029</ele>
        <time>2011-12-04T04:07:45Z</time>
      </trkpt>
      <trkpt lat="45.66097" lon="4.66013">
        <ele>508.1940918</ele>
        <time>2011-12-04T04:07:53Z</time>
      </trkpt>
      <trkpt lat="45.66098" lon="4.66034">
        <ele>506.2714844</ele>
        <time>2011-12-04T04:07:59Z</time>
      </trkpt>
      <trkpt lat="45.66098" lon="4.66053">
        <ele>504.8294678</ele>
        <time>2011-12-04T04:08:05Z</time>
      </trkpt>
      <trkpt lat="45.66095" lon="4.66077">
        <ele>500.50354</ele>
        <time>2011-12-04T04:08:12Z</time>
      </trkpt>
      <trkpt lat="45.66096" lon="4.66098">
        <ele>498.1003418</ele>
        <time>2011-12-04T04:08:18Z</time>
      </trkpt>
      <trkpt lat="45.66098" lon="4.66119">
        <ele>497.138916</ele>
        <time>2011-12-04T04:08:24Z</time>
      </trkpt>
      <trkpt lat="45.66098" lon="4.66126">
        <ele>497.138916</ele>
        <time>2011-12-04T04:08:26Z</time>
      </trkpt>
      <trkpt lat="45.66101" lon="4.6614">
        <ele>497.6196289</ele>
        <time>2011-12-04T04:08:30Z</time>
      </trkpt>
      <trkpt lat="45.66101" lon="4.6617">
        <ele>498.1003418</ele>
        <time>2011-12-04T04:08:37Z</time>
      </trkpt>
      <trkpt lat="45.66095" lon="4.66187">
        <ele>496.1777344</ele>
        <time>2011-12-04T04:08:42Z</time>
      </trkpt>
      <trkpt lat="45.66082" lon="4.66208">
        <ele>492.8129883</ele>
        <time>2011-12-04T04:08:49Z</time>
      </trkpt>
      <trkpt lat="45.66073" lon="4.66227">
        <ele>490.40979</ele>
        <time>2011-12-04T04:08:55Z</time>
      </trkpt>
      <trkpt lat="45.6607" lon="4.66247">
        <ele>488.0064697</ele>
        <time>2011-12-04T04:09:00Z</time>
      </trkpt>
      <trkpt lat="45.6607" lon="4.66267">
        <ele>486.0837402</ele>
        <time>2011-12-04T04:09:05Z</time>
      </trkpt>
      <trkpt lat="45.6607" lon="4.66289">
        <ele>484.1611328</ele>
        <time>2011-12-04T04:09:11Z</time>
      </trkpt>
      <trkpt lat="45.6607" lon="4.66311">
        <ele>482.7192383</ele>
        <time>2011-12-04T04:09:17Z</time>
      </trkpt>
      <trkpt lat="45.6607" lon="4.66329">
        <ele>482.2385254</ele>
        <time>2011-12-04T04:09:22Z</time>
      </trkpt>
      <trkpt lat="45.6607" lon="4.66344">
        <ele>481.2772217</ele>
        <time>2011-12-04T04:09:26Z</time>
      </trkpt>
      <trkpt lat="45.66071" lon="4.66364">
        <ele>480.7966309</ele>
        <time>2011-12-04T04:09:31Z</time>
      </trkpt>
      <trkpt lat="45.66072" lon="4.66383">
        <ele>481.2772217</ele>
        <time>2011-12-04T04:09:36Z</time>
      </trkpt>
      <trkpt lat="45.66073" lon="4.66402">
        <ele>480.315918</ele>
        <time>2011-12-04T04:09:41Z</time>
      </trkpt>
      <trkpt lat="45.66076" lon="4.66425">
        <ele>479.3544922</ele>
        <time>2011-12-04T04:09:47Z</time>
      </trkpt>
      <trkpt lat="45.66078" lon="4.66444">
        <ele>478.8739014</ele>
        <time>2011-12-04T04:09:52Z</time>
      </trkpt>
      <trkpt lat="45.66082" lon="4.66466">
        <ele>477.4318848</ele>
        <time>2011-12-04T04:09:58Z</time>
      </trkpt>
      <trkpt lat="45.66083" lon="4.66484">
        <ele>476.4705811</ele>
        <time>2011-12-04T04:10:03Z</time>
      </trkpt>
      <trkpt lat="45.66084" lon="4.66505">
        <ele>476.9512939</ele>
        <time>2011-12-04T04:10:09Z</time>
      </trkpt>
      <trkpt lat="45.66086" lon="4.66525">
        <ele>476.4705811</ele>
        <time>2011-12-04T04:10:15Z</time>
      </trkpt>
      <trkpt lat="45.66086" lon="4.66545">
        <ele>474.0672607</ele>
        <time>2011-12-04T04:10:21Z</time>
      </trkpt>
      <trkpt lat="45.66091" lon="4.66562">
        <ele>472.1446533</ele>
        <time>2011-12-04T04:10:26Z</time>
      </trkpt>
      <trkpt lat="45.66097" lon="4.66575">
        <ele>470.2219238</ele>
        <time>2011-12-04T04:10:31Z</time>
      </trkpt>
      <trkpt lat="45.66107" lon="4.66585">
        <ele>468.2993164</ele>
        <time>2011-12-04T04:10:36Z</time>
      </trkpt>
      <trkpt lat="45.66115" lon="4.66592">
        <ele>465.4155273</ele>
        <time>2011-12-04T04:10:41Z</time>
      </trkpt>
      <trkpt lat="45.66127" lon="4.66607">
        <ele>462.0507813</ele>
        <time>2011-12-04T04:10:48Z</time>
      </trkpt>
      <trkpt lat="45.6614" lon="4.66619">
        <ele>459.647583</ele>
        <time>2011-12-04T04:10:54Z</time>
      </trkpt>
      <trkpt lat="45.66152" lon="4.66632">
        <ele>457.2442627</ele>
        <time>2011-12-04T04:11:00Z</time>
      </trkpt>
      <trkpt lat="45.66169" lon="4.66647">
        <ele>454.3602295</ele>
        <time>2011-12-04T04:11:07Z</time>
      </trkpt>
      <trkpt lat="45.66181" lon="4.66658">
        <ele>453.3989258</ele>
        <time>2011-12-04T04:11:12Z</time>
      </trkpt>
      <trkpt lat="45.66191" lon="4.66666">
        <ele>451.9570313</ele>
        <time>2011-12-04T04:11:16Z</time>
      </trkpt>
      <trkpt lat="45.66199" lon="4.66673">
        <ele>450.5150146</ele>
        <time>2011-12-04T04:11:20Z</time>
      </trkpt>
      <trkpt lat="45.66208" lon="4.66682">
        <ele>450.5150146</ele>
        <time>2011-12-04T04:11:24Z</time>
      </trkpt>
      <trkpt lat="45.66218" lon="4.66696">
        <ele>450.0344238</ele>
        <time>2011-12-04T04:11:29Z</time>
      </trkpt>
      <trkpt lat="45.6622" lon="4.667">
        <ele>449.5537109</ele>
        <time>2011-12-04T04:11:30Z</time>
      </trkpt>
      <trkpt lat="45.66227" lon="4.66713">
        <ele>447.1502686</ele>
        <time>2011-12-04T04:11:34Z</time>
      </trkpt>
      <trkpt lat="45.66243" lon="4.66734">
        <ele>445.708374</ele>
        <time>2011-12-04T04:11:42Z</time>
      </trkpt>
      <trkpt lat="45.66255" lon="4.66745">
        <ele>444.2664795</ele>
        <time>2011-12-04T04:11:47Z</time>
      </trkpt>
      <trkpt lat="45.66264" lon="4.66751">
        <ele>442.3438721</ele>
        <time>2011-12-04T04:11:51Z</time>
      </trkpt>
      <trkpt lat="45.66276" lon="4.6676">
        <ele>440.9018555</ele>
        <time>2011-12-04T04:11:56Z</time>
      </trkpt>
      <trkpt lat="45.6629" lon="4.66766">
        <ele>438.4985352</ele>
        <time>2011-12-04T04:12:01Z</time>
      </trkpt>
      <trkpt lat="45.66301" lon="4.66772">
        <ele>436.5759277</ele>
        <time>2011-12-04T04:12:05Z</time>
      </trkpt>
      <trkpt lat="45.66313" lon="4.66778">
        <ele>435.614502</ele>
        <time>2011-12-04T04:12:10Z</time>
      </trkpt>
      <trkpt lat="45.66333" lon="4.66783">
        <ele>432.7307129</ele>
        <time>2011-12-04T04:12:17Z</time>
      </trkpt>
      <trkpt lat="45.66343" lon="4.66785">
        <ele>433.6918945</ele>
        <time>2011-12-04T04:12:21Z</time>
      </trkpt>
      <trkpt lat="45.66357" lon="4.66788">
        <ele>434.1726074</ele>
        <time>2011-12-04T04:12:26Z</time>
      </trkpt>
      <trkpt lat="45.66373" lon="4.66791">
        <ele>434.6533203</ele>
        <time>2011-12-04T04:12:32Z</time>
      </trkpt>
      <trkpt lat="45.66389" lon="4.66795">
        <ele>433.6918945</ele>
        <time>2011-12-04T04:12:38Z</time>
      </trkpt>
      <trkpt lat="45.66406" lon="4.66798">
        <ele>432.7307129</ele>
        <time>2011-12-04T04:12:44Z</time>
      </trkpt>
      <trkpt lat="45.66422" lon="4.66802">
        <ele>433.6918945</ele>
        <time>2011-12-04T04:12:50Z</time>
      </trkpt>
      <trkpt lat="45.66438" lon="4.66806">
        <ele>434.1726074</ele>
        <time>2011-12-04T04:12:56Z</time>
      </trkpt>
      <trkpt lat="45.66454" lon="4.66809">
        <ele>432.25</ele>
        <time>2011-12-04T04:13:01Z</time>
      </trkpt>
      <trkpt lat="45.66465" lon="4.66813">
        <ele>430.8079834</ele>
        <time>2011-12-04T04:13:05Z</time>
      </trkpt>
      <trkpt lat="45.66476" lon="4.66815">
        <ele>429.3659668</ele>
        <time>2011-12-04T04:13:09Z</time>
      </trkpt>
      <trkpt lat="45.66488" lon="4.66818">
        <ele>427.9239502</ele>
        <time>2011-12-04T04:13:14Z</time>
      </trkpt>
      <trkpt lat="45.66504" lon="4.66821">
        <ele>426.4820557</ele>
        <time>2011-12-04T04:13:20Z</time>
      </trkpt>
      <trkpt lat="45.66517" lon="4.66825">
        <ele>426.4820557</ele>
        <time>2011-12-04T04:13:25Z</time>
      </trkpt>
      <trkpt lat="45.66529" lon="4.66828">
        <ele>426.4820557</ele>
        <time>2011-12-04T04:13:29Z</time>
      </trkpt>
      <trkpt lat="45.66542" lon="4.66832">
        <ele>427.4433594</ele>
        <time>2011-12-04T04:13:34Z</time>
      </trkpt>
      <trkpt lat="45.66557" lon="4.66836">
        <ele>426.4820557</ele>
        <time>2011-12-04T04:13:39Z</time>
      </trkpt>
      <trkpt lat="45.66572" lon="4.66846">
        <ele>426.4820557</ele>
        <time>2011-12-04T04:13:45Z</time>
      </trkpt>
      <trkpt lat="45.66582" lon="4.66853">
        <ele>426.9627686</ele>
        <time>2011-12-04T04:13:49Z</time>
      </trkpt>
      <trkpt lat="45.66594" lon="4.66865">
        <ele>427.4433594</ele>
        <time>2011-12-04T04:13:54Z</time>
      </trkpt>
      <trkpt lat="45.66602" lon="4.66872">
        <ele>426.9627686</ele>
        <time>2011-12-04T04:13:58Z</time>
      </trkpt>
      <trkpt lat="45.66611" lon="4.66881">
        <ele>426.0013428</ele>
        <time>2011-12-04T04:14:03Z</time>
      </trkpt>
      <trkpt lat="45.66618" lon="4.6689">
        <ele>426.9627686</ele>
        <time>2011-12-04T04:14:07Z</time>
      </trkpt>
      <trkpt lat="45.6663" lon="4.66901">
        <ele>425.520752</ele>
        <time>2011-12-04T04:14:12Z</time>
      </trkpt>
      <trkpt lat="45.66639" lon="4.66906">
        <ele>424.5594482</ele>
        <time>2011-12-04T04:14:17Z</time>
      </trkpt>
      <trkpt lat="45.66647" lon="4.66907">
        <ele>425.520752</ele>
        <time>2011-12-04T04:14:23Z</time>
      </trkpt>
      <trkpt lat="45.66653" lon="4.66907">
        <ele>428.4046631</ele>
        <time>2011-12-04T04:14:29Z</time>
      </trkpt>
      <trkpt lat="45.6666" lon="4.66905">
        <ele>430.8079834</ele>
        <time>2011-12-04T04:14:34Z</time>
      </trkpt>
      <trkpt lat="45.66668" lon="4.66895">
        <ele>437.5371094</ele>
        <time>2011-12-04T04:14:42Z</time>
      </trkpt>
      <trkpt lat="45.6667" lon="4.66891">
        <ele>440.4212646</ele>
        <time>2011-12-04T04:14:45Z</time>
      </trkpt>
      <trkpt lat="45.66676" lon="4.66879">
        <ele>444.2664795</ele>
        <time>2011-12-04T04:14:52Z</time>
      </trkpt>
      <trkpt lat="45.66685" lon="4.66866">
        <ele>444.7470703</ele>
        <time>2011-12-04T04:15:01Z</time>
      </trkpt>
      <trkpt lat="45.66686" lon="4.66865">
        <ele>446.1890869</ele>
        <time>2011-12-04T04:15:02Z</time>
      </trkpt>
      <trkpt lat="45.6669" lon="4.66861">
        <ele>447.1502686</ele>
        <time>2011-12-04T04:15:06Z</time>
      </trkpt>
      <trkpt lat="45.667" lon="4.66849">
        <ele>443.3050537</ele>
        <time>2011-12-04T04:15:14Z</time>
      </trkpt>
      <trkpt lat="45.66709" lon="4.66839">
        <ele>442.3438721</ele>
        <time>2011-12-04T04:15:21Z</time>
      </trkpt>
      <trkpt lat="45.66718" lon="4.66826">
        <ele>442.8244629</ele>
        <time>2011-12-04T04:15:28Z</time>
      </trkpt>
      <trkpt lat="45.66723" lon="4.66809">
        <ele>443.3050537</ele>
        <time>2011-12-04T04:15:33Z</time>
      </trkpt>
      <trkpt lat="45.66727" lon="4.66788">
        <ele>441.8631592</ele>
        <time>2011-12-04T04:15:38Z</time>
      </trkpt>
      <trkpt lat="45.66728" lon="4.66775">
        <ele>440.9018555</ele>
        <time>2011-12-04T04:15:41Z</time>
      </trkpt>
      <trkpt lat="45.66731" lon="4.66757">
        <ele>438.979126</ele>
        <time>2011-12-04T04:15:46Z</time>
      </trkpt>
      <trkpt lat="45.66732" lon="4.66752">
        <ele>439.4597168</ele>
        <time>2011-12-04T04:15:48Z</time>
      </trkpt>
      <trkpt lat="45.66737" lon="4.6675">
        <ele>437.5371094</ele>
        <time>2011-12-04T04:15:53Z</time>
      </trkpt>
      <trkpt lat="45.66739" lon="4.66751">
        <ele>438.0178223</ele>
        <time>2011-12-04T04:15:54Z</time>
      </trkpt>
      <trkpt lat="45.66749" lon="4.66761">
        <ele>438.0178223</ele>
        <time>2011-12-04T04:16:01Z</time>
      </trkpt>
      <trkpt lat="45.66758" lon="4.66774">
        <ele>434.6533203</ele>
        <time>2011-12-04T04:16:09Z</time>
      </trkpt>
      <trkpt lat="45.66765" lon="4.66784">
        <ele>430.8079834</ele>
        <time>2011-12-04T04:16:15Z</time>
      </trkpt>
      <trkpt lat="45.66768" lon="4.6679">
        <ele>429.3659668</ele>
        <time>2011-12-04T04:16:20Z</time>
      </trkpt>
      <trkpt lat="45.66775" lon="4.66801">
        <ele>428.885376</ele>
        <time>2011-12-04T04:16:26Z</time>
      </trkpt>
      <trkpt lat="45.66782" lon="4.66812">
        <ele>428.4046631</ele>
        <time>2011-12-04T04:16:31Z</time>
      </trkpt>
      <trkpt lat="45.66792" lon="4.66827">
        <ele>427.4433594</ele>
        <time>2011-12-04T04:16:37Z</time>
      </trkpt>
      <trkpt lat="45.668" lon="4.66838">
        <ele>427.4433594</ele>
        <time>2011-12-04T04:16:42Z</time>
      </trkpt>
      <trkpt lat="45.66805" lon="4.66844">
        <ele>428.885376</ele>
        <time>2011-12-04T04:16:45Z</time>
      </trkpt>
      <trkpt lat="45.66813" lon="4.66853">
        <ele>429.8465576</ele>
        <time>2011-12-04T04:16:51Z</time>
      </trkpt>
      <trkpt lat="45.66826" lon="4.66869">
        <ele>430.3272705</ele>
        <time>2011-12-04T04:16:58Z</time>
      </trkpt>
      <trkpt lat="45.66836" lon="4.66886">
        <ele>429.8465576</ele>
        <time>2011-12-04T04:17:05Z</time>
      </trkpt>
      <trkpt lat="45.66843" lon="4.66898">
        <ele>429.3659668</ele>
        <time>2011-12-04T04:17:10Z</time>
      </trkpt>
      <trkpt lat="45.66846" lon="4.66909">
        <ele>427.9239502</ele>
        <time>2011-12-04T04:17:15Z</time>
      </trkpt>
      <trkpt lat="45.66851" lon="4.66916">
        <ele>425.0401611</ele>
        <time>2011-12-04T04:17:19Z</time>
      </trkpt>
      <trkpt lat="45.66861" lon="4.66933">
        <ele>425.0401611</ele>
        <time>2011-12-04T04:17:26Z</time>
      </trkpt>
      <trkpt lat="45.66866" lon="4.66945">
        <ele>424.5594482</ele>
        <time>2011-12-04T04:17:30Z</time>
      </trkpt>
      <trkpt lat="45.66876" lon="4.66959">
        <ele>423.1174316</ele>
        <time>2011-12-04T04:17:36Z</time>
      </trkpt>
      <trkpt lat="45.66881" lon="4.6697">
        <ele>422.1560059</ele>
        <time>2011-12-04T04:17:40Z</time>
      </trkpt>
      <trkpt lat="45.66888" lon="4.66985">
        <ele>422.1560059</ele>
        <time>2011-12-04T04:17:45Z</time>
      </trkpt>
      <trkpt lat="45.66896" lon="4.66999">
        <ele>420.7141113</ele>
        <time>2011-12-04T04:17:50Z</time>
      </trkpt>
      <trkpt lat="45.669" lon="4.67008">
        <ele>421.1948242</ele>
        <time>2011-12-04T04:17:53Z</time>
      </trkpt>
      <trkpt lat="45.66909" lon="4.67026">
        <ele>419.7528076</ele>
        <time>2011-12-04T04:18:00Z</time>
      </trkpt>
      <trkpt lat="45.66914" lon="4.67037">
        <ele>418.7915039</ele>
        <time>2011-12-04T04:18:04Z</time>
      </trkpt>
      <trkpt lat="45.66922" lon="4.67055">
        <ele>418.7915039</ele>
        <time>2011-12-04T04:18:10Z</time>
      </trkpt>
      <trkpt lat="45.66926" lon="4.67061">
        <ele>418.7915039</ele>
        <time>2011-12-04T04:18:12Z</time>
      </trkpt>
      <trkpt lat="45.66935" lon="4.67084">
        <ele>419.2722168</ele>
        <time>2011-12-04T04:18:19Z</time>
      </trkpt>
      <trkpt lat="45.66939" lon="4.67102">
        <ele>417.3496094</ele>
        <time>2011-12-04T04:18:24Z</time>
      </trkpt>
      <trkpt lat="45.66946" lon="4.67113">
        <ele>416.3881836</ele>
        <time>2011-12-04T04:18:28Z</time>
      </trkpt>
      <trkpt lat="45.66956" lon="4.67123">
        <ele>412.5428467</ele>
        <time>2011-12-04T04:18:34Z</time>
      </trkpt>
      <trkpt lat="45.66966" lon="4.67128">
        <ele>411.1009521</ele>
        <time>2011-12-04T04:18:38Z</time>
      </trkpt>
      <trkpt lat="45.66974" lon="4.67149">
        <ele>411.1009521</ele>
        <time>2011-12-04T04:18:45Z</time>
      </trkpt>
      <trkpt lat="45.66981" lon="4.67169">
        <ele>411.1009521</ele>
        <time>2011-12-04T04:18:51Z</time>
      </trkpt>
      <trkpt lat="45.66987" lon="4.67189">
        <ele>410.1396484</ele>
        <time>2011-12-04T04:18:57Z</time>
      </trkpt>
      <trkpt lat="45.66993" lon="4.67209">
        <ele>410.6202393</ele>
        <time>2011-12-04T04:19:03Z</time>
      </trkpt>
      <trkpt lat="45.67002" lon="4.6723">
        <ele>413.0235596</ele>
        <time>2011-12-04T04:19:10Z</time>
      </trkpt>
      <trkpt lat="45.67007" lon="4.6724">
        <ele>413.9848633</ele>
        <time>2011-12-04T04:19:14Z</time>
      </trkpt>
      <trkpt lat="45.67019" lon="4.67257">
        <ele>416.3881836</ele>
        <time>2011-12-04T04:19:21Z</time>
      </trkpt>
      <trkpt lat="45.67028" lon="4.67274">
        <ele>418.310791</ele>
        <time>2011-12-04T04:19:28Z</time>
      </trkpt>
      <trkpt lat="45.67034" lon="4.67291">
        <ele>420.2333984</ele>
        <time>2011-12-04T04:19:34Z</time>
      </trkpt>
      <trkpt lat="45.67038" lon="4.67306">
        <ele>419.2722168</ele>
        <time>2011-12-04T04:19:39Z</time>
      </trkpt>
      <trkpt lat="45.67044" lon="4.67325">
        <ele>416.3881836</ele>
        <time>2011-12-04T04:19:45Z</time>
      </trkpt>
      <trkpt lat="45.67049" lon="4.67341">
        <ele>413.5042725</ele>
        <time>2011-12-04T04:19:50Z</time>
      </trkpt>
      <trkpt lat="45.67053" lon="4.67353">
        <ele>413.0235596</ele>
        <time>2011-12-04T04:19:54Z</time>
      </trkpt>
      <trkpt lat="45.6706" lon="4.67374">
        <ele>412.5428467</ele>
        <time>2011-12-04T04:20:00Z</time>
      </trkpt>
      <trkpt lat="45.67067" lon="4.67385">
        <ele>412.0622559</ele>
        <time>2011-12-04T04:20:04Z</time>
      </trkpt>
      <trkpt lat="45.67075" lon="4.674">
        <ele>411.581665</ele>
        <time>2011-12-04T04:20:09Z</time>
      </trkpt>
      <trkpt lat="45.67083" lon="4.67416">
        <ele>410.6202393</ele>
        <time>2011-12-04T04:20:14Z</time>
      </trkpt>
      <trkpt lat="45.67092" lon="4.67431">
        <ele>409.6590576</ele>
        <time>2011-12-04T04:20:19Z</time>
      </trkpt>
      <trkpt lat="45.67097" lon="4.67446">
        <ele>407.2556152</ele>
        <time>2011-12-04T04:20:24Z</time>
      </trkpt>
      <trkpt lat="45.67105" lon="4.67465">
        <ele>405.8137207</ele>
        <time>2011-12-04T04:20:30Z</time>
      </trkpt>
      <trkpt lat="45.67113" lon="4.67488">
        <ele>405.8137207</ele>
        <time>2011-12-04T04:20:37Z</time>
      </trkpt>
      <trkpt lat="45.67117" lon="4.67503">
        <ele>406.2943115</ele>
        <time>2011-12-04T04:20:41Z</time>
      </trkpt>
      <trkpt lat="45.67122" lon="4.67519">
        <ele>405.8137207</ele>
        <time>2011-12-04T04:20:46Z</time>
      </trkpt>
      <trkpt lat="45.67128" lon="4.67539">
        <ele>406.2943115</ele>
        <time>2011-12-04T04:20:52Z</time>
      </trkpt>
      <trkpt lat="45.67131" lon="4.67555">
        <ele>406.2943115</ele>
        <time>2011-12-04T04:20:57Z</time>
      </trkpt>
      <trkpt lat="45.67132" lon="4.6757">
        <ele>405.3330078</ele>
        <time>2011-12-04T04:21:02Z</time>
      </trkpt>
      <trkpt lat="45.67131" lon="4.67588">
        <ele>403.8911133</ele>
        <time>2011-12-04T04:21:08Z</time>
      </trkpt>
      <trkpt lat="45.67128" lon="4.67608">
        <ele>401.0070801</ele>
        <time>2011-12-04T04:21:14Z</time>
      </trkpt>
      <trkpt lat="45.67127" lon="4.67633">
        <ele>397.6424561</ele>
        <time>2011-12-04T04:21:22Z</time>
      </trkpt>
      <trkpt lat="45.6713" lon="4.67649">
        <ele>397.6424561</ele>
        <time>2011-12-04T04:21:28Z</time>
      </trkpt>
      <trkpt lat="45.67136" lon="4.67664">
        <ele>397.6424561</ele>
        <time>2011-12-04T04:21:33Z</time>
      </trkpt>
      <trkpt lat="45.67144" lon="4.67686">
        <ele>397.6424561</ele>
        <time>2011-12-04T04:21:40Z</time>
      </trkpt>
      <trkpt lat="45.67151" lon="4.67703">
        <ele>398.1231689</ele>
        <time>2011-12-04T04:21:45Z</time>
      </trkpt>
      <trkpt lat="45.67155" lon="4.67721">
        <ele>397.6424561</ele>
        <time>2011-12-04T04:21:50Z</time>
      </trkpt>
      <trkpt lat="45.67155" lon="4.67743">
        <ele>396.2005615</ele>
        <time>2011-12-04T04:21:56Z</time>
      </trkpt>
      <trkpt lat="45.67155" lon="4.67764">
        <ele>395.2391357</ele>
        <time>2011-12-04T04:22:02Z</time>
      </trkpt>
      <trkpt lat="45.67155" lon="4.67783">
        <ele>393.3165283</ele>
        <time>2011-12-04T04:22:07Z</time>
      </trkpt>
      <trkpt lat="45.67155" lon="4.67797">
        <ele>392.3553467</ele>
        <time>2011-12-04T04:22:11Z</time>
      </trkpt>
      <trkpt lat="45.67157" lon="4.67815">
        <ele>391.8745117</ele>
        <time>2011-12-04T04:22:16Z</time>
      </trkpt>
      <trkpt lat="45.67161" lon="4.67839">
        <ele>390.913208</ele>
        <time>2011-12-04T04:22:22Z</time>
      </trkpt>
      <trkpt lat="45.67164" lon="4.67861">
        <ele>389.4711914</ele>
        <time>2011-12-04T04:22:28Z</time>
      </trkpt>
      <trkpt lat="45.67166" lon="4.67879">
        <ele>388.9906006</ele>
        <time>2011-12-04T04:22:33Z</time>
      </trkpt>
      <trkpt lat="45.67174" lon="4.6791">
        <ele>388.9906006</ele>
        <time>2011-12-04T04:22:41Z</time>
      </trkpt>
      <trkpt lat="45.67179" lon="4.67924">
        <ele>389.4711914</ele>
        <time>2011-12-04T04:22:45Z</time>
      </trkpt>
      <trkpt lat="45.67183" lon="4.67942">
        <ele>389.4711914</ele>
        <time>2011-12-04T04:22:50Z</time>
      </trkpt>
      <trkpt lat="45.6719" lon="4.67968">
        <ele>389.9519043</ele>
        <time>2011-12-04T04:22:57Z</time>
      </trkpt>
      <trkpt lat="45.67193" lon="4.67986">
        <ele>388.9906006</ele>
        <time>2011-12-04T04:23:02Z</time>
      </trkpt>
      <trkpt lat="45.67199" lon="4.68008">
        <ele>389.4711914</ele>
        <time>2011-12-04T04:23:08Z</time>
      </trkpt>
      <trkpt lat="45.67208" lon="4.68029">
        <ele>389.9519043</ele>
        <time>2011-12-04T04:23:14Z</time>
      </trkpt>
      <trkpt lat="45.67217" lon="4.68054">
        <ele>390.4326172</ele>
        <time>2011-12-04T04:23:21Z</time>
      </trkpt>
      <trkpt lat="45.67225" lon="4.68071">
        <ele>389.4711914</ele>
        <time>2011-12-04T04:23:26Z</time>
      </trkpt>
      <trkpt lat="45.67231" lon="4.68091">
        <ele>387.0679932</ele>
        <time>2011-12-04T04:23:32Z</time>
      </trkpt>
      <trkpt lat="45.67227" lon="4.68111">
        <ele>383.7032471</ele>
        <time>2011-12-04T04:23:38Z</time>
      </trkpt>
      <trkpt lat="45.67221" lon="4.68126">
        <ele>380.819458</ele>
        <time>2011-12-04T04:23:43Z</time>
      </trkpt>
      <trkpt lat="45.67215" lon="4.68146">
        <ele>378.4161377</ele>
        <time>2011-12-04T04:23:49Z</time>
      </trkpt>
      <trkpt lat="45.67208" lon="4.68165">
        <ele>376.9742432</ele>
        <time>2011-12-04T04:23:55Z</time>
      </trkpt>
      <trkpt lat="45.67204" lon="4.68186">
        <ele>375.5321045</ele>
        <time>2011-12-04T04:24:01Z</time>
      </trkpt>
      <trkpt lat="45.67202" lon="4.68209">
        <ele>375.0515137</ele>
        <time>2011-12-04T04:24:08Z</time>
      </trkpt>
      <trkpt lat="45.67202" lon="4.68226">
        <ele>374.0900879</ele>
        <time>2011-12-04T04:24:13Z</time>
      </trkpt>
      <trkpt lat="45.67203" lon="4.68236">
        <ele>373.1289063</ele>
        <time>2011-12-04T04:24:16Z</time>
      </trkpt>
      <trkpt lat="45.67203" lon="4.68255">
        <ele>372.6481934</ele>
        <time>2011-12-04T04:24:22Z</time>
      </trkpt>
      <trkpt lat="45.67203" lon="4.68264">
        <ele>373.1289063</ele>
        <time>2011-12-04T04:24:24Z</time>
      </trkpt>
      <trkpt lat="45.67204" lon="4.68295">
        <ele>374.0900879</ele>
        <time>2011-12-04T04:24:32Z</time>
      </trkpt>
      <trkpt lat="45.67205" lon="4.68321">
        <ele>374.0900879</ele>
        <time>2011-12-04T04:24:39Z</time>
      </trkpt>
      <trkpt lat="45.67206" lon="4.68341">
        <ele>374.0900879</ele>
        <time>2011-12-04T04:24:44Z</time>
      </trkpt>
      <trkpt lat="45.67207" lon="4.68371">
        <ele>374.0900879</ele>
        <time>2011-12-04T04:24:52Z</time>
      </trkpt>
      <trkpt lat="45.67209" lon="4.68392">
        <ele>375.0515137</ele>
        <time>2011-12-04T04:24:58Z</time>
      </trkpt>
      <trkpt lat="45.67207" lon="4.68419">
        <ele>374.5708008</ele>
        <time>2011-12-04T04:25:05Z</time>
      </trkpt>
      <trkpt lat="45.67205" lon="4.68436">
        <ele>372.1674805</ele>
        <time>2011-12-04T04:25:10Z</time>
      </trkpt>
      <trkpt lat="45.67205" lon="4.68439">
        <ele>371.6868896</ele>
        <time>2011-12-04T04:25:11Z</time>
      </trkpt>
      <trkpt lat="45.6721" lon="4.68452">
        <ele>371.6868896</ele>
        <time>2011-12-04T04:25:16Z</time>
      </trkpt>
      <trkpt lat="45.67215" lon="4.68457">
        <ele>372.6481934</ele>
        <time>2011-12-04T04:25:18Z</time>
      </trkpt>
      <trkpt lat="45.67228" lon="4.68471">
        <ele>374.5708008</ele>
        <time>2011-12-04T04:25:24Z</time>
      </trkpt>
      <trkpt lat="45.67236" lon="4.68484">
        <ele>375.5321045</ele>
        <time>2011-12-04T04:25:29Z</time>
      </trkpt>
      <trkpt lat="45.67246" lon="4.68498">
        <ele>376.0128174</ele>
        <time>2011-12-04T04:25:34Z</time>
      </trkpt>
      <trkpt lat="45.67255" lon="4.68508">
        <ele>376.0128174</ele>
        <time>2011-12-04T04:25:38Z</time>
      </trkpt>
      <trkpt lat="45.67266" lon="4.68518">
        <ele>375.5321045</ele>
        <time>2011-12-04T04:25:44Z</time>
      </trkpt>
      <trkpt lat="45.67281" lon="4.68526">
        <ele>375.0515137</ele>
        <time>2011-12-04T04:25:50Z</time>
      </trkpt>
      <trkpt lat="45.67292" lon="4.68533">
        <ele>374.5708008</ele>
        <time>2011-12-04T04:25:55Z</time>
      </trkpt>
      <trkpt lat="45.67306" lon="4.68543">
        <ele>373.6094971</ele>
        <time>2011-12-04T04:26:01Z</time>
      </trkpt>
      <trkpt lat="45.67317" lon="4.68557">
        <ele>374.0900879</ele>
        <time>2011-12-04T04:26:06Z</time>
      </trkpt>
      <trkpt lat="45.67322" lon="4.68562">
        <ele>374.5708008</ele>
        <time>2011-12-04T04:26:08Z</time>
      </trkpt>
      <trkpt lat="45.67331" lon="4.68578">
        <ele>374.5708008</ele>
        <time>2011-12-04T04:26:13Z</time>
      </trkpt>
      <trkpt lat="45.67339" lon="4.68596">
        <ele>374.5708008</ele>
        <time>2011-12-04T04:26:19Z</time>
      </trkpt>
      <trkpt lat="45.67348" lon="4.68621">
        <ele>373.1289063</ele>
        <time>2011-12-04T04:26:27Z</time>
      </trkpt>
      <trkpt lat="45.67356" lon="4.68636">
        <ele>375.5321045</ele>
        <time>2011-12-04T04:26:32Z</time>
      </trkpt>
      <trkpt lat="45.67364" lon="4.68657">
        <ele>375.0515137</ele>
        <time>2011-12-04T04:26:39Z</time>
      </trkpt>
      <trkpt lat="45.67366" lon="4.68664">
        <ele>375.0515137</ele>
        <time>2011-12-04T04:26:41Z</time>
      </trkpt>
      <trkpt lat="45.67372" lon="4.68676">
        <ele>374.0900879</ele>
        <time>2011-12-04T04:26:45Z</time>
      </trkpt>
      <trkpt lat="45.67383" lon="4.68704">
        <ele>374.0900879</ele>
        <time>2011-12-04T04:26:54Z</time>
      </trkpt>
      <trkpt lat="45.6739" lon="4.68721">
        <ele>374.5708008</ele>
        <time>2011-12-04T04:26:59Z</time>
      </trkpt>
      <trkpt lat="45.67397" lon="4.6874">
        <ele>376.0128174</ele>
        <time>2011-12-04T04:27:05Z</time>
      </trkpt>
      <trkpt lat="45.67407" lon="4.68763">
        <ele>377.454834</ele>
        <time>2011-12-04T04:27:12Z</time>
      </trkpt>
      <trkpt lat="45.67413" lon="4.6878">
        <ele>378.4161377</ele>
        <time>2011-12-04T04:27:17Z</time>
      </trkpt>
      <trkpt lat="45.67418" lon="4.68792">
        <ele>379.3774414</ele>
        <time>2011-12-04T04:27:21Z</time>
      </trkpt>
      <trkpt lat="45.67424" lon="4.68806">
        <ele>378.8968506</ele>
        <time>2011-12-04T04:27:26Z</time>
      </trkpt>
      <trkpt lat="45.67429" lon="4.68826">
        <ele>377.9354248</ele>
        <time>2011-12-04T04:27:32Z</time>
      </trkpt>
      <trkpt lat="45.67431" lon="4.68848">
        <ele>376.4935303</ele>
        <time>2011-12-04T04:27:39Z</time>
      </trkpt>
      <trkpt lat="45.67433" lon="4.6887">
        <ele>374.5708008</ele>
        <time>2011-12-04T04:27:46Z</time>
      </trkpt>
      <trkpt lat="45.67434" lon="4.68876">
        <ele>374.5708008</ele>
        <time>2011-12-04T04:27:48Z</time>
      </trkpt>
      <trkpt lat="45.67437" lon="4.68889">
        <ele>374.0900879</ele>
        <time>2011-12-04T04:27:52Z</time>
      </trkpt>
      <trkpt lat="45.67442" lon="4.68914">
        <ele>375.0515137</ele>
        <time>2011-12-04T04:27:59Z</time>
      </trkpt>
      <trkpt lat="45.67445" lon="4.68932">
        <ele>375.5321045</ele>
        <time>2011-12-04T04:28:04Z</time>
      </trkpt>
      <trkpt lat="45.6745" lon="4.68949">
        <ele>376.9742432</ele>
        <time>2011-12-04T04:28:09Z</time>
      </trkpt>
      <trkpt lat="45.67455" lon="4.68969">
        <ele>377.9354248</ele>
        <time>2011-12-04T04:28:15Z</time>
      </trkpt>
      <trkpt lat="45.6746" lon="4.6899">
        <ele>377.9354248</ele>
        <time>2011-12-04T04:28:21Z</time>
      </trkpt>
      <trkpt lat="45.67467" lon="4.6901">
        <ele>377.9354248</ele>
        <time>2011-12-04T04:28:27Z</time>
      </trkpt>
      <trkpt lat="45.67477" lon="4.69027">
        <ele>379.3774414</ele>
        <time>2011-12-04T04:28:33Z</time>
      </trkpt>
      <trkpt lat="45.67486" lon="4.69038">
        <ele>379.8580322</ele>
        <time>2011-12-04T04:28:37Z</time>
      </trkpt>
      <trkpt lat="45.67495" lon="4.69053">
        <ele>380.3387451</ele>
        <time>2011-12-04T04:28:43Z</time>
      </trkpt>
      <trkpt lat="45.67511" lon="4.69067">
        <ele>379.8580322</ele>
        <time>2011-12-04T04:28:50Z</time>
      </trkpt>
      <trkpt lat="45.67519" lon="4.69075">
        <ele>379.8580322</ele>
        <time>2011-12-04T04:28:54Z</time>
      </trkpt>
      <trkpt lat="45.67532" lon="4.69088">
        <ele>378.4161377</ele>
        <time>2011-12-04T04:29:00Z</time>
      </trkpt>
      <trkpt lat="45.67541" lon="4.69098">
        <ele>377.454834</ele>
        <time>2011-12-04T04:29:05Z</time>
      </trkpt>
      <trkpt lat="45.6755" lon="4.69109">
        <ele>377.9354248</ele>
        <time>2011-12-04T04:29:10Z</time>
      </trkpt>
      <trkpt lat="45.67561" lon="4.6912">
        <ele>376.4935303</ele>
        <time>2011-12-04T04:29:15Z</time>
      </trkpt>
      <trkpt lat="45.67575" lon="4.69133">
        <ele>374.5708008</ele>
        <time>2011-12-04T04:29:21Z</time>
      </trkpt>
      <trkpt lat="45.67588" lon="4.69142">
        <ele>373.1289063</ele>
        <time>2011-12-04T04:29:26Z</time>
      </trkpt>
      <trkpt lat="45.67602" lon="4.69151">
        <ele>370.7255859</ele>
        <time>2011-12-04T04:29:32Z</time>
      </trkpt>
      <trkpt lat="45.6761" lon="4.69156">
        <ele>369.2836914</ele>
        <time>2011-12-04T04:29:36Z</time>
      </trkpt>
      <trkpt lat="45.67622" lon="4.69163">
        <ele>367.3609619</ele>
        <time>2011-12-04T04:29:41Z</time>
      </trkpt>
      <trkpt lat="45.67634" lon="4.69169">
        <ele>366.880249</ele>
        <time>2011-12-04T04:29:46Z</time>
      </trkpt>
      <trkpt lat="45.67644" lon="4.69174">
        <ele>366.880249</ele>
        <time>2011-12-04T04:29:50Z</time>
      </trkpt>
      <trkpt lat="45.67656" lon="4.69181">
        <ele>367.3609619</ele>
        <time>2011-12-04T04:29:55Z</time>
      </trkpt>
      <trkpt lat="45.67669" lon="4.69193">
        <ele>367.3609619</ele>
        <time>2011-12-04T04:30:01Z</time>
      </trkpt>
      <trkpt lat="45.67681" lon="4.69203">
        <ele>367.3609619</ele>
        <time>2011-12-04T04:30:06Z</time>
      </trkpt>
      <trkpt lat="45.67694" lon="4.69215">
        <ele>366.880249</ele>
        <time>2011-12-04T04:30:11Z</time>
      </trkpt>
      <trkpt lat="45.67705" lon="4.69228">
        <ele>366.880249</ele>
        <time>2011-12-04T04:30:16Z</time>
      </trkpt>
      <trkpt lat="45.67716" lon="4.6924">
        <ele>365.9189453</ele>
        <time>2011-12-04T04:30:21Z</time>
      </trkpt>
      <trkpt lat="45.67726" lon="4.69258">
        <ele>364.4769287</ele>
        <time>2011-12-04T04:30:27Z</time>
      </trkpt>
      <trkpt lat="45.67737" lon="4.69276">
        <ele>362.5543213</ele>
        <time>2011-12-04T04:30:33Z</time>
      </trkpt>
      <trkpt lat="45.67743" lon="4.69292">
        <ele>361.5931396</ele>
        <time>2011-12-04T04:30:38Z</time>
      </trkpt>
      <trkpt lat="45.67743" lon="4.69311">
        <ele>361.5931396</ele>
        <time>2011-12-04T04:30:43Z</time>
      </trkpt>
      <trkpt lat="45.67745" lon="4.69321">
        <ele>362.0737305</ele>
        <time>2011-12-04T04:30:46Z</time>
      </trkpt>
      <trkpt lat="45.67755" lon="4.69331">
        <ele>363.0350342</ele>
        <time>2011-12-04T04:30:51Z</time>
      </trkpt>
      <trkpt lat="45.67768" lon="4.69345">
        <ele>363.0350342</ele>
        <time>2011-12-04T04:30:57Z</time>
      </trkpt>
      <trkpt lat="45.67776" lon="4.69361">
        <ele>363.5157471</ele>
        <time>2011-12-04T04:31:03Z</time>
      </trkpt>
      <trkpt lat="45.6778" lon="4.69377">
        <ele>363.9963379</ele>
        <time>2011-12-04T04:31:08Z</time>
      </trkpt>
      <trkpt lat="45.67783" lon="4.69401">
        <ele>363.9963379</ele>
        <time>2011-12-04T04:31:15Z</time>
      </trkpt>
      <trkpt lat="45.67784" lon="4.69423">
        <ele>363.5157471</ele>
        <time>2011-12-04T04:31:21Z</time>
      </trkpt>
      <trkpt lat="45.67784" lon="4.69444">
        <ele>362.0737305</ele>
        <time>2011-12-04T04:31:27Z</time>
      </trkpt>
      <trkpt lat="45.67786" lon="4.69461">
        <ele>361.5931396</ele>
        <time>2011-12-04T04:31:32Z</time>
      </trkpt>
      <trkpt lat="45.67787" lon="4.69464">
        <ele>361.5931396</ele>
        <time>2011-12-04T04:31:33Z</time>
      </trkpt>
      <trkpt lat="45.67788" lon="4.69482">
        <ele>360.151123</ele>
        <time>2011-12-04T04:31:38Z</time>
      </trkpt>
      <trkpt lat="45.67789" lon="4.69493">
        <ele>360.151123</ele>
        <time>2011-12-04T04:31:41Z</time>
      </trkpt>
      <trkpt lat="45.67792" lon="4.69514">
        <ele>358.2283936</ele>
        <time>2011-12-04T04:31:47Z</time>
      </trkpt>
      <trkpt lat="45.67792" lon="4.69518">
        <ele>357.7478027</ele>
        <time>2011-12-04T04:31:48Z</time>
      </trkpt>
      <trkpt lat="45.67791" lon="4.69528">
        <ele>356.786377</ele>
        <time>2011-12-04T04:31:51Z</time>
      </trkpt>
      <trkpt lat="45.6778" lon="4.69533">
        <ele>355.3444824</ele>
        <time>2011-12-04T04:31:56Z</time>
      </trkpt>
      <trkpt lat="45.67766" lon="4.69531">
        <ele>356.786377</ele>
        <time>2011-12-04T04:32:02Z</time>
      </trkpt>
      <trkpt lat="45.67753" lon="4.69541">
        <ele>358.2283936</ele>
        <time>2011-12-04T04:32:08Z</time>
      </trkpt>
      <trkpt lat="45.67741" lon="4.69552">
        <ele>358.7089844</ele>
        <time>2011-12-04T04:32:13Z</time>
      </trkpt>
      <trkpt lat="45.67732" lon="4.69562">
        <ele>359.6704102</ele>
        <time>2011-12-04T04:32:18Z</time>
      </trkpt>
      <trkpt lat="45.67733" lon="4.69574">
        <ele>360.6317139</ele>
        <time>2011-12-04T04:32:22Z</time>
      </trkpt>
      <trkpt lat="45.67735" lon="4.6958">
        <ele>361.5931396</ele>
        <time>2011-12-04T04:32:24Z</time>
      </trkpt>
      <trkpt lat="45.67741" lon="4.69593">
        <ele>363.9963379</ele>
        <time>2011-12-04T04:32:30Z</time>
      </trkpt>
      <trkpt lat="45.67743" lon="4.69596">
        <ele>362.0737305</ele>
        <time>2011-12-04T04:32:36Z</time>
      </trkpt>
      <trkpt lat="45.67747" lon="4.69591">
        <ele>361.1124268</ele>
        <time>2011-12-04T04:32:43Z</time>
      </trkpt>
      <trkpt lat="45.67751" lon="4.69586">
        <ele>357.2670898</ele>
        <time>2011-12-04T04:32:50Z</time>
      </trkpt>
      <trkpt lat="45.67753" lon="4.69585">
        <ele>355.3444824</ele>
        <time>2011-12-04T04:32:58Z</time>
      </trkpt>
      <trkpt lat="45.67757" lon="4.69585">
        <ele>360.151123</ele>
        <time>2011-12-04T04:33:14Z</time>
      </trkpt>
      <trkpt lat="45.67759" lon="4.6958">
        <ele>365.9189453</ele>
        <time>2011-12-04T04:33:50Z</time>
      </trkpt>
      <trkpt lat="45.67758" lon="4.69577">
        <ele>362.5543213</ele>
        <time>2011-12-04T04:34:06Z</time>
      </trkpt>
      <trkpt lat="45.6776" lon="4.69573">
        <ele>355.8251953</ele>
        <time>2011-12-04T04:34:15Z</time>
      </trkpt>
      <trkpt lat="45.67765" lon="4.69571">
        <ele>356.786377</ele>
        <time>2011-12-04T04:34:29Z</time>
      </trkpt>
      <trkpt lat="45.67765" lon="4.69569">
        <ele>351.4991455</ele>
        <time>2011-12-04T04:34:41Z</time>
      </trkpt>
      <trkpt lat="45.67765" lon="4.69567">
        <ele>348.6152344</ele>
        <time>2011-12-04T04:34:54Z</time>
      </trkpt>
      <trkpt lat="45.67765" lon="4.69566">
        <ele>349.5765381</ele>
        <time>2011-12-04T04:35:02Z</time>
      </trkpt>
      <trkpt lat="45.67766" lon="4.69566">
        <ele>354.8637695</ele>
        <time>2011-12-04T04:35:11Z</time>
      </trkpt>
      <trkpt lat="45.67772" lon="4.69568">
        <ele>365.4383545</ele>
        <time>2011-12-04T04:35:23Z</time>
      </trkpt>
      <trkpt lat="45.67774" lon="4.69572">
        <ele>373.1289063</ele>
        <time>2011-12-04T04:35:30Z</time>
      </trkpt>
      <trkpt lat="45.67775" lon="4.69572">
        <ele>371.2062988</ele>
        <time>2011-12-04T04:35:37Z</time>
      </trkpt>
      <trkpt lat="45.67776" lon="4.69577">
        <ele>370.7255859</ele>
        <time>2011-12-04T04:35:46Z</time>
      </trkpt>
      <trkpt lat="45.6778" lon="4.69576">
        <ele>375.5321045</ele>
        <time>2011-12-04T04:35:53Z</time>
      </trkpt>
      <trkpt lat="45.6778" lon="4.6957">
        <ele>373.6094971</ele>
        <time>2011-12-04T04:35:58Z</time>
      </trkpt>
      <trkpt lat="45.67776" lon="4.6957">
        <ele>365.9189453</ele>
        <time>2011-12-04T04:36:08Z</time>
      </trkpt>
      <trkpt lat="45.67771" lon="4.69578">
        <ele>365.4383545</ele>
        <time>2011-12-04T04:36:22Z</time>
      </trkpt>
      <trkpt lat="45.67771" lon="4.69577">
        <ele>362.0737305</ele>
        <time>2011-12-04T04:36:28Z</time>
      </trkpt>
      <trkpt lat="45.67771" lon="4.69574">
        <ele>361.1124268</ele>
        <time>2011-12-04T04:36:37Z</time>
      </trkpt>
      <trkpt lat="45.67773" lon="4.69575">
        <ele>363.5157471</ele>
        <time>2011-12-04T04:36:49Z</time>
      </trkpt>
      <trkpt lat="45.67779" lon="4.69571">
        <ele>371.6868896</ele>
        <time>2011-12-04T04:37:11Z</time>
      </trkpt>
      <trkpt lat="45.67776" lon="4.69571">
        <ele>368.3222656</ele>
        <time>2011-12-04T04:37:16Z</time>
      </trkpt>
      <trkpt lat="45.67775" lon="4.69574">
        <ele>368.8029785</ele>
        <time>2011-12-04T04:37:25Z</time>
      </trkpt>
      <trkpt lat="45.67773" lon="4.6957">
        <ele>360.151123</ele>
        <time>2011-12-04T04:37:48Z</time>
      </trkpt>
      <trkpt lat="45.67773" lon="4.69566">
        <ele>351.9798584</ele>
        <time>2011-12-04T04:38:05Z</time>
      </trkpt>
      <trkpt lat="45.67775" lon="4.69565">
        <ele>354.3831787</ele>
        <time>2011-12-04T04:38:15Z</time>
      </trkpt>
      <trkpt lat="45.67781" lon="4.69563">
        <ele>363.5157471</ele>
        <time>2011-12-04T04:38:22Z</time>
      </trkpt>
      <trkpt lat="45.67779" lon="4.69561">
        <ele>368.8029785</ele>
        <time>2011-12-04T04:38:39Z</time>
      </trkpt>
      <trkpt lat="45.67778" lon="4.69558">
        <ele>372.1674805</ele>
        <time>2011-12-04T04:38:53Z</time>
      </trkpt>
      <trkpt lat="45.67784" lon="4.69555">
        <ele>369.7642822</ele>
        <time>2011-12-04T04:39:08Z</time>
      </trkpt>
      <trkpt lat="45.67779" lon="4.69554">
        <ele>362.5543213</ele>
        <time>2011-12-04T04:39:23Z</time>
      </trkpt>
      <trkpt lat="45.67779" lon="4.69555">
        <ele>366.3995361</ele>
        <time>2011-12-04T04:39:32Z</time>
      </trkpt>
      <trkpt lat="45.67783" lon="4.69554">
        <ele>375.5321045</ele>
        <time>2011-12-04T04:39:48Z</time>
      </trkpt>
      <trkpt lat="45.67784" lon="4.69556">
        <ele>377.9354248</ele>
        <time>2011-12-04T04:39:54Z</time>
      </trkpt>
      <trkpt lat="45.67782" lon="4.69553">
        <ele>386.1066895</ele>
        <time>2011-12-04T04:41:16Z</time>
      </trkpt>
      <trkpt lat="45.67779" lon="4.69553">
        <ele>379.3774414</ele>
        <time>2011-12-04T04:41:25Z</time>
      </trkpt>
      <trkpt lat="45.67782" lon="4.6956">
        <ele>372.6481934</ele>
        <time>2011-12-04T04:41:58Z</time>
      </trkpt>
      <trkpt lat="45.67779" lon="4.69558">
        <ele>369.2836914</ele>
        <time>2011-12-04T04:42:10Z</time>
      </trkpt>
      <trkpt lat="45.67784" lon="4.69555">
        <ele>376.4935303</ele>
        <time>2011-12-04T04:42:31Z</time>
      </trkpt>
      <trkpt lat="45.67788" lon="4.69563">
        <ele>374.5708008</ele>
        <time>2011-12-04T04:42:37Z</time>
      </trkpt>
      <trkpt lat="45.67791" lon="4.6957">
        <ele>373.1289063</ele>
        <time>2011-12-04T04:42:42Z</time>
      </trkpt>
      <trkpt lat="45.67792" lon="4.69572">
        <ele>374.0900879</ele>
        <time>2011-12-04T04:42:44Z</time>
      </trkpt>
      <trkpt lat="45.67796" lon="4.6958">
        <ele>372.6481934</ele>
        <time>2011-12-04T04:42:52Z</time>
      </trkpt>
      <trkpt lat="45.67797" lon="4.69583">
        <ele>372.1674805</ele>
        <time>2011-12-04T04:42:59Z</time>
      </trkpt>
      <trkpt lat="45.67799" lon="4.69587">
        <ele>369.7642822</ele>
        <time>2011-12-04T04:43:06Z</time>
      </trkpt>
      <trkpt lat="45.67802" lon="4.69592">
        <ele>369.7642822</ele>
        <time>2011-12-04T04:43:14Z</time>
      </trkpt>
      <trkpt lat="45.67806" lon="4.69596">
        <ele>369.2836914</ele>
        <time>2011-12-04T04:43:21Z</time>
      </trkpt>
      <trkpt lat="45.6781" lon="4.69601">
        <ele>369.7642822</ele>
        <time>2011-12-04T04:43:27Z</time>
      </trkpt>
      <trkpt lat="45.67813" lon="4.69608">
        <ele>368.3222656</ele>
        <time>2011-12-04T04:43:32Z</time>
      </trkpt>
      <trkpt lat="45.67818" lon="4.69619">
        <ele>366.3995361</ele>
        <time>2011-12-04T04:43:39Z</time>
      </trkpt>
      <trkpt lat="45.67822" lon="4.69635">
        <ele>363.9963379</ele>
        <time>2011-12-04T04:43:46Z</time>
      </trkpt>
      <trkpt lat="45.67824" lon="4.69643">
        <ele>363.0350342</ele>
        <time>2011-12-04T04:43:49Z</time>
      </trkpt>
      <trkpt lat="45.67828" lon="4.69655">
        <ele>363.0350342</ele>
        <time>2011-12-04T04:43:53Z</time>
      </trkpt>
      <trkpt lat="45.67834" lon="4.69681">
        <ele>361.5931396</ele>
        <time>2011-12-04T04:44:01Z</time>
      </trkpt>
      <trkpt lat="45.67837" lon="4.69704">
        <ele>360.6317139</ele>
        <time>2011-12-04T04:44:08Z</time>
      </trkpt>
      <trkpt lat="45.6784" lon="4.69725">
        <ele>361.5931396</ele>
        <time>2011-12-04T04:44:14Z</time>
      </trkpt>
      <trkpt lat="45.67841" lon="4.69749">
        <ele>360.6317139</ele>
        <time>2011-12-04T04:44:20Z</time>
      </trkpt>
      <trkpt lat="45.67842" lon="4.69777">
        <ele>360.151123</ele>
        <time>2011-12-04T04:44:27Z</time>
      </trkpt>
      <trkpt lat="45.67842" lon="4.69802">
        <ele>357.7478027</ele>
        <time>2011-12-04T04:44:34Z</time>
      </trkpt>
      <trkpt lat="45.67843" lon="4.69823">
        <ele>353.9025879</ele>
        <time>2011-12-04T04:44:40Z</time>
      </trkpt>
      <trkpt lat="45.67843" lon="4.69841">
        <ele>353.421875</ele>
        <time>2011-12-04T04:44:45Z</time>
      </trkpt>
      <trkpt lat="45.67844" lon="4.69862">
        <ele>352.9411621</ele>
        <time>2011-12-04T04:44:50Z</time>
      </trkpt>
      <trkpt lat="45.67844" lon="4.69877">
        <ele>352.9411621</ele>
        <time>2011-12-04T04:44:54Z</time>
      </trkpt>
      <trkpt lat="45.67846" lon="4.69901">
        <ele>350.5378418</ele>
        <time>2011-12-04T04:45:01Z</time>
      </trkpt>
      <trkpt lat="45.67849" lon="4.6992">
        <ele>350.057251</ele>
        <time>2011-12-04T04:45:06Z</time>
      </trkpt>
      <trkpt lat="45.67852" lon="4.69934">
        <ele>349.0958252</ele>
        <time>2011-12-04T04:45:10Z</time>
      </trkpt>
      <trkpt lat="45.67857" lon="4.69955">
        <ele>348.1346436</ele>
        <time>2011-12-04T04:45:16Z</time>
      </trkpt>
      <trkpt lat="45.67864" lon="4.69975">
        <ele>347.1732178</ele>
        <time>2011-12-04T04:45:22Z</time>
      </trkpt>
      <trkpt lat="45.67869" lon="4.69996">
        <ele>344.7700195</ele>
        <time>2011-12-04T04:45:28Z</time>
      </trkpt>
      <trkpt lat="45.67871" lon="4.70001">
        <ele>344.2894287</ele>
        <time>2011-12-04T04:45:30Z</time>
      </trkpt>
      <trkpt lat="45.67876" lon="4.70008">
        <ele>343.8085938</ele>
        <time>2011-12-04T04:45:33Z</time>
      </trkpt>
      <trkpt lat="45.67889" lon="4.70014">
        <ele>344.2894287</ele>
        <time>2011-12-04T04:45:40Z</time>
      </trkpt>
      <trkpt lat="45.67901" lon="4.70017">
        <ele>345.2506104</ele>
        <time>2011-12-04T04:45:45Z</time>
      </trkpt>
      <trkpt lat="45.67914" lon="4.7002">
        <ele>347.6539307</ele>
        <time>2011-12-04T04:45:51Z</time>
      </trkpt>
      <trkpt lat="45.67929" lon="4.70024">
        <ele>350.5378418</ele>
        <time>2011-12-04T04:45:58Z</time>
      </trkpt>
      <trkpt lat="45.67943" lon="4.70027">
        <ele>351.4991455</ele>
        <time>2011-12-04T04:46:04Z</time>
      </trkpt>
      <trkpt lat="45.67956" lon="4.70027">
        <ele>352.4605713</ele>
        <time>2011-12-04T04:46:10Z</time>
      </trkpt>
      <trkpt lat="45.67963" lon="4.70016">
        <ele>353.421875</ele>
        <time>2011-12-04T04:46:15Z</time>
      </trkpt>
      <trkpt lat="45.67967" lon="4.70001">
        <ele>354.8637695</ele>
        <time>2011-12-04T04:46:20Z</time>
      </trkpt>
      <trkpt lat="45.67971" lon="4.69987">
        <ele>354.8637695</ele>
        <time>2011-12-04T04:46:26Z</time>
      </trkpt>
      <trkpt lat="45.67974" lon="4.69968">
        <ele>355.3444824</ele>
        <time>2011-12-04T04:46:35Z</time>
      </trkpt>
      <trkpt lat="45.67977" lon="4.69952">
        <ele>357.2670898</ele>
        <time>2011-12-04T04:46:43Z</time>
      </trkpt>
      <trkpt lat="45.67981" lon="4.69936">
        <ele>361.5931396</ele>
        <time>2011-12-04T04:46:50Z</time>
      </trkpt>
      <trkpt lat="45.67986" lon="4.69918">
        <ele>365.9189453</ele>
        <time>2011-12-04T04:46:58Z</time>
      </trkpt>
      <trkpt lat="45.67993" lon="4.69897">
        <ele>365.9189453</ele>
        <time>2011-12-04T04:47:08Z</time>
      </trkpt>
      <trkpt lat="45.67999" lon="4.69882">
        <ele>365.9189453</ele>
        <time>2011-12-04T04:47:13Z</time>
      </trkpt>
      <trkpt lat="45.68003" lon="4.69868">
        <ele>366.3995361</ele>
        <time>2011-12-04T04:47:18Z</time>
      </trkpt>
      <trkpt lat="45.68008" lon="4.69854">
        <ele>366.880249</ele>
        <time>2011-12-04T04:47:23Z</time>
      </trkpt>
      <trkpt lat="45.68017" lon="4.69835">
        <ele>366.3995361</ele>
        <time>2011-12-04T04:47:29Z</time>
      </trkpt>
      <trkpt lat="45.68024" lon="4.69819">
        <ele>366.3995361</ele>
        <time>2011-12-04T04:47:34Z</time>
      </trkpt>
      <trkpt lat="45.68032" lon="4.69802">
        <ele>366.3995361</ele>
        <time>2011-12-04T04:47:40Z</time>
      </trkpt>
      <trkpt lat="45.68041" lon="4.69786">
        <ele>367.3609619</ele>
        <time>2011-12-04T04:47:46Z</time>
      </trkpt>
      <trkpt lat="45.68051" lon="4.69771">
        <ele>366.880249</ele>
        <time>2011-12-04T04:47:52Z</time>
      </trkpt>
      <trkpt lat="45.6806" lon="4.69751">
        <ele>366.880249</ele>
        <time>2011-12-04T04:47:59Z</time>
      </trkpt>
      <trkpt lat="45.6807" lon="4.69735">
        <ele>367.8415527</ele>
        <time>2011-12-04T04:48:05Z</time>
      </trkpt>
      <trkpt lat="45.68075" lon="4.69726">
        <ele>368.8029785</ele>
        <time>2011-12-04T04:48:08Z</time>
      </trkpt>
      <trkpt lat="45.68086" lon="4.69726">
        <ele>367.8415527</ele>
        <time>2011-12-04T04:48:13Z</time>
      </trkpt>
      <trkpt lat="45.68093" lon="4.6973">
        <ele>367.3609619</ele>
        <time>2011-12-04T04:48:17Z</time>
      </trkpt>
      <trkpt lat="45.68104" lon="4.69737">
        <ele>366.3995361</ele>
        <time>2011-12-04T04:48:22Z</time>
      </trkpt>
      <trkpt lat="45.68114" lon="4.69742">
        <ele>365.9189453</ele>
        <time>2011-12-04T04:48:26Z</time>
      </trkpt>
      <trkpt lat="45.6813" lon="4.69752">
        <ele>363.0350342</ele>
        <time>2011-12-04T04:48:32Z</time>
      </trkpt>
      <trkpt lat="45.68146" lon="4.69762">
        <ele>360.6317139</ele>
        <time>2011-12-04T04:48:38Z</time>
      </trkpt>
      <trkpt lat="45.68165" lon="4.69775">
        <ele>358.7089844</ele>
        <time>2011-12-04T04:48:45Z</time>
      </trkpt>
      <trkpt lat="45.68174" lon="4.6978">
        <ele>357.7478027</ele>
        <time>2011-12-04T04:48:49Z</time>
      </trkpt>
      <trkpt lat="45.68185" lon="4.69787">
        <ele>355.8251953</ele>
        <time>2011-12-04T04:48:53Z</time>
      </trkpt>
      <trkpt lat="45.68196" lon="4.69795">
        <ele>355.8251953</ele>
        <time>2011-12-04T04:48:57Z</time>
      </trkpt>
      <trkpt lat="45.68208" lon="4.69802">
        <ele>355.8251953</ele>
        <time>2011-12-04T04:49:01Z</time>
      </trkpt>
      <trkpt lat="45.68223" lon="4.69816">
        <ele>353.421875</ele>
        <time>2011-12-04T04:49:08Z</time>
      </trkpt>
      <trkpt lat="45.68234" lon="4.69826">
        <ele>350.5378418</ele>
        <time>2011-12-04T04:49:13Z</time>
      </trkpt>
      <trkpt lat="45.68244" lon="4.69833">
        <ele>349.0958252</ele>
        <time>2011-12-04T04:49:17Z</time>
      </trkpt>
      <trkpt lat="45.68256" lon="4.69844">
        <ele>347.1732178</ele>
        <time>2011-12-04T04:49:22Z</time>
      </trkpt>
      <trkpt lat="45.68267" lon="4.69857">
        <ele>346.692627</ele>
        <time>2011-12-04T04:49:27Z</time>
      </trkpt>
      <trkpt lat="45.68279" lon="4.69873">
        <ele>347.1732178</ele>
        <time>2011-12-04T04:49:33Z</time>
      </trkpt>
      <trkpt lat="45.68287" lon="4.69883">
        <ele>348.6152344</ele>
        <time>2011-12-04T04:49:37Z</time>
      </trkpt>
      <trkpt lat="45.68298" lon="4.69897">
        <ele>349.0958252</ele>
        <time>2011-12-04T04:49:42Z</time>
      </trkpt>
      <trkpt lat="45.6831" lon="4.69913">
        <ele>347.6539307</ele>
        <time>2011-12-04T04:49:48Z</time>
      </trkpt>
      <trkpt lat="45.68319" lon="4.69925">
        <ele>345.2506104</ele>
        <time>2011-12-04T04:49:53Z</time>
      </trkpt>
      <trkpt lat="45.68329" lon="4.69941">
        <ele>342.3666992</ele>
        <time>2011-12-04T04:49:59Z</time>
      </trkpt>
      <trkpt lat="45.68333" lon="4.69945">
        <ele>342.3666992</ele>
        <time>2011-12-04T04:50:01Z</time>
      </trkpt>
      <trkpt lat="45.68344" lon="4.6996">
        <ele>343.3278809</ele>
        <time>2011-12-04T04:50:06Z</time>
      </trkpt>
      <trkpt lat="45.68353" lon="4.69981">
        <ele>342.84729</ele>
        <time>2011-12-04T04:50:12Z</time>
      </trkpt>
      <trkpt lat="45.68354" lon="4.69989">
        <ele>343.3278809</ele>
        <time>2011-12-04T04:50:14Z</time>
      </trkpt>
      <trkpt lat="45.68349" lon="4.70009">
        <ele>342.3666992</ele>
        <time>2011-12-04T04:50:19Z</time>
      </trkpt>
      <trkpt lat="45.68342" lon="4.70031">
        <ele>343.8085938</ele>
        <time>2011-12-04T04:50:25Z</time>
      </trkpt>
      <trkpt lat="45.68337" lon="4.7005">
        <ele>343.8085938</ele>
        <time>2011-12-04T04:50:30Z</time>
      </trkpt>
      <trkpt lat="45.68332" lon="4.70063">
        <ele>344.7700195</ele>
        <time>2011-12-04T04:50:34Z</time>
      </trkpt>
      <trkpt lat="45.68326" lon="4.70081">
        <ele>344.7700195</ele>
        <time>2011-12-04T04:50:39Z</time>
      </trkpt>
      <trkpt lat="45.68316" lon="4.70101">
        <ele>342.3666992</ele>
        <time>2011-12-04T04:50:45Z</time>
      </trkpt>
      <trkpt lat="45.68305" lon="4.7012">
        <ele>343.8085938</ele>
        <time>2011-12-04T04:50:52Z</time>
      </trkpt>
      <trkpt lat="45.68299" lon="4.70138">
        <ele>345.2506104</ele>
        <time>2011-12-04T04:50:57Z</time>
      </trkpt>
      <trkpt lat="45.68292" lon="4.70157">
        <ele>346.2120361</ele>
        <time>2011-12-04T04:51:03Z</time>
      </trkpt>
      <trkpt lat="45.68286" lon="4.70181">
        <ele>350.057251</ele>
        <time>2011-12-04T04:51:09Z</time>
      </trkpt>
      <trkpt lat="45.68285" lon="4.70203">
        <ele>350.057251</ele>
        <time>2011-12-04T04:51:14Z</time>
      </trkpt>
      <trkpt lat="45.6828" lon="4.70227">
        <ele>345.7313232</ele>
        <time>2011-12-04T04:51:20Z</time>
      </trkpt>
      <trkpt lat="45.68274" lon="4.70253">
        <ele>345.2506104</ele>
        <time>2011-12-04T04:51:27Z</time>
      </trkpt>
      <trkpt lat="45.68269" lon="4.70269">
        <ele>341.8859863</ele>
        <time>2011-12-04T04:51:32Z</time>
      </trkpt>
      <trkpt lat="45.68263" lon="4.70287">
        <ele>340.9246826</ele>
        <time>2011-12-04T04:51:37Z</time>
      </trkpt>
      <trkpt lat="45.68258" lon="4.70305">
        <ele>339.9633789</ele>
        <time>2011-12-04T04:51:42Z</time>
      </trkpt>
      <trkpt lat="45.68248" lon="4.70318">
        <ele>338.5214844</ele>
        <time>2011-12-04T04:51:47Z</time>
      </trkpt>
      <trkpt lat="45.68241" lon="4.70327">
        <ele>337.0794678</ele>
        <time>2011-12-04T04:51:51Z</time>
      </trkpt>
      <trkpt lat="45.6824" lon="4.7034">
        <ele>336.598877</ele>
        <time>2011-12-04T04:51:55Z</time>
      </trkpt>
      <trkpt lat="45.68246" lon="4.70352">
        <ele>336.598877</ele>
        <time>2011-12-04T04:51:59Z</time>
      </trkpt>
      <trkpt lat="45.68247" lon="4.70355">
        <ele>336.1181641</ele>
        <time>2011-12-04T04:52:00Z</time>
      </trkpt>
      <trkpt lat="45.68255" lon="4.70366">
        <ele>338.5214844</ele>
        <time>2011-12-04T04:52:05Z</time>
      </trkpt>
      <trkpt lat="45.68263" lon="4.70375">
        <ele>339.0020752</ele>
        <time>2011-12-04T04:52:09Z</time>
      </trkpt>
      <trkpt lat="45.68276" lon="4.70388">
        <ele>342.3666992</ele>
        <time>2011-12-04T04:52:15Z</time>
      </trkpt>
      <trkpt lat="45.68279" lon="4.70392">
        <ele>342.3666992</ele>
        <time>2011-12-04T04:52:17Z</time>
      </trkpt>
      <trkpt lat="45.6829" lon="4.70402">
        <ele>344.2894287</ele>
        <time>2011-12-04T04:52:22Z</time>
      </trkpt>
      <trkpt lat="45.683" lon="4.70416">
        <ele>344.7700195</ele>
        <time>2011-12-04T04:52:28Z</time>
      </trkpt>
      <trkpt lat="45.6831" lon="4.70428">
        <ele>345.7313232</ele>
        <time>2011-12-04T04:52:33Z</time>
      </trkpt>
      <trkpt lat="45.68318" lon="4.70441">
        <ele>346.2120361</ele>
        <time>2011-12-04T04:52:39Z</time>
      </trkpt>
      <trkpt lat="45.68327" lon="4.70459">
        <ele>346.692627</ele>
        <time>2011-12-04T04:52:45Z</time>
      </trkpt>
      <trkpt lat="45.68334" lon="4.70471">
        <ele>346.692627</ele>
        <time>2011-12-04T04:52:49Z</time>
      </trkpt>
      <trkpt lat="45.68345" lon="4.70491">
        <ele>345.7313232</ele>
        <time>2011-12-04T04:52:56Z</time>
      </trkpt>
      <trkpt lat="45.68353" lon="4.70504">
        <ele>344.7700195</ele>
        <time>2011-12-04T04:53:01Z</time>
      </trkpt>
      <trkpt lat="45.68363" lon="4.70518">
        <ele>343.3278809</ele>
        <time>2011-12-04T04:53:07Z</time>
      </trkpt>
      <trkpt lat="45.68376" lon="4.7053">
        <ele>343.8085938</ele>
        <time>2011-12-04T04:53:13Z</time>
      </trkpt>
      <trkpt lat="45.68391" lon="4.70548">
        <ele>343.3278809</ele>
        <time>2011-12-04T04:53:20Z</time>
      </trkpt>
      <trkpt lat="45.68402" lon="4.70565">
        <ele>343.8085938</ele>
        <time>2011-12-04T04:53:26Z</time>
      </trkpt>
      <trkpt lat="45.6841" lon="4.70579">
        <ele>342.84729</ele>
        <time>2011-12-04T04:53:31Z</time>
      </trkpt>
      <trkpt lat="45.68416" lon="4.7059">
        <ele>341.8859863</ele>
        <time>2011-12-04T04:53:35Z</time>
      </trkpt>
      <trkpt lat="45.68425" lon="4.70602">
        <ele>340.9246826</ele>
        <time>2011-12-04T04:53:40Z</time>
      </trkpt>
      <trkpt lat="45.68438" lon="4.70621">
        <ele>342.3666992</ele>
        <time>2011-12-04T04:53:47Z</time>
      </trkpt>
      <trkpt lat="45.6845" lon="4.70636">
        <ele>341.8859863</ele>
        <time>2011-12-04T04:53:53Z</time>
      </trkpt>
      <trkpt lat="45.68461" lon="4.7065">
        <ele>339.9633789</ele>
        <time>2011-12-04T04:53:59Z</time>
      </trkpt>
      <trkpt lat="45.68473" lon="4.70674">
        <ele>339.0020752</ele>
        <time>2011-12-04T04:54:06Z</time>
      </trkpt>
      <trkpt lat="45.68483" lon="4.70688">
        <ele>338.5214844</ele>
        <time>2011-12-04T04:54:11Z</time>
      </trkpt>
      <trkpt lat="45.68492" lon="4.70698">
        <ele>337.5600586</ele>
        <time>2011-12-04T04:54:15Z</time>
      </trkpt>
      <trkpt lat="45.68501" lon="4.70707">
        <ele>337.0794678</ele>
        <time>2011-12-04T04:54:19Z</time>
      </trkpt>
      <trkpt lat="45.68514" lon="4.70726">
        <ele>334.6761475</ele>
        <time>2011-12-04T04:54:26Z</time>
      </trkpt>
      <trkpt lat="45.68525" lon="4.70743">
        <ele>333.2341309</ele>
        <time>2011-12-04T04:54:32Z</time>
      </trkpt>
      <trkpt lat="45.68536" lon="4.70757">
        <ele>331.7921143</ele>
        <time>2011-12-04T04:54:37Z</time>
      </trkpt>
      <trkpt lat="45.68546" lon="4.70772">
        <ele>329.388916</ele>
        <time>2011-12-04T04:54:42Z</time>
      </trkpt>
      <trkpt lat="45.68559" lon="4.70793">
        <ele>327.9467773</ele>
        <time>2011-12-04T04:54:49Z</time>
      </trkpt>
      <trkpt lat="45.68573" lon="4.70807">
        <ele>326.5048828</ele>
        <time>2011-12-04T04:54:55Z</time>
      </trkpt>
      <trkpt lat="45.68583" lon="4.7082">
        <ele>324.5822754</ele>
        <time>2011-12-04T04:55:00Z</time>
      </trkpt>
      <trkpt lat="45.68596" lon="4.70833">
        <ele>322.659668</ele>
        <time>2011-12-04T04:55:06Z</time>
      </trkpt>
      <trkpt lat="45.68608" lon="4.70844">
        <ele>322.1789551</ele>
        <time>2011-12-04T04:55:11Z</time>
      </trkpt>
      <trkpt lat="45.68621" lon="4.70859">
        <ele>320.7370605</ele>
        <time>2011-12-04T04:55:17Z</time>
      </trkpt>
      <trkpt lat="45.68631" lon="4.70871">
        <ele>319.7756348</ele>
        <time>2011-12-04T04:55:22Z</time>
      </trkpt>
      <trkpt lat="45.68642" lon="4.70882">
        <ele>320.2563477</ele>
        <time>2011-12-04T04:55:27Z</time>
      </trkpt>
      <trkpt lat="45.68654" lon="4.70893">
        <ele>319.7756348</ele>
        <time>2011-12-04T04:55:32Z</time>
      </trkpt>
      <trkpt lat="45.68669" lon="4.70905">
        <ele>319.7756348</ele>
        <time>2011-12-04T04:55:38Z</time>
      </trkpt>
      <trkpt lat="45.6868" lon="4.70914">
        <ele>319.7756348</ele>
        <time>2011-12-04T04:55:43Z</time>
      </trkpt>
      <trkpt lat="45.6869" lon="4.70922">
        <ele>319.7756348</ele>
        <time>2011-12-04T04:55:47Z</time>
      </trkpt>
      <trkpt lat="45.68701" lon="4.70933">
        <ele>319.7756348</ele>
        <time>2011-12-04T04:55:52Z</time>
      </trkpt>
      <trkpt lat="45.68711" lon="4.70948">
        <ele>321.2177734</ele>
        <time>2011-12-04T04:55:57Z</time>
      </trkpt>
      <trkpt lat="45.68714" lon="4.70973">
        <ele>322.1789551</ele>
        <time>2011-12-04T04:56:03Z</time>
      </trkpt>
      <trkpt lat="45.68711" lon="4.70997">
        <ele>321.2177734</ele>
        <time>2011-12-04T04:56:09Z</time>
      </trkpt>
      <trkpt lat="45.68713" lon="4.71017">
        <ele>319.2950439</ele>
        <time>2011-12-04T04:56:14Z</time>
      </trkpt>
      <trkpt lat="45.6872" lon="4.7104">
        <ele>318.3336182</ele>
        <time>2011-12-04T04:56:20Z</time>
      </trkpt>
      <trkpt lat="45.68728" lon="4.71063">
        <ele>314.4884033</ele>
        <time>2011-12-04T04:56:27Z</time>
      </trkpt>
      <trkpt lat="45.68732" lon="4.71077">
        <ele>312.5657959</ele>
        <time>2011-12-04T04:56:31Z</time>
      </trkpt>
      <trkpt lat="45.68739" lon="4.71098">
        <ele>312.5657959</ele>
        <time>2011-12-04T04:56:37Z</time>
      </trkpt>
      <trkpt lat="45.68744" lon="4.71116">
        <ele>311.1237793</ele>
        <time>2011-12-04T04:56:42Z</time>
      </trkpt>
      <trkpt lat="45.68749" lon="4.71135">
        <ele>310.1624756</ele>
        <time>2011-12-04T04:56:47Z</time>
      </trkpt>
      <trkpt lat="45.68755" lon="4.71154">
        <ele>308.2398682</ele>
        <time>2011-12-04T04:56:52Z</time>
      </trkpt>
      <trkpt lat="45.6876" lon="4.71172">
        <ele>306.7978516</ele>
        <time>2011-12-04T04:56:57Z</time>
      </trkpt>
      <trkpt lat="45.68763" lon="4.71184">
        <ele>306.7978516</ele>
        <time>2011-12-04T04:57:00Z</time>
      </trkpt>
      <trkpt lat="45.6877" lon="4.71203">
        <ele>306.3172607</ele>
        <time>2011-12-04T04:57:05Z</time>
      </trkpt>
      <trkpt lat="45.68773" lon="4.71219">
        <ele>305.355957</ele>
        <time>2011-12-04T04:57:09Z</time>
      </trkpt>
      <trkpt lat="45.6878" lon="4.71246">
        <ele>303.4332275</ele>
        <time>2011-12-04T04:57:16Z</time>
      </trkpt>
      <trkpt lat="45.68784" lon="4.71263">
        <ele>302.4719238</ele>
        <time>2011-12-04T04:57:21Z</time>
      </trkpt>
      <trkpt lat="45.68791" lon="4.7128">
        <ele>302.4719238</ele>
        <time>2011-12-04T04:57:26Z</time>
      </trkpt>
      <trkpt lat="45.68801" lon="4.713">
        <ele>301.991333</ele>
        <time>2011-12-04T04:57:32Z</time>
      </trkpt>
      <trkpt lat="45.68812" lon="4.71315">
        <ele>301.991333</ele>
        <time>2011-12-04T04:57:38Z</time>
      </trkpt>
      <trkpt lat="45.68815" lon="4.71319">
        <ele>301.0299072</ele>
        <time>2011-12-04T04:57:40Z</time>
      </trkpt>
      <trkpt lat="45.68826" lon="4.7133">
        <ele>301.0299072</ele>
        <time>2011-12-04T04:57:46Z</time>
      </trkpt>
      <trkpt lat="45.68828" lon="4.71332">
        <ele>300.5493164</ele>
        <time>2011-12-04T04:57:47Z</time>
      </trkpt>
      <trkpt lat="45.6884" lon="4.71338">
        <ele>301.5106201</ele>
        <time>2011-12-04T04:57:52Z</time>
      </trkpt>
      <trkpt lat="45.6885" lon="4.71346">
        <ele>302.4719238</ele>
        <time>2011-12-04T04:57:56Z</time>
      </trkpt>
      <trkpt lat="45.68868" lon="4.71361">
        <ele>302.9525146</ele>
        <time>2011-12-04T04:58:03Z</time>
      </trkpt>
      <trkpt lat="45.68882" lon="4.71371">
        <ele>301.991333</ele>
        <time>2011-12-04T04:58:09Z</time>
      </trkpt>
      <trkpt lat="45.68894" lon="4.71383">
        <ele>298.626709</ele>
        <time>2011-12-04T04:58:15Z</time>
      </trkpt>
      <trkpt lat="45.68908" lon="4.71395">
        <ele>299.5880127</ele>
        <time>2011-12-04T04:58:21Z</time>
      </trkpt>
      <trkpt lat="45.68923" lon="4.71407">
        <ele>299.5880127</ele>
        <time>2011-12-04T04:58:27Z</time>
      </trkpt>
      <trkpt lat="45.68928" lon="4.71411">
        <ele>299.1072998</ele>
        <time>2011-12-04T04:58:29Z</time>
      </trkpt>
      <trkpt lat="45.6894" lon="4.71419">
        <ele>298.1461182</ele>
        <time>2011-12-04T04:58:34Z</time>
      </trkpt>
      <trkpt lat="45.68946" lon="4.71425">
        <ele>297.6654053</ele>
        <time>2011-12-04T04:58:37Z</time>
      </trkpt>
      <trkpt lat="45.68962" lon="4.71437">
        <ele>297.6654053</ele>
        <time>2011-12-04T04:58:43Z</time>
      </trkpt>
      <trkpt lat="45.68975" lon="4.71449">
        <ele>297.1846924</ele>
        <time>2011-12-04T04:58:49Z</time>
      </trkpt>
      <trkpt lat="45.68988" lon="4.71459">
        <ele>295.7426758</ele>
        <time>2011-12-04T04:58:55Z</time>
      </trkpt>
      <trkpt lat="45.69002" lon="4.71469">
        <ele>296.2235107</ele>
        <time>2011-12-04T04:59:01Z</time>
      </trkpt>
      <trkpt lat="45.6902" lon="4.71481">
        <ele>298.1461182</ele>
        <time>2011-12-04T04:59:08Z</time>
      </trkpt>
      <trkpt lat="45.69036" lon="4.71491">
        <ele>300.0687256</ele>
        <time>2011-12-04T04:59:14Z</time>
      </trkpt>
      <trkpt lat="45.69048" lon="4.71499">
        <ele>300.0687256</ele>
        <time>2011-12-04T04:59:19Z</time>
      </trkpt>
      <trkpt lat="45.69062" lon="4.71509">
        <ele>298.1461182</ele>
        <time>2011-12-04T04:59:25Z</time>
      </trkpt>
      <trkpt lat="45.69067" lon="4.71513">
        <ele>297.6654053</ele>
        <time>2011-12-04T04:59:28Z</time>
      </trkpt>
      <trkpt lat="45.69082" lon="4.71521">
        <ele>297.1846924</ele>
        <time>2011-12-04T04:59:34Z</time>
      </trkpt>
      <trkpt lat="45.69098" lon="4.71528">
        <ele>296.7041016</ele>
        <time>2011-12-04T04:59:40Z</time>
      </trkpt>
      <trkpt lat="45.69111" lon="4.71535">
        <ele>295.7426758</ele>
        <time>2011-12-04T04:59:46Z</time>
      </trkpt>
      <trkpt lat="45.69126" lon="4.71541">
        <ele>295.2619629</ele>
        <time>2011-12-04T04:59:52Z</time>
      </trkpt>
      <trkpt lat="45.69141" lon="4.71544">
        <ele>296.2235107</ele>
        <time>2011-12-04T04:59:58Z</time>
      </trkpt>
      <trkpt lat="45.69153" lon="4.71546">
        <ele>296.7041016</ele>
        <time>2011-12-04T05:00:03Z</time>
      </trkpt>
      <trkpt lat="45.69165" lon="4.7155">
        <ele>296.7041016</ele>
        <time>2011-12-04T05:00:08Z</time>
      </trkpt>
      <trkpt lat="45.69178" lon="4.71557">
        <ele>297.1846924</ele>
        <time>2011-12-04T05:00:13Z</time>
      </trkpt>
      <trkpt lat="45.69189" lon="4.71565">
        <ele>297.1846924</ele>
        <time>2011-12-04T05:00:18Z</time>
      </trkpt>
      <trkpt lat="45.69203" lon="4.71576">
        <ele>297.6654053</ele>
        <time>2011-12-04T05:00:24Z</time>
      </trkpt>
      <trkpt lat="45.69215" lon="4.71587">
        <ele>297.6654053</ele>
        <time>2011-12-04T05:00:29Z</time>
      </trkpt>
      <trkpt lat="45.69224" lon="4.71601">
        <ele>298.626709</ele>
        <time>2011-12-04T05:00:34Z</time>
      </trkpt>
      <trkpt lat="45.69233" lon="4.71616">
        <ele>299.5880127</ele>
        <time>2011-12-04T05:00:39Z</time>
      </trkpt>
      <trkpt lat="45.69239" lon="4.71633">
        <ele>300.0687256</ele>
        <time>2011-12-04T05:00:44Z</time>
      </trkpt>
      <trkpt lat="45.69247" lon="4.71651">
        <ele>300.0687256</ele>
        <time>2011-12-04T05:00:50Z</time>
      </trkpt>
      <trkpt lat="45.69255" lon="4.71664">
        <ele>299.5880127</ele>
        <time>2011-12-04T05:00:55Z</time>
      </trkpt>
      <trkpt lat="45.69265" lon="4.7168">
        <ele>298.1461182</ele>
        <time>2011-12-04T05:01:01Z</time>
      </trkpt>
      <trkpt lat="45.6927" lon="4.71689">
        <ele>297.1846924</ele>
        <time>2011-12-04T05:01:04Z</time>
      </trkpt>
      <trkpt lat="45.69281" lon="4.71706">
        <ele>296.7041016</ele>
        <time>2011-12-04T05:01:10Z</time>
      </trkpt>
      <trkpt lat="45.69287" lon="4.71719">
        <ele>295.7426758</ele>
        <time>2011-12-04T05:01:14Z</time>
      </trkpt>
      <trkpt lat="45.69296" lon="4.71732">
        <ele>293.8200684</ele>
        <time>2011-12-04T05:01:19Z</time>
      </trkpt>
      <trkpt lat="45.69305" lon="4.71746">
        <ele>291.8974609</ele>
        <time>2011-12-04T05:01:24Z</time>
      </trkpt>
      <trkpt lat="45.69311" lon="4.71757">
        <ele>290.4555664</ele>
        <time>2011-12-04T05:01:28Z</time>
      </trkpt>
      <trkpt lat="45.69321" lon="4.71771">
        <ele>288.532959</ele>
        <time>2011-12-04T05:01:34Z</time>
      </trkpt>
      <trkpt lat="45.69328" lon="4.71784">
        <ele>288.0522461</ele>
        <time>2011-12-04T05:01:39Z</time>
      </trkpt>
      <trkpt lat="45.69338" lon="4.71797">
        <ele>288.532959</ele>
        <time>2011-12-04T05:01:44Z</time>
      </trkpt>
      <trkpt lat="45.69346" lon="4.71807">
        <ele>288.532959</ele>
        <time>2011-12-04T05:01:48Z</time>
      </trkpt>
      <trkpt lat="45.69358" lon="4.71822">
        <ele>287.0908203</ele>
        <time>2011-12-04T05:01:53Z</time>
      </trkpt>
      <trkpt lat="45.69363" lon="4.71831">
        <ele>286.1295166</ele>
        <time>2011-12-04T05:01:56Z</time>
      </trkpt>
      <trkpt lat="45.69373" lon="4.71841">
        <ele>285.6488037</ele>
        <time>2011-12-04T05:02:01Z</time>
      </trkpt>
      <trkpt lat="45.69382" lon="4.71857">
        <ele>284.2069092</ele>
        <time>2011-12-04T05:02:06Z</time>
      </trkpt>
      <trkpt lat="45.69386" lon="4.71866">
        <ele>283.2456055</ele>
        <time>2011-12-04T05:02:09Z</time>
      </trkpt>
      <trkpt lat="45.69395" lon="4.71881">
        <ele>281.322998</ele>
        <time>2011-12-04T05:02:14Z</time>
      </trkpt>
      <trkpt lat="45.69405" lon="4.71894">
        <ele>281.322998</ele>
        <time>2011-12-04T05:02:19Z</time>
      </trkpt>
      <trkpt lat="45.69413" lon="4.71909">
        <ele>281.322998</ele>
        <time>2011-12-04T05:02:25Z</time>
      </trkpt>
      <trkpt lat="45.69418" lon="4.71921">
        <ele>281.322998</ele>
        <time>2011-12-04T05:02:30Z</time>
      </trkpt>
      <trkpt lat="45.69427" lon="4.71937">
        <ele>280.3616943</ele>
        <time>2011-12-04T05:02:36Z</time>
      </trkpt>
      <trkpt lat="45.6943" lon="4.71952">
        <ele>280.8424072</ele>
        <time>2011-12-04T05:02:41Z</time>
      </trkpt>
      <trkpt lat="45.69434" lon="4.71964">
        <ele>281.8035889</ele>
        <time>2011-12-04T05:02:45Z</time>
      </trkpt>
      <trkpt lat="45.69435" lon="4.7198">
        <ele>282.2843018</ele>
        <time>2011-12-04T05:02:50Z</time>
      </trkpt>
      <trkpt lat="45.69436" lon="4.71993">
        <ele>282.7650146</ele>
        <time>2011-12-04T05:02:54Z</time>
      </trkpt>
      <trkpt lat="45.69437" lon="4.72008">
        <ele>285.6488037</ele>
        <time>2011-12-04T05:02:59Z</time>
      </trkpt>
      <trkpt lat="45.69438" lon="4.72027">
        <ele>287.5714111</ele>
        <time>2011-12-04T05:03:05Z</time>
      </trkpt>
      <trkpt lat="45.69438" lon="4.72042">
        <ele>286.6102295</ele>
        <time>2011-12-04T05:03:10Z</time>
      </trkpt>
      <trkpt lat="45.69438" lon="4.72045">
        <ele>286.6102295</ele>
        <time>2011-12-04T05:03:11Z</time>
      </trkpt>
      <trkpt lat="45.69437" lon="4.72065">
        <ele>286.1295166</ele>
        <time>2011-12-04T05:03:19Z</time>
      </trkpt>
      <trkpt lat="45.69436" lon="4.72079">
        <ele>285.6488037</ele>
        <time>2011-12-04T05:03:23Z</time>
      </trkpt>
      <trkpt lat="45.69436" lon="4.72092">
        <ele>285.1682129</ele>
        <time>2011-12-04T05:03:27Z</time>
      </trkpt>
      <trkpt lat="45.69436" lon="4.72107">
        <ele>282.7650146</ele>
        <time>2011-12-04T05:03:33Z</time>
      </trkpt>
      <trkpt lat="45.69439" lon="4.72122">
        <ele>279.8808594</ele>
        <time>2011-12-04T05:03:40Z</time>
      </trkpt>
      <trkpt lat="45.69439" lon="4.72137">
        <ele>276.5163574</ele>
        <time>2011-12-04T05:03:46Z</time>
      </trkpt>
      <trkpt lat="45.69438" lon="4.72145">
        <ele>274.59375</ele>
        <time>2011-12-04T05:03:50Z</time>
      </trkpt>
      <trkpt lat="45.69436" lon="4.72168">
        <ele>270.7484131</ele>
        <time>2011-12-04T05:03:57Z</time>
      </trkpt>
      <trkpt lat="45.69436" lon="4.72176">
        <ele>268.8258057</ele>
        <time>2011-12-04T05:04:00Z</time>
      </trkpt>
      <trkpt lat="45.69437" lon="4.72191">
        <ele>265.9418945</ele>
        <time>2011-12-04T05:04:05Z</time>
      </trkpt>
      <trkpt lat="45.69439" lon="4.72199">
        <ele>265.4613037</ele>
        <time>2011-12-04T05:04:08Z</time>
      </trkpt>
      <trkpt lat="45.69442" lon="4.72215">
        <ele>263.5385742</ele>
        <time>2011-12-04T05:04:13Z</time>
      </trkpt>
      <trkpt lat="45.69442" lon="4.72229">
        <ele>261.6159668</ele>
        <time>2011-12-04T05:04:18Z</time>
      </trkpt>
      <trkpt lat="45.69443" lon="4.72242">
        <ele>260.654541</ele>
        <time>2011-12-04T05:04:23Z</time>
      </trkpt>
      <trkpt lat="45.69445" lon="4.72258">
        <ele>260.654541</ele>
        <time>2011-12-04T05:04:29Z</time>
      </trkpt>
      <trkpt lat="45.69445" lon="4.72269">
        <ele>259.6933594</ele>
        <time>2011-12-04T05:04:34Z</time>
      </trkpt>
      <trkpt lat="45.69445" lon="4.72278">
        <ele>258.7319336</ele>
        <time>2011-12-04T05:04:38Z</time>
      </trkpt>
      <trkpt lat="45.69445" lon="4.72287">
        <ele>257.770752</ele>
        <time>2011-12-04T05:04:42Z</time>
      </trkpt>
      <trkpt lat="45.69445" lon="4.72295">
        <ele>256.8093262</ele>
        <time>2011-12-04T05:04:46Z</time>
      </trkpt>
      <trkpt lat="45.69446" lon="4.72303">
        <ele>256.3287354</ele>
        <time>2011-12-04T05:04:50Z</time>
      </trkpt>
      <trkpt lat="45.69446" lon="4.72315">
        <ele>254.4060059</ele>
        <time>2011-12-04T05:04:56Z</time>
      </trkpt>
      <trkpt lat="45.69445" lon="4.72323">
        <ele>254.4060059</ele>
        <time>2011-12-04T05:05:00Z</time>
      </trkpt>
      <trkpt lat="45.6944" lon="4.72336">
        <ele>249.5994873</ele>
        <time>2011-12-04T05:05:08Z</time>
      </trkpt>
      <trkpt lat="45.69442" lon="4.72348">
        <ele>246.7154541</ele>
        <time>2011-12-04T05:05:13Z</time>
      </trkpt>
      <trkpt lat="45.69445" lon="4.72358">
        <ele>246.2348633</ele>
        <time>2011-12-04T05:05:17Z</time>
      </trkpt>
      <trkpt lat="45.69449" lon="4.72369">
        <ele>248.6381836</ele>
        <time>2011-12-04T05:05:22Z</time>
      </trkpt>
      <trkpt lat="45.69454" lon="4.72378">
        <ele>247.6767578</ele>
        <time>2011-12-04T05:05:26Z</time>
      </trkpt>
      <trkpt lat="45.6946" lon="4.72389">
        <ele>245.2734375</ele>
        <time>2011-12-04T05:05:31Z</time>
      </trkpt>
      <trkpt lat="45.69466" lon="4.72399">
        <ele>241.9089355</ele>
        <time>2011-12-04T05:05:36Z</time>
      </trkpt>
      <trkpt lat="45.6947" lon="4.72414">
        <ele>240.9476318</ele>
        <time>2011-12-04T05:05:40Z</time>
      </trkpt>
      <trkpt lat="45.69465" lon="4.72419">
        <ele>241.4282227</ele>
        <time>2011-12-04T05:05:43Z</time>
      </trkpt>
      <trkpt lat="45.69458" lon="4.72418">
        <ele>240.9476318</ele>
        <time>2011-12-04T05:05:46Z</time>
      </trkpt>
      <trkpt lat="45.69447" lon="4.72412">
        <ele>240.467041</ele>
        <time>2011-12-04T05:05:52Z</time>
      </trkpt>
      <trkpt lat="45.69438" lon="4.72406">
        <ele>241.9089355</ele>
        <time>2011-12-04T05:05:57Z</time>
      </trkpt>
      <trkpt lat="45.69424" lon="4.72399">
        <ele>244.7928467</ele>
        <time>2011-12-04T05:06:02Z</time>
      </trkpt>
      <trkpt lat="45.69413" lon="4.72394">
        <ele>246.7154541</ele>
        <time>2011-12-04T05:06:07Z</time>
      </trkpt>
      <trkpt lat="45.69409" lon="4.72394">
        <ele>246.2348633</ele>
        <time>2011-12-04T05:06:09Z</time>
      </trkpt>
      <trkpt lat="45.69405" lon="4.72399">
        <ele>249.1187744</ele>
        <time>2011-12-04T05:06:11Z</time>
      </trkpt>
      <trkpt lat="45.69402" lon="4.72413">
        <ele>246.2348633</ele>
        <time>2011-12-04T05:06:16Z</time>
      </trkpt>
      <trkpt lat="45.69404" lon="4.72422">
        <ele>242.3896484</ele>
        <time>2011-12-04T05:06:20Z</time>
      </trkpt>
      <trkpt lat="45.69409" lon="4.72442">
        <ele>237.1022949</ele>
        <time>2011-12-04T05:06:26Z</time>
      </trkpt>
      <trkpt lat="45.6941" lon="4.72451">
        <ele>237.1022949</ele>
        <time>2011-12-04T05:06:29Z</time>
      </trkpt>
      <trkpt lat="45.69411" lon="4.72457">
        <ele>237.5828857</ele>
        <time>2011-12-04T05:06:32Z</time>
      </trkpt>
      <trkpt lat="45.69414" lon="4.72473">
        <ele>236.1409912</ele>
        <time>2011-12-04T05:06:37Z</time>
      </trkpt>
      <trkpt lat="45.6942" lon="4.72489">
        <ele>234.6990967</ele>
        <time>2011-12-04T05:06:42Z</time>
      </trkpt>
      <trkpt lat="45.69424" lon="4.72507">
        <ele>233.7376709</ele>
        <time>2011-12-04T05:06:47Z</time>
      </trkpt>
      <trkpt lat="45.69427" lon="4.7252">
        <ele>230.8537598</ele>
        <time>2011-12-04T05:06:51Z</time>
      </trkpt>
      <trkpt lat="45.69426" lon="4.72529">
        <ele>228.4504395</ele>
        <time>2011-12-04T05:06:54Z</time>
      </trkpt>
      <trkpt lat="45.69424" lon="4.72543">
        <ele>222.6824951</ele>
        <time>2011-12-04T05:06:59Z</time>
      </trkpt>
      <trkpt lat="45.69419" lon="4.72559">
        <ele>220.7598877</ele>
        <time>2011-12-04T05:07:04Z</time>
      </trkpt>
      <trkpt lat="45.6942" lon="4.7257">
        <ele>215.4726563</ele>
        <time>2011-12-04T05:07:09Z</time>
      </trkpt>
      <trkpt lat="45.6942" lon="4.72574">
        <ele>213.0693359</ele>
        <time>2011-12-04T05:07:12Z</time>
      </trkpt>
      <trkpt lat="45.69421" lon="4.72579">
        <ele>211.6274414</ele>
        <time>2011-12-04T05:07:15Z</time>
      </trkpt>
      <trkpt lat="45.69421" lon="4.72588">
        <ele>215.9532471</ele>
        <time>2011-12-04T05:07:22Z</time>
      </trkpt>
      <trkpt lat="45.6942" lon="4.72603">
        <ele>222.6824951</ele>
        <time>2011-12-04T05:07:29Z</time>
      </trkpt>
      <trkpt lat="45.69422" lon="4.72604">
        <ele>225.0859375</ele>
        <time>2011-12-04T05:07:36Z</time>
      </trkpt>
      <trkpt lat="45.69427" lon="4.72602">
        <ele>225.5665283</ele>
        <time>2011-12-04T05:07:43Z</time>
      </trkpt>
      <trkpt lat="45.6943" lon="4.72608">
        <ele>224.6052246</ele>
        <time>2011-12-04T05:07:49Z</time>
      </trkpt>
      <trkpt lat="45.69432" lon="4.7262">
        <ele>227.4891357</ele>
        <time>2011-12-04T05:07:55Z</time>
      </trkpt>
      <trkpt lat="45.69434" lon="4.72626">
        <ele>228.4504395</ele>
        <time>2011-12-04T05:07:58Z</time>
      </trkpt>
      <trkpt lat="45.69434" lon="4.72634">
        <ele>230.3730469</ele>
        <time>2011-12-04T05:08:01Z</time>
      </trkpt>
      <trkpt lat="45.69435" lon="4.72643">
        <ele>232.2957764</ele>
        <time>2011-12-04T05:08:07Z</time>
      </trkpt>
      <trkpt lat="45.69433" lon="4.7265">
        <ele>233.2570801</ele>
        <time>2011-12-04T05:08:12Z</time>
      </trkpt>
      <trkpt lat="45.69431" lon="4.72659">
        <ele>237.5828857</ele>
        <time>2011-12-04T05:08:19Z</time>
      </trkpt>
      <trkpt lat="45.69429" lon="4.72666">
        <ele>239.0249023</ele>
        <time>2011-12-04T05:08:26Z</time>
      </trkpt>
      <trkpt lat="45.69428" lon="4.72673">
        <ele>239.5054932</ele>
        <time>2011-12-04T05:08:31Z</time>
      </trkpt>
      <trkpt lat="45.69426" lon="4.7268">
        <ele>241.4282227</ele>
        <time>2011-12-04T05:08:36Z</time>
      </trkpt>
      <trkpt lat="45.69424" lon="4.72688">
        <ele>243.831543</ele>
        <time>2011-12-04T05:08:41Z</time>
      </trkpt>
      <trkpt lat="45.69422" lon="4.72699">
        <ele>243.3508301</ele>
        <time>2011-12-04T05:08:49Z</time>
      </trkpt>
      <trkpt lat="45.6942" lon="4.7271">
        <ele>246.7154541</ele>
        <time>2011-12-04T05:08:57Z</time>
      </trkpt>
      <trkpt lat="45.69418" lon="4.72716">
        <ele>249.5994873</ele>
        <time>2011-12-04T05:09:01Z</time>
      </trkpt>
      <trkpt lat="45.69418" lon="4.72719">
        <ele>250.560791</ele>
        <time>2011-12-04T05:09:04Z</time>
      </trkpt>
      <trkpt lat="45.69418" lon="4.72728">
        <ele>250.560791</ele>
        <time>2011-12-04T05:09:10Z</time>
      </trkpt>
      <trkpt lat="45.69418" lon="4.72736">
        <ele>252.4833984</ele>
        <time>2011-12-04T05:09:14Z</time>
      </trkpt>
      <trkpt lat="45.69416" lon="4.72744">
        <ele>254.4060059</ele>
        <time>2011-12-04T05:09:19Z</time>
      </trkpt>
      <trkpt lat="45.69416" lon="4.72756">
        <ele>254.4060059</ele>
        <time>2011-12-04T05:09:29Z</time>
      </trkpt>
      <trkpt lat="45.69416" lon="4.72762">
        <ele>255.3673096</ele>
        <time>2011-12-04T05:09:35Z</time>
      </trkpt>
      <trkpt lat="45.69415" lon="4.72769">
        <ele>259.2126465</ele>
        <time>2011-12-04T05:09:41Z</time>
      </trkpt>
      <trkpt lat="45.69414" lon="4.72778">
        <ele>263.5385742</ele>
        <time>2011-12-04T05:09:48Z</time>
      </trkpt>
      <trkpt lat="45.69412" lon="4.72788">
        <ele>264.4998779</ele>
        <time>2011-12-04T05:09:54Z</time>
      </trkpt>
      <trkpt lat="45.6941" lon="4.72797">
        <ele>266.4224854</ele>
        <time>2011-12-04T05:10:00Z</time>
      </trkpt>
      <trkpt lat="45.69409" lon="4.72804">
        <ele>266.4224854</ele>
        <time>2011-12-04T05:10:05Z</time>
      </trkpt>
      <trkpt lat="45.69408" lon="4.72808">
        <ele>265.9418945</ele>
        <time>2011-12-04T05:10:08Z</time>
      </trkpt>
      <trkpt lat="45.69407" lon="4.72818">
        <ele>264.4998779</ele>
        <time>2011-12-04T05:10:15Z</time>
      </trkpt>
      <trkpt lat="45.69406" lon="4.72826">
        <ele>267.3839111</ele>
        <time>2011-12-04T05:10:21Z</time>
      </trkpt>
      <trkpt lat="45.69405" lon="4.72831">
        <ele>266.9031982</ele>
        <time>2011-12-04T05:10:26Z</time>
      </trkpt>
      <trkpt lat="45.69403" lon="4.72834">
        <ele>267.3839111</ele>
        <time>2011-12-04T05:10:28Z</time>
      </trkpt>
      <trkpt lat="45.694" lon="4.72838">
        <ele>270.2677002</ele>
        <time>2011-12-04T05:10:34Z</time>
      </trkpt>
      <trkpt lat="45.69394" lon="4.72841">
        <ele>271.229126</ele>
        <time>2011-12-04T05:10:39Z</time>
      </trkpt>
      <trkpt lat="45.69386" lon="4.72844">
        <ele>273.1518555</ele>
        <time>2011-12-04T05:10:46Z</time>
      </trkpt>
      <trkpt lat="45.69381" lon="4.72845">
        <ele>272.1904297</ele>
        <time>2011-12-04T05:10:51Z</time>
      </trkpt>
      <trkpt lat="45.69378" lon="4.72848">
        <ele>272.1904297</ele>
        <time>2011-12-04T05:10:56Z</time>
      </trkpt>
      <trkpt lat="45.69374" lon="4.72851">
        <ele>274.1130371</ele>
        <time>2011-12-04T05:11:03Z</time>
      </trkpt>
      <trkpt lat="45.69368" lon="4.72854">
        <ele>274.59375</ele>
        <time>2011-12-04T05:11:09Z</time>
      </trkpt>
      <trkpt lat="45.69364" lon="4.72854">
        <ele>274.59375</ele>
        <time>2011-12-04T05:11:13Z</time>
      </trkpt>
      <trkpt lat="45.69362" lon="4.72855">
        <ele>274.59375</ele>
        <time>2011-12-04T05:11:15Z</time>
      </trkpt>
      <trkpt lat="45.69357" lon="4.72858">
        <ele>274.59375</ele>
        <time>2011-12-04T05:11:19Z</time>
      </trkpt>
      <trkpt lat="45.69352" lon="4.7286">
        <ele>273.1518555</ele>
        <time>2011-12-04T05:11:24Z</time>
      </trkpt>
      <trkpt lat="45.69344" lon="4.72865">
        <ele>274.1130371</ele>
        <time>2011-12-04T05:11:33Z</time>
      </trkpt>
      <trkpt lat="45.6934" lon="4.72869">
        <ele>275.0744629</ele>
        <time>2011-12-04T05:11:40Z</time>
      </trkpt>
      <trkpt lat="45.69336" lon="4.72873">
        <ele>277.4776611</ele>
        <time>2011-12-04T05:11:45Z</time>
      </trkpt>
      <trkpt lat="45.69333" lon="4.72879">
        <ele>278.4389648</ele>
        <time>2011-12-04T05:11:51Z</time>
      </trkpt>
      <trkpt lat="45.69329" lon="4.72886">
        <ele>278.9196777</ele>
        <time>2011-12-04T05:11:57Z</time>
      </trkpt>
      <trkpt lat="45.69327" lon="4.72895">
        <ele>276.0356445</ele>
        <time>2011-12-04T05:12:03Z</time>
      </trkpt>
      <trkpt lat="45.69329" lon="4.72909">
        <ele>277.958252</ele>
        <time>2011-12-04T05:12:11Z</time>
      </trkpt>
      <trkpt lat="45.69334" lon="4.72913">
        <ele>276.9970703</ele>
        <time>2011-12-04T05:12:17Z</time>
      </trkpt>
      <trkpt lat="45.6934" lon="4.72916">
        <ele>277.4776611</ele>
        <time>2011-12-04T05:12:24Z</time>
      </trkpt>
      <trkpt lat="45.69345" lon="4.72918">
        <ele>278.4389648</ele>
        <time>2011-12-04T05:12:30Z</time>
      </trkpt>
      <trkpt lat="45.69352" lon="4.72919">
        <ele>278.4389648</ele>
        <time>2011-12-04T05:12:36Z</time>
      </trkpt>
      <trkpt lat="45.6936" lon="4.72922">
        <ele>276.9970703</ele>
        <time>2011-12-04T05:12:42Z</time>
      </trkpt>
      <trkpt lat="45.69368" lon="4.72925">
        <ele>276.0356445</ele>
        <time>2011-12-04T05:12:49Z</time>
      </trkpt>
      <trkpt lat="45.69376" lon="4.72926">
        <ele>274.1130371</ele>
        <time>2011-12-04T05:12:55Z</time>
      </trkpt>
      <trkpt lat="45.69388" lon="4.7293">
        <ele>276.5163574</ele>
        <time>2011-12-04T05:13:02Z</time>
      </trkpt>
      <trkpt lat="45.69401" lon="4.72935">
        <ele>282.2843018</ele>
        <time>2011-12-04T05:13:10Z</time>
      </trkpt>
      <trkpt lat="45.69411" lon="4.72937">
        <ele>281.8035889</ele>
        <time>2011-12-04T05:13:18Z</time>
      </trkpt>
      <trkpt lat="45.69425" lon="4.72939">
        <ele>286.6102295</ele>
        <time>2011-12-04T05:13:25Z</time>
      </trkpt>
      <trkpt lat="45.69433" lon="4.72941">
        <ele>291.8974609</ele>
        <time>2011-12-04T05:13:31Z</time>
      </trkpt>
      <trkpt lat="45.69441" lon="4.72941">
        <ele>295.2619629</ele>
        <time>2011-12-04T05:13:36Z</time>
      </trkpt>
      <trkpt lat="45.69457" lon="4.72946">
        <ele>299.5880127</ele>
        <time>2011-12-04T05:13:45Z</time>
      </trkpt>
      <trkpt lat="45.69472" lon="4.72955">
        <ele>302.4719238</ele>
        <time>2011-12-04T05:13:54Z</time>
      </trkpt>
      <trkpt lat="45.69482" lon="4.72965">
        <ele>298.1461182</ele>
        <time>2011-12-04T05:14:01Z</time>
      </trkpt>
      <trkpt lat="45.6949" lon="4.7297">
        <ele>295.2619629</ele>
        <time>2011-12-04T05:14:06Z</time>
      </trkpt>
      <trkpt lat="45.69499" lon="4.72975">
        <ele>292.3781738</ele>
        <time>2011-12-04T05:14:11Z</time>
      </trkpt>
      <trkpt lat="45.69507" lon="4.7298">
        <ele>292.8587646</ele>
        <time>2011-12-04T05:14:15Z</time>
      </trkpt>
      <trkpt lat="45.69518" lon="4.72988">
        <ele>290.4555664</ele>
        <time>2011-12-04T05:14:21Z</time>
      </trkpt>
      <trkpt lat="45.69522" lon="4.7299">
        <ele>289.9748535</ele>
        <time>2011-12-04T05:14:23Z</time>
      </trkpt>
      <trkpt lat="45.6953" lon="4.72994">
        <ele>289.9748535</ele>
        <time>2011-12-04T05:14:27Z</time>
      </trkpt>
      <trkpt lat="45.69545" lon="4.73005">
        <ele>289.9748535</ele>
        <time>2011-12-04T05:14:35Z</time>
      </trkpt>
      <trkpt lat="45.69556" lon="4.73013">
        <ele>289.9748535</ele>
        <time>2011-12-04T05:14:41Z</time>
      </trkpt>
      <trkpt lat="45.69569" lon="4.73021">
        <ele>290.9361572</ele>
        <time>2011-12-04T05:14:47Z</time>
      </trkpt>
      <trkpt lat="45.69582" lon="4.73031">
        <ele>290.4555664</ele>
        <time>2011-12-04T05:14:54Z</time>
      </trkpt>
      <trkpt lat="45.69595" lon="4.73039">
        <ele>292.3781738</ele>
        <time>2011-12-04T05:15:00Z</time>
      </trkpt>
      <trkpt lat="45.69609" lon="4.73049">
        <ele>294.3007813</ele>
        <time>2011-12-04T05:15:07Z</time>
      </trkpt>
      <trkpt lat="45.69621" lon="4.73057">
        <ele>295.2619629</ele>
        <time>2011-12-04T05:15:13Z</time>
      </trkpt>
      <trkpt lat="45.6964" lon="4.73068">
        <ele>301.5106201</ele>
        <time>2011-12-04T05:15:21Z</time>
      </trkpt>
      <trkpt lat="45.69655" lon="4.73076">
        <ele>305.8366699</ele>
        <time>2011-12-04T05:15:27Z</time>
      </trkpt>
      <trkpt lat="45.69659" lon="4.73078">
        <ele>305.8366699</ele>
        <time>2011-12-04T05:15:29Z</time>
      </trkpt>
      <trkpt lat="45.69673" lon="4.73083">
        <ele>302.9525146</ele>
        <time>2011-12-04T05:15:36Z</time>
      </trkpt>
      <trkpt lat="45.69686" lon="4.73088">
        <ele>301.991333</ele>
        <time>2011-12-04T05:15:42Z</time>
      </trkpt>
      <trkpt lat="45.69697" lon="4.73094">
        <ele>299.5880127</ele>
        <time>2011-12-04T05:15:48Z</time>
      </trkpt>
      <trkpt lat="45.69709" lon="4.73099">
        <ele>301.5106201</ele>
        <time>2011-12-04T05:15:53Z</time>
      </trkpt>
      <trkpt lat="45.6972" lon="4.73101">
        <ele>303.4332275</ele>
        <time>2011-12-04T05:15:57Z</time>
      </trkpt>
      <trkpt lat="45.69737" lon="4.73103">
        <ele>304.8752441</ele>
        <time>2011-12-04T05:16:03Z</time>
      </trkpt>
      <trkpt lat="45.69748" lon="4.73106">
        <ele>304.3946533</ele>
        <time>2011-12-04T05:16:08Z</time>
      </trkpt>
      <trkpt lat="45.69763" lon="4.73109">
        <ele>305.8366699</ele>
        <time>2011-12-04T05:16:14Z</time>
      </trkpt>
      <trkpt lat="45.69776" lon="4.73109">
        <ele>306.3172607</ele>
        <time>2011-12-04T05:16:20Z</time>
      </trkpt>
      <trkpt lat="45.69787" lon="4.73111">
        <ele>307.2785645</ele>
        <time>2011-12-04T05:16:25Z</time>
      </trkpt>
      <trkpt lat="45.69801" lon="4.73115">
        <ele>308.2398682</ele>
        <time>2011-12-04T05:16:32Z</time>
      </trkpt>
      <trkpt lat="45.6981" lon="4.7312">
        <ele>307.7592773</ele>
        <time>2011-12-04T05:16:37Z</time>
      </trkpt>
      <trkpt lat="45.6982" lon="4.73126">
        <ele>307.2785645</ele>
        <time>2011-12-04T05:16:42Z</time>
      </trkpt>
      <trkpt lat="45.6983" lon="4.73132">
        <ele>305.8366699</ele>
        <time>2011-12-04T05:16:47Z</time>
      </trkpt>
      <trkpt lat="45.69841" lon="4.73141">
        <ele>304.8752441</ele>
        <time>2011-12-04T05:16:53Z</time>
      </trkpt>
      <trkpt lat="45.69849" lon="4.73148">
        <ele>302.9525146</ele>
        <time>2011-12-04T05:16:58Z</time>
      </trkpt>
      <trkpt lat="45.69859" lon="4.73155">
        <ele>301.991333</ele>
        <time>2011-12-04T05:17:04Z</time>
      </trkpt>
      <trkpt lat="45.69871" lon="4.73159">
        <ele>300.5493164</ele>
        <time>2011-12-04T05:17:10Z</time>
      </trkpt>
      <trkpt lat="45.69884" lon="4.73163">
        <ele>305.355957</ele>
        <time>2011-12-04T05:17:15Z</time>
      </trkpt>
      <trkpt lat="45.69897" lon="4.73168">
        <ele>303.9139404</ele>
        <time>2011-12-04T05:17:22Z</time>
      </trkpt>
      <trkpt lat="45.69908" lon="4.73173">
        <ele>305.8366699</ele>
        <time>2011-12-04T05:17:27Z</time>
      </trkpt>
      <trkpt lat="45.69916" lon="4.73177">
        <ele>304.3946533</ele>
        <time>2011-12-04T05:17:31Z</time>
      </trkpt>
      <trkpt lat="45.6993" lon="4.73185">
        <ele>302.9525146</ele>
        <time>2011-12-04T05:17:38Z</time>
      </trkpt>
      <trkpt lat="45.69942" lon="4.73191">
        <ele>301.5106201</ele>
        <time>2011-12-04T05:17:44Z</time>
      </trkpt>
      <trkpt lat="45.69957" lon="4.732">
        <ele>300.5493164</ele>
        <time>2011-12-04T05:17:51Z</time>
      </trkpt>
      <trkpt lat="45.69968" lon="4.7321">
        <ele>299.5880127</ele>
        <time>2011-12-04T05:17:57Z</time>
      </trkpt>
      <trkpt lat="45.69979" lon="4.73221">
        <ele>299.1072998</ele>
        <time>2011-12-04T05:18:03Z</time>
      </trkpt>
      <trkpt lat="45.69992" lon="4.73236">
        <ele>299.1072998</ele>
        <time>2011-12-04T05:18:10Z</time>
      </trkpt>
      <trkpt lat="45.70005" lon="4.73249">
        <ele>301.0299072</ele>
        <time>2011-12-04T05:18:17Z</time>
      </trkpt>
      <trkpt lat="45.7002" lon="4.73262">
        <ele>305.8366699</ele>
        <time>2011-12-04T05:18:24Z</time>
      </trkpt>
      <trkpt lat="45.70032" lon="4.73275">
        <ele>308.720459</ele>
        <time>2011-12-04T05:18:30Z</time>
      </trkpt>
      <trkpt lat="45.70044" lon="4.73285">
        <ele>309.6818848</ele>
        <time>2011-12-04T05:18:36Z</time>
      </trkpt>
      <trkpt lat="45.70053" lon="4.73294">
        <ele>309.2011719</ele>
        <time>2011-12-04T05:18:41Z</time>
      </trkpt>
      <trkpt lat="45.70063" lon="4.73308">
        <ele>310.1624756</ele>
        <time>2011-12-04T05:18:48Z</time>
      </trkpt>
      <trkpt lat="45.70073" lon="4.73325">
        <ele>307.7592773</ele>
        <time>2011-12-04T05:18:55Z</time>
      </trkpt>
      <trkpt lat="45.70078" lon="4.73331">
        <ele>308.2398682</ele>
        <time>2011-12-04T05:18:58Z</time>
      </trkpt>
      <trkpt lat="45.7009" lon="4.73344">
        <ele>309.6818848</ele>
        <time>2011-12-04T05:19:04Z</time>
      </trkpt>
      <trkpt lat="45.70099" lon="4.73356">
        <ele>307.7592773</ele>
        <time>2011-12-04T05:19:09Z</time>
      </trkpt>
      <trkpt lat="45.70109" lon="4.73369">
        <ele>306.7978516</ele>
        <time>2011-12-04T05:19:15Z</time>
      </trkpt>
      <trkpt lat="45.70121" lon="4.73384">
        <ele>307.2785645</ele>
        <time>2011-12-04T05:19:22Z</time>
      </trkpt>
      <trkpt lat="45.7013" lon="4.73399">
        <ele>305.8366699</ele>
        <time>2011-12-04T05:19:28Z</time>
      </trkpt>
      <trkpt lat="45.70136" lon="4.7341">
        <ele>305.8366699</ele>
        <time>2011-12-04T05:19:33Z</time>
      </trkpt>
      <trkpt lat="45.70147" lon="4.73425">
        <ele>305.355957</ele>
        <time>2011-12-04T05:19:40Z</time>
      </trkpt>
      <trkpt lat="45.70155" lon="4.73434">
        <ele>305.8366699</ele>
        <time>2011-12-04T05:19:45Z</time>
      </trkpt>
      <trkpt lat="45.70164" lon="4.73443">
        <ele>305.8366699</ele>
        <time>2011-12-04T05:19:50Z</time>
      </trkpt>
      <trkpt lat="45.70168" lon="4.73446">
        <ele>305.8366699</ele>
        <time>2011-12-04T05:19:52Z</time>
      </trkpt>
      <trkpt lat="45.70175" lon="4.73455">
        <ele>304.8752441</ele>
        <time>2011-12-04T05:19:56Z</time>
      </trkpt>
      <trkpt lat="45.70186" lon="4.73467">
        <ele>303.9139404</ele>
        <time>2011-12-04T05:20:02Z</time>
      </trkpt>
      <trkpt lat="45.70199" lon="4.7348">
        <ele>301.991333</ele>
        <time>2011-12-04T05:20:09Z</time>
      </trkpt>
      <trkpt lat="45.70211" lon="4.73492">
        <ele>301.0299072</ele>
        <time>2011-12-04T05:20:15Z</time>
      </trkpt>
      <trkpt lat="45.7022" lon="4.73504">
        <ele>299.1072998</ele>
        <time>2011-12-04T05:20:21Z</time>
      </trkpt>
      <trkpt lat="45.70229" lon="4.73517">
        <ele>299.1072998</ele>
        <time>2011-12-04T05:20:27Z</time>
      </trkpt>
      <trkpt lat="45.70243" lon="4.7353">
        <ele>300.0687256</ele>
        <time>2011-12-04T05:20:34Z</time>
      </trkpt>
      <trkpt lat="45.70253" lon="4.73539">
        <ele>299.5880127</ele>
        <time>2011-12-04T05:20:39Z</time>
      </trkpt>
      <trkpt lat="45.70264" lon="4.73546">
        <ele>299.5880127</ele>
        <time>2011-12-04T05:20:44Z</time>
      </trkpt>
      <trkpt lat="45.70277" lon="4.73555">
        <ele>298.1461182</ele>
        <time>2011-12-04T05:20:50Z</time>
      </trkpt>
      <trkpt lat="45.70289" lon="4.73565">
        <ele>299.5880127</ele>
        <time>2011-12-04T05:20:55Z</time>
      </trkpt>
      <trkpt lat="45.70304" lon="4.73579">
        <ele>299.5880127</ele>
        <time>2011-12-04T05:21:02Z</time>
      </trkpt>
      <trkpt lat="45.70323" lon="4.73598">
        <ele>305.355957</ele>
        <time>2011-12-04T05:21:10Z</time>
      </trkpt>
      <trkpt lat="45.70333" lon="4.73612">
        <ele>305.8366699</ele>
        <time>2011-12-04T05:21:16Z</time>
      </trkpt>
      <trkpt lat="45.7034" lon="4.73624">
        <ele>304.8752441</ele>
        <time>2011-12-04T05:21:21Z</time>
      </trkpt>
      <trkpt lat="45.70346" lon="4.73637">
        <ele>304.3946533</ele>
        <time>2011-12-04T05:21:26Z</time>
      </trkpt>
      <trkpt lat="45.70354" lon="4.73653">
        <ele>303.9139404</ele>
        <time>2011-12-04T05:21:32Z</time>
      </trkpt>
      <trkpt lat="45.70361" lon="4.73665">
        <ele>302.9525146</ele>
        <time>2011-12-04T05:21:37Z</time>
      </trkpt>
      <trkpt lat="45.70366" lon="4.73676">
        <ele>301.5106201</ele>
        <time>2011-12-04T05:21:42Z</time>
      </trkpt>
      <trkpt lat="45.70375" lon="4.73689">
        <ele>300.5493164</ele>
        <time>2011-12-04T05:21:49Z</time>
      </trkpt>
      <trkpt lat="45.70384" lon="4.73699">
        <ele>298.1461182</ele>
        <time>2011-12-04T05:21:55Z</time>
      </trkpt>
      <trkpt lat="45.70396" lon="4.7371">
        <ele>296.7041016</ele>
        <time>2011-12-04T05:22:01Z</time>
      </trkpt>
      <trkpt lat="45.70412" lon="4.7372">
        <ele>302.4719238</ele>
        <time>2011-12-04T05:22:07Z</time>
      </trkpt>
      <trkpt lat="45.70424" lon="4.7373">
        <ele>302.4719238</ele>
        <time>2011-12-04T05:22:13Z</time>
      </trkpt>
      <trkpt lat="45.70435" lon="4.73739">
        <ele>302.9525146</ele>
        <time>2011-12-04T05:22:19Z</time>
      </trkpt>
      <trkpt lat="45.70445" lon="4.73748">
        <ele>304.3946533</ele>
        <time>2011-12-04T05:22:24Z</time>
      </trkpt>
      <trkpt lat="45.70457" lon="4.73757">
        <ele>306.7978516</ele>
        <time>2011-12-04T05:22:30Z</time>
      </trkpt>
      <trkpt lat="45.70465" lon="4.73759">
        <ele>308.720459</ele>
        <time>2011-12-04T05:22:34Z</time>
      </trkpt>
      <trkpt lat="45.70485" lon="4.7376">
        <ele>320.2563477</ele>
        <time>2011-12-04T05:22:41Z</time>
      </trkpt>
      <trkpt lat="45.70488" lon="4.7376">
        <ele>321.6983643</ele>
        <time>2011-12-04T05:22:42Z</time>
      </trkpt>
      <trkpt lat="45.70496" lon="4.73768">
        <ele>318.8143311</ele>
        <time>2011-12-04T05:22:46Z</time>
      </trkpt>
      <trkpt lat="45.70502" lon="4.7379">
        <ele>312.5657959</ele>
        <time>2011-12-04T05:22:53Z</time>
      </trkpt>
      <trkpt lat="45.70506" lon="4.73798">
        <ele>311.1237793</ele>
        <time>2011-12-04T05:22:56Z</time>
      </trkpt>
      <trkpt lat="45.70514" lon="4.73816">
        <ele>307.2785645</ele>
        <time>2011-12-04T05:23:02Z</time>
      </trkpt>
      <trkpt lat="45.70522" lon="4.73829">
        <ele>307.7592773</ele>
        <time>2011-12-04T05:23:07Z</time>
      </trkpt>
      <trkpt lat="45.70523" lon="4.73832">
        <ele>307.7592773</ele>
        <time>2011-12-04T05:23:08Z</time>
      </trkpt>
      <trkpt lat="45.70532" lon="4.73848">
        <ele>306.7978516</ele>
        <time>2011-12-04T05:23:14Z</time>
      </trkpt>
      <trkpt lat="45.70539" lon="4.73868">
        <ele>304.8752441</ele>
        <time>2011-12-04T05:23:20Z</time>
      </trkpt>
      <trkpt lat="45.70542" lon="4.73883">
        <ele>304.8752441</ele>
        <time>2011-12-04T05:23:24Z</time>
      </trkpt>
      <trkpt lat="45.70545" lon="4.73896">
        <ele>305.355957</ele>
        <time>2011-12-04T05:23:27Z</time>
      </trkpt>
      <trkpt lat="45.7055" lon="4.73913">
        <ele>305.8366699</ele>
        <time>2011-12-04T05:23:32Z</time>
      </trkpt>
      <trkpt lat="45.70552" lon="4.73924">
        <ele>305.355957</ele>
        <time>2011-12-04T05:23:35Z</time>
      </trkpt>
      <trkpt lat="45.70553" lon="4.73949">
        <ele>305.355957</ele>
        <time>2011-12-04T05:23:42Z</time>
      </trkpt>
      <trkpt lat="45.70557" lon="4.73971">
        <ele>302.9525146</ele>
        <time>2011-12-04T05:23:48Z</time>
      </trkpt>
      <trkpt lat="45.70561" lon="4.73987">
        <ele>303.9139404</ele>
        <time>2011-12-04T05:23:53Z</time>
      </trkpt>
      <trkpt lat="45.70563" lon="4.74001">
        <ele>303.4332275</ele>
        <time>2011-12-04T05:23:57Z</time>
      </trkpt>
      <trkpt lat="45.70566" lon="4.74015">
        <ele>303.9139404</ele>
        <time>2011-12-04T05:24:01Z</time>
      </trkpt>
      <trkpt lat="45.70565" lon="4.74033">
        <ele>301.991333</ele>
        <time>2011-12-04T05:24:06Z</time>
      </trkpt>
      <trkpt lat="45.70567" lon="4.74047">
        <ele>301.991333</ele>
        <time>2011-12-04T05:24:10Z</time>
      </trkpt>
      <trkpt lat="45.70568" lon="4.74068">
        <ele>301.991333</ele>
        <time>2011-12-04T05:24:16Z</time>
      </trkpt>
      <trkpt lat="45.70569" lon="4.74093">
        <ele>302.4719238</ele>
        <time>2011-12-04T05:24:23Z</time>
      </trkpt>
      <trkpt lat="45.7057" lon="4.74113">
        <ele>303.4332275</ele>
        <time>2011-12-04T05:24:28Z</time>
      </trkpt>
      <trkpt lat="45.70571" lon="4.74129">
        <ele>302.9525146</ele>
        <time>2011-12-04T05:24:33Z</time>
      </trkpt>
      <trkpt lat="45.70572" lon="4.74139">
        <ele>302.9525146</ele>
        <time>2011-12-04T05:24:36Z</time>
      </trkpt>
      <trkpt lat="45.70578" lon="4.74152">
        <ele>301.991333</ele>
        <time>2011-12-04T05:24:41Z</time>
      </trkpt>
      <trkpt lat="45.70579" lon="4.74155">
        <ele>301.991333</ele>
        <time>2011-12-04T05:24:42Z</time>
      </trkpt>
      <trkpt lat="45.70586" lon="4.74171">
        <ele>301.5106201</ele>
        <time>2011-12-04T05:24:47Z</time>
      </trkpt>
      <trkpt lat="45.70589" lon="4.74183">
        <ele>301.5106201</ele>
        <time>2011-12-04T05:24:51Z</time>
      </trkpt>
      <trkpt lat="45.70594" lon="4.74196">
        <ele>301.5106201</ele>
        <time>2011-12-04T05:24:55Z</time>
      </trkpt>
      <trkpt lat="45.70599" lon="4.74211">
        <ele>299.5880127</ele>
        <time>2011-12-04T05:25:00Z</time>
      </trkpt>
      <trkpt lat="45.70602" lon="4.74217">
        <ele>299.5880127</ele>
        <time>2011-12-04T05:25:02Z</time>
      </trkpt>
      <trkpt lat="45.70605" lon="4.74237">
        <ele>300.0687256</ele>
        <time>2011-12-04T05:25:08Z</time>
      </trkpt>
      <trkpt lat="45.70607" lon="4.74246">
        <ele>300.5493164</ele>
        <time>2011-12-04T05:25:11Z</time>
      </trkpt>
      <trkpt lat="45.7061" lon="4.74266">
        <ele>301.0299072</ele>
        <time>2011-12-04T05:25:17Z</time>
      </trkpt>
      <trkpt lat="45.70613" lon="4.7428">
        <ele>301.5106201</ele>
        <time>2011-12-04T05:25:21Z</time>
      </trkpt>
      <trkpt lat="45.70616" lon="4.74289">
        <ele>302.4719238</ele>
        <time>2011-12-04T05:25:24Z</time>
      </trkpt>
      <trkpt lat="45.7062" lon="4.74303">
        <ele>303.9139404</ele>
        <time>2011-12-04T05:25:28Z</time>
      </trkpt>
      <trkpt lat="45.70626" lon="4.74323">
        <ele>300.0687256</ele>
        <time>2011-12-04T05:25:34Z</time>
      </trkpt>
      <trkpt lat="45.70627" lon="4.74331">
        <ele>298.626709</ele>
        <time>2011-12-04T05:25:37Z</time>
      </trkpt>
      <trkpt lat="45.70634" lon="4.74344">
        <ele>298.626709</ele>
        <time>2011-12-04T05:25:42Z</time>
      </trkpt>
      <trkpt lat="45.70639" lon="4.7436">
        <ele>299.5880127</ele>
        <time>2011-12-04T05:25:47Z</time>
      </trkpt>
      <trkpt lat="45.70643" lon="4.74372">
        <ele>300.0687256</ele>
        <time>2011-12-04T05:25:51Z</time>
      </trkpt>
      <trkpt lat="45.70648" lon="4.74389">
        <ele>300.0687256</ele>
        <time>2011-12-04T05:25:56Z</time>
      </trkpt>
      <trkpt lat="45.70653" lon="4.74405">
        <ele>300.5493164</ele>
        <time>2011-12-04T05:26:01Z</time>
      </trkpt>
      <trkpt lat="45.70657" lon="4.74414">
        <ele>299.5880127</ele>
        <time>2011-12-04T05:26:04Z</time>
      </trkpt>
      <trkpt lat="45.70663" lon="4.74423">
        <ele>299.1072998</ele>
        <time>2011-12-04T05:26:08Z</time>
      </trkpt>
      <trkpt lat="45.70668" lon="4.74433">
        <ele>299.1072998</ele>
        <time>2011-12-04T05:26:12Z</time>
      </trkpt>
      <trkpt lat="45.70672" lon="4.74438">
        <ele>299.1072998</ele>
        <time>2011-12-04T05:26:14Z</time>
      </trkpt>
      <trkpt lat="45.70683" lon="4.74448">
        <ele>298.626709</ele>
        <time>2011-12-04T05:26:20Z</time>
      </trkpt>
      <trkpt lat="45.70692" lon="4.74455">
        <ele>298.1461182</ele>
        <time>2011-12-04T05:26:25Z</time>
      </trkpt>
      <trkpt lat="45.70702" lon="4.7446">
        <ele>297.6654053</ele>
        <time>2011-12-04T05:26:30Z</time>
      </trkpt>
      <trkpt lat="45.70713" lon="4.74468">
        <ele>296.2235107</ele>
        <time>2011-12-04T05:26:36Z</time>
      </trkpt>
      <trkpt lat="45.70725" lon="4.74474">
        <ele>296.7041016</ele>
        <time>2011-12-04T05:26:42Z</time>
      </trkpt>
      <trkpt lat="45.70742" lon="4.74482">
        <ele>298.1461182</ele>
        <time>2011-12-04T05:26:50Z</time>
      </trkpt>
      <trkpt lat="45.70753" lon="4.74488">
        <ele>295.7426758</ele>
        <time>2011-12-04T05:26:55Z</time>
      </trkpt>
      <trkpt lat="45.70766" lon="4.74497">
        <ele>299.1072998</ele>
        <time>2011-12-04T05:27:00Z</time>
      </trkpt>
      <trkpt lat="45.7078" lon="4.74503">
        <ele>296.2235107</ele>
        <time>2011-12-04T05:27:07Z</time>
      </trkpt>
      <trkpt lat="45.70791" lon="4.74509">
        <ele>293.3393555</ele>
        <time>2011-12-04T05:27:12Z</time>
      </trkpt>
      <trkpt lat="45.70802" lon="4.74515">
        <ele>292.3781738</ele>
        <time>2011-12-04T05:27:17Z</time>
      </trkpt>
      <trkpt lat="45.70811" lon="4.74523">
        <ele>295.2619629</ele>
        <time>2011-12-04T05:27:21Z</time>
      </trkpt>
      <trkpt lat="45.70816" lon="4.74527">
        <ele>295.7426758</ele>
        <time>2011-12-04T05:27:24Z</time>
      </trkpt>
      <trkpt lat="45.70829" lon="4.74535">
        <ele>297.6654053</ele>
        <time>2011-12-04T05:27:29Z</time>
      </trkpt>
      <trkpt lat="45.70848" lon="4.74545">
        <ele>301.0299072</ele>
        <time>2011-12-04T05:27:36Z</time>
      </trkpt>
      <trkpt lat="45.70864" lon="4.74556">
        <ele>305.8366699</ele>
        <time>2011-12-04T05:27:42Z</time>
      </trkpt>
      <trkpt lat="45.70874" lon="4.74564">
        <ele>306.3172607</ele>
        <time>2011-12-04T05:27:47Z</time>
      </trkpt>
      <trkpt lat="45.70877" lon="4.74571">
        <ele>307.2785645</ele>
        <time>2011-12-04T05:27:50Z</time>
      </trkpt>
      <trkpt lat="45.70892" lon="4.74572">
        <ele>306.7978516</ele>
        <time>2011-12-04T05:27:55Z</time>
      </trkpt>
      <trkpt lat="45.70906" lon="4.74576">
        <ele>305.8366699</ele>
        <time>2011-12-04T05:28:01Z</time>
      </trkpt>
      <trkpt lat="45.70911" lon="4.74579">
        <ele>305.355957</ele>
        <time>2011-12-04T05:28:04Z</time>
      </trkpt>
      <trkpt lat="45.70916" lon="4.7458">
        <ele>303.9139404</ele>
        <time>2011-12-04T05:28:06Z</time>
      </trkpt>
      <trkpt lat="45.70929" lon="4.74586">
        <ele>304.8752441</ele>
        <time>2011-12-04T05:28:12Z</time>
      </trkpt>
      <trkpt lat="45.70935" lon="4.74588">
        <ele>301.5106201</ele>
        <time>2011-12-04T05:28:15Z</time>
      </trkpt>
      <trkpt lat="45.70942" lon="4.74593">
        <ele>297.6654053</ele>
        <time>2011-12-04T05:28:19Z</time>
      </trkpt>
      <trkpt lat="45.70949" lon="4.74596">
        <ele>294.7813721</ele>
        <time>2011-12-04T05:28:23Z</time>
      </trkpt>
      <trkpt lat="45.7096" lon="4.746">
        <ele>291.8974609</ele>
        <time>2011-12-04T05:28:29Z</time>
      </trkpt>
      <trkpt lat="45.7097" lon="4.746">
        <ele>293.8200684</ele>
        <time>2011-12-04T05:28:33Z</time>
      </trkpt>
      <trkpt lat="45.70988" lon="4.746">
        <ele>299.1072998</ele>
        <time>2011-12-04T05:28:38Z</time>
      </trkpt>
      <trkpt lat="45.70997" lon="4.74596">
        <ele>302.4719238</ele>
        <time>2011-12-04T05:28:41Z</time>
      </trkpt>
      <trkpt lat="45.71014" lon="4.74586">
        <ele>306.7978516</ele>
        <time>2011-12-04T05:28:48Z</time>
      </trkpt>
      <trkpt lat="45.71029" lon="4.74576">
        <ele>307.7592773</ele>
        <time>2011-12-04T05:28:55Z</time>
      </trkpt>
      <trkpt lat="45.71033" lon="4.74574">
        <ele>308.720459</ele>
        <time>2011-12-04T05:28:57Z</time>
      </trkpt>
      <trkpt lat="45.71041" lon="4.74581">
        <ele>306.7978516</ele>
        <time>2011-12-04T05:29:02Z</time>
      </trkpt>
      <trkpt lat="45.71045" lon="4.74588">
        <ele>305.8366699</ele>
        <time>2011-12-04T05:29:05Z</time>
      </trkpt>
      <trkpt lat="45.71054" lon="4.74606">
        <ele>301.5106201</ele>
        <time>2011-12-04T05:29:11Z</time>
      </trkpt>
      <trkpt lat="45.71065" lon="4.74627">
        <ele>303.9139404</ele>
        <time>2011-12-04T05:29:18Z</time>
      </trkpt>
      <trkpt lat="45.71075" lon="4.74648">
        <ele>306.3172607</ele>
        <time>2011-12-04T05:29:24Z</time>
      </trkpt>
      <trkpt lat="45.71084" lon="4.74667">
        <ele>314.0078125</ele>
        <time>2011-12-04T05:29:30Z</time>
      </trkpt>
      <trkpt lat="45.71085" lon="4.74674">
        <ele>316.8917236</ele>
        <time>2011-12-04T05:29:32Z</time>
      </trkpt>
      <trkpt lat="45.71085" lon="4.7469">
        <ele>316.4110107</ele>
        <time>2011-12-04T05:29:37Z</time>
      </trkpt>
      <trkpt lat="45.71081" lon="4.747">
        <ele>313.0465088</ele>
        <time>2011-12-04T05:29:41Z</time>
      </trkpt>
      <trkpt lat="45.71086" lon="4.74718">
        <ele>302.4719238</ele>
        <time>2011-12-04T05:29:47Z</time>
      </trkpt>
      <trkpt lat="45.71089" lon="4.74727">
        <ele>298.1461182</ele>
        <time>2011-12-04T05:29:51Z</time>
      </trkpt>
      <trkpt lat="45.71093" lon="4.74737">
        <ele>295.2619629</ele>
        <time>2011-12-04T05:29:55Z</time>
      </trkpt>
      <trkpt lat="45.71102" lon="4.74747">
        <ele>291.416748</ele>
        <time>2011-12-04T05:30:00Z</time>
      </trkpt>
      <trkpt lat="45.71107" lon="4.74753">
        <ele>287.0908203</ele>
        <time>2011-12-04T05:30:03Z</time>
      </trkpt>
      <trkpt lat="45.7111" lon="4.74771">
        <ele>284.2069092</ele>
        <time>2011-12-04T05:30:09Z</time>
      </trkpt>
      <trkpt lat="45.71111" lon="4.74787">
        <ele>283.2456055</ele>
        <time>2011-12-04T05:30:14Z</time>
      </trkpt>
      <trkpt lat="45.71113" lon="4.74792">
        <ele>283.7261963</ele>
        <time>2011-12-04T05:30:16Z</time>
      </trkpt>
      <trkpt lat="45.71117" lon="4.74803">
        <ele>284.6876221</ele>
        <time>2011-12-04T05:30:20Z</time>
      </trkpt>
      <trkpt lat="45.71109" lon="4.74813">
        <ele>289.4941406</ele>
        <time>2011-12-04T05:30:25Z</time>
      </trkpt>
      <trkpt lat="45.71104" lon="4.74817">
        <ele>291.416748</ele>
        <time>2011-12-04T05:30:27Z</time>
      </trkpt>
      <trkpt lat="45.71087" lon="4.74825">
        <ele>301.0299072</ele>
        <time>2011-12-04T05:30:33Z</time>
      </trkpt>
      <trkpt lat="45.71084" lon="4.74826">
        <ele>301.991333</ele>
        <time>2011-12-04T05:30:34Z</time>
      </trkpt>
      <trkpt lat="45.7106" lon="4.74836">
        <ele>311.1237793</ele>
        <time>2011-12-04T05:30:41Z</time>
      </trkpt>
      <trkpt lat="45.71047" lon="4.74843">
        <ele>314.0078125</ele>
        <time>2011-12-04T05:30:46Z</time>
      </trkpt>
      <trkpt lat="45.71035" lon="4.74843">
        <ele>311.1237793</ele>
        <time>2011-12-04T05:30:51Z</time>
      </trkpt>
      <trkpt lat="45.71029" lon="4.74843">
        <ele>308.720459</ele>
        <time>2011-12-04T05:30:55Z</time>
      </trkpt>
      <trkpt lat="45.71017" lon="4.74851">
        <ele>306.7978516</ele>
        <time>2011-12-04T05:31:01Z</time>
      </trkpt>
      <trkpt lat="45.71011" lon="4.74855">
        <ele>307.2785645</ele>
        <time>2011-12-04T05:31:03Z</time>
      </trkpt>
      <trkpt lat="45.70994" lon="4.7486">
        <ele>301.991333</ele>
        <time>2011-12-04T05:31:09Z</time>
      </trkpt>
      <trkpt lat="45.7098" lon="4.74868">
        <ele>301.0299072</ele>
        <time>2011-12-04T05:31:14Z</time>
      </trkpt>
      <trkpt lat="45.70971" lon="4.7487">
        <ele>301.5106201</ele>
        <time>2011-12-04T05:31:18Z</time>
      </trkpt>
      <trkpt lat="45.70957" lon="4.74879">
        <ele>300.0687256</ele>
        <time>2011-12-04T05:31:25Z</time>
      </trkpt>
      <trkpt lat="45.70955" lon="4.7488">
        <ele>299.5880127</ele>
        <time>2011-12-04T05:31:26Z</time>
      </trkpt>
      <trkpt lat="45.70937" lon="4.74884">
        <ele>301.991333</ele>
        <time>2011-12-04T05:31:32Z</time>
      </trkpt>
      <trkpt lat="45.70934" lon="4.74885">
        <ele>301.5106201</ele>
        <time>2011-12-04T05:31:33Z</time>
      </trkpt>
      <trkpt lat="45.70926" lon="4.74887">
        <ele>304.8752441</ele>
        <time>2011-12-04T05:31:37Z</time>
      </trkpt>
      <trkpt lat="45.70911" lon="4.74888">
        <ele>305.8366699</ele>
        <time>2011-12-04T05:31:43Z</time>
      </trkpt>
      <trkpt lat="45.70906" lon="4.74889">
        <ele>307.7592773</ele>
        <time>2011-12-04T05:31:45Z</time>
      </trkpt>
      <trkpt lat="45.70888" lon="4.74894">
        <ele>308.2398682</ele>
        <time>2011-12-04T05:31:50Z</time>
      </trkpt>
      <trkpt lat="45.70872" lon="4.74901">
        <ele>308.720459</ele>
        <time>2011-12-04T05:31:54Z</time>
      </trkpt>
      <trkpt lat="45.70865" lon="4.74904">
        <ele>307.2785645</ele>
        <time>2011-12-04T05:31:59Z</time>
      </trkpt>
      <trkpt lat="45.70856" lon="4.7491">
        <ele>306.3172607</ele>
        <time>2011-12-04T05:32:04Z</time>
      </trkpt>
      <trkpt lat="45.70848" lon="4.74914">
        <ele>305.8366699</ele>
        <time>2011-12-04T05:32:07Z</time>
      </trkpt>
      <trkpt lat="45.70835" lon="4.74919">
        <ele>303.4332275</ele>
        <time>2011-12-04T05:32:12Z</time>
      </trkpt>
      <trkpt lat="45.70825" lon="4.74923">
        <ele>300.5493164</ele>
        <time>2011-12-04T05:32:18Z</time>
      </trkpt>
      <trkpt lat="45.7082" lon="4.74927">
        <ele>298.1461182</ele>
        <time>2011-12-04T05:32:21Z</time>
      </trkpt>
      <trkpt lat="45.70808" lon="4.74937">
        <ele>295.7426758</ele>
        <time>2011-12-04T05:32:27Z</time>
      </trkpt>
      <trkpt lat="45.70803" lon="4.74942">
        <ele>296.7041016</ele>
        <time>2011-12-04T05:32:29Z</time>
      </trkpt>
      <trkpt lat="45.70794" lon="4.7495">
        <ele>295.7426758</ele>
        <time>2011-12-04T05:32:35Z</time>
      </trkpt>
      <trkpt lat="45.70787" lon="4.74967">
        <ele>297.1846924</ele>
        <time>2011-12-04T05:32:40Z</time>
      </trkpt>
      <trkpt lat="45.70786" lon="4.74971">
        <ele>296.7041016</ele>
        <time>2011-12-04T05:32:41Z</time>
      </trkpt>
      <trkpt lat="45.7077" lon="4.74992">
        <ele>297.1846924</ele>
        <time>2011-12-04T05:32:48Z</time>
      </trkpt>
      <trkpt lat="45.70757" lon="4.75006">
        <ele>301.0299072</ele>
        <time>2011-12-04T05:32:52Z</time>
      </trkpt>
      <trkpt lat="45.70754" lon="4.75019">
        <ele>300.0687256</ele>
        <time>2011-12-04T05:32:57Z</time>
      </trkpt>
      <trkpt lat="45.70756" lon="4.7504">
        <ele>298.1461182</ele>
        <time>2011-12-04T05:33:03Z</time>
      </trkpt>
      <trkpt lat="45.70755" lon="4.75051">
        <ele>297.6654053</ele>
        <time>2011-12-04T05:33:06Z</time>
      </trkpt>
      <trkpt lat="45.70754" lon="4.7506">
        <ele>297.1846924</ele>
        <time>2011-12-04T05:33:08Z</time>
      </trkpt>
      <trkpt lat="45.70748" lon="4.75079">
        <ele>292.3781738</ele>
        <time>2011-12-04T05:33:14Z</time>
      </trkpt>
      <trkpt lat="45.70755" lon="4.75094">
        <ele>291.416748</ele>
        <time>2011-12-04T05:33:19Z</time>
      </trkpt>
      <trkpt lat="45.70755" lon="4.7511">
        <ele>289.9748535</ele>
        <time>2011-12-04T05:33:24Z</time>
      </trkpt>
      <trkpt lat="45.70748" lon="4.75125">
        <ele>289.0135498</ele>
        <time>2011-12-04T05:33:30Z</time>
      </trkpt>
      <trkpt lat="45.70732" lon="4.75135">
        <ele>290.9361572</ele>
        <time>2011-12-04T05:33:34Z</time>
      </trkpt>
      <trkpt lat="45.70723" lon="4.75136">
        <ele>289.9748535</ele>
        <time>2011-12-04T05:33:39Z</time>
      </trkpt>
      <trkpt lat="45.70719" lon="4.75133">
        <ele>290.9361572</ele>
        <time>2011-12-04T05:33:42Z</time>
      </trkpt>
      <trkpt lat="45.70707" lon="4.75136">
        <ele>293.8200684</ele>
        <time>2011-12-04T05:33:48Z</time>
      </trkpt>
      <trkpt lat="45.70698" lon="4.75136">
        <ele>295.2619629</ele>
        <time>2011-12-04T05:33:52Z</time>
      </trkpt>
      <trkpt lat="45.70692" lon="4.75138">
        <ele>292.3781738</ele>
        <time>2011-12-04T05:33:55Z</time>
      </trkpt>
      <trkpt lat="45.70682" lon="4.75139">
        <ele>288.0522461</ele>
        <time>2011-12-04T05:33:59Z</time>
      </trkpt>
      <trkpt lat="45.70674" lon="4.75142">
        <ele>286.6102295</ele>
        <time>2011-12-04T05:34:03Z</time>
      </trkpt>
      <trkpt lat="45.70669" lon="4.75144">
        <ele>286.6102295</ele>
        <time>2011-12-04T05:34:06Z</time>
      </trkpt>
      <trkpt lat="45.70657" lon="4.75142">
        <ele>283.2456055</ele>
        <time>2011-12-04T05:34:11Z</time>
      </trkpt>
      <trkpt lat="45.70645" lon="4.75139">
        <ele>283.7261963</ele>
        <time>2011-12-04T05:34:16Z</time>
      </trkpt>
      <trkpt lat="45.70641" lon="4.75138">
        <ele>282.2843018</ele>
        <time>2011-12-04T05:34:18Z</time>
      </trkpt>
      <trkpt lat="45.70637" lon="4.75138">
        <ele>283.7261963</ele>
        <time>2011-12-04T05:34:20Z</time>
      </trkpt>
      <trkpt lat="45.70629" lon="4.75142">
        <ele>284.2069092</ele>
        <time>2011-12-04T05:34:23Z</time>
      </trkpt>
      <trkpt lat="45.70617" lon="4.75148">
        <ele>283.2456055</ele>
        <time>2011-12-04T05:34:29Z</time>
      </trkpt>
      <trkpt lat="45.70615" lon="4.75149">
        <ele>282.7650146</ele>
        <time>2011-12-04T05:34:30Z</time>
      </trkpt>
      <trkpt lat="45.70605" lon="4.75156">
        <ele>283.2456055</ele>
        <time>2011-12-04T05:34:34Z</time>
      </trkpt>
      <trkpt lat="45.70596" lon="4.75165">
        <ele>285.6488037</ele>
        <time>2011-12-04T05:34:39Z</time>
      </trkpt>
      <trkpt lat="45.70587" lon="4.75175">
        <ele>284.6876221</ele>
        <time>2011-12-04T05:34:44Z</time>
      </trkpt>
      <trkpt lat="45.7058" lon="4.75183">
        <ele>283.2456055</ele>
        <time>2011-12-04T05:34:48Z</time>
      </trkpt>
      <trkpt lat="45.70573" lon="4.75194">
        <ele>280.8424072</ele>
        <time>2011-12-04T05:34:53Z</time>
      </trkpt>
      <trkpt lat="45.70565" lon="4.75205">
        <ele>279.4002686</ele>
        <time>2011-12-04T05:34:58Z</time>
      </trkpt>
      <trkpt lat="45.70556" lon="4.75219">
        <ele>278.4389648</ele>
        <time>2011-12-04T05:35:03Z</time>
      </trkpt>
      <trkpt lat="45.70552" lon="4.75224">
        <ele>278.4389648</ele>
        <time>2011-12-04T05:35:05Z</time>
      </trkpt>
      <trkpt lat="45.70544" lon="4.75239">
        <ele>282.2843018</ele>
        <time>2011-12-04T05:35:10Z</time>
      </trkpt>
      <trkpt lat="45.70535" lon="4.75255">
        <ele>285.6488037</ele>
        <time>2011-12-04T05:35:15Z</time>
      </trkpt>
      <trkpt lat="45.70524" lon="4.75268">
        <ele>288.0522461</ele>
        <time>2011-12-04T05:35:19Z</time>
      </trkpt>
      <trkpt lat="45.70523" lon="4.75271">
        <ele>287.0908203</ele>
        <time>2011-12-04T05:35:21Z</time>
      </trkpt>
      <trkpt lat="45.70515" lon="4.75287">
        <ele>286.1295166</ele>
        <time>2011-12-04T05:35:28Z</time>
      </trkpt>
      <trkpt lat="45.7051" lon="4.75297">
        <ele>281.8035889</ele>
        <time>2011-12-04T05:35:32Z</time>
      </trkpt>
      <trkpt lat="45.70503" lon="4.7531">
        <ele>278.9196777</ele>
        <time>2011-12-04T05:35:37Z</time>
      </trkpt>
      <trkpt lat="45.705" lon="4.75318">
        <ele>277.958252</ele>
        <time>2011-12-04T05:35:40Z</time>
      </trkpt>
      <trkpt lat="45.70492" lon="4.75334">
        <ele>277.4776611</ele>
        <time>2011-12-04T05:35:46Z</time>
      </trkpt>
      <trkpt lat="45.70484" lon="4.7534">
        <ele>274.1130371</ele>
        <time>2011-12-04T05:35:50Z</time>
      </trkpt>
      <trkpt lat="45.70476" lon="4.75349">
        <ele>268.8258057</ele>
        <time>2011-12-04T05:35:57Z</time>
      </trkpt>
      <trkpt lat="45.70467" lon="4.75354">
        <ele>264.9805908</ele>
        <time>2011-12-04T05:36:03Z</time>
      </trkpt>
      <trkpt lat="45.70455" lon="4.75363">
        <ele>264.9805908</ele>
        <time>2011-12-04T05:36:11Z</time>
      </trkpt>
      <trkpt lat="45.70449" lon="4.75368">
        <ele>267.3839111</ele>
        <time>2011-12-04T05:36:16Z</time>
      </trkpt>
      <trkpt lat="45.70444" lon="4.75372">
        <ele>264.4998779</ele>
        <time>2011-12-04T05:36:22Z</time>
      </trkpt>
      <trkpt lat="45.70439" lon="4.75379">
        <ele>264.9805908</ele>
        <time>2011-12-04T05:36:28Z</time>
      </trkpt>
      <trkpt lat="45.70436" lon="4.75383">
        <ele>265.4613037</ele>
        <time>2011-12-04T05:36:32Z</time>
      </trkpt>
      <trkpt lat="45.70432" lon="4.75389">
        <ele>266.4224854</ele>
        <time>2011-12-04T05:36:36Z</time>
      </trkpt>
      <trkpt lat="45.70429" lon="4.75396">
        <ele>267.864502</ele>
        <time>2011-12-04T05:36:40Z</time>
      </trkpt>
      <trkpt lat="45.70426" lon="4.75406">
        <ele>268.8258057</ele>
        <time>2011-12-04T05:36:46Z</time>
      </trkpt>
      <trkpt lat="45.70427" lon="4.75412">
        <ele>272.1904297</ele>
        <time>2011-12-04T05:36:51Z</time>
      </trkpt>
      <trkpt lat="45.70431" lon="4.75419">
        <ele>277.958252</ele>
        <time>2011-12-04T05:36:57Z</time>
      </trkpt>
      <trkpt lat="45.70433" lon="4.75426">
        <ele>279.4002686</ele>
        <time>2011-12-04T05:37:03Z</time>
      </trkpt>
      <trkpt lat="45.70434" lon="4.75433">
        <ele>279.8808594</ele>
        <time>2011-12-04T05:37:08Z</time>
      </trkpt>
      <trkpt lat="45.70435" lon="4.75438">
        <ele>278.4389648</ele>
        <time>2011-12-04T05:37:11Z</time>
      </trkpt>
      <trkpt lat="45.70437" lon="4.75444">
        <ele>277.4776611</ele>
        <time>2011-12-04T05:37:17Z</time>
      </trkpt>
      <trkpt lat="45.70439" lon="4.75455">
        <ele>280.8424072</ele>
        <time>2011-12-04T05:37:24Z</time>
      </trkpt>
      <trkpt lat="45.70439" lon="4.75458">
        <ele>280.8424072</ele>
        <time>2011-12-04T05:37:26Z</time>
      </trkpt>
      <trkpt lat="45.7044" lon="4.75464">
        <ele>281.322998</ele>
        <time>2011-12-04T05:37:29Z</time>
      </trkpt>
      <trkpt lat="45.70443" lon="4.75471">
        <ele>283.2456055</ele>
        <time>2011-12-04T05:37:35Z</time>
      </trkpt>
      <trkpt lat="45.70444" lon="4.75478">
        <ele>283.7261963</ele>
        <time>2011-12-04T05:37:41Z</time>
      </trkpt>
      <trkpt lat="45.70446" lon="4.75484">
        <ele>282.2843018</ele>
        <time>2011-12-04T05:37:46Z</time>
      </trkpt>
      <trkpt lat="45.70448" lon="4.75489">
        <ele>283.7261963</ele>
        <time>2011-12-04T05:37:51Z</time>
      </trkpt>
      <trkpt lat="45.7045" lon="4.75494">
        <ele>283.2456055</ele>
        <time>2011-12-04T05:37:57Z</time>
      </trkpt>
      <trkpt lat="45.70453" lon="4.75502">
        <ele>280.8424072</ele>
        <time>2011-12-04T05:38:04Z</time>
      </trkpt>
      <trkpt lat="45.70458" lon="4.75508">
        <ele>280.8424072</ele>
        <time>2011-12-04T05:38:12Z</time>
      </trkpt>
      <trkpt lat="45.7046" lon="4.75512">
        <ele>282.7650146</ele>
        <time>2011-12-04T05:38:19Z</time>
      </trkpt>
      <trkpt lat="45.70461" lon="4.75512">
        <ele>283.7261963</ele>
        <time>2011-12-04T05:38:21Z</time>
      </trkpt>
      <trkpt lat="45.70465" lon="4.75512">
        <ele>286.1295166</ele>
        <time>2011-12-04T05:38:24Z</time>
      </trkpt>
      <trkpt lat="45.7047" lon="4.7551">
        <ele>288.532959</ele>
        <time>2011-12-04T05:38:29Z</time>
      </trkpt>
      <trkpt lat="45.70471" lon="4.7551">
        <ele>288.532959</ele>
        <time>2011-12-04T05:38:30Z</time>
      </trkpt>
      <trkpt lat="45.70479" lon="4.75509">
        <ele>287.5714111</ele>
        <time>2011-12-04T05:38:37Z</time>
      </trkpt>
      <trkpt lat="45.70486" lon="4.75509">
        <ele>288.532959</ele>
        <time>2011-12-04T05:38:43Z</time>
      </trkpt>
      <trkpt lat="45.70495" lon="4.75509">
        <ele>289.9748535</ele>
        <time>2011-12-04T05:38:48Z</time>
      </trkpt>
      <trkpt lat="45.705" lon="4.75509">
        <ele>288.532959</ele>
        <time>2011-12-04T05:38:52Z</time>
      </trkpt>
      <trkpt lat="45.70506" lon="4.75508">
        <ele>288.532959</ele>
        <time>2011-12-04T05:38:57Z</time>
      </trkpt>
      <trkpt lat="45.70519" lon="4.75509">
        <ele>289.4941406</ele>
        <time>2011-12-04T05:39:05Z</time>
      </trkpt>
      <trkpt lat="45.70525" lon="4.75509">
        <ele>291.416748</ele>
        <time>2011-12-04T05:39:10Z</time>
      </trkpt>
      <trkpt lat="45.70537" lon="4.75512">
        <ele>293.8200684</ele>
        <time>2011-12-04T05:39:18Z</time>
      </trkpt>
      <trkpt lat="45.70546" lon="4.75515">
        <ele>293.3393555</ele>
        <time>2011-12-04T05:39:25Z</time>
      </trkpt>
      <trkpt lat="45.70552" lon="4.75519">
        <ele>293.3393555</ele>
        <time>2011-12-04T05:39:30Z</time>
      </trkpt>
      <trkpt lat="45.70559" lon="4.75528">
        <ele>292.8587646</ele>
        <time>2011-12-04T05:39:38Z</time>
      </trkpt>
      <trkpt lat="45.70563" lon="4.75538">
        <ele>295.2619629</ele>
        <time>2011-12-04T05:39:45Z</time>
      </trkpt>
      <trkpt lat="45.7057" lon="4.7555">
        <ele>300.0687256</ele>
        <time>2011-12-04T05:39:53Z</time>
      </trkpt>
      <trkpt lat="45.70572" lon="4.75553">
        <ele>300.0687256</ele>
        <time>2011-12-04T05:39:55Z</time>
      </trkpt>
      <trkpt lat="45.70574" lon="4.75563">
        <ele>299.5880127</ele>
        <time>2011-12-04T05:40:00Z</time>
      </trkpt>
      <trkpt lat="45.70578" lon="4.75576">
        <ele>301.0299072</ele>
        <time>2011-12-04T05:40:07Z</time>
      </trkpt>
      <trkpt lat="45.70578" lon="4.75582">
        <ele>301.5106201</ele>
        <time>2011-12-04T05:40:10Z</time>
      </trkpt>
      <trkpt lat="45.70579" lon="4.75594">
        <ele>303.9139404</ele>
        <time>2011-12-04T05:40:16Z</time>
      </trkpt>
      <trkpt lat="45.70581" lon="4.75605">
        <ele>303.4332275</ele>
        <time>2011-12-04T05:40:23Z</time>
      </trkpt>
      <trkpt lat="45.70583" lon="4.75609">
        <ele>306.3172607</ele>
        <time>2011-12-04T05:40:25Z</time>
      </trkpt>
      <trkpt lat="45.70582" lon="4.75612">
        <ele>306.7978516</ele>
        <time>2011-12-04T05:40:27Z</time>
      </trkpt>
      <trkpt lat="45.70584" lon="4.75623">
        <ele>310.1624756</ele>
        <time>2011-12-04T05:40:33Z</time>
      </trkpt>
      <trkpt lat="45.70584" lon="4.75641">
        <ele>311.1237793</ele>
        <time>2011-12-04T05:40:42Z</time>
      </trkpt>
      <trkpt lat="45.70585" lon="4.75658">
        <ele>313.0465088</ele>
        <time>2011-12-04T05:40:50Z</time>
      </trkpt>
      <trkpt lat="45.70585" lon="4.75674">
        <ele>312.0852051</ele>
        <time>2011-12-04T05:40:58Z</time>
      </trkpt>
      <trkpt lat="45.70589" lon="4.75692">
        <ele>314.0078125</ele>
        <time>2011-12-04T05:41:07Z</time>
      </trkpt>
      <trkpt lat="45.70593" lon="4.75708">
        <ele>311.6044922</ele>
        <time>2011-12-04T05:41:16Z</time>
      </trkpt>
      <trkpt lat="45.70596" lon="4.75721">
        <ele>309.6818848</ele>
        <time>2011-12-04T05:41:23Z</time>
      </trkpt>
      <trkpt lat="45.70598" lon="4.75727">
        <ele>309.6818848</ele>
        <time>2011-12-04T05:41:26Z</time>
      </trkpt>
      <trkpt lat="45.70603" lon="4.75737">
        <ele>311.6044922</ele>
        <time>2011-12-04T05:41:32Z</time>
      </trkpt>
      <trkpt lat="45.70604" lon="4.75739">
        <ele>312.0852051</ele>
        <time>2011-12-04T05:41:33Z</time>
      </trkpt>
      <trkpt lat="45.70612" lon="4.75751">
        <ele>314.9691162</ele>
        <time>2011-12-04T05:41:38Z</time>
      </trkpt>
      <trkpt lat="45.70617" lon="4.75768">
        <ele>312.0852051</ele>
        <time>2011-12-04T05:41:44Z</time>
      </trkpt>
      <trkpt lat="45.70621" lon="4.75777">
        <ele>310.6430664</ele>
        <time>2011-12-04T05:41:48Z</time>
      </trkpt>
      <trkpt lat="45.70624" lon="4.75792">
        <ele>307.7592773</ele>
        <time>2011-12-04T05:41:53Z</time>
      </trkpt>
      <trkpt lat="45.70625" lon="4.75814">
        <ele>308.720459</ele>
        <time>2011-12-04T05:41:59Z</time>
      </trkpt>
      <trkpt lat="45.70625" lon="4.75827">
        <ele>307.7592773</ele>
        <time>2011-12-04T05:42:03Z</time>
      </trkpt>
      <trkpt lat="45.70623" lon="4.75845">
        <ele>309.6818848</ele>
        <time>2011-12-04T05:42:08Z</time>
      </trkpt>
      <trkpt lat="45.70625" lon="4.75863">
        <ele>310.6430664</ele>
        <time>2011-12-04T05:42:12Z</time>
      </trkpt>
      <trkpt lat="45.70627" lon="4.75875">
        <ele>311.1237793</ele>
        <time>2011-12-04T05:42:15Z</time>
      </trkpt>
      <trkpt lat="45.70626" lon="4.75879">
        <ele>310.6430664</ele>
        <time>2011-12-04T05:42:16Z</time>
      </trkpt>
      <trkpt lat="45.70628" lon="4.75895">
        <ele>308.2398682</ele>
        <time>2011-12-04T05:42:21Z</time>
      </trkpt>
      <trkpt lat="45.7063" lon="4.75902">
        <ele>307.7592773</ele>
        <time>2011-12-04T05:42:23Z</time>
      </trkpt>
      <trkpt lat="45.70633" lon="4.75916">
        <ele>305.355957</ele>
        <time>2011-12-04T05:42:28Z</time>
      </trkpt>
      <trkpt lat="45.70634" lon="4.75922">
        <ele>304.8752441</ele>
        <time>2011-12-04T05:42:30Z</time>
      </trkpt>
      <trkpt lat="45.70637" lon="4.75944">
        <ele>305.8366699</ele>
        <time>2011-12-04T05:42:36Z</time>
      </trkpt>
      <trkpt lat="45.7064" lon="4.7596">
        <ele>305.355957</ele>
        <time>2011-12-04T05:42:41Z</time>
      </trkpt>
      <trkpt lat="45.70639" lon="4.75976">
        <ele>304.3946533</ele>
        <time>2011-12-04T05:42:46Z</time>
      </trkpt>
      <trkpt lat="45.70635" lon="4.76001">
        <ele>304.3946533</ele>
        <time>2011-12-04T05:42:54Z</time>
      </trkpt>
      <trkpt lat="45.70632" lon="4.76013">
        <ele>304.8752441</ele>
        <time>2011-12-04T05:42:57Z</time>
      </trkpt>
      <trkpt lat="45.70628" lon="4.76032">
        <ele>306.3172607</ele>
        <time>2011-12-04T05:43:02Z</time>
      </trkpt>
      <trkpt lat="45.70628" lon="4.76042">
        <ele>305.8366699</ele>
        <time>2011-12-04T05:43:05Z</time>
      </trkpt>
      <trkpt lat="45.70629" lon="4.76045">
        <ele>304.3946533</ele>
        <time>2011-12-04T05:43:06Z</time>
      </trkpt>
      <trkpt lat="45.70629" lon="4.76063">
        <ele>301.991333</ele>
        <time>2011-12-04T05:43:11Z</time>
      </trkpt>
      <trkpt lat="45.70629" lon="4.76075">
        <ele>300.5493164</ele>
        <time>2011-12-04T05:43:15Z</time>
      </trkpt>
      <trkpt lat="45.70627" lon="4.76096">
        <ele>298.626709</ele>
        <time>2011-12-04T05:43:21Z</time>
      </trkpt>
      <trkpt lat="45.7063" lon="4.761">
        <ele>297.6654053</ele>
        <time>2011-12-04T05:43:23Z</time>
      </trkpt>
      <trkpt lat="45.70637" lon="4.76102">
        <ele>297.6654053</ele>
        <time>2011-12-04T05:43:28Z</time>
      </trkpt>
      <trkpt lat="45.70646" lon="4.76102">
        <ele>300.5493164</ele>
        <time>2011-12-04T05:43:33Z</time>
      </trkpt>
      <trkpt lat="45.70656" lon="4.76101">
        <ele>300.5493164</ele>
        <time>2011-12-04T05:43:41Z</time>
      </trkpt>
      <trkpt lat="45.70664" lon="4.76101">
        <ele>300.5493164</ele>
        <time>2011-12-04T05:43:47Z</time>
      </trkpt>
      <trkpt lat="45.70666" lon="4.76102">
        <ele>301.991333</ele>
        <time>2011-12-04T05:43:48Z</time>
      </trkpt>
      <trkpt lat="45.70676" lon="4.76102">
        <ele>303.9139404</ele>
        <time>2011-12-04T05:43:56Z</time>
      </trkpt>
      <trkpt lat="45.70685" lon="4.76103">
        <ele>303.4332275</ele>
        <time>2011-12-04T05:44:03Z</time>
      </trkpt>
      <trkpt lat="45.70694" lon="4.76104">
        <ele>305.355957</ele>
        <time>2011-12-04T05:44:09Z</time>
      </trkpt>
      <trkpt lat="45.70704" lon="4.76103">
        <ele>302.9525146</ele>
        <time>2011-12-04T05:44:16Z</time>
      </trkpt>
      <trkpt lat="45.70714" lon="4.76104">
        <ele>303.4332275</ele>
        <time>2011-12-04T05:44:23Z</time>
      </trkpt>
      <trkpt lat="45.70723" lon="4.76104">
        <ele>301.5106201</ele>
        <time>2011-12-04T05:44:30Z</time>
      </trkpt>
      <trkpt lat="45.70736" lon="4.76104">
        <ele>303.4332275</ele>
        <time>2011-12-04T05:44:38Z</time>
      </trkpt>
      <trkpt lat="45.70747" lon="4.76107">
        <ele>308.720459</ele>
        <time>2011-12-04T05:44:45Z</time>
      </trkpt>
      <trkpt lat="45.70754" lon="4.76106">
        <ele>305.355957</ele>
        <time>2011-12-04T05:44:51Z</time>
      </trkpt>
      <trkpt lat="45.70766" lon="4.76107">
        <ele>304.8752441</ele>
        <time>2011-12-04T05:44:59Z</time>
      </trkpt>
      <trkpt lat="45.7078" lon="4.76108">
        <ele>306.7978516</ele>
        <time>2011-12-04T05:45:07Z</time>
      </trkpt>
      <trkpt lat="45.70792" lon="4.76108">
        <ele>306.3172607</ele>
        <time>2011-12-04T05:45:15Z</time>
      </trkpt>
      <trkpt lat="45.70808" lon="4.76104">
        <ele>310.1624756</ele>
        <time>2011-12-04T05:45:25Z</time>
      </trkpt>
      <trkpt lat="45.70822" lon="4.76094">
        <ele>312.0852051</ele>
        <time>2011-12-04T05:45:35Z</time>
      </trkpt>
      <trkpt lat="45.70831" lon="4.76086">
        <ele>310.1624756</ele>
        <time>2011-12-04T05:45:42Z</time>
      </trkpt>
      <trkpt lat="45.70838" lon="4.76079">
        <ele>313.0465088</ele>
        <time>2011-12-04T05:45:48Z</time>
      </trkpt>
      <trkpt lat="45.70848" lon="4.76074">
        <ele>314.4884033</ele>
        <time>2011-12-04T05:45:54Z</time>
      </trkpt>
      <trkpt lat="45.70856" lon="4.76071">
        <ele>314.0078125</ele>
        <time>2011-12-04T05:46:00Z</time>
      </trkpt>
      <trkpt lat="45.70863" lon="4.76071">
        <ele>314.4884033</ele>
        <time>2011-12-04T05:46:05Z</time>
      </trkpt>
      <trkpt lat="45.70871" lon="4.76074">
        <ele>315.4498291</ele>
        <time>2011-12-04T05:46:10Z</time>
      </trkpt>
      <trkpt lat="45.70884" lon="4.76079">
        <ele>319.2950439</ele>
        <time>2011-12-04T05:46:17Z</time>
      </trkpt>
      <trkpt lat="45.70897" lon="4.76086">
        <ele>321.2177734</ele>
        <time>2011-12-04T05:46:26Z</time>
      </trkpt>
      <trkpt lat="45.70906" lon="4.76088">
        <ele>326.0241699</ele>
        <time>2011-12-04T05:46:32Z</time>
      </trkpt>
      <trkpt lat="45.7091" lon="4.76091">
        <ele>325.5435791</ele>
        <time>2011-12-04T05:46:34Z</time>
      </trkpt>
      <trkpt lat="45.70917" lon="4.76112">
        <ele>324.5822754</ele>
        <time>2011-12-04T05:46:40Z</time>
      </trkpt>
      <trkpt lat="45.70914" lon="4.76131">
        <ele>325.0629883</ele>
        <time>2011-12-04T05:46:45Z</time>
      </trkpt>
      <trkpt lat="45.70913" lon="4.76147">
        <ele>324.5822754</ele>
        <time>2011-12-04T05:46:49Z</time>
      </trkpt>
      <trkpt lat="45.7091" lon="4.76165">
        <ele>322.659668</ele>
        <time>2011-12-04T05:46:54Z</time>
      </trkpt>
      <trkpt lat="45.70907" lon="4.76178">
        <ele>321.2177734</ele>
        <time>2011-12-04T05:46:57Z</time>
      </trkpt>
      <trkpt lat="45.70908" lon="4.76199">
        <ele>315.9304199</ele>
        <time>2011-12-04T05:47:03Z</time>
      </trkpt>
      <trkpt lat="45.70907" lon="4.76209">
        <ele>312.5657959</ele>
        <time>2011-12-04T05:47:06Z</time>
      </trkpt>
      <trkpt lat="45.70906" lon="4.76215">
        <ele>310.6430664</ele>
        <time>2011-12-04T05:47:08Z</time>
      </trkpt>
      <trkpt lat="45.70905" lon="4.76231">
        <ele>307.7592773</ele>
        <time>2011-12-04T05:47:13Z</time>
      </trkpt>
      <trkpt lat="45.70902" lon="4.76251">
        <ele>306.7978516</ele>
        <time>2011-12-04T05:47:18Z</time>
      </trkpt>
      <trkpt lat="45.70903" lon="4.76269">
        <ele>306.3172607</ele>
        <time>2011-12-04T05:47:23Z</time>
      </trkpt>
      <trkpt lat="45.709" lon="4.76289">
        <ele>302.4719238</ele>
        <time>2011-12-04T05:47:29Z</time>
      </trkpt>
      <trkpt lat="45.70897" lon="4.76311">
        <ele>300.0687256</ele>
        <time>2011-12-04T05:47:36Z</time>
      </trkpt>
      <trkpt lat="45.70894" lon="4.76333">
        <ele>298.626709</ele>
        <time>2011-12-04T05:47:42Z</time>
      </trkpt>
      <trkpt lat="45.70893" lon="4.7635">
        <ele>297.6654053</ele>
        <time>2011-12-04T05:47:47Z</time>
      </trkpt>
      <trkpt lat="45.70895" lon="4.76354">
        <ele>297.6654053</ele>
        <time>2011-12-04T05:47:49Z</time>
      </trkpt>
      <trkpt lat="45.70903" lon="4.76363">
        <ele>297.6654053</ele>
        <time>2011-12-04T05:47:54Z</time>
      </trkpt>
      <trkpt lat="45.70914" lon="4.76366">
        <ele>294.7813721</ele>
        <time>2011-12-04T05:48:00Z</time>
      </trkpt>
      <trkpt lat="45.70926" lon="4.76365">
        <ele>293.3393555</ele>
        <time>2011-12-04T05:48:06Z</time>
      </trkpt>
      <trkpt lat="45.70943" lon="4.76365">
        <ele>293.8200684</ele>
        <time>2011-12-04T05:48:12Z</time>
      </trkpt>
      <trkpt lat="45.7096" lon="4.76364">
        <ele>294.7813721</ele>
        <time>2011-12-04T05:48:19Z</time>
      </trkpt>
      <trkpt lat="45.70972" lon="4.76363">
        <ele>292.8587646</ele>
        <time>2011-12-04T05:48:24Z</time>
      </trkpt>
      <trkpt lat="45.7099" lon="4.76362">
        <ele>301.0299072</ele>
        <time>2011-12-04T05:48:30Z</time>
      </trkpt>
      <trkpt lat="45.71002" lon="4.76357">
        <ele>302.4719238</ele>
        <time>2011-12-04T05:48:35Z</time>
      </trkpt>
      <trkpt lat="45.71012" lon="4.76347">
        <ele>302.4719238</ele>
        <time>2011-12-04T05:48:41Z</time>
      </trkpt>
      <trkpt lat="45.71022" lon="4.76339">
        <ele>302.4719238</ele>
        <time>2011-12-04T05:48:47Z</time>
      </trkpt>
      <trkpt lat="45.71031" lon="4.76338">
        <ele>301.5106201</ele>
        <time>2011-12-04T05:48:52Z</time>
      </trkpt>
      <trkpt lat="45.71033" lon="4.76342">
        <ele>300.5493164</ele>
        <time>2011-12-04T05:48:54Z</time>
      </trkpt>
      <trkpt lat="45.71034" lon="4.76346">
        <ele>300.5493164</ele>
        <time>2011-12-04T05:48:56Z</time>
      </trkpt>
      <trkpt lat="45.71035" lon="4.76351">
        <ele>299.1072998</ele>
        <time>2011-12-04T05:48:58Z</time>
      </trkpt>
      <trkpt lat="45.71033" lon="4.76367">
        <ele>296.7041016</ele>
        <time>2011-12-04T05:49:04Z</time>
      </trkpt>
      <trkpt lat="45.7103" lon="4.76373">
        <ele>295.7426758</ele>
        <time>2011-12-04T05:49:07Z</time>
      </trkpt>
      <trkpt lat="45.71029" lon="4.76387">
        <ele>295.7426758</ele>
        <time>2011-12-04T05:49:14Z</time>
      </trkpt>
      <trkpt lat="45.71029" lon="4.76389">
        <ele>295.2619629</ele>
        <time>2011-12-04T05:49:15Z</time>
      </trkpt>
      <trkpt lat="45.71029" lon="4.76403">
        <ele>295.7426758</ele>
        <time>2011-12-04T05:49:21Z</time>
      </trkpt>
      <trkpt lat="45.71024" lon="4.76415">
        <ele>293.3393555</ele>
        <time>2011-12-04T05:49:28Z</time>
      </trkpt>
      <trkpt lat="45.71019" lon="4.76426">
        <ele>288.0522461</ele>
        <time>2011-12-04T05:49:36Z</time>
      </trkpt>
      <trkpt lat="45.71016" lon="4.76438">
        <ele>283.7261963</ele>
        <time>2011-12-04T05:49:43Z</time>
      </trkpt>
      <trkpt lat="45.71016" lon="4.76443">
        <ele>282.2843018</ele>
        <time>2011-12-04T05:49:46Z</time>
      </trkpt>
      <trkpt lat="45.71021" lon="4.76452">
        <ele>279.4002686</ele>
        <time>2011-12-04T05:49:52Z</time>
      </trkpt>
      <trkpt lat="45.71027" lon="4.76462">
        <ele>277.4776611</ele>
        <time>2011-12-04T05:49:58Z</time>
      </trkpt>
      <trkpt lat="45.71032" lon="4.76478">
        <ele>282.7650146</ele>
        <time>2011-12-04T05:50:05Z</time>
      </trkpt>
      <trkpt lat="45.7103" lon="4.76485">
        <ele>276.9970703</ele>
        <time>2011-12-04T05:50:10Z</time>
      </trkpt>
      <trkpt lat="45.71029" lon="4.76488">
        <ele>276.9970703</ele>
        <time>2011-12-04T05:50:12Z</time>
      </trkpt>
      <trkpt lat="45.71027" lon="4.76492">
        <ele>276.0356445</ele>
        <time>2011-12-04T05:50:14Z</time>
      </trkpt>
      <trkpt lat="45.71017" lon="4.76504">
        <ele>271.229126</ele>
        <time>2011-12-04T05:50:20Z</time>
      </trkpt>
      <trkpt lat="45.71003" lon="4.76514">
        <ele>264.4998779</ele>
        <time>2011-12-04T05:50:27Z</time>
      </trkpt>
      <trkpt lat="45.71001" lon="4.76521">
        <ele>264.0192871</ele>
        <time>2011-12-04T05:50:30Z</time>
      </trkpt>
      <trkpt lat="45.71006" lon="4.76536">
        <ele>264.4998779</ele>
        <time>2011-12-04T05:50:36Z</time>
      </trkpt>
      <trkpt lat="45.71007" lon="4.76539">
        <ele>264.0192871</ele>
        <time>2011-12-04T05:50:37Z</time>
      </trkpt>
      <trkpt lat="45.71012" lon="4.76557">
        <ele>265.4613037</ele>
        <time>2011-12-04T05:50:44Z</time>
      </trkpt>
      <trkpt lat="45.71015" lon="4.76566">
        <ele>264.9805908</ele>
        <time>2011-12-04T05:50:48Z</time>
      </trkpt>
      <trkpt lat="45.7102" lon="4.76576">
        <ele>260.654541</ele>
        <time>2011-12-04T05:50:53Z</time>
      </trkpt>
      <trkpt lat="45.71027" lon="4.76588">
        <ele>256.8093262</ele>
        <time>2011-12-04T05:50:58Z</time>
      </trkpt>
      <trkpt lat="45.71034" lon="4.76598">
        <ele>253.4447021</ele>
        <time>2011-12-04T05:51:03Z</time>
      </trkpt>
      <trkpt lat="45.71042" lon="4.76614">
        <ele>249.5994873</ele>
        <time>2011-12-04T05:51:09Z</time>
      </trkpt>
      <trkpt lat="45.71048" lon="4.76627">
        <ele>247.1960449</ele>
        <time>2011-12-04T05:51:14Z</time>
      </trkpt>
      <trkpt lat="45.71052" lon="4.76641">
        <ele>245.7541504</ele>
        <time>2011-12-04T05:51:19Z</time>
      </trkpt>
      <trkpt lat="45.71053" lon="4.76644">
        <ele>245.7541504</ele>
        <time>2011-12-04T05:51:20Z</time>
      </trkpt>
      <trkpt lat="45.71061" lon="4.76668">
        <ele>245.2734375</ele>
        <time>2011-12-04T05:51:27Z</time>
      </trkpt>
      <trkpt lat="45.71062" lon="4.76674">
        <ele>244.7928467</ele>
        <time>2011-12-04T05:51:29Z</time>
      </trkpt>
      <trkpt lat="45.71068" lon="4.76693">
        <ele>245.2734375</ele>
        <time>2011-12-04T05:51:35Z</time>
      </trkpt>
      <trkpt lat="45.71069" lon="4.76696">
        <ele>244.3122559</ele>
        <time>2011-12-04T05:51:36Z</time>
      </trkpt>
      <trkpt lat="45.71071" lon="4.76715">
        <ele>244.3122559</ele>
        <time>2011-12-04T05:51:40Z</time>
      </trkpt>
      <trkpt lat="45.71075" lon="4.76728">
        <ele>244.7928467</ele>
        <time>2011-12-04T05:51:44Z</time>
      </trkpt>
      <trkpt lat="45.7108" lon="4.76746">
        <ele>243.3508301</ele>
        <time>2011-12-04T05:51:50Z</time>
      </trkpt>
      <trkpt lat="45.71081" lon="4.76749">
        <ele>243.831543</ele>
        <time>2011-12-04T05:51:51Z</time>
      </trkpt>
      <trkpt lat="45.71082" lon="4.76765">
        <ele>243.831543</ele>
        <time>2011-12-04T05:51:56Z</time>
      </trkpt>
      <trkpt lat="45.71082" lon="4.76768">
        <ele>244.3122559</ele>
        <time>2011-12-04T05:51:57Z</time>
      </trkpt>
      <trkpt lat="45.71088" lon="4.76788">
        <ele>242.8702393</ele>
        <time>2011-12-04T05:52:02Z</time>
      </trkpt>
      <trkpt lat="45.71091" lon="4.768">
        <ele>242.8702393</ele>
        <time>2011-12-04T05:52:05Z</time>
      </trkpt>
      <trkpt lat="45.71096" lon="4.76811">
        <ele>242.8702393</ele>
        <time>2011-12-04T05:52:09Z</time>
      </trkpt>
      <trkpt lat="45.71102" lon="4.76833">
        <ele>244.3122559</ele>
        <time>2011-12-04T05:52:15Z</time>
      </trkpt>
      <trkpt lat="45.71105" lon="4.76846">
        <ele>242.8702393</ele>
        <time>2011-12-04T05:52:19Z</time>
      </trkpt>
      <trkpt lat="45.71105" lon="4.76849">
        <ele>243.3508301</ele>
        <time>2011-12-04T05:52:20Z</time>
      </trkpt>
      <trkpt lat="45.71112" lon="4.76869">
        <ele>243.831543</ele>
        <time>2011-12-04T05:52:26Z</time>
      </trkpt>
      <trkpt lat="45.7112" lon="4.76887">
        <ele>244.7928467</ele>
        <time>2011-12-04T05:52:31Z</time>
      </trkpt>
      <trkpt lat="45.71128" lon="4.76912">
        <ele>246.7154541</ele>
        <time>2011-12-04T05:52:37Z</time>
      </trkpt>
      <trkpt lat="45.71134" lon="4.76929">
        <ele>247.6767578</ele>
        <time>2011-12-04T05:52:42Z</time>
      </trkpt>
      <trkpt lat="45.71141" lon="4.76944">
        <ele>245.7541504</ele>
        <time>2011-12-04T05:52:47Z</time>
      </trkpt>
      <trkpt lat="45.71148" lon="4.76959">
        <ele>246.2348633</ele>
        <time>2011-12-04T05:52:51Z</time>
      </trkpt>
      <trkpt lat="45.71149" lon="4.76963">
        <ele>246.2348633</ele>
        <time>2011-12-04T05:52:52Z</time>
      </trkpt>
      <trkpt lat="45.7115" lon="4.76968">
        <ele>244.7928467</ele>
        <time>2011-12-04T05:52:54Z</time>
      </trkpt>
      <trkpt lat="45.71152" lon="4.76982">
        <ele>244.7928467</ele>
        <time>2011-12-04T05:52:58Z</time>
      </trkpt>
      <trkpt lat="45.71156" lon="4.76991">
        <ele>243.3508301</ele>
        <time>2011-12-04T05:53:02Z</time>
      </trkpt>
      <trkpt lat="45.71157" lon="4.76993">
        <ele>241.9089355</ele>
        <time>2011-12-04T05:53:04Z</time>
      </trkpt>
      <trkpt lat="45.71161" lon="4.76994">
        <ele>239.0249023</ele>
        <time>2011-12-04T05:53:10Z</time>
      </trkpt>
      <trkpt lat="45.71168" lon="4.76994">
        <ele>237.5828857</ele>
        <time>2011-12-04T05:53:16Z</time>
      </trkpt>
      <trkpt lat="45.7117" lon="4.76994">
        <ele>239.0249023</ele>
        <time>2011-12-04T05:53:21Z</time>
      </trkpt>
      <trkpt lat="45.71174" lon="4.76995">
        <ele>238.0635986</ele>
        <time>2011-12-04T05:53:25Z</time>
      </trkpt>
      <trkpt lat="45.71181" lon="4.76997">
        <ele>238.5443115</ele>
        <time>2011-12-04T05:53:31Z</time>
      </trkpt>
      <trkpt lat="45.71189" lon="4.76998">
        <ele>241.4282227</ele>
        <time>2011-12-04T05:53:37Z</time>
      </trkpt>
      <trkpt lat="45.71196" lon="4.76994">
        <ele>240.9476318</ele>
        <time>2011-12-04T05:53:41Z</time>
      </trkpt>
      <trkpt lat="45.71203" lon="4.76994">
        <ele>242.8702393</ele>
        <time>2011-12-04T05:53:46Z</time>
      </trkpt>
      <trkpt lat="45.71204" lon="4.76995">
        <ele>243.831543</ele>
        <time>2011-12-04T05:53:47Z</time>
      </trkpt>
      <trkpt lat="45.71212" lon="4.76995">
        <ele>245.7541504</ele>
        <time>2011-12-04T05:53:53Z</time>
      </trkpt>
      <trkpt lat="45.71218" lon="4.76997">
        <ele>243.3508301</ele>
        <time>2011-12-04T05:53:59Z</time>
      </trkpt>
      <trkpt lat="45.71224" lon="4.76997">
        <ele>241.9089355</ele>
        <time>2011-12-04T05:54:04Z</time>
      </trkpt>
      <trkpt lat="45.7123" lon="4.76997">
        <ele>242.3896484</ele>
        <time>2011-12-04T05:54:10Z</time>
      </trkpt>
      <trkpt lat="45.71243" lon="4.76997">
        <ele>241.4282227</ele>
        <time>2011-12-04T05:54:18Z</time>
      </trkpt>
      <trkpt lat="45.71249" lon="4.76996">
        <ele>242.8702393</ele>
        <time>2011-12-04T05:54:23Z</time>
      </trkpt>
      <trkpt lat="45.71265" lon="4.76997">
        <ele>245.7541504</ele>
        <time>2011-12-04T05:54:30Z</time>
      </trkpt>
      <trkpt lat="45.71279" lon="4.76997">
        <ele>247.6767578</ele>
        <time>2011-12-04T05:54:36Z</time>
      </trkpt>
      <trkpt lat="45.7129" lon="4.76995">
        <ele>246.7154541</ele>
        <time>2011-12-04T05:54:41Z</time>
      </trkpt>
      <trkpt lat="45.71302" lon="4.76992">
        <ele>247.6767578</ele>
        <time>2011-12-04T05:54:46Z</time>
      </trkpt>
      <trkpt lat="45.71305" lon="4.76991">
        <ele>247.6767578</ele>
        <time>2011-12-04T05:54:47Z</time>
      </trkpt>
      <trkpt lat="45.71312" lon="4.76989">
        <ele>247.1960449</ele>
        <time>2011-12-04T05:54:51Z</time>
      </trkpt>
      <trkpt lat="45.71322" lon="4.76987">
        <ele>246.2348633</ele>
        <time>2011-12-04T05:54:57Z</time>
      </trkpt>
      <trkpt lat="45.71334" lon="4.76985">
        <ele>246.2348633</ele>
        <time>2011-12-04T05:55:03Z</time>
      </trkpt>
      <trkpt lat="45.71346" lon="4.76984">
        <ele>244.7928467</ele>
        <time>2011-12-04T05:55:09Z</time>
      </trkpt>
      <trkpt lat="45.71359" lon="4.76979">
        <ele>245.2734375</ele>
        <time>2011-12-04T05:55:14Z</time>
      </trkpt>
      <trkpt lat="45.71363" lon="4.76978">
        <ele>243.831543</ele>
        <time>2011-12-04T05:55:16Z</time>
      </trkpt>
      <trkpt lat="45.71373" lon="4.76977">
        <ele>242.8702393</ele>
        <time>2011-12-04T05:55:21Z</time>
      </trkpt>
      <trkpt lat="45.71384" lon="4.76976">
        <ele>241.4282227</ele>
        <time>2011-12-04T05:55:26Z</time>
      </trkpt>
      <trkpt lat="45.71394" lon="4.76974">
        <ele>242.8702393</ele>
        <time>2011-12-04T05:55:30Z</time>
      </trkpt>
      <trkpt lat="45.71406" lon="4.76971">
        <ele>243.3508301</ele>
        <time>2011-12-04T05:55:36Z</time>
      </trkpt>
      <trkpt lat="45.71411" lon="4.7697">
        <ele>242.8702393</ele>
        <time>2011-12-04T05:55:38Z</time>
      </trkpt>
      <trkpt lat="45.71418" lon="4.7697">
        <ele>244.3122559</ele>
        <time>2011-12-04T05:55:42Z</time>
      </trkpt>
      <trkpt lat="45.71424" lon="4.7697">
        <ele>245.2734375</ele>
        <time>2011-12-04T05:55:46Z</time>
      </trkpt>
      <trkpt lat="45.71438" lon="4.76968">
        <ele>244.7928467</ele>
        <time>2011-12-04T05:55:55Z</time>
      </trkpt>
      <trkpt lat="45.71451" lon="4.76965">
        <ele>244.7928467</ele>
        <time>2011-12-04T05:56:04Z</time>
      </trkpt>
      <trkpt lat="45.71459" lon="4.76962">
        <ele>247.1960449</ele>
        <time>2011-12-04T05:56:10Z</time>
      </trkpt>
      <trkpt lat="45.71469" lon="4.76962">
        <ele>250.560791</ele>
        <time>2011-12-04T05:56:15Z</time>
      </trkpt>
      <trkpt lat="45.71477" lon="4.76962">
        <ele>253.4447021</ele>
        <time>2011-12-04T05:56:20Z</time>
      </trkpt>
      <trkpt lat="45.7149" lon="4.76963">
        <ele>258.2513428</ele>
        <time>2011-12-04T05:56:27Z</time>
      </trkpt>
      <trkpt lat="45.71504" lon="4.76961">
        <ele>260.1739502</ele>
        <time>2011-12-04T05:56:33Z</time>
      </trkpt>
      <trkpt lat="45.71513" lon="4.76956">
        <ele>259.2126465</ele>
        <time>2011-12-04T05:56:37Z</time>
      </trkpt>
      <trkpt lat="45.71526" lon="4.76954">
        <ele>263.0578613</ele>
        <time>2011-12-04T05:56:42Z</time>
      </trkpt>
      <trkpt lat="45.71532" lon="4.7695">
        <ele>260.654541</ele>
        <time>2011-12-04T05:56:45Z</time>
      </trkpt>
      <trkpt lat="45.71535" lon="4.76947">
        <ele>258.7319336</ele>
        <time>2011-12-04T05:56:47Z</time>
      </trkpt>
      <trkpt lat="45.71547" lon="4.76944">
        <ele>258.2513428</ele>
        <time>2011-12-04T05:56:52Z</time>
      </trkpt>
      <trkpt lat="45.7156" lon="4.76939">
        <ele>257.2900391</ele>
        <time>2011-12-04T05:56:57Z</time>
      </trkpt>
      <trkpt lat="45.71567" lon="4.76937">
        <ele>257.2900391</ele>
        <time>2011-12-04T05:57:00Z</time>
      </trkpt>
      <trkpt lat="45.71577" lon="4.76932">
        <ele>257.770752</ele>
        <time>2011-12-04T05:57:05Z</time>
      </trkpt>
      <trkpt lat="45.71589" lon="4.76929">
        <ele>258.2513428</ele>
        <time>2011-12-04T05:57:10Z</time>
      </trkpt>
      <trkpt lat="45.716" lon="4.76925">
        <ele>259.2126465</ele>
        <time>2011-12-04T05:57:15Z</time>
      </trkpt>
      <trkpt lat="45.71607" lon="4.7693">
        <ele>260.1739502</ele>
        <time>2011-12-04T05:57:18Z</time>
      </trkpt>
      <trkpt lat="45.71612" lon="4.76951">
        <ele>260.1739502</ele>
        <time>2011-12-04T05:57:24Z</time>
      </trkpt>
      <trkpt lat="45.71615" lon="4.76975">
        <ele>264.0192871</ele>
        <time>2011-12-04T05:57:30Z</time>
      </trkpt>
      <trkpt lat="45.71614" lon="4.76984">
        <ele>261.1352539</ele>
        <time>2011-12-04T05:57:33Z</time>
      </trkpt>
      <trkpt lat="45.71618" lon="4.7699">
        <ele>256.8093262</ele>
        <time>2011-12-04T05:57:37Z</time>
      </trkpt>
      <trkpt lat="45.71628" lon="4.76991">
        <ele>252.9639893</ele>
        <time>2011-12-04T05:57:43Z</time>
      </trkpt>
      <trkpt lat="45.71636" lon="4.76994">
        <ele>251.5220947</ele>
        <time>2011-12-04T05:57:47Z</time>
      </trkpt>
      <trkpt lat="45.71652" lon="4.76998">
        <ele>251.5220947</ele>
        <time>2011-12-04T05:57:54Z</time>
      </trkpt>
      <trkpt lat="45.71666" lon="4.77001">
        <ele>250.0802002</ele>
        <time>2011-12-04T05:58:00Z</time>
      </trkpt>
      <trkpt lat="45.71675" lon="4.77004">
        <ele>250.0802002</ele>
        <time>2011-12-04T05:58:04Z</time>
      </trkpt>
      <trkpt lat="45.71687" lon="4.77007">
        <ele>249.5994873</ele>
        <time>2011-12-04T05:58:11Z</time>
      </trkpt>
      <trkpt lat="45.71701" lon="4.77011">
        <ele>248.6381836</ele>
        <time>2011-12-04T05:58:20Z</time>
      </trkpt>
      <trkpt lat="45.71717" lon="4.77014">
        <ele>249.1187744</ele>
        <time>2011-12-04T05:58:29Z</time>
      </trkpt>
      <trkpt lat="45.71729" lon="4.77018">
        <ele>250.560791</ele>
        <time>2011-12-04T05:58:35Z</time>
      </trkpt>
      <trkpt lat="45.71738" lon="4.77025">
        <ele>251.0413818</ele>
        <time>2011-12-04T05:58:40Z</time>
      </trkpt>
      <trkpt lat="45.71743" lon="4.77042">
        <ele>249.1187744</ele>
        <time>2011-12-04T05:58:46Z</time>
      </trkpt>
      <trkpt lat="45.71746" lon="4.77052">
        <ele>247.1960449</ele>
        <time>2011-12-04T05:58:50Z</time>
      </trkpt>
      <trkpt lat="45.71757" lon="4.77056">
        <ele>247.1960449</ele>
        <time>2011-12-04T05:58:56Z</time>
      </trkpt>
      <trkpt lat="45.71759" lon="4.77056">
        <ele>247.6767578</ele>
        <time>2011-12-04T05:58:57Z</time>
      </trkpt>
      <trkpt lat="45.71771" lon="4.77053">
        <ele>250.0802002</ele>
        <time>2011-12-04T05:59:04Z</time>
      </trkpt>
      <trkpt lat="45.71793" lon="4.77051">
        <ele>255.3673096</ele>
        <time>2011-12-04T05:59:11Z</time>
      </trkpt>
      <trkpt lat="45.71806" lon="4.77048">
        <ele>256.8093262</ele>
        <time>2011-12-04T05:59:16Z</time>
      </trkpt>
      <trkpt lat="45.71817" lon="4.7705">
        <ele>258.2513428</ele>
        <time>2011-12-04T05:59:20Z</time>
      </trkpt>
      <trkpt lat="45.7183" lon="4.77055">
        <ele>256.3287354</ele>
        <time>2011-12-04T05:59:25Z</time>
      </trkpt>
      <trkpt lat="45.71838" lon="4.77058">
        <ele>252.9639893</ele>
        <time>2011-12-04T05:59:30Z</time>
      </trkpt>
      <trkpt lat="45.71844" lon="4.77059">
        <ele>252.9639893</ele>
        <time>2011-12-04T05:59:32Z</time>
      </trkpt>
      <trkpt lat="45.71855" lon="4.77062">
        <ele>252.4833984</ele>
        <time>2011-12-04T05:59:37Z</time>
      </trkpt>
      <trkpt lat="45.71862" lon="4.77065">
        <ele>252.0028076</ele>
        <time>2011-12-04T05:59:40Z</time>
      </trkpt>
      <trkpt lat="45.71871" lon="4.77065">
        <ele>249.5994873</ele>
        <time>2011-12-04T05:59:44Z</time>
      </trkpt>
      <trkpt lat="45.7188" lon="4.7707">
        <ele>245.7541504</ele>
        <time>2011-12-04T05:59:50Z</time>
      </trkpt>
      <trkpt lat="45.71894" lon="4.77072">
        <ele>244.7928467</ele>
        <time>2011-12-04T05:59:55Z</time>
      </trkpt>
      <trkpt lat="45.71898" lon="4.77074">
        <ele>242.8702393</ele>
        <time>2011-12-04T05:59:57Z</time>
      </trkpt>
      <trkpt lat="45.71909" lon="4.77078">
        <ele>239.9862061</ele>
        <time>2011-12-04T06:00:04Z</time>
      </trkpt>
      <trkpt lat="45.71917" lon="4.7708">
        <ele>239.0249023</ele>
        <time>2011-12-04T06:00:08Z</time>
      </trkpt>
      <trkpt lat="45.71925" lon="4.77085">
        <ele>236.6217041</ele>
        <time>2011-12-04T06:00:13Z</time>
      </trkpt>
      <trkpt lat="45.71931" lon="4.77099">
        <ele>239.5054932</ele>
        <time>2011-12-04T06:00:20Z</time>
      </trkpt>
      <trkpt lat="45.71935" lon="4.77116">
        <ele>244.3122559</ele>
        <time>2011-12-04T06:00:27Z</time>
      </trkpt>
      <trkpt lat="45.71936" lon="4.77121">
        <ele>246.2348633</ele>
        <time>2011-12-04T06:00:29Z</time>
      </trkpt>
      <trkpt lat="45.71942" lon="4.77137">
        <ele>250.560791</ele>
        <time>2011-12-04T06:00:38Z</time>
      </trkpt>
      <trkpt lat="45.71941" lon="4.77151">
        <ele>250.0802002</ele>
        <time>2011-12-04T06:00:45Z</time>
      </trkpt>
      <trkpt lat="45.71935" lon="4.77164">
        <ele>251.5220947</ele>
        <time>2011-12-04T06:00:49Z</time>
      </trkpt>
      <trkpt lat="45.71928" lon="4.77182">
        <ele>251.5220947</ele>
        <time>2011-12-04T06:00:54Z</time>
      </trkpt>
      <trkpt lat="45.71925" lon="4.77192">
        <ele>249.5994873</ele>
        <time>2011-12-04T06:00:57Z</time>
      </trkpt>
      <trkpt lat="45.71926" lon="4.77208">
        <ele>248.6381836</ele>
        <time>2011-12-04T06:01:01Z</time>
      </trkpt>
      <trkpt lat="45.71928" lon="4.77231">
        <ele>248.6381836</ele>
        <time>2011-12-04T06:01:07Z</time>
      </trkpt>
      <trkpt lat="45.71931" lon="4.77252">
        <ele>247.1960449</ele>
        <time>2011-12-04T06:01:13Z</time>
      </trkpt>
      <trkpt lat="45.71937" lon="4.77259">
        <ele>245.7541504</ele>
        <time>2011-12-04T06:01:17Z</time>
      </trkpt>
      <trkpt lat="45.71948" lon="4.77261">
        <ele>244.3122559</ele>
        <time>2011-12-04T06:01:21Z</time>
      </trkpt>
      <trkpt lat="45.71955" lon="4.77259">
        <ele>243.3508301</ele>
        <time>2011-12-04T06:01:24Z</time>
      </trkpt>
      <trkpt lat="45.71965" lon="4.77255">
        <ele>244.7928467</ele>
        <time>2011-12-04T06:01:29Z</time>
      </trkpt>
      <trkpt lat="45.71982" lon="4.77247">
        <ele>246.7154541</ele>
        <time>2011-12-04T06:01:36Z</time>
      </trkpt>
      <trkpt lat="45.71995" lon="4.77244">
        <ele>249.1187744</ele>
        <time>2011-12-04T06:01:41Z</time>
      </trkpt>
      <trkpt lat="45.72004" lon="4.7724">
        <ele>247.1960449</ele>
        <time>2011-12-04T06:01:46Z</time>
      </trkpt>
      <trkpt lat="45.72013" lon="4.77237">
        <ele>246.7154541</ele>
        <time>2011-12-04T06:01:51Z</time>
      </trkpt>
      <trkpt lat="45.72015" lon="4.77236">
        <ele>246.7154541</ele>
        <time>2011-12-04T06:01:52Z</time>
      </trkpt>
      <trkpt lat="45.72029" lon="4.77235">
        <ele>244.3122559</ele>
        <time>2011-12-04T06:01:58Z</time>
      </trkpt>
      <trkpt lat="45.7204" lon="4.77244">
        <ele>243.3508301</ele>
        <time>2011-12-04T06:02:03Z</time>
      </trkpt>
      <trkpt lat="45.72044" lon="4.77259">
        <ele>241.4282227</ele>
        <time>2011-12-04T06:02:08Z</time>
      </trkpt>
      <trkpt lat="45.72048" lon="4.77278">
        <ele>242.3896484</ele>
        <time>2011-12-04T06:02:13Z</time>
      </trkpt>
      <trkpt lat="45.72052" lon="4.77292">
        <ele>244.7928467</ele>
        <time>2011-12-04T06:02:17Z</time>
      </trkpt>
      <trkpt lat="45.72063" lon="4.77312">
        <ele>246.2348633</ele>
        <time>2011-12-04T06:02:23Z</time>
      </trkpt>
      <trkpt lat="45.72067" lon="4.77326">
        <ele>243.3508301</ele>
        <time>2011-12-04T06:02:27Z</time>
      </trkpt>
      <trkpt lat="45.72072" lon="4.77342">
        <ele>240.467041</ele>
        <time>2011-12-04T06:02:32Z</time>
      </trkpt>
      <trkpt lat="45.72071" lon="4.77358">
        <ele>238.0635986</ele>
        <time>2011-12-04T06:02:36Z</time>
      </trkpt>
      <trkpt lat="45.72072" lon="4.77379">
        <ele>243.831543</ele>
        <time>2011-12-04T06:02:41Z</time>
      </trkpt>
      <trkpt lat="45.72071" lon="4.77382">
        <ele>244.7928467</ele>
        <time>2011-12-04T06:02:42Z</time>
      </trkpt>
      <trkpt lat="45.72068" lon="4.77392">
        <ele>245.2734375</ele>
        <time>2011-12-04T06:02:46Z</time>
      </trkpt>
      <trkpt lat="45.72066" lon="4.774">
        <ele>245.2734375</ele>
        <time>2011-12-04T06:02:49Z</time>
      </trkpt>
      <trkpt lat="45.72063" lon="4.77424">
        <ele>239.5054932</ele>
        <time>2011-12-04T06:02:55Z</time>
      </trkpt>
      <trkpt lat="45.72075" lon="4.77437">
        <ele>234.2183838</ele>
        <time>2011-12-04T06:03:02Z</time>
      </trkpt>
      <trkpt lat="45.72084" lon="4.77441">
        <ele>233.2570801</ele>
        <time>2011-12-04T06:03:05Z</time>
      </trkpt>
      <trkpt lat="45.721" lon="4.77452">
        <ele>233.2570801</ele>
        <time>2011-12-04T06:03:11Z</time>
      </trkpt>
      <trkpt lat="45.72114" lon="4.77458">
        <ele>234.6990967</ele>
        <time>2011-12-04T06:03:16Z</time>
      </trkpt>
      <trkpt lat="45.72128" lon="4.77465">
        <ele>235.6602783</ele>
        <time>2011-12-04T06:03:21Z</time>
      </trkpt>
      <trkpt lat="45.72141" lon="4.7747">
        <ele>233.7376709</ele>
        <time>2011-12-04T06:03:26Z</time>
      </trkpt>
      <trkpt lat="45.72155" lon="4.77475">
        <ele>232.2957764</ele>
        <time>2011-12-04T06:03:31Z</time>
      </trkpt>
      <trkpt lat="45.72166" lon="4.77484">
        <ele>230.8537598</ele>
        <time>2011-12-04T06:03:36Z</time>
      </trkpt>
      <trkpt lat="45.72179" lon="4.77491">
        <ele>228.4504395</ele>
        <time>2011-12-04T06:03:42Z</time>
      </trkpt>
      <trkpt lat="45.7219" lon="4.77499">
        <ele>227.0085449</ele>
        <time>2011-12-04T06:03:47Z</time>
      </trkpt>
      <trkpt lat="45.72193" lon="4.77501">
        <ele>228.4504395</ele>
        <time>2011-12-04T06:03:48Z</time>
      </trkpt>
      <trkpt lat="45.7221" lon="4.77509">
        <ele>231.3343506</ele>
        <time>2011-12-04T06:03:54Z</time>
      </trkpt>
      <trkpt lat="45.72223" lon="4.77514">
        <ele>229.4117432</ele>
        <time>2011-12-04T06:03:59Z</time>
      </trkpt>
      <trkpt lat="45.7223" lon="4.77516">
        <ele>228.9311523</ele>
        <time>2011-12-04T06:04:02Z</time>
      </trkpt>
      <trkpt lat="45.72237" lon="4.77523">
        <ele>228.4504395</ele>
        <time>2011-12-04T06:04:06Z</time>
      </trkpt>
      <trkpt lat="45.72249" lon="4.77528">
        <ele>229.892334</ele>
        <time>2011-12-04T06:04:10Z</time>
      </trkpt>
      <trkpt lat="45.72262" lon="4.77538">
        <ele>229.892334</ele>
        <time>2011-12-04T06:04:15Z</time>
      </trkpt>
      <trkpt lat="45.72275" lon="4.7755">
        <ele>229.4117432</ele>
        <time>2011-12-04T06:04:20Z</time>
      </trkpt>
      <trkpt lat="45.72284" lon="4.77561">
        <ele>223.6437988</ele>
        <time>2011-12-04T06:04:25Z</time>
      </trkpt>
      <trkpt lat="45.72289" lon="4.77566">
        <ele>220.7598877</ele>
        <time>2011-12-04T06:04:28Z</time>
      </trkpt>
      <trkpt lat="45.72296" lon="4.77569">
        <ele>219.3179932</ele>
        <time>2011-12-04T06:04:31Z</time>
      </trkpt>
      <trkpt lat="45.72311" lon="4.77581">
        <ele>220.7598877</ele>
        <time>2011-12-04T06:04:36Z</time>
      </trkpt>
      <trkpt lat="45.72318" lon="4.77588">
        <ele>219.798584</ele>
        <time>2011-12-04T06:04:39Z</time>
      </trkpt>
      <trkpt lat="45.72331" lon="4.77601">
        <ele>215.4726563</ele>
        <time>2011-12-04T06:04:45Z</time>
      </trkpt>
      <trkpt lat="45.72341" lon="4.77612">
        <ele>214.0306396</ele>
        <time>2011-12-04T06:04:50Z</time>
      </trkpt>
      <trkpt lat="45.72355" lon="4.77625">
        <ele>212.588623</ele>
        <time>2011-12-04T06:04:56Z</time>
      </trkpt>
      <trkpt lat="45.72365" lon="4.77628">
        <ele>211.6274414</ele>
        <time>2011-12-04T06:05:00Z</time>
      </trkpt>
      <trkpt lat="45.72376" lon="4.7763">
        <ele>209.704834</ele>
        <time>2011-12-04T06:05:04Z</time>
      </trkpt>
      <trkpt lat="45.72387" lon="4.77632">
        <ele>209.2241211</ele>
        <time>2011-12-04T06:05:08Z</time>
      </trkpt>
      <trkpt lat="45.72403" lon="4.77641">
        <ele>214.9919434</ele>
        <time>2011-12-04T06:05:13Z</time>
      </trkpt>
      <trkpt lat="45.72415" lon="4.77652">
        <ele>220.7598877</ele>
        <time>2011-12-04T06:05:17Z</time>
      </trkpt>
      <trkpt lat="45.72423" lon="4.77662">
        <ele>217.3953857</ele>
        <time>2011-12-04T06:05:22Z</time>
      </trkpt>
      <trkpt lat="45.7243" lon="4.77674">
        <ele>212.1080322</ele>
        <time>2011-12-04T06:05:27Z</time>
      </trkpt>
      <trkpt lat="45.72438" lon="4.77686">
        <ele>207.3013916</ele>
        <time>2011-12-04T06:05:32Z</time>
      </trkpt>
      <trkpt lat="45.72449" lon="4.777">
        <ele>202.9754639</ele>
        <time>2011-12-04T06:05:38Z</time>
      </trkpt>
      <trkpt lat="45.72457" lon="4.77708">
        <ele>200.0916748</ele>
        <time>2011-12-04T06:05:42Z</time>
      </trkpt>
      <trkpt lat="45.72468" lon="4.77716">
        <ele>198.6495361</ele>
        <time>2011-12-04T06:05:46Z</time>
      </trkpt>
      <trkpt lat="45.72488" lon="4.7773">
        <ele>201.0528564</ele>
        <time>2011-12-04T06:05:53Z</time>
      </trkpt>
      <trkpt lat="45.72503" lon="4.77741">
        <ele>204.4174805</ele>
        <time>2011-12-04T06:05:58Z</time>
      </trkpt>
      <trkpt lat="45.72512" lon="4.7775">
        <ele>203.4561768</ele>
        <time>2011-12-04T06:06:02Z</time>
      </trkpt>
      <trkpt lat="45.7252" lon="4.77758">
        <ele>201.0528564</ele>
        <time>2011-12-04T06:06:06Z</time>
      </trkpt>
      <trkpt lat="45.72529" lon="4.7777">
        <ele>198.6495361</ele>
        <time>2011-12-04T06:06:11Z</time>
      </trkpt>
      <trkpt lat="45.72534" lon="4.77784">
        <ele>196.2463379</ele>
        <time>2011-12-04T06:06:16Z</time>
      </trkpt>
      <trkpt lat="45.72538" lon="4.77798">
        <ele>193.3623047</ele>
        <time>2011-12-04T06:06:21Z</time>
      </trkpt>
      <trkpt lat="45.7254" lon="4.77808">
        <ele>192.401123</ele>
        <time>2011-12-04T06:06:25Z</time>
      </trkpt>
      <trkpt lat="45.72544" lon="4.77823">
        <ele>192.8817139</ele>
        <time>2011-12-04T06:06:30Z</time>
      </trkpt>
      <trkpt lat="45.72544" lon="4.77833">
        <ele>191.4395752</ele>
        <time>2011-12-04T06:06:33Z</time>
      </trkpt>
      <trkpt lat="45.72546" lon="4.77843">
        <ele>188.0750732</ele>
        <time>2011-12-04T06:06:38Z</time>
      </trkpt>
      <trkpt lat="45.72545" lon="4.77845">
        <ele>188.0750732</ele>
        <time>2011-12-04T06:06:39Z</time>
      </trkpt>
      <trkpt lat="45.72545" lon="4.77862">
        <ele>185.1911621</ele>
        <time>2011-12-04T06:06:44Z</time>
      </trkpt>
      <trkpt lat="45.72546" lon="4.77884">
        <ele>184.7105713</ele>
        <time>2011-12-04T06:06:50Z</time>
      </trkpt>
      <trkpt lat="45.72545" lon="4.77891">
        <ele>184.7105713</ele>
        <time>2011-12-04T06:06:52Z</time>
      </trkpt>
      <trkpt lat="45.72538" lon="4.77905">
        <ele>183.7490234</ele>
        <time>2011-12-04T06:06:57Z</time>
      </trkpt>
      <trkpt lat="45.7254" lon="4.77912">
        <ele>181.826416</ele>
        <time>2011-12-04T06:07:01Z</time>
      </trkpt>
      <trkpt lat="45.72545" lon="4.77922">
        <ele>179.9038086</ele>
        <time>2011-12-04T06:07:05Z</time>
      </trkpt>
      <trkpt lat="45.72554" lon="4.77939">
        <ele>177.9812012</ele>
        <time>2011-12-04T06:07:11Z</time>
      </trkpt>
      <trkpt lat="45.72558" lon="4.77947">
        <ele>177.9812012</ele>
        <time>2011-12-04T06:07:14Z</time>
      </trkpt>
      <trkpt lat="45.72563" lon="4.77961">
        <ele>178.4619141</ele>
        <time>2011-12-04T06:07:20Z</time>
      </trkpt>
      <trkpt lat="45.72565" lon="4.77965">
        <ele>177.5006104</ele>
        <time>2011-12-04T06:07:24Z</time>
      </trkpt>
      <trkpt lat="45.72569" lon="4.77972">
        <ele>176.5393066</ele>
        <time>2011-12-04T06:07:33Z</time>
      </trkpt>
      <trkpt lat="45.72568" lon="4.77974">
        <ele>176.5393066</ele>
        <time>2011-12-04T06:07:40Z</time>
      </trkpt>
      <trkpt lat="45.72568" lon="4.77975">
        <ele>176.0585938</ele>
        <time>2011-12-04T06:07:46Z</time>
      </trkpt>
      <trkpt lat="45.72569" lon="4.77977">
        <ele>177.0200195</ele>
        <time>2011-12-04T06:07:55Z</time>
      </trkpt>
      <trkpt lat="45.72571" lon="4.77976">
        <ele>178.4619141</ele>
        <time>2011-12-04T06:08:02Z</time>
      </trkpt>
      <trkpt lat="45.72572" lon="4.77974">
        <ele>178.4619141</ele>
        <time>2011-12-04T06:08:09Z</time>
      </trkpt>
      <trkpt lat="45.72575" lon="4.77974">
        <ele>177.5006104</ele>
        <time>2011-12-04T06:08:15Z</time>
      </trkpt>
      <trkpt lat="45.72575" lon="4.77973">
        <ele>178.4619141</ele>
        <time>2011-12-04T06:08:21Z</time>
      </trkpt>
      <trkpt lat="45.72576" lon="4.77973">
        <ele>179.4232178</ele>
        <time>2011-12-04T06:08:29Z</time>
      </trkpt>
      <trkpt lat="45.72573" lon="4.77972">
        <ele>178.942627</ele>
        <time>2011-12-04T06:08:40Z</time>
      </trkpt>
      <trkpt lat="45.72574" lon="4.77972">
        <ele>180.3845215</ele>
        <time>2011-12-04T06:08:48Z</time>
      </trkpt>
      <trkpt lat="45.72576" lon="4.77969">
        <ele>181.826416</ele>
        <time>2011-12-04T06:08:54Z</time>
      </trkpt>
      <trkpt lat="45.72576" lon="4.77967">
        <ele>185.1911621</ele>
        <time>2011-12-04T06:09:00Z</time>
      </trkpt>
      <trkpt lat="45.72576" lon="4.77967">
        <ele>185.6717529</ele>
        <time>2011-12-04T06:09:11Z</time>
      </trkpt>
      <trkpt lat="45.72579" lon="4.77962">
        <ele>186.1524658</ele>
        <time>2011-12-04T06:09:23Z</time>
      </trkpt>
      <trkpt lat="45.7258" lon="4.77961">
        <ele>184.7105713</ele>
        <time>2011-12-04T06:09:29Z</time>
      </trkpt>
      <trkpt lat="45.72579" lon="4.7796">
        <ele>184.2298584</ele>
        <time>2011-12-04T06:09:41Z</time>
      </trkpt>
      <trkpt lat="45.7258" lon="4.77961">
        <ele>185.1911621</ele>
        <time>2011-12-04T06:09:48Z</time>
      </trkpt>
      <trkpt lat="45.7258" lon="4.77964">
        <ele>189.5169678</ele>
        <time>2011-12-04T06:09:59Z</time>
      </trkpt>
      <trkpt lat="45.72582" lon="4.77966">
        <ele>189.5169678</ele>
        <time>2011-12-04T06:10:12Z</time>
      </trkpt>
      <trkpt lat="45.72577" lon="4.77966">
        <ele>186.6331787</ele>
        <time>2011-12-04T06:10:18Z</time>
      </trkpt>
      <trkpt lat="45.72579" lon="4.77962">
        <ele>183.2684326</ele>
        <time>2011-12-04T06:10:43Z</time>
      </trkpt>
      <trkpt lat="45.7258" lon="4.77961">
        <ele>177.5006104</ele>
        <time>2011-12-04T06:10:56Z</time>
      </trkpt>
      <trkpt lat="45.7258" lon="4.7796">
        <ele>179.4232178</ele>
        <time>2011-12-04T06:11:03Z</time>
      </trkpt>
      <trkpt lat="45.72578" lon="4.77959">
        <ele>179.4232178</ele>
        <time>2011-12-04T06:11:41Z</time>
      </trkpt>
      <trkpt lat="45.7258" lon="4.77958">
        <ele>179.4232178</ele>
        <time>2011-12-04T06:11:45Z</time>
      </trkpt>
      <trkpt lat="45.72581" lon="4.77956">
        <ele>179.9038086</ele>
        <time>2011-12-04T06:11:46Z</time>
      </trkpt>
      <trkpt lat="45.72583" lon="4.77954">
        <ele>184.2298584</ele>
        <time>2011-12-04T06:11:51Z</time>
      </trkpt>
      <trkpt lat="45.72585" lon="4.77953">
        <ele>190.9589844</ele>
        <time>2011-12-04T06:12:00Z</time>
      </trkpt>
      <trkpt lat="45.72592" lon="4.77949">
        <ele>189.9976807</ele>
        <time>2011-12-04T06:12:06Z</time>
      </trkpt>
      <trkpt lat="45.72598" lon="4.77947">
        <ele>186.1524658</ele>
        <time>2011-12-04T06:12:10Z</time>
      </trkpt>
      <trkpt lat="45.72604" lon="4.77943">
        <ele>180.8652344</ele>
        <time>2011-12-04T06:12:16Z</time>
      </trkpt>
      <trkpt lat="45.72611" lon="4.77935">
        <ele>180.8652344</ele>
        <time>2011-12-04T06:12:22Z</time>
      </trkpt>
      <trkpt lat="45.72616" lon="4.77931">
        <ele>177.9812012</ele>
        <time>2011-12-04T06:12:26Z</time>
      </trkpt>
      <trkpt lat="45.72625" lon="4.77927">
        <ele>175.09729</ele>
        <time>2011-12-04T06:12:32Z</time>
      </trkpt>
      <trkpt lat="45.7263" lon="4.77935">
        <ele>175.5778809</ele>
        <time>2011-12-04T06:12:38Z</time>
      </trkpt>
      <trkpt lat="45.72632" lon="4.77948">
        <ele>177.0200195</ele>
        <time>2011-12-04T06:12:44Z</time>
      </trkpt>
      <trkpt lat="45.72635" lon="4.77966">
        <ele>177.9812012</ele>
        <time>2011-12-04T06:12:52Z</time>
      </trkpt>
      <trkpt lat="45.72636" lon="4.77968">
        <ele>177.9812012</ele>
        <time>2011-12-04T06:12:53Z</time>
      </trkpt>
      <trkpt lat="45.72639" lon="4.77984">
        <ele>177.9812012</ele>
        <time>2011-12-04T06:13:00Z</time>
      </trkpt>
      <trkpt lat="45.72644" lon="4.78">
        <ele>178.4619141</ele>
        <time>2011-12-04T06:13:08Z</time>
      </trkpt>
      <trkpt lat="45.72647" lon="4.78015">
        <ele>178.4619141</ele>
        <time>2011-12-04T06:13:15Z</time>
      </trkpt>
      <trkpt lat="45.72647" lon="4.78016">
        <ele>178.942627</ele>
        <time>2011-12-04T06:13:16Z</time>
      </trkpt>
      <trkpt lat="45.72648" lon="4.78025">
        <ele>180.8652344</ele>
        <time>2011-12-04T06:13:20Z</time>
      </trkpt>
      <trkpt lat="45.72652" lon="4.78043">
        <ele>181.826416</ele>
        <time>2011-12-04T06:13:29Z</time>
      </trkpt>
      <trkpt lat="45.72653" lon="4.78057">
        <ele>184.7105713</ele>
        <time>2011-12-04T06:13:36Z</time>
      </trkpt>
      <trkpt lat="45.72654" lon="4.7807">
        <ele>185.6717529</ele>
        <time>2011-12-04T06:13:43Z</time>
      </trkpt>
      <trkpt lat="45.72658" lon="4.78083">
        <ele>186.6331787</ele>
        <time>2011-12-04T06:13:50Z</time>
      </trkpt>
      <trkpt lat="45.72661" lon="4.78096">
        <ele>188.0750732</ele>
        <time>2011-12-04T06:13:57Z</time>
      </trkpt>
      <trkpt lat="45.72662" lon="4.7811">
        <ele>189.9976807</ele>
        <time>2011-12-04T06:14:05Z</time>
      </trkpt>
      <trkpt lat="45.72661" lon="4.78115">
        <ele>189.9976807</ele>
        <time>2011-12-04T06:14:08Z</time>
      </trkpt>
      <trkpt lat="45.7266" lon="4.78121">
        <ele>192.401123</ele>
        <time>2011-12-04T06:14:12Z</time>
      </trkpt>
      <trkpt lat="45.72659" lon="4.78129">
        <ele>195.2849121</ele>
        <time>2011-12-04T06:14:17Z</time>
      </trkpt>
      <trkpt lat="45.72655" lon="4.78134">
        <ele>199.6108398</ele>
        <time>2011-12-04T06:14:22Z</time>
      </trkpt>
      <trkpt lat="45.7265" lon="4.78141">
        <ele>200.0916748</ele>
        <time>2011-12-04T06:14:28Z</time>
      </trkpt>
      <trkpt lat="45.72648" lon="4.78145">
        <ele>199.130127</ele>
        <time>2011-12-04T06:14:32Z</time>
      </trkpt>
      <trkpt lat="45.72644" lon="4.78152">
        <ele>198.1689453</ele>
        <time>2011-12-04T06:14:38Z</time>
      </trkpt>
      <trkpt lat="45.72639" lon="4.78164">
        <ele>198.1689453</ele>
        <time>2011-12-04T06:14:47Z</time>
      </trkpt>
      <trkpt lat="45.72638" lon="4.78173">
        <ele>198.6495361</ele>
        <time>2011-12-04T06:14:54Z</time>
      </trkpt>
      <trkpt lat="45.72636" lon="4.78185">
        <ele>200.5722656</ele>
        <time>2011-12-04T06:15:03Z</time>
      </trkpt>
      <trkpt lat="45.72635" lon="4.78191">
        <ele>202.494873</ele>
        <time>2011-12-04T06:15:07Z</time>
      </trkpt>
      <trkpt lat="45.72634" lon="4.78202">
        <ele>204.8980713</ele>
        <time>2011-12-04T06:15:14Z</time>
      </trkpt>
      <trkpt lat="45.72633" lon="4.78214">
        <ele>207.7821045</ele>
        <time>2011-12-04T06:15:21Z</time>
      </trkpt>
      <trkpt lat="45.72633" lon="4.78218">
        <ele>208.2628174</ele>
        <time>2011-12-04T06:15:23Z</time>
      </trkpt>
      <trkpt lat="45.7263" lon="4.78231">
        <ele>213.0693359</ele>
        <time>2011-12-04T06:15:31Z</time>
      </trkpt>
      <trkpt lat="45.7263" lon="4.78232">
        <ele>212.588623</ele>
        <time>2011-12-04T06:15:32Z</time>
      </trkpt>
      <trkpt lat="45.72634" lon="4.78242">
        <ele>213.5500488</ele>
        <time>2011-12-04T06:15:39Z</time>
      </trkpt>
      <trkpt lat="45.72635" lon="4.78245">
        <ele>213.5500488</ele>
        <time>2011-12-04T06:15:41Z</time>
      </trkpt>
      <trkpt lat="45.72636" lon="4.78253">
        <ele>213.5500488</ele>
        <time>2011-12-04T06:15:47Z</time>
      </trkpt>
      <trkpt lat="45.72641" lon="4.78262">
        <ele>213.5500488</ele>
        <time>2011-12-04T06:15:54Z</time>
      </trkpt>
      <trkpt lat="45.72643" lon="4.78265">
        <ele>214.0306396</ele>
        <time>2011-12-04T06:15:56Z</time>
      </trkpt>
      <trkpt lat="45.72646" lon="4.78278">
        <ele>219.798584</ele>
        <time>2011-12-04T06:16:04Z</time>
      </trkpt>
      <trkpt lat="45.72646" lon="4.7828">
        <ele>221.2406006</ele>
        <time>2011-12-04T06:16:05Z</time>
      </trkpt>
      <trkpt lat="45.7265" lon="4.78291">
        <ele>228.4504395</ele>
        <time>2011-12-04T06:16:13Z</time>
      </trkpt>
      <trkpt lat="45.72651" lon="4.78295">
        <ele>228.4504395</ele>
        <time>2011-12-04T06:16:16Z</time>
      </trkpt>
      <trkpt lat="45.72653" lon="4.78302">
        <ele>226.0471191</ele>
        <time>2011-12-04T06:16:22Z</time>
      </trkpt>
      <trkpt lat="45.72657" lon="4.78315">
        <ele>226.0471191</ele>
        <time>2011-12-04T06:16:31Z</time>
      </trkpt>
      <trkpt lat="45.72662" lon="4.78329">
        <ele>226.527832</ele>
        <time>2011-12-04T06:16:39Z</time>
      </trkpt>
      <trkpt lat="45.72668" lon="4.78346">
        <ele>231.3343506</ele>
        <time>2011-12-04T06:16:49Z</time>
      </trkpt>
      <trkpt lat="45.7267" lon="4.78359">
        <ele>235.1796875</ele>
        <time>2011-12-04T06:16:57Z</time>
      </trkpt>
      <trkpt lat="45.7267" lon="4.78361">
        <ele>235.6602783</ele>
        <time>2011-12-04T06:16:59Z</time>
      </trkpt>
      <trkpt lat="45.7267" lon="4.78368">
        <ele>239.9862061</ele>
        <time>2011-12-04T06:17:03Z</time>
      </trkpt>
      <trkpt lat="45.72678" lon="4.78385">
        <ele>243.3508301</ele>
        <time>2011-12-04T06:17:12Z</time>
      </trkpt>
      <trkpt lat="45.72681" lon="4.78397">
        <ele>241.4282227</ele>
        <time>2011-12-04T06:17:20Z</time>
      </trkpt>
      <trkpt lat="45.72681" lon="4.78403">
        <ele>239.5054932</ele>
        <time>2011-12-04T06:17:24Z</time>
      </trkpt>
      <trkpt lat="45.72683" lon="4.78416">
        <ele>239.0249023</ele>
        <time>2011-12-04T06:17:32Z</time>
      </trkpt>
      <trkpt lat="45.72683" lon="4.78419">
        <ele>238.5443115</ele>
        <time>2011-12-04T06:17:34Z</time>
      </trkpt>
      <trkpt lat="45.72684" lon="4.78429">
        <ele>239.0249023</ele>
        <time>2011-12-04T06:17:40Z</time>
      </trkpt>
      <trkpt lat="45.72687" lon="4.7844">
        <ele>238.5443115</ele>
        <time>2011-12-04T06:17:48Z</time>
      </trkpt>
      <trkpt lat="45.7269" lon="4.78457">
        <ele>239.5054932</ele>
        <time>2011-12-04T06:17:57Z</time>
      </trkpt>
      <trkpt lat="45.72695" lon="4.78477">
        <ele>242.8702393</ele>
        <time>2011-12-04T06:18:07Z</time>
      </trkpt>
      <trkpt lat="45.72697" lon="4.78496">
        <ele>243.3508301</ele>
        <time>2011-12-04T06:18:17Z</time>
      </trkpt>
      <trkpt lat="45.72698" lon="4.7851">
        <ele>246.2348633</ele>
        <time>2011-12-04T06:18:24Z</time>
      </trkpt>
      <trkpt lat="45.727" lon="4.78523">
        <ele>245.2734375</ele>
        <time>2011-12-04T06:18:31Z</time>
      </trkpt>
      <trkpt lat="45.72703" lon="4.78545">
        <ele>248.6381836</ele>
        <time>2011-12-04T06:18:42Z</time>
      </trkpt>
      <trkpt lat="45.72704" lon="4.78561">
        <ele>245.2734375</ele>
        <time>2011-12-04T06:18:51Z</time>
      </trkpt>
      <trkpt lat="45.72707" lon="4.78579">
        <ele>244.7928467</ele>
        <time>2011-12-04T06:19:01Z</time>
      </trkpt>
      <trkpt lat="45.72708" lon="4.78598">
        <ele>245.2734375</ele>
        <time>2011-12-04T06:19:11Z</time>
      </trkpt>
      <trkpt lat="45.72709" lon="4.78613">
        <ele>247.1960449</ele>
        <time>2011-12-04T06:19:19Z</time>
      </trkpt>
      <trkpt lat="45.72711" lon="4.7863">
        <ele>249.1187744</ele>
        <time>2011-12-04T06:19:28Z</time>
      </trkpt>
      <trkpt lat="45.72713" lon="4.78644">
        <ele>251.5220947</ele>
        <time>2011-12-04T06:19:36Z</time>
      </trkpt>
      <trkpt lat="45.72716" lon="4.78656">
        <ele>251.5220947</ele>
        <time>2011-12-04T06:19:43Z</time>
      </trkpt>
      <trkpt lat="45.72719" lon="4.78667">
        <ele>254.4060059</ele>
        <time>2011-12-04T06:19:50Z</time>
      </trkpt>
      <trkpt lat="45.72722" lon="4.78682">
        <ele>257.770752</ele>
        <time>2011-12-04T06:19:58Z</time>
      </trkpt>
      <trkpt lat="45.72726" lon="4.78694">
        <ele>257.770752</ele>
        <time>2011-12-04T06:20:06Z</time>
      </trkpt>
      <trkpt lat="45.72733" lon="4.78707">
        <ele>256.8093262</ele>
        <time>2011-12-04T06:20:15Z</time>
      </trkpt>
      <trkpt lat="45.72738" lon="4.78716">
        <ele>257.2900391</ele>
        <time>2011-12-04T06:20:21Z</time>
      </trkpt>
      <trkpt lat="45.72746" lon="4.78728">
        <ele>259.2126465</ele>
        <time>2011-12-04T06:20:30Z</time>
      </trkpt>
      <trkpt lat="45.72756" lon="4.7874">
        <ele>265.9418945</ele>
        <time>2011-12-04T06:20:39Z</time>
      </trkpt>
      <trkpt lat="45.72764" lon="4.78752">
        <ele>269.3065186</ele>
        <time>2011-12-04T06:20:47Z</time>
      </trkpt>
      <trkpt lat="45.72774" lon="4.78764">
        <ele>276.0356445</ele>
        <time>2011-12-04T06:20:55Z</time>
      </trkpt>
      <trkpt lat="45.72784" lon="4.78773">
        <ele>281.8035889</ele>
        <time>2011-12-04T06:21:03Z</time>
      </trkpt>
      <trkpt lat="45.72791" lon="4.78787">
        <ele>282.2843018</ele>
        <time>2011-12-04T06:21:12Z</time>
      </trkpt>
      <trkpt lat="45.72797" lon="4.788">
        <ele>278.9196777</ele>
        <time>2011-12-04T06:21:21Z</time>
      </trkpt>
      <trkpt lat="45.72805" lon="4.78816">
        <ele>277.4776611</ele>
        <time>2011-12-04T06:21:31Z</time>
      </trkpt>
      <trkpt lat="45.72811" lon="4.78827">
        <ele>276.9970703</ele>
        <time>2011-12-04T06:21:38Z</time>
      </trkpt>
      <trkpt lat="45.72821" lon="4.78844">
        <ele>277.4776611</ele>
        <time>2011-12-04T06:21:49Z</time>
      </trkpt>
      <trkpt lat="45.72826" lon="4.78853">
        <ele>277.958252</ele>
        <time>2011-12-04T06:21:55Z</time>
      </trkpt>
      <trkpt lat="45.72832" lon="4.78868">
        <ele>279.8808594</ele>
        <time>2011-12-04T06:22:04Z</time>
      </trkpt>
      <trkpt lat="45.72839" lon="4.7888">
        <ele>280.3616943</ele>
        <time>2011-12-04T06:22:11Z</time>
      </trkpt>
      <trkpt lat="45.72848" lon="4.78892">
        <ele>281.8035889</ele>
        <time>2011-12-04T06:22:18Z</time>
      </trkpt>
      <trkpt lat="45.72854" lon="4.78907">
        <ele>282.7650146</ele>
        <time>2011-12-04T06:22:26Z</time>
      </trkpt>
      <trkpt lat="45.72859" lon="4.78922">
        <ele>282.7650146</ele>
        <time>2011-12-04T06:22:34Z</time>
      </trkpt>
      <trkpt lat="45.72864" lon="4.78936">
        <ele>283.7261963</ele>
        <time>2011-12-04T06:22:42Z</time>
      </trkpt>
      <trkpt lat="45.7287" lon="4.78951">
        <ele>282.7650146</ele>
        <time>2011-12-04T06:22:51Z</time>
      </trkpt>
      <trkpt lat="45.72879" lon="4.78971">
        <ele>284.2069092</ele>
        <time>2011-12-04T06:23:02Z</time>
      </trkpt>
      <trkpt lat="45.72883" lon="4.78979">
        <ele>284.2069092</ele>
        <time>2011-12-04T06:23:07Z</time>
      </trkpt>
      <trkpt lat="45.72889" lon="4.78993">
        <ele>285.6488037</ele>
        <time>2011-12-04T06:23:15Z</time>
      </trkpt>
      <trkpt lat="45.72897" lon="4.79008">
        <ele>287.5714111</ele>
        <time>2011-12-04T06:23:24Z</time>
      </trkpt>
      <trkpt lat="45.72905" lon="4.7902">
        <ele>286.1295166</ele>
        <time>2011-12-04T06:23:33Z</time>
      </trkpt>
      <trkpt lat="45.7291" lon="4.79026">
        <ele>285.6488037</ele>
        <time>2011-12-04T06:23:38Z</time>
      </trkpt>
      <trkpt lat="45.7292" lon="4.79038">
        <ele>286.6102295</ele>
        <time>2011-12-04T06:23:46Z</time>
      </trkpt>
      <trkpt lat="45.72932" lon="4.79054">
        <ele>289.4941406</ele>
        <time>2011-12-04T06:23:56Z</time>
      </trkpt>
      <trkpt lat="45.72941" lon="4.79064">
        <ele>291.416748</ele>
        <time>2011-12-04T06:24:03Z</time>
      </trkpt>
      <trkpt lat="45.72954" lon="4.79075">
        <ele>293.3393555</ele>
        <time>2011-12-04T06:24:12Z</time>
      </trkpt>
      <trkpt lat="45.72965" lon="4.79087">
        <ele>292.3781738</ele>
        <time>2011-12-04T06:24:21Z</time>
      </trkpt>
      <trkpt lat="45.72975" lon="4.79098">
        <ele>292.8587646</ele>
        <time>2011-12-04T06:24:29Z</time>
      </trkpt>
      <trkpt lat="45.72986" lon="4.79109">
        <ele>290.4555664</ele>
        <time>2011-12-04T06:24:38Z</time>
      </trkpt>
      <trkpt lat="45.72997" lon="4.79121">
        <ele>292.3781738</ele>
        <time>2011-12-04T06:24:45Z</time>
      </trkpt>
      <trkpt lat="45.73009" lon="4.79133">
        <ele>294.7813721</ele>
        <time>2011-12-04T06:24:51Z</time>
      </trkpt>
      <trkpt lat="45.73019" lon="4.79146">
        <ele>296.2235107</ele>
        <time>2011-12-04T06:24:56Z</time>
      </trkpt>
      <trkpt lat="45.73028" lon="4.79159">
        <ele>297.6654053</ele>
        <time>2011-12-04T06:25:01Z</time>
      </trkpt>
      <trkpt lat="45.73036" lon="4.79174">
        <ele>298.1461182</ele>
        <time>2011-12-04T06:25:07Z</time>
      </trkpt>
      <trkpt lat="45.73048" lon="4.79198">
        <ele>297.6654053</ele>
        <time>2011-12-04T06:25:15Z</time>
      </trkpt>
      <trkpt lat="45.73056" lon="4.79214">
        <ele>297.1846924</ele>
        <time>2011-12-04T06:25:21Z</time>
      </trkpt>
      <trkpt lat="45.73064" lon="4.79224">
        <ele>298.1461182</ele>
        <time>2011-12-04T06:25:26Z</time>
      </trkpt>
      <trkpt lat="45.73072" lon="4.79245">
        <ele>299.1072998</ele>
        <time>2011-12-04T06:25:33Z</time>
      </trkpt>
      <trkpt lat="45.73076" lon="4.79263">
        <ele>300.5493164</ele>
        <time>2011-12-04T06:25:39Z</time>
      </trkpt>
      <trkpt lat="45.73085" lon="4.79281">
        <ele>302.9525146</ele>
        <time>2011-12-04T06:25:45Z</time>
      </trkpt>
      <trkpt lat="45.73093" lon="4.793">
        <ele>302.9525146</ele>
        <time>2011-12-04T06:25:51Z</time>
      </trkpt>
      <trkpt lat="45.73099" lon="4.79316">
        <ele>302.4719238</ele>
        <time>2011-12-04T06:25:56Z</time>
      </trkpt>
      <trkpt lat="45.73104" lon="4.79327">
        <ele>301.0299072</ele>
        <time>2011-12-04T06:26:00Z</time>
      </trkpt>
      <trkpt lat="45.73109" lon="4.79341">
        <ele>301.5106201</ele>
        <time>2011-12-04T06:26:05Z</time>
      </trkpt>
      <trkpt lat="45.73116" lon="4.79353">
        <ele>301.5106201</ele>
        <time>2011-12-04T06:26:09Z</time>
      </trkpt>
      <trkpt lat="45.73124" lon="4.79368">
        <ele>302.4719238</ele>
        <time>2011-12-04T06:26:14Z</time>
      </trkpt>
      <trkpt lat="45.73132" lon="4.79382">
        <ele>301.5106201</ele>
        <time>2011-12-04T06:26:19Z</time>
      </trkpt>
      <trkpt lat="45.73139" lon="4.79396">
        <ele>301.991333</ele>
        <time>2011-12-04T06:26:24Z</time>
      </trkpt>
      <trkpt lat="45.73145" lon="4.79407">
        <ele>301.991333</ele>
        <time>2011-12-04T06:26:28Z</time>
      </trkpt>
      <trkpt lat="45.73155" lon="4.79424">
        <ele>300.5493164</ele>
        <time>2011-12-04T06:26:34Z</time>
      </trkpt>
      <trkpt lat="45.73165" lon="4.79437">
        <ele>301.0299072</ele>
        <time>2011-12-04T06:26:39Z</time>
      </trkpt>
      <trkpt lat="45.73172" lon="4.7945">
        <ele>301.5106201</ele>
        <time>2011-12-04T06:26:44Z</time>
      </trkpt>
      <trkpt lat="45.73181" lon="4.79462">
        <ele>301.0299072</ele>
        <time>2011-12-04T06:26:49Z</time>
      </trkpt>
      <trkpt lat="45.7319" lon="4.79478">
        <ele>301.991333</ele>
        <time>2011-12-04T06:26:55Z</time>
      </trkpt>
      <trkpt lat="45.73199" lon="4.7949">
        <ele>302.9525146</ele>
        <time>2011-12-04T06:27:00Z</time>
      </trkpt>
      <trkpt lat="45.73206" lon="4.79502">
        <ele>301.991333</ele>
        <time>2011-12-04T06:27:05Z</time>
      </trkpt>
      <trkpt lat="45.73216" lon="4.79518">
        <ele>301.991333</ele>
        <time>2011-12-04T06:27:11Z</time>
      </trkpt>
      <trkpt lat="45.73224" lon="4.79531">
        <ele>301.991333</ele>
        <time>2011-12-04T06:27:16Z</time>
      </trkpt>
      <trkpt lat="45.73236" lon="4.79551">
        <ele>301.5106201</ele>
        <time>2011-12-04T06:27:23Z</time>
      </trkpt>
      <trkpt lat="45.73244" lon="4.79565">
        <ele>301.0299072</ele>
        <time>2011-12-04T06:27:28Z</time>
      </trkpt>
      <trkpt lat="45.73256" lon="4.79584">
        <ele>301.5106201</ele>
        <time>2011-12-04T06:27:35Z</time>
      </trkpt>
      <trkpt lat="45.73264" lon="4.79595">
        <ele>301.0299072</ele>
        <time>2011-12-04T06:27:39Z</time>
      </trkpt>
      <trkpt lat="45.73273" lon="4.79607">
        <ele>301.5106201</ele>
        <time>2011-12-04T06:27:44Z</time>
      </trkpt>
      <trkpt lat="45.73279" lon="4.79617">
        <ele>301.991333</ele>
        <time>2011-12-04T06:27:48Z</time>
      </trkpt>
      <trkpt lat="45.73292" lon="4.79635">
        <ele>302.9525146</ele>
        <time>2011-12-04T06:27:55Z</time>
      </trkpt>
      <trkpt lat="45.73303" lon="4.79649">
        <ele>302.4719238</ele>
        <time>2011-12-04T06:28:01Z</time>
      </trkpt>
      <trkpt lat="45.73314" lon="4.79665">
        <ele>301.991333</ele>
        <time>2011-12-04T06:28:08Z</time>
      </trkpt>
      <trkpt lat="45.73323" lon="4.79677">
        <ele>301.5106201</ele>
        <time>2011-12-04T06:28:13Z</time>
      </trkpt>
      <trkpt lat="45.73337" lon="4.79694">
        <ele>302.4719238</ele>
        <time>2011-12-04T06:28:20Z</time>
      </trkpt>
      <trkpt lat="45.7335" lon="4.79708">
        <ele>301.991333</ele>
        <time>2011-12-04T06:28:26Z</time>
      </trkpt>
      <trkpt lat="45.73359" lon="4.79719">
        <ele>300.0687256</ele>
        <time>2011-12-04T06:28:31Z</time>
      </trkpt>
      <trkpt lat="45.73363" lon="4.79727">
        <ele>299.5880127</ele>
        <time>2011-12-04T06:28:34Z</time>
      </trkpt>
      <trkpt lat="45.73379" lon="4.79747">
        <ele>298.626709</ele>
        <time>2011-12-04T06:28:42Z</time>
      </trkpt>
      <trkpt lat="45.73389" lon="4.7976">
        <ele>298.1461182</ele>
        <time>2011-12-04T06:28:47Z</time>
      </trkpt>
      <trkpt lat="45.7339" lon="4.79762">
        <ele>297.6654053</ele>
        <time>2011-12-04T06:28:48Z</time>
      </trkpt>
      <trkpt lat="45.73403" lon="4.79778">
        <ele>296.2235107</ele>
        <time>2011-12-04T06:28:55Z</time>
      </trkpt>
      <trkpt lat="45.73413" lon="4.79794">
        <ele>295.2619629</ele>
        <time>2011-12-04T06:29:01Z</time>
      </trkpt>
      <trkpt lat="45.73424" lon="4.79808">
        <ele>296.2235107</ele>
        <time>2011-12-04T06:29:07Z</time>
      </trkpt>
      <trkpt lat="45.73435" lon="4.79822">
        <ele>296.2235107</ele>
        <time>2011-12-04T06:29:13Z</time>
      </trkpt>
      <trkpt lat="45.73445" lon="4.79833">
        <ele>296.7041016</ele>
        <time>2011-12-04T06:29:18Z</time>
      </trkpt>
      <trkpt lat="45.73459" lon="4.79851">
        <ele>298.626709</ele>
        <time>2011-12-04T06:29:25Z</time>
      </trkpt>
      <trkpt lat="45.7347" lon="4.79865">
        <ele>300.5493164</ele>
        <time>2011-12-04T06:29:31Z</time>
      </trkpt>
      <trkpt lat="45.73483" lon="4.79882">
        <ele>300.0687256</ele>
        <time>2011-12-04T06:29:38Z</time>
      </trkpt>
      <trkpt lat="45.73493" lon="4.79896">
        <ele>299.1072998</ele>
        <time>2011-12-04T06:29:44Z</time>
      </trkpt>
      <trkpt lat="45.73502" lon="4.79904">
        <ele>300.5493164</ele>
        <time>2011-12-04T06:29:48Z</time>
      </trkpt>
      <trkpt lat="45.73514" lon="4.79915">
        <ele>301.0299072</ele>
        <time>2011-12-04T06:29:53Z</time>
      </trkpt>
      <trkpt lat="45.73524" lon="4.79927">
        <ele>301.0299072</ele>
        <time>2011-12-04T06:29:58Z</time>
      </trkpt>
      <trkpt lat="45.73532" lon="4.79935">
        <ele>299.5880127</ele>
        <time>2011-12-04T06:30:03Z</time>
      </trkpt>
      <trkpt lat="45.7354" lon="4.79945">
        <ele>300.0687256</ele>
        <time>2011-12-04T06:30:10Z</time>
      </trkpt>
      <trkpt lat="45.73551" lon="4.79954">
        <ele>300.0687256</ele>
        <time>2011-12-04T06:30:20Z</time>
      </trkpt>
      <trkpt lat="45.73561" lon="4.79959">
        <ele>300.0687256</ele>
        <time>2011-12-04T06:30:27Z</time>
      </trkpt>
      <trkpt lat="45.73572" lon="4.79968">
        <ele>300.5493164</ele>
        <time>2011-12-04T06:30:36Z</time>
      </trkpt>
      <trkpt lat="45.73584" lon="4.79974">
        <ele>301.0299072</ele>
        <time>2011-12-04T06:30:44Z</time>
      </trkpt>
      <trkpt lat="45.73595" lon="4.79982">
        <ele>301.991333</ele>
        <time>2011-12-04T06:30:54Z</time>
      </trkpt>
      <trkpt lat="45.73603" lon="4.7999">
        <ele>303.4332275</ele>
        <time>2011-12-04T06:31:00Z</time>
      </trkpt>
      <trkpt lat="45.73607" lon="4.79994">
        <ele>306.7978516</ele>
        <time>2011-12-04T06:31:05Z</time>
      </trkpt>
      <trkpt lat="45.73614" lon="4.80001">
        <ele>311.1237793</ele>
        <time>2011-12-04T06:31:12Z</time>
      </trkpt>
      <trkpt lat="45.73619" lon="4.80006">
        <ele>312.5657959</ele>
        <time>2011-12-04T06:31:16Z</time>
      </trkpt>
      <trkpt lat="45.73628" lon="4.80007">
        <ele>314.0078125</ele>
        <time>2011-12-04T06:31:23Z</time>
      </trkpt>
      <trkpt lat="45.73633" lon="4.80009">
        <ele>320.7370605</ele>
        <time>2011-12-04T06:31:28Z</time>
      </trkpt>
      <trkpt lat="45.73638" lon="4.8001">
        <ele>324.5822754</ele>
        <time>2011-12-04T06:31:32Z</time>
      </trkpt>
      <trkpt lat="45.7364" lon="4.80008">
        <ele>326.0241699</ele>
        <time>2011-12-04T06:31:34Z</time>
      </trkpt>
      <trkpt lat="45.73645" lon="4.80006">
        <ele>328.9083252</ele>
        <time>2011-12-04T06:31:39Z</time>
      </trkpt>
      <trkpt lat="45.7365" lon="4.8001">
        <ele>331.3115234</ele>
        <time>2011-12-04T06:31:43Z</time>
      </trkpt>
      <trkpt lat="45.73662" lon="4.80017">
        <ele>330.3502197</ele>
        <time>2011-12-04T06:31:50Z</time>
      </trkpt>
      <trkpt lat="45.73679" lon="4.80028">
        <ele>326.5048828</ele>
        <time>2011-12-04T06:31:59Z</time>
      </trkpt>
      <trkpt lat="45.73692" lon="4.80034">
        <ele>326.0241699</ele>
        <time>2011-12-04T06:32:05Z</time>
      </trkpt>
      <trkpt lat="45.73704" lon="4.80043">
        <ele>325.0629883</ele>
        <time>2011-12-04T06:32:12Z</time>
      </trkpt>
      <trkpt lat="45.73714" lon="4.80053">
        <ele>322.659668</ele>
        <time>2011-12-04T06:32:20Z</time>
      </trkpt>
      <trkpt lat="45.73719" lon="4.8006">
        <ele>321.2177734</ele>
        <time>2011-12-04T06:32:25Z</time>
      </trkpt>
      <trkpt lat="45.73728" lon="4.80068">
        <ele>319.2950439</ele>
        <time>2011-12-04T06:32:32Z</time>
      </trkpt>
      <trkpt lat="45.73742" lon="4.80075">
        <ele>324.5822754</ele>
        <time>2011-12-04T06:32:39Z</time>
      </trkpt>
      <trkpt lat="45.73757" lon="4.80089">
        <ele>333.7147217</ele>
        <time>2011-12-04T06:32:47Z</time>
      </trkpt>
      <trkpt lat="45.73761" lon="4.80102">
        <ele>332.75354</ele>
        <time>2011-12-04T06:32:53Z</time>
      </trkpt>
      <trkpt lat="45.73761" lon="4.80106">
        <ele>332.75354</ele>
        <time>2011-12-04T06:32:54Z</time>
      </trkpt>
      <trkpt lat="45.73755" lon="4.80131">
        <ele>328.9083252</ele>
        <time>2011-12-04T06:33:00Z</time>
      </trkpt>
      <trkpt lat="45.73748" lon="4.80162">
        <ele>324.5822754</ele>
        <time>2011-12-04T06:33:08Z</time>
      </trkpt>
      <trkpt lat="45.73739" lon="4.80189">
        <ele>321.6983643</ele>
        <time>2011-12-04T06:33:16Z</time>
      </trkpt>
      <trkpt lat="45.73731" lon="4.80211">
        <ele>320.7370605</ele>
        <time>2011-12-04T06:33:22Z</time>
      </trkpt>
      <trkpt lat="45.73729" lon="4.80221">
        <ele>321.2177734</ele>
        <time>2011-12-04T06:33:25Z</time>
      </trkpt>
      <trkpt lat="45.73722" lon="4.80243">
        <ele>318.3336182</ele>
        <time>2011-12-04T06:33:31Z</time>
      </trkpt>
      <trkpt lat="45.73719" lon="4.80265">
        <ele>319.2950439</ele>
        <time>2011-12-04T06:33:36Z</time>
      </trkpt>
      <trkpt lat="45.73711" lon="4.80283">
        <ele>319.2950439</ele>
        <time>2011-12-04T06:33:41Z</time>
      </trkpt>
      <trkpt lat="45.73703" lon="4.80311">
        <ele>315.9304199</ele>
        <time>2011-12-04T06:33:48Z</time>
      </trkpt>
      <trkpt lat="45.73697" lon="4.80337">
        <ele>313.5272217</ele>
        <time>2011-12-04T06:33:54Z</time>
      </trkpt>
      <trkpt lat="45.73694" lon="4.80358">
        <ele>310.6430664</ele>
        <time>2011-12-04T06:33:59Z</time>
      </trkpt>
      <trkpt lat="45.73691" lon="4.8038">
        <ele>309.2011719</ele>
        <time>2011-12-04T06:34:04Z</time>
      </trkpt>
      <trkpt lat="45.73686" lon="4.80402">
        <ele>305.355957</ele>
        <time>2011-12-04T06:34:09Z</time>
      </trkpt>
      <trkpt lat="45.73683" lon="4.80423">
        <ele>302.9525146</ele>
        <time>2011-12-04T06:34:14Z</time>
      </trkpt>
      <trkpt lat="45.73676" lon="4.80439">
        <ele>302.4719238</ele>
        <time>2011-12-04T06:34:19Z</time>
      </trkpt>
      <trkpt lat="45.73673" lon="4.80447">
        <ele>304.3946533</ele>
        <time>2011-12-04T06:34:23Z</time>
      </trkpt>
      <trkpt lat="45.7368" lon="4.80449">
        <ele>303.4332275</ele>
        <time>2011-12-04T06:34:28Z</time>
      </trkpt>
      <trkpt lat="45.73688" lon="4.80453">
        <ele>302.4719238</ele>
        <time>2011-12-04T06:34:34Z</time>
      </trkpt>
      <trkpt lat="45.73692" lon="4.80459">
        <ele>303.4332275</ele>
        <time>2011-12-04T06:34:37Z</time>
      </trkpt>
      <trkpt lat="45.73703" lon="4.8047">
        <ele>308.720459</ele>
        <time>2011-12-04T06:34:45Z</time>
      </trkpt>
      <trkpt lat="45.73713" lon="4.80482">
        <ele>310.6430664</ele>
        <time>2011-12-04T06:34:52Z</time>
      </trkpt>
      <trkpt lat="45.73716" lon="4.80488">
        <ele>308.720459</ele>
        <time>2011-12-04T06:34:55Z</time>
      </trkpt>
      <trkpt lat="45.7372" lon="4.80516">
        <ele>305.8366699</ele>
        <time>2011-12-04T06:35:01Z</time>
      </trkpt>
      <trkpt lat="45.73721" lon="4.80526">
        <ele>305.8366699</ele>
        <time>2011-12-04T06:35:03Z</time>
      </trkpt>
      <trkpt lat="45.73732" lon="4.80544">
        <ele>301.991333</ele>
        <time>2011-12-04T06:35:09Z</time>
      </trkpt>
      <trkpt lat="45.73743" lon="4.80549">
        <ele>300.0687256</ele>
        <time>2011-12-04T06:35:13Z</time>
      </trkpt>
      <trkpt lat="45.7376" lon="4.80557">
        <ele>298.626709</ele>
        <time>2011-12-04T06:35:19Z</time>
      </trkpt>
      <trkpt lat="45.73771" lon="4.8056">
        <ele>300.0687256</ele>
        <time>2011-12-04T06:35:24Z</time>
      </trkpt>
      <trkpt lat="45.73785" lon="4.80567">
        <ele>301.0299072</ele>
        <time>2011-12-04T06:35:29Z</time>
      </trkpt>
      <trkpt lat="45.738" lon="4.80573">
        <ele>301.0299072</ele>
        <time>2011-12-04T06:35:34Z</time>
      </trkpt>
      <trkpt lat="45.73802" lon="4.80573">
        <ele>299.5880127</ele>
        <time>2011-12-04T06:35:35Z</time>
      </trkpt>
      <trkpt lat="45.73819" lon="4.80565">
        <ele>298.626709</ele>
        <time>2011-12-04T06:35:41Z</time>
      </trkpt>
      <trkpt lat="45.73825" lon="4.80562">
        <ele>299.5880127</ele>
        <time>2011-12-04T06:35:43Z</time>
      </trkpt>
      <trkpt lat="45.73842" lon="4.80555">
        <ele>302.4719238</ele>
        <time>2011-12-04T06:35:49Z</time>
      </trkpt>
      <trkpt lat="45.73855" lon="4.80556">
        <ele>304.3946533</ele>
        <time>2011-12-04T06:35:55Z</time>
      </trkpt>
      <trkpt lat="45.7387" lon="4.80558">
        <ele>305.355957</ele>
        <time>2011-12-04T06:36:00Z</time>
      </trkpt>
      <trkpt lat="45.73877" lon="4.8056">
        <ele>305.8366699</ele>
        <time>2011-12-04T06:36:03Z</time>
      </trkpt>
      <trkpt lat="45.73891" lon="4.80572">
        <ele>305.8366699</ele>
        <time>2011-12-04T06:36:09Z</time>
      </trkpt>
      <trkpt lat="45.73897" lon="4.80581">
        <ele>306.3172607</ele>
        <time>2011-12-04T06:36:12Z</time>
      </trkpt>
      <trkpt lat="45.73906" lon="4.80596">
        <ele>305.355957</ele>
        <time>2011-12-04T06:36:17Z</time>
      </trkpt>
      <trkpt lat="45.7391" lon="4.80609">
        <ele>301.5106201</ele>
        <time>2011-12-04T06:36:21Z</time>
      </trkpt>
      <trkpt lat="45.73921" lon="4.80632">
        <ele>299.5880127</ele>
        <time>2011-12-04T06:36:28Z</time>
      </trkpt>
      <trkpt lat="45.7393" lon="4.80641">
        <ele>297.6654053</ele>
        <time>2011-12-04T06:36:32Z</time>
      </trkpt>
      <trkpt lat="45.7394" lon="4.80647">
        <ele>298.626709</ele>
        <time>2011-12-04T06:36:36Z</time>
      </trkpt>
      <trkpt lat="45.73952" lon="4.80641">
        <ele>296.2235107</ele>
        <time>2011-12-04T06:36:42Z</time>
      </trkpt>
      <trkpt lat="45.73963" lon="4.80637">
        <ele>295.2619629</ele>
        <time>2011-12-04T06:36:46Z</time>
      </trkpt>
      <trkpt lat="45.73966" lon="4.80638">
        <ele>295.2619629</ele>
        <time>2011-12-04T06:36:47Z</time>
      </trkpt>
      <trkpt lat="45.73991" lon="4.8063">
        <ele>293.8200684</ele>
        <time>2011-12-04T06:36:55Z</time>
      </trkpt>
      <trkpt lat="45.74003" lon="4.80626">
        <ele>295.2619629</ele>
        <time>2011-12-04T06:37:00Z</time>
      </trkpt>
      <trkpt lat="45.74015" lon="4.80623">
        <ele>297.1846924</ele>
        <time>2011-12-04T06:37:06Z</time>
      </trkpt>
      <trkpt lat="45.74024" lon="4.80628">
        <ele>296.7041016</ele>
        <time>2011-12-04T06:37:11Z</time>
      </trkpt>
      <trkpt lat="45.7403" lon="4.8063">
        <ele>296.7041016</ele>
        <time>2011-12-04T06:37:13Z</time>
      </trkpt>
      <trkpt lat="45.74048" lon="4.80637">
        <ele>295.7426758</ele>
        <time>2011-12-04T06:37:19Z</time>
      </trkpt>
      <trkpt lat="45.74063" lon="4.80644">
        <ele>298.1461182</ele>
        <time>2011-12-04T06:37:24Z</time>
      </trkpt>
      <trkpt lat="45.74077" lon="4.80646">
        <ele>299.1072998</ele>
        <time>2011-12-04T06:37:29Z</time>
      </trkpt>
      <trkpt lat="45.74082" lon="4.80646">
        <ele>297.6654053</ele>
        <time>2011-12-04T06:37:31Z</time>
      </trkpt>
      <trkpt lat="45.74094" lon="4.80644">
        <ele>296.2235107</ele>
        <time>2011-12-04T06:37:36Z</time>
      </trkpt>
      <trkpt lat="45.74112" lon="4.80642">
        <ele>295.2619629</ele>
        <time>2011-12-04T06:37:42Z</time>
      </trkpt>
      <trkpt lat="45.74124" lon="4.80639">
        <ele>296.2235107</ele>
        <time>2011-12-04T06:37:47Z</time>
      </trkpt>
      <trkpt lat="45.74136" lon="4.80637">
        <ele>296.2235107</ele>
        <time>2011-12-04T06:37:51Z</time>
      </trkpt>
      <trkpt lat="45.74149" lon="4.80637">
        <ele>293.3393555</ele>
        <time>2011-12-04T06:37:56Z</time>
      </trkpt>
      <trkpt lat="45.74163" lon="4.80635">
        <ele>296.2235107</ele>
        <time>2011-12-04T06:38:02Z</time>
      </trkpt>
      <trkpt lat="45.74178" lon="4.80637">
        <ele>298.1461182</ele>
        <time>2011-12-04T06:38:07Z</time>
      </trkpt>
      <trkpt lat="45.74194" lon="4.80644">
        <ele>297.6654053</ele>
        <time>2011-12-04T06:38:13Z</time>
      </trkpt>
      <trkpt lat="45.74205" lon="4.80653">
        <ele>298.626709</ele>
        <time>2011-12-04T06:38:17Z</time>
      </trkpt>
      <trkpt lat="45.74219" lon="4.80664">
        <ele>300.5493164</ele>
        <time>2011-12-04T06:38:22Z</time>
      </trkpt>
      <trkpt lat="45.74232" lon="4.80676">
        <ele>303.9139404</ele>
        <time>2011-12-04T06:38:27Z</time>
      </trkpt>
      <trkpt lat="45.74241" lon="4.80685">
        <ele>300.5493164</ele>
        <time>2011-12-04T06:38:32Z</time>
      </trkpt>
      <trkpt lat="45.74255" lon="4.80696">
        <ele>302.4719238</ele>
        <time>2011-12-04T06:38:37Z</time>
      </trkpt>
      <trkpt lat="45.74265" lon="4.80701">
        <ele>296.7041016</ele>
        <time>2011-12-04T06:38:43Z</time>
      </trkpt>
      <trkpt lat="45.74278" lon="4.80707">
        <ele>296.2235107</ele>
        <time>2011-12-04T06:38:48Z</time>
      </trkpt>
      <trkpt lat="45.74289" lon="4.80713">
        <ele>290.4555664</ele>
        <time>2011-12-04T06:38:54Z</time>
      </trkpt>
      <trkpt lat="45.74291" lon="4.80714">
        <ele>290.4555664</ele>
        <time>2011-12-04T06:38:55Z</time>
      </trkpt>
      <trkpt lat="45.7431" lon="4.80726">
        <ele>290.4555664</ele>
        <time>2011-12-04T06:39:02Z</time>
      </trkpt>
      <trkpt lat="45.74329" lon="4.80735">
        <ele>296.7041016</ele>
        <time>2011-12-04T06:39:08Z</time>
      </trkpt>
      <trkpt lat="45.74343" lon="4.80747">
        <ele>299.5880127</ele>
        <time>2011-12-04T06:39:14Z</time>
      </trkpt>
      <trkpt lat="45.74343" lon="4.80748">
        <ele>296.7041016</ele>
        <time>2011-12-04T06:39:15Z</time>
      </trkpt>
      <trkpt lat="45.74355" lon="4.80755">
        <ele>295.2619629</ele>
        <time>2011-12-04T06:39:20Z</time>
      </trkpt>
      <trkpt lat="45.74369" lon="4.80762">
        <ele>295.7426758</ele>
        <time>2011-12-04T06:39:25Z</time>
      </trkpt>
      <trkpt lat="45.74378" lon="4.80768">
        <ele>297.1846924</ele>
        <time>2011-12-04T06:39:28Z</time>
      </trkpt>
      <trkpt lat="45.74394" lon="4.80778">
        <ele>300.5493164</ele>
        <time>2011-12-04T06:39:33Z</time>
      </trkpt>
      <trkpt lat="45.74402" lon="4.80784">
        <ele>301.991333</ele>
        <time>2011-12-04T06:39:37Z</time>
      </trkpt>
      <trkpt lat="45.74412" lon="4.80795">
        <ele>305.8366699</ele>
        <time>2011-12-04T06:39:42Z</time>
      </trkpt>
      <trkpt lat="45.74421" lon="4.80809">
        <ele>303.4332275</ele>
        <time>2011-12-04T06:39:48Z</time>
      </trkpt>
      <trkpt lat="45.74429" lon="4.80821">
        <ele>298.626709</ele>
        <time>2011-12-04T06:39:53Z</time>
      </trkpt>
      <trkpt lat="45.74436" lon="4.80837">
        <ele>292.3781738</ele>
        <time>2011-12-04T06:39:59Z</time>
      </trkpt>
      <trkpt lat="45.74446" lon="4.80852">
        <ele>289.0135498</ele>
        <time>2011-12-04T06:40:05Z</time>
      </trkpt>
      <trkpt lat="45.74457" lon="4.80862">
        <ele>285.1682129</ele>
        <time>2011-12-04T06:40:10Z</time>
      </trkpt>
      <trkpt lat="45.74467" lon="4.80871">
        <ele>286.1295166</ele>
        <time>2011-12-04T06:40:14Z</time>
      </trkpt>
      <trkpt lat="45.74477" lon="4.80877">
        <ele>284.2069092</ele>
        <time>2011-12-04T06:40:18Z</time>
      </trkpt>
      <trkpt lat="45.74489" lon="4.80885">
        <ele>283.2456055</ele>
        <time>2011-12-04T06:40:23Z</time>
      </trkpt>
      <trkpt lat="45.74501" lon="4.80891">
        <ele>280.8424072</ele>
        <time>2011-12-04T06:40:28Z</time>
      </trkpt>
      <trkpt lat="45.74515" lon="4.80896">
        <ele>279.4002686</ele>
        <time>2011-12-04T06:40:33Z</time>
      </trkpt>
      <trkpt lat="45.74531" lon="4.809">
        <ele>278.9196777</ele>
        <time>2011-12-04T06:40:39Z</time>
      </trkpt>
      <trkpt lat="45.74535" lon="4.80901">
        <ele>280.3616943</ele>
        <time>2011-12-04T06:40:40Z</time>
      </trkpt>
      <trkpt lat="45.74549" lon="4.8091">
        <ele>277.4776611</ele>
        <time>2011-12-04T06:40:46Z</time>
      </trkpt>
      <trkpt lat="45.74566" lon="4.80926">
        <ele>279.4002686</ele>
        <time>2011-12-04T06:40:52Z</time>
      </trkpt>
      <trkpt lat="45.7458" lon="4.80941">
        <ele>282.2843018</ele>
        <time>2011-12-04T06:40:57Z</time>
      </trkpt>
      <trkpt lat="45.7459" lon="4.80957">
        <ele>283.2456055</ele>
        <time>2011-12-04T06:41:02Z</time>
      </trkpt>
      <trkpt lat="45.74597" lon="4.80967">
        <ele>281.322998</ele>
        <time>2011-12-04T06:41:06Z</time>
      </trkpt>
      <trkpt lat="45.74604" lon="4.80978">
        <ele>279.4002686</ele>
        <time>2011-12-04T06:41:10Z</time>
      </trkpt>
      <trkpt lat="45.74612" lon="4.80991">
        <ele>275.0744629</ele>
        <time>2011-12-04T06:41:15Z</time>
      </trkpt>
      <trkpt lat="45.74622" lon="4.81008">
        <ele>273.1518555</ele>
        <time>2011-12-04T06:41:21Z</time>
      </trkpt>
      <trkpt lat="45.74625" lon="4.81023">
        <ele>271.7097168</ele>
        <time>2011-12-04T06:41:26Z</time>
      </trkpt>
      <trkpt lat="45.74629" lon="4.81041">
        <ele>271.229126</ele>
        <time>2011-12-04T06:41:31Z</time>
      </trkpt>
      <trkpt lat="45.74631" lon="4.8106">
        <ele>272.6711426</ele>
        <time>2011-12-04T06:41:36Z</time>
      </trkpt>
      <trkpt lat="45.74638" lon="4.81077">
        <ele>272.6711426</ele>
        <time>2011-12-04T06:41:41Z</time>
      </trkpt>
      <trkpt lat="45.74646" lon="4.8109">
        <ele>272.6711426</ele>
        <time>2011-12-04T06:41:46Z</time>
      </trkpt>
      <trkpt lat="45.74658" lon="4.81104">
        <ele>272.1904297</ele>
        <time>2011-12-04T06:41:52Z</time>
      </trkpt>
      <trkpt lat="45.74665" lon="4.81109">
        <ele>270.2677002</ele>
        <time>2011-12-04T06:41:56Z</time>
      </trkpt>
      <trkpt lat="45.74676" lon="4.81115">
        <ele>269.3065186</ele>
        <time>2011-12-04T06:42:01Z</time>
      </trkpt>
      <trkpt lat="45.7469" lon="4.81121">
        <ele>269.3065186</ele>
        <time>2011-12-04T06:42:07Z</time>
      </trkpt>
      <trkpt lat="45.74701" lon="4.81128">
        <ele>270.2677002</ele>
        <time>2011-12-04T06:42:11Z</time>
      </trkpt>
      <trkpt lat="45.7471" lon="4.81132">
        <ele>270.2677002</ele>
        <time>2011-12-04T06:42:15Z</time>
      </trkpt>
      <trkpt lat="45.74726" lon="4.81138">
        <ele>271.7097168</ele>
        <time>2011-12-04T06:42:20Z</time>
      </trkpt>
      <trkpt lat="45.74733" lon="4.81142">
        <ele>270.7484131</ele>
        <time>2011-12-04T06:42:23Z</time>
      </trkpt>
      <trkpt lat="45.74752" lon="4.81154">
        <ele>275.5550537</ele>
        <time>2011-12-04T06:42:29Z</time>
      </trkpt>
      <trkpt lat="45.74757" lon="4.81156">
        <ele>276.9970703</ele>
        <time>2011-12-04T06:42:31Z</time>
      </trkpt>
      <trkpt lat="45.74772" lon="4.81167">
        <ele>278.4389648</ele>
        <time>2011-12-04T06:42:37Z</time>
      </trkpt>
      <trkpt lat="45.74782" lon="4.81171">
        <ele>277.4776611</ele>
        <time>2011-12-04T06:42:41Z</time>
      </trkpt>
      <trkpt lat="45.74795" lon="4.81186">
        <ele>275.0744629</ele>
        <time>2011-12-04T06:42:48Z</time>
      </trkpt>
      <trkpt lat="45.74798" lon="4.81201">
        <ele>271.229126</ele>
        <time>2011-12-04T06:42:53Z</time>
      </trkpt>
      <trkpt lat="45.74802" lon="4.8122">
        <ele>266.9031982</ele>
        <time>2011-12-04T06:42:59Z</time>
      </trkpt>
      <trkpt lat="45.74805" lon="4.81235">
        <ele>265.9418945</ele>
        <time>2011-12-04T06:43:03Z</time>
      </trkpt>
      <trkpt lat="45.74813" lon="4.81249">
        <ele>263.0578613</ele>
        <time>2011-12-04T06:43:09Z</time>
      </trkpt>
      <trkpt lat="45.74821" lon="4.81256">
        <ele>263.5385742</ele>
        <time>2011-12-04T06:43:13Z</time>
      </trkpt>
      <trkpt lat="45.74823" lon="4.81259">
        <ele>264.0192871</ele>
        <time>2011-12-04T06:43:14Z</time>
      </trkpt>
      <trkpt lat="45.7483" lon="4.81271">
        <ele>267.864502</ele>
        <time>2011-12-04T06:43:18Z</time>
      </trkpt>
      <trkpt lat="45.74845" lon="4.81283">
        <ele>266.4224854</ele>
        <time>2011-12-04T06:43:25Z</time>
      </trkpt>
      <trkpt lat="45.74855" lon="4.81297">
        <ele>265.4613037</ele>
        <time>2011-12-04T06:43:31Z</time>
      </trkpt>
      <trkpt lat="45.74861" lon="4.81307">
        <ele>262.5771484</ele>
        <time>2011-12-04T06:43:34Z</time>
      </trkpt>
      <trkpt lat="45.74864" lon="4.81312">
        <ele>263.0578613</ele>
        <time>2011-12-04T06:43:36Z</time>
      </trkpt>
      <trkpt lat="45.74867" lon="4.81321">
        <ele>261.1352539</ele>
        <time>2011-12-04T06:43:39Z</time>
      </trkpt>
      <trkpt lat="45.74872" lon="4.81332">
        <ele>262.0965576</ele>
        <time>2011-12-04T06:43:43Z</time>
      </trkpt>
      <trkpt lat="45.74882" lon="4.81349">
        <ele>264.9805908</ele>
        <time>2011-12-04T06:43:48Z</time>
      </trkpt>
      <trkpt lat="45.74892" lon="4.81362">
        <ele>266.9031982</ele>
        <time>2011-12-04T06:43:53Z</time>
      </trkpt>
      <trkpt lat="45.74899" lon="4.81375">
        <ele>264.9805908</ele>
        <time>2011-12-04T06:43:58Z</time>
      </trkpt>
      <trkpt lat="45.74911" lon="4.81386">
        <ele>262.0965576</ele>
        <time>2011-12-04T06:44:04Z</time>
      </trkpt>
      <trkpt lat="45.74922" lon="4.81393">
        <ele>260.654541</ele>
        <time>2011-12-04T06:44:08Z</time>
      </trkpt>
      <trkpt lat="45.74931" lon="4.81399">
        <ele>258.7319336</ele>
        <time>2011-12-04T06:44:12Z</time>
      </trkpt>
      <trkpt lat="45.74942" lon="4.81406">
        <ele>257.2900391</ele>
        <time>2011-12-04T06:44:17Z</time>
      </trkpt>
      <trkpt lat="45.74955" lon="4.81414">
        <ele>258.2513428</ele>
        <time>2011-12-04T06:44:22Z</time>
      </trkpt>
      <trkpt lat="45.74964" lon="4.81419">
        <ele>259.2126465</ele>
        <time>2011-12-04T06:44:26Z</time>
      </trkpt>
      <trkpt lat="45.74973" lon="4.81421">
        <ele>259.2126465</ele>
        <time>2011-12-04T06:44:30Z</time>
      </trkpt>
      <trkpt lat="45.74982" lon="4.81423">
        <ele>258.7319336</ele>
        <time>2011-12-04T06:44:34Z</time>
      </trkpt>
      <trkpt lat="45.74991" lon="4.81423">
        <ele>258.2513428</ele>
        <time>2011-12-04T06:44:39Z</time>
      </trkpt>
      <trkpt lat="45.75004" lon="4.81422">
        <ele>258.2513428</ele>
        <time>2011-12-04T06:44:44Z</time>
      </trkpt>
      <trkpt lat="45.75006" lon="4.81422">
        <ele>258.2513428</ele>
        <time>2011-12-04T06:44:45Z</time>
      </trkpt>
      <trkpt lat="45.75019" lon="4.81421">
        <ele>257.770752</ele>
        <time>2011-12-04T06:44:50Z</time>
      </trkpt>
      <trkpt lat="45.75038" lon="4.81417">
        <ele>255.8480225</ele>
        <time>2011-12-04T06:44:57Z</time>
      </trkpt>
      <trkpt lat="45.75051" lon="4.81418">
        <ele>256.3287354</ele>
        <time>2011-12-04T06:45:02Z</time>
      </trkpt>
      <trkpt lat="45.75064" lon="4.81424">
        <ele>259.6933594</ele>
        <time>2011-12-04T06:45:07Z</time>
      </trkpt>
      <trkpt lat="45.75076" lon="4.81441">
        <ele>262.0965576</ele>
        <time>2011-12-04T06:45:12Z</time>
      </trkpt>
      <trkpt lat="45.75078" lon="4.81459">
        <ele>262.0965576</ele>
        <time>2011-12-04T06:45:16Z</time>
      </trkpt>
      <trkpt lat="45.75074" lon="4.81477">
        <ele>259.6933594</ele>
        <time>2011-12-04T06:45:21Z</time>
      </trkpt>
      <trkpt lat="45.75074" lon="4.8148">
        <ele>258.7319336</ele>
        <time>2011-12-04T06:45:22Z</time>
      </trkpt>
      <trkpt lat="45.7507" lon="4.81496">
        <ele>253.4447021</ele>
        <time>2011-12-04T06:45:28Z</time>
      </trkpt>
      <trkpt lat="45.75068" lon="4.81513">
        <ele>247.6767578</ele>
        <time>2011-12-04T06:45:35Z</time>
      </trkpt>
      <trkpt lat="45.75067" lon="4.81531">
        <ele>243.3508301</ele>
        <time>2011-12-04T06:45:43Z</time>
      </trkpt>
      <trkpt lat="45.75066" lon="4.81543">
        <ele>241.9089355</ele>
        <time>2011-12-04T06:45:48Z</time>
      </trkpt>
      <trkpt lat="45.75066" lon="4.81556">
        <ele>240.9476318</ele>
        <time>2011-12-04T06:45:53Z</time>
      </trkpt>
      <trkpt lat="45.75068" lon="4.8157">
        <ele>241.4282227</ele>
        <time>2011-12-04T06:45:57Z</time>
      </trkpt>
      <trkpt lat="45.75069" lon="4.81573">
        <ele>241.9089355</ele>
        <time>2011-12-04T06:45:58Z</time>
      </trkpt>
      <trkpt lat="45.75076" lon="4.81582">
        <ele>240.467041</ele>
        <time>2011-12-04T06:46:03Z</time>
      </trkpt>
      <trkpt lat="45.75082" lon="4.81598">
        <ele>239.9862061</ele>
        <time>2011-12-04T06:46:08Z</time>
      </trkpt>
      <trkpt lat="45.75086" lon="4.81608">
        <ele>238.5443115</ele>
        <time>2011-12-04T06:46:11Z</time>
      </trkpt>
      <trkpt lat="45.7509" lon="4.8162">
        <ele>236.6217041</ele>
        <time>2011-12-04T06:46:14Z</time>
      </trkpt>
      <trkpt lat="45.75096" lon="4.8164">
        <ele>234.6990967</ele>
        <time>2011-12-04T06:46:19Z</time>
      </trkpt>
      <trkpt lat="45.75101" lon="4.81659">
        <ele>230.8537598</ele>
        <time>2011-12-04T06:46:24Z</time>
      </trkpt>
      <trkpt lat="45.75103" lon="4.81666">
        <ele>229.892334</ele>
        <time>2011-12-04T06:46:26Z</time>
      </trkpt>
      <trkpt lat="45.7511" lon="4.81682">
        <ele>226.0471191</ele>
        <time>2011-12-04T06:46:31Z</time>
      </trkpt>
      <trkpt lat="45.75114" lon="4.81695">
        <ele>224.6052246</ele>
        <time>2011-12-04T06:46:35Z</time>
      </trkpt>
      <trkpt lat="45.75116" lon="4.81713">
        <ele>223.163208</ele>
        <time>2011-12-04T06:46:40Z</time>
      </trkpt>
      <trkpt lat="45.75117" lon="4.81732">
        <ele>220.7598877</ele>
        <time>2011-12-04T06:46:45Z</time>
      </trkpt>
      <trkpt lat="45.75117" lon="4.81755">
        <ele>217.8759766</ele>
        <time>2011-12-04T06:46:51Z</time>
      </trkpt>
      <trkpt lat="45.75117" lon="4.81776">
        <ele>212.588623</ele>
        <time>2011-12-04T06:46:57Z</time>
      </trkpt>
      <trkpt lat="45.75117" lon="4.8179">
        <ele>210.1854248</ele>
        <time>2011-12-04T06:47:01Z</time>
      </trkpt>
      <trkpt lat="45.75123" lon="4.818">
        <ele>209.2241211</ele>
        <time>2011-12-04T06:47:04Z</time>
      </trkpt>
      <trkpt lat="45.75134" lon="4.81812">
        <ele>208.7434082</ele>
        <time>2011-12-04T06:47:09Z</time>
      </trkpt>
      <trkpt lat="45.75136" lon="4.81821">
        <ele>208.2628174</ele>
        <time>2011-12-04T06:47:12Z</time>
      </trkpt>
      <trkpt lat="45.75144" lon="4.81836">
        <ele>208.2628174</ele>
        <time>2011-12-04T06:47:17Z</time>
      </trkpt>
      <trkpt lat="45.75152" lon="4.81849">
        <ele>205.8594971</ele>
        <time>2011-12-04T06:47:22Z</time>
      </trkpt>
      <trkpt lat="45.75162" lon="4.81866">
        <ele>204.8980713</ele>
        <time>2011-12-04T06:47:28Z</time>
      </trkpt>
      <trkpt lat="45.75173" lon="4.81878">
        <ele>203.9368896</ele>
        <time>2011-12-04T06:47:33Z</time>
      </trkpt>
      <trkpt lat="45.75177" lon="4.81899">
        <ele>208.2628174</ele>
        <time>2011-12-04T06:47:38Z</time>
      </trkpt>
      <trkpt lat="45.75182" lon="4.81919">
        <ele>209.2241211</ele>
        <time>2011-12-04T06:47:43Z</time>
      </trkpt>
      <trkpt lat="45.75194" lon="4.8194">
        <ele>205.3787842</ele>
        <time>2011-12-04T06:47:49Z</time>
      </trkpt>
      <trkpt lat="45.75196" lon="4.81948">
        <ele>203.9368896</ele>
        <time>2011-12-04T06:47:51Z</time>
      </trkpt>
      <trkpt lat="45.75204" lon="4.81959">
        <ele>202.0142822</ele>
        <time>2011-12-04T06:47:57Z</time>
      </trkpt>
      <trkpt lat="45.75213" lon="4.81965">
        <ele>201.5335693</ele>
        <time>2011-12-04T06:48:01Z</time>
      </trkpt>
      <trkpt lat="45.75223" lon="4.81969">
        <ele>200.5722656</ele>
        <time>2011-12-04T06:48:06Z</time>
      </trkpt>
      <trkpt lat="45.75229" lon="4.81978">
        <ele>197.6882324</ele>
        <time>2011-12-04T06:48:10Z</time>
      </trkpt>
      <trkpt lat="45.7523" lon="4.81982">
        <ele>195.765625</ele>
        <time>2011-12-04T06:48:13Z</time>
      </trkpt>
      <trkpt lat="45.75222" lon="4.81991">
        <ele>193.3623047</ele>
        <time>2011-12-04T06:48:19Z</time>
      </trkpt>
      <trkpt lat="45.75217" lon="4.81991">
        <ele>191.4395752</ele>
        <time>2011-12-04T06:48:22Z</time>
      </trkpt>
      <trkpt lat="45.75206" lon="4.81994">
        <ele>189.036377</ele>
        <time>2011-12-04T06:48:29Z</time>
      </trkpt>
      <trkpt lat="45.75204" lon="4.81994">
        <ele>188.5557861</ele>
        <time>2011-12-04T06:48:30Z</time>
      </trkpt>
      <trkpt lat="45.75187" lon="4.82001">
        <ele>189.9976807</ele>
        <time>2011-12-04T06:48:37Z</time>
      </trkpt>
      <trkpt lat="45.75173" lon="4.82011">
        <ele>189.9976807</ele>
        <time>2011-12-04T06:48:43Z</time>
      </trkpt>
      <trkpt lat="45.75163" lon="4.82021">
        <ele>189.5169678</ele>
        <time>2011-12-04T06:48:48Z</time>
      </trkpt>
      <trkpt lat="45.75154" lon="4.82032">
        <ele>186.6331787</ele>
        <time>2011-12-04T06:48:53Z</time>
      </trkpt>
      <trkpt lat="45.75146" lon="4.82048">
        <ele>181.3458252</ele>
        <time>2011-12-04T06:48:59Z</time>
      </trkpt>
      <trkpt lat="45.75141" lon="4.82068">
        <ele>177.5006104</ele>
        <time>2011-12-04T06:49:05Z</time>
      </trkpt>
      <trkpt lat="45.75138" lon="4.82088">
        <ele>176.0585938</ele>
        <time>2011-12-04T06:49:11Z</time>
      </trkpt>
      <trkpt lat="45.75138" lon="4.82091">
        <ele>176.0585938</ele>
        <time>2011-12-04T06:49:12Z</time>
      </trkpt>
      <trkpt lat="45.75134" lon="4.82108">
        <ele>176.0585938</ele>
        <time>2011-12-04T06:49:17Z</time>
      </trkpt>
      <trkpt lat="45.75133" lon="4.82124">
        <ele>177.9812012</ele>
        <time>2011-12-04T06:49:22Z</time>
      </trkpt>
      <trkpt lat="45.75134" lon="4.82124">
        <ele>177.0200195</ele>
        <time>2011-12-04T06:49:23Z</time>
      </trkpt>
      <trkpt lat="45.75143" lon="4.82131">
        <ele>172.6939697</ele>
        <time>2011-12-04T06:49:28Z</time>
      </trkpt>
      <trkpt lat="45.75149" lon="4.82137">
        <ele>167.8873291</ele>
        <time>2011-12-04T06:49:33Z</time>
      </trkpt>
      <trkpt lat="45.75152" lon="4.82167">
        <ele>176.0585938</ele>
        <time>2011-12-04T06:49:39Z</time>
      </trkpt>
      <trkpt lat="45.7515" lon="4.82188">
        <ele>179.4232178</ele>
        <time>2011-12-04T06:49:45Z</time>
      </trkpt>
      <trkpt lat="45.75145" lon="4.82207">
        <ele>180.8652344</ele>
        <time>2011-12-04T06:49:51Z</time>
      </trkpt>
      <trkpt lat="45.75138" lon="4.82229">
        <ele>180.8652344</ele>
        <time>2011-12-04T06:49:58Z</time>
      </trkpt>
      <trkpt lat="45.75134" lon="4.82246">
        <ele>181.3458252</ele>
        <time>2011-12-04T06:50:03Z</time>
      </trkpt>
      <trkpt lat="45.75127" lon="4.82269">
        <ele>180.3845215</ele>
        <time>2011-12-04T06:50:10Z</time>
      </trkpt>
      <trkpt lat="45.75121" lon="4.82289">
        <ele>178.942627</ele>
        <time>2011-12-04T06:50:16Z</time>
      </trkpt>
      <trkpt lat="45.75114" lon="4.82304">
        <ele>178.4619141</ele>
        <time>2011-12-04T06:50:21Z</time>
      </trkpt>
      <trkpt lat="45.75104" lon="4.82313">
        <ele>177.9812012</ele>
        <time>2011-12-04T06:50:26Z</time>
      </trkpt>
      <trkpt lat="45.75102" lon="4.82314">
        <ele>177.9812012</ele>
        <time>2011-12-04T06:50:27Z</time>
      </trkpt>
      <trkpt lat="45.75096" lon="4.82309">
        <ele>176.0585938</ele>
        <time>2011-12-04T06:50:33Z</time>
      </trkpt>
      <trkpt lat="45.75091" lon="4.82303">
        <ele>171.2520752</ele>
        <time>2011-12-04T06:50:38Z</time>
      </trkpt>
      <trkpt lat="45.75085" lon="4.82298">
        <ele>172.6939697</ele>
        <time>2011-12-04T06:50:43Z</time>
      </trkpt>
      <trkpt lat="45.7508" lon="4.82291">
        <ele>166.4453125</ele>
        <time>2011-12-04T06:50:45Z</time>
      </trkpt>
      <trkpt lat="45.75066" lon="4.82266">
        <ele>159.7161865</ele>
        <time>2011-12-04T06:50:51Z</time>
      </trkpt>
      <trkpt lat="45.75064" lon="4.82264">
        <ele>160.1968994</ele>
        <time>2011-12-04T06:50:52Z</time>
      </trkpt>
      <trkpt lat="45.75052" lon="4.82248">
        <ele>164.5227051</ele>
        <time>2011-12-04T06:50:58Z</time>
      </trkpt>
      <trkpt lat="45.75042" lon="4.82234">
        <ele>169.8100586</ele>
        <time>2011-12-04T06:51:03Z</time>
      </trkpt>
      <trkpt lat="45.75034" lon="4.82226">
        <ele>168.368042</ele>
        <time>2011-12-04T06:51:06Z</time>
      </trkpt>
      <trkpt lat="45.75023" lon="4.82213">
        <ele>169.3294678</ele>
        <time>2011-12-04T06:51:12Z</time>
      </trkpt>
      <trkpt lat="45.75027" lon="4.82205">
        <ele>175.5778809</ele>
        <time>2011-12-04T06:51:16Z</time>
      </trkpt>
      <trkpt lat="45.75021" lon="4.82186">
        <ele>166.9260254</ele>
        <time>2011-12-04T06:51:20Z</time>
      </trkpt>
      <trkpt lat="45.75009" lon="4.82175">
        <ele>162.6000977</ele>
        <time>2011-12-04T06:51:24Z</time>
      </trkpt>
      <trkpt lat="45.75004" lon="4.82176">
        <ele>162.6000977</ele>
        <time>2011-12-04T06:51:26Z</time>
      </trkpt>
      <trkpt lat="45.74994" lon="4.82168">
        <ele>157.7935791</ele>
        <time>2011-12-04T06:51:32Z</time>
      </trkpt>
      <trkpt lat="45.74986" lon="4.82159">
        <ele>154.4289551</ele>
        <time>2011-12-04T06:51:36Z</time>
      </trkpt>
      <trkpt lat="45.74978" lon="4.82149">
        <ele>156.8321533</ele>
        <time>2011-12-04T06:51:40Z</time>
      </trkpt>
      <trkpt lat="45.74969" lon="4.82137">
        <ele>157.3128662</ele>
        <time>2011-12-04T06:51:46Z</time>
      </trkpt>
      <trkpt lat="45.74964" lon="4.82129">
        <ele>157.3128662</ele>
        <time>2011-12-04T06:51:50Z</time>
      </trkpt>
      <trkpt lat="45.74954" lon="4.82114">
        <ele>154.9095459</ele>
        <time>2011-12-04T06:51:56Z</time>
      </trkpt>
      <trkpt lat="45.74945" lon="4.82102">
        <ele>154.4289551</ele>
        <time>2011-12-04T06:52:01Z</time>
      </trkpt>
      <trkpt lat="45.74937" lon="4.82086">
        <ele>152.5063477</ele>
        <time>2011-12-04T06:52:06Z</time>
      </trkpt>
      <trkpt lat="45.74928" lon="4.82075">
        <ele>153.4676514</ele>
        <time>2011-12-04T06:52:11Z</time>
      </trkpt>
      <trkpt lat="45.74922" lon="4.82062">
        <ele>154.4289551</ele>
        <time>2011-12-04T06:52:15Z</time>
      </trkpt>
      <trkpt lat="45.74909" lon="4.82043">
        <ele>160.6774902</ele>
        <time>2011-12-04T06:52:22Z</time>
      </trkpt>
      <trkpt lat="45.749" lon="4.8203">
        <ele>165.003418</ele>
        <time>2011-12-04T06:52:27Z</time>
      </trkpt>
      <trkpt lat="45.74893" lon="4.82023">
        <ele>164.5227051</ele>
        <time>2011-12-04T06:52:31Z</time>
      </trkpt>
      <trkpt lat="45.74886" lon="4.82013">
        <ele>159.2354736</ele>
        <time>2011-12-04T06:52:35Z</time>
      </trkpt>
      <trkpt lat="45.74882" lon="4.82008">
        <ele>155.8709717</ele>
        <time>2011-12-04T06:52:37Z</time>
      </trkpt>
      <trkpt lat="45.7487" lon="4.81991">
        <ele>154.9095459</ele>
        <time>2011-12-04T06:52:43Z</time>
      </trkpt>
      <trkpt lat="45.74858" lon="4.81976">
        <ele>156.3515625</ele>
        <time>2011-12-04T06:52:49Z</time>
      </trkpt>
      <trkpt lat="45.74848" lon="4.81966">
        <ele>159.2354736</ele>
        <time>2011-12-04T06:52:54Z</time>
      </trkpt>
      <trkpt lat="45.74838" lon="4.81955">
        <ele>166.4453125</ele>
        <time>2011-12-04T06:52:59Z</time>
      </trkpt>
      <trkpt lat="45.74832" lon="4.81945">
        <ele>171.2520752</ele>
        <time>2011-12-04T06:53:03Z</time>
      </trkpt>
      <trkpt lat="45.74824" lon="4.81935">
        <ele>178.942627</ele>
        <time>2011-12-04T06:53:08Z</time>
      </trkpt>
      <trkpt lat="45.74822" lon="4.81934">
        <ele>178.942627</ele>
        <time>2011-12-04T06:53:09Z</time>
      </trkpt>
      <trkpt lat="45.74815" lon="4.81923">
        <ele>179.9038086</ele>
        <time>2011-12-04T06:53:13Z</time>
      </trkpt>
      <trkpt lat="45.74806" lon="4.81901">
        <ele>179.4232178</ele>
        <time>2011-12-04T06:53:19Z</time>
      </trkpt>
      <trkpt lat="45.74805" lon="4.81894">
        <ele>178.4619141</ele>
        <time>2011-12-04T06:53:21Z</time>
      </trkpt>
      <trkpt lat="45.74798" lon="4.81885">
        <ele>175.5778809</ele>
        <time>2011-12-04T06:53:26Z</time>
      </trkpt>
      <trkpt lat="45.74795" lon="4.81882">
        <ele>172.2132568</ele>
        <time>2011-12-04T06:53:28Z</time>
      </trkpt>
      <trkpt lat="45.74793" lon="4.81879">
        <ele>168.8487549</ele>
        <time>2011-12-04T06:53:30Z</time>
      </trkpt>
      <trkpt lat="45.74781" lon="4.81867">
        <ele>166.4453125</ele>
        <time>2011-12-04T06:53:37Z</time>
      </trkpt>
      <trkpt lat="45.7477" lon="4.81853">
        <ele>166.4453125</ele>
        <time>2011-12-04T06:53:42Z</time>
      </trkpt>
      <trkpt lat="45.74763" lon="4.81843">
        <ele>165.003418</ele>
        <time>2011-12-04T06:53:46Z</time>
      </trkpt>
      <trkpt lat="45.74754" lon="4.8183">
        <ele>168.368042</ele>
        <time>2011-12-04T06:53:51Z</time>
      </trkpt>
      <trkpt lat="45.74743" lon="4.81816">
        <ele>173.6552734</ele>
        <time>2011-12-04T06:53:57Z</time>
      </trkpt>
      <trkpt lat="45.74734" lon="4.81805">
        <ele>173.6552734</ele>
        <time>2011-12-04T06:54:02Z</time>
      </trkpt>
      <trkpt lat="45.74732" lon="4.81803">
        <ele>172.6939697</ele>
        <time>2011-12-04T06:54:03Z</time>
      </trkpt>
      <trkpt lat="45.74726" lon="4.81791">
        <ele>172.6939697</ele>
        <time>2011-12-04T06:54:08Z</time>
      </trkpt>
      <trkpt lat="45.74725" lon="4.81785">
        <ele>172.2132568</ele>
        <time>2011-12-04T06:54:10Z</time>
      </trkpt>
      <trkpt lat="45.74722" lon="4.81766">
        <ele>166.4453125</ele>
        <time>2011-12-04T06:54:17Z</time>
      </trkpt>
      <trkpt lat="45.74722" lon="4.81758">
        <ele>163.5615234</ele>
        <time>2011-12-04T06:54:20Z</time>
      </trkpt>
      <trkpt lat="45.74719" lon="4.81743">
        <ele>159.2354736</ele>
        <time>2011-12-04T06:54:24Z</time>
      </trkpt>
      <trkpt lat="45.74707" lon="4.81723">
        <ele>156.3515625</ele>
        <time>2011-12-04T06:54:30Z</time>
      </trkpt>
      <trkpt lat="45.74692" lon="4.81706">
        <ele>157.3128662</ele>
        <time>2011-12-04T06:54:37Z</time>
      </trkpt>
      <trkpt lat="45.74679" lon="4.81693">
        <ele>164.5227051</ele>
        <time>2011-12-04T06:54:43Z</time>
      </trkpt>
      <trkpt lat="45.74664" lon="4.81679">
        <ele>171.2520752</ele>
        <time>2011-12-04T06:54:50Z</time>
      </trkpt>
      <trkpt lat="45.74652" lon="4.81667">
        <ele>172.6939697</ele>
        <time>2011-12-04T06:54:56Z</time>
      </trkpt>
      <trkpt lat="45.74641" lon="4.81658">
        <ele>172.2132568</ele>
        <time>2011-12-04T06:55:01Z</time>
      </trkpt>
      <trkpt lat="45.74628" lon="4.81646">
        <ele>172.6939697</ele>
        <time>2011-12-04T06:55:07Z</time>
      </trkpt>
      <trkpt lat="45.74616" lon="4.81637">
        <ele>175.09729</ele>
        <time>2011-12-04T06:55:13Z</time>
      </trkpt>
      <trkpt lat="45.74606" lon="4.81629">
        <ele>171.732666</ele>
        <time>2011-12-04T06:55:18Z</time>
      </trkpt>
      <trkpt lat="45.74593" lon="4.8162">
        <ele>170.7713623</ele>
        <time>2011-12-04T06:55:24Z</time>
      </trkpt>
      <trkpt lat="45.7458" lon="4.81615">
        <ele>174.1358643</ele>
        <time>2011-12-04T06:55:30Z</time>
      </trkpt>
      <trkpt lat="45.74571" lon="4.81612">
        <ele>178.4619141</ele>
        <time>2011-12-04T06:55:37Z</time>
      </trkpt>
      <trkpt lat="45.74558" lon="4.81607">
        <ele>179.4232178</ele>
        <time>2011-12-04T06:55:46Z</time>
      </trkpt>
      <trkpt lat="45.74551" lon="4.81604">
        <ele>177.9812012</ele>
        <time>2011-12-04T06:55:52Z</time>
      </trkpt>
      <trkpt lat="45.7454" lon="4.81601">
        <ele>180.3845215</ele>
        <time>2011-12-04T06:55:59Z</time>
      </trkpt>
      <trkpt lat="45.74527" lon="4.81594">
        <ele>180.3845215</ele>
        <time>2011-12-04T06:56:06Z</time>
      </trkpt>
      <trkpt lat="45.7452" lon="4.81593">
        <ele>178.942627</ele>
        <time>2011-12-04T06:56:09Z</time>
      </trkpt>
      <trkpt lat="45.74504" lon="4.81582">
        <ele>178.942627</ele>
        <time>2011-12-04T06:56:16Z</time>
      </trkpt>
      <trkpt lat="45.74491" lon="4.81572">
        <ele>177.9812012</ele>
        <time>2011-12-04T06:56:22Z</time>
      </trkpt>
      <trkpt lat="45.74476" lon="4.81559">
        <ele>176.5393066</ele>
        <time>2011-12-04T06:56:29Z</time>
      </trkpt>
      <trkpt lat="45.74461" lon="4.81547">
        <ele>175.5778809</ele>
        <time>2011-12-04T06:56:36Z</time>
      </trkpt>
      <trkpt lat="45.74448" lon="4.81538">
        <ele>174.1358643</ele>
        <time>2011-12-04T06:56:42Z</time>
      </trkpt>
      <trkpt lat="45.74434" lon="4.81526">
        <ele>173.6552734</ele>
        <time>2011-12-04T06:56:48Z</time>
      </trkpt>
      <trkpt lat="45.74421" lon="4.81515">
        <ele>171.732666</ele>
        <time>2011-12-04T06:56:54Z</time>
      </trkpt>
      <trkpt lat="45.74408" lon="4.81504">
        <ele>171.732666</ele>
        <time>2011-12-04T06:57:00Z</time>
      </trkpt>
      <trkpt lat="45.74388" lon="4.8149">
        <ele>171.2520752</ele>
        <time>2011-12-04T06:57:09Z</time>
      </trkpt>
      <trkpt lat="45.7437" lon="4.81481">
        <ele>174.1358643</ele>
        <time>2011-12-04T06:57:17Z</time>
      </trkpt>
      <trkpt lat="45.74353" lon="4.81476">
        <ele>177.0200195</ele>
        <time>2011-12-04T06:57:24Z</time>
      </trkpt>
      <trkpt lat="45.74341" lon="4.81473">
        <ele>178.4619141</ele>
        <time>2011-12-04T06:57:29Z</time>
      </trkpt>
      <trkpt lat="45.74335" lon="4.81472">
        <ele>177.0200195</ele>
        <time>2011-12-04T06:57:31Z</time>
      </trkpt>
      <trkpt lat="45.74316" lon="4.81466">
        <ele>178.4619141</ele>
        <time>2011-12-04T06:57:39Z</time>
      </trkpt>
      <trkpt lat="45.74301" lon="4.81461">
        <ele>179.4232178</ele>
        <time>2011-12-04T06:57:45Z</time>
      </trkpt>
      <trkpt lat="45.74287" lon="4.81458">
        <ele>179.4232178</ele>
        <time>2011-12-04T06:57:51Z</time>
      </trkpt>
      <trkpt lat="45.74272" lon="4.81454">
        <ele>180.8652344</ele>
        <time>2011-12-04T06:57:58Z</time>
      </trkpt>
      <trkpt lat="45.74263" lon="4.8145">
        <ele>181.3458252</ele>
        <time>2011-12-04T06:58:02Z</time>
      </trkpt>
      <trkpt lat="45.74254" lon="4.81441">
        <ele>181.3458252</ele>
        <time>2011-12-04T06:58:06Z</time>
      </trkpt>
      <trkpt lat="45.74243" lon="4.81434">
        <ele>180.8652344</ele>
        <time>2011-12-04T06:58:11Z</time>
      </trkpt>
      <trkpt lat="45.74229" lon="4.81431">
        <ele>180.3845215</ele>
        <time>2011-12-04T06:58:17Z</time>
      </trkpt>
      <trkpt lat="45.74215" lon="4.81429">
        <ele>179.9038086</ele>
        <time>2011-12-04T06:58:23Z</time>
      </trkpt>
      <trkpt lat="45.74201" lon="4.81426">
        <ele>178.4619141</ele>
        <time>2011-12-04T06:58:29Z</time>
      </trkpt>
      <trkpt lat="45.74185" lon="4.81421">
        <ele>177.9812012</ele>
        <time>2011-12-04T06:58:36Z</time>
      </trkpt>
      <trkpt lat="45.74169" lon="4.81418">
        <ele>176.0585938</ele>
        <time>2011-12-04T06:58:43Z</time>
      </trkpt>
      <trkpt lat="45.74154" lon="4.81417">
        <ele>177.5006104</ele>
        <time>2011-12-04T06:58:49Z</time>
      </trkpt>
      <trkpt lat="45.74143" lon="4.81414">
        <ele>176.0585938</ele>
        <time>2011-12-04T06:58:54Z</time>
      </trkpt>
      <trkpt lat="45.74126" lon="4.81412">
        <ele>177.9812012</ele>
        <time>2011-12-04T06:59:01Z</time>
      </trkpt>
      <trkpt lat="45.74112" lon="4.81411">
        <ele>180.8652344</ele>
        <time>2011-12-04T06:59:07Z</time>
      </trkpt>
      <trkpt lat="45.74098" lon="4.8141">
        <ele>182.7878418</ele>
        <time>2011-12-04T06:59:13Z</time>
      </trkpt>
      <trkpt lat="45.7408" lon="4.81411">
        <ele>184.7105713</ele>
        <time>2011-12-04T06:59:20Z</time>
      </trkpt>
      <trkpt lat="45.74065" lon="4.8141">
        <ele>184.7105713</ele>
        <time>2011-12-04T06:59:26Z</time>
      </trkpt>
      <trkpt lat="45.74053" lon="4.8141">
        <ele>181.826416</ele>
        <time>2011-12-04T06:59:31Z</time>
      </trkpt>
      <trkpt lat="45.7404" lon="4.81409">
        <ele>179.9038086</ele>
        <time>2011-12-04T06:59:37Z</time>
      </trkpt>
      <trkpt lat="45.74028" lon="4.8141">
        <ele>179.9038086</ele>
        <time>2011-12-04T06:59:42Z</time>
      </trkpt>
      <trkpt lat="45.74009" lon="4.81413">
        <ele>183.2684326</ele>
        <time>2011-12-04T06:59:49Z</time>
      </trkpt>
      <trkpt lat="45.73996" lon="4.81416">
        <ele>187.5943604</ele>
        <time>2011-12-04T06:59:54Z</time>
      </trkpt>
      <trkpt lat="45.73982" lon="4.81419">
        <ele>189.9976807</ele>
        <time>2011-12-04T07:00:00Z</time>
      </trkpt>
      <trkpt lat="45.73971" lon="4.81421">
        <ele>189.9976807</ele>
        <time>2011-12-04T07:00:05Z</time>
      </trkpt>
      <trkpt lat="45.7396" lon="4.81423">
        <ele>189.5169678</ele>
        <time>2011-12-04T07:00:10Z</time>
      </trkpt>
      <trkpt lat="45.73949" lon="4.81426">
        <ele>188.5557861</ele>
        <time>2011-12-04T07:00:14Z</time>
      </trkpt>
      <trkpt lat="45.73937" lon="4.81429">
        <ele>189.9976807</ele>
        <time>2011-12-04T07:00:19Z</time>
      </trkpt>
      <trkpt lat="45.73925" lon="4.81429">
        <ele>190.4783936</ele>
        <time>2011-12-04T07:00:24Z</time>
      </trkpt>
      <trkpt lat="45.73914" lon="4.81431">
        <ele>191.9202881</ele>
        <time>2011-12-04T07:00:28Z</time>
      </trkpt>
      <trkpt lat="45.739" lon="4.81439">
        <ele>193.3623047</ele>
        <time>2011-12-04T07:00:34Z</time>
      </trkpt>
      <trkpt lat="45.73888" lon="4.81441">
        <ele>190.9589844</ele>
        <time>2011-12-04T07:00:39Z</time>
      </trkpt>
      <trkpt lat="45.73878" lon="4.81442">
        <ele>187.1137695</ele>
        <time>2011-12-04T07:00:44Z</time>
      </trkpt>
      <trkpt lat="45.73868" lon="4.81443">
        <ele>184.2298584</ele>
        <time>2011-12-04T07:00:49Z</time>
      </trkpt>
      <trkpt lat="45.73857" lon="4.81444">
        <ele>183.2684326</ele>
        <time>2011-12-04T07:00:54Z</time>
      </trkpt>
      <trkpt lat="45.73849" lon="4.81446">
        <ele>184.2298584</ele>
        <time>2011-12-04T07:00:57Z</time>
      </trkpt>
      <trkpt lat="45.73828" lon="4.81454">
        <ele>190.9589844</ele>
        <time>2011-12-04T07:01:04Z</time>
      </trkpt>
      <trkpt lat="45.73811" lon="4.81454">
        <ele>195.2849121</ele>
        <time>2011-12-04T07:01:10Z</time>
      </trkpt>
      <trkpt lat="45.73802" lon="4.81453">
        <ele>197.2075195</ele>
        <time>2011-12-04T07:01:14Z</time>
      </trkpt>
      <trkpt lat="45.73784" lon="4.81458">
        <ele>193.8430176</ele>
        <time>2011-12-04T07:01:22Z</time>
      </trkpt>
      <trkpt lat="45.7377" lon="4.8146">
        <ele>193.3623047</ele>
        <time>2011-12-04T07:01:28Z</time>
      </trkpt>
      <trkpt lat="45.73759" lon="4.81462">
        <ele>192.8817139</ele>
        <time>2011-12-04T07:01:33Z</time>
      </trkpt>
      <trkpt lat="45.73745" lon="4.81464">
        <ele>188.5557861</ele>
        <time>2011-12-04T07:01:39Z</time>
      </trkpt>
      <trkpt lat="45.73731" lon="4.81468">
        <ele>190.9589844</ele>
        <time>2011-12-04T07:01:45Z</time>
      </trkpt>
      <trkpt lat="45.73713" lon="4.8147">
        <ele>192.401123</ele>
        <time>2011-12-04T07:01:52Z</time>
      </trkpt>
      <trkpt lat="45.737" lon="4.81473">
        <ele>193.3623047</ele>
        <time>2011-12-04T07:01:57Z</time>
      </trkpt>
      <trkpt lat="45.73687" lon="4.81476">
        <ele>188.0750732</ele>
        <time>2011-12-04T07:02:03Z</time>
      </trkpt>
      <trkpt lat="45.73673" lon="4.8148">
        <ele>186.1524658</ele>
        <time>2011-12-04T07:02:09Z</time>
      </trkpt>
      <trkpt lat="45.7366" lon="4.81484">
        <ele>188.5557861</ele>
        <time>2011-12-04T07:02:14Z</time>
      </trkpt>
      <trkpt lat="45.73646" lon="4.81486">
        <ele>184.7105713</ele>
        <time>2011-12-04T07:02:20Z</time>
      </trkpt>
      <trkpt lat="45.73634" lon="4.81489">
        <ele>184.2298584</ele>
        <time>2011-12-04T07:02:26Z</time>
      </trkpt>
      <trkpt lat="45.73616" lon="4.81491">
        <ele>183.2684326</ele>
        <time>2011-12-04T07:02:33Z</time>
      </trkpt>
      <trkpt lat="45.73602" lon="4.81494">
        <ele>182.3071289</ele>
        <time>2011-12-04T07:02:39Z</time>
      </trkpt>
      <trkpt lat="45.73589" lon="4.81498">
        <ele>182.3071289</ele>
        <time>2011-12-04T07:02:44Z</time>
      </trkpt>
      <trkpt lat="45.73576" lon="4.81506">
        <ele>182.7878418</ele>
        <time>2011-12-04T07:02:50Z</time>
      </trkpt>
      <trkpt lat="45.73566" lon="4.81509">
        <ele>182.3071289</ele>
        <time>2011-12-04T07:02:54Z</time>
      </trkpt>
      <trkpt lat="45.73553" lon="4.81512">
        <ele>181.3458252</ele>
        <time>2011-12-04T07:02:59Z</time>
      </trkpt>
      <trkpt lat="45.7354" lon="4.81521">
        <ele>181.826416</ele>
        <time>2011-12-04T07:03:05Z</time>
      </trkpt>
      <trkpt lat="45.73532" lon="4.8153">
        <ele>181.3458252</ele>
        <time>2011-12-04T07:03:10Z</time>
      </trkpt>
      <trkpt lat="45.73525" lon="4.8154">
        <ele>180.3845215</ele>
        <time>2011-12-04T07:03:15Z</time>
      </trkpt>
      <trkpt lat="45.73518" lon="4.8155">
        <ele>178.4619141</ele>
        <time>2011-12-04T07:03:20Z</time>
      </trkpt>
      <trkpt lat="45.73516" lon="4.81553">
        <ele>178.4619141</ele>
        <time>2011-12-04T07:03:21Z</time>
      </trkpt>
      <trkpt lat="45.73507" lon="4.81573">
        <ele>176.5393066</ele>
        <time>2011-12-04T07:03:29Z</time>
      </trkpt>
      <trkpt lat="45.73497" lon="4.81586">
        <ele>177.0200195</ele>
        <time>2011-12-04T07:03:34Z</time>
      </trkpt>
      <trkpt lat="45.73486" lon="4.8159">
        <ele>178.4619141</ele>
        <time>2011-12-04T07:03:38Z</time>
      </trkpt>
      <trkpt lat="45.73471" lon="4.81594">
        <ele>179.9038086</ele>
        <time>2011-12-04T07:03:44Z</time>
      </trkpt>
      <trkpt lat="45.73458" lon="4.81599">
        <ele>181.3458252</ele>
        <time>2011-12-04T07:03:49Z</time>
      </trkpt>
      <trkpt lat="45.73444" lon="4.81605">
        <ele>183.2684326</ele>
        <time>2011-12-04T07:03:54Z</time>
      </trkpt>
      <trkpt lat="45.73429" lon="4.81609">
        <ele>184.2298584</ele>
        <time>2011-12-04T07:04:00Z</time>
      </trkpt>
      <trkpt lat="45.73414" lon="4.81609">
        <ele>181.3458252</ele>
        <time>2011-12-04T07:04:07Z</time>
      </trkpt>
      <trkpt lat="45.73396" lon="4.81614">
        <ele>182.7878418</ele>
        <time>2011-12-04T07:04:14Z</time>
      </trkpt>
      <trkpt lat="45.73378" lon="4.81618">
        <ele>184.2298584</ele>
        <time>2011-12-04T07:04:21Z</time>
      </trkpt>
      <trkpt lat="45.73364" lon="4.81618">
        <ele>181.3458252</ele>
        <time>2011-12-04T07:04:27Z</time>
      </trkpt>
      <trkpt lat="45.73349" lon="4.8162">
        <ele>181.826416</ele>
        <time>2011-12-04T07:04:33Z</time>
      </trkpt>
      <trkpt lat="45.73344" lon="4.81619">
        <ele>181.826416</ele>
        <time>2011-12-04T07:04:35Z</time>
      </trkpt>
      <trkpt lat="45.73332" lon="4.81599">
        <ele>180.3845215</ele>
        <time>2011-12-04T07:04:42Z</time>
      </trkpt>
      <trkpt lat="45.73325" lon="4.81582">
        <ele>179.4232178</ele>
        <time>2011-12-04T07:04:47Z</time>
      </trkpt>
      <trkpt lat="45.73319" lon="4.81565">
        <ele>180.3845215</ele>
        <time>2011-12-04T07:04:52Z</time>
      </trkpt>
      <trkpt lat="45.73314" lon="4.81559">
        <ele>182.3071289</ele>
        <time>2011-12-04T07:04:55Z</time>
      </trkpt>
      <trkpt lat="45.73301" lon="4.8156">
        <ele>179.9038086</ele>
        <time>2011-12-04T07:05:01Z</time>
      </trkpt>
      <trkpt lat="45.73285" lon="4.81564">
        <ele>179.9038086</ele>
        <time>2011-12-04T07:05:07Z</time>
      </trkpt>
      <trkpt lat="45.73266" lon="4.81571">
        <ele>179.4232178</ele>
        <time>2011-12-04T07:05:14Z</time>
      </trkpt>
      <trkpt lat="45.73252" lon="4.81575">
        <ele>179.4232178</ele>
        <time>2011-12-04T07:05:20Z</time>
      </trkpt>
      <trkpt lat="45.73237" lon="4.81584">
        <ele>179.4232178</ele>
        <time>2011-12-04T07:05:26Z</time>
      </trkpt>
      <trkpt lat="45.73232" lon="4.81589">
        <ele>178.4619141</ele>
        <time>2011-12-04T07:05:29Z</time>
      </trkpt>
      <trkpt lat="45.73221" lon="4.81602">
        <ele>177.5006104</ele>
        <time>2011-12-04T07:05:35Z</time>
      </trkpt>
      <trkpt lat="45.73218" lon="4.81606">
        <ele>176.5393066</ele>
        <time>2011-12-04T07:05:37Z</time>
      </trkpt>
      <trkpt lat="45.73206" lon="4.81622">
        <ele>179.4232178</ele>
        <time>2011-12-04T07:05:43Z</time>
      </trkpt>
      <trkpt lat="45.73202" lon="4.81623">
        <ele>172.2132568</ele>
        <time>2011-12-04T07:05:48Z</time>
      </trkpt>
      <trkpt lat="45.73189" lon="4.81635">
        <ele>165.9647217</ele>
        <time>2011-12-04T07:05:53Z</time>
      </trkpt>
      <trkpt lat="45.73181" lon="4.81656">
        <ele>168.8487549</ele>
        <time>2011-12-04T07:05:57Z</time>
      </trkpt>
      <trkpt lat="45.73175" lon="4.81679">
        <ele>185.6717529</ele>
        <time>2011-12-04T07:06:02Z</time>
      </trkpt>
      <trkpt lat="45.73167" lon="4.81697">
        <ele>181.3458252</ele>
        <time>2011-12-04T07:06:10Z</time>
      </trkpt>
      <trkpt lat="45.73158" lon="4.81712">
        <ele>177.0200195</ele>
        <time>2011-12-04T07:06:16Z</time>
      </trkpt>
      <trkpt lat="45.7315" lon="4.81724">
        <ele>173.6552734</ele>
        <time>2011-12-04T07:06:21Z</time>
      </trkpt>
      <trkpt lat="45.73139" lon="4.81736">
        <ele>171.2520752</ele>
        <time>2011-12-04T07:06:27Z</time>
      </trkpt>
      <trkpt lat="45.73131" lon="4.81746">
        <ele>170.2906494</ele>
        <time>2011-12-04T07:06:31Z</time>
      </trkpt>
      <trkpt lat="45.73122" lon="4.81757">
        <ele>169.3294678</ele>
        <time>2011-12-04T07:06:36Z</time>
      </trkpt>
      <trkpt lat="45.73115" lon="4.81765">
        <ele>167.8873291</ele>
        <time>2011-12-04T07:06:40Z</time>
      </trkpt>
      <trkpt lat="45.73103" lon="4.81772">
        <ele>169.3294678</ele>
        <time>2011-12-04T07:06:45Z</time>
      </trkpt>
      <trkpt lat="45.73095" lon="4.81778">
        <ele>170.7713623</ele>
        <time>2011-12-04T07:06:50Z</time>
      </trkpt>
      <trkpt lat="45.73085" lon="4.81784">
        <ele>174.6165771</ele>
        <time>2011-12-04T07:06:56Z</time>
      </trkpt>
      <trkpt lat="45.73082" lon="4.81786">
        <ele>175.5778809</ele>
        <time>2011-12-04T07:06:58Z</time>
      </trkpt>
      <trkpt lat="45.73074" lon="4.81792">
        <ele>175.5778809</ele>
        <time>2011-12-04T07:07:02Z</time>
      </trkpt>
      <trkpt lat="45.73072" lon="4.81793">
        <ele>176.5393066</ele>
        <time>2011-12-04T07:07:03Z</time>
      </trkpt>
      <trkpt lat="45.73055" lon="4.81801">
        <ele>177.5006104</ele>
        <time>2011-12-04T07:07:10Z</time>
      </trkpt>
      <trkpt lat="45.73037" lon="4.81811">
        <ele>180.8652344</ele>
        <time>2011-12-04T07:07:17Z</time>
      </trkpt>
      <trkpt lat="45.73024" lon="4.81818">
        <ele>181.3458252</ele>
        <time>2011-12-04T07:07:22Z</time>
      </trkpt>
      <trkpt lat="45.73015" lon="4.81822">
        <ele>179.9038086</ele>
        <time>2011-12-04T07:07:27Z</time>
      </trkpt>
      <trkpt lat="45.73003" lon="4.81826">
        <ele>177.0200195</ele>
        <time>2011-12-04T07:07:32Z</time>
      </trkpt>
      <trkpt lat="45.72988" lon="4.81831">
        <ele>174.6165771</ele>
        <time>2011-12-04T07:07:39Z</time>
      </trkpt>
      <trkpt lat="45.72968" lon="4.81835">
        <ele>175.09729</ele>
        <time>2011-12-04T07:07:46Z</time>
      </trkpt>
      <trkpt lat="45.72951" lon="4.8184">
        <ele>177.5006104</ele>
        <time>2011-12-04T07:07:53Z</time>
      </trkpt>
      <trkpt lat="45.72936" lon="4.81844">
        <ele>177.9812012</ele>
        <time>2011-12-04T07:07:59Z</time>
      </trkpt>
      <trkpt lat="45.72917" lon="4.81847">
        <ele>178.4619141</ele>
        <time>2011-12-04T07:08:07Z</time>
      </trkpt>
      <trkpt lat="45.72902" lon="4.81849">
        <ele>178.942627</ele>
        <time>2011-12-04T07:08:13Z</time>
      </trkpt>
      <trkpt lat="45.72885" lon="4.81852">
        <ele>179.4232178</ele>
        <time>2011-12-04T07:08:20Z</time>
      </trkpt>
      <trkpt lat="45.72888" lon="4.81861">
        <ele>179.9038086</ele>
        <time>2011-12-04T07:08:25Z</time>
      </trkpt>
      <trkpt lat="45.72892" lon="4.81861">
        <ele>179.4232178</ele>
        <time>2011-12-04T07:08:27Z</time>
      </trkpt>
      <trkpt lat="45.72907" lon="4.81859">
        <ele>178.4619141</ele>
        <time>2011-12-04T07:08:33Z</time>
      </trkpt>
      <trkpt lat="45.72919" lon="4.81857">
        <ele>176.5393066</ele>
        <time>2011-12-04T07:08:38Z</time>
      </trkpt>
      <trkpt lat="45.72934" lon="4.81856">
        <ele>175.5778809</ele>
        <time>2011-12-04T07:08:44Z</time>
      </trkpt>
      <trkpt lat="45.72949" lon="4.81855">
        <ele>175.09729</ele>
        <time>2011-12-04T07:08:50Z</time>
      </trkpt>
      <trkpt lat="45.72964" lon="4.81854">
        <ele>173.6552734</ele>
        <time>2011-12-04T07:08:57Z</time>
      </trkpt>
      <trkpt lat="45.72977" lon="4.81855">
        <ele>174.1358643</ele>
        <time>2011-12-04T07:09:02Z</time>
      </trkpt>
      <trkpt lat="45.72988" lon="4.81855">
        <ele>174.6165771</ele>
        <time>2011-12-04T07:09:07Z</time>
      </trkpt>
      <trkpt lat="45.73008" lon="4.81855">
        <ele>174.6165771</ele>
        <time>2011-12-04T07:09:15Z</time>
      </trkpt>
      <trkpt lat="45.73023" lon="4.81855">
        <ele>176.5393066</ele>
        <time>2011-12-04T07:09:22Z</time>
      </trkpt>
      <trkpt lat="45.73038" lon="4.81856">
        <ele>179.9038086</ele>
        <time>2011-12-04T07:09:28Z</time>
      </trkpt>
      <trkpt lat="45.73051" lon="4.81857">
        <ele>182.3071289</ele>
        <time>2011-12-04T07:09:34Z</time>
      </trkpt>
      <trkpt lat="45.7306" lon="4.81858">
        <ele>183.2684326</ele>
        <time>2011-12-04T07:09:38Z</time>
      </trkpt>
      <trkpt lat="45.73072" lon="4.81861">
        <ele>186.1524658</ele>
        <time>2011-12-04T07:09:43Z</time>
      </trkpt>
      <trkpt lat="45.73086" lon="4.81863">
        <ele>190.4783936</ele>
        <time>2011-12-04T07:09:48Z</time>
      </trkpt>
      <trkpt lat="45.73087" lon="4.81863">
        <ele>190.4783936</ele>
        <time>2011-12-04T07:09:49Z</time>
      </trkpt>
      <trkpt lat="45.731" lon="4.81864">
        <ele>190.9589844</ele>
        <time>2011-12-04T07:09:54Z</time>
      </trkpt>
      <trkpt lat="45.73114" lon="4.81865">
        <ele>190.9589844</ele>
        <time>2011-12-04T07:10:00Z</time>
      </trkpt>
      <trkpt lat="45.73126" lon="4.81867">
        <ele>192.401123</ele>
        <time>2011-12-04T07:10:05Z</time>
      </trkpt>
      <trkpt lat="45.73137" lon="4.81869">
        <ele>193.8430176</ele>
        <time>2011-12-04T07:10:10Z</time>
      </trkpt>
      <trkpt lat="45.73148" lon="4.81871">
        <ele>194.3237305</ele>
        <time>2011-12-04T07:10:15Z</time>
      </trkpt>
      <trkpt lat="45.73161" lon="4.81874">
        <ele>192.8817139</ele>
        <time>2011-12-04T07:10:20Z</time>
      </trkpt>
      <trkpt lat="45.73176" lon="4.81877">
        <ele>191.4395752</ele>
        <time>2011-12-04T07:10:26Z</time>
      </trkpt>
      <trkpt lat="45.7318" lon="4.81877">
        <ele>190.9589844</ele>
        <time>2011-12-04T07:10:28Z</time>
      </trkpt>
      <trkpt lat="45.73194" lon="4.8188">
        <ele>189.9976807</ele>
        <time>2011-12-04T07:10:34Z</time>
      </trkpt>
      <trkpt lat="45.732" lon="4.8188">
        <ele>190.9589844</ele>
        <time>2011-12-04T07:10:36Z</time>
      </trkpt>
      <trkpt lat="45.73216" lon="4.81885">
        <ele>192.401123</ele>
        <time>2011-12-04T07:10:42Z</time>
      </trkpt>
      <trkpt lat="45.73228" lon="4.81887">
        <ele>192.8817139</ele>
        <time>2011-12-04T07:10:47Z</time>
      </trkpt>
      <trkpt lat="45.7324" lon="4.8189">
        <ele>193.3623047</ele>
        <time>2011-12-04T07:10:52Z</time>
      </trkpt>
      <trkpt lat="45.73254" lon="4.81893">
        <ele>193.8430176</ele>
        <time>2011-12-04T07:10:57Z</time>
      </trkpt>
      <trkpt lat="45.73268" lon="4.81896">
        <ele>193.3623047</ele>
        <time>2011-12-04T07:11:03Z</time>
      </trkpt>
      <trkpt lat="45.73282" lon="4.819">
        <ele>192.401123</ele>
        <time>2011-12-04T07:11:08Z</time>
      </trkpt>
      <trkpt lat="45.73292" lon="4.81904">
        <ele>192.8817139</ele>
        <time>2011-12-04T07:11:12Z</time>
      </trkpt>
      <trkpt lat="45.73306" lon="4.81909">
        <ele>192.401123</ele>
        <time>2011-12-04T07:11:17Z</time>
      </trkpt>
      <trkpt lat="45.73318" lon="4.81911">
        <ele>191.4395752</ele>
        <time>2011-12-04T07:11:23Z</time>
      </trkpt>
      <trkpt lat="45.73325" lon="4.81915">
        <ele>190.9589844</ele>
        <time>2011-12-04T07:11:26Z</time>
      </trkpt>
      <trkpt lat="45.73342" lon="4.81918">
        <ele>191.9202881</ele>
        <time>2011-12-04T07:11:33Z</time>
      </trkpt>
      <trkpt lat="45.73347" lon="4.81918">
        <ele>193.3623047</ele>
        <time>2011-12-04T07:11:35Z</time>
      </trkpt>
      <trkpt lat="45.73357" lon="4.81922">
        <ele>197.6882324</ele>
        <time>2011-12-04T07:11:41Z</time>
      </trkpt>
      <trkpt lat="45.73365" lon="4.81927">
        <ele>190.9589844</ele>
        <time>2011-12-04T07:11:47Z</time>
      </trkpt>
      <trkpt lat="45.73369" lon="4.81926">
        <ele>186.6331787</ele>
        <time>2011-12-04T07:11:50Z</time>
      </trkpt>
      <trkpt lat="45.73384" lon="4.81923">
        <ele>185.1911621</ele>
        <time>2011-12-04T07:11:55Z</time>
      </trkpt>
      <trkpt lat="45.73386" lon="4.81923">
        <ele>185.1911621</ele>
        <time>2011-12-04T07:11:56Z</time>
      </trkpt>
      <trkpt lat="45.73392" lon="4.81917">
        <ele>178.942627</ele>
        <time>2011-12-04T07:12:02Z</time>
      </trkpt>
      <trkpt lat="45.73391" lon="4.81913">
        <ele>178.942627</ele>
        <time>2011-12-04T07:12:10Z</time>
      </trkpt>
      <trkpt lat="45.73389" lon="4.81912">
        <ele>180.8652344</ele>
        <time>2011-12-04T07:12:15Z</time>
      </trkpt>
      <trkpt lat="45.73387" lon="4.81927">
        <ele>183.2684326</ele>
        <time>2011-12-04T07:12:21Z</time>
      </trkpt>
      <trkpt lat="45.73386" lon="4.8193">
        <ele>183.7490234</ele>
        <time>2011-12-04T07:12:22Z</time>
      </trkpt>
      <trkpt lat="45.73381" lon="4.81946">
        <ele>184.2298584</ele>
        <time>2011-12-04T07:12:28Z</time>
      </trkpt>
      <trkpt lat="45.73374" lon="4.81964">
        <ele>179.4232178</ele>
        <time>2011-12-04T07:12:35Z</time>
      </trkpt>
      <trkpt lat="45.73369" lon="4.81982">
        <ele>177.5006104</ele>
        <time>2011-12-04T07:12:41Z</time>
      </trkpt>
      <trkpt lat="45.73364" lon="4.82001">
        <ele>177.9812012</ele>
        <time>2011-12-04T07:12:47Z</time>
      </trkpt>
      <trkpt lat="45.73358" lon="4.82023">
        <ele>177.5006104</ele>
        <time>2011-12-04T07:12:54Z</time>
      </trkpt>
      <trkpt lat="45.73353" lon="4.82045">
        <ele>177.0200195</ele>
        <time>2011-12-04T07:13:01Z</time>
      </trkpt>
      <trkpt lat="45.73348" lon="4.82062">
        <ele>176.5393066</ele>
        <time>2011-12-04T07:13:06Z</time>
      </trkpt>
      <trkpt lat="45.73344" lon="4.82082">
        <ele>176.0585938</ele>
        <time>2011-12-04T07:13:12Z</time>
      </trkpt>
      <trkpt lat="45.73339" lon="4.82096">
        <ele>173.6552734</ele>
        <time>2011-12-04T07:13:17Z</time>
      </trkpt>
      <trkpt lat="45.73335" lon="4.82114">
        <ele>174.1358643</ele>
        <time>2011-12-04T07:13:22Z</time>
      </trkpt>
      <trkpt lat="45.7333" lon="4.82135">
        <ele>174.6165771</ele>
        <time>2011-12-04T07:13:28Z</time>
      </trkpt>
      <trkpt lat="45.73327" lon="4.82151">
        <ele>176.5393066</ele>
        <time>2011-12-04T07:13:32Z</time>
      </trkpt>
      <trkpt lat="45.73322" lon="4.82171">
        <ele>177.0200195</ele>
        <time>2011-12-04T07:13:38Z</time>
      </trkpt>
      <trkpt lat="45.73317" lon="4.82188">
        <ele>177.5006104</ele>
        <time>2011-12-04T07:13:43Z</time>
      </trkpt>
      <trkpt lat="45.73315" lon="4.82204">
        <ele>177.9812012</ele>
        <time>2011-12-04T07:13:47Z</time>
      </trkpt>
      <trkpt lat="45.7331" lon="4.82216">
        <ele>180.3845215</ele>
        <time>2011-12-04T07:13:51Z</time>
      </trkpt>
      <trkpt lat="45.73306" lon="4.8223">
        <ele>181.826416</ele>
        <time>2011-12-04T07:13:56Z</time>
      </trkpt>
      <trkpt lat="45.73306" lon="4.82231">
        <ele>180.8652344</ele>
        <time>2011-12-04T07:13:57Z</time>
      </trkpt>
      <trkpt lat="45.7331" lon="4.82223">
        <ele>177.0200195</ele>
        <time>2011-12-04T07:14:01Z</time>
      </trkpt>
      <trkpt lat="45.73314" lon="4.82219">
        <ele>173.1746826</ele>
        <time>2011-12-04T07:14:04Z</time>
      </trkpt>
      <trkpt lat="45.73318" lon="4.82209">
        <ele>168.368042</ele>
        <time>2011-12-04T07:14:09Z</time>
      </trkpt>
      <trkpt lat="45.73326" lon="4.82205">
        <ele>164.5227051</ele>
        <time>2011-12-04T07:14:14Z</time>
      </trkpt>
      <trkpt lat="45.73322" lon="4.82198">
        <ele>170.2906494</ele>
        <time>2011-12-04T07:14:19Z</time>
      </trkpt>
      <trkpt lat="45.73319" lon="4.82198">
        <ele>172.6939697</ele>
        <time>2011-12-04T07:14:20Z</time>
      </trkpt>
      <trkpt lat="45.73306" lon="4.82195">
        <ele>172.6939697</ele>
        <time>2011-12-04T07:14:26Z</time>
      </trkpt>
      <trkpt lat="45.73283" lon="4.82185">
        <ele>173.1746826</ele>
        <time>2011-12-04T07:14:30Z</time>
      </trkpt>
      <trkpt lat="45.73277" lon="4.82182">
        <ele>180.8652344</ele>
        <time>2011-12-04T07:14:33Z</time>
      </trkpt>
      <trkpt lat="45.73273" lon="4.8218">
        <ele>184.2298584</ele>
        <time>2011-12-04T07:14:36Z</time>
      </trkpt>
      <trkpt lat="45.73259" lon="4.82175">
        <ele>197.6882324</ele>
        <time>2011-12-04T07:14:43Z</time>
      </trkpt>
      <trkpt lat="45.73248" lon="4.82165">
        <ele>197.6882324</ele>
        <time>2011-12-04T07:14:48Z</time>
      </trkpt>
      <trkpt lat="45.73236" lon="4.82157">
        <ele>196.7269287</ele>
        <time>2011-12-04T07:14:54Z</time>
      </trkpt>
      <trkpt lat="45.73222" lon="4.82149">
        <ele>193.8430176</ele>
        <time>2011-12-04T07:15:00Z</time>
      </trkpt>
      <trkpt lat="45.73207" lon="4.82139">
        <ele>189.5169678</ele>
        <time>2011-12-04T07:15:07Z</time>
      </trkpt>
      <trkpt lat="45.73191" lon="4.82137">
        <ele>191.9202881</ele>
        <time>2011-12-04T07:15:13Z</time>
      </trkpt>
      <trkpt lat="45.7318" lon="4.82133">
        <ele>186.1524658</ele>
        <time>2011-12-04T07:15:18Z</time>
      </trkpt>
      <trkpt lat="45.73169" lon="4.8213">
        <ele>181.826416</ele>
        <time>2011-12-04T07:15:23Z</time>
      </trkpt>
      <trkpt lat="45.73167" lon="4.82129">
        <ele>179.4232178</ele>
        <time>2011-12-04T07:15:24Z</time>
      </trkpt>
      <trkpt lat="45.7315" lon="4.82124">
        <ele>175.5778809</ele>
        <time>2011-12-04T07:15:30Z</time>
      </trkpt>
      <trkpt lat="45.73137" lon="4.82122">
        <ele>176.5393066</ele>
        <time>2011-12-04T07:15:35Z</time>
      </trkpt>
      <trkpt lat="45.73127" lon="4.82121">
        <ele>177.0200195</ele>
        <time>2011-12-04T07:15:40Z</time>
      </trkpt>
      <trkpt lat="45.73117" lon="4.82125">
        <ele>175.5778809</ele>
        <time>2011-12-04T07:15:45Z</time>
      </trkpt>
      <trkpt lat="45.73105" lon="4.8213">
        <ele>174.1358643</ele>
        <time>2011-12-04T07:15:50Z</time>
      </trkpt>
      <trkpt lat="45.73091" lon="4.8214">
        <ele>175.09729</ele>
        <time>2011-12-04T07:15:56Z</time>
      </trkpt>
      <trkpt lat="45.73074" lon="4.82152">
        <ele>176.5393066</ele>
        <time>2011-12-04T07:16:03Z</time>
      </trkpt>
      <trkpt lat="45.73062" lon="4.8216">
        <ele>179.9038086</ele>
        <time>2011-12-04T07:16:08Z</time>
      </trkpt>
      <trkpt lat="45.73051" lon="4.82168">
        <ele>181.3458252</ele>
        <time>2011-12-04T07:16:13Z</time>
      </trkpt>
      <trkpt lat="45.73036" lon="4.82175">
        <ele>183.7490234</ele>
        <time>2011-12-04T07:16:19Z</time>
      </trkpt>
      <trkpt lat="45.73025" lon="4.8218">
        <ele>185.6717529</ele>
        <time>2011-12-04T07:16:23Z</time>
      </trkpt>
      <trkpt lat="45.73009" lon="4.82181">
        <ele>184.2298584</ele>
        <time>2011-12-04T07:16:29Z</time>
      </trkpt>
      <trkpt lat="45.72991" lon="4.82178">
        <ele>183.7490234</ele>
        <time>2011-12-04T07:16:36Z</time>
      </trkpt>
      <trkpt lat="45.72974" lon="4.82171">
        <ele>185.1911621</ele>
        <time>2011-12-04T07:16:43Z</time>
      </trkpt>
      <trkpt lat="45.72956" lon="4.82159">
        <ele>185.6717529</ele>
        <time>2011-12-04T07:16:51Z</time>
      </trkpt>
      <trkpt lat="45.72947" lon="4.82146">
        <ele>182.7878418</ele>
        <time>2011-12-04T07:16:56Z</time>
      </trkpt>
      <trkpt lat="45.72934" lon="4.82125">
        <ele>177.5006104</ele>
        <time>2011-12-04T07:17:03Z</time>
      </trkpt>
      <trkpt lat="45.72925" lon="4.82116">
        <ele>176.0585938</ele>
        <time>2011-12-04T07:17:08Z</time>
      </trkpt>
      <trkpt lat="45.72912" lon="4.82113">
        <ele>182.7878418</ele>
        <time>2011-12-04T07:17:13Z</time>
      </trkpt>
      <trkpt lat="45.72898" lon="4.82106">
        <ele>182.7878418</ele>
        <time>2011-12-04T07:17:19Z</time>
      </trkpt>
      <trkpt lat="45.72888" lon="4.82105">
        <ele>189.5169678</ele>
        <time>2011-12-04T07:17:24Z</time>
      </trkpt>
      <trkpt lat="45.72878" lon="4.82102">
        <ele>183.7490234</ele>
        <time>2011-12-04T07:17:28Z</time>
      </trkpt>
      <trkpt lat="45.72864" lon="4.82105">
        <ele>185.1911621</ele>
        <time>2011-12-04T07:17:34Z</time>
      </trkpt>
      <trkpt lat="45.7285" lon="4.82106">
        <ele>184.2298584</ele>
        <time>2011-12-04T07:17:39Z</time>
      </trkpt>
      <trkpt lat="45.72833" lon="4.82102">
        <ele>187.1137695</ele>
        <time>2011-12-04T07:17:45Z</time>
      </trkpt>
      <trkpt lat="45.72821" lon="4.82101">
        <ele>186.6331787</ele>
        <time>2011-12-04T07:17:50Z</time>
      </trkpt>
      <trkpt lat="45.72808" lon="4.821">
        <ele>189.5169678</ele>
        <time>2011-12-04T07:17:55Z</time>
      </trkpt>
      <trkpt lat="45.72789" lon="4.82103">
        <ele>198.6495361</ele>
        <time>2011-12-04T07:18:01Z</time>
      </trkpt>
      <trkpt lat="45.72775" lon="4.82102">
        <ele>206.3400879</ele>
        <time>2011-12-04T07:18:07Z</time>
      </trkpt>
      <trkpt lat="45.72762" lon="4.82104">
        <ele>209.2241211</ele>
        <time>2011-12-04T07:18:12Z</time>
      </trkpt>
      <trkpt lat="45.72752" lon="4.82101">
        <ele>206.3400879</ele>
        <time>2011-12-04T07:18:16Z</time>
      </trkpt>
      <trkpt lat="45.72747" lon="4.82102">
        <ele>203.4561768</ele>
        <time>2011-12-04T07:18:18Z</time>
      </trkpt>
      <trkpt lat="45.72728" lon="4.821">
        <ele>206.3400879</ele>
        <time>2011-12-04T07:18:25Z</time>
      </trkpt>
      <trkpt lat="45.72715" lon="4.82096">
        <ele>198.1689453</ele>
        <time>2011-12-04T07:18:31Z</time>
      </trkpt>
      <trkpt lat="45.72704" lon="4.82096">
        <ele>194.8043213</ele>
        <time>2011-12-04T07:18:36Z</time>
      </trkpt>
      <trkpt lat="45.72692" lon="4.82096">
        <ele>191.4395752</ele>
        <time>2011-12-04T07:18:41Z</time>
      </trkpt>
      <trkpt lat="45.72679" lon="4.82094">
        <ele>185.6717529</ele>
        <time>2011-12-04T07:18:47Z</time>
      </trkpt>
      <trkpt lat="45.72665" lon="4.82095">
        <ele>183.2684326</ele>
        <time>2011-12-04T07:18:52Z</time>
      </trkpt>
      <trkpt lat="45.72651" lon="4.82096">
        <ele>179.9038086</ele>
        <time>2011-12-04T07:18:57Z</time>
      </trkpt>
      <trkpt lat="45.7264" lon="4.82096">
        <ele>177.5006104</ele>
        <time>2011-12-04T07:19:02Z</time>
      </trkpt>
      <trkpt lat="45.72628" lon="4.821">
        <ele>177.0200195</ele>
        <time>2011-12-04T07:19:07Z</time>
      </trkpt>
      <trkpt lat="45.72619" lon="4.82101">
        <ele>172.2132568</ele>
        <time>2011-12-04T07:19:11Z</time>
      </trkpt>
      <trkpt lat="45.72608" lon="4.82101">
        <ele>171.732666</ele>
        <time>2011-12-04T07:19:16Z</time>
      </trkpt>
      <trkpt lat="45.72603" lon="4.821">
        <ele>170.2906494</ele>
        <time>2011-12-04T07:19:18Z</time>
      </trkpt>
      <trkpt lat="45.72586" lon="4.82104">
        <ele>171.2520752</ele>
        <time>2011-12-04T07:19:25Z</time>
      </trkpt>
      <trkpt lat="45.72571" lon="4.8211">
        <ele>168.8487549</ele>
        <time>2011-12-04T07:19:31Z</time>
      </trkpt>
      <trkpt lat="45.72556" lon="4.82119">
        <ele>169.8100586</ele>
        <time>2011-12-04T07:19:37Z</time>
      </trkpt>
      <trkpt lat="45.7254" lon="4.82131">
        <ele>172.6939697</ele>
        <time>2011-12-04T07:19:43Z</time>
      </trkpt>
      <trkpt lat="45.72526" lon="4.82146">
        <ele>174.1358643</ele>
        <time>2011-12-04T07:19:50Z</time>
      </trkpt>
      <trkpt lat="45.72515" lon="4.82159">
        <ele>171.2520752</ele>
        <time>2011-12-04T07:19:56Z</time>
      </trkpt>
      <trkpt lat="45.72503" lon="4.82172">
        <ele>170.7713623</ele>
        <time>2011-12-04T07:20:02Z</time>
      </trkpt>
      <trkpt lat="45.72493" lon="4.82185">
        <ele>172.6939697</ele>
        <time>2011-12-04T07:20:07Z</time>
      </trkpt>
      <trkpt lat="45.72482" lon="4.82195">
        <ele>171.732666</ele>
        <time>2011-12-04T07:20:12Z</time>
      </trkpt>
      <trkpt lat="45.72468" lon="4.82211">
        <ele>171.2520752</ele>
        <time>2011-12-04T07:20:19Z</time>
      </trkpt>
      <trkpt lat="45.72456" lon="4.82225">
        <ele>170.7713623</ele>
        <time>2011-12-04T07:20:25Z</time>
      </trkpt>
      <trkpt lat="45.72444" lon="4.82239">
        <ele>170.7713623</ele>
        <time>2011-12-04T07:20:31Z</time>
      </trkpt>
      <trkpt lat="45.72435" lon="4.82251">
        <ele>170.7713623</ele>
        <time>2011-12-04T07:20:36Z</time>
      </trkpt>
      <trkpt lat="45.72419" lon="4.82269">
        <ele>169.8100586</ele>
        <time>2011-12-04T07:20:44Z</time>
      </trkpt>
      <trkpt lat="45.72408" lon="4.82283">
        <ele>168.368042</ele>
        <time>2011-12-04T07:20:50Z</time>
      </trkpt>
      <trkpt lat="45.72394" lon="4.82299">
        <ele>168.8487549</ele>
        <time>2011-12-04T07:20:57Z</time>
      </trkpt>
      <trkpt lat="45.72382" lon="4.82316">
        <ele>170.7713623</ele>
        <time>2011-12-04T07:21:03Z</time>
      </trkpt>
      <trkpt lat="45.72366" lon="4.82337">
        <ele>171.732666</ele>
        <time>2011-12-04T07:21:11Z</time>
      </trkpt>
      <trkpt lat="45.72354" lon="4.82354">
        <ele>174.1358643</ele>
        <time>2011-12-04T07:21:17Z</time>
      </trkpt>
      <trkpt lat="45.72343" lon="4.82369">
        <ele>176.5393066</ele>
        <time>2011-12-04T07:21:23Z</time>
      </trkpt>
      <trkpt lat="45.72341" lon="4.82372">
        <ele>176.5393066</ele>
        <time>2011-12-04T07:21:24Z</time>
      </trkpt>
      <trkpt lat="45.72342" lon="4.82393">
        <ele>177.0200195</ele>
        <time>2011-12-04T07:21:30Z</time>
      </trkpt>
      <trkpt lat="45.72347" lon="4.82408">
        <ele>177.0200195</ele>
        <time>2011-12-04T07:21:35Z</time>
      </trkpt>
      <trkpt lat="45.72351" lon="4.82426">
        <ele>175.09729</ele>
        <time>2011-12-04T07:21:40Z</time>
      </trkpt>
      <trkpt lat="45.72356" lon="4.82443">
        <ele>173.6552734</ele>
        <time>2011-12-04T07:21:46Z</time>
      </trkpt>
      <trkpt lat="45.72361" lon="4.82459">
        <ele>173.1746826</ele>
        <time>2011-12-04T07:21:51Z</time>
      </trkpt>
      <trkpt lat="45.72367" lon="4.8248">
        <ele>173.1746826</ele>
        <time>2011-12-04T07:21:57Z</time>
      </trkpt>
      <trkpt lat="45.72371" lon="4.82494">
        <ele>173.1746826</ele>
        <time>2011-12-04T07:22:01Z</time>
      </trkpt>
      <trkpt lat="45.72375" lon="4.82511">
        <ele>173.6552734</ele>
        <time>2011-12-04T07:22:05Z</time>
      </trkpt>
      <trkpt lat="45.72377" lon="4.82527">
        <ele>173.6552734</ele>
        <time>2011-12-04T07:22:09Z</time>
      </trkpt>
      <trkpt lat="45.72383" lon="4.82545">
        <ele>173.6552734</ele>
        <time>2011-12-04T07:22:14Z</time>
      </trkpt>
      <trkpt lat="45.72387" lon="4.8256">
        <ele>173.6552734</ele>
        <time>2011-12-04T07:22:18Z</time>
      </trkpt>
      <trkpt lat="45.72393" lon="4.82576">
        <ele>172.2132568</ele>
        <time>2011-12-04T07:22:23Z</time>
      </trkpt>
      <trkpt lat="45.72398" lon="4.82594">
        <ele>172.2132568</ele>
        <time>2011-12-04T07:22:28Z</time>
      </trkpt>
      <trkpt lat="45.72403" lon="4.82616">
        <ele>172.6939697</ele>
        <time>2011-12-04T07:22:34Z</time>
      </trkpt>
      <trkpt lat="45.72407" lon="4.82631">
        <ele>172.2132568</ele>
        <time>2011-12-04T07:22:38Z</time>
      </trkpt>
      <trkpt lat="45.72413" lon="4.82656">
        <ele>173.1746826</ele>
        <time>2011-12-04T07:22:44Z</time>
      </trkpt>
      <trkpt lat="45.72416" lon="4.82674">
        <ele>173.6552734</ele>
        <time>2011-12-04T07:22:49Z</time>
      </trkpt>
      <trkpt lat="45.72421" lon="4.82691">
        <ele>173.6552734</ele>
        <time>2011-12-04T07:22:53Z</time>
      </trkpt>
      <trkpt lat="45.72425" lon="4.82702">
        <ele>173.1746826</ele>
        <time>2011-12-04T07:22:57Z</time>
      </trkpt>
      <trkpt lat="45.72431" lon="4.82715">
        <ele>174.1358643</ele>
        <time>2011-12-04T07:23:03Z</time>
      </trkpt>
      <trkpt lat="45.72434" lon="4.82726">
        <ele>175.09729</ele>
        <time>2011-12-04T07:23:08Z</time>
      </trkpt>
      <trkpt lat="45.72433" lon="4.8273">
        <ele>175.09729</ele>
        <time>2011-12-04T07:23:11Z</time>
      </trkpt>
      <trkpt lat="45.72439" lon="4.8275">
        <ele>176.0585938</ele>
        <time>2011-12-04T07:23:19Z</time>
      </trkpt>
      <trkpt lat="45.7244" lon="4.82753">
        <ele>176.0585938</ele>
        <time>2011-12-04T07:23:20Z</time>
      </trkpt>
      <trkpt lat="45.72438" lon="4.8276">
        <ele>175.5778809</ele>
        <time>2011-12-04T07:23:22Z</time>
      </trkpt>
      <trkpt lat="45.72427" lon="4.82776">
        <ele>174.6165771</ele>
        <time>2011-12-04T07:23:28Z</time>
      </trkpt>
      <trkpt lat="45.72421" lon="4.82779">
        <ele>173.6552734</ele>
        <time>2011-12-04T07:23:30Z</time>
      </trkpt>
      <trkpt lat="45.72421" lon="4.82797">
        <ele>171.732666</ele>
        <time>2011-12-04T07:23:35Z</time>
      </trkpt>
      <trkpt lat="45.72422" lon="4.82805">
        <ele>172.2132568</ele>
        <time>2011-12-04T07:23:39Z</time>
      </trkpt>
      <trkpt lat="45.72421" lon="4.8281">
        <ele>171.732666</ele>
        <time>2011-12-04T07:23:41Z</time>
      </trkpt>
      <trkpt lat="45.72421" lon="4.82816">
        <ele>172.2132568</ele>
        <time>2011-12-04T07:23:50Z</time>
      </trkpt>
      <trkpt lat="45.72416" lon="4.82817">
        <ele>157.7935791</ele>
        <time>2011-12-04T07:24:09Z</time>
      </trkpt>
      <trkpt lat="45.72416" lon="4.82821">
        <ele>163.5615234</ele>
        <time>2011-12-04T07:24:17Z</time>
      </trkpt>
      <trkpt lat="45.72419" lon="4.82823">
        <ele>165.9647217</ele>
        <time>2011-12-04T07:24:20Z</time>
      </trkpt>
      <trkpt lat="45.72421" lon="4.82826">
        <ele>166.9260254</ele>
        <time>2011-12-04T07:24:24Z</time>
      </trkpt>
      <trkpt lat="45.72422" lon="4.82835">
        <ele>172.6939697</ele>
        <time>2011-12-04T07:24:31Z</time>
      </trkpt>
      <trkpt lat="45.72423" lon="4.82843">
        <ele>176.0585938</ele>
        <time>2011-12-04T07:24:38Z</time>
      </trkpt>
      <trkpt lat="45.7242" lon="4.82837">
        <ele>174.6165771</ele>
        <time>2011-12-04T07:24:46Z</time>
      </trkpt>
      <trkpt lat="45.7242" lon="4.82835">
        <ele>174.1358643</ele>
        <time>2011-12-04T07:24:47Z</time>
      </trkpt>
      <trkpt lat="45.72418" lon="4.82832">
        <ele>175.09729</ele>
        <time>2011-12-04T07:24:49Z</time>
      </trkpt>
      <trkpt lat="45.72416" lon="4.82826">
        <ele>177.0200195</ele>
        <time>2011-12-04T07:24:53Z</time>
      </trkpt>
      <trkpt lat="45.72411" lon="4.82816">
        <ele>172.2132568</ele>
        <time>2011-12-04T07:25:01Z</time>
      </trkpt>
      <trkpt lat="45.7241" lon="4.82804">
        <ele>165.003418</ele>
        <time>2011-12-04T07:25:14Z</time>
      </trkpt>
      <trkpt lat="45.72409" lon="4.82799">
        <ele>155.8709717</ele>
        <time>2011-12-04T07:25:18Z</time>
      </trkpt>
    </trkseg>
  </trk>
</gpx>